<?xml version='1.0' encoding='UTF-8'?><gpx version="1.1" creator="JPX - https://github.com/jenetics/jpx" xmlns="http://www.topografix.com/GPX/1/1"><trk><trkseg><trkpt lat="42.5221865" lon="14.1525626"><ele>1.9999999999999998</ele><time>2026-05-01T07:38:47.83Z</time></trkpt><trkpt lat="42.5221333" lon="14.1524799"><ele>2.0</ele><time>2026-05-01T07:38:51.83Z</time></trkpt><trkpt lat="42.5220931" lon="14.152392"><ele>2.0</ele><time>2026-05-01T07:38:55.829Z</time></trkpt><trkpt lat="42.5220486" lon="14.152279"><ele>2.0</ele><time>2026-05-01T07:38:59.83Z</time></trkpt><trkpt lat="42.5220117" lon="14.1521749"><ele>1.9999999999999998</ele><time>2026-05-01T07:39:01.83Z</time></trkpt><trkpt lat="42.5219616" lon="14.1520626"><ele>2.0</ele><time>2026-05-01T07:39:03.83Z</time></trkpt><trkpt lat="42.5218973" lon="14.1519771"><ele>1.6666666666666665</ele><time>2026-05-01T07:39:05.83Z</time></trkpt><trkpt lat="42.5218273" lon="14.1519829"><ele>1.3333333333333333</ele><time>2026-05-01T07:39:07.83Z</time></trkpt><trkpt lat="42.5217717" lon="14.1520244"><ele>1.0</ele><time>2026-05-01T07:39:10.83Z</time></trkpt><trkpt lat="42.5217294" lon="14.1521174"><ele>0.6666666666666666</ele><time>2026-05-01T07:39:15.83Z</time></trkpt><trkpt lat="42.5217931" lon="14.1522219"><ele>0.3333333333333333</ele><time>2026-05-01T07:39:17.83Z</time></trkpt><trkpt lat="42.5218294" lon="14.1522969"><ele>0.0</ele><time>2026-05-01T07:39:19.83Z</time></trkpt><trkpt lat="42.5218853" lon="14.1524106"><ele>-0.14285714285714285</ele><time>2026-05-01T07:39:34.83Z</time></trkpt><trkpt lat="42.5219319" lon="14.1525134"><ele>-0.2857142857142857</ele><time>2026-05-01T07:39:37.829Z</time></trkpt><trkpt lat="42.5219776" lon="14.1525897"><ele>-0.42857142857142855</ele><time>2026-05-01T07:39:41.83Z</time></trkpt><trkpt lat="42.5220102" lon="14.1526666"><ele>-0.5714285714285714</ele><time>2026-05-01T07:40:14.83Z</time></trkpt><trkpt lat="42.5220499" lon="14.1527485"><ele>-0.7142857142857142</ele><time>2026-05-01T07:40:17.83Z</time></trkpt><trkpt lat="42.5220792" lon="14.1528362"><ele>-0.8571428571428571</ele><time>2026-05-01T07:40:19.83Z</time></trkpt><trkpt lat="42.5221127" lon="14.1529239"><ele>-1.0</ele><time>2026-05-01T07:40:21.829Z</time></trkpt><trkpt lat="42.5221392" lon="14.1530121"><ele>-0.4</ele><time>2026-05-01T07:40:23.83Z</time></trkpt><trkpt lat="42.5221868" lon="14.1531138"><ele>0.19999999999999996</ele><time>2026-05-01T07:40:26.83Z</time></trkpt><trkpt lat="42.5222663" lon="14.1531502"><ele>0.8000000000000002</ele><time>2026-05-01T07:40:29.83Z</time></trkpt><trkpt lat="42.5223365" lon="14.1530991"><ele>1.4000000000000001</ele><time>2026-05-01T07:40:31.829Z</time></trkpt><trkpt lat="42.5224334" lon="14.1530258"><ele>2.0</ele><time>2026-05-01T07:40:33.83Z</time></trkpt><trkpt lat="42.522523" lon="14.152957"><ele>1.9999999999999998</ele><time>2026-05-01T07:40:35.83Z</time></trkpt><trkpt lat="42.5225996" lon="14.1528872"><ele>2.0</ele><time>2026-05-01T07:40:37.83Z</time></trkpt><trkpt lat="42.5226668" lon="14.1528866"><ele>2.0</ele><time>2026-05-01T07:40:39.829Z</time></trkpt><trkpt lat="42.5226688" lon="14.1529982"><ele>2.0</ele><time>2026-05-01T07:40:44.83Z</time></trkpt><trkpt lat="42.5225693" lon="14.1530889"><ele>1.9999999999999998</ele><time>2026-05-01T07:40:46.83Z</time></trkpt><trkpt lat="42.5224986" lon="14.1531476"><ele>2.0</ele><time>2026-05-01T07:40:47.83Z</time></trkpt><trkpt lat="42.5224275" lon="14.1532096"><ele>1.9999999999999998</ele><time>2026-05-01T07:40:48.83Z</time></trkpt><trkpt lat="42.5223602" lon="14.1532676"><ele>2.0</ele><time>2026-05-01T07:40:49.83Z</time></trkpt><trkpt lat="42.5222945" lon="14.1533266"><ele>2.0</ele><time>2026-05-01T07:40:50.829Z</time></trkpt><trkpt lat="42.5222272" lon="14.1533852"><ele>2.0</ele><time>2026-05-01T07:40:51.83Z</time></trkpt><trkpt lat="42.5221622" lon="14.1534446"><ele>1.9999999999999998</ele><time>2026-05-01T07:40:52.83Z</time></trkpt><trkpt lat="42.5220973" lon="14.1534975"><ele>2.0</ele><time>2026-05-01T07:40:53.83Z</time></trkpt><trkpt lat="42.5220122" lon="14.1535763"><ele>1.8333333333333333</ele><time>2026-05-01T07:40:55.83Z</time></trkpt><trkpt lat="42.5219456" lon="14.1536061"><ele>1.6666666666666665</ele><time>2026-05-01T07:40:58.83Z</time></trkpt><trkpt lat="42.521881" lon="14.1536598"><ele>1.5</ele><time>2026-05-01T07:41:10.83Z</time></trkpt><trkpt lat="42.5218752" lon="14.1537473"><ele>1.3333333333333333</ele><time>2026-05-01T07:41:11.83Z</time></trkpt><trkpt lat="42.5218921" lon="14.1538458"><ele>1.1666666666666665</ele><time>2026-05-01T07:41:12.83Z</time></trkpt><trkpt lat="42.5219258" lon="14.1539451"><ele>1.0</ele><time>2026-05-01T07:41:13.83Z</time></trkpt><trkpt lat="42.5219666" lon="14.1540616"><ele>1.0</ele><time>2026-05-01T07:41:14.83Z</time></trkpt><trkpt lat="42.5220153" lon="14.1542019"><ele>1.0</ele><time>2026-05-01T07:41:15.83Z</time></trkpt><trkpt lat="42.5220573" lon="14.1543536"><ele>1.0</ele><time>2026-05-01T07:41:16.83Z</time></trkpt><trkpt lat="42.5220978" lon="14.1545212"><ele>1.0</ele><time>2026-05-01T07:41:17.83Z</time></trkpt><trkpt lat="42.5221312" lon="14.1547119"><ele>4.333333333333333</ele><time>2026-05-01T07:41:18.83Z</time></trkpt><trkpt lat="42.5221507" lon="14.1549096"><ele>7.666666666666666</ele><time>2026-05-01T07:41:19.83Z</time></trkpt><trkpt lat="42.5221507" lon="14.1551193"><ele>11.0</ele><time>2026-05-01T07:41:20.83Z</time></trkpt><trkpt lat="42.5221332" lon="14.1553321"><ele>11.0</ele><time>2026-05-01T07:41:21.829Z</time></trkpt><trkpt lat="42.5221041" lon="14.1555194"><ele>11.0</ele><time>2026-05-01T07:41:22.83Z</time></trkpt><trkpt lat="42.5220649" lon="14.1556921"><ele>11.0</ele><time>2026-05-01T07:41:23.83Z</time></trkpt><trkpt lat="42.5220179" lon="14.1558539"><ele>11.0</ele><time>2026-05-01T07:41:24.83Z</time></trkpt><trkpt lat="42.5219683" lon="14.1560063"><ele>9.4</ele><time>2026-05-01T07:41:25.829Z</time></trkpt><trkpt lat="42.52192" lon="14.1561437"><ele>7.800000000000001</ele><time>2026-05-01T07:41:26.83Z</time></trkpt><trkpt lat="42.5218693" lon="14.1562607"><ele>6.2</ele><time>2026-05-01T07:41:27.829Z</time></trkpt><trkpt lat="42.5218142" lon="14.1563718"><ele>4.6</ele><time>2026-05-01T07:41:28.83Z</time></trkpt><trkpt lat="42.5217465" lon="14.1564765"><ele>3.0</ele><time>2026-05-01T07:41:29.829Z</time></trkpt><trkpt lat="42.5216722" lon="14.1565788"><ele>2.75</ele><time>2026-05-01T07:41:30.83Z</time></trkpt><trkpt lat="42.5215878" lon="14.1566807"><ele>2.5</ele><time>2026-05-01T07:41:31.83Z</time></trkpt><trkpt lat="42.5215018" lon="14.1567799"><ele>2.25</ele><time>2026-05-01T07:41:32.83Z</time></trkpt><trkpt lat="42.5214129" lon="14.156879"><ele>2.0</ele><time>2026-05-01T07:41:33.83Z</time></trkpt><trkpt lat="42.5213224" lon="14.1569718"><ele>2.0</ele><time>2026-05-01T07:41:34.83Z</time></trkpt><trkpt lat="42.5212385" lon="14.157072"><ele>2.0</ele><time>2026-05-01T07:41:35.83Z</time></trkpt><trkpt lat="42.5211445" lon="14.1571712"><ele>2.0</ele><time>2026-05-01T07:41:36.83Z</time></trkpt><trkpt lat="42.5210497" lon="14.1572705"><ele>2.0</ele><time>2026-05-01T07:41:37.83Z</time></trkpt><trkpt lat="42.5209549" lon="14.1573759"><ele>2.0</ele><time>2026-05-01T07:41:38.83Z</time></trkpt><trkpt lat="42.5208525" lon="14.157483"><ele>2.0</ele><time>2026-05-01T07:41:39.83Z</time></trkpt><trkpt lat="42.5207454" lon="14.1575935"><ele>2.0</ele><time>2026-05-01T07:41:40.83Z</time></trkpt><trkpt lat="42.5206351" lon="14.1577167"><ele>2.0</ele><time>2026-05-01T07:41:41.829Z</time></trkpt><trkpt lat="42.5205142" lon="14.1578413"><ele>2.333333333333333</ele><time>2026-05-01T07:41:42.83Z</time></trkpt><trkpt lat="42.520393" lon="14.1579675"><ele>2.6666666666666665</ele><time>2026-05-01T07:41:43.829Z</time></trkpt><trkpt lat="42.5202748" lon="14.1580974"><ele>3.0</ele><time>2026-05-01T07:41:44.83Z</time></trkpt><trkpt lat="42.5201594" lon="14.1582278"><ele>3.0</ele><time>2026-05-01T07:41:45.83Z</time></trkpt><trkpt lat="42.5200482" lon="14.1583461"><ele>3.0</ele><time>2026-05-01T07:41:46.829Z</time></trkpt><trkpt lat="42.5199461" lon="14.1584595"><ele>3.0</ele><time>2026-05-01T07:41:47.829Z</time></trkpt><trkpt lat="42.5198579" lon="14.1585524"><ele>3.0</ele><time>2026-05-01T07:41:48.83Z</time></trkpt><trkpt lat="42.5197814" lon="14.1586372"><ele>3.0</ele><time>2026-05-01T07:41:49.83Z</time></trkpt><trkpt lat="42.519705" lon="14.1587195"><ele>3.0</ele><time>2026-05-01T07:41:50.83Z</time></trkpt><trkpt lat="42.5196297" lon="14.1588024"><ele>3.0</ele><time>2026-05-01T07:41:51.83Z</time></trkpt><trkpt lat="42.5195507" lon="14.1588879"><ele>3.0</ele><time>2026-05-01T07:41:52.83Z</time></trkpt><trkpt lat="42.5194682" lon="14.1589713"><ele>3.0</ele><time>2026-05-01T07:41:53.83Z</time></trkpt><trkpt lat="42.5193911" lon="14.1590511"><ele>2.8</ele><time>2026-05-01T07:41:54.83Z</time></trkpt><trkpt lat="42.5193168" lon="14.1591283"><ele>2.5999999999999996</ele><time>2026-05-01T07:41:55.83Z</time></trkpt><trkpt lat="42.5192469" lon="14.1592034"><ele>2.4000000000000004</ele><time>2026-05-01T07:41:56.83Z</time></trkpt><trkpt lat="42.5191746" lon="14.1592832"><ele>2.2</ele><time>2026-05-01T07:41:57.829Z</time></trkpt><trkpt lat="42.5191018" lon="14.1593592"><ele>2.0</ele><time>2026-05-01T07:41:58.83Z</time></trkpt><trkpt lat="42.5190365" lon="14.1594309"><ele>1.9999999999999998</ele><time>2026-05-01T07:41:59.83Z</time></trkpt><trkpt lat="42.5189808" lon="14.1594845"><ele>2.0</ele><time>2026-05-01T07:42:00.83Z</time></trkpt><trkpt lat="42.5189237" lon="14.1595483"><ele>2.0</ele><time>2026-05-01T07:42:03.829Z</time></trkpt><trkpt lat="42.5188554" lon="14.1596374"><ele>2.0</ele><time>2026-05-01T07:42:06.83Z</time></trkpt><trkpt lat="42.5187992" lon="14.1596855"><ele>1.9999999999999998</ele><time>2026-05-01T07:42:07.83Z</time></trkpt><trkpt lat="42.5187342" lon="14.1597463"><ele>2.0</ele><time>2026-05-01T07:42:08.829Z</time></trkpt><trkpt lat="42.5186622" lon="14.1598157"><ele>1.4000000000000001</ele><time>2026-05-01T07:42:09.83Z</time></trkpt><trkpt lat="42.5185909" lon="14.1598939"><ele>0.8000000000000002</ele><time>2026-05-01T07:42:10.83Z</time></trkpt><trkpt lat="42.5185167" lon="14.1599793"><ele>0.19999999999999996</ele><time>2026-05-01T07:42:11.83Z</time></trkpt><trkpt lat="42.5184421" lon="14.160069"><ele>-0.4</ele><time>2026-05-01T07:42:12.83Z</time></trkpt><trkpt lat="42.5183633" lon="14.1601541"><ele>-1.0</ele><time>2026-05-01T07:42:13.83Z</time></trkpt><trkpt lat="42.5182859" lon="14.160233"><ele>-1.0</ele><time>2026-05-01T07:42:14.83Z</time></trkpt><trkpt lat="42.5182088" lon="14.160312"><ele>-1.0</ele><time>2026-05-01T07:42:15.83Z</time></trkpt><trkpt lat="42.5181344" lon="14.1604013"><ele>-1.0</ele><time>2026-05-01T07:42:16.829Z</time></trkpt><trkpt lat="42.5180536" lon="14.1604945"><ele>-1.0</ele><time>2026-05-01T07:42:17.83Z</time></trkpt><trkpt lat="42.5179673" lon="14.1605919"><ele>-1.0</ele><time>2026-05-01T07:42:18.83Z</time></trkpt><trkpt lat="42.517879" lon="14.1606797"><ele>-0.20000000000000007</ele><time>2026-05-01T07:42:19.83Z</time></trkpt><trkpt lat="42.5177911" lon="14.1607644"><ele>0.5999999999999999</ele><time>2026-05-01T07:42:20.829Z</time></trkpt><trkpt lat="42.517709" lon="14.16085"><ele>1.4</ele><time>2026-05-01T07:42:21.83Z</time></trkpt><trkpt lat="42.5176257" lon="14.1609325"><ele>2.1999999999999997</ele><time>2026-05-01T07:42:22.83Z</time></trkpt><trkpt lat="42.5175389" lon="14.1610179"><ele>3.0</ele><time>2026-05-01T07:42:23.83Z</time></trkpt><trkpt lat="42.517461" lon="14.1610948"><ele>3.0</ele><time>2026-05-01T07:42:24.829Z</time></trkpt><trkpt lat="42.5173966" lon="14.161157"><ele>3.0</ele><time>2026-05-01T07:42:25.83Z</time></trkpt><trkpt lat="42.5173354" lon="14.1612099"><ele>3.0</ele><time>2026-05-01T07:42:26.83Z</time></trkpt><trkpt lat="42.5172825" lon="14.1612652"><ele>3.0</ele><time>2026-05-01T07:42:27.83Z</time></trkpt><trkpt lat="42.5171851" lon="14.1613626"><ele>3.0</ele><time>2026-05-01T07:42:29.83Z</time></trkpt><trkpt lat="42.5171402" lon="14.1614239"><ele>3.0</ele><time>2026-05-01T07:42:30.829Z</time></trkpt><trkpt lat="42.5170496" lon="14.16153"><ele>3.1666666666666665</ele><time>2026-05-01T07:42:32.83Z</time></trkpt><trkpt lat="42.5169508" lon="14.1616333"><ele>3.333333333333333</ele><time>2026-05-01T07:42:34.83Z</time></trkpt><trkpt lat="42.5169001" lon="14.1616949"><ele>3.5</ele><time>2026-05-01T07:42:35.829Z</time></trkpt><trkpt lat="42.5168329" lon="14.1617515"><ele>3.6666666666666665</ele><time>2026-05-01T07:42:36.83Z</time></trkpt><trkpt lat="42.5167662" lon="14.1618232"><ele>3.833333333333333</ele><time>2026-05-01T07:42:37.83Z</time></trkpt><trkpt lat="42.5166997" lon="14.1618974"><ele>4.0</ele><time>2026-05-01T07:42:38.83Z</time></trkpt><trkpt lat="42.5166372" lon="14.1619798"><ele>4.0</ele><time>2026-05-01T07:42:39.83Z</time></trkpt><trkpt lat="42.5165675" lon="14.1620628"><ele>4.0</ele><time>2026-05-01T07:42:40.83Z</time></trkpt><trkpt lat="42.5164957" lon="14.1621439"><ele>4.0</ele><time>2026-05-01T07:42:41.83Z</time></trkpt><trkpt lat="42.5164216" lon="14.1622253"><ele>4.0</ele><time>2026-05-01T07:42:42.83Z</time></trkpt><trkpt lat="42.5163436" lon="14.1623019"><ele>4.0</ele><time>2026-05-01T07:42:43.83Z</time></trkpt><trkpt lat="42.5162677" lon="14.1623819"><ele>4.0</ele><time>2026-05-01T07:42:44.829Z</time></trkpt><trkpt lat="42.5161949" lon="14.1624638"><ele>4.0</ele><time>2026-05-01T07:42:45.83Z</time></trkpt><trkpt lat="42.5161202" lon="14.1625466"><ele>4.0</ele><time>2026-05-01T07:42:46.83Z</time></trkpt><trkpt lat="42.5160469" lon="14.1626347"><ele>4.0</ele><time>2026-05-01T07:42:47.83Z</time></trkpt><trkpt lat="42.5159667" lon="14.1627268"><ele>4.0</ele><time>2026-05-01T07:42:48.829Z</time></trkpt><trkpt lat="42.515881" lon="14.1628207"><ele>4.0</ele><time>2026-05-01T07:42:49.83Z</time></trkpt><trkpt lat="42.515791" lon="14.1629147"><ele>4.0</ele><time>2026-05-01T07:42:50.83Z</time></trkpt><trkpt lat="42.5157047" lon="14.1630073"><ele>4.0</ele><time>2026-05-01T07:42:51.829Z</time></trkpt><trkpt lat="42.5156221" lon="14.1630923"><ele>4.0</ele><time>2026-05-01T07:42:52.829Z</time></trkpt><trkpt lat="42.5155466" lon="14.1631714"><ele>4.0</ele><time>2026-05-01T07:42:53.83Z</time></trkpt><trkpt lat="42.515477" lon="14.1632447"><ele>3.6</ele><time>2026-05-01T07:42:54.83Z</time></trkpt><trkpt lat="42.5154072" lon="14.163313"><ele>3.2</ele><time>2026-05-01T07:42:55.83Z</time></trkpt><trkpt lat="42.5153341" lon="14.163387"><ele>2.8000000000000003</ele><time>2026-05-01T07:42:56.83Z</time></trkpt><trkpt lat="42.5152621" lon="14.1634599"><ele>2.4000000000000004</ele><time>2026-05-01T07:42:57.829Z</time></trkpt><trkpt lat="42.5151894" lon="14.1635333"><ele>2.0</ele><time>2026-05-01T07:42:58.83Z</time></trkpt><trkpt lat="42.5151146" lon="14.1636148"><ele>2.0</ele><time>2026-05-01T07:42:59.83Z</time></trkpt><trkpt lat="42.515038" lon="14.1636927"><ele>2.0</ele><time>2026-05-01T07:43:00.829Z</time></trkpt><trkpt lat="42.5149645" lon="14.1637713"><ele>2.0</ele><time>2026-05-01T07:43:01.83Z</time></trkpt><trkpt lat="42.5148881" lon="14.1638532"><ele>2.0</ele><time>2026-05-01T07:43:02.83Z</time></trkpt><trkpt lat="42.5148107" lon="14.1639309"><ele>2.0</ele><time>2026-05-01T07:43:03.83Z</time></trkpt><trkpt lat="42.5147358" lon="14.1640119"><ele>1.8</ele><time>2026-05-01T07:43:04.83Z</time></trkpt><trkpt lat="42.5146666" lon="14.1640914"><ele>1.6</ele><time>2026-05-01T07:43:05.83Z</time></trkpt><trkpt lat="42.5146029" lon="14.1641726"><ele>1.4000000000000001</ele><time>2026-05-01T07:43:06.83Z</time></trkpt><trkpt lat="42.5145265" lon="14.1642558"><ele>1.2000000000000002</ele><time>2026-05-01T07:43:07.829Z</time></trkpt><trkpt lat="42.5144364" lon="14.1643504"><ele>1.0</ele><time>2026-05-01T07:43:08.83Z</time></trkpt><trkpt lat="42.51434" lon="14.1644482"><ele>1.0</ele><time>2026-05-01T07:43:09.829Z</time></trkpt><trkpt lat="42.5142464" lon="14.1645463"><ele>1.0</ele><time>2026-05-01T07:43:10.83Z</time></trkpt><trkpt lat="42.5141566" lon="14.1646456"><ele>1.0</ele><time>2026-05-01T07:43:11.83Z</time></trkpt><trkpt lat="42.5140629" lon="14.1647466"><ele>1.0</ele><time>2026-05-01T07:43:12.829Z</time></trkpt><trkpt lat="42.5139697" lon="14.1648503"><ele>1.2000000000000002</ele><time>2026-05-01T07:43:13.83Z</time></trkpt><trkpt lat="42.5138792" lon="14.1649542"><ele>1.4000000000000001</ele><time>2026-05-01T07:43:14.83Z</time></trkpt><trkpt lat="42.5137927" lon="14.1650474"><ele>1.6</ele><time>2026-05-01T07:43:15.83Z</time></trkpt><trkpt lat="42.5137147" lon="14.1651316"><ele>1.8</ele><time>2026-05-01T07:43:16.83Z</time></trkpt><trkpt lat="42.5136417" lon="14.1652027"><ele>2.0</ele><time>2026-05-01T07:43:17.83Z</time></trkpt><trkpt lat="42.5135699" lon="14.1652758"><ele>1.9999999999999998</ele><time>2026-05-01T07:43:18.83Z</time></trkpt><trkpt lat="42.5134992" lon="14.1653537"><ele>2.0</ele><time>2026-05-01T07:43:19.83Z</time></trkpt><trkpt lat="42.5134275" lon="14.1654303"><ele>2.0</ele><time>2026-05-01T07:43:20.83Z</time></trkpt><trkpt lat="42.5133579" lon="14.1655112"><ele>2.0</ele><time>2026-05-01T07:43:21.83Z</time></trkpt><trkpt lat="42.5132873" lon="14.1655868"><ele>1.9999999999999998</ele><time>2026-05-01T07:43:22.83Z</time></trkpt><trkpt lat="42.5132252" lon="14.1656609"><ele>2.0</ele><time>2026-05-01T07:43:23.83Z</time></trkpt><trkpt lat="42.513159" lon="14.1657319"><ele>2.0</ele><time>2026-05-01T07:43:24.83Z</time></trkpt><trkpt lat="42.5130926" lon="14.1658034"><ele>2.0</ele><time>2026-05-01T07:43:25.83Z</time></trkpt><trkpt lat="42.513021" lon="14.1658782"><ele>2.0</ele><time>2026-05-01T07:43:26.83Z</time></trkpt><trkpt lat="42.5129432" lon="14.1659572"><ele>2.0</ele><time>2026-05-01T07:43:27.83Z</time></trkpt><trkpt lat="42.5128584" lon="14.1660418"><ele>2.0</ele><time>2026-05-01T07:43:28.83Z</time></trkpt><trkpt lat="42.5127638" lon="14.1661432"><ele>2.0</ele><time>2026-05-01T07:43:29.829Z</time></trkpt><trkpt lat="42.5126605" lon="14.1662535"><ele>2.0</ele><time>2026-05-01T07:43:30.83Z</time></trkpt><trkpt lat="42.5125567" lon="14.1663586"><ele>2.0</ele><time>2026-05-01T07:43:31.83Z</time></trkpt><trkpt lat="42.512456" lon="14.1664623"><ele>2.0</ele><time>2026-05-01T07:43:32.829Z</time></trkpt><trkpt lat="42.512358" lon="14.1665731"><ele>2.0</ele><time>2026-05-01T07:43:33.83Z</time></trkpt><trkpt lat="42.5122564" lon="14.1666819"><ele>2.0</ele><time>2026-05-01T07:43:34.829Z</time></trkpt><trkpt lat="42.5121573" lon="14.1667897"><ele>2.0</ele><time>2026-05-01T07:43:35.83Z</time></trkpt><trkpt lat="42.5120602" lon="14.1668922"><ele>2.0</ele><time>2026-05-01T07:43:36.83Z</time></trkpt><trkpt lat="42.5119621" lon="14.1669924"><ele>2.0</ele><time>2026-05-01T07:43:37.83Z</time></trkpt><trkpt lat="42.5118661" lon="14.1670946"><ele>2.0</ele><time>2026-05-01T07:43:38.83Z</time></trkpt><trkpt lat="42.5117705" lon="14.1671948"><ele>2.0</ele><time>2026-05-01T07:43:39.83Z</time></trkpt><trkpt lat="42.5116727" lon="14.1672978"><ele>2.0</ele><time>2026-05-01T07:43:40.83Z</time></trkpt><trkpt lat="42.5115769" lon="14.167406"><ele>2.0</ele><time>2026-05-01T07:43:41.83Z</time></trkpt><trkpt lat="42.5114833" lon="14.1675134"><ele>2.0</ele><time>2026-05-01T07:43:42.83Z</time></trkpt><trkpt lat="42.5113825" lon="14.1676117"><ele>2.0</ele><time>2026-05-01T07:43:43.83Z</time></trkpt><trkpt lat="42.5112851" lon="14.1677082"><ele>2.0</ele><time>2026-05-01T07:43:44.829Z</time></trkpt><trkpt lat="42.5111973" lon="14.167807"><ele>2.0</ele><time>2026-05-01T07:43:45.83Z</time></trkpt><trkpt lat="42.5111102" lon="14.1679034"><ele>2.0</ele><time>2026-05-01T07:43:46.83Z</time></trkpt><trkpt lat="42.5110187" lon="14.1680014"><ele>2.0</ele><time>2026-05-01T07:43:47.829Z</time></trkpt><trkpt lat="42.5109319" lon="14.1680982"><ele>2.0</ele><time>2026-05-01T07:43:48.83Z</time></trkpt><trkpt lat="42.5108494" lon="14.168187"><ele>2.0</ele><time>2026-05-01T07:43:49.83Z</time></trkpt><trkpt lat="42.5107688" lon="14.1682715"><ele>2.0</ele><time>2026-05-01T07:43:50.83Z</time></trkpt><trkpt lat="42.5106958" lon="14.1683559"><ele>2.0</ele><time>2026-05-01T07:43:51.83Z</time></trkpt><trkpt lat="42.5106159" lon="14.1684404"><ele>2.0</ele><time>2026-05-01T07:43:52.83Z</time></trkpt><trkpt lat="42.5105327" lon="14.1685276"><ele>2.0</ele><time>2026-05-01T07:43:53.83Z</time></trkpt><trkpt lat="42.5104489" lon="14.1686152"><ele>2.0</ele><time>2026-05-01T07:43:54.83Z</time></trkpt><trkpt lat="42.5103713" lon="14.168697"><ele>1.8333333333333333</ele><time>2026-05-01T07:43:55.83Z</time></trkpt><trkpt lat="42.5103018" lon="14.1687747"><ele>1.6666666666666665</ele><time>2026-05-01T07:43:56.83Z</time></trkpt><trkpt lat="42.5102387" lon="14.1688405"><ele>1.5</ele><time>2026-05-01T07:43:57.83Z</time></trkpt><trkpt lat="42.5101754" lon="14.1688952"><ele>1.3333333333333333</ele><time>2026-05-01T07:43:58.83Z</time></trkpt><trkpt lat="42.5101069" lon="14.1689314"><ele>1.1666666666666665</ele><time>2026-05-01T07:43:59.829Z</time></trkpt><trkpt lat="42.5100365" lon="14.1689484"><ele>1.0</ele><time>2026-05-01T07:44:00.83Z</time></trkpt><trkpt lat="42.5099664" lon="14.1689369"><ele>1.0</ele><time>2026-05-01T07:44:01.83Z</time></trkpt><trkpt lat="42.5098934" lon="14.1688809"><ele>1.0</ele><time>2026-05-01T07:44:02.83Z</time></trkpt><trkpt lat="42.5098186" lon="14.1687809"><ele>1.0</ele><time>2026-05-01T07:44:03.829Z</time></trkpt><trkpt lat="42.509741" lon="14.1686691"><ele>1.0</ele><time>2026-05-01T07:44:04.83Z</time></trkpt><trkpt lat="42.5096602" lon="14.1685492"><ele>1.0</ele><time>2026-05-01T07:44:05.83Z</time></trkpt><trkpt lat="42.5095863" lon="14.1684322"><ele>1.25</ele><time>2026-05-01T07:44:06.83Z</time></trkpt><trkpt lat="42.5095058" lon="14.168304"><ele>1.5</ele><time>2026-05-01T07:44:07.83Z</time></trkpt><trkpt lat="42.5094186" lon="14.1681713"><ele>1.75</ele><time>2026-05-01T07:44:08.829Z</time></trkpt><trkpt lat="42.5093259" lon="14.1680363"><ele>2.0</ele><time>2026-05-01T07:44:09.83Z</time></trkpt><trkpt lat="42.5092326" lon="14.1678946"><ele>2.333333333333333</ele><time>2026-05-01T07:44:10.83Z</time></trkpt><trkpt lat="42.5091304" lon="14.1677485"><ele>2.6666666666666665</ele><time>2026-05-01T07:44:11.83Z</time></trkpt><trkpt lat="42.5090273" lon="14.1675906"><ele>3.0</ele><time>2026-05-01T07:44:12.83Z</time></trkpt><trkpt lat="42.5089262" lon="14.1674251"><ele>3.0</ele><time>2026-05-01T07:44:13.83Z</time></trkpt><trkpt lat="42.5088225" lon="14.1672553"><ele>3.0</ele><time>2026-05-01T07:44:14.83Z</time></trkpt><trkpt lat="42.5087175" lon="14.1670901"><ele>3.0</ele><time>2026-05-01T07:44:15.83Z</time></trkpt><trkpt lat="42.5086152" lon="14.1669296"><ele>2.6666666666666665</ele><time>2026-05-01T07:44:16.83Z</time></trkpt><trkpt lat="42.5085131" lon="14.1667591"><ele>2.333333333333333</ele><time>2026-05-01T07:44:17.83Z</time></trkpt><trkpt lat="42.5084113" lon="14.1665932"><ele>2.0</ele><time>2026-05-01T07:44:18.83Z</time></trkpt><trkpt lat="42.508309" lon="14.1664348"><ele>2.75</ele><time>2026-05-01T07:44:19.83Z</time></trkpt><trkpt lat="42.5082111" lon="14.1662923"><ele>3.5</ele><time>2026-05-01T07:44:20.83Z</time></trkpt><trkpt lat="42.5081275" lon="14.1661501"><ele>4.25</ele><time>2026-05-01T07:44:21.83Z</time></trkpt><trkpt lat="42.5080489" lon="14.166027"><ele>5.0</ele><time>2026-05-01T07:44:22.83Z</time></trkpt><trkpt lat="42.5079744" lon="14.1659001"><ele>4.5</ele><time>2026-05-01T07:44:23.83Z</time></trkpt><trkpt lat="42.5078959" lon="14.1657755"><ele>4.0</ele><time>2026-05-01T07:44:24.83Z</time></trkpt><trkpt lat="42.5078135" lon="14.1656475"><ele>3.5</ele><time>2026-05-01T07:44:25.83Z</time></trkpt><trkpt lat="42.5077284" lon="14.1655177"><ele>3.0</ele><time>2026-05-01T07:44:26.83Z</time></trkpt><trkpt lat="42.5076448" lon="14.1653926"><ele>3.0</ele><time>2026-05-01T07:44:27.829Z</time></trkpt><trkpt lat="42.5075661" lon="14.1652716"><ele>3.0</ele><time>2026-05-01T07:44:28.83Z</time></trkpt><trkpt lat="42.5074916" lon="14.165151"><ele>3.0</ele><time>2026-05-01T07:44:29.83Z</time></trkpt><trkpt lat="42.5074228" lon="14.165045"><ele>3.0</ele><time>2026-05-01T07:44:30.829Z</time></trkpt><trkpt lat="42.5073643" lon="14.1649582"><ele>3.0</ele><time>2026-05-01T07:44:31.83Z</time></trkpt><trkpt lat="42.5073241" lon="14.1648846"><ele>2.8</ele><time>2026-05-01T07:44:33.83Z</time></trkpt><trkpt lat="42.5072443" lon="14.1647694"><ele>2.5999999999999996</ele><time>2026-05-01T07:44:36.83Z</time></trkpt><trkpt lat="42.5071961" lon="14.1646964"><ele>2.4000000000000004</ele><time>2026-05-01T07:44:37.83Z</time></trkpt><trkpt lat="42.5071282" lon="14.1646153"><ele>2.2</ele><time>2026-05-01T07:44:38.83Z</time></trkpt><trkpt lat="42.5070501" lon="14.1645244"><ele>2.0</ele><time>2026-05-01T07:44:39.83Z</time></trkpt><trkpt lat="42.5069728" lon="14.1644099"><ele>2.0</ele><time>2026-05-01T07:44:40.83Z</time></trkpt><trkpt lat="42.506888" lon="14.1642723"><ele>2.0</ele><time>2026-05-01T07:44:41.83Z</time></trkpt><trkpt lat="42.5067918" lon="14.1641338"><ele>2.0</ele><time>2026-05-01T07:44:42.83Z</time></trkpt><trkpt lat="42.5066924" lon="14.1639911"><ele>2.0</ele><time>2026-05-01T07:44:43.83Z</time></trkpt><trkpt lat="42.506595" lon="14.1638459"><ele>1.75</ele><time>2026-05-01T07:44:44.83Z</time></trkpt><trkpt lat="42.5065039" lon="14.1637111"><ele>1.5</ele><time>2026-05-01T07:44:45.83Z</time></trkpt><trkpt lat="42.5064217" lon="14.1635831"><ele>1.25</ele><time>2026-05-01T07:44:46.83Z</time></trkpt><trkpt lat="42.5063432" lon="14.1634676"><ele>1.0</ele><time>2026-05-01T07:44:47.83Z</time></trkpt><trkpt lat="42.5062714" lon="14.1633575"><ele>1.2000000000000002</ele><time>2026-05-01T07:44:48.83Z</time></trkpt><trkpt lat="42.5062069" lon="14.163264"><ele>1.4000000000000001</ele><time>2026-05-01T07:44:49.83Z</time></trkpt><trkpt lat="42.5061594" lon="14.1631834"><ele>1.6</ele><time>2026-05-01T07:44:50.83Z</time></trkpt><trkpt lat="42.5060967" lon="14.1630882"><ele>1.8</ele><time>2026-05-01T07:44:52.83Z</time></trkpt><trkpt lat="42.5060346" lon="14.1629977"><ele>2.0</ele><time>2026-05-01T07:45:36.829Z</time></trkpt><trkpt lat="42.5059608" lon="14.1628953"><ele>2.0</ele><time>2026-05-01T07:45:38.829Z</time></trkpt><trkpt lat="42.5058863" lon="14.1628401"><ele>2.0</ele><time>2026-05-01T07:45:40.829Z</time></trkpt><trkpt lat="42.505772" lon="14.1629353"><ele>2.0</ele><time>2026-05-01T07:45:42.829Z</time></trkpt><trkpt lat="42.5056929" lon="14.1630424"><ele>2.0</ele><time>2026-05-01T07:45:43.829Z</time></trkpt><trkpt lat="42.5055928" lon="14.1631711"><ele>2.0</ele><time>2026-05-01T07:45:44.829Z</time></trkpt><trkpt lat="42.5054844" lon="14.1633136"><ele>2.0</ele><time>2026-05-01T07:45:45.829Z</time></trkpt><trkpt lat="42.5053743" lon="14.1634466"><ele>2.0</ele><time>2026-05-01T07:45:46.829Z</time></trkpt><trkpt lat="42.5052756" lon="14.1635923"><ele>2.0</ele><time>2026-05-01T07:45:47.829Z</time></trkpt><trkpt lat="42.5051747" lon="14.1637335"><ele>2.0</ele><time>2026-05-01T07:45:48.829Z</time></trkpt><trkpt lat="42.5050656" lon="14.1638625"><ele>2.0</ele><time>2026-05-01T07:45:49.829Z</time></trkpt><trkpt lat="42.5049564" lon="14.1640004"><ele>2.0</ele><time>2026-05-01T07:45:50.829Z</time></trkpt><trkpt lat="42.5048456" lon="14.1641458"><ele>2.0</ele><time>2026-05-01T07:45:51.829Z</time></trkpt><trkpt lat="42.5047384" lon="14.1642997"><ele>2.0</ele><time>2026-05-01T07:45:52.828Z</time></trkpt><trkpt lat="42.5046151" lon="14.164435"><ele>2.0</ele><time>2026-05-01T07:45:53.829Z</time></trkpt><trkpt lat="42.5044989" lon="14.1645641"><ele>2.0</ele><time>2026-05-01T07:45:54.829Z</time></trkpt><trkpt lat="42.5043824" lon="14.1646937"><ele>2.0</ele><time>2026-05-01T07:45:55.829Z</time></trkpt><trkpt lat="42.504274" lon="14.1648263"><ele>2.0</ele><time>2026-05-01T07:45:56.829Z</time></trkpt><trkpt lat="42.5041627" lon="14.1649594"><ele>2.0</ele><time>2026-05-01T07:45:57.829Z</time></trkpt><trkpt lat="42.5040516" lon="14.1650947"><ele>2.0</ele><time>2026-05-01T07:45:58.829Z</time></trkpt><trkpt lat="42.5039441" lon="14.1652339"><ele>2.0</ele><time>2026-05-01T07:45:59.828Z</time></trkpt><trkpt lat="42.5038349" lon="14.1653675"><ele>2.0</ele><time>2026-05-01T07:46:00.829Z</time></trkpt><trkpt lat="42.5037171" lon="14.1654978"><ele>2.0</ele><time>2026-05-01T07:46:01.829Z</time></trkpt><trkpt lat="42.5035971" lon="14.1656312"><ele>2.75</ele><time>2026-05-01T07:46:02.829Z</time></trkpt><trkpt lat="42.5034832" lon="14.1657721"><ele>3.5</ele><time>2026-05-01T07:46:03.829Z</time></trkpt><trkpt lat="42.5033759" lon="14.1659073"><ele>4.25</ele><time>2026-05-01T07:46:04.829Z</time></trkpt><trkpt lat="42.5032756" lon="14.1660276"><ele>5.0</ele><time>2026-05-01T07:46:05.829Z</time></trkpt><trkpt lat="42.5031784" lon="14.1661466"><ele>5.0</ele><time>2026-05-01T07:46:06.829Z</time></trkpt><trkpt lat="42.5030872" lon="14.1662578"><ele>5.0</ele><time>2026-05-01T07:46:07.829Z</time></trkpt><trkpt lat="42.5029962" lon="14.1663702"><ele>5.0</ele><time>2026-05-01T07:46:08.828Z</time></trkpt><trkpt lat="42.5029088" lon="14.1664841"><ele>5.0</ele><time>2026-05-01T07:46:09.829Z</time></trkpt><trkpt lat="42.5028215" lon="14.1665841"><ele>4.8</ele><time>2026-05-01T07:46:10.828Z</time></trkpt><trkpt lat="42.5027394" lon="14.16667"><ele>4.6</ele><time>2026-05-01T07:46:11.829Z</time></trkpt><trkpt lat="42.5026685" lon="14.1667623"><ele>4.4</ele><time>2026-05-01T07:46:12.828Z</time></trkpt><trkpt lat="42.5025907" lon="14.1668637"><ele>4.2</ele><time>2026-05-01T07:46:13.829Z</time></trkpt><trkpt lat="42.5024964" lon="14.1669765"><ele>4.0</ele><time>2026-05-01T07:46:14.829Z</time></trkpt><trkpt lat="42.5023923" lon="14.1670939"><ele>4.0</ele><time>2026-05-01T07:46:15.829Z</time></trkpt><trkpt lat="42.5022895" lon="14.1672124"><ele>4.0</ele><time>2026-05-01T07:46:16.829Z</time></trkpt><trkpt lat="42.5021892" lon="14.167327"><ele>4.0</ele><time>2026-05-01T07:46:17.829Z</time></trkpt><trkpt lat="42.5020859" lon="14.1674453"><ele>4.0</ele><time>2026-05-01T07:46:18.829Z</time></trkpt><trkpt lat="42.5019948" lon="14.1675576"><ele>4.0</ele><time>2026-05-01T07:46:19.829Z</time></trkpt><trkpt lat="42.5019069" lon="14.1676607"><ele>4.0</ele><time>2026-05-01T07:46:20.829Z</time></trkpt><trkpt lat="42.5018285" lon="14.1677602"><ele>4.0</ele><time>2026-05-01T07:46:21.829Z</time></trkpt><trkpt lat="42.5017581" lon="14.1678536"><ele>4.0</ele><time>2026-05-01T07:46:22.829Z</time></trkpt><trkpt lat="42.5016845" lon="14.1679274"><ele>4.0</ele><time>2026-05-01T07:46:23.829Z</time></trkpt><trkpt lat="42.5016122" lon="14.1679904"><ele>3.9999999999999996</ele><time>2026-05-01T07:46:24.829Z</time></trkpt><trkpt lat="42.5015454" lon="14.1680654"><ele>4.0</ele><time>2026-05-01T07:46:25.829Z</time></trkpt><trkpt lat="42.5014819" lon="14.1681326"><ele>4.0</ele><time>2026-05-01T07:46:26.829Z</time></trkpt><trkpt lat="42.5014169" lon="14.1682135"><ele>4.0</ele><time>2026-05-01T07:46:27.829Z</time></trkpt><trkpt lat="42.5013439" lon="14.168297"><ele>3.9999999999999996</ele><time>2026-05-01T07:46:28.829Z</time></trkpt><trkpt lat="42.5012702" lon="14.1683835"><ele>4.0</ele><time>2026-05-01T07:46:29.828Z</time></trkpt><trkpt lat="42.5011978" lon="14.168477"><ele>4.0</ele><time>2026-05-01T07:46:30.829Z</time></trkpt><trkpt lat="42.501124" lon="14.1685703"><ele>4.0</ele><time>2026-05-01T07:46:31.829Z</time></trkpt><trkpt lat="42.5010463" lon="14.1686602"><ele>4.0</ele><time>2026-05-01T07:46:32.829Z</time></trkpt><trkpt lat="42.5009726" lon="14.1687539"><ele>4.0</ele><time>2026-05-01T07:46:33.829Z</time></trkpt><trkpt lat="42.5008899" lon="14.1688617"><ele>4.0</ele><time>2026-05-01T07:46:34.829Z</time></trkpt><trkpt lat="42.500802" lon="14.1690006"><ele>4.0</ele><time>2026-05-01T07:46:35.829Z</time></trkpt><trkpt lat="42.5006905" lon="14.1691414"><ele>4.0</ele><time>2026-05-01T07:46:36.829Z</time></trkpt><trkpt lat="42.500573" lon="14.1692861"><ele>4.0</ele><time>2026-05-01T07:46:37.829Z</time></trkpt><trkpt lat="42.5004596" lon="14.1694219"><ele>3.75</ele><time>2026-05-01T07:46:38.829Z</time></trkpt><trkpt lat="42.5003607" lon="14.1695428"><ele>3.5</ele><time>2026-05-01T07:46:39.829Z</time></trkpt><trkpt lat="42.500265" lon="14.1696557"><ele>3.25</ele><time>2026-05-01T07:46:40.828Z</time></trkpt><trkpt lat="42.5001706" lon="14.1697653"><ele>3.0</ele><time>2026-05-01T07:46:41.829Z</time></trkpt><trkpt lat="42.5000805" lon="14.1698863"><ele>2.75</ele><time>2026-05-01T07:46:42.829Z</time></trkpt><trkpt lat="42.4999836" lon="14.1700076"><ele>2.5</ele><time>2026-05-01T07:46:43.828Z</time></trkpt><trkpt lat="42.4998786" lon="14.170137"><ele>2.25</ele><time>2026-05-01T07:46:44.829Z</time></trkpt><trkpt lat="42.499767" lon="14.1702614"><ele>2.0</ele><time>2026-05-01T07:46:45.828Z</time></trkpt><trkpt lat="42.4996569" lon="14.1703765"><ele>2.25</ele><time>2026-05-01T07:46:46.829Z</time></trkpt><trkpt lat="42.4995526" lon="14.1704877"><ele>2.5</ele><time>2026-05-01T07:46:47.829Z</time></trkpt><trkpt lat="42.4994552" lon="14.1705922"><ele>2.75</ele><time>2026-05-01T07:46:48.829Z</time></trkpt><trkpt lat="42.4993759" lon="14.1706943"><ele>3.0</ele><time>2026-05-01T07:46:49.829Z</time></trkpt><trkpt lat="42.4993045" lon="14.1707788"><ele>3.1666666666666665</ele><time>2026-05-01T07:46:50.829Z</time></trkpt><trkpt lat="42.4992352" lon="14.1708611"><ele>3.333333333333333</ele><time>2026-05-01T07:46:51.829Z</time></trkpt><trkpt lat="42.4991769" lon="14.1709383"><ele>3.5</ele><time>2026-05-01T07:46:52.829Z</time></trkpt><trkpt lat="42.4991226" lon="14.1710097"><ele>3.6666666666666665</ele><time>2026-05-01T07:46:53.828Z</time></trkpt><trkpt lat="42.4990723" lon="14.171074"><ele>3.833333333333333</ele><time>2026-05-01T07:46:54.829Z</time></trkpt><trkpt lat="42.4990146" lon="14.1711295"><ele>4.0</ele><time>2026-05-01T07:46:55.829Z</time></trkpt><trkpt lat="42.49896" lon="14.1711958"><ele>3.9999999999999996</ele><time>2026-05-01T07:46:56.829Z</time></trkpt><trkpt lat="42.4989065" lon="14.1712592"><ele>4.0</ele><time>2026-05-01T07:46:57.828Z</time></trkpt><trkpt lat="42.4988552" lon="14.1713221"><ele>4.0</ele><time>2026-05-01T07:46:58.829Z</time></trkpt><trkpt lat="42.4987622" lon="14.1714218"><ele>4.0</ele><time>2026-05-01T07:47:00.829Z</time></trkpt><trkpt lat="42.4987102" lon="14.1714767"><ele>3.9999999999999996</ele><time>2026-05-01T07:47:01.829Z</time></trkpt><trkpt lat="42.4986495" lon="14.1715457"><ele>4.0</ele><time>2026-05-01T07:47:02.829Z</time></trkpt><trkpt lat="42.4985871" lon="14.171625"><ele>3.833333333333333</ele><time>2026-05-01T07:47:03.829Z</time></trkpt><trkpt lat="42.4985275" lon="14.1717103"><ele>3.6666666666666665</ele><time>2026-05-01T07:47:04.829Z</time></trkpt><trkpt lat="42.4984688" lon="14.17179"><ele>3.5</ele><time>2026-05-01T07:47:05.829Z</time></trkpt><trkpt lat="42.4984151" lon="14.1718596"><ele>3.333333333333333</ele><time>2026-05-01T07:47:06.829Z</time></trkpt><trkpt lat="42.4983636" lon="14.1719123"><ele>3.1666666666666665</ele><time>2026-05-01T07:47:07.829Z</time></trkpt><trkpt lat="42.4982738" lon="14.172021"><ele>3.0</ele><time>2026-05-01T07:47:09.829Z</time></trkpt><trkpt lat="42.4981705" lon="14.1721594"><ele>3.0</ele><time>2026-05-01T07:47:11.829Z</time></trkpt><trkpt lat="42.4981105" lon="14.172251"><ele>3.0</ele><time>2026-05-01T07:47:12.829Z</time></trkpt><trkpt lat="42.4980458" lon="14.1723361"><ele>3.0</ele><time>2026-05-01T07:47:13.829Z</time></trkpt><trkpt lat="42.497984" lon="14.172412"><ele>3.0</ele><time>2026-05-01T07:47:14.829Z</time></trkpt><trkpt lat="42.4979267" lon="14.1724767"><ele>3.0</ele><time>2026-05-01T07:47:15.829Z</time></trkpt><trkpt lat="42.4978709" lon="14.172541"><ele>3.0</ele><time>2026-05-01T07:47:16.829Z</time></trkpt><trkpt lat="42.4978077" lon="14.1726214"><ele>3.4</ele><time>2026-05-01T07:47:17.829Z</time></trkpt><trkpt lat="42.4977341" lon="14.1727139"><ele>3.8</ele><time>2026-05-01T07:47:18.829Z</time></trkpt><trkpt lat="42.4976526" lon="14.1727963"><ele>4.2</ele><time>2026-05-01T07:47:19.829Z</time></trkpt><trkpt lat="42.4975751" lon="14.172868"><ele>4.6</ele><time>2026-05-01T07:47:20.829Z</time></trkpt><trkpt lat="42.497501" lon="14.1729604"><ele>5.0</ele><time>2026-05-01T07:47:21.829Z</time></trkpt><trkpt lat="42.4974195" lon="14.1730514"><ele>5.0</ele><time>2026-05-01T07:47:22.829Z</time></trkpt><trkpt lat="42.4973343" lon="14.1731509"><ele>5.0</ele><time>2026-05-01T07:47:23.829Z</time></trkpt><trkpt lat="42.4972483" lon="14.1732442"><ele>5.0</ele><time>2026-05-01T07:47:24.829Z</time></trkpt><trkpt lat="42.4971653" lon="14.1733435"><ele>5.0</ele><time>2026-05-01T07:47:25.829Z</time></trkpt><trkpt lat="42.4970858" lon="14.1734347"><ele>5.0</ele><time>2026-05-01T07:47:26.829Z</time></trkpt><trkpt lat="42.49702" lon="14.1735333"><ele>5.0</ele><time>2026-05-01T07:47:27.829Z</time></trkpt><trkpt lat="42.4969572" lon="14.1736207"><ele>5.0</ele><time>2026-05-01T07:47:28.829Z</time></trkpt><trkpt lat="42.4969113" lon="14.173687"><ele>5.0</ele><time>2026-05-01T07:47:29.829Z</time></trkpt><trkpt lat="42.4968603" lon="14.1737616"><ele>5.0</ele><time>2026-05-01T07:47:31.829Z</time></trkpt><trkpt lat="42.496801" lon="14.1738532"><ele>5.0</ele><time>2026-05-01T07:47:53.829Z</time></trkpt><trkpt lat="42.4967634" lon="14.1739832"><ele>5.0</ele><time>2026-05-01T07:47:55.829Z</time></trkpt><trkpt lat="42.4968201" lon="14.1741041"><ele>4.6</ele><time>2026-05-01T07:47:57.829Z</time></trkpt><trkpt lat="42.4968894" lon="14.174193"><ele>4.2</ele><time>2026-05-01T07:47:58.829Z</time></trkpt><trkpt lat="42.4969539" lon="14.174289"><ele>3.8</ele><time>2026-05-01T07:47:59.829Z</time></trkpt><trkpt lat="42.4970252" lon="14.1744005"><ele>3.4</ele><time>2026-05-01T07:48:00.829Z</time></trkpt><trkpt lat="42.4971054" lon="14.174518"><ele>3.0</ele><time>2026-05-01T07:48:01.829Z</time></trkpt><trkpt lat="42.4971854" lon="14.1746378"><ele>3.0</ele><time>2026-05-01T07:48:02.829Z</time></trkpt><trkpt lat="42.4972678" lon="14.1747638"><ele>3.0</ele><time>2026-05-01T07:48:03.829Z</time></trkpt><trkpt lat="42.4973561" lon="14.1748908"><ele>3.0</ele><time>2026-05-01T07:48:04.829Z</time></trkpt><trkpt lat="42.4974326" lon="14.1750183"><ele>3.0</ele><time>2026-05-01T07:48:05.828Z</time></trkpt><trkpt lat="42.4975154" lon="14.1751356"><ele>3.0</ele><time>2026-05-01T07:48:06.828Z</time></trkpt><trkpt lat="42.4975919" lon="14.1752538"><ele>3.0</ele><time>2026-05-01T07:48:07.829Z</time></trkpt><trkpt lat="42.4976712" lon="14.1753728"><ele>3.0</ele><time>2026-05-01T07:48:08.829Z</time></trkpt><trkpt lat="42.4977498" lon="14.1754923"><ele>3.0</ele><time>2026-05-01T07:48:09.829Z</time></trkpt><trkpt lat="42.4978292" lon="14.1756089"><ele>3.0</ele><time>2026-05-01T07:48:10.829Z</time></trkpt><trkpt lat="42.4979046" lon="14.1757276"><ele>3.0</ele><time>2026-05-01T07:48:11.829Z</time></trkpt><trkpt lat="42.4979782" lon="14.1758409"><ele>3.0</ele><time>2026-05-01T07:48:12.829Z</time></trkpt><trkpt lat="42.4980454" lon="14.1759426"><ele>3.0</ele><time>2026-05-01T07:48:13.829Z</time></trkpt><trkpt lat="42.4981104" lon="14.1760389"><ele>3.0</ele><time>2026-05-01T07:48:14.828Z</time></trkpt><trkpt lat="42.4981777" lon="14.176136"><ele>3.2</ele><time>2026-05-01T07:48:15.829Z</time></trkpt><trkpt lat="42.4982437" lon="14.1762418"><ele>3.4</ele><time>2026-05-01T07:48:16.829Z</time></trkpt><trkpt lat="42.498314" lon="14.1763533"><ele>3.6000000000000005</ele><time>2026-05-01T07:48:17.829Z</time></trkpt><trkpt lat="42.4983881" lon="14.1764682"><ele>3.8000000000000003</ele><time>2026-05-01T07:48:18.829Z</time></trkpt><trkpt lat="42.4984647" lon="14.1765859"><ele>4.0</ele><time>2026-05-01T07:48:19.829Z</time></trkpt><trkpt lat="42.4985443" lon="14.1767037"><ele>4.25</ele><time>2026-05-01T07:48:20.829Z</time></trkpt><trkpt lat="42.4986257" lon="14.1768353"><ele>4.5</ele><time>2026-05-01T07:48:21.828Z</time></trkpt><trkpt lat="42.4987072" lon="14.1769632"><ele>4.75</ele><time>2026-05-01T07:48:22.829Z</time></trkpt><trkpt lat="42.4987898" lon="14.1770867"><ele>5.0</ele><time>2026-05-01T07:48:23.829Z</time></trkpt><trkpt lat="42.4988733" lon="14.1772152"><ele>5.0</ele><time>2026-05-01T07:48:24.828Z</time></trkpt><trkpt lat="42.4989633" lon="14.1773508"><ele>5.0</ele><time>2026-05-01T07:48:25.829Z</time></trkpt><trkpt lat="42.4990576" lon="14.177493"><ele>5.0</ele><time>2026-05-01T07:48:26.829Z</time></trkpt><trkpt lat="42.4991544" lon="14.1776357"><ele>5.0</ele><time>2026-05-01T07:48:27.829Z</time></trkpt><trkpt lat="42.4992488" lon="14.1777799"><ele>5.0</ele><time>2026-05-01T07:48:28.829Z</time></trkpt><trkpt lat="42.4993376" lon="14.1779129"><ele>5.0</ele><time>2026-05-01T07:48:29.829Z</time></trkpt><trkpt lat="42.4994171" lon="14.1780326"><ele>5.0</ele><time>2026-05-01T07:48:30.829Z</time></trkpt><trkpt lat="42.4994821" lon="14.1781401"><ele>5.0</ele><time>2026-05-01T07:48:31.829Z</time></trkpt><trkpt lat="42.4995451" lon="14.1782436"><ele>4.5</ele><time>2026-05-01T07:48:32.829Z</time></trkpt><trkpt lat="42.4996028" lon="14.1783423"><ele>4.0</ele><time>2026-05-01T07:48:33.829Z</time></trkpt><trkpt lat="42.4996597" lon="14.1784345"><ele>3.5</ele><time>2026-05-01T07:48:34.829Z</time></trkpt><trkpt lat="42.499706" lon="14.1785147"><ele>3.0</ele><time>2026-05-01T07:48:35.829Z</time></trkpt><trkpt lat="42.4997396" lon="14.1786626"><ele>2.5</ele><time>2026-05-01T07:48:37.829Z</time></trkpt><trkpt lat="42.4997321" lon="14.178764"><ele>2.0</ele><time>2026-05-01T07:48:38.829Z</time></trkpt><trkpt lat="42.4996925" lon="14.1788345"><ele>2.0</ele><time>2026-05-01T07:48:39.829Z</time></trkpt><trkpt lat="42.4996199" lon="14.1789093"><ele>2.0</ele><time>2026-05-01T07:48:40.829Z</time></trkpt><trkpt lat="42.4995383" lon="14.1789904"><ele>2.0</ele><time>2026-05-01T07:48:41.829Z</time></trkpt><trkpt lat="42.4994275" lon="14.1790851"><ele>2.0</ele><time>2026-05-01T07:48:42.829Z</time></trkpt><trkpt lat="42.4992841" lon="14.1791939"><ele>2.6666666666666665</ele><time>2026-05-01T07:48:43.829Z</time></trkpt><trkpt lat="42.499139" lon="14.179318"><ele>3.333333333333333</ele><time>2026-05-01T07:48:44.829Z</time></trkpt><trkpt lat="42.4989797" lon="14.1794639"><ele>4.0</ele><time>2026-05-01T07:48:45.829Z</time></trkpt><trkpt lat="42.4988295" lon="14.1796119"><ele>4.333333333333333</ele><time>2026-05-01T07:48:46.829Z</time></trkpt><trkpt lat="42.4986808" lon="14.1797535"><ele>4.666666666666667</ele><time>2026-05-01T07:48:47.829Z</time></trkpt><trkpt lat="42.4985769" lon="14.1798679"><ele>5.0</ele><time>2026-05-01T07:48:48.829Z</time></trkpt><trkpt lat="42.4984942" lon="14.1800111"><ele>5.0</ele><time>2026-05-01T07:48:50.829Z</time></trkpt><trkpt lat="42.4983712" lon="14.1801379"><ele>5.0</ele><time>2026-05-01T07:48:51.829Z</time></trkpt><trkpt lat="42.4982444" lon="14.1802693"><ele>5.0</ele><time>2026-05-01T07:48:52.829Z</time></trkpt><trkpt lat="42.4981187" lon="14.180401"><ele>5.0</ele><time>2026-05-01T07:48:53.828Z</time></trkpt><trkpt lat="42.4979912" lon="14.1805327"><ele>5.0</ele><time>2026-05-01T07:48:54.829Z</time></trkpt><trkpt lat="42.4978629" lon="14.1806651"><ele>5.0</ele><time>2026-05-01T07:48:55.829Z</time></trkpt><trkpt lat="42.4976889" lon="14.1808641"><ele>5.333333333333334</ele><time>2026-05-01T07:48:56.829Z</time></trkpt><trkpt lat="42.4975322" lon="14.1809886"><ele>5.666666666666667</ele><time>2026-05-01T07:48:57.828Z</time></trkpt><trkpt lat="42.4973937" lon="14.1811245"><ele>6.0</ele><time>2026-05-01T07:48:58.828Z</time></trkpt><trkpt lat="42.4972518" lon="14.1812644"><ele>6.0</ele><time>2026-05-01T07:48:59.829Z</time></trkpt><trkpt lat="42.4971217" lon="14.1814042"><ele>6.0</ele><time>2026-05-01T07:49:00.829Z</time></trkpt><trkpt lat="42.4969846" lon="14.1815383"><ele>6.0</ele><time>2026-05-01T07:49:01.829Z</time></trkpt><trkpt lat="42.4968506" lon="14.1816695"><ele>5.666666666666667</ele><time>2026-05-01T07:49:02.828Z</time></trkpt><trkpt lat="42.4967185" lon="14.1818083"><ele>5.333333333333334</ele><time>2026-05-01T07:49:03.829Z</time></trkpt><trkpt lat="42.4965936" lon="14.1819446"><ele>5.0</ele><time>2026-05-01T07:49:04.829Z</time></trkpt><trkpt lat="42.496476" lon="14.1820642"><ele>5.0</ele><time>2026-05-01T07:49:05.829Z</time></trkpt><trkpt lat="42.4963605" lon="14.1821767"><ele>5.0</ele><time>2026-05-01T07:49:06.829Z</time></trkpt><trkpt lat="42.4962391" lon="14.1822948"><ele>5.0</ele><time>2026-05-01T07:49:07.829Z</time></trkpt><trkpt lat="42.4961133" lon="14.182431"><ele>4.0</ele><time>2026-05-01T07:49:08.829Z</time></trkpt><trkpt lat="42.4959902" lon="14.1825815"><ele>3.0</ele><time>2026-05-01T07:49:09.829Z</time></trkpt><trkpt lat="42.495855" lon="14.1827162"><ele>2.0</ele><time>2026-05-01T07:49:10.829Z</time></trkpt><trkpt lat="42.4957093" lon="14.1828573"><ele>2.0</ele><time>2026-05-01T07:49:11.829Z</time></trkpt><trkpt lat="42.4955704" lon="14.1829952"><ele>2.0</ele><time>2026-05-01T07:49:12.828Z</time></trkpt><trkpt lat="42.4954341" lon="14.183137"><ele>2.0</ele><time>2026-05-01T07:49:13.828Z</time></trkpt><trkpt lat="42.4952993" lon="14.1832802"><ele>3.0</ele><time>2026-05-01T07:49:14.829Z</time></trkpt><trkpt lat="42.4951625" lon="14.1834228"><ele>4.0</ele><time>2026-05-01T07:49:15.829Z</time></trkpt><trkpt lat="42.4950241" lon="14.1835611"><ele>5.0</ele><time>2026-05-01T07:49:16.829Z</time></trkpt><trkpt lat="42.494893" lon="14.1836934"><ele>5.0</ele><time>2026-05-01T07:49:17.829Z</time></trkpt><trkpt lat="42.4947706" lon="14.1838214"><ele>5.0</ele><time>2026-05-01T07:49:18.829Z</time></trkpt><trkpt lat="42.4946525" lon="14.183949"><ele>5.0</ele><time>2026-05-01T07:49:19.829Z</time></trkpt><trkpt lat="42.4945379" lon="14.1840681"><ele>5.0</ele><time>2026-05-01T07:49:20.829Z</time></trkpt><trkpt lat="42.4944308" lon="14.1841782"><ele>5.0</ele><time>2026-05-01T07:49:21.829Z</time></trkpt><trkpt lat="42.49432" lon="14.1842893"><ele>5.0</ele><time>2026-05-01T07:49:22.829Z</time></trkpt><trkpt lat="42.4942161" lon="14.1843927"><ele>5.0</ele><time>2026-05-01T07:49:23.829Z</time></trkpt><trkpt lat="42.4941212" lon="14.1844958"><ele>5.0</ele><time>2026-05-01T07:49:24.828Z</time></trkpt><trkpt lat="42.4940228" lon="14.1845957"><ele>5.0</ele><time>2026-05-01T07:49:25.829Z</time></trkpt><trkpt lat="42.4939338" lon="14.1846902"><ele>5.0</ele><time>2026-05-01T07:49:26.829Z</time></trkpt><trkpt lat="42.4938415" lon="14.1847884"><ele>5.0</ele><time>2026-05-01T07:49:27.829Z</time></trkpt><trkpt lat="42.4937509" lon="14.1848867"><ele>4.75</ele><time>2026-05-01T07:49:28.829Z</time></trkpt><trkpt lat="42.4936604" lon="14.1849854"><ele>4.5</ele><time>2026-05-01T07:49:29.829Z</time></trkpt><trkpt lat="42.4935677" lon="14.185083"><ele>4.25</ele><time>2026-05-01T07:49:30.829Z</time></trkpt><trkpt lat="42.4934828" lon="14.1851844"><ele>4.0</ele><time>2026-05-01T07:49:31.829Z</time></trkpt><trkpt lat="42.4933966" lon="14.1852939"><ele>4.0</ele><time>2026-05-01T07:49:32.829Z</time></trkpt><trkpt lat="42.4933019" lon="14.1854142"><ele>4.0</ele><time>2026-05-01T07:49:33.829Z</time></trkpt><trkpt lat="42.4932046" lon="14.1855323"><ele>4.0</ele><time>2026-05-01T07:49:34.828Z</time></trkpt><trkpt lat="42.4931067" lon="14.1856459"><ele>4.0</ele><time>2026-05-01T07:49:35.829Z</time></trkpt><trkpt lat="42.4930134" lon="14.1857527"><ele>4.4</ele><time>2026-05-01T07:49:36.828Z</time></trkpt><trkpt lat="42.4929176" lon="14.1858509"><ele>4.800000000000001</ele><time>2026-05-01T07:49:37.829Z</time></trkpt><trkpt lat="42.4928376" lon="14.1859332"><ele>5.199999999999999</ele><time>2026-05-01T07:49:38.829Z</time></trkpt><trkpt lat="42.4927654" lon="14.1860046"><ele>5.6</ele><time>2026-05-01T07:49:39.829Z</time></trkpt><trkpt lat="42.4927155" lon="14.1860719"><ele>6.0</ele><time>2026-05-01T07:49:40.829Z</time></trkpt><trkpt lat="42.4926472" lon="14.1861419"><ele>6.0</ele><time>2026-05-01T07:49:41.829Z</time></trkpt><trkpt lat="42.4925658" lon="14.1862351"><ele>6.0</ele><time>2026-05-01T07:49:42.829Z</time></trkpt><trkpt lat="42.4924841" lon="14.1863436"><ele>6.0</ele><time>2026-05-01T07:49:43.829Z</time></trkpt><trkpt lat="42.4923874" lon="14.1864583"><ele>6.0</ele><time>2026-05-01T07:49:44.828Z</time></trkpt><trkpt lat="42.4922755" lon="14.1865942"><ele>5.333333333333333</ele><time>2026-05-01T07:49:45.829Z</time></trkpt><trkpt lat="42.4921624" lon="14.1867396"><ele>4.666666666666666</ele><time>2026-05-01T07:49:46.829Z</time></trkpt><trkpt lat="42.4920488" lon="14.1868858"><ele>4.0</ele><time>2026-05-01T07:49:47.829Z</time></trkpt><trkpt lat="42.4919395" lon="14.1870144"><ele>4.0</ele><time>2026-05-01T07:49:48.829Z</time></trkpt><trkpt lat="42.4918348" lon="14.1871093"><ele>4.0</ele><time>2026-05-01T07:49:49.829Z</time></trkpt><trkpt lat="42.4917462" lon="14.1872042"><ele>4.0</ele><time>2026-05-01T07:49:50.829Z</time></trkpt><trkpt lat="42.4916663" lon="14.1873005"><ele>4.0</ele><time>2026-05-01T07:49:51.829Z</time></trkpt><trkpt lat="42.4915832" lon="14.1873963"><ele>4.0</ele><time>2026-05-01T07:49:52.829Z</time></trkpt><trkpt lat="42.4914963" lon="14.1874935"><ele>4.0</ele><time>2026-05-01T07:49:53.829Z</time></trkpt><trkpt lat="42.4913947" lon="14.1876054"><ele>4.0</ele><time>2026-05-01T07:49:54.829Z</time></trkpt><trkpt lat="42.4912953" lon="14.1877317"><ele>4.0</ele><time>2026-05-01T07:49:55.828Z</time></trkpt><trkpt lat="42.4911898" lon="14.1878682"><ele>4.333333333333333</ele><time>2026-05-01T07:49:56.829Z</time></trkpt><trkpt lat="42.491058" lon="14.1879914"><ele>4.666666666666667</ele><time>2026-05-01T07:49:57.829Z</time></trkpt><trkpt lat="42.4909362" lon="14.1881194"><ele>5.0</ele><time>2026-05-01T07:49:58.829Z</time></trkpt><trkpt lat="42.4908229" lon="14.188241"><ele>4.333333333333334</ele><time>2026-05-01T07:49:59.829Z</time></trkpt><trkpt lat="42.4906996" lon="14.1883532"><ele>3.666666666666667</ele><time>2026-05-01T07:50:00.829Z</time></trkpt><trkpt lat="42.4905679" lon="14.1884867"><ele>3.0</ele><time>2026-05-01T07:50:01.829Z</time></trkpt><trkpt lat="42.4904485" lon="14.1886497"><ele>3.0</ele><time>2026-05-01T07:50:02.829Z</time></trkpt><trkpt lat="42.4903141" lon="14.1888025"><ele>3.0</ele><time>2026-05-01T07:50:03.829Z</time></trkpt><trkpt lat="42.4901824" lon="14.188948"><ele>3.0</ele><time>2026-05-01T07:50:04.829Z</time></trkpt><trkpt lat="42.4900616" lon="14.1890954"><ele>3.0</ele><time>2026-05-01T07:50:05.829Z</time></trkpt><trkpt lat="42.4899318" lon="14.1892054"><ele>3.0</ele><time>2026-05-01T07:50:06.828Z</time></trkpt><trkpt lat="42.4898297" lon="14.1893438"><ele>3.0</ele><time>2026-05-01T07:50:07.829Z</time></trkpt><trkpt lat="42.4897012" lon="14.1894671"><ele>2.6666666666666665</ele><time>2026-05-01T07:50:08.829Z</time></trkpt><trkpt lat="42.4895611" lon="14.1895923"><ele>2.333333333333333</ele><time>2026-05-01T07:50:09.829Z</time></trkpt><trkpt lat="42.4894312" lon="14.1897236"><ele>2.0</ele><time>2026-05-01T07:50:10.829Z</time></trkpt><trkpt lat="42.48933" lon="14.1898845"><ele>2.0</ele><time>2026-05-01T07:50:11.829Z</time></trkpt><trkpt lat="42.4892074" lon="14.1900091"><ele>2.0</ele><time>2026-05-01T07:50:12.829Z</time></trkpt><trkpt lat="42.4891016" lon="14.1901478"><ele>2.0</ele><time>2026-05-01T07:50:13.829Z</time></trkpt><trkpt lat="42.4889765" lon="14.1902622"><ele>2.0</ele><time>2026-05-01T07:50:14.829Z</time></trkpt><trkpt lat="42.4888609" lon="14.190407"><ele>2.0</ele><time>2026-05-01T07:50:15.829Z</time></trkpt><trkpt lat="42.4887306" lon="14.190547"><ele>2.0</ele><time>2026-05-01T07:50:16.829Z</time></trkpt><trkpt lat="42.4885865" lon="14.1906974"><ele>3.0</ele><time>2026-05-01T07:50:17.829Z</time></trkpt><trkpt lat="42.4884294" lon="14.190844"><ele>4.0</ele><time>2026-05-01T07:50:18.829Z</time></trkpt><trkpt lat="42.4882851" lon="14.1909983"><ele>5.0</ele><time>2026-05-01T07:50:19.829Z</time></trkpt><trkpt lat="42.4881395" lon="14.1911426"><ele>5.0</ele><time>2026-05-01T07:50:20.829Z</time></trkpt><trkpt lat="42.4880102" lon="14.1913081"><ele>5.0</ele><time>2026-05-01T07:50:21.829Z</time></trkpt><trkpt lat="42.4878612" lon="14.1914522"><ele>5.0</ele><time>2026-05-01T07:50:22.829Z</time></trkpt><trkpt lat="42.4877118" lon="14.1915986"><ele>5.333333333333334</ele><time>2026-05-01T07:50:23.829Z</time></trkpt><trkpt lat="42.4875618" lon="14.1917389"><ele>5.666666666666667</ele><time>2026-05-01T07:50:24.829Z</time></trkpt><trkpt lat="42.4874315" lon="14.191894"><ele>6.0</ele><time>2026-05-01T07:50:25.829Z</time></trkpt><trkpt lat="42.4873114" lon="14.1920592"><ele>6.0</ele><time>2026-05-01T07:50:26.828Z</time></trkpt><trkpt lat="42.4871767" lon="14.1922057"><ele>6.0</ele><time>2026-05-01T07:50:27.829Z</time></trkpt><trkpt lat="42.4870376" lon="14.1923424"><ele>6.0</ele><time>2026-05-01T07:50:28.829Z</time></trkpt><trkpt lat="42.4869172" lon="14.1924859"><ele>5.25</ele><time>2026-05-01T07:50:29.829Z</time></trkpt><trkpt lat="42.4867884" lon="14.1926005"><ele>4.5</ele><time>2026-05-01T07:50:30.829Z</time></trkpt><trkpt lat="42.4866832" lon="14.1927365"><ele>3.75</ele><time>2026-05-01T07:50:31.829Z</time></trkpt><trkpt lat="42.4865732" lon="14.192839"><ele>3.0</ele><time>2026-05-01T07:50:32.829Z</time></trkpt><trkpt lat="42.4864647" lon="14.1929359"><ele>3.0</ele><time>2026-05-01T07:50:33.829Z</time></trkpt><trkpt lat="42.4863744" lon="14.1930388"><ele>3.0</ele><time>2026-05-01T07:50:34.829Z</time></trkpt><trkpt lat="42.4862853" lon="14.1931336"><ele>3.0</ele><time>2026-05-01T07:50:35.829Z</time></trkpt><trkpt lat="42.4861908" lon="14.1932252"><ele>3.0</ele><time>2026-05-01T07:50:36.828Z</time></trkpt><trkpt lat="42.4860844" lon="14.1933175"><ele>3.25</ele><time>2026-05-01T07:50:37.829Z</time></trkpt><trkpt lat="42.4859741" lon="14.1934158"><ele>3.5</ele><time>2026-05-01T07:50:38.829Z</time></trkpt><trkpt lat="42.4858924" lon="14.1935375"><ele>3.75</ele><time>2026-05-01T07:50:39.829Z</time></trkpt><trkpt lat="42.4857862" lon="14.1936366"><ele>4.0</ele><time>2026-05-01T07:50:40.829Z</time></trkpt><trkpt lat="42.4856992" lon="14.1937596"><ele>4.0</ele><time>2026-05-01T07:50:41.829Z</time></trkpt><trkpt lat="42.4855972" lon="14.1938652"><ele>4.0</ele><time>2026-05-01T07:50:42.829Z</time></trkpt><trkpt lat="42.4855235" lon="14.1939911"><ele>4.0</ele><time>2026-05-01T07:50:43.829Z</time></trkpt><trkpt lat="42.4854303" lon="14.194094"><ele>4.0</ele><time>2026-05-01T07:50:44.829Z</time></trkpt><trkpt lat="42.4853485" lon="14.1942045"><ele>3.8000000000000003</ele><time>2026-05-01T07:50:45.829Z</time></trkpt><trkpt lat="42.485256" lon="14.1943032"><ele>3.6000000000000005</ele><time>2026-05-01T07:50:46.829Z</time></trkpt><trkpt lat="42.4851722" lon="14.1944002"><ele>3.4</ele><time>2026-05-01T07:50:47.829Z</time></trkpt><trkpt lat="42.4850897" lon="14.1944975"><ele>3.2</ele><time>2026-05-01T07:50:48.829Z</time></trkpt><trkpt lat="42.4850128" lon="14.1945964"><ele>3.0</ele><time>2026-05-01T07:50:49.829Z</time></trkpt><trkpt lat="42.4849323" lon="14.1947005"><ele>3.0</ele><time>2026-05-01T07:50:50.829Z</time></trkpt><trkpt lat="42.4848542" lon="14.1948022"><ele>3.0</ele><time>2026-05-01T07:50:51.829Z</time></trkpt><trkpt lat="42.4847776" lon="14.1949042"><ele>3.0</ele><time>2026-05-01T07:50:52.829Z</time></trkpt><trkpt lat="42.4846988" lon="14.1950114"><ele>3.0</ele><time>2026-05-01T07:50:53.829Z</time></trkpt><trkpt lat="42.4846158" lon="14.1951125"><ele>3.0</ele><time>2026-05-01T07:50:54.828Z</time></trkpt><trkpt lat="42.4845357" lon="14.1952183"><ele>2.8</ele><time>2026-05-01T07:50:55.829Z</time></trkpt><trkpt lat="42.4844567" lon="14.1953206"><ele>2.5999999999999996</ele><time>2026-05-01T07:50:56.829Z</time></trkpt><trkpt lat="42.4843793" lon="14.1954244"><ele>2.4000000000000004</ele><time>2026-05-01T07:50:57.829Z</time></trkpt><trkpt lat="42.4843054" lon="14.1955385"><ele>2.2</ele><time>2026-05-01T07:50:58.829Z</time></trkpt><trkpt lat="42.4842286" lon="14.195647"><ele>2.0</ele><time>2026-05-01T07:50:59.828Z</time></trkpt><trkpt lat="42.4841515" lon="14.1957557"><ele>1.8</ele><time>2026-05-01T07:51:00.829Z</time></trkpt><trkpt lat="42.4840761" lon="14.1958643"><ele>1.6</ele><time>2026-05-01T07:51:01.829Z</time></trkpt><trkpt lat="42.4839939" lon="14.1959598"><ele>1.4000000000000001</ele><time>2026-05-01T07:51:02.829Z</time></trkpt><trkpt lat="42.4839148" lon="14.1960407"><ele>1.2000000000000002</ele><time>2026-05-01T07:51:03.829Z</time></trkpt><trkpt lat="42.4838485" lon="14.1961177"><ele>1.0</ele><time>2026-05-01T07:51:04.829Z</time></trkpt><trkpt lat="42.4837888" lon="14.1961822"><ele>1.8</ele><time>2026-05-01T07:51:05.828Z</time></trkpt><trkpt lat="42.483739" lon="14.1962466"><ele>2.6</ele><time>2026-05-01T07:51:06.828Z</time></trkpt><trkpt lat="42.4836526" lon="14.1963551"><ele>3.4</ele><time>2026-05-01T07:51:08.829Z</time></trkpt><trkpt lat="42.4835568" lon="14.1964872"><ele>4.2</ele><time>2026-05-01T07:51:10.829Z</time></trkpt><trkpt lat="42.4834931" lon="14.1965587"><ele>5.0</ele><time>2026-05-01T07:51:11.828Z</time></trkpt><trkpt lat="42.4834334" lon="14.1966467"><ele>5.2</ele><time>2026-05-01T07:51:12.828Z</time></trkpt><trkpt lat="42.4833581" lon="14.1967503"><ele>5.4</ele><time>2026-05-01T07:51:13.829Z</time></trkpt><trkpt lat="42.4832873" lon="14.1968489"><ele>5.6</ele><time>2026-05-01T07:51:14.829Z</time></trkpt><trkpt lat="42.4832193" lon="14.1969443"><ele>5.8</ele><time>2026-05-01T07:51:15.829Z</time></trkpt><trkpt lat="42.4831496" lon="14.1970341"><ele>6.0</ele><time>2026-05-01T07:51:16.828Z</time></trkpt><trkpt lat="42.4830883" lon="14.1971283"><ele>6.0</ele><time>2026-05-01T07:51:17.829Z</time></trkpt><trkpt lat="42.4830249" lon="14.1972134"><ele>6.0</ele><time>2026-05-01T07:51:18.829Z</time></trkpt><trkpt lat="42.4829717" lon="14.1972949"><ele>6.0</ele><time>2026-05-01T07:51:19.829Z</time></trkpt><trkpt lat="42.4829208" lon="14.1973797"><ele>6.0</ele><time>2026-05-01T07:51:20.829Z</time></trkpt><trkpt lat="42.482866" lon="14.1974548"><ele>6.0</ele><time>2026-05-01T07:51:21.829Z</time></trkpt><trkpt lat="42.482812" lon="14.1975392"><ele>6.0</ele><time>2026-05-01T07:51:22.829Z</time></trkpt><trkpt lat="42.4827568" lon="14.1976177"><ele>6.166666666666667</ele><time>2026-05-01T07:51:23.829Z</time></trkpt><trkpt lat="42.4827069" lon="14.1976918"><ele>6.333333333333334</ele><time>2026-05-01T07:51:24.829Z</time></trkpt><trkpt lat="42.4826594" lon="14.1977654"><ele>6.5</ele><time>2026-05-01T07:51:25.829Z</time></trkpt><trkpt lat="42.4826042" lon="14.1978406"><ele>6.666666666666667</ele><time>2026-05-01T07:51:26.829Z</time></trkpt><trkpt lat="42.4825469" lon="14.197916"><ele>6.833333333333334</ele><time>2026-05-01T07:51:27.829Z</time></trkpt><trkpt lat="42.4824921" lon="14.1979937"><ele>7.0</ele><time>2026-05-01T07:51:28.829Z</time></trkpt><trkpt lat="42.4824324" lon="14.1980764"><ele>7.0</ele><time>2026-05-01T07:51:29.829Z</time></trkpt><trkpt lat="42.4823695" lon="14.198161"><ele>6.999999999999999</ele><time>2026-05-01T07:51:30.829Z</time></trkpt><trkpt lat="42.4823124" lon="14.1982605"><ele>6.999999999999999</ele><time>2026-05-01T07:51:31.829Z</time></trkpt><trkpt lat="42.4822408" lon="14.198351"><ele>7.0</ele><time>2026-05-01T07:51:32.829Z</time></trkpt><trkpt lat="42.4821726" lon="14.1984494"><ele>7.0</ele><time>2026-05-01T07:51:33.829Z</time></trkpt><trkpt lat="42.4821078" lon="14.1985497"><ele>7.0</ele><time>2026-05-01T07:51:34.829Z</time></trkpt><trkpt lat="42.4820474" lon="14.1986451"><ele>6.999999999999999</ele><time>2026-05-01T07:51:35.828Z</time></trkpt><trkpt lat="42.4819828" lon="14.1987421"><ele>6.999999999999999</ele><time>2026-05-01T07:51:36.829Z</time></trkpt><trkpt lat="42.4819127" lon="14.1988374"><ele>7.0</ele><time>2026-05-01T07:51:37.829Z</time></trkpt><trkpt lat="42.4818386" lon="14.1989299"><ele>7.0</ele><time>2026-05-01T07:51:38.829Z</time></trkpt><trkpt lat="42.4817699" lon="14.1990359"><ele>7.0</ele><time>2026-05-01T07:51:39.829Z</time></trkpt><trkpt lat="42.4816989" lon="14.1991344"><ele>6.999999999999999</ele><time>2026-05-01T07:51:40.829Z</time></trkpt><trkpt lat="42.4816279" lon="14.1992456"><ele>6.999999999999999</ele><time>2026-05-01T07:51:41.829Z</time></trkpt><trkpt lat="42.4815624" lon="14.1993565"><ele>7.0</ele><time>2026-05-01T07:51:42.829Z</time></trkpt><trkpt lat="42.4814926" lon="14.1994635"><ele>7.0</ele><time>2026-05-01T07:51:43.829Z</time></trkpt><trkpt lat="42.4814211" lon="14.1995666"><ele>7.0</ele><time>2026-05-01T07:51:44.828Z</time></trkpt><trkpt lat="42.4813516" lon="14.1996686"><ele>6.999999999999999</ele><time>2026-05-01T07:51:45.829Z</time></trkpt><trkpt lat="42.4812826" lon="14.1997742"><ele>6.999999999999999</ele><time>2026-05-01T07:51:46.829Z</time></trkpt><trkpt lat="42.4812164" lon="14.1998758"><ele>7.0</ele><time>2026-05-01T07:51:47.829Z</time></trkpt><trkpt lat="42.4811523" lon="14.1999751"><ele>7.0</ele><time>2026-05-01T07:51:48.831Z</time></trkpt><trkpt lat="42.4810817" lon="14.2000656"><ele>6.199999999999999</ele><time>2026-05-01T07:51:49.831Z</time></trkpt><trkpt lat="42.4810112" lon="14.2001591"><ele>5.3999999999999995</ele><time>2026-05-01T07:51:50.831Z</time></trkpt><trkpt lat="42.4809483" lon="14.2002566"><ele>4.6</ele><time>2026-05-01T07:51:51.831Z</time></trkpt><trkpt lat="42.4808795" lon="14.2003503"><ele>3.8</ele><time>2026-05-01T07:51:52.831Z</time></trkpt><trkpt lat="42.4808119" lon="14.2004457"><ele>3.0</ele><time>2026-05-01T07:51:53.831Z</time></trkpt><trkpt lat="42.4807509" lon="14.2005474"><ele>3.0</ele><time>2026-05-01T07:51:54.831Z</time></trkpt><trkpt lat="42.4806818" lon="14.2006443"><ele>3.0</ele><time>2026-05-01T07:51:55.831Z</time></trkpt><trkpt lat="42.4806179" lon="14.2007404"><ele>3.0</ele><time>2026-05-01T07:51:56.831Z</time></trkpt><trkpt lat="42.480554" lon="14.20084"><ele>3.0</ele><time>2026-05-01T07:51:57.831Z</time></trkpt><trkpt lat="42.4804897" lon="14.2009322"><ele>3.0</ele><time>2026-05-01T07:51:58.831Z</time></trkpt><trkpt lat="42.4804249" lon="14.201012"><ele>3.5999999999999996</ele><time>2026-05-01T07:51:59.831Z</time></trkpt><trkpt lat="42.4803658" lon="14.201102"><ele>4.199999999999999</ele><time>2026-05-01T07:52:00.831Z</time></trkpt><trkpt lat="42.4803044" lon="14.2011908"><ele>4.8</ele><time>2026-05-01T07:52:01.83Z</time></trkpt><trkpt lat="42.4802434" lon="14.2012828"><ele>5.3999999999999995</ele><time>2026-05-01T07:52:02.831Z</time></trkpt><trkpt lat="42.4801789" lon="14.2013774"><ele>6.0</ele><time>2026-05-01T07:52:03.83Z</time></trkpt><trkpt lat="42.4801165" lon="14.2014756"><ele>5.8</ele><time>2026-05-01T07:52:04.831Z</time></trkpt><trkpt lat="42.4800505" lon="14.2015771"><ele>5.6</ele><time>2026-05-01T07:52:05.831Z</time></trkpt><trkpt lat="42.4799762" lon="14.2016802"><ele>5.4</ele><time>2026-05-01T07:52:06.831Z</time></trkpt><trkpt lat="42.4799052" lon="14.2017858"><ele>5.2</ele><time>2026-05-01T07:52:07.831Z</time></trkpt><trkpt lat="42.479834" lon="14.2018819"><ele>5.0</ele><time>2026-05-01T07:52:08.831Z</time></trkpt><trkpt lat="42.4797665" lon="14.2019767"><ele>5.0</ele><time>2026-05-01T07:52:09.831Z</time></trkpt><trkpt lat="42.4796958" lon="14.202073"><ele>5.0</ele><time>2026-05-01T07:52:10.831Z</time></trkpt><trkpt lat="42.479631" lon="14.202174"><ele>5.0</ele><time>2026-05-01T07:52:11.831Z</time></trkpt><trkpt lat="42.479567" lon="14.2022705"><ele>5.0</ele><time>2026-05-01T07:52:12.831Z</time></trkpt><trkpt lat="42.4795066" lon="14.2023673"><ele>5.0</ele><time>2026-05-01T07:52:13.831Z</time></trkpt><trkpt lat="42.4794434" lon="14.2024546"><ele>4.8</ele><time>2026-05-01T07:52:14.831Z</time></trkpt><trkpt lat="42.4793852" lon="14.2025401"><ele>4.6</ele><time>2026-05-01T07:52:15.831Z</time></trkpt><trkpt lat="42.4793231" lon="14.2026299"><ele>4.4</ele><time>2026-05-01T07:52:16.831Z</time></trkpt><trkpt lat="42.4792595" lon="14.2027168"><ele>4.2</ele><time>2026-05-01T07:52:17.831Z</time></trkpt><trkpt lat="42.479195" lon="14.2028117"><ele>4.0</ele><time>2026-05-01T07:52:18.831Z</time></trkpt><trkpt lat="42.4791316" lon="14.20291"><ele>4.0</ele><time>2026-05-01T07:52:19.831Z</time></trkpt><trkpt lat="42.4790638" lon="14.2030086"><ele>4.0</ele><time>2026-05-01T07:52:20.831Z</time></trkpt><trkpt lat="42.4789977" lon="14.2031065"><ele>4.0</ele><time>2026-05-01T07:52:21.831Z</time></trkpt><trkpt lat="42.4789299" lon="14.2032052"><ele>4.0</ele><time>2026-05-01T07:52:22.831Z</time></trkpt><trkpt lat="42.4788612" lon="14.2033092"><ele>4.0</ele><time>2026-05-01T07:52:23.831Z</time></trkpt><trkpt lat="42.4787911" lon="14.2034099"><ele>5.0</ele><time>2026-05-01T07:52:24.83Z</time></trkpt><trkpt lat="42.4787202" lon="14.2035134"><ele>6.0</ele><time>2026-05-01T07:52:25.831Z</time></trkpt><trkpt lat="42.4786485" lon="14.2036248"><ele>7.0</ele><time>2026-05-01T07:52:26.83Z</time></trkpt><trkpt lat="42.4785699" lon="14.2037519"><ele>8.0</ele><time>2026-05-01T07:52:27.83Z</time></trkpt><trkpt lat="42.478483" lon="14.2038937"><ele>6.666666666666666</ele><time>2026-05-01T07:52:28.831Z</time></trkpt><trkpt lat="42.4783877" lon="14.2040522"><ele>5.333333333333333</ele><time>2026-05-01T07:52:29.831Z</time></trkpt><trkpt lat="42.4782858" lon="14.2042204"><ele>4.0</ele><time>2026-05-01T07:52:30.83Z</time></trkpt><trkpt lat="42.4781897" lon="14.2043977"><ele>4.0</ele><time>2026-05-01T07:52:31.83Z</time></trkpt><trkpt lat="42.4780813" lon="14.2045438"><ele>4.0</ele><time>2026-05-01T07:52:32.83Z</time></trkpt><trkpt lat="42.4779764" lon="14.2046613"><ele>4.0</ele><time>2026-05-01T07:52:33.83Z</time></trkpt><trkpt lat="42.4778894" lon="14.2047535"><ele>4.0</ele><time>2026-05-01T07:52:34.831Z</time></trkpt><trkpt lat="42.4778213" lon="14.204847"><ele>4.4</ele><time>2026-05-01T07:52:35.831Z</time></trkpt><trkpt lat="42.4777581" lon="14.2049332"><ele>4.800000000000001</ele><time>2026-05-01T07:52:36.831Z</time></trkpt><trkpt lat="42.4776759" lon="14.2050515"><ele>5.199999999999999</ele><time>2026-05-01T07:52:37.831Z</time></trkpt><trkpt lat="42.4775851" lon="14.2051645"><ele>5.6</ele><time>2026-05-01T07:52:38.83Z</time></trkpt><trkpt lat="42.4774976" lon="14.2052659"><ele>6.0</ele><time>2026-05-01T07:52:39.831Z</time></trkpt><trkpt lat="42.4774268" lon="14.2053693"><ele>6.0</ele><time>2026-05-01T07:52:40.831Z</time></trkpt><trkpt lat="42.4773586" lon="14.2054601"><ele>6.0</ele><time>2026-05-01T07:52:41.831Z</time></trkpt><trkpt lat="42.4772972" lon="14.2055412"><ele>6.0</ele><time>2026-05-01T07:52:42.831Z</time></trkpt><trkpt lat="42.4772465" lon="14.2056224"><ele>6.0</ele><time>2026-05-01T07:52:43.83Z</time></trkpt><trkpt lat="42.4771948" lon="14.2056979"><ele>6.0</ele><time>2026-05-01T07:52:44.831Z</time></trkpt><trkpt lat="42.4771503" lon="14.2057787"><ele>6.0</ele><time>2026-05-01T07:52:45.83Z</time></trkpt><trkpt lat="42.4770948" lon="14.2058859"><ele>5.75</ele><time>2026-05-01T07:52:46.831Z</time></trkpt><trkpt lat="42.4770228" lon="14.2060033"><ele>5.5</ele><time>2026-05-01T07:52:47.831Z</time></trkpt><trkpt lat="42.4769421" lon="14.2061315"><ele>5.25</ele><time>2026-05-01T07:52:48.831Z</time></trkpt><trkpt lat="42.4768532" lon="14.2062709"><ele>5.0</ele><time>2026-05-01T07:52:49.83Z</time></trkpt><trkpt lat="42.4767548" lon="14.2064144"><ele>3.666666666666667</ele><time>2026-05-01T07:52:50.83Z</time></trkpt><trkpt lat="42.4766474" lon="14.2065605"><ele>2.3333333333333335</ele><time>2026-05-01T07:52:51.83Z</time></trkpt><trkpt lat="42.476542" lon="14.2067131"><ele>1.0</ele><time>2026-05-01T07:52:52.831Z</time></trkpt><trkpt lat="42.4764313" lon="14.2068726"><ele>1.0</ele><time>2026-05-01T07:52:53.831Z</time></trkpt><trkpt lat="42.4763221" lon="14.2070288"><ele>1.0</ele><time>2026-05-01T07:52:54.831Z</time></trkpt><trkpt lat="42.4762178" lon="14.2071829"><ele>1.0</ele><time>2026-05-01T07:52:55.83Z</time></trkpt><trkpt lat="42.4761164" lon="14.2073301"><ele>1.75</ele><time>2026-05-01T07:52:56.831Z</time></trkpt><trkpt lat="42.4760184" lon="14.2074713"><ele>2.5</ele><time>2026-05-01T07:52:57.831Z</time></trkpt><trkpt lat="42.4759228" lon="14.2076048"><ele>3.25</ele><time>2026-05-01T07:52:58.831Z</time></trkpt><trkpt lat="42.4758267" lon="14.2077428"><ele>4.0</ele><time>2026-05-01T07:52:59.831Z</time></trkpt><trkpt lat="42.475732" lon="14.207887"><ele>4.0</ele><time>2026-05-01T07:53:00.831Z</time></trkpt><trkpt lat="42.475633" lon="14.208035"><ele>4.0</ele><time>2026-05-01T07:53:01.831Z</time></trkpt><trkpt lat="42.4755324" lon="14.208179"><ele>4.0</ele><time>2026-05-01T07:53:02.831Z</time></trkpt><trkpt lat="42.4754316" lon="14.2083191"><ele>4.0</ele><time>2026-05-01T07:53:03.831Z</time></trkpt><trkpt lat="42.475336" lon="14.2084629"><ele>4.25</ele><time>2026-05-01T07:53:04.831Z</time></trkpt><trkpt lat="42.4752382" lon="14.2086047"><ele>4.5</ele><time>2026-05-01T07:53:05.831Z</time></trkpt><trkpt lat="42.4751416" lon="14.2087506"><ele>4.75</ele><time>2026-05-01T07:53:06.83Z</time></trkpt><trkpt lat="42.4750505" lon="14.2088871"><ele>5.0</ele><time>2026-05-01T07:53:07.831Z</time></trkpt><trkpt lat="42.4749683" lon="14.2090111"><ele>4.0</ele><time>2026-05-01T07:53:08.831Z</time></trkpt><trkpt lat="42.4748896" lon="14.2091186"><ele>3.0</ele><time>2026-05-01T07:53:09.831Z</time></trkpt><trkpt lat="42.4748192" lon="14.2092116"><ele>2.0</ele><time>2026-05-01T07:53:10.831Z</time></trkpt><trkpt lat="42.4747637" lon="14.209297"><ele>1.0</ele><time>2026-05-01T07:53:11.831Z</time></trkpt><trkpt lat="42.4747091" lon="14.2093611"><ele>0.0</ele><time>2026-05-01T07:53:12.831Z</time></trkpt><trkpt lat="42.4746231" lon="14.2094765"><ele>0.3333333333333333</ele><time>2026-05-01T07:53:14.831Z</time></trkpt><trkpt lat="42.4745413" lon="14.2095851"><ele>0.6666666666666666</ele><time>2026-05-01T07:53:16.831Z</time></trkpt><trkpt lat="42.4745011" lon="14.2096513"><ele>1.0</ele><time>2026-05-01T07:53:17.831Z</time></trkpt><trkpt lat="42.4744537" lon="14.2097226"><ele>1.3333333333333333</ele><time>2026-05-01T07:53:18.831Z</time></trkpt><trkpt lat="42.4744006" lon="14.2097975"><ele>1.6666666666666665</ele><time>2026-05-01T07:53:19.831Z</time></trkpt><trkpt lat="42.4743471" lon="14.2098737"><ele>2.0</ele><time>2026-05-01T07:53:20.831Z</time></trkpt><trkpt lat="42.4742884" lon="14.2099467"><ele>1.9999999999999998</ele><time>2026-05-01T07:53:21.831Z</time></trkpt><trkpt lat="42.4742325" lon="14.21003"><ele>2.0</ele><time>2026-05-01T07:53:22.83Z</time></trkpt><trkpt lat="42.4741763" lon="14.210126"><ele>2.0</ele><time>2026-05-01T07:53:23.831Z</time></trkpt><trkpt lat="42.474117" lon="14.2102221"><ele>2.0</ele><time>2026-05-01T07:53:24.831Z</time></trkpt><trkpt lat="42.4740538" lon="14.2103093"><ele>1.9999999999999998</ele><time>2026-05-01T07:53:25.831Z</time></trkpt><trkpt lat="42.4739945" lon="14.2103933"><ele>2.0</ele><time>2026-05-01T07:53:26.831Z</time></trkpt><trkpt lat="42.4739399" lon="14.2104761"><ele>2.0</ele><time>2026-05-01T07:53:27.831Z</time></trkpt><trkpt lat="42.4738916" lon="14.2105585"><ele>1.9999999999999998</ele><time>2026-05-01T07:53:28.83Z</time></trkpt><trkpt lat="42.4738443" lon="14.210632"><ele>2.0</ele><time>2026-05-01T07:53:29.831Z</time></trkpt><trkpt lat="42.4737975" lon="14.2107058"><ele>2.0</ele><time>2026-05-01T07:53:30.831Z</time></trkpt><trkpt lat="42.473749" lon="14.210779"><ele>1.9999999999999998</ele><time>2026-05-01T07:53:31.831Z</time></trkpt><trkpt lat="42.4737029" lon="14.2108455"><ele>2.0</ele><time>2026-05-01T07:53:32.831Z</time></trkpt><trkpt lat="42.4736542" lon="14.2109132"><ele>2.0</ele><time>2026-05-01T07:53:33.831Z</time></trkpt><trkpt lat="42.4736074" lon="14.21099"><ele>1.8333333333333333</ele><time>2026-05-01T07:53:34.831Z</time></trkpt><trkpt lat="42.4735625" lon="14.2110708"><ele>1.6666666666666665</ele><time>2026-05-01T07:53:35.83Z</time></trkpt><trkpt lat="42.4734977" lon="14.2111862"><ele>1.5</ele><time>2026-05-01T07:53:37.831Z</time></trkpt><trkpt lat="42.4734575" lon="14.2112624"><ele>1.3333333333333333</ele><time>2026-05-01T07:53:40.831Z</time></trkpt><trkpt lat="42.4734039" lon="14.211362"><ele>1.1666666666666665</ele><time>2026-05-01T07:53:48.831Z</time></trkpt><trkpt lat="42.47336" lon="14.2114262"><ele>1.0</ele><time>2026-05-01T07:53:49.831Z</time></trkpt><trkpt lat="42.4733143" lon="14.2115019"><ele>0.9999999999999999</ele><time>2026-05-01T07:53:50.831Z</time></trkpt><trkpt lat="42.4732716" lon="14.211591"><ele>1.0</ele><time>2026-05-01T07:53:51.831Z</time></trkpt><trkpt lat="42.4732293" lon="14.2116761"><ele>1.0</ele><time>2026-05-01T07:53:52.831Z</time></trkpt><trkpt lat="42.4731854" lon="14.2117556"><ele>1.0</ele><time>2026-05-01T07:53:53.831Z</time></trkpt><trkpt lat="42.4731348" lon="14.2118418"><ele>0.9999999999999999</ele><time>2026-05-01T07:53:54.83Z</time></trkpt><trkpt lat="42.4730774" lon="14.2119331"><ele>1.0</ele><time>2026-05-01T07:53:55.83Z</time></trkpt><trkpt lat="42.4730232" lon="14.2120346"><ele>1.0</ele><time>2026-05-01T07:53:56.831Z</time></trkpt><trkpt lat="42.4729613" lon="14.2121451"><ele>1.0</ele><time>2026-05-01T07:53:57.831Z</time></trkpt><trkpt lat="42.4728971" lon="14.2122589"><ele>1.0</ele><time>2026-05-01T07:53:58.831Z</time></trkpt><trkpt lat="42.4728374" lon="14.2123617"><ele>1.0</ele><time>2026-05-01T07:53:59.831Z</time></trkpt><trkpt lat="42.4727786" lon="14.2124598"><ele>1.0</ele><time>2026-05-01T07:54:00.831Z</time></trkpt><trkpt lat="42.4727118" lon="14.2125406"><ele>1.4</ele><time>2026-05-01T07:54:01.831Z</time></trkpt><trkpt lat="42.4726501" lon="14.2126254"><ele>1.8</ele><time>2026-05-01T07:54:02.831Z</time></trkpt><trkpt lat="42.472585" lon="14.2127309"><ele>2.1999999999999997</ele><time>2026-05-01T07:54:03.831Z</time></trkpt><trkpt lat="42.4725179" lon="14.2128399"><ele>2.6</ele><time>2026-05-01T07:54:04.831Z</time></trkpt><trkpt lat="42.4724482" lon="14.2129636"><ele>3.0</ele><time>2026-05-01T07:54:05.831Z</time></trkpt><trkpt lat="42.4723728" lon="14.2130933"><ele>3.0</ele><time>2026-05-01T07:54:06.831Z</time></trkpt><trkpt lat="42.4722973" lon="14.2132111"><ele>3.0</ele><time>2026-05-01T07:54:07.831Z</time></trkpt><trkpt lat="42.4722219" lon="14.2133286"><ele>3.0</ele><time>2026-05-01T07:54:08.831Z</time></trkpt><trkpt lat="42.4721465" lon="14.2134504"><ele>3.0</ele><time>2026-05-01T07:54:09.831Z</time></trkpt><trkpt lat="42.4720741" lon="14.2135718"><ele>3.5999999999999996</ele><time>2026-05-01T07:54:10.831Z</time></trkpt><trkpt lat="42.4720048" lon="14.2136903"><ele>4.199999999999999</ele><time>2026-05-01T07:54:11.831Z</time></trkpt><trkpt lat="42.4719341" lon="14.213809"><ele>4.8</ele><time>2026-05-01T07:54:12.831Z</time></trkpt><trkpt lat="42.4718707" lon="14.2139208"><ele>5.3999999999999995</ele><time>2026-05-01T07:54:13.831Z</time></trkpt><trkpt lat="42.4718082" lon="14.2140312"><ele>6.0</ele><time>2026-05-01T07:54:14.83Z</time></trkpt><trkpt lat="42.4717442" lon="14.2141352"><ele>6.0</ele><time>2026-05-01T07:54:15.83Z</time></trkpt><trkpt lat="42.4716829" lon="14.2142475"><ele>6.0</ele><time>2026-05-01T07:54:16.831Z</time></trkpt><trkpt lat="42.471619" lon="14.2143561"><ele>6.0</ele><time>2026-05-01T07:54:17.83Z</time></trkpt><trkpt lat="42.471555" lon="14.2144624"><ele>6.0</ele><time>2026-05-01T07:54:18.831Z</time></trkpt><trkpt lat="42.4714926" lon="14.2145675"><ele>6.0</ele><time>2026-05-01T07:54:19.83Z</time></trkpt><trkpt lat="42.4714313" lon="14.2146737"><ele>6.0</ele><time>2026-05-01T07:54:20.831Z</time></trkpt><trkpt lat="42.4713692" lon="14.2147831"><ele>6.0</ele><time>2026-05-01T07:54:21.831Z</time></trkpt><trkpt lat="42.4713083" lon="14.2148856"><ele>6.0</ele><time>2026-05-01T07:54:22.83Z</time></trkpt><trkpt lat="42.4712493" lon="14.2149853"><ele>6.0</ele><time>2026-05-01T07:54:23.831Z</time></trkpt><trkpt lat="42.4711887" lon="14.2150882"><ele>6.0</ele><time>2026-05-01T07:54:24.831Z</time></trkpt><trkpt lat="42.4711266" lon="14.2152003"><ele>6.0</ele><time>2026-05-01T07:54:25.831Z</time></trkpt><trkpt lat="42.4710624" lon="14.2153108"><ele>6.0</ele><time>2026-05-01T07:54:26.831Z</time></trkpt><trkpt lat="42.4709993" lon="14.215409"><ele>6.0</ele><time>2026-05-01T07:54:27.83Z</time></trkpt><trkpt lat="42.4709343" lon="14.2155095"><ele>6.0</ele><time>2026-05-01T07:54:28.831Z</time></trkpt><trkpt lat="42.4708762" lon="14.2156181"><ele>6.0</ele><time>2026-05-01T07:54:29.831Z</time></trkpt><trkpt lat="42.4708134" lon="14.2157226"><ele>6.4</ele><time>2026-05-01T07:54:30.831Z</time></trkpt><trkpt lat="42.4707484" lon="14.2158247"><ele>6.8</ele><time>2026-05-01T07:54:31.831Z</time></trkpt><trkpt lat="42.4706854" lon="14.2159286"><ele>7.200000000000001</ele><time>2026-05-01T07:54:32.831Z</time></trkpt><trkpt lat="42.4706271" lon="14.2160384"><ele>7.6000000000000005</ele><time>2026-05-01T07:54:33.831Z</time></trkpt><trkpt lat="42.4705698" lon="14.2161508"><ele>8.0</ele><time>2026-05-01T07:54:34.831Z</time></trkpt><trkpt lat="42.4705065" lon="14.216258"><ele>8.0</ele><time>2026-05-01T07:54:35.831Z</time></trkpt><trkpt lat="42.4704433" lon="14.2163612"><ele>8.0</ele><time>2026-05-01T07:54:36.83Z</time></trkpt><trkpt lat="42.4703787" lon="14.2164626"><ele>8.0</ele><time>2026-05-01T07:54:37.831Z</time></trkpt><trkpt lat="42.4703154" lon="14.2165718"><ele>8.0</ele><time>2026-05-01T07:54:38.831Z</time></trkpt><trkpt lat="42.4702524" lon="14.2166881"><ele>8.0</ele><time>2026-05-01T07:54:39.831Z</time></trkpt><trkpt lat="42.4701903" lon="14.2167983"><ele>7.2</ele><time>2026-05-01T07:54:40.831Z</time></trkpt><trkpt lat="42.4701276" lon="14.2169079"><ele>6.4</ele><time>2026-05-01T07:54:41.831Z</time></trkpt><trkpt lat="42.4700564" lon="14.2170138"><ele>5.6000000000000005</ele><time>2026-05-01T07:54:42.83Z</time></trkpt><trkpt lat="42.4699929" lon="14.2171286"><ele>4.800000000000001</ele><time>2026-05-01T07:54:43.831Z</time></trkpt><trkpt lat="42.4699262" lon="14.2172433"><ele>4.0</ele><time>2026-05-01T07:54:44.831Z</time></trkpt><trkpt lat="42.46986" lon="14.217361"><ele>4.0</ele><time>2026-05-01T07:54:45.831Z</time></trkpt><trkpt lat="42.4697868" lon="14.21748"><ele>4.0</ele><time>2026-05-01T07:54:46.831Z</time></trkpt><trkpt lat="42.4697104" lon="14.2176038"><ele>4.0</ele><time>2026-05-01T07:54:47.831Z</time></trkpt><trkpt lat="42.4696335" lon="14.2177297"><ele>4.0</ele><time>2026-05-01T07:54:48.831Z</time></trkpt><trkpt lat="42.4695541" lon="14.2178711"><ele>4.0</ele><time>2026-05-01T07:54:49.831Z</time></trkpt><trkpt lat="42.4694694" lon="14.218021"><ele>4.0</ele><time>2026-05-01T07:54:50.83Z</time></trkpt><trkpt lat="42.4693908" lon="14.2181875"><ele>4.0</ele><time>2026-05-01T07:54:51.83Z</time></trkpt><trkpt lat="42.4693041" lon="14.2183702"><ele>4.0</ele><time>2026-05-01T07:54:52.831Z</time></trkpt><trkpt lat="42.4692108" lon="14.2185554"><ele>4.0</ele><time>2026-05-01T07:54:53.831Z</time></trkpt><trkpt lat="42.4691017" lon="14.2187493"><ele>4.0</ele><time>2026-05-01T07:54:54.831Z</time></trkpt><trkpt lat="42.4689879" lon="14.2189253"><ele>4.0</ele><time>2026-05-01T07:54:55.831Z</time></trkpt><trkpt lat="42.4688763" lon="14.2190838"><ele>4.25</ele><time>2026-05-01T07:54:56.831Z</time></trkpt><trkpt lat="42.4687737" lon="14.21923"><ele>4.5</ele><time>2026-05-01T07:54:57.831Z</time></trkpt><trkpt lat="42.4686789" lon="14.2193793"><ele>4.75</ele><time>2026-05-01T07:54:58.83Z</time></trkpt><trkpt lat="42.4685862" lon="14.2195265"><ele>5.0</ele><time>2026-05-01T07:54:59.831Z</time></trkpt><trkpt lat="42.4684975" lon="14.2196708"><ele>5.0</ele><time>2026-05-01T07:55:00.831Z</time></trkpt><trkpt lat="42.4684167" lon="14.2198161"><ele>5.0</ele><time>2026-05-01T07:55:01.831Z</time></trkpt><trkpt lat="42.4683347" lon="14.2199687"><ele>5.0</ele><time>2026-05-01T07:55:02.831Z</time></trkpt><trkpt lat="42.4682546" lon="14.2201192"><ele>5.0</ele><time>2026-05-01T07:55:03.831Z</time></trkpt><trkpt lat="42.4681784" lon="14.2202519"><ele>4.6</ele><time>2026-05-01T07:55:04.831Z</time></trkpt><trkpt lat="42.4681024" lon="14.2203669"><ele>4.2</ele><time>2026-05-01T07:55:05.831Z</time></trkpt><trkpt lat="42.4680364" lon="14.2204759"><ele>3.8</ele><time>2026-05-01T07:55:06.831Z</time></trkpt><trkpt lat="42.4679857" lon="14.2205746"><ele>3.4</ele><time>2026-05-01T07:55:07.831Z</time></trkpt><trkpt lat="42.4679475" lon="14.2206461"><ele>3.0</ele><time>2026-05-01T07:55:08.831Z</time></trkpt><trkpt lat="42.4678739" lon="14.2207646"><ele>2.8333333333333335</ele><time>2026-05-01T07:55:10.831Z</time></trkpt><trkpt lat="42.4678284" lon="14.2208418"><ele>2.6666666666666665</ele><time>2026-05-01T07:55:11.831Z</time></trkpt><trkpt lat="42.46778" lon="14.2209317"><ele>2.5</ele><time>2026-05-01T07:55:12.831Z</time></trkpt><trkpt lat="42.4677314" lon="14.2210304"><ele>2.333333333333333</ele><time>2026-05-01T07:55:13.831Z</time></trkpt><trkpt lat="42.4676807" lon="14.2211297"><ele>2.1666666666666665</ele><time>2026-05-01T07:55:14.831Z</time></trkpt><trkpt lat="42.4676178" lon="14.2212333"><ele>2.0</ele><time>2026-05-01T07:55:15.83Z</time></trkpt><trkpt lat="42.4675559" lon="14.2213361"><ele>1.9999999999999998</ele><time>2026-05-01T07:55:16.831Z</time></trkpt><trkpt lat="42.4674937" lon="14.2214268"><ele>2.0</ele><time>2026-05-01T07:55:17.831Z</time></trkpt><trkpt lat="42.46744" lon="14.2215174"><ele>2.0</ele><time>2026-05-01T07:55:18.831Z</time></trkpt><trkpt lat="42.4673921" lon="14.2216091"><ele>2.0</ele><time>2026-05-01T07:55:19.831Z</time></trkpt><trkpt lat="42.4673467" lon="14.221684"><ele>1.9999999999999998</ele><time>2026-05-01T07:55:20.831Z</time></trkpt><trkpt lat="42.4672938" lon="14.2217729"><ele>2.0</ele><time>2026-05-01T07:55:22.831Z</time></trkpt><trkpt lat="42.4672313" lon="14.2218706"><ele>1.8333333333333333</ele><time>2026-05-01T07:55:24.831Z</time></trkpt><trkpt lat="42.4671799" lon="14.2219375"><ele>1.6666666666666665</ele><time>2026-05-01T07:55:25.831Z</time></trkpt><trkpt lat="42.4671156" lon="14.2220022"><ele>1.5</ele><time>2026-05-01T07:55:26.831Z</time></trkpt><trkpt lat="42.4670393" lon="14.2220639"><ele>1.3333333333333333</ele><time>2026-05-01T07:55:27.831Z</time></trkpt><trkpt lat="42.466943" lon="14.2220987"><ele>1.1666666666666665</ele><time>2026-05-01T07:55:28.83Z</time></trkpt><trkpt lat="42.4668377" lon="14.2221064"><ele>1.0</ele><time>2026-05-01T07:55:29.831Z</time></trkpt><trkpt lat="42.4667283" lon="14.2220907"><ele>1.5</ele><time>2026-05-01T07:55:30.831Z</time></trkpt><trkpt lat="42.4666092" lon="14.2220494"><ele>2.0</ele><time>2026-05-01T07:55:31.831Z</time></trkpt><trkpt lat="42.4664863" lon="14.2219781"><ele>2.5</ele><time>2026-05-01T07:55:32.831Z</time></trkpt><trkpt lat="42.4663787" lon="14.2218997"><ele>3.0</ele><time>2026-05-01T07:55:33.831Z</time></trkpt><trkpt lat="42.4662762" lon="14.2218195"><ele>3.0</ele><time>2026-05-01T07:55:34.831Z</time></trkpt><trkpt lat="42.4661852" lon="14.2217441"><ele>3.0</ele><time>2026-05-01T07:55:35.831Z</time></trkpt><trkpt lat="42.4661078" lon="14.2216687"><ele>3.0</ele><time>2026-05-01T07:55:36.831Z</time></trkpt><trkpt lat="42.4660406" lon="14.2215977"><ele>3.0</ele><time>2026-05-01T07:55:37.831Z</time></trkpt><trkpt lat="42.4659881" lon="14.2215228"><ele>3.0</ele><time>2026-05-01T07:55:38.831Z</time></trkpt><trkpt lat="42.4659422" lon="14.2214423"><ele>3.0</ele><time>2026-05-01T07:55:39.831Z</time></trkpt><trkpt lat="42.4659046" lon="14.2213613"><ele>3.666666666666667</ele><time>2026-05-01T07:55:40.831Z</time></trkpt><trkpt lat="42.465876" lon="14.2212798"><ele>4.333333333333334</ele><time>2026-05-01T07:55:41.831Z</time></trkpt><trkpt lat="42.4658455" lon="14.2211834"><ele>5.0</ele><time>2026-05-01T07:55:42.831Z</time></trkpt><trkpt lat="42.4658201" lon="14.2210771"><ele>5.666666666666667</ele><time>2026-05-01T07:55:43.831Z</time></trkpt><trkpt lat="42.4657912" lon="14.2209726"><ele>6.333333333333334</ele><time>2026-05-01T07:55:44.831Z</time></trkpt><trkpt lat="42.4657637" lon="14.2208709"><ele>7.0</ele><time>2026-05-01T07:55:45.831Z</time></trkpt><trkpt lat="42.4657328" lon="14.2207681"><ele>7.0</ele><time>2026-05-01T07:55:46.831Z</time></trkpt><trkpt lat="42.465705" lon="14.2206542"><ele>6.999999999999999</ele><time>2026-05-01T07:55:47.831Z</time></trkpt><trkpt lat="42.465675" lon="14.2205305"><ele>6.999999999999999</ele><time>2026-05-01T07:55:48.831Z</time></trkpt><trkpt lat="42.465642" lon="14.2204011"><ele>7.0</ele><time>2026-05-01T07:55:49.831Z</time></trkpt><trkpt lat="42.4656089" lon="14.2202691"><ele>7.0</ele><time>2026-05-01T07:55:50.831Z</time></trkpt><trkpt lat="42.4655784" lon="14.2201326"><ele>6.6</ele><time>2026-05-01T07:55:51.831Z</time></trkpt><trkpt lat="42.4655445" lon="14.2199991"><ele>6.199999999999999</ele><time>2026-05-01T07:55:52.83Z</time></trkpt><trkpt lat="42.4655128" lon="14.2198673"><ele>5.8</ele><time>2026-05-01T07:55:53.831Z</time></trkpt><trkpt lat="42.4654817" lon="14.219748"><ele>5.4</ele><time>2026-05-01T07:55:54.831Z</time></trkpt><trkpt lat="42.4654616" lon="14.2196413"><ele>5.0</ele><time>2026-05-01T07:55:55.831Z</time></trkpt><trkpt lat="42.4654377" lon="14.2195404"><ele>4.833333333333334</ele><time>2026-05-01T07:55:56.831Z</time></trkpt><trkpt lat="42.4654115" lon="14.2194461"><ele>4.666666666666667</ele><time>2026-05-01T07:55:57.831Z</time></trkpt><trkpt lat="42.4653888" lon="14.2193568"><ele>4.5</ele><time>2026-05-01T07:55:58.83Z</time></trkpt><trkpt lat="42.465362" lon="14.219263"><ele>4.333333333333333</ele><time>2026-05-01T07:55:59.83Z</time></trkpt><trkpt lat="42.4653337" lon="14.2191724"><ele>4.166666666666666</ele><time>2026-05-01T07:56:00.831Z</time></trkpt><trkpt lat="42.465308" lon="14.2190869"><ele>4.0</ele><time>2026-05-01T07:56:01.831Z</time></trkpt><trkpt lat="42.465279" lon="14.2189351"><ele>3.8000000000000003</ele><time>2026-05-01T07:56:03.831Z</time></trkpt><trkpt lat="42.4652668" lon="14.2187905"><ele>3.6000000000000005</ele><time>2026-05-01T07:56:05.831Z</time></trkpt><trkpt lat="42.4652293" lon="14.2186466"><ele>3.4</ele><time>2026-05-01T07:56:07.831Z</time></trkpt><trkpt lat="42.4651253" lon="14.218598"><ele>3.2</ele><time>2026-05-01T07:56:09.831Z</time></trkpt><trkpt lat="42.4650059" lon="14.2185967"><ele>3.0</ele><time>2026-05-01T07:56:11.831Z</time></trkpt><trkpt lat="42.4649371" lon="14.2184607"><ele>3.0</ele><time>2026-05-01T07:56:13.831Z</time></trkpt><trkpt lat="42.4649055" lon="14.2183685"><ele>3.0</ele><time>2026-05-01T07:56:14.831Z</time></trkpt><trkpt lat="42.4648734" lon="14.2182689"><ele>3.0</ele><time>2026-05-01T07:56:15.831Z</time></trkpt><trkpt lat="42.4648387" lon="14.2181657"><ele>3.0</ele><time>2026-05-01T07:56:16.831Z</time></trkpt><trkpt lat="42.4648043" lon="14.2180488"><ele>3.0</ele><time>2026-05-01T07:56:17.831Z</time></trkpt><trkpt lat="42.4647733" lon="14.2179269"><ele>3.0</ele><time>2026-05-01T07:56:18.831Z</time></trkpt><trkpt lat="42.4647392" lon="14.2178017"><ele>3.2</ele><time>2026-05-01T07:56:19.831Z</time></trkpt><trkpt lat="42.4647066" lon="14.2176889"><ele>3.4</ele><time>2026-05-01T07:56:20.831Z</time></trkpt><trkpt lat="42.4646763" lon="14.2175743"><ele>3.6000000000000005</ele><time>2026-05-01T07:56:21.831Z</time></trkpt><trkpt lat="42.4646454" lon="14.2174521"><ele>3.8000000000000003</ele><time>2026-05-01T07:56:22.831Z</time></trkpt><trkpt lat="42.4646178" lon="14.217334"><ele>4.0</ele><time>2026-05-01T07:56:23.831Z</time></trkpt><trkpt lat="42.4645885" lon="14.2172232"><ele>3.9999999999999996</ele><time>2026-05-01T07:56:24.831Z</time></trkpt><trkpt lat="42.4645613" lon="14.2171171"><ele>4.0</ele><time>2026-05-01T07:56:25.83Z</time></trkpt><trkpt lat="42.464534" lon="14.2170132"><ele>4.0</ele><time>2026-05-01T07:56:26.831Z</time></trkpt><trkpt lat="42.4645045" lon="14.2169072"><ele>4.0</ele><time>2026-05-01T07:56:27.831Z</time></trkpt><trkpt lat="42.4644621" lon="14.216812"><ele>3.9999999999999996</ele><time>2026-05-01T07:56:28.831Z</time></trkpt><trkpt lat="42.4644085" lon="14.2167287"><ele>4.0</ele><time>2026-05-01T07:56:29.831Z</time></trkpt><trkpt lat="42.4643645" lon="14.2166317"><ele>4.0</ele><time>2026-05-01T07:56:30.831Z</time></trkpt><trkpt lat="42.4643224" lon="14.2165188"><ele>4.0</ele><time>2026-05-01T07:56:31.83Z</time></trkpt><trkpt lat="42.4642719" lon="14.2163963"><ele>4.0</ele><time>2026-05-01T07:56:32.831Z</time></trkpt><trkpt lat="42.4642055" lon="14.2162535"><ele>4.0</ele><time>2026-05-01T07:56:33.831Z</time></trkpt><trkpt lat="42.4641336" lon="14.2160897"><ele>4.0</ele><time>2026-05-01T07:56:34.83Z</time></trkpt><trkpt lat="42.4640689" lon="14.2159052"><ele>4.0</ele><time>2026-05-01T07:56:35.83Z</time></trkpt><trkpt lat="42.4640117" lon="14.2157343"><ele>4.0</ele><time>2026-05-01T07:56:36.831Z</time></trkpt><trkpt lat="42.4639542" lon="14.2155406"><ele>4.0</ele><time>2026-05-01T07:56:37.831Z</time></trkpt><trkpt lat="42.4638956" lon="14.2153345"><ele>5.0</ele><time>2026-05-01T07:56:38.831Z</time></trkpt><trkpt lat="42.4638353" lon="14.2151343"><ele>6.0</ele><time>2026-05-01T07:56:39.831Z</time></trkpt><trkpt lat="42.4637654" lon="14.2149452"><ele>7.0</ele><time>2026-05-01T07:56:40.831Z</time></trkpt><trkpt lat="42.4636917" lon="14.2147661"><ele>7.666666666666667</ele><time>2026-05-01T07:56:41.831Z</time></trkpt><trkpt lat="42.4636081" lon="14.2145823"><ele>8.333333333333334</ele><time>2026-05-01T07:56:42.831Z</time></trkpt><trkpt lat="42.4635216" lon="14.2143843"><ele>9.0</ele><time>2026-05-01T07:56:43.831Z</time></trkpt><trkpt lat="42.4634339" lon="14.2141843"><ele>10.0</ele><time>2026-05-01T07:56:44.831Z</time></trkpt><trkpt lat="42.4633372" lon="14.2139745"><ele>11.0</ele><time>2026-05-01T07:56:45.831Z</time></trkpt><trkpt lat="42.4632465" lon="14.21377"><ele>12.0</ele><time>2026-05-01T07:56:46.83Z</time></trkpt><trkpt lat="42.4631537" lon="14.2135595"><ele>12.0</ele><time>2026-05-01T07:56:47.831Z</time></trkpt><trkpt lat="42.4630602" lon="14.2133405"><ele>12.0</ele><time>2026-05-01T07:56:48.831Z</time></trkpt><trkpt lat="42.4629681" lon="14.2131194"><ele>12.0</ele><time>2026-05-01T07:56:49.831Z</time></trkpt><trkpt lat="42.4628763" lon="14.2129083"><ele>10.333333333333334</ele><time>2026-05-01T07:56:50.831Z</time></trkpt><trkpt lat="42.4627866" lon="14.212705"><ele>8.666666666666668</ele><time>2026-05-01T07:56:51.83Z</time></trkpt><trkpt lat="42.4626943" lon="14.2124981"><ele>7.0</ele><time>2026-05-01T07:56:52.831Z</time></trkpt><trkpt lat="42.4625949" lon="14.2122838"><ele>6.0</ele><time>2026-05-01T07:56:53.831Z</time></trkpt><trkpt lat="42.4624961" lon="14.2120661"><ele>5.0</ele><time>2026-05-01T07:56:54.831Z</time></trkpt><trkpt lat="42.4623989" lon="14.2118549"><ele>4.0</ele><time>2026-05-01T07:56:55.831Z</time></trkpt><trkpt lat="42.462314" lon="14.2116524"><ele>4.0</ele><time>2026-05-01T07:56:56.831Z</time></trkpt><trkpt lat="42.4622313" lon="14.2114685"><ele>4.0</ele><time>2026-05-01T07:56:57.831Z</time></trkpt><trkpt lat="42.462154" lon="14.2112862"><ele>4.0</ele><time>2026-05-01T07:56:58.831Z</time></trkpt><trkpt lat="42.4620763" lon="14.2111042"><ele>4.0</ele><time>2026-05-01T07:56:59.831Z</time></trkpt><trkpt lat="42.462" lon="14.2109239"><ele>4.0</ele><time>2026-05-01T07:57:00.831Z</time></trkpt><trkpt lat="42.4619289" lon="14.2107526"><ele>4.0</ele><time>2026-05-01T07:57:01.831Z</time></trkpt><trkpt lat="42.4618772" lon="14.2105921"><ele>4.0</ele><time>2026-05-01T07:57:02.831Z</time></trkpt><trkpt lat="42.4618432" lon="14.210439"><ele>4.0</ele><time>2026-05-01T07:57:03.83Z</time></trkpt><trkpt lat="42.4618096" lon="14.2102713"><ele>4.0</ele><time>2026-05-01T07:57:04.831Z</time></trkpt><trkpt lat="42.4617913" lon="14.2101153"><ele>4.0</ele><time>2026-05-01T07:57:05.831Z</time></trkpt><trkpt lat="42.4617824" lon="14.2099834"><ele>4.0</ele><time>2026-05-01T07:57:06.831Z</time></trkpt><trkpt lat="42.461776" lon="14.2098555"><ele>4.0</ele><time>2026-05-01T07:57:07.831Z</time></trkpt><trkpt lat="42.4617799" lon="14.2097271"><ele>4.2</ele><time>2026-05-01T07:57:08.831Z</time></trkpt><trkpt lat="42.4618201" lon="14.209597"><ele>4.4</ele><time>2026-05-01T07:57:09.831Z</time></trkpt><trkpt lat="42.4618878" lon="14.2094742"><ele>4.6</ele><time>2026-05-01T07:57:10.831Z</time></trkpt><trkpt lat="42.4619515" lon="14.2093672"><ele>4.8</ele><time>2026-05-01T07:57:11.83Z</time></trkpt><trkpt lat="42.46201" lon="14.2092543"><ele>5.0</ele><time>2026-05-01T07:57:12.831Z</time></trkpt><trkpt lat="42.4620528" lon="14.2091244"><ele>5.0</ele><time>2026-05-01T07:57:13.831Z</time></trkpt><trkpt lat="42.462079" lon="14.2089966"><ele>5.0</ele><time>2026-05-01T07:57:14.831Z</time></trkpt><trkpt lat="42.4621013" lon="14.208894"><ele>5.0</ele><time>2026-05-01T07:57:15.831Z</time></trkpt><trkpt lat="42.4621251" lon="14.2088122"><ele>5.0</ele><time>2026-05-01T07:57:16.831Z</time></trkpt><trkpt lat="42.4621665" lon="14.2087329"><ele>5.0</ele><time>2026-05-01T07:57:18.831Z</time></trkpt><trkpt lat="42.4621996" lon="14.2086357"><ele>5.0</ele><time>2026-05-01T07:57:21.831Z</time></trkpt><trkpt lat="42.462268" lon="14.2085267"><ele>5.0</ele><time>2026-05-01T07:57:23.831Z</time></trkpt><trkpt lat="42.462313" lon="14.2083837"><ele>5.0</ele><time>2026-05-01T07:57:25.831Z</time></trkpt><trkpt lat="42.4622859" lon="14.2082518"><ele>5.0</ele><time>2026-05-01T07:57:27.83Z</time></trkpt><trkpt lat="42.4621836" lon="14.2081908"><ele>5.0</ele><time>2026-05-01T07:57:29.831Z</time></trkpt><trkpt lat="42.4621118" lon="14.2081942"><ele>5.0</ele><time>2026-05-01T07:57:30.831Z</time></trkpt><trkpt lat="42.4620279" lon="14.2081984"><ele>5.0</ele><time>2026-05-01T07:57:31.831Z</time></trkpt><trkpt lat="42.4619422" lon="14.2081864"><ele>5.0</ele><time>2026-05-01T07:57:32.831Z</time></trkpt><trkpt lat="42.4618557" lon="14.2081643"><ele>5.0</ele><time>2026-05-01T07:57:33.83Z</time></trkpt><trkpt lat="42.4617748" lon="14.2081411"><ele>5.0</ele><time>2026-05-01T07:57:34.831Z</time></trkpt><trkpt lat="42.4616956" lon="14.2081222"><ele>5.0</ele><time>2026-05-01T07:57:35.831Z</time></trkpt><trkpt lat="42.4616269" lon="14.2081032"><ele>5.0</ele><time>2026-05-01T07:57:36.831Z</time></trkpt><trkpt lat="42.4615632" lon="14.2080865"><ele>5.0</ele><time>2026-05-01T07:57:37.831Z</time></trkpt><trkpt lat="42.4614581" lon="14.2080578"><ele>5.0</ele><time>2026-05-01T07:57:39.831Z</time></trkpt><trkpt lat="42.4613564" lon="14.2080243"><ele>5.0</ele><time>2026-05-01T07:57:41.831Z</time></trkpt><trkpt lat="42.4612723" lon="14.2079944"><ele>5.0</ele><time>2026-05-01T07:57:43.83Z</time></trkpt><trkpt lat="42.4612059" lon="14.2079599"><ele>5.0</ele><time>2026-05-01T07:57:47.831Z</time></trkpt><trkpt lat="42.4611482" lon="14.2079213"><ele>5.0</ele><time>2026-05-01T07:57:49.831Z</time></trkpt><trkpt lat="42.4610685" lon="14.2078328"><ele>5.166666666666667</ele><time>2026-05-01T07:57:51.83Z</time></trkpt><trkpt lat="42.4609728" lon="14.2077384"><ele>5.333333333333334</ele><time>2026-05-01T07:57:53.831Z</time></trkpt><trkpt lat="42.4608673" lon="14.2077203"><ele>5.5</ele><time>2026-05-01T07:57:55.831Z</time></trkpt><trkpt lat="42.4608061" lon="14.2077694"><ele>5.666666666666667</ele><time>2026-05-01T07:57:56.83Z</time></trkpt><trkpt lat="42.4607619" lon="14.2078538"><ele>5.833333333333333</ele><time>2026-05-01T07:57:57.831Z</time></trkpt><trkpt lat="42.4607448" lon="14.207946"><ele>6.0</ele><time>2026-05-01T07:57:58.831Z</time></trkpt><trkpt lat="42.4607456" lon="14.2080546"><ele>6.0</ele><time>2026-05-01T07:57:59.831Z</time></trkpt><trkpt lat="42.4607711" lon="14.2081517"><ele>6.0</ele><time>2026-05-01T07:58:00.831Z</time></trkpt><trkpt lat="42.4607833" lon="14.2083255"><ele>6.0</ele><time>2026-05-01T07:58:02.831Z</time></trkpt><trkpt lat="42.4607728" lon="14.2084159"><ele>6.0</ele><time>2026-05-01T07:58:03.831Z</time></trkpt><trkpt lat="42.4607334" lon="14.2085544"><ele>6.0</ele><time>2026-05-01T07:58:05.83Z</time></trkpt><trkpt lat="42.4606909" lon="14.20864"><ele>6.0</ele><time>2026-05-01T07:58:07.831Z</time></trkpt><trkpt lat="42.4606386" lon="14.2087097"><ele>6.0</ele><time>2026-05-01T07:58:10.831Z</time></trkpt><trkpt lat="42.4605473" lon="14.2087657"><ele>6.0</ele><time>2026-05-01T07:58:12.831Z</time></trkpt><trkpt lat="42.4604834" lon="14.2087775"><ele>6.0</ele><time>2026-05-01T07:58:13.831Z</time></trkpt><trkpt lat="42.4604154" lon="14.2088137"><ele>6.0</ele><time>2026-05-01T07:58:14.83Z</time></trkpt><trkpt lat="42.4603325" lon="14.2088651"><ele>6.0</ele><time>2026-05-01T07:58:15.831Z</time></trkpt><trkpt lat="42.4602506" lon="14.2089071"><ele>5.666666666666667</ele><time>2026-05-01T07:58:16.831Z</time></trkpt><trkpt lat="42.4601768" lon="14.2089573"><ele>5.333333333333333</ele><time>2026-05-01T07:58:17.831Z</time></trkpt><trkpt lat="42.4600966" lon="14.209008"><ele>5.0</ele><time>2026-05-01T07:58:18.83Z</time></trkpt><trkpt lat="42.46002" lon="14.2090543"><ele>4.666666666666666</ele><time>2026-05-01T07:58:19.83Z</time></trkpt><trkpt lat="42.459938" lon="14.2091051"><ele>4.333333333333333</ele><time>2026-05-01T07:58:20.831Z</time></trkpt><trkpt lat="42.4598624" lon="14.209161"><ele>4.0</ele><time>2026-05-01T07:58:21.831Z</time></trkpt><trkpt lat="42.4597852" lon="14.2092038"><ele>3.833333333333333</ele><time>2026-05-01T07:58:22.83Z</time></trkpt><trkpt lat="42.4597181" lon="14.209241"><ele>3.6666666666666665</ele><time>2026-05-01T07:58:23.831Z</time></trkpt><trkpt lat="42.459657" lon="14.2092815"><ele>3.5</ele><time>2026-05-01T07:58:24.831Z</time></trkpt><trkpt lat="42.459596" lon="14.2093247"><ele>3.333333333333333</ele><time>2026-05-01T07:58:25.831Z</time></trkpt><trkpt lat="42.4595349" lon="14.2093749"><ele>3.1666666666666665</ele><time>2026-05-01T07:58:26.831Z</time></trkpt><trkpt lat="42.4594578" lon="14.2094258"><ele>3.0</ele><time>2026-05-01T07:58:27.831Z</time></trkpt><trkpt lat="42.4593594" lon="14.2094941"><ele>3.5</ele><time>2026-05-01T07:58:28.83Z</time></trkpt><trkpt lat="42.4592543" lon="14.2095813"><ele>4.0</ele><time>2026-05-01T07:58:29.83Z</time></trkpt><trkpt lat="42.4591335" lon="14.2096549"><ele>4.5</ele><time>2026-05-01T07:58:30.83Z</time></trkpt><trkpt lat="42.4589971" lon="14.2097296"><ele>5.0</ele><time>2026-05-01T07:58:31.83Z</time></trkpt><trkpt lat="42.4588691" lon="14.2098128"><ele>5.2</ele><time>2026-05-01T07:58:32.83Z</time></trkpt><trkpt lat="42.4587564" lon="14.2098858"><ele>5.4</ele><time>2026-05-01T07:58:33.829Z</time></trkpt><trkpt lat="42.4586598" lon="14.2099488"><ele>5.6</ele><time>2026-05-01T07:58:34.829Z</time></trkpt><trkpt lat="42.458574" lon="14.2100068"><ele>5.8</ele><time>2026-05-01T07:58:35.83Z</time></trkpt><trkpt lat="42.458499" lon="14.2100634"><ele>6.0</ele><time>2026-05-01T07:58:36.83Z</time></trkpt><trkpt lat="42.458432" lon="14.2101189"><ele>6.0</ele><time>2026-05-01T07:58:37.83Z</time></trkpt><trkpt lat="42.4583762" lon="14.2101652"><ele>6.0</ele><time>2026-05-01T07:58:38.83Z</time></trkpt><trkpt lat="42.4583251" lon="14.2102152"><ele>6.0</ele><time>2026-05-01T07:58:40.829Z</time></trkpt><trkpt lat="42.4582802" lon="14.2103069"><ele>6.0</ele><time>2026-05-01T07:58:44.83Z</time></trkpt><trkpt lat="42.4582631" lon="14.2104539"><ele>6.0</ele><time>2026-05-01T07:58:46.83Z</time></trkpt><trkpt lat="42.4582835" lon="14.2105438"><ele>6.0</ele><time>2026-05-01T07:58:47.83Z</time></trkpt><trkpt lat="42.4583369" lon="14.2106054"><ele>6.166666666666667</ele><time>2026-05-01T07:58:48.83Z</time></trkpt><trkpt lat="42.4583904" lon="14.2106703"><ele>6.333333333333334</ele><time>2026-05-01T07:58:49.829Z</time></trkpt><trkpt lat="42.4584377" lon="14.210747"><ele>6.5</ele><time>2026-05-01T07:58:50.83Z</time></trkpt><trkpt lat="42.4585131" lon="14.2108528"><ele>6.666666666666667</ele><time>2026-05-01T07:58:52.83Z</time></trkpt><trkpt lat="42.4585482" lon="14.2109635"><ele>6.833333333333334</ele><time>2026-05-01T07:58:54.83Z</time></trkpt><trkpt lat="42.4585278" lon="14.2110802"><ele>7.0</ele><time>2026-05-01T07:58:56.83Z</time></trkpt><trkpt lat="42.4584715" lon="14.2111343"><ele>7.0</ele><time>2026-05-01T07:58:57.83Z</time></trkpt><trkpt lat="42.4583904" lon="14.2111914"><ele>7.0</ele><time>2026-05-01T07:58:58.83Z</time></trkpt><trkpt lat="42.4582848" lon="14.2112452"><ele>7.0</ele><time>2026-05-01T07:58:59.83Z</time></trkpt><trkpt lat="42.4581689" lon="14.2113214"><ele>7.0</ele><time>2026-05-01T07:59:00.83Z</time></trkpt><trkpt lat="42.4580421" lon="14.2114112"><ele>6.0</ele><time>2026-05-01T07:59:01.83Z</time></trkpt><trkpt lat="42.4578972" lon="14.2115012"><ele>5.0</ele><time>2026-05-01T07:59:02.83Z</time></trkpt><trkpt lat="42.4577382" lon="14.2116021"><ele>4.0</ele><time>2026-05-01T07:59:03.829Z</time></trkpt><trkpt lat="42.4575705" lon="14.2117104"><ele>4.0</ele><time>2026-05-01T07:59:04.829Z</time></trkpt><trkpt lat="42.4573951" lon="14.2118211"><ele>4.0</ele><time>2026-05-01T07:59:05.83Z</time></trkpt><trkpt lat="42.4572156" lon="14.2119335"><ele>4.0</ele><time>2026-05-01T07:59:06.83Z</time></trkpt><trkpt lat="42.4570289" lon="14.2120375"><ele>3.333333333333333</ele><time>2026-05-01T07:59:07.83Z</time></trkpt><trkpt lat="42.4568333" lon="14.2121318"><ele>2.6666666666666665</ele><time>2026-05-01T07:59:08.83Z</time></trkpt><trkpt lat="42.456638" lon="14.2122282"><ele>2.0</ele><time>2026-05-01T07:59:09.83Z</time></trkpt><trkpt lat="42.4564526" lon="14.2123145"><ele>2.333333333333333</ele><time>2026-05-01T07:59:10.83Z</time></trkpt><trkpt lat="42.4562822" lon="14.2123994"><ele>2.6666666666666665</ele><time>2026-05-01T07:59:11.83Z</time></trkpt><trkpt lat="42.4561109" lon="14.2124721"><ele>3.0</ele><time>2026-05-01T07:59:12.83Z</time></trkpt><trkpt lat="42.4559464" lon="14.2125217"><ele>3.0</ele><time>2026-05-01T07:59:13.83Z</time></trkpt><trkpt lat="42.4557995" lon="14.2125481"><ele>3.0</ele><time>2026-05-01T07:59:14.83Z</time></trkpt><trkpt lat="42.4556796" lon="14.2125623"><ele>3.0</ele><time>2026-05-01T07:59:15.829Z</time></trkpt><trkpt lat="42.4555734" lon="14.2125585"><ele>3.0</ele><time>2026-05-01T07:59:16.83Z</time></trkpt><trkpt lat="42.4554717" lon="14.2125538"><ele>3.0</ele><time>2026-05-01T07:59:17.83Z</time></trkpt><trkpt lat="42.4553612" lon="14.212557"><ele>3.0</ele><time>2026-05-01T07:59:18.829Z</time></trkpt><trkpt lat="42.4552373" lon="14.2125631"><ele>3.0</ele><time>2026-05-01T07:59:19.83Z</time></trkpt><trkpt lat="42.4551053" lon="14.2125675"><ele>3.0</ele><time>2026-05-01T07:59:20.83Z</time></trkpt><trkpt lat="42.4549801" lon="14.2125756"><ele>3.0</ele><time>2026-05-01T07:59:21.83Z</time></trkpt><trkpt lat="42.4548627" lon="14.2125957"><ele>3.0</ele><time>2026-05-01T07:59:22.83Z</time></trkpt><trkpt lat="42.4547706" lon="14.2126321"><ele>3.0</ele><time>2026-05-01T07:59:23.83Z</time></trkpt><trkpt lat="42.454711" lon="14.2127025"><ele>3.0</ele><time>2026-05-01T07:59:24.83Z</time></trkpt><trkpt lat="42.4546742" lon="14.2128001"><ele>3.0</ele><time>2026-05-01T07:59:25.83Z</time></trkpt><trkpt lat="42.4546555" lon="14.2129412"><ele>3.0</ele><time>2026-05-01T07:59:26.829Z</time></trkpt><trkpt lat="42.4546157" lon="14.2130719"><ele>3.0</ele><time>2026-05-01T07:59:27.829Z</time></trkpt><trkpt lat="42.4545525" lon="14.2131817"><ele>3.0</ele><time>2026-05-01T07:59:28.83Z</time></trkpt><trkpt lat="42.454451" lon="14.2132464"><ele>3.0</ele><time>2026-05-01T07:59:29.83Z</time></trkpt><trkpt lat="42.4543402" lon="14.213293"><ele>3.0</ele><time>2026-05-01T07:59:30.83Z</time></trkpt><trkpt lat="42.4542224" lon="14.2133394"><ele>3.0</ele><time>2026-05-01T07:59:31.83Z</time></trkpt><trkpt lat="42.4541044" lon="14.2134058"><ele>3.0</ele><time>2026-05-01T07:59:32.83Z</time></trkpt><trkpt lat="42.4539804" lon="14.2134691"><ele>3.0</ele><time>2026-05-01T07:59:33.83Z</time></trkpt><trkpt lat="42.4538544" lon="14.2135276"><ele>3.0</ele><time>2026-05-01T07:59:34.83Z</time></trkpt><trkpt lat="42.4537206" lon="14.2135925"><ele>2.6666666666666665</ele><time>2026-05-01T07:59:35.83Z</time></trkpt><trkpt lat="42.4535804" lon="14.2136552"><ele>2.333333333333333</ele><time>2026-05-01T07:59:36.83Z</time></trkpt><trkpt lat="42.4534353" lon="14.213726"><ele>2.0</ele><time>2026-05-01T07:59:37.83Z</time></trkpt><trkpt lat="42.4532957" lon="14.2138002"><ele>2.0</ele><time>2026-05-01T07:59:38.829Z</time></trkpt><trkpt lat="42.4531495" lon="14.2138684"><ele>2.0</ele><time>2026-05-01T07:59:39.829Z</time></trkpt><trkpt lat="42.453005" lon="14.2139295"><ele>2.0</ele><time>2026-05-01T07:59:40.83Z</time></trkpt><trkpt lat="42.4528775" lon="14.2139935"><ele>2.0</ele><time>2026-05-01T07:59:41.83Z</time></trkpt><trkpt lat="42.4527528" lon="14.2140553"><ele>1.5</ele><time>2026-05-01T07:59:42.83Z</time></trkpt><trkpt lat="42.4526377" lon="14.2141128"><ele>1.0</ele><time>2026-05-01T07:59:43.829Z</time></trkpt><trkpt lat="42.4525235" lon="14.2141653"><ele>0.5</ele><time>2026-05-01T07:59:44.83Z</time></trkpt><trkpt lat="42.4524134" lon="14.2142128"><ele>0.0</ele><time>2026-05-01T07:59:45.83Z</time></trkpt><trkpt lat="42.4523063" lon="14.2142632"><ele>0.0</ele><time>2026-05-01T07:59:46.83Z</time></trkpt><trkpt lat="42.4522029" lon="14.2143141"><ele>0.0</ele><time>2026-05-01T07:59:47.83Z</time></trkpt><trkpt lat="42.4521018" lon="14.2143791"><ele>0.0</ele><time>2026-05-01T07:59:48.83Z</time></trkpt><trkpt lat="42.4520068" lon="14.2144606"><ele>0.0</ele><time>2026-05-01T07:59:49.83Z</time></trkpt><trkpt lat="42.451917" lon="14.2145546"><ele>0.0</ele><time>2026-05-01T07:59:50.83Z</time></trkpt><trkpt lat="42.4518306" lon="14.2146561"><ele>0.2</ele><time>2026-05-01T07:59:51.83Z</time></trkpt><trkpt lat="42.451753" lon="14.2147713"><ele>0.4</ele><time>2026-05-01T07:59:52.83Z</time></trkpt><trkpt lat="42.451683" lon="14.2148876"><ele>0.6000000000000001</ele><time>2026-05-01T07:59:53.83Z</time></trkpt><trkpt lat="42.4516176" lon="14.2150057"><ele>0.8</ele><time>2026-05-01T07:59:54.83Z</time></trkpt><trkpt lat="42.4515537" lon="14.2151295"><ele>1.0</ele><time>2026-05-01T07:59:55.83Z</time></trkpt><trkpt lat="42.4514881" lon="14.2152521"><ele>1.0</ele><time>2026-05-01T07:59:56.83Z</time></trkpt><trkpt lat="42.4514267" lon="14.2153743"><ele>1.0</ele><time>2026-05-01T07:59:57.83Z</time></trkpt><trkpt lat="42.4513614" lon="14.2154919"><ele>1.0</ele><time>2026-05-01T07:59:58.83Z</time></trkpt><trkpt lat="42.4512958" lon="14.2156121"><ele>1.0</ele><time>2026-05-01T07:59:59.83Z</time></trkpt><trkpt lat="42.4512326" lon="14.2157312"><ele>1.0</ele><time>2026-05-01T08:00:00.83Z</time></trkpt><trkpt lat="42.4511713" lon="14.2158426"><ele>1.4</ele><time>2026-05-01T08:00:01.83Z</time></trkpt><trkpt lat="42.4511089" lon="14.2159529"><ele>1.8</ele><time>2026-05-01T08:00:02.83Z</time></trkpt><trkpt lat="42.4510464" lon="14.2160584"><ele>2.1999999999999997</ele><time>2026-05-01T08:00:03.829Z</time></trkpt><trkpt lat="42.4509863" lon="14.2161656"><ele>2.6</ele><time>2026-05-01T08:00:04.83Z</time></trkpt><trkpt lat="42.4509249" lon="14.2162717"><ele>3.0</ele><time>2026-05-01T08:00:05.83Z</time></trkpt><trkpt lat="42.4508666" lon="14.2163771"><ele>3.0</ele><time>2026-05-01T08:00:06.83Z</time></trkpt><trkpt lat="42.4508086" lon="14.2164798"><ele>3.0</ele><time>2026-05-01T08:00:07.83Z</time></trkpt><trkpt lat="42.4507513" lon="14.2165836"><ele>3.0</ele><time>2026-05-01T08:00:08.83Z</time></trkpt><trkpt lat="42.4507011" lon="14.2166823"><ele>3.0</ele><time>2026-05-01T08:00:09.83Z</time></trkpt><trkpt lat="42.4506525" lon="14.2167768"><ele>3.0</ele><time>2026-05-01T08:00:10.829Z</time></trkpt><trkpt lat="42.45057" lon="14.2168809"><ele>3.25</ele><time>2026-05-01T08:00:12.829Z</time></trkpt><trkpt lat="42.4504798" lon="14.2168976"><ele>3.5</ele><time>2026-05-01T08:00:14.83Z</time></trkpt><trkpt lat="42.4503419" lon="14.2167745"><ele>3.75</ele><time>2026-05-01T08:00:16.83Z</time></trkpt><trkpt lat="42.450267" lon="14.2166607"><ele>4.0</ele><time>2026-05-01T08:00:17.83Z</time></trkpt><trkpt lat="42.450189" lon="14.2165389"><ele>4.0</ele><time>2026-05-01T08:00:18.83Z</time></trkpt><trkpt lat="42.450114" lon="14.2164169"><ele>4.0</ele><time>2026-05-01T08:00:19.83Z</time></trkpt><trkpt lat="42.4500335" lon="14.216295"><ele>4.0</ele><time>2026-05-01T08:00:20.829Z</time></trkpt><trkpt lat="42.4499495" lon="14.2161747"><ele>4.0</ele><time>2026-05-01T08:00:21.83Z</time></trkpt><trkpt lat="42.4498671" lon="14.2160559"><ele>4.0</ele><time>2026-05-01T08:00:22.83Z</time></trkpt><trkpt lat="42.4497852" lon="14.2159364"><ele>4.0</ele><time>2026-05-01T08:00:23.83Z</time></trkpt><trkpt lat="42.4497078" lon="14.2158272"><ele>4.0</ele><time>2026-05-01T08:00:24.83Z</time></trkpt><trkpt lat="42.449647" lon="14.2157203"><ele>4.0</ele><time>2026-05-01T08:00:25.83Z</time></trkpt><trkpt lat="42.4495998" lon="14.2156259"><ele>4.0</ele><time>2026-05-01T08:00:26.83Z</time></trkpt><trkpt lat="42.4495585" lon="14.2155414"><ele>3.9999999999999996</ele><time>2026-05-01T08:00:27.83Z</time></trkpt><trkpt lat="42.4495152" lon="14.2154667"><ele>4.0</ele><time>2026-05-01T08:00:28.83Z</time></trkpt><trkpt lat="42.449402" lon="14.2154428"><ele>4.0</ele><time>2026-05-01T08:00:30.829Z</time></trkpt><trkpt lat="42.4493412" lon="14.2154966"><ele>4.0</ele><time>2026-05-01T08:00:31.83Z</time></trkpt><trkpt lat="42.4492753" lon="14.2155587"><ele>3.9999999999999996</ele><time>2026-05-01T08:00:32.83Z</time></trkpt><trkpt lat="42.4492039" lon="14.2156167"><ele>4.0</ele><time>2026-05-01T08:00:33.83Z</time></trkpt><trkpt lat="42.4491267" lon="14.2156644"><ele>4.0</ele><time>2026-05-01T08:00:34.83Z</time></trkpt><trkpt lat="42.4490475" lon="14.2157159"><ele>4.0</ele><time>2026-05-01T08:00:35.83Z</time></trkpt><trkpt lat="42.4489612" lon="14.2157693"><ele>4.0</ele><time>2026-05-01T08:00:36.829Z</time></trkpt><trkpt lat="42.4488666" lon="14.2158165"><ele>4.0</ele><time>2026-05-01T08:00:37.83Z</time></trkpt><trkpt lat="42.4487751" lon="14.2158726"><ele>4.0</ele><time>2026-05-01T08:00:38.83Z</time></trkpt><trkpt lat="42.4486884" lon="14.2159285"><ele>4.6</ele><time>2026-05-01T08:00:39.83Z</time></trkpt><trkpt lat="42.4485966" lon="14.215976"><ele>5.2</ele><time>2026-05-01T08:00:40.83Z</time></trkpt><trkpt lat="42.4485073" lon="14.2160329"><ele>5.799999999999999</ele><time>2026-05-01T08:00:41.83Z</time></trkpt><trkpt lat="42.4484162" lon="14.2160906"><ele>6.3999999999999995</ele><time>2026-05-01T08:00:42.83Z</time></trkpt><trkpt lat="42.4483276" lon="14.2161418"><ele>7.0</ele><time>2026-05-01T08:00:43.83Z</time></trkpt><trkpt lat="42.4482338" lon="14.2161971"><ele>7.0</ele><time>2026-05-01T08:00:44.83Z</time></trkpt><trkpt lat="42.4481321" lon="14.2162616"><ele>6.999999999999999</ele><time>2026-05-01T08:00:45.83Z</time></trkpt><trkpt lat="42.4480338" lon="14.2163161"><ele>6.999999999999999</ele><time>2026-05-01T08:00:46.829Z</time></trkpt><trkpt lat="42.4479344" lon="14.2163681"><ele>7.0</ele><time>2026-05-01T08:00:47.83Z</time></trkpt><trkpt lat="42.4478311" lon="14.2164221"><ele>7.0</ele><time>2026-05-01T08:00:48.83Z</time></trkpt><trkpt lat="42.4477221" lon="14.2164799"><ele>7.0</ele><time>2026-05-01T08:00:49.83Z</time></trkpt><trkpt lat="42.4476156" lon="14.216534"><ele>7.0</ele><time>2026-05-01T08:00:50.83Z</time></trkpt><trkpt lat="42.4475114" lon="14.216597"><ele>7.0</ele><time>2026-05-01T08:00:51.83Z</time></trkpt><trkpt lat="42.447403" lon="14.2166616"><ele>7.0</ele><time>2026-05-01T08:00:52.83Z</time></trkpt><trkpt lat="42.4472989" lon="14.2167331"><ele>7.0</ele><time>2026-05-01T08:00:53.83Z</time></trkpt><trkpt lat="42.4471913" lon="14.2168017"><ele>6.999999999999999</ele><time>2026-05-01T08:00:54.83Z</time></trkpt><trkpt lat="42.4470885" lon="14.2168634"><ele>6.999999999999999</ele><time>2026-05-01T08:00:55.83Z</time></trkpt><trkpt lat="42.4469906" lon="14.2169213"><ele>7.0</ele><time>2026-05-01T08:00:56.83Z</time></trkpt><trkpt lat="42.4469008" lon="14.2169778"><ele>7.0</ele><time>2026-05-01T08:00:57.83Z</time></trkpt><trkpt lat="42.4468121" lon="14.2170216"><ele>7.166666666666667</ele><time>2026-05-01T08:00:58.83Z</time></trkpt><trkpt lat="42.4467318" lon="14.2170604"><ele>7.333333333333334</ele><time>2026-05-01T08:00:59.83Z</time></trkpt><trkpt lat="42.4466619" lon="14.217092"><ele>7.5</ele><time>2026-05-01T08:01:00.83Z</time></trkpt><trkpt lat="42.4466033" lon="14.217125"><ele>7.666666666666666</ele><time>2026-05-01T08:01:01.83Z</time></trkpt><trkpt lat="42.4465083" lon="14.2171934"><ele>7.833333333333333</ele><time>2026-05-01T08:01:03.83Z</time></trkpt><trkpt lat="42.4464511" lon="14.2172473"><ele>8.0</ele><time>2026-05-01T08:01:05.83Z</time></trkpt><trkpt lat="42.4463822" lon="14.2172854"><ele>7.833333333333333</ele><time>2026-05-01T08:01:26.829Z</time></trkpt><trkpt lat="42.4463256" lon="14.217326"><ele>7.666666666666666</ele><time>2026-05-01T08:01:28.83Z</time></trkpt><trkpt lat="42.4462478" lon="14.2173791"><ele>7.5</ele><time>2026-05-01T08:01:31.83Z</time></trkpt><trkpt lat="42.446186" lon="14.2173621"><ele>7.333333333333334</ele><time>2026-05-01T08:01:33.829Z</time></trkpt><trkpt lat="42.4461059" lon="14.2172624"><ele>7.166666666666667</ele><time>2026-05-01T08:01:35.83Z</time></trkpt><trkpt lat="42.4460529" lon="14.217184"><ele>7.0</ele><time>2026-05-01T08:01:36.829Z</time></trkpt><trkpt lat="42.4459692" lon="14.2170883"><ele>6.25</ele><time>2026-05-01T08:01:37.83Z</time></trkpt><trkpt lat="42.4458748" lon="14.2169654"><ele>5.5</ele><time>2026-05-01T08:01:38.83Z</time></trkpt><trkpt lat="42.4457559" lon="14.2168388"><ele>4.75</ele><time>2026-05-01T08:01:39.83Z</time></trkpt><trkpt lat="42.4456283" lon="14.2167153"><ele>4.0</ele><time>2026-05-01T08:01:40.83Z</time></trkpt><trkpt lat="42.4455005" lon="14.2166078"><ele>4.5</ele><time>2026-05-01T08:01:41.83Z</time></trkpt><trkpt lat="42.4453796" lon="14.2164989"><ele>5.0</ele><time>2026-05-01T08:01:42.83Z</time></trkpt><trkpt lat="42.4452585" lon="14.2163839"><ele>5.5</ele><time>2026-05-01T08:01:43.83Z</time></trkpt><trkpt lat="42.4451389" lon="14.2162539"><ele>6.0</ele><time>2026-05-01T08:01:44.83Z</time></trkpt><trkpt lat="42.4450068" lon="14.2161363"><ele>6.0</ele><time>2026-05-01T08:01:45.83Z</time></trkpt><trkpt lat="42.4448805" lon="14.2160115"><ele>6.0</ele><time>2026-05-01T08:01:46.83Z</time></trkpt><trkpt lat="42.4447595" lon="14.2158942"><ele>6.0</ele><time>2026-05-01T08:01:47.83Z</time></trkpt><trkpt lat="42.4446557" lon="14.2157799"><ele>6.0</ele><time>2026-05-01T08:01:48.83Z</time></trkpt><trkpt lat="42.4445626" lon="14.2156824"><ele>6.0</ele><time>2026-05-01T08:01:49.83Z</time></trkpt><trkpt lat="42.4444604" lon="14.215581"><ele>6.0</ele><time>2026-05-01T08:01:50.83Z</time></trkpt><trkpt lat="42.4443533" lon="14.215478"><ele>6.0</ele><time>2026-05-01T08:01:51.83Z</time></trkpt><trkpt lat="42.4442365" lon="14.2153707"><ele>6.0</ele><time>2026-05-01T08:01:52.83Z</time></trkpt><trkpt lat="42.4441202" lon="14.2152583"><ele>6.0</ele><time>2026-05-01T08:01:53.83Z</time></trkpt><trkpt lat="42.4440064" lon="14.2151516"><ele>6.0</ele><time>2026-05-01T08:01:54.83Z</time></trkpt><trkpt lat="42.4439043" lon="14.2150532"><ele>6.0</ele><time>2026-05-01T08:01:55.83Z</time></trkpt><trkpt lat="42.4438071" lon="14.2149614"><ele>6.0</ele><time>2026-05-01T08:01:56.83Z</time></trkpt><trkpt lat="42.4437139" lon="14.2148774"><ele>6.25</ele><time>2026-05-01T08:01:57.83Z</time></trkpt><trkpt lat="42.4436179" lon="14.2147909"><ele>6.5</ele><time>2026-05-01T08:01:58.83Z</time></trkpt><trkpt lat="42.4435207" lon="14.2146977"><ele>6.75</ele><time>2026-05-01T08:01:59.83Z</time></trkpt><trkpt lat="42.4434223" lon="14.2145887"><ele>7.0</ele><time>2026-05-01T08:02:00.83Z</time></trkpt><trkpt lat="42.4433235" lon="14.2144625"><ele>7.0</ele><time>2026-05-01T08:02:01.83Z</time></trkpt><trkpt lat="42.443254" lon="14.2143408"><ele>6.999999999999999</ele><time>2026-05-01T08:02:02.83Z</time></trkpt><trkpt lat="42.4432047" lon="14.2142606"><ele>6.999999999999999</ele><time>2026-05-01T08:02:03.83Z</time></trkpt><trkpt lat="42.4431564" lon="14.2141621"><ele>7.0</ele><time>2026-05-01T08:02:05.83Z</time></trkpt><trkpt lat="42.4431119" lon="14.2140448"><ele>7.0</ele><time>2026-05-01T08:02:07.83Z</time></trkpt><trkpt lat="42.4430654" lon="14.213961"><ele>7.5</ele><time>2026-05-01T08:02:08.83Z</time></trkpt><trkpt lat="42.4429794" lon="14.2139212"><ele>8.0</ele><time>2026-05-01T08:02:09.83Z</time></trkpt><trkpt lat="42.4428708" lon="14.2138956"><ele>8.5</ele><time>2026-05-01T08:02:10.83Z</time></trkpt><trkpt lat="42.4427465" lon="14.2138923"><ele>9.0</ele><time>2026-05-01T08:02:11.83Z</time></trkpt><trkpt lat="42.4426124" lon="14.2138827"><ele>9.0</ele><time>2026-05-01T08:02:12.83Z</time></trkpt><trkpt lat="42.4424772" lon="14.213874"><ele>9.0</ele><time>2026-05-01T08:02:13.83Z</time></trkpt><trkpt lat="42.4423399" lon="14.2138648"><ele>9.0</ele><time>2026-05-01T08:02:14.83Z</time></trkpt><trkpt lat="42.4422008" lon="14.2138597"><ele>9.0</ele><time>2026-05-01T08:02:15.83Z</time></trkpt><trkpt lat="42.4420544" lon="14.2138528"><ele>8.666666666666666</ele><time>2026-05-01T08:02:16.829Z</time></trkpt><trkpt lat="42.4419087" lon="14.2138511"><ele>8.333333333333332</ele><time>2026-05-01T08:02:17.83Z</time></trkpt><trkpt lat="42.4417584" lon="14.21384"><ele>8.0</ele><time>2026-05-01T08:02:18.83Z</time></trkpt><trkpt lat="42.4416046" lon="14.21383"><ele>8.0</ele><time>2026-05-01T08:02:19.83Z</time></trkpt><trkpt lat="42.4414479" lon="14.2138208"><ele>8.0</ele><time>2026-05-01T08:02:20.83Z</time></trkpt><trkpt lat="42.4412846" lon="14.2138071"><ele>8.0</ele><time>2026-05-01T08:02:21.83Z</time></trkpt><trkpt lat="42.4411276" lon="14.2137828"><ele>12.0</ele><time>2026-05-01T08:02:22.83Z</time></trkpt><trkpt lat="42.4409669" lon="14.213755"><ele>16.0</ele><time>2026-05-01T08:02:23.83Z</time></trkpt><trkpt lat="42.4408029" lon="14.2137338"><ele>20.0</ele><time>2026-05-01T08:02:24.83Z</time></trkpt><trkpt lat="42.4406419" lon="14.2137265"><ele>20.0</ele><time>2026-05-01T08:02:25.83Z</time></trkpt><trkpt lat="42.4404843" lon="14.213738"><ele>20.0</ele><time>2026-05-01T08:02:26.83Z</time></trkpt><trkpt lat="42.4403306" lon="14.2137791"><ele>20.0</ele><time>2026-05-01T08:02:27.83Z</time></trkpt><trkpt lat="42.4401852" lon="14.2138574"><ele>20.333333333333336</ele><time>2026-05-01T08:02:28.83Z</time></trkpt><trkpt lat="42.4400483" lon="14.2139662"><ele>20.666666666666668</ele><time>2026-05-01T08:02:29.83Z</time></trkpt><trkpt lat="42.4399156" lon="14.2140834"><ele>21.0</ele><time>2026-05-01T08:02:30.829Z</time></trkpt><trkpt lat="42.4397794" lon="14.2141879"><ele>21.0</ele><time>2026-05-01T08:02:31.83Z</time></trkpt><trkpt lat="42.4396533" lon="14.2142547"><ele>21.0</ele><time>2026-05-01T08:02:32.83Z</time></trkpt><trkpt lat="42.4395206" lon="14.2143205"><ele>21.0</ele><time>2026-05-01T08:02:33.83Z</time></trkpt><trkpt lat="42.43939" lon="14.2144077"><ele>21.0</ele><time>2026-05-01T08:02:34.829Z</time></trkpt><trkpt lat="42.4392601" lon="14.2145041"><ele>23.25</ele><time>2026-05-01T08:02:35.83Z</time></trkpt><trkpt lat="42.4391285" lon="14.2145971"><ele>25.5</ele><time>2026-05-01T08:02:36.83Z</time></trkpt><trkpt lat="42.4390045" lon="14.2146922"><ele>27.75</ele><time>2026-05-01T08:02:37.83Z</time></trkpt><trkpt lat="42.4388771" lon="14.2147933"><ele>30.0</ele><time>2026-05-01T08:02:38.829Z</time></trkpt><trkpt lat="42.4387475" lon="14.2148858"><ele>34.333333333333336</ele><time>2026-05-01T08:02:39.83Z</time></trkpt><trkpt lat="42.4386053" lon="14.2149589"><ele>38.66666666666667</ele><time>2026-05-01T08:02:40.829Z</time></trkpt><trkpt lat="42.4384523" lon="14.2150112"><ele>43.0</ele><time>2026-05-01T08:02:41.83Z</time></trkpt><trkpt lat="42.4382966" lon="14.2150495"><ele>43.0</ele><time>2026-05-01T08:02:42.83Z</time></trkpt><trkpt lat="42.4381452" lon="14.2150801"><ele>43.0</ele><time>2026-05-01T08:02:43.83Z</time></trkpt><trkpt lat="42.4379837" lon="14.2150663"><ele>43.0</ele><time>2026-05-01T08:02:44.83Z</time></trkpt><trkpt lat="42.43782" lon="14.2150345"><ele>43.66666666666667</ele><time>2026-05-01T08:02:45.83Z</time></trkpt><trkpt lat="42.4376525" lon="14.2150127"><ele>44.333333333333336</ele><time>2026-05-01T08:02:46.83Z</time></trkpt><trkpt lat="42.4375015" lon="14.2150077"><ele>45.0</ele><time>2026-05-01T08:02:47.83Z</time></trkpt><trkpt lat="42.4373598" lon="14.2150156"><ele>45.0</ele><time>2026-05-01T08:02:48.83Z</time></trkpt><trkpt lat="42.4372327" lon="14.2150655"><ele>45.0</ele><time>2026-05-01T08:02:49.83Z</time></trkpt><trkpt lat="42.4371134" lon="14.2151372"><ele>45.0</ele><time>2026-05-01T08:02:50.83Z</time></trkpt><trkpt lat="42.4370055" lon="14.2152477"><ele>45.0</ele><time>2026-05-01T08:02:51.83Z</time></trkpt><trkpt lat="42.4369067" lon="14.2153865"><ele>44.0</ele><time>2026-05-01T08:02:52.83Z</time></trkpt><trkpt lat="42.4367982" lon="14.2155407"><ele>43.0</ele><time>2026-05-01T08:02:53.829Z</time></trkpt><trkpt lat="42.4366804" lon="14.215695"><ele>42.0</ele><time>2026-05-01T08:02:54.83Z</time></trkpt><trkpt lat="42.4365709" lon="14.2158523"><ele>44.5</ele><time>2026-05-01T08:02:55.83Z</time></trkpt><trkpt lat="42.4364686" lon="14.2160096"><ele>47.0</ele><time>2026-05-01T08:02:56.83Z</time></trkpt><trkpt lat="42.4363767" lon="14.2161629"><ele>49.5</ele><time>2026-05-01T08:02:57.829Z</time></trkpt><trkpt lat="42.4362863" lon="14.2162983"><ele>52.0</ele><time>2026-05-01T08:02:58.83Z</time></trkpt><trkpt lat="42.4361997" lon="14.2164093"><ele>52.400000000000006</ele><time>2026-05-01T08:02:59.83Z</time></trkpt><trkpt lat="42.4361235" lon="14.2165076"><ele>52.800000000000004</ele><time>2026-05-01T08:03:00.83Z</time></trkpt><trkpt lat="42.4360399" lon="14.2165987"><ele>53.2</ele><time>2026-05-01T08:03:01.83Z</time></trkpt><trkpt lat="42.4359563" lon="14.2166766"><ele>53.6</ele><time>2026-05-01T08:03:02.83Z</time></trkpt><trkpt lat="42.435879" lon="14.2167243"><ele>54.0</ele><time>2026-05-01T08:03:03.83Z</time></trkpt><trkpt lat="42.4358145" lon="14.2167663"><ele>54.0</ele><time>2026-05-01T08:03:04.83Z</time></trkpt><trkpt lat="42.4357516" lon="14.2167909"><ele>54.0</ele><time>2026-05-01T08:03:05.83Z</time></trkpt><trkpt lat="42.4356802" lon="14.216796"><ele>54.0</ele><time>2026-05-01T08:03:06.83Z</time></trkpt><trkpt lat="42.4355942" lon="14.2167732"><ele>54.0</ele><time>2026-05-01T08:03:07.829Z</time></trkpt><trkpt lat="42.4354974" lon="14.2167385"><ele>54.0</ele><time>2026-05-01T08:03:08.83Z</time></trkpt><trkpt lat="42.4353967" lon="14.2167129"><ele>54.0</ele><time>2026-05-01T08:03:09.83Z</time></trkpt><trkpt lat="42.4353085" lon="14.2166836"><ele>54.5</ele><time>2026-05-01T08:03:10.83Z</time></trkpt><trkpt lat="42.4352302" lon="14.2166388"><ele>55.0</ele><time>2026-05-01T08:03:11.83Z</time></trkpt><trkpt lat="42.4351525" lon="14.2165678"><ele>55.5</ele><time>2026-05-01T08:03:12.83Z</time></trkpt><trkpt lat="42.4350831" lon="14.2164916"><ele>56.0</ele><time>2026-05-01T08:03:13.83Z</time></trkpt><trkpt lat="42.4350162" lon="14.2164181"><ele>56.5</ele><time>2026-05-01T08:03:14.83Z</time></trkpt><trkpt lat="42.4349604" lon="14.2163409"><ele>57.0</ele><time>2026-05-01T08:03:15.83Z</time></trkpt><trkpt lat="42.4349144" lon="14.2162799"><ele>58.0</ele><time>2026-05-01T08:03:16.829Z</time></trkpt><trkpt lat="42.4348631" lon="14.2162224"><ele>59.0</ele><time>2026-05-01T08:03:17.83Z</time></trkpt><trkpt lat="42.4347923" lon="14.2161664"><ele>60.0</ele><time>2026-05-01T08:03:18.83Z</time></trkpt><trkpt lat="42.4347045" lon="14.2160995"><ele>61.0</ele><time>2026-05-01T08:03:19.83Z</time></trkpt><trkpt lat="42.4346168" lon="14.2160156"><ele>62.0</ele><time>2026-05-01T08:03:20.83Z</time></trkpt><trkpt lat="42.4345222" lon="14.2159202"><ele>62.0</ele><time>2026-05-01T08:03:21.83Z</time></trkpt><trkpt lat="42.434436" lon="14.2158231"><ele>62.0</ele><time>2026-05-01T08:03:22.83Z</time></trkpt><trkpt lat="42.434353" lon="14.2157352"><ele>62.0</ele><time>2026-05-01T08:03:23.83Z</time></trkpt><trkpt lat="42.4342694" lon="14.2156701"><ele>62.0</ele><time>2026-05-01T08:03:24.83Z</time></trkpt><trkpt lat="42.4341773" lon="14.2156181"><ele>62.0</ele><time>2026-05-01T08:03:25.83Z</time></trkpt><trkpt lat="42.4340715" lon="14.2155684"><ele>66.25</ele><time>2026-05-01T08:03:26.829Z</time></trkpt><trkpt lat="42.4339651" lon="14.2155379"><ele>70.5</ele><time>2026-05-01T08:03:27.83Z</time></trkpt><trkpt lat="42.4338571" lon="14.2155216"><ele>74.75</ele><time>2026-05-01T08:03:28.83Z</time></trkpt><trkpt lat="42.4337391" lon="14.2155111"><ele>79.0</ele><time>2026-05-01T08:03:29.83Z</time></trkpt><trkpt lat="42.4336086" lon="14.2155071"><ele>79.0</ele><time>2026-05-01T08:03:30.83Z</time></trkpt><trkpt lat="42.4334859" lon="14.2155008"><ele>79.0</ele><time>2026-05-01T08:03:31.829Z</time></trkpt><trkpt lat="42.4333738" lon="14.2154943"><ele>79.0</ele><time>2026-05-01T08:03:32.83Z</time></trkpt><trkpt lat="42.4332706" lon="14.2154857"><ele>79.0</ele><time>2026-05-01T08:03:33.83Z</time></trkpt><trkpt lat="42.4331894" lon="14.2154788"><ele>79.0</ele><time>2026-05-01T08:03:34.83Z</time></trkpt><trkpt lat="42.4331051" lon="14.215476"><ele>79.0</ele><time>2026-05-01T08:03:35.829Z</time></trkpt><trkpt lat="42.4330185" lon="14.2154581"><ele>79.0</ele><time>2026-05-01T08:03:36.83Z</time></trkpt><trkpt lat="42.4329316" lon="14.215438"><ele>79.0</ele><time>2026-05-01T08:03:37.83Z</time></trkpt><trkpt lat="42.4328488" lon="14.2154021"><ele>79.0</ele><time>2026-05-01T08:03:38.83Z</time></trkpt><trkpt lat="42.4327602" lon="14.2153533"><ele>79.0</ele><time>2026-05-01T08:03:39.83Z</time></trkpt><trkpt lat="42.4326622" lon="14.2153122"><ele>78.16666666666666</ele><time>2026-05-01T08:03:40.829Z</time></trkpt><trkpt lat="42.4325751" lon="14.2152823"><ele>77.33333333333333</ele><time>2026-05-01T08:03:41.83Z</time></trkpt><trkpt lat="42.432495" lon="14.215271"><ele>76.5</ele><time>2026-05-01T08:03:42.83Z</time></trkpt><trkpt lat="42.4324179" lon="14.2152815"><ele>75.66666666666667</ele><time>2026-05-01T08:03:43.83Z</time></trkpt><trkpt lat="42.4323334" lon="14.2153151"><ele>74.83333333333334</ele><time>2026-05-01T08:03:44.83Z</time></trkpt><trkpt lat="42.4322495" lon="14.2153521"><ele>74.0</ele><time>2026-05-01T08:03:45.83Z</time></trkpt><trkpt lat="42.4321766" lon="14.2153748"><ele>73.16666666666667</ele><time>2026-05-01T08:03:46.83Z</time></trkpt><trkpt lat="42.4321037" lon="14.2153994"><ele>72.33333333333334</ele><time>2026-05-01T08:03:47.83Z</time></trkpt><trkpt lat="42.4320089" lon="14.2153878"><ele>71.5</ele><time>2026-05-01T08:03:49.829Z</time></trkpt><trkpt lat="42.4319831" lon="14.2153044"><ele>70.66666666666667</ele><time>2026-05-01T08:03:51.83Z</time></trkpt><trkpt lat="42.4319008" lon="14.21522"><ele>69.83333333333333</ele><time>2026-05-01T08:03:53.83Z</time></trkpt><trkpt lat="42.4318324" lon="14.2151594"><ele>69.0</ele><time>2026-05-01T08:03:54.83Z</time></trkpt><trkpt lat="42.4317631" lon="14.2151095"><ele>69.0</ele><time>2026-05-01T08:03:55.83Z</time></trkpt><trkpt lat="42.4316851" lon="14.2150535"><ele>69.0</ele><time>2026-05-01T08:03:56.83Z</time></trkpt><trkpt lat="42.4315957" lon="14.2150023"><ele>69.0</ele><time>2026-05-01T08:03:57.83Z</time></trkpt><trkpt lat="42.4315004" lon="14.2149502"><ele>69.0</ele><time>2026-05-01T08:03:58.83Z</time></trkpt><trkpt lat="42.4313926" lon="14.2149013"><ele>69.0</ele><time>2026-05-01T08:03:59.83Z</time></trkpt><trkpt lat="42.4312916" lon="14.2148799"><ele>69.0</ele><time>2026-05-01T08:04:00.829Z</time></trkpt><trkpt lat="42.4311908" lon="14.2148638"><ele>69.0</ele><time>2026-05-01T08:04:01.829Z</time></trkpt><trkpt lat="42.4311102" lon="14.2148431"><ele>69.0</ele><time>2026-05-01T08:04:02.83Z</time></trkpt><trkpt lat="42.4310418" lon="14.2147765"><ele>69.0</ele><time>2026-05-01T08:04:03.83Z</time></trkpt><trkpt lat="42.4309537" lon="14.2146902"><ele>69.0</ele><time>2026-05-01T08:04:04.83Z</time></trkpt><trkpt lat="42.4308417" lon="14.2146016"><ele>70.2</ele><time>2026-05-01T08:04:05.83Z</time></trkpt><trkpt lat="42.4307246" lon="14.2145165"><ele>71.4</ele><time>2026-05-01T08:04:06.83Z</time></trkpt><trkpt lat="42.4306265" lon="14.2144599"><ele>72.6</ele><time>2026-05-01T08:04:07.83Z</time></trkpt><trkpt lat="42.430556" lon="14.2143883"><ele>73.8</ele><time>2026-05-01T08:04:08.83Z</time></trkpt><trkpt lat="42.4304976" lon="14.2143104"><ele>75.0</ele><time>2026-05-01T08:04:09.83Z</time></trkpt><trkpt lat="42.4304388" lon="14.2142199"><ele>75.2</ele><time>2026-05-01T08:04:10.829Z</time></trkpt><trkpt lat="42.4303724" lon="14.2141481"><ele>75.4</ele><time>2026-05-01T08:04:11.83Z</time></trkpt><trkpt lat="42.4302902" lon="14.2140969"><ele>75.6</ele><time>2026-05-01T08:04:12.829Z</time></trkpt><trkpt lat="42.4302077" lon="14.2140472"><ele>75.8</ele><time>2026-05-01T08:04:13.83Z</time></trkpt><trkpt lat="42.430124" lon="14.2139761"><ele>76.0</ele><time>2026-05-01T08:04:14.83Z</time></trkpt><trkpt lat="42.4300315" lon="14.2138775"><ele>76.25</ele><time>2026-05-01T08:04:15.83Z</time></trkpt><trkpt lat="42.4299277" lon="14.2137591"><ele>76.5</ele><time>2026-05-01T08:04:16.83Z</time></trkpt><trkpt lat="42.4298173" lon="14.2136322"><ele>76.75</ele><time>2026-05-01T08:04:17.83Z</time></trkpt><trkpt lat="42.429707" lon="14.21351"><ele>77.0</ele><time>2026-05-01T08:04:18.83Z</time></trkpt><trkpt lat="42.429598" lon="14.2133966"><ele>77.0</ele><time>2026-05-01T08:04:19.83Z</time></trkpt><trkpt lat="42.4294974" lon="14.2132914"><ele>77.0</ele><time>2026-05-01T08:04:20.83Z</time></trkpt><trkpt lat="42.4294043" lon="14.2131965"><ele>77.0</ele><time>2026-05-01T08:04:21.83Z</time></trkpt><trkpt lat="42.4293097" lon="14.213099"><ele>77.0</ele><time>2026-05-01T08:04:22.83Z</time></trkpt><trkpt lat="42.4292044" lon="14.2129972"><ele>78.25</ele><time>2026-05-01T08:04:23.83Z</time></trkpt><trkpt lat="42.4290954" lon="14.2128946"><ele>79.5</ele><time>2026-05-01T08:04:24.829Z</time></trkpt><trkpt lat="42.428993" lon="14.2127982"><ele>80.75</ele><time>2026-05-01T08:04:25.83Z</time></trkpt><trkpt lat="42.4288896" lon="14.2127038"><ele>82.0</ele><time>2026-05-01T08:04:26.83Z</time></trkpt><trkpt lat="42.4287896" lon="14.21261"><ele>82.19999999999999</ele><time>2026-05-01T08:04:27.83Z</time></trkpt><trkpt lat="42.4286981" lon="14.2125261"><ele>82.4</ele><time>2026-05-01T08:04:28.83Z</time></trkpt><trkpt lat="42.4286083" lon="14.2124486"><ele>82.6</ele><time>2026-05-01T08:04:29.83Z</time></trkpt><trkpt lat="42.4285185" lon="14.2123684"><ele>82.80000000000001</ele><time>2026-05-01T08:04:30.83Z</time></trkpt><trkpt lat="42.4284402" lon="14.2122828"><ele>83.0</ele><time>2026-05-01T08:04:31.83Z</time></trkpt><trkpt lat="42.428353" lon="14.2122031"><ele>83.60000000000001</ele><time>2026-05-01T08:04:32.83Z</time></trkpt><trkpt lat="42.4282647" lon="14.2121368"><ele>84.2</ele><time>2026-05-01T08:04:33.83Z</time></trkpt><trkpt lat="42.4281766" lon="14.2120536"><ele>84.8</ele><time>2026-05-01T08:04:34.83Z</time></trkpt><trkpt lat="42.4280851" lon="14.2119512"><ele>85.4</ele><time>2026-05-01T08:04:35.829Z</time></trkpt><trkpt lat="42.4279895" lon="14.2118509"><ele>86.0</ele><time>2026-05-01T08:04:36.83Z</time></trkpt><trkpt lat="42.4279001" lon="14.2117733"><ele>86.6</ele><time>2026-05-01T08:04:37.83Z</time></trkpt><trkpt lat="42.4278317" lon="14.2116912"><ele>87.19999999999999</ele><time>2026-05-01T08:04:38.83Z</time></trkpt><trkpt lat="42.4277761" lon="14.2115949"><ele>87.80000000000001</ele><time>2026-05-01T08:04:39.83Z</time></trkpt><trkpt lat="42.4277236" lon="14.2114836"><ele>88.4</ele><time>2026-05-01T08:04:40.83Z</time></trkpt><trkpt lat="42.4276633" lon="14.2113702"><ele>89.0</ele><time>2026-05-01T08:04:41.83Z</time></trkpt><trkpt lat="42.4275924" lon="14.2112764"><ele>89.0</ele><time>2026-05-01T08:04:42.83Z</time></trkpt><trkpt lat="42.4275082" lon="14.2111789"><ele>89.0</ele><time>2026-05-01T08:04:43.83Z</time></trkpt><trkpt lat="42.4274198" lon="14.2110754"><ele>89.0</ele><time>2026-05-01T08:04:44.829Z</time></trkpt><trkpt lat="42.4273283" lon="14.2109861"><ele>89.0</ele><time>2026-05-01T08:04:45.83Z</time></trkpt><trkpt lat="42.427243" lon="14.2109197"><ele>89.0</ele><time>2026-05-01T08:04:46.83Z</time></trkpt><trkpt lat="42.4271653" lon="14.2108806"><ele>90.0</ele><time>2026-05-01T08:04:47.83Z</time></trkpt><trkpt lat="42.4270765" lon="14.2108516"><ele>91.0</ele><time>2026-05-01T08:04:48.829Z</time></trkpt><trkpt lat="42.4269796" lon="14.2108278"><ele>92.0</ele><time>2026-05-01T08:04:49.83Z</time></trkpt><trkpt lat="42.4268917" lon="14.2107952"><ele>93.0</ele><time>2026-05-01T08:04:50.83Z</time></trkpt><trkpt lat="42.4267984" lon="14.2107684"><ele>94.0</ele><time>2026-05-01T08:04:51.83Z</time></trkpt><trkpt lat="42.426707" lon="14.2107308"><ele>94.0</ele><time>2026-05-01T08:04:52.829Z</time></trkpt><trkpt lat="42.4266082" lon="14.2106881"><ele>94.0</ele><time>2026-05-01T08:04:53.83Z</time></trkpt><trkpt lat="42.4265095" lon="14.2106446"><ele>94.0</ele><time>2026-05-01T08:04:54.83Z</time></trkpt><trkpt lat="42.4264113" lon="14.2106045"><ele>94.0</ele><time>2026-05-01T08:04:55.829Z</time></trkpt><trkpt lat="42.4263201" lon="14.210561"><ele>94.0</ele><time>2026-05-01T08:04:56.83Z</time></trkpt><trkpt lat="42.4262272" lon="14.2105096"><ele>93.75</ele><time>2026-05-01T08:04:57.829Z</time></trkpt><trkpt lat="42.4261331" lon="14.2104494"><ele>93.5</ele><time>2026-05-01T08:04:58.83Z</time></trkpt><trkpt lat="42.4260297" lon="14.2103947"><ele>93.25</ele><time>2026-05-01T08:04:59.83Z</time></trkpt><trkpt lat="42.4259153" lon="14.2103292"><ele>93.0</ele><time>2026-05-01T08:05:00.83Z</time></trkpt><trkpt lat="42.4258014" lon="14.2102766"><ele>93.0</ele><time>2026-05-01T08:05:01.83Z</time></trkpt><trkpt lat="42.42569" lon="14.210203"><ele>93.0</ele><time>2026-05-01T08:05:02.83Z</time></trkpt><trkpt lat="42.4255894" lon="14.2101279"><ele>93.0</ele><time>2026-05-01T08:05:03.83Z</time></trkpt><trkpt lat="42.4254992" lon="14.2100707"><ele>93.0</ele><time>2026-05-01T08:05:04.83Z</time></trkpt><trkpt lat="42.4254313" lon="14.2100221"><ele>93.0</ele><time>2026-05-01T08:05:05.83Z</time></trkpt><trkpt lat="42.4253595" lon="14.2099793"><ele>93.0</ele><time>2026-05-01T08:05:07.83Z</time></trkpt><trkpt lat="42.4252838" lon="14.2100144"><ele>93.0</ele><time>2026-05-01T08:05:09.83Z</time></trkpt><trkpt lat="42.4252373" lon="14.2101413"><ele>93.0</ele><time>2026-05-01T08:05:11.83Z</time></trkpt><trkpt lat="42.4251992" lon="14.2102285"><ele>93.0</ele><time>2026-05-01T08:05:12.831Z</time></trkpt><trkpt lat="42.4251569" lon="14.2103161"><ele>93.0</ele><time>2026-05-01T08:05:13.831Z</time></trkpt><trkpt lat="42.4251135" lon="14.2104111"><ele>93.0</ele><time>2026-05-01T08:05:14.831Z</time></trkpt><trkpt lat="42.4250756" lon="14.2105288"><ele>95.2</ele><time>2026-05-01T08:05:15.83Z</time></trkpt><trkpt lat="42.4250416" lon="14.2106651"><ele>97.4</ele><time>2026-05-01T08:05:16.831Z</time></trkpt><trkpt lat="42.4250122" lon="14.2108012"><ele>99.60000000000001</ele><time>2026-05-01T08:05:17.831Z</time></trkpt><trkpt lat="42.4249819" lon="14.2109141"><ele>101.80000000000001</ele><time>2026-05-01T08:05:18.831Z</time></trkpt><trkpt lat="42.424949" lon="14.2110344"><ele>104.0</ele><time>2026-05-01T08:05:19.831Z</time></trkpt><trkpt lat="42.4249125" lon="14.2111603"><ele>104.0</ele><time>2026-05-01T08:05:20.83Z</time></trkpt><trkpt lat="42.4248818" lon="14.2112969"><ele>104.0</ele><time>2026-05-01T08:05:21.83Z</time></trkpt><trkpt lat="42.4248656" lon="14.211445"><ele>104.0</ele><time>2026-05-01T08:05:22.831Z</time></trkpt><trkpt lat="42.4248514" lon="14.2115944"><ele>104.0</ele><time>2026-05-01T08:05:23.831Z</time></trkpt><trkpt lat="42.4248394" lon="14.2117529"><ele>104.0</ele><time>2026-05-01T08:05:24.831Z</time></trkpt><trkpt lat="42.424822" lon="14.2119064"><ele>104.75</ele><time>2026-05-01T08:05:25.831Z</time></trkpt><trkpt lat="42.4248006" lon="14.2120672"><ele>105.5</ele><time>2026-05-01T08:05:26.83Z</time></trkpt><trkpt lat="42.4247695" lon="14.2122182"><ele>106.25</ele><time>2026-05-01T08:05:27.831Z</time></trkpt><trkpt lat="42.4247365" lon="14.2123682"><ele>107.0</ele><time>2026-05-01T08:05:28.831Z</time></trkpt><trkpt lat="42.4246869" lon="14.2125028"><ele>108.0</ele><time>2026-05-01T08:05:29.831Z</time></trkpt><trkpt lat="42.4246509" lon="14.2126252"><ele>108.99999999999999</ele><time>2026-05-01T08:05:30.83Z</time></trkpt><trkpt lat="42.4246245" lon="14.2127615"><ele>109.99999999999999</ele><time>2026-05-01T08:05:31.831Z</time></trkpt><trkpt lat="42.424609" lon="14.212892"><ele>111.0</ele><time>2026-05-01T08:05:32.831Z</time></trkpt><trkpt lat="42.4245849" lon="14.2130138"><ele>112.0</ele><time>2026-05-01T08:05:33.831Z</time></trkpt><trkpt lat="42.4245501" lon="14.2131036"><ele>113.33333333333334</ele><time>2026-05-01T08:05:34.831Z</time></trkpt><trkpt lat="42.4244977" lon="14.2131744"><ele>114.66666666666667</ele><time>2026-05-01T08:05:35.831Z</time></trkpt><trkpt lat="42.4244314" lon="14.2132518"><ele>116.0</ele><time>2026-05-01T08:05:36.831Z</time></trkpt><trkpt lat="42.4243572" lon="14.2133349"><ele>117.33333333333334</ele><time>2026-05-01T08:05:37.831Z</time></trkpt><trkpt lat="42.4242929" lon="14.2134151"><ele>118.66666666666667</ele><time>2026-05-01T08:05:38.831Z</time></trkpt><trkpt lat="42.424243" lon="14.2134902"><ele>120.0</ele><time>2026-05-01T08:05:39.831Z</time></trkpt><trkpt lat="42.4242129" lon="14.2135726"><ele>120.0</ele><time>2026-05-01T08:05:40.83Z</time></trkpt><trkpt lat="42.4242052" lon="14.2136808"><ele>120.0</ele><time>2026-05-01T08:05:41.831Z</time></trkpt><trkpt lat="42.4241953" lon="14.2137882"><ele>120.0</ele><time>2026-05-01T08:05:42.831Z</time></trkpt><trkpt lat="42.4241766" lon="14.2138783"><ele>120.0</ele><time>2026-05-01T08:05:43.831Z</time></trkpt><trkpt lat="42.424141" lon="14.2139656"><ele>120.0</ele><time>2026-05-01T08:05:44.83Z</time></trkpt><trkpt lat="42.4240897" lon="14.2140585"><ele>120.0</ele><time>2026-05-01T08:05:45.831Z</time></trkpt><trkpt lat="42.4240285" lon="14.2141413"><ele>122.0</ele><time>2026-05-01T08:05:46.83Z</time></trkpt><trkpt lat="42.4239606" lon="14.2142218"><ele>124.0</ele><time>2026-05-01T08:05:47.83Z</time></trkpt><trkpt lat="42.423881" lon="14.2143207"><ele>126.0</ele><time>2026-05-01T08:05:48.83Z</time></trkpt><trkpt lat="42.4238103" lon="14.2144322"><ele>128.0</ele><time>2026-05-01T08:05:49.831Z</time></trkpt><trkpt lat="42.423742" lon="14.2145485"><ele>130.0</ele><time>2026-05-01T08:05:50.831Z</time></trkpt><trkpt lat="42.423681" lon="14.2146615"><ele>130.8</ele><time>2026-05-01T08:05:51.831Z</time></trkpt><trkpt lat="42.4236181" lon="14.2147781"><ele>131.6</ele><time>2026-05-01T08:05:52.831Z</time></trkpt><trkpt lat="42.4235547" lon="14.2149009"><ele>132.4</ele><time>2026-05-01T08:05:53.831Z</time></trkpt><trkpt lat="42.4235024" lon="14.215027"><ele>133.2</ele><time>2026-05-01T08:05:54.831Z</time></trkpt><trkpt lat="42.4234529" lon="14.2151559"><ele>134.0</ele><time>2026-05-01T08:05:55.831Z</time></trkpt><trkpt lat="42.4234022" lon="14.2152858"><ele>134.0</ele><time>2026-05-01T08:05:56.831Z</time></trkpt><trkpt lat="42.4233514" lon="14.2154266"><ele>134.0</ele><time>2026-05-01T08:05:57.831Z</time></trkpt><trkpt lat="42.4233001" lon="14.2155823"><ele>134.0</ele><time>2026-05-01T08:05:58.831Z</time></trkpt><trkpt lat="42.4232428" lon="14.215743"><ele>134.0</ele><time>2026-05-01T08:05:59.831Z</time></trkpt><trkpt lat="42.4231742" lon="14.2159144"><ele>135.75</ele><time>2026-05-01T08:06:00.831Z</time></trkpt><trkpt lat="42.4231121" lon="14.2160917"><ele>137.5</ele><time>2026-05-01T08:06:01.831Z</time></trkpt><trkpt lat="42.4230583" lon="14.2162746"><ele>139.25</ele><time>2026-05-01T08:06:02.831Z</time></trkpt><trkpt lat="42.4230138" lon="14.2164585"><ele>141.0</ele><time>2026-05-01T08:06:03.831Z</time></trkpt><trkpt lat="42.4229661" lon="14.2166345"><ele>142.5</ele><time>2026-05-01T08:06:04.83Z</time></trkpt><trkpt lat="42.4229247" lon="14.2167932"><ele>144.0</ele><time>2026-05-01T08:06:05.831Z</time></trkpt><trkpt lat="42.4228912" lon="14.2168921"><ele>145.5</ele><time>2026-05-01T08:06:06.83Z</time></trkpt><trkpt lat="42.4228463" lon="14.2169853"><ele>147.0</ele><time>2026-05-01T08:06:08.831Z</time></trkpt><trkpt lat="42.422825" lon="14.2170972"><ele>148.5</ele><time>2026-05-01T08:06:10.83Z</time></trkpt><trkpt lat="42.4228312" lon="14.217183"><ele>150.0</ele><time>2026-05-01T08:06:11.83Z</time></trkpt><trkpt lat="42.4228596" lon="14.2172902"><ele>151.6</ele><time>2026-05-01T08:06:12.831Z</time></trkpt><trkpt lat="42.4228954" lon="14.2174093"><ele>153.2</ele><time>2026-05-01T08:06:13.831Z</time></trkpt><trkpt lat="42.4229392" lon="14.21753"><ele>154.8</ele><time>2026-05-01T08:06:14.831Z</time></trkpt><trkpt lat="42.4230021" lon="14.217666"><ele>156.4</ele><time>2026-05-01T08:06:15.831Z</time></trkpt><trkpt lat="42.4230873" lon="14.2177961"><ele>158.0</ele><time>2026-05-01T08:06:16.831Z</time></trkpt><trkpt lat="42.4231971" lon="14.2179194"><ele>158.0</ele><time>2026-05-01T08:06:17.83Z</time></trkpt><trkpt lat="42.4233037" lon="14.218059"><ele>158.0</ele><time>2026-05-01T08:06:18.83Z</time></trkpt><trkpt lat="42.4233879" lon="14.2182214"><ele>158.0</ele><time>2026-05-01T08:06:19.831Z</time></trkpt><trkpt lat="42.4234462" lon="14.2184047"><ele>158.0</ele><time>2026-05-01T08:06:20.831Z</time></trkpt><trkpt lat="42.4234868" lon="14.2185684"><ele>154.83333333333331</ele><time>2026-05-01T08:06:21.831Z</time></trkpt><trkpt lat="42.4235345" lon="14.2187083"><ele>151.66666666666666</ele><time>2026-05-01T08:06:22.831Z</time></trkpt><trkpt lat="42.4235864" lon="14.2188106"><ele>148.5</ele><time>2026-05-01T08:06:23.831Z</time></trkpt><trkpt lat="42.4236315" lon="14.2188823"><ele>145.33333333333334</ele><time>2026-05-01T08:06:24.831Z</time></trkpt><trkpt lat="42.4236742" lon="14.2189504"><ele>142.16666666666669</ele><time>2026-05-01T08:06:26.831Z</time></trkpt><trkpt lat="42.4235835" lon="14.2189572"><ele>139.0</ele><time>2026-05-01T08:06:30.831Z</time></trkpt><trkpt lat="42.423523" lon="14.2188802"><ele>139.0</ele><time>2026-05-01T08:06:31.831Z</time></trkpt><trkpt lat="42.4234474" lon="14.2187963"><ele>139.0</ele><time>2026-05-01T08:06:32.831Z</time></trkpt><trkpt lat="42.4233764" lon="14.2187"><ele>139.0</ele><time>2026-05-01T08:06:33.83Z</time></trkpt><trkpt lat="42.4233021" lon="14.2185861"><ele>139.0</ele><time>2026-05-01T08:06:34.831Z</time></trkpt><trkpt lat="42.423223" lon="14.2184673"><ele>139.0</ele><time>2026-05-01T08:06:35.831Z</time></trkpt><trkpt lat="42.4231365" lon="14.2183668"><ele>139.0</ele><time>2026-05-01T08:06:36.831Z</time></trkpt><trkpt lat="42.4230383" lon="14.2182832"><ele>139.0</ele><time>2026-05-01T08:06:37.831Z</time></trkpt><trkpt lat="42.4229361" lon="14.2182217"><ele>139.0</ele><time>2026-05-01T08:06:38.83Z</time></trkpt><trkpt lat="42.4228186" lon="14.2181997"><ele>139.0</ele><time>2026-05-01T08:06:39.831Z</time></trkpt><trkpt lat="42.4226935" lon="14.2181949"><ele>138.5</ele><time>2026-05-01T08:06:40.831Z</time></trkpt><trkpt lat="42.4225686" lon="14.2182068"><ele>138.0</ele><time>2026-05-01T08:06:41.831Z</time></trkpt><trkpt lat="42.4224533" lon="14.2181894"><ele>137.5</ele><time>2026-05-01T08:06:42.831Z</time></trkpt><trkpt lat="42.4223364" lon="14.218148"><ele>137.0</ele><time>2026-05-01T08:06:43.831Z</time></trkpt><trkpt lat="42.4222256" lon="14.2180809"><ele>132.5</ele><time>2026-05-01T08:06:44.831Z</time></trkpt><trkpt lat="42.4221173" lon="14.2179861"><ele>128.0</ele><time>2026-05-01T08:06:45.831Z</time></trkpt><trkpt lat="42.4220037" lon="14.2178829"><ele>123.5</ele><time>2026-05-01T08:06:46.831Z</time></trkpt><trkpt lat="42.4218884" lon="14.2177897"><ele>119.0</ele><time>2026-05-01T08:06:47.831Z</time></trkpt><trkpt lat="42.4217693" lon="14.217728"><ele>119.0</ele><time>2026-05-01T08:06:48.831Z</time></trkpt><trkpt lat="42.421642" lon="14.2176784"><ele>119.0</ele><time>2026-05-01T08:06:49.83Z</time></trkpt><trkpt lat="42.4215234" lon="14.2176273"><ele>119.0</ele><time>2026-05-01T08:06:50.831Z</time></trkpt><trkpt lat="42.4214125" lon="14.2175684"><ele>119.0</ele><time>2026-05-01T08:06:51.831Z</time></trkpt><trkpt lat="42.4213004" lon="14.2174977"><ele>117.75</ele><time>2026-05-01T08:06:52.831Z</time></trkpt><trkpt lat="42.421195" lon="14.2174149"><ele>116.5</ele><time>2026-05-01T08:06:53.831Z</time></trkpt><trkpt lat="42.4211011" lon="14.2173199"><ele>115.25</ele><time>2026-05-01T08:06:54.83Z</time></trkpt><trkpt lat="42.4210236" lon="14.2172026"><ele>114.0</ele><time>2026-05-01T08:06:55.83Z</time></trkpt><trkpt lat="42.420979" lon="14.2170848"><ele>114.0</ele><time>2026-05-01T08:06:56.831Z</time></trkpt><trkpt lat="42.4209637" lon="14.2169595"><ele>114.0</ele><time>2026-05-01T08:06:57.831Z</time></trkpt><trkpt lat="42.4209654" lon="14.2168309"><ele>114.0</ele><time>2026-05-01T08:06:58.83Z</time></trkpt><trkpt lat="42.4209666" lon="14.2167133"><ele>114.0</ele><time>2026-05-01T08:06:59.831Z</time></trkpt><trkpt lat="42.4209428" lon="14.2166031"><ele>114.0</ele><time>2026-05-01T08:07:00.831Z</time></trkpt><trkpt lat="42.4209005" lon="14.2165223"><ele>114.0</ele><time>2026-05-01T08:07:01.831Z</time></trkpt><trkpt lat="42.4208291" lon="14.2164475"><ele>114.0</ele><time>2026-05-01T08:07:03.831Z</time></trkpt><trkpt lat="42.4207778" lon="14.2166144"><ele>114.0</ele><time>2026-05-01T08:07:06.831Z</time></trkpt><trkpt lat="42.4207807" lon="14.2167468"><ele>114.0</ele><time>2026-05-01T08:07:07.831Z</time></trkpt><trkpt lat="42.4207719" lon="14.216894"><ele>114.0</ele><time>2026-05-01T08:07:08.831Z</time></trkpt><trkpt lat="42.4207739" lon="14.2170554"><ele>114.0</ele><time>2026-05-01T08:07:09.831Z</time></trkpt><trkpt lat="42.4207907" lon="14.2172231"><ele>114.0</ele><time>2026-05-01T08:07:10.831Z</time></trkpt><trkpt lat="42.4208178" lon="14.2173895"><ele>114.0</ele><time>2026-05-01T08:07:11.831Z</time></trkpt><trkpt lat="42.4208479" lon="14.2175478"><ele>114.0</ele><time>2026-05-01T08:07:12.831Z</time></trkpt><trkpt lat="42.4208814" lon="14.2176945"><ele>112.0</ele><time>2026-05-01T08:07:13.831Z</time></trkpt><trkpt lat="42.4209132" lon="14.2178321"><ele>110.0</ele><time>2026-05-01T08:07:14.831Z</time></trkpt><trkpt lat="42.4209336" lon="14.2179612"><ele>108.0</ele><time>2026-05-01T08:07:15.831Z</time></trkpt><trkpt lat="42.4209382" lon="14.2180639"><ele>106.0</ele><time>2026-05-01T08:07:16.831Z</time></trkpt><trkpt lat="42.4209295" lon="14.2181498"><ele>104.0</ele><time>2026-05-01T08:07:17.831Z</time></trkpt><trkpt lat="42.4208707" lon="14.2182564"><ele>102.0</ele><time>2026-05-01T08:07:19.831Z</time></trkpt><trkpt lat="42.4207836" lon="14.2182841"><ele>100.19999999999999</ele><time>2026-05-01T08:07:21.831Z</time></trkpt><trkpt lat="42.4207157" lon="14.2183026"><ele>98.4</ele><time>2026-05-01T08:07:25.831Z</time></trkpt><trkpt lat="42.4206614" lon="14.2184038"><ele>96.6</ele><time>2026-05-01T08:07:39.831Z</time></trkpt><trkpt lat="42.4206089" lon="14.2185389"><ele>94.80000000000001</ele><time>2026-05-01T08:07:41.831Z</time></trkpt><trkpt lat="42.4205503" lon="14.218668"><ele>93.0</ele><time>2026-05-01T08:07:43.83Z</time></trkpt><trkpt lat="42.4205056" lon="14.2188005"><ele>93.00000000000001</ele><time>2026-05-01T08:07:45.831Z</time></trkpt><trkpt lat="42.4204905" lon="14.2188844"><ele>93.0</ele><time>2026-05-01T08:07:46.831Z</time></trkpt><trkpt lat="42.4204778" lon="14.2189704"><ele>93.0</ele><time>2026-05-01T08:07:47.831Z</time></trkpt><trkpt lat="42.4204465" lon="14.2190486"><ele>93.0</ele><time>2026-05-01T08:07:48.831Z</time></trkpt><trkpt lat="42.4204137" lon="14.2191411"><ele>93.0</ele><time>2026-05-01T08:07:49.831Z</time></trkpt><trkpt lat="42.420373" lon="14.2192282"><ele>93.00000000000001</ele><time>2026-05-01T08:07:50.831Z</time></trkpt><trkpt lat="42.4203333" lon="14.2193185"><ele>93.0</ele><time>2026-05-01T08:07:51.831Z</time></trkpt><trkpt lat="42.420301" lon="14.2194205"><ele>89.5</ele><time>2026-05-01T08:07:52.831Z</time></trkpt><trkpt lat="42.4202737" lon="14.2195317"><ele>86.0</ele><time>2026-05-01T08:07:53.831Z</time></trkpt><trkpt lat="42.4202401" lon="14.219627"><ele>82.5</ele><time>2026-05-01T08:07:54.831Z</time></trkpt><trkpt lat="42.4202072" lon="14.2197247"><ele>79.0</ele><time>2026-05-01T08:07:55.831Z</time></trkpt><trkpt lat="42.4201665" lon="14.219816"><ele>75.5</ele><time>2026-05-01T08:07:56.831Z</time></trkpt><trkpt lat="42.4201228" lon="14.2199102"><ele>72.0</ele><time>2026-05-01T08:07:57.831Z</time></trkpt><trkpt lat="42.4200764" lon="14.2200145"><ele>70.0</ele><time>2026-05-01T08:07:58.831Z</time></trkpt><trkpt lat="42.4200303" lon="14.220126"><ele>68.0</ele><time>2026-05-01T08:07:59.831Z</time></trkpt><trkpt lat="42.4199888" lon="14.2202443"><ele>66.0</ele><time>2026-05-01T08:08:00.831Z</time></trkpt><trkpt lat="42.4199492" lon="14.220365"><ele>64.0</ele><time>2026-05-01T08:08:01.83Z</time></trkpt><trkpt lat="42.4199148" lon="14.2204851"><ele>62.0</ele><time>2026-05-01T08:08:02.831Z</time></trkpt><trkpt lat="42.4198822" lon="14.2206128"><ele>60.16666666666667</ele><time>2026-05-01T08:08:03.83Z</time></trkpt><trkpt lat="42.4198491" lon="14.2207342"><ele>58.333333333333336</ele><time>2026-05-01T08:08:04.831Z</time></trkpt><trkpt lat="42.4198193" lon="14.2208379"><ele>56.5</ele><time>2026-05-01T08:08:05.831Z</time></trkpt><trkpt lat="42.4197834" lon="14.2209222"><ele>54.66666666666667</ele><time>2026-05-01T08:08:06.83Z</time></trkpt><trkpt lat="42.4197441" lon="14.2210009"><ele>52.833333333333336</ele><time>2026-05-01T08:08:07.831Z</time></trkpt><trkpt lat="42.4196793" lon="14.221074"><ele>51.0</ele><time>2026-05-01T08:08:09.83Z</time></trkpt><trkpt lat="42.4196101" lon="14.2210311"><ele>50.8</ele><time>2026-05-01T08:08:11.831Z</time></trkpt><trkpt lat="42.4195102" lon="14.2209049"><ele>50.599999999999994</ele><time>2026-05-01T08:08:13.83Z</time></trkpt><trkpt lat="42.4194352" lon="14.2208433"><ele>50.4</ele><time>2026-05-01T08:08:14.831Z</time></trkpt><trkpt lat="42.4193421" lon="14.2207837"><ele>50.2</ele><time>2026-05-01T08:08:15.831Z</time></trkpt><trkpt lat="42.4192478" lon="14.2207181"><ele>50.0</ele><time>2026-05-01T08:08:16.831Z</time></trkpt><trkpt lat="42.4191647" lon="14.2206589"><ele>50.333333333333336</ele><time>2026-05-01T08:08:17.831Z</time></trkpt><trkpt lat="42.4190988" lon="14.2205914"><ele>50.66666666666667</ele><time>2026-05-01T08:08:18.831Z</time></trkpt><trkpt lat="42.4190477" lon="14.220503"><ele>51.0</ele><time>2026-05-01T08:08:19.831Z</time></trkpt><trkpt lat="42.4190046" lon="14.2204189"><ele>51.33333333333333</ele><time>2026-05-01T08:08:20.83Z</time></trkpt><trkpt lat="42.4189474" lon="14.220356"><ele>51.666666666666664</ele><time>2026-05-01T08:08:21.83Z</time></trkpt><trkpt lat="42.4188802" lon="14.2203203"><ele>52.0</ele><time>2026-05-01T08:08:22.831Z</time></trkpt><trkpt lat="42.4187886" lon="14.2203037"><ele>52.0</ele><time>2026-05-01T08:08:23.831Z</time></trkpt><trkpt lat="42.4186896" lon="14.2203071"><ele>52.0</ele><time>2026-05-01T08:08:24.83Z</time></trkpt><trkpt lat="42.4185952" lon="14.2203065"><ele>52.0</ele><time>2026-05-01T08:08:25.831Z</time></trkpt><trkpt lat="42.4185017" lon="14.2202747"><ele>52.0</ele><time>2026-05-01T08:08:26.831Z</time></trkpt><trkpt lat="42.4184104" lon="14.2202147"><ele>52.0</ele><time>2026-05-01T08:08:27.831Z</time></trkpt><trkpt lat="42.4183291" lon="14.2201405"><ele>52.0</ele><time>2026-05-01T08:08:28.831Z</time></trkpt><trkpt lat="42.4182576" lon="14.2200477"><ele>52.0</ele><time>2026-05-01T08:08:29.831Z</time></trkpt><trkpt lat="42.4181998" lon="14.2199407"><ele>52.0</ele><time>2026-05-01T08:08:30.831Z</time></trkpt><trkpt lat="42.4181412" lon="14.2198477"><ele>52.0</ele><time>2026-05-01T08:08:31.831Z</time></trkpt><trkpt lat="42.4180756" lon="14.2197706"><ele>52.0</ele><time>2026-05-01T08:08:32.83Z</time></trkpt><trkpt lat="42.4179897" lon="14.2197052"><ele>52.0</ele><time>2026-05-01T08:08:33.83Z</time></trkpt><trkpt lat="42.4178902" lon="14.2196479"><ele>52.0</ele><time>2026-05-01T08:08:34.831Z</time></trkpt><trkpt lat="42.417786" lon="14.2196053"><ele>52.0</ele><time>2026-05-01T08:08:35.831Z</time></trkpt><trkpt lat="42.4177077" lon="14.2195795"><ele>52.0</ele><time>2026-05-01T08:08:36.83Z</time></trkpt><trkpt lat="42.4176394" lon="14.2195289"><ele>52.0</ele><time>2026-05-01T08:08:38.831Z</time></trkpt><trkpt lat="42.4176505" lon="14.2194272"><ele>52.0</ele><time>2026-05-01T08:08:40.831Z</time></trkpt><trkpt lat="42.4176368" lon="14.2193188"><ele>52.0</ele><time>2026-05-01T08:08:42.83Z</time></trkpt><trkpt lat="42.4175538" lon="14.2192883"><ele>52.0</ele><time>2026-05-01T08:08:44.83Z</time></trkpt><trkpt lat="42.4174577" lon="14.2192548"><ele>52.0</ele><time>2026-05-01T08:08:47.831Z</time></trkpt><trkpt lat="42.4173805" lon="14.2191457"><ele>52.0</ele><time>2026-05-01T08:08:49.831Z</time></trkpt><trkpt lat="42.4173269" lon="14.2190792"><ele>52.0</ele><time>2026-05-01T08:08:51.831Z</time></trkpt><trkpt lat="42.4172726" lon="14.2189923"><ele>52.0</ele><time>2026-05-01T08:08:54.831Z</time></trkpt><trkpt lat="42.4172062" lon="14.2188999"><ele>52.0</ele><time>2026-05-01T08:08:56.831Z</time></trkpt><trkpt lat="42.41715" lon="14.2187994"><ele>52.0</ele><time>2026-05-01T08:08:58.831Z</time></trkpt><trkpt lat="42.4170888" lon="14.2186735"><ele>52.0</ele><time>2026-05-01T08:09:00.831Z</time></trkpt><trkpt lat="42.4170402" lon="14.218613"><ele>52.8</ele><time>2026-05-01T08:09:01.831Z</time></trkpt><trkpt lat="42.4169163" lon="14.2185393"><ele>53.6</ele><time>2026-05-01T08:09:03.831Z</time></trkpt><trkpt lat="42.4168406" lon="14.2185069"><ele>54.39999999999999</ele><time>2026-05-01T08:09:04.831Z</time></trkpt><trkpt lat="42.4167468" lon="14.2184249"><ele>55.199999999999996</ele><time>2026-05-01T08:09:06.831Z</time></trkpt><trkpt lat="42.4167092" lon="14.2183429"><ele>56.0</ele><time>2026-05-01T08:09:07.83Z</time></trkpt><trkpt lat="42.4166776" lon="14.2182327"><ele>57.199999999999996</ele><time>2026-05-01T08:09:08.831Z</time></trkpt><trkpt lat="42.4166372" lon="14.2181239"><ele>58.39999999999999</ele><time>2026-05-01T08:09:09.831Z</time></trkpt><trkpt lat="42.4165907" lon="14.2180181"><ele>59.6</ele><time>2026-05-01T08:09:10.831Z</time></trkpt><trkpt lat="42.416527" lon="14.2178996"><ele>60.8</ele><time>2026-05-01T08:09:11.831Z</time></trkpt><trkpt lat="42.4164552" lon="14.2177658"><ele>62.0</ele><time>2026-05-01T08:09:12.831Z</time></trkpt><trkpt lat="42.4163866" lon="14.2176339"><ele>61.25</ele><time>2026-05-01T08:09:13.831Z</time></trkpt><trkpt lat="42.4163195" lon="14.2175148"><ele>60.5</ele><time>2026-05-01T08:09:14.831Z</time></trkpt><trkpt lat="42.4162421" lon="14.217402"><ele>59.75</ele><time>2026-05-01T08:09:15.831Z</time></trkpt><trkpt lat="42.416152" lon="14.2172848"><ele>59.0</ele><time>2026-05-01T08:09:16.831Z</time></trkpt><trkpt lat="42.4160515" lon="14.2171729"><ele>58.800000000000004</ele><time>2026-05-01T08:09:17.83Z</time></trkpt><trkpt lat="42.4159602" lon="14.2170703"><ele>58.60000000000001</ele><time>2026-05-01T08:09:18.831Z</time></trkpt><trkpt lat="42.4158769" lon="14.2169734"><ele>58.4</ele><time>2026-05-01T08:09:19.831Z</time></trkpt><trkpt lat="42.415807" lon="14.2168743"><ele>58.2</ele><time>2026-05-01T08:09:20.831Z</time></trkpt><trkpt lat="42.4157427" lon="14.2167818"><ele>58.0</ele><time>2026-05-01T08:09:21.831Z</time></trkpt><trkpt lat="42.4156856" lon="14.2167135"><ele>57.99999999999999</ele><time>2026-05-01T08:09:22.831Z</time></trkpt><trkpt lat="42.4156303" lon="14.2166714"><ele>58.0</ele><time>2026-05-01T08:09:23.831Z</time></trkpt><trkpt lat="42.4155158" lon="14.2166391"><ele>58.0</ele><time>2026-05-01T08:09:25.831Z</time></trkpt><trkpt lat="42.4154493" lon="14.2166191"><ele>58.0</ele><time>2026-05-01T08:09:26.831Z</time></trkpt><trkpt lat="42.4153715" lon="14.2165264"><ele>57.99999999999999</ele><time>2026-05-01T08:09:28.831Z</time></trkpt><trkpt lat="42.4153424" lon="14.21643"><ele>58.0</ele><time>2026-05-01T08:09:29.83Z</time></trkpt><trkpt lat="42.4153058" lon="14.2163191"><ele>58.33333333333333</ele><time>2026-05-01T08:09:30.831Z</time></trkpt><trkpt lat="42.4152678" lon="14.2162277"><ele>58.666666666666664</ele><time>2026-05-01T08:09:31.831Z</time></trkpt><trkpt lat="42.4152229" lon="14.2161442"><ele>59.0</ele><time>2026-05-01T08:09:32.831Z</time></trkpt><trkpt lat="42.4151584" lon="14.2160614"><ele>59.33333333333333</ele><time>2026-05-01T08:09:33.831Z</time></trkpt><trkpt lat="42.415084" lon="14.2159799"><ele>59.666666666666664</ele><time>2026-05-01T08:09:34.831Z</time></trkpt><trkpt lat="42.4150002" lon="14.215903"><ele>60.0</ele><time>2026-05-01T08:09:35.831Z</time></trkpt><trkpt lat="42.4149267" lon="14.2158279"><ele>60.0</ele><time>2026-05-01T08:09:36.831Z</time></trkpt><trkpt lat="42.4148709" lon="14.2157411"><ele>60.0</ele><time>2026-05-01T08:09:37.831Z</time></trkpt><trkpt lat="42.4148302" lon="14.215633"><ele>60.0</ele><time>2026-05-01T08:09:38.831Z</time></trkpt><trkpt lat="42.4148072" lon="14.215504"><ele>60.0</ele><time>2026-05-01T08:09:39.831Z</time></trkpt><trkpt lat="42.4147852" lon="14.2153466"><ele>60.0</ele><time>2026-05-01T08:09:40.831Z</time></trkpt><trkpt lat="42.4147534" lon="14.2151878"><ele>61.0</ele><time>2026-05-01T08:09:41.831Z</time></trkpt><trkpt lat="42.4147203" lon="14.2150546"><ele>62.0</ele><time>2026-05-01T08:09:42.831Z</time></trkpt><trkpt lat="42.4147006" lon="14.2149451"><ele>63.0</ele><time>2026-05-01T08:09:43.831Z</time></trkpt><trkpt lat="42.4147044" lon="14.2147978"><ele>64.0</ele><time>2026-05-01T08:09:45.831Z</time></trkpt><trkpt lat="42.4147343" lon="14.2146471"><ele>65.0</ele><time>2026-05-01T08:09:47.831Z</time></trkpt><trkpt lat="42.4147256" lon="14.2144961"><ele>65.16666666666667</ele><time>2026-05-01T08:09:49.831Z</time></trkpt><trkpt lat="42.4146989" lon="14.2144066"><ele>65.33333333333334</ele><time>2026-05-01T08:09:50.831Z</time></trkpt><trkpt lat="42.4146596" lon="14.2143131"><ele>65.5</ele><time>2026-05-01T08:09:51.831Z</time></trkpt><trkpt lat="42.4146094" lon="14.2142176"><ele>65.66666666666667</ele><time>2026-05-01T08:09:52.831Z</time></trkpt><trkpt lat="42.4145522" lon="14.214119"><ele>65.83333333333333</ele><time>2026-05-01T08:09:53.831Z</time></trkpt><trkpt lat="42.4145048" lon="14.214019"><ele>66.0</ele><time>2026-05-01T08:09:54.831Z</time></trkpt><trkpt lat="42.4144698" lon="14.213925"><ele>65.6</ele><time>2026-05-01T08:09:55.831Z</time></trkpt><trkpt lat="42.4144304" lon="14.2138528"><ele>65.19999999999999</ele><time>2026-05-01T08:09:56.831Z</time></trkpt><trkpt lat="42.4143737" lon="14.2137161"><ele>64.80000000000001</ele><time>2026-05-01T08:09:58.831Z</time></trkpt><trkpt lat="42.4144227" lon="14.2135428"><ele>64.4</ele><time>2026-05-01T08:10:00.831Z</time></trkpt><trkpt lat="42.4144673" lon="14.2134457"><ele>64.0</ele><time>2026-05-01T08:10:01.83Z</time></trkpt><trkpt lat="42.4144988" lon="14.2133479"><ele>64.0</ele><time>2026-05-01T08:10:02.831Z</time></trkpt><trkpt lat="42.4145152" lon="14.2132318"><ele>64.0</ele><time>2026-05-01T08:10:03.831Z</time></trkpt><trkpt lat="42.4145138" lon="14.2130997"><ele>64.0</ele><time>2026-05-01T08:10:04.831Z</time></trkpt><trkpt lat="42.4145005" lon="14.2129618"><ele>64.0</ele><time>2026-05-01T08:10:05.831Z</time></trkpt><trkpt lat="42.4144794" lon="14.212816"><ele>64.0</ele><time>2026-05-01T08:10:06.831Z</time></trkpt><trkpt lat="42.4144438" lon="14.2126718"><ele>64.5</ele><time>2026-05-01T08:10:07.831Z</time></trkpt><trkpt lat="42.4143976" lon="14.2125453"><ele>65.0</ele><time>2026-05-01T08:10:08.831Z</time></trkpt><trkpt lat="42.4143526" lon="14.2124491"><ele>65.5</ele><time>2026-05-01T08:10:09.831Z</time></trkpt><trkpt lat="42.4143136" lon="14.2123578"><ele>66.0</ele><time>2026-05-01T08:10:10.831Z</time></trkpt><trkpt lat="42.4142682" lon="14.2122633"><ele>66.5</ele><time>2026-05-01T08:10:11.83Z</time></trkpt><trkpt lat="42.414218" lon="14.2121523"><ele>67.0</ele><time>2026-05-01T08:10:12.831Z</time></trkpt><trkpt lat="42.4141634" lon="14.2120293"><ele>67.25</ele><time>2026-05-01T08:10:13.831Z</time></trkpt><trkpt lat="42.4141099" lon="14.2118934"><ele>67.5</ele><time>2026-05-01T08:10:14.831Z</time></trkpt><trkpt lat="42.4140553" lon="14.2117514"><ele>67.75</ele><time>2026-05-01T08:10:15.83Z</time></trkpt><trkpt lat="42.4140033" lon="14.21161"><ele>68.0</ele><time>2026-05-01T08:10:16.83Z</time></trkpt><trkpt lat="42.413946" lon="14.2114619"><ele>68.75</ele><time>2026-05-01T08:10:17.831Z</time></trkpt><trkpt lat="42.4138872" lon="14.2113126"><ele>69.5</ele><time>2026-05-01T08:10:18.831Z</time></trkpt><trkpt lat="42.4138302" lon="14.2111663"><ele>70.25</ele><time>2026-05-01T08:10:19.831Z</time></trkpt><trkpt lat="42.4137795" lon="14.2110311"><ele>71.0</ele><time>2026-05-01T08:10:20.831Z</time></trkpt><trkpt lat="42.4137352" lon="14.2109208"><ele>71.0</ele><time>2026-05-01T08:10:21.831Z</time></trkpt><trkpt lat="42.4137113" lon="14.2108175"><ele>71.0</ele><time>2026-05-01T08:10:22.831Z</time></trkpt><trkpt lat="42.4137082" lon="14.2107185"><ele>71.0</ele><time>2026-05-01T08:10:23.831Z</time></trkpt><trkpt lat="42.4137155" lon="14.2105999"><ele>71.0</ele><time>2026-05-01T08:10:24.831Z</time></trkpt><trkpt lat="42.4137144" lon="14.2104802"><ele>71.0</ele><time>2026-05-01T08:10:25.831Z</time></trkpt><trkpt lat="42.4136913" lon="14.2103786"><ele>71.0</ele><time>2026-05-01T08:10:26.831Z</time></trkpt><trkpt lat="42.4136492" lon="14.2102797"><ele>71.16666666666667</ele><time>2026-05-01T08:10:27.831Z</time></trkpt><trkpt lat="42.4135932" lon="14.2101834"><ele>71.33333333333334</ele><time>2026-05-01T08:10:28.83Z</time></trkpt><trkpt lat="42.4135311" lon="14.2100932"><ele>71.5</ele><time>2026-05-01T08:10:29.831Z</time></trkpt><trkpt lat="42.4134563" lon="14.2100315"><ele>71.66666666666667</ele><time>2026-05-01T08:10:30.831Z</time></trkpt><trkpt lat="42.4133746" lon="14.2099935"><ele>71.83333333333333</ele><time>2026-05-01T08:10:31.83Z</time></trkpt><trkpt lat="42.4133102" lon="14.2099466"><ele>72.0</ele><time>2026-05-01T08:10:32.831Z</time></trkpt><trkpt lat="42.4132381" lon="14.2098687"><ele>72.0</ele><time>2026-05-01T08:10:34.831Z</time></trkpt><trkpt lat="42.4131723" lon="14.209874"><ele>72.0</ele><time>2026-05-01T08:10:36.83Z</time></trkpt><trkpt lat="42.4131149" lon="14.2099139"><ele>72.0</ele><time>2026-05-01T08:10:37.831Z</time></trkpt><trkpt lat="42.4130461" lon="14.2099602"><ele>72.0</ele><time>2026-05-01T08:10:38.831Z</time></trkpt><trkpt lat="42.4129715" lon="14.2100101"><ele>72.0</ele><time>2026-05-01T08:10:39.831Z</time></trkpt><trkpt lat="42.4128927" lon="14.2100693"><ele>72.0</ele><time>2026-05-01T08:10:40.83Z</time></trkpt><trkpt lat="42.4128366" lon="14.2101244"><ele>73.4</ele><time>2026-05-01T08:10:41.831Z</time></trkpt><trkpt lat="42.4128177" lon="14.210217"><ele>74.80000000000001</ele><time>2026-05-01T08:10:43.831Z</time></trkpt><trkpt lat="42.4128421" lon="14.2103233"><ele>76.2</ele><time>2026-05-01T08:10:44.831Z</time></trkpt><trkpt lat="42.4128633" lon="14.2104468"><ele>77.60000000000001</ele><time>2026-05-01T08:10:45.831Z</time></trkpt><trkpt lat="42.4128665" lon="14.2106005"><ele>79.0</ele><time>2026-05-01T08:10:46.831Z</time></trkpt><trkpt lat="42.412857" lon="14.2107744"><ele>79.80000000000001</ele><time>2026-05-01T08:10:47.831Z</time></trkpt><trkpt lat="42.4128431" lon="14.2109283"><ele>80.60000000000001</ele><time>2026-05-01T08:10:48.83Z</time></trkpt><trkpt lat="42.4128352" lon="14.2110561"><ele>81.4</ele><time>2026-05-01T08:10:49.831Z</time></trkpt><trkpt lat="42.4128276" lon="14.2111751"><ele>82.2</ele><time>2026-05-01T08:10:50.831Z</time></trkpt><trkpt lat="42.4128274" lon="14.2112966"><ele>83.0</ele><time>2026-05-01T08:10:51.831Z</time></trkpt><trkpt lat="42.4128367" lon="14.2114364"><ele>82.75</ele><time>2026-05-01T08:10:52.831Z</time></trkpt><trkpt lat="42.412854" lon="14.2115795"><ele>82.5</ele><time>2026-05-01T08:10:53.831Z</time></trkpt><trkpt lat="42.412879" lon="14.2117348"><ele>82.25</ele><time>2026-05-01T08:10:54.831Z</time></trkpt><trkpt lat="42.412902" lon="14.2118916"><ele>82.0</ele><time>2026-05-01T08:10:55.831Z</time></trkpt><trkpt lat="42.4129164" lon="14.2120553"><ele>82.0</ele><time>2026-05-01T08:10:56.831Z</time></trkpt><trkpt lat="42.4129338" lon="14.2122326"><ele>82.0</ele><time>2026-05-01T08:10:57.831Z</time></trkpt><trkpt lat="42.4129709" lon="14.2124048"><ele>82.0</ele><time>2026-05-01T08:10:58.831Z</time></trkpt><trkpt lat="42.4130107" lon="14.2125644"><ele>82.0</ele><time>2026-05-01T08:10:59.831Z</time></trkpt><trkpt lat="42.4130511" lon="14.2127173"><ele>80.25</ele><time>2026-05-01T08:11:00.83Z</time></trkpt><trkpt lat="42.4130944" lon="14.2128782"><ele>78.5</ele><time>2026-05-01T08:11:01.831Z</time></trkpt><trkpt lat="42.4131453" lon="14.2130464"><ele>76.75</ele><time>2026-05-01T08:11:02.831Z</time></trkpt><trkpt lat="42.4131953" lon="14.2132131"><ele>75.0</ele><time>2026-05-01T08:11:03.831Z</time></trkpt><trkpt lat="42.4132518" lon="14.2133919"><ele>75.0</ele><time>2026-05-01T08:11:04.831Z</time></trkpt><trkpt lat="42.413304" lon="14.2135693"><ele>75.0</ele><time>2026-05-01T08:11:05.831Z</time></trkpt><trkpt lat="42.4133417" lon="14.2137583"><ele>75.0</ele><time>2026-05-01T08:11:06.831Z</time></trkpt><trkpt lat="42.4133664" lon="14.213941"><ele>75.0</ele><time>2026-05-01T08:11:07.831Z</time></trkpt><trkpt lat="42.4133891" lon="14.2141146"><ele>77.25</ele><time>2026-05-01T08:11:08.83Z</time></trkpt><trkpt lat="42.4134289" lon="14.2142893"><ele>79.5</ele><time>2026-05-01T08:11:09.831Z</time></trkpt><trkpt lat="42.4134829" lon="14.2144663"><ele>81.75</ele><time>2026-05-01T08:11:10.831Z</time></trkpt><trkpt lat="42.4135487" lon="14.214647"><ele>84.0</ele><time>2026-05-01T08:11:11.831Z</time></trkpt><trkpt lat="42.4136217" lon="14.214826"><ele>86.0</ele><time>2026-05-01T08:11:12.831Z</time></trkpt><trkpt lat="42.4137015" lon="14.2149942"><ele>88.0</ele><time>2026-05-01T08:11:13.831Z</time></trkpt><trkpt lat="42.413775" lon="14.2151765"><ele>90.0</ele><time>2026-05-01T08:11:14.831Z</time></trkpt><trkpt lat="42.4138385" lon="14.2153674"><ele>85.0</ele><time>2026-05-01T08:11:15.831Z</time></trkpt><trkpt lat="42.4138986" lon="14.2155571"><ele>80.0</ele><time>2026-05-01T08:11:16.831Z</time></trkpt><trkpt lat="42.413968" lon="14.2157431"><ele>75.0</ele><time>2026-05-01T08:11:17.83Z</time></trkpt><trkpt lat="42.4140436" lon="14.2159271"><ele>75.0</ele><time>2026-05-01T08:11:18.831Z</time></trkpt><trkpt lat="42.4141198" lon="14.216109"><ele>75.0</ele><time>2026-05-01T08:11:19.83Z</time></trkpt><trkpt lat="42.4141904" lon="14.2162942"><ele>75.0</ele><time>2026-05-01T08:11:20.831Z</time></trkpt><trkpt lat="42.4142651" lon="14.2164772"><ele>76.5</ele><time>2026-05-01T08:11:21.831Z</time></trkpt><trkpt lat="42.4143434" lon="14.2166651"><ele>78.0</ele><time>2026-05-01T08:11:22.831Z</time></trkpt><trkpt lat="42.4144132" lon="14.2168327"><ele>79.5</ele><time>2026-05-01T08:11:23.831Z</time></trkpt><trkpt lat="42.4144692" lon="14.2169868"><ele>81.0</ele><time>2026-05-01T08:11:24.831Z</time></trkpt><trkpt lat="42.4145123" lon="14.217145"><ele>81.0</ele><time>2026-05-01T08:11:25.831Z</time></trkpt><trkpt lat="42.414531" lon="14.2173138"><ele>81.0</ele><time>2026-05-01T08:11:26.83Z</time></trkpt><trkpt lat="42.4145439" lon="14.2174755"><ele>81.0</ele><time>2026-05-01T08:11:27.831Z</time></trkpt><trkpt lat="42.4145445" lon="14.2176024"><ele>81.0</ele><time>2026-05-01T08:11:28.831Z</time></trkpt><trkpt lat="42.414521" lon="14.2176977"><ele>81.0</ele><time>2026-05-01T08:11:29.831Z</time></trkpt><trkpt lat="42.4144656" lon="14.2177772"><ele>81.8</ele><time>2026-05-01T08:11:30.83Z</time></trkpt><trkpt lat="42.4143871" lon="14.2178359"><ele>82.6</ele><time>2026-05-01T08:11:31.831Z</time></trkpt><trkpt lat="42.4143037" lon="14.2178965"><ele>83.4</ele><time>2026-05-01T08:11:32.831Z</time></trkpt><trkpt lat="42.4142192" lon="14.2179666"><ele>84.2</ele><time>2026-05-01T08:11:33.831Z</time></trkpt><trkpt lat="42.4141356" lon="14.2180606"><ele>85.0</ele><time>2026-05-01T08:11:34.831Z</time></trkpt><trkpt lat="42.4140726" lon="14.2181763"><ele>85.0</ele><time>2026-05-01T08:11:35.831Z</time></trkpt><trkpt lat="42.4140255" lon="14.2182841"><ele>85.0</ele><time>2026-05-01T08:11:36.831Z</time></trkpt><trkpt lat="42.4139854" lon="14.2183833"><ele>85.0</ele><time>2026-05-01T08:11:37.831Z</time></trkpt><trkpt lat="42.4139443" lon="14.2184748"><ele>85.0</ele><time>2026-05-01T08:11:38.831Z</time></trkpt><trkpt lat="42.4139034" lon="14.2185572"><ele>85.0</ele><time>2026-05-01T08:11:39.831Z</time></trkpt><trkpt lat="42.413863" lon="14.2186863"><ele>85.0</ele><time>2026-05-01T08:11:41.831Z</time></trkpt><trkpt lat="42.413852" lon="14.2187964"><ele>85.0</ele><time>2026-05-01T08:11:43.831Z</time></trkpt><trkpt lat="42.4138326" lon="14.2189318"><ele>85.0</ele><time>2026-05-01T08:11:45.831Z</time></trkpt><trkpt lat="42.4138166" lon="14.2190157"><ele>85.0</ele><time>2026-05-01T08:11:46.831Z</time></trkpt><trkpt lat="42.4137713" lon="14.2191346"><ele>85.0</ele><time>2026-05-01T08:11:48.831Z</time></trkpt><trkpt lat="42.4137076" lon="14.219222"><ele>85.0</ele><time>2026-05-01T08:11:50.831Z</time></trkpt><trkpt lat="42.4136424" lon="14.2193076"><ele>85.0</ele><time>2026-05-01T08:11:52.83Z</time></trkpt><trkpt lat="42.4135917" lon="14.2193929"><ele>85.16666666666666</ele><time>2026-05-01T08:11:54.831Z</time></trkpt><trkpt lat="42.4135578" lon="14.2194772"><ele>85.33333333333333</ele><time>2026-05-01T08:11:56.831Z</time></trkpt><trkpt lat="42.4135477" lon="14.2195972"><ele>85.5</ele><time>2026-05-01T08:11:59.831Z</time></trkpt><trkpt lat="42.4135483" lon="14.2197168"><ele>85.66666666666667</ele><time>2026-05-01T08:12:02.831Z</time></trkpt><trkpt lat="42.413566" lon="14.2198462"><ele>85.83333333333334</ele><time>2026-05-01T08:12:04.831Z</time></trkpt><trkpt lat="42.4135715" lon="14.2199316"><ele>86.0</ele><time>2026-05-01T08:12:05.831Z</time></trkpt><trkpt lat="42.4135771" lon="14.2200178"><ele>84.16666666666667</ele><time>2026-05-01T08:12:06.831Z</time></trkpt><trkpt lat="42.4135798" lon="14.2201034"><ele>82.33333333333334</ele><time>2026-05-01T08:12:07.831Z</time></trkpt><trkpt lat="42.4136067" lon="14.2202759"><ele>80.5</ele><time>2026-05-01T08:12:09.831Z</time></trkpt><trkpt lat="42.4136163" lon="14.2203703"><ele>78.66666666666667</ele><time>2026-05-01T08:12:10.831Z</time></trkpt><trkpt lat="42.4136165" lon="14.2204706"><ele>76.83333333333333</ele><time>2026-05-01T08:12:11.831Z</time></trkpt><trkpt lat="42.4136176" lon="14.2205638"><ele>75.0</ele><time>2026-05-01T08:12:12.831Z</time></trkpt><trkpt lat="42.4136248" lon="14.2206545"><ele>75.0</ele><time>2026-05-01T08:12:13.831Z</time></trkpt><trkpt lat="42.4136255" lon="14.220742"><ele>75.0</ele><time>2026-05-01T08:12:14.831Z</time></trkpt><trkpt lat="42.4136203" lon="14.2208304"><ele>75.0</ele><time>2026-05-01T08:12:15.831Z</time></trkpt><trkpt lat="42.4135779" lon="14.2209934"><ele>75.0</ele><time>2026-05-01T08:12:17.831Z</time></trkpt><trkpt lat="42.4135215" lon="14.2210479"><ele>75.0</ele><time>2026-05-01T08:12:18.831Z</time></trkpt><trkpt lat="42.4134128" lon="14.221055"><ele>75.0</ele><time>2026-05-01T08:12:20.831Z</time></trkpt><trkpt lat="42.413311" lon="14.2210619"><ele>75.0</ele><time>2026-05-01T08:12:22.831Z</time></trkpt><trkpt lat="42.4132723" lon="14.2211762"><ele>75.0</ele><time>2026-05-01T08:12:24.831Z</time></trkpt><trkpt lat="42.4133349" lon="14.2212885"><ele>75.0</ele><time>2026-05-01T08:12:26.831Z</time></trkpt><trkpt lat="42.4134489" lon="14.2213334"><ele>75.0</ele><time>2026-05-01T08:12:28.831Z</time></trkpt><trkpt lat="42.4135594" lon="14.2213605"><ele>75.0</ele><time>2026-05-01T08:12:30.831Z</time></trkpt><trkpt lat="42.4136606" lon="14.2214366"><ele>77.83333333333333</ele><time>2026-05-01T08:12:32.831Z</time></trkpt><trkpt lat="42.4137372" lon="14.2215205"><ele>80.66666666666667</ele><time>2026-05-01T08:12:34.83Z</time></trkpt><trkpt lat="42.413778" lon="14.2216027"><ele>83.5</ele><time>2026-05-01T08:12:35.831Z</time></trkpt><trkpt lat="42.4138208" lon="14.221675"><ele>86.33333333333334</ele><time>2026-05-01T08:12:36.831Z</time></trkpt><trkpt lat="42.4138763" lon="14.2217205"><ele>89.16666666666667</ele><time>2026-05-01T08:12:37.831Z</time></trkpt><trkpt lat="42.4139671" lon="14.2217433"><ele>92.0</ele><time>2026-05-01T08:12:39.83Z</time></trkpt><trkpt lat="42.4139944" lon="14.2218569"><ele>92.0</ele><time>2026-05-01T08:12:42.831Z</time></trkpt><trkpt lat="42.4140105" lon="14.2219409"><ele>92.0</ele><time>2026-05-01T08:12:43.831Z</time></trkpt><trkpt lat="42.4140578" lon="14.2220955"><ele>92.0</ele><time>2026-05-01T08:12:45.831Z</time></trkpt><trkpt lat="42.4140857" lon="14.2221766"><ele>92.0</ele><time>2026-05-01T08:12:46.83Z</time></trkpt><trkpt lat="42.4141546" lon="14.2222447"><ele>92.0</ele><time>2026-05-01T08:12:48.831Z</time></trkpt><trkpt lat="42.4142454" lon="14.2222349"><ele>92.0</ele><time>2026-05-01T08:12:50.831Z</time></trkpt><trkpt lat="42.4143304" lon="14.2222542"><ele>94.6</ele><time>2026-05-01T08:12:52.831Z</time></trkpt><trkpt lat="42.4143849" lon="14.2223542"><ele>97.19999999999999</ele><time>2026-05-01T08:12:54.83Z</time></trkpt><trkpt lat="42.4144314" lon="14.222492"><ele>99.8</ele><time>2026-05-01T08:12:56.831Z</time></trkpt><trkpt lat="42.4144715" lon="14.2226298"><ele>102.4</ele><time>2026-05-01T08:12:58.831Z</time></trkpt><trkpt lat="42.4144679" lon="14.2227874"><ele>105.0</ele><time>2026-05-01T08:13:00.831Z</time></trkpt><trkpt lat="42.414465" lon="14.2228861"><ele>105.0</ele><time>2026-05-01T08:13:01.831Z</time></trkpt><trkpt lat="42.4144515" lon="14.2229745"><ele>105.0</ele><time>2026-05-01T08:13:02.831Z</time></trkpt><trkpt lat="42.4144337" lon="14.223062"><ele>105.0</ele><time>2026-05-01T08:13:03.831Z</time></trkpt><trkpt lat="42.4144113" lon="14.2231502"><ele>105.0</ele><time>2026-05-01T08:13:04.831Z</time></trkpt><trkpt lat="42.414389" lon="14.2232302"><ele>105.0</ele><time>2026-05-01T08:13:05.83Z</time></trkpt><trkpt lat="42.4143742" lon="14.2233131"><ele>105.0</ele><time>2026-05-01T08:13:06.831Z</time></trkpt><trkpt lat="42.4143542" lon="14.223394"><ele>105.0</ele><time>2026-05-01T08:13:07.83Z</time></trkpt><trkpt lat="42.4143269" lon="14.2234726"><ele>107.8</ele><time>2026-05-01T08:13:08.83Z</time></trkpt><trkpt lat="42.4142563" lon="14.2236066"><ele>110.6</ele><time>2026-05-01T08:13:10.831Z</time></trkpt><trkpt lat="42.4142356" lon="14.223718"><ele>113.4</ele><time>2026-05-01T08:13:12.831Z</time></trkpt><trkpt lat="42.4142998" lon="14.2238064"><ele>116.2</ele><time>2026-05-01T08:13:14.831Z</time></trkpt><trkpt lat="42.4143696" lon="14.2239205"><ele>119.0</ele><time>2026-05-01T08:13:16.831Z</time></trkpt><trkpt lat="42.4143927" lon="14.2240023"><ele>121.99999999999999</ele><time>2026-05-01T08:13:17.831Z</time></trkpt><trkpt lat="42.4144561" lon="14.2241277"><ele>125.0</ele><time>2026-05-01T08:13:19.831Z</time></trkpt><trkpt lat="42.4145628" lon="14.2241176"><ele>128.0</ele><time>2026-05-01T08:13:21.831Z</time></trkpt><trkpt lat="42.414629" lon="14.2241014"><ele>131.0</ele><time>2026-05-01T08:13:22.831Z</time></trkpt><trkpt lat="42.4147019" lon="14.2240748"><ele>134.0</ele><time>2026-05-01T08:13:23.831Z</time></trkpt><trkpt lat="42.4147738" lon="14.2240385"><ele>137.0</ele><time>2026-05-01T08:13:24.831Z</time></trkpt><trkpt lat="42.4148388" lon="14.2239931"><ele>135.57142857142858</ele><time>2026-05-01T08:13:25.831Z</time></trkpt><trkpt lat="42.4149" lon="14.2239473"><ele>134.14285714285714</ele><time>2026-05-01T08:13:26.831Z</time></trkpt><trkpt lat="42.4149574" lon="14.2239012"><ele>132.71428571428572</ele><time>2026-05-01T08:13:27.831Z</time></trkpt><trkpt lat="42.4150097" lon="14.2238421"><ele>131.28571428571428</ele><time>2026-05-01T08:13:28.831Z</time></trkpt><trkpt lat="42.415059" lon="14.2237764"><ele>129.85714285714286</ele><time>2026-05-01T08:13:29.831Z</time></trkpt><trkpt lat="42.4151078" lon="14.2237039"><ele>128.42857142857144</ele><time>2026-05-01T08:13:30.831Z</time></trkpt><trkpt lat="42.4151506" lon="14.2236293"><ele>127.0</ele><time>2026-05-01T08:13:31.831Z</time></trkpt><trkpt lat="42.4151947" lon="14.2235571"><ele>127.0</ele><time>2026-05-01T08:13:32.83Z</time></trkpt><trkpt lat="42.4152364" lon="14.2234884"><ele>126.99999999999999</ele><time>2026-05-01T08:13:33.831Z</time></trkpt><trkpt lat="42.4153224" lon="14.2233832"><ele>126.99999999999999</ele><time>2026-05-01T08:13:35.831Z</time></trkpt><trkpt lat="42.4154123" lon="14.2233329"><ele>127.0</ele><time>2026-05-01T08:13:37.831Z</time></trkpt><trkpt lat="42.4155109" lon="14.2233336"><ele>127.0</ele><time>2026-05-01T08:13:39.831Z</time></trkpt><trkpt lat="42.4155934" lon="14.223415"><ele>127.00000000000001</ele><time>2026-05-01T08:13:41.83Z</time></trkpt><trkpt lat="42.4155268" lon="14.2234852"><ele>127.0</ele><time>2026-05-01T08:13:44.831Z</time></trkpt><trkpt lat="42.4154182" lon="14.2235184"><ele>127.0</ele><time>2026-05-01T08:13:46.831Z</time></trkpt><trkpt lat="42.4153624" lon="14.2235613"><ele>127.0</ele><time>2026-05-01T08:13:47.83Z</time></trkpt><trkpt lat="42.4153179" lon="14.2236279"><ele>127.00000000000001</ele><time>2026-05-01T08:13:48.83Z</time></trkpt><trkpt lat="42.41528" lon="14.2237169"><ele>127.0</ele><time>2026-05-01T08:13:49.831Z</time></trkpt><trkpt lat="42.4152352" lon="14.2238314"><ele>127.00000000000001</ele><time>2026-05-01T08:13:50.831Z</time></trkpt><trkpt lat="42.4152014" lon="14.2239611"><ele>127.0</ele><time>2026-05-01T08:13:51.831Z</time></trkpt><trkpt lat="42.4151687" lon="14.2240773"><ele>127.0</ele><time>2026-05-01T08:13:52.831Z</time></trkpt><trkpt lat="42.4151333" lon="14.2241736"><ele>127.0</ele><time>2026-05-01T08:13:53.831Z</time></trkpt><trkpt lat="42.4150907" lon="14.2242517"><ele>127.00000000000001</ele><time>2026-05-01T08:13:54.831Z</time></trkpt><trkpt lat="42.4150299" lon="14.2243283"><ele>127.0</ele><time>2026-05-01T08:13:55.831Z</time></trkpt><trkpt lat="42.414958" lon="14.2244091"><ele>129.0</ele><time>2026-05-01T08:13:56.831Z</time></trkpt><trkpt lat="42.4148789" lon="14.2244971"><ele>131.0</ele><time>2026-05-01T08:13:57.831Z</time></trkpt><trkpt lat="42.4147998" lon="14.2245863"><ele>133.0</ele><time>2026-05-01T08:13:58.831Z</time></trkpt><trkpt lat="42.4147274" lon="14.2246736"><ele>135.0</ele><time>2026-05-01T08:13:59.831Z</time></trkpt><trkpt lat="42.4146502" lon="14.2247452"><ele>137.0</ele><time>2026-05-01T08:14:00.83Z</time></trkpt><trkpt lat="42.4145764" lon="14.2248092"><ele>140.0</ele><time>2026-05-01T08:14:01.83Z</time></trkpt><trkpt lat="42.4145254" lon="14.2248775"><ele>143.0</ele><time>2026-05-01T08:14:02.831Z</time></trkpt><trkpt lat="42.4144798" lon="14.2250208"><ele>146.0</ele><time>2026-05-01T08:14:04.83Z</time></trkpt><trkpt lat="42.4144697" lon="14.2251411"><ele>149.0</ele><time>2026-05-01T08:14:06.83Z</time></trkpt><trkpt lat="42.4144756" lon="14.2252501"><ele>152.0</ele><time>2026-05-01T08:14:09.831Z</time></trkpt><trkpt lat="42.4145049" lon="14.2253813"><ele>152.0</ele><time>2026-05-01T08:14:11.831Z</time></trkpt><trkpt lat="42.4145742" lon="14.2255277"><ele>152.0</ele><time>2026-05-01T08:14:13.831Z</time></trkpt><trkpt lat="42.4146251" lon="14.2256208"><ele>152.0</ele><time>2026-05-01T08:14:14.83Z</time></trkpt><trkpt lat="42.4146774" lon="14.2257168"><ele>152.0</ele><time>2026-05-01T08:14:15.831Z</time></trkpt><trkpt lat="42.4147142" lon="14.2258183"><ele>152.0</ele><time>2026-05-01T08:14:16.831Z</time></trkpt><trkpt lat="42.4147322" lon="14.2259124"><ele>153.5</ele><time>2026-05-01T08:14:17.831Z</time></trkpt><trkpt lat="42.4147055" lon="14.2260557"><ele>155.0</ele><time>2026-05-01T08:14:19.831Z</time></trkpt><trkpt lat="42.414606" lon="14.2261019"><ele>156.5</ele><time>2026-05-01T08:14:21.831Z</time></trkpt><trkpt lat="42.414537" lon="14.2260832"><ele>158.0</ele><time>2026-05-01T08:14:22.83Z</time></trkpt><trkpt lat="42.4144623" lon="14.2260642"><ele>159.5</ele><time>2026-05-01T08:14:23.831Z</time></trkpt><trkpt lat="42.4143847" lon="14.2260557"><ele>161.0</ele><time>2026-05-01T08:14:24.831Z</time></trkpt><trkpt lat="42.4143122" lon="14.2260758"><ele>161.0</ele><time>2026-05-01T08:14:25.831Z</time></trkpt><trkpt lat="42.414236" lon="14.2261738"><ele>161.0</ele><time>2026-05-01T08:14:27.831Z</time></trkpt><trkpt lat="42.4142177" lon="14.2262556"><ele>161.0</ele><time>2026-05-01T08:14:28.831Z</time></trkpt><trkpt lat="42.4141872" lon="14.2263554"><ele>161.0</ele><time>2026-05-01T08:14:29.831Z</time></trkpt><trkpt lat="42.4141548" lon="14.2264659"><ele>161.0</ele><time>2026-05-01T08:14:30.831Z</time></trkpt><trkpt lat="42.4141264" lon="14.2265854"><ele>161.0</ele><time>2026-05-01T08:14:31.83Z</time></trkpt><trkpt lat="42.4140943" lon="14.2267126"><ele>162.5</ele><time>2026-05-01T08:14:32.831Z</time></trkpt><trkpt lat="42.4140578" lon="14.2268458"><ele>164.0</ele><time>2026-05-01T08:14:33.831Z</time></trkpt><trkpt lat="42.4140125" lon="14.226991"><ele>165.5</ele><time>2026-05-01T08:14:34.831Z</time></trkpt><trkpt lat="42.4139614" lon="14.2271591"><ele>167.0</ele><time>2026-05-01T08:14:35.831Z</time></trkpt><trkpt lat="42.4139151" lon="14.2273196"><ele>167.39999999999998</ele><time>2026-05-01T08:14:36.83Z</time></trkpt><trkpt lat="42.4138754" lon="14.227445"><ele>167.79999999999998</ele><time>2026-05-01T08:14:37.83Z</time></trkpt><trkpt lat="42.4138424" lon="14.2275423"><ele>168.2</ele><time>2026-05-01T08:14:38.831Z</time></trkpt><trkpt lat="42.4138097" lon="14.2276508"><ele>168.6</ele><time>2026-05-01T08:14:40.831Z</time></trkpt><trkpt lat="42.413789" lon="14.2277502"><ele>169.0</ele><time>2026-05-01T08:14:53.83Z</time></trkpt><trkpt lat="42.4139056" lon="14.2278397"><ele>169.0</ele><time>2026-05-01T08:14:55.831Z</time></trkpt><trkpt lat="42.4139887" lon="14.2278941"><ele>169.0</ele><time>2026-05-01T08:14:56.831Z</time></trkpt><trkpt lat="42.4140839" lon="14.227949"><ele>169.0</ele><time>2026-05-01T08:14:57.831Z</time></trkpt><trkpt lat="42.4141926" lon="14.2280088"><ele>169.0</ele><time>2026-05-01T08:14:58.831Z</time></trkpt><trkpt lat="42.414305" lon="14.2280759"><ele>169.0</ele><time>2026-05-01T08:14:59.83Z</time></trkpt><trkpt lat="42.4144082" lon="14.2281447"><ele>169.25</ele><time>2026-05-01T08:15:00.831Z</time></trkpt><trkpt lat="42.4145133" lon="14.2282277"><ele>169.5</ele><time>2026-05-01T08:15:01.831Z</time></trkpt><trkpt lat="42.4146134" lon="14.228313"><ele>169.75</ele><time>2026-05-01T08:15:02.831Z</time></trkpt><trkpt lat="42.4147117" lon="14.228406"><ele>170.0</ele><time>2026-05-01T08:15:03.831Z</time></trkpt><trkpt lat="42.4148159" lon="14.2285074"><ele>170.0</ele><time>2026-05-01T08:15:04.831Z</time></trkpt><trkpt lat="42.4149253" lon="14.2286168"><ele>170.0</ele><time>2026-05-01T08:15:05.831Z</time></trkpt><trkpt lat="42.4150344" lon="14.2287242"><ele>170.0</ele><time>2026-05-01T08:15:06.831Z</time></trkpt><trkpt lat="42.4151418" lon="14.2288281"><ele>170.0</ele><time>2026-05-01T08:15:07.831Z</time></trkpt><trkpt lat="42.4152446" lon="14.2289309"><ele>169.5</ele><time>2026-05-01T08:15:08.83Z</time></trkpt><trkpt lat="42.4153441" lon="14.2290328"><ele>169.0</ele><time>2026-05-01T08:15:09.831Z</time></trkpt><trkpt lat="42.4154477" lon="14.2291436"><ele>168.5</ele><time>2026-05-01T08:15:10.831Z</time></trkpt><trkpt lat="42.4155551" lon="14.2292565"><ele>168.0</ele><time>2026-05-01T08:15:11.831Z</time></trkpt><trkpt lat="42.4156743" lon="14.2293868"><ele>168.0</ele><time>2026-05-01T08:15:12.831Z</time></trkpt><trkpt lat="42.4158015" lon="14.2295203"><ele>168.0</ele><time>2026-05-01T08:15:13.831Z</time></trkpt><trkpt lat="42.4159339" lon="14.2296629"><ele>168.0</ele><time>2026-05-01T08:15:14.831Z</time></trkpt><trkpt lat="42.4160593" lon="14.2298059"><ele>168.0</ele><time>2026-05-01T08:15:15.831Z</time></trkpt><trkpt lat="42.4161829" lon="14.2299458"><ele>168.0</ele><time>2026-05-01T08:15:16.83Z</time></trkpt><trkpt lat="42.4162925" lon="14.2300811"><ele>168.0</ele><time>2026-05-01T08:15:17.831Z</time></trkpt><trkpt lat="42.4164015" lon="14.2302206"><ele>168.0</ele><time>2026-05-01T08:15:18.831Z</time></trkpt><trkpt lat="42.4165109" lon="14.230381"><ele>168.0</ele><time>2026-05-01T08:15:19.831Z</time></trkpt><trkpt lat="42.4166169" lon="14.2305435"><ele>168.0</ele><time>2026-05-01T08:15:20.831Z</time></trkpt><trkpt lat="42.4167168" lon="14.2306958"><ele>168.0</ele><time>2026-05-01T08:15:21.83Z</time></trkpt><trkpt lat="42.4168042" lon="14.2308386"><ele>168.0</ele><time>2026-05-01T08:15:22.83Z</time></trkpt><trkpt lat="42.4168815" lon="14.2309577"><ele>168.0</ele><time>2026-05-01T08:15:23.83Z</time></trkpt><trkpt lat="42.4169398" lon="14.2310529"><ele>168.0</ele><time>2026-05-01T08:15:24.831Z</time></trkpt><trkpt lat="42.4169783" lon="14.2311296"><ele>168.0</ele><time>2026-05-01T08:15:25.831Z</time></trkpt><trkpt lat="42.4169723" lon="14.2312423"><ele>168.0</ele><time>2026-05-01T08:15:27.831Z</time></trkpt><trkpt lat="42.4168641" lon="14.2313447"><ele>168.0</ele><time>2026-05-01T08:15:29.831Z</time></trkpt><trkpt lat="42.416779" lon="14.2314108"><ele>168.0</ele><time>2026-05-01T08:15:30.831Z</time></trkpt><trkpt lat="42.4166891" lon="14.2314819"><ele>168.0</ele><time>2026-05-01T08:15:31.83Z</time></trkpt><trkpt lat="42.4165897" lon="14.2315583"><ele>168.0</ele><time>2026-05-01T08:15:32.831Z</time></trkpt><trkpt lat="42.4164843" lon="14.2316459"><ele>168.25</ele><time>2026-05-01T08:15:33.831Z</time></trkpt><trkpt lat="42.4163737" lon="14.2317365"><ele>168.5</ele><time>2026-05-01T08:15:34.831Z</time></trkpt><trkpt lat="42.416249" lon="14.2318249"><ele>168.75</ele><time>2026-05-01T08:15:35.831Z</time></trkpt><trkpt lat="42.4161162" lon="14.2319179"><ele>169.0</ele><time>2026-05-01T08:15:36.831Z</time></trkpt><trkpt lat="42.4159892" lon="14.2320237"><ele>169.0</ele><time>2026-05-01T08:15:37.831Z</time></trkpt><trkpt lat="42.4158687" lon="14.2321209"><ele>169.0</ele><time>2026-05-01T08:15:38.831Z</time></trkpt><trkpt lat="42.415752" lon="14.2322085"><ele>169.0</ele><time>2026-05-01T08:15:39.831Z</time></trkpt><trkpt lat="42.4156345" lon="14.2322922"><ele>169.0</ele><time>2026-05-01T08:15:40.831Z</time></trkpt><trkpt lat="42.4155244" lon="14.2323734"><ele>167.0</ele><time>2026-05-01T08:15:41.831Z</time></trkpt><trkpt lat="42.4154122" lon="14.2324545"><ele>165.0</ele><time>2026-05-01T08:15:42.831Z</time></trkpt><trkpt lat="42.4152988" lon="14.2325366"><ele>163.0</ele><time>2026-05-01T08:15:43.831Z</time></trkpt><trkpt lat="42.4151869" lon="14.2326201"><ele>161.0</ele><time>2026-05-01T08:15:44.83Z</time></trkpt><trkpt lat="42.41508" lon="14.2326961"><ele>161.0</ele><time>2026-05-01T08:15:45.831Z</time></trkpt><trkpt lat="42.4149773" lon="14.2327507"><ele>161.0</ele><time>2026-05-01T08:15:46.831Z</time></trkpt><trkpt lat="42.4148847" lon="14.2327718"><ele>161.0</ele><time>2026-05-01T08:15:47.831Z</time></trkpt><trkpt lat="42.414816" lon="14.2327828"><ele>161.0</ele><time>2026-05-01T08:15:48.83Z</time></trkpt><trkpt lat="42.4147533" lon="14.2327304"><ele>161.0</ele><time>2026-05-01T08:15:51.831Z</time></trkpt><trkpt lat="42.414811" lon="14.2326463"><ele>161.0</ele><time>2026-05-01T08:15:53.831Z</time></trkpt><trkpt lat="42.414863" lon="14.2325757"><ele>161.0</ele><time>2026-05-01T08:15:54.831Z</time></trkpt><trkpt lat="42.4148999" lon="14.2324843"><ele>161.0</ele><time>2026-05-01T08:15:55.83Z</time></trkpt><trkpt lat="42.414925" lon="14.232391"><ele>161.0</ele><time>2026-05-01T08:15:56.831Z</time></trkpt><trkpt lat="42.4149324" lon="14.2323011"><ele>161.0</ele><time>2026-05-01T08:15:57.831Z</time></trkpt><trkpt lat="42.4149219" lon="14.2322164"><ele>161.0</ele><time>2026-05-01T08:15:58.831Z</time></trkpt><trkpt lat="42.4148535" lon="14.2320639"><ele>161.0</ele><time>2026-05-01T08:16:00.831Z</time></trkpt><trkpt lat="42.4147997" lon="14.2319944"><ele>161.0</ele><time>2026-05-01T08:16:01.831Z</time></trkpt><trkpt lat="42.4147562" lon="14.2319227"><ele>161.0</ele><time>2026-05-01T08:16:02.831Z</time></trkpt><trkpt lat="42.4147281" lon="14.231845"><ele>161.0</ele><time>2026-05-01T08:16:03.831Z</time></trkpt><trkpt lat="42.4147106" lon="14.2317594"><ele>161.0</ele><time>2026-05-01T08:16:04.831Z</time></trkpt><trkpt lat="42.4146956" lon="14.2316585"><ele>161.0</ele><time>2026-05-01T08:16:05.831Z</time></trkpt><trkpt lat="42.4146723" lon="14.2315461"><ele>161.0</ele><time>2026-05-01T08:16:06.831Z</time></trkpt><trkpt lat="42.4146569" lon="14.2314197"><ele>156.60000000000002</ele><time>2026-05-01T08:16:07.831Z</time></trkpt><trkpt lat="42.414646" lon="14.2312776"><ele>152.20000000000002</ele><time>2026-05-01T08:16:08.831Z</time></trkpt><trkpt lat="42.4146372" lon="14.231141"><ele>147.8</ele><time>2026-05-01T08:16:09.831Z</time></trkpt><trkpt lat="42.414626" lon="14.2310202"><ele>143.4</ele><time>2026-05-01T08:16:10.83Z</time></trkpt><trkpt lat="42.4146257" lon="14.2309311"><ele>139.0</ele><time>2026-05-01T08:16:11.831Z</time></trkpt><trkpt lat="42.4146301" lon="14.2307767"><ele>139.16666666666669</ele><time>2026-05-01T08:16:13.831Z</time></trkpt><trkpt lat="42.414614" lon="14.2305957"><ele>139.33333333333334</ele><time>2026-05-01T08:16:15.831Z</time></trkpt><trkpt lat="42.4146062" lon="14.2304967"><ele>139.5</ele><time>2026-05-01T08:16:16.831Z</time></trkpt><trkpt lat="42.414599" lon="14.2304111"><ele>139.66666666666666</ele><time>2026-05-01T08:16:17.831Z</time></trkpt><trkpt lat="42.4145882" lon="14.2303261"><ele>139.83333333333331</ele><time>2026-05-01T08:16:18.831Z</time></trkpt><trkpt lat="42.4145721" lon="14.2302322"><ele>140.0</ele><time>2026-05-01T08:16:19.831Z</time></trkpt><trkpt lat="42.4145557" lon="14.2301385"><ele>140.0</ele><time>2026-05-01T08:16:20.831Z</time></trkpt><trkpt lat="42.4145377" lon="14.2300459"><ele>140.0</ele><time>2026-05-01T08:16:21.831Z</time></trkpt><trkpt lat="42.4145268" lon="14.2299581"><ele>140.0</ele><time>2026-05-01T08:16:22.83Z</time></trkpt><trkpt lat="42.4144935" lon="14.2298032"><ele>140.0</ele><time>2026-05-01T08:16:24.831Z</time></trkpt><trkpt lat="42.4144746" lon="14.2297174"><ele>140.0</ele><time>2026-05-01T08:16:25.831Z</time></trkpt><trkpt lat="42.4144531" lon="14.2296262"><ele>140.0</ele><time>2026-05-01T08:16:26.831Z</time></trkpt><trkpt lat="42.414425" lon="14.2295386"><ele>142.8</ele><time>2026-05-01T08:16:27.831Z</time></trkpt><trkpt lat="42.4143557" lon="14.2294111"><ele>145.6</ele><time>2026-05-01T08:16:29.831Z</time></trkpt><trkpt lat="42.4142304" lon="14.229365"><ele>148.4</ele><time>2026-05-01T08:16:31.831Z</time></trkpt><trkpt lat="42.4141674" lon="14.2293668"><ele>151.2</ele><time>2026-05-01T08:16:32.831Z</time></trkpt><trkpt lat="42.414095" lon="14.2293736"><ele>154.0</ele><time>2026-05-01T08:16:33.83Z</time></trkpt><trkpt lat="42.4140158" lon="14.2293981"><ele>154.0</ele><time>2026-05-01T08:16:34.831Z</time></trkpt><trkpt lat="42.4139422" lon="14.2294287"><ele>154.0</ele><time>2026-05-01T08:16:35.831Z</time></trkpt><trkpt lat="42.4138829" lon="14.2294601"><ele>154.0</ele><time>2026-05-01T08:16:36.83Z</time></trkpt><trkpt lat="42.4138063" lon="14.2295539"><ele>154.0</ele><time>2026-05-01T08:16:38.831Z</time></trkpt><trkpt lat="42.4138101" lon="14.2297232"><ele>154.0</ele><time>2026-05-01T08:16:40.831Z</time></trkpt><trkpt lat="42.4138281" lon="14.2298291"><ele>154.0</ele><time>2026-05-01T08:16:41.831Z</time></trkpt><trkpt lat="42.4138389" lon="14.2299453"><ele>151.2</ele><time>2026-05-01T08:16:42.831Z</time></trkpt><trkpt lat="42.413848" lon="14.2300705"><ele>148.4</ele><time>2026-05-01T08:16:43.831Z</time></trkpt><trkpt lat="42.4138593" lon="14.2302056"><ele>145.6</ele><time>2026-05-01T08:16:44.831Z</time></trkpt><trkpt lat="42.4138751" lon="14.2303341"><ele>142.8</ele><time>2026-05-01T08:16:45.831Z</time></trkpt><trkpt lat="42.4138865" lon="14.2304578"><ele>140.0</ele><time>2026-05-01T08:16:46.831Z</time></trkpt><trkpt lat="42.4138926" lon="14.2305789"><ele>139.8</ele><time>2026-05-01T08:16:47.831Z</time></trkpt><trkpt lat="42.4138936" lon="14.2307044"><ele>139.6</ele><time>2026-05-01T08:16:48.831Z</time></trkpt><trkpt lat="42.4138894" lon="14.2308468"><ele>139.4</ele><time>2026-05-01T08:16:49.831Z</time></trkpt><trkpt lat="42.4138849" lon="14.2309962"><ele>139.2</ele><time>2026-05-01T08:16:50.831Z</time></trkpt><trkpt lat="42.413883" lon="14.231151"><ele>139.0</ele><time>2026-05-01T08:16:51.831Z</time></trkpt><trkpt lat="42.4138804" lon="14.2313089"><ele>139.0</ele><time>2026-05-01T08:16:52.831Z</time></trkpt><trkpt lat="42.4138789" lon="14.2314567"><ele>139.0</ele><time>2026-05-01T08:16:53.831Z</time></trkpt><trkpt lat="42.4138886" lon="14.2316069"><ele>139.0</ele><time>2026-05-01T08:16:54.831Z</time></trkpt><trkpt lat="42.4138924" lon="14.2317621"><ele>139.0</ele><time>2026-05-01T08:16:55.831Z</time></trkpt><trkpt lat="42.4138924" lon="14.2319154"><ele>139.0</ele><time>2026-05-01T08:16:56.831Z</time></trkpt><trkpt lat="42.4138893" lon="14.2320615"><ele>138.0</ele><time>2026-05-01T08:16:57.831Z</time></trkpt><trkpt lat="42.4138845" lon="14.2321983"><ele>137.0</ele><time>2026-05-01T08:16:58.831Z</time></trkpt><trkpt lat="42.4138799" lon="14.232339"><ele>136.0</ele><time>2026-05-01T08:16:59.831Z</time></trkpt><trkpt lat="42.4138745" lon="14.2324692"><ele>135.0</ele><time>2026-05-01T08:17:00.831Z</time></trkpt><trkpt lat="42.413871" lon="14.232573"><ele>134.0</ele><time>2026-05-01T08:17:01.831Z</time></trkpt><trkpt lat="42.4138647" lon="14.232751"><ele>135.66666666666666</ele><time>2026-05-01T08:17:03.831Z</time></trkpt><trkpt lat="42.413867" lon="14.2328608"><ele>137.33333333333331</ele><time>2026-05-01T08:17:04.831Z</time></trkpt><trkpt lat="42.4138645" lon="14.2329821"><ele>139.0</ele><time>2026-05-01T08:17:05.831Z</time></trkpt><trkpt lat="42.4138563" lon="14.2330977"><ele>140.66666666666666</ele><time>2026-05-01T08:17:06.831Z</time></trkpt><trkpt lat="42.4138572" lon="14.2331991"><ele>142.33333333333334</ele><time>2026-05-01T08:17:07.831Z</time></trkpt><trkpt lat="42.4138678" lon="14.233294"><ele>144.0</ele><time>2026-05-01T08:17:08.831Z</time></trkpt><trkpt lat="42.413884" lon="14.2333949"><ele>144.83333333333334</ele><time>2026-05-01T08:17:09.831Z</time></trkpt><trkpt lat="42.4139032" lon="14.2335019"><ele>145.66666666666666</ele><time>2026-05-01T08:17:10.831Z</time></trkpt><trkpt lat="42.4139284" lon="14.2336057"><ele>146.5</ele><time>2026-05-01T08:17:11.831Z</time></trkpt><trkpt lat="42.4139551" lon="14.2337002"><ele>147.33333333333331</ele><time>2026-05-01T08:17:12.831Z</time></trkpt><trkpt lat="42.413987" lon="14.2337916"><ele>148.16666666666666</ele><time>2026-05-01T08:17:13.831Z</time></trkpt><trkpt lat="42.4140188" lon="14.2338779"><ele>149.0</ele><time>2026-05-01T08:17:14.831Z</time></trkpt><trkpt lat="42.4140587" lon="14.2340252"><ele>146.2</ele><time>2026-05-01T08:17:16.831Z</time></trkpt><trkpt lat="42.4140706" lon="14.234162"><ele>143.4</ele><time>2026-05-01T08:17:18.831Z</time></trkpt><trkpt lat="42.4140742" lon="14.234292"><ele>140.6</ele><time>2026-05-01T08:17:20.831Z</time></trkpt><trkpt lat="42.4140768" lon="14.2344632"><ele>137.8</ele><time>2026-05-01T08:17:22.83Z</time></trkpt><trkpt lat="42.4140795" lon="14.2345547"><ele>135.0</ele><time>2026-05-01T08:17:23.831Z</time></trkpt><trkpt lat="42.4140804" lon="14.2346521"><ele>135.0</ele><time>2026-05-01T08:17:24.83Z</time></trkpt><trkpt lat="42.414082" lon="14.2347594"><ele>135.0</ele><time>2026-05-01T08:17:25.831Z</time></trkpt><trkpt lat="42.4140843" lon="14.2348662"><ele>135.0</ele><time>2026-05-01T08:17:26.831Z</time></trkpt><trkpt lat="42.4140893" lon="14.2349743"><ele>135.0</ele><time>2026-05-01T08:17:27.83Z</time></trkpt><trkpt lat="42.4140945" lon="14.2350836"><ele>135.0</ele><time>2026-05-01T08:17:28.831Z</time></trkpt><trkpt lat="42.4140995" lon="14.235196"><ele>135.0</ele><time>2026-05-01T08:17:29.831Z</time></trkpt><trkpt lat="42.4141024" lon="14.2353081"><ele>131.8</ele><time>2026-05-01T08:17:30.831Z</time></trkpt><trkpt lat="42.414105" lon="14.2354154"><ele>128.6</ele><time>2026-05-01T08:17:31.831Z</time></trkpt><trkpt lat="42.4141161" lon="14.2355312"><ele>125.4</ele><time>2026-05-01T08:17:32.831Z</time></trkpt><trkpt lat="42.4141263" lon="14.2356542"><ele>122.2</ele><time>2026-05-01T08:17:33.831Z</time></trkpt><trkpt lat="42.4141414" lon="14.2357886"><ele>119.0</ele><time>2026-05-01T08:17:34.831Z</time></trkpt><trkpt lat="42.414161" lon="14.235925"><ele>117.2</ele><time>2026-05-01T08:17:35.831Z</time></trkpt><trkpt lat="42.4141691" lon="14.2360189"><ele>115.4</ele><time>2026-05-01T08:17:36.831Z</time></trkpt><trkpt lat="42.4141342" lon="14.2361488"><ele>113.6</ele><time>2026-05-01T08:17:54.831Z</time></trkpt><trkpt lat="42.4140562" lon="14.2360679"><ele>111.8</ele><time>2026-05-01T08:17:57.831Z</time></trkpt><trkpt lat="42.4139986" lon="14.2359626"><ele>110.0</ele><time>2026-05-01T08:17:59.831Z</time></trkpt><trkpt lat="42.4139289" lon="14.2358348"><ele>110.0</ele><time>2026-05-01T08:18:01.831Z</time></trkpt><trkpt lat="42.4138615" lon="14.2357332"><ele>110.0</ele><time>2026-05-01T08:18:03.831Z</time></trkpt><trkpt lat="42.4137981" lon="14.2356417"><ele>110.0</ele><time>2026-05-01T08:18:05.831Z</time></trkpt><trkpt lat="42.4137121" lon="14.2356016"><ele>110.0</ele><time>2026-05-01T08:18:07.831Z</time></trkpt><trkpt lat="42.4136073" lon="14.2355978"><ele>110.0</ele><time>2026-05-01T08:18:09.831Z</time></trkpt><trkpt lat="42.4135313" lon="14.2355234"><ele>107.4</ele><time>2026-05-01T08:18:11.831Z</time></trkpt><trkpt lat="42.4134531" lon="14.2354005"><ele>104.8</ele><time>2026-05-01T08:18:13.831Z</time></trkpt><trkpt lat="42.4133729" lon="14.2353089"><ele>102.19999999999999</ele><time>2026-05-01T08:18:15.831Z</time></trkpt><trkpt lat="42.4132568" lon="14.2352511"><ele>99.6</ele><time>2026-05-01T08:18:17.831Z</time></trkpt><trkpt lat="42.41316" lon="14.2352176"><ele>97.0</ele><time>2026-05-01T08:18:19.831Z</time></trkpt><trkpt lat="42.4130931" lon="14.2352225"><ele>97.0</ele><time>2026-05-01T08:18:21.83Z</time></trkpt><trkpt lat="42.4130163" lon="14.235255"><ele>97.0</ele><time>2026-05-01T08:18:23.831Z</time></trkpt><trkpt lat="42.4129018" lon="14.2353077"><ele>97.0</ele><time>2026-05-01T08:18:25.831Z</time></trkpt><trkpt lat="42.4127963" lon="14.2353607"><ele>97.0</ele><time>2026-05-01T08:18:27.831Z</time></trkpt><trkpt lat="42.4127931" lon="14.2355194"><ele>97.0</ele><time>2026-05-01T08:18:30.83Z</time></trkpt><trkpt lat="42.4128113" lon="14.2356093"><ele>95.14285714285714</ele><time>2026-05-01T08:18:31.831Z</time></trkpt><trkpt lat="42.4128317" lon="14.2357083"><ele>93.28571428571429</ele><time>2026-05-01T08:18:32.831Z</time></trkpt><trkpt lat="42.4128524" lon="14.235796"><ele>91.42857142857143</ele><time>2026-05-01T08:18:33.831Z</time></trkpt><trkpt lat="42.4128773" lon="14.2358767"><ele>89.57142857142857</ele><time>2026-05-01T08:18:34.831Z</time></trkpt><trkpt lat="42.4129081" lon="14.2359588"><ele>87.71428571428572</ele><time>2026-05-01T08:18:35.83Z</time></trkpt><trkpt lat="42.4129451" lon="14.2360484"><ele>85.85714285714286</ele><time>2026-05-01T08:18:36.83Z</time></trkpt><trkpt lat="42.4129879" lon="14.2361415"><ele>84.0</ele><time>2026-05-01T08:18:37.831Z</time></trkpt><trkpt lat="42.4130248" lon="14.2362225"><ele>84.0</ele><time>2026-05-01T08:18:38.831Z</time></trkpt><trkpt lat="42.4130937" lon="14.236344"><ele>84.0</ele><time>2026-05-01T08:18:40.831Z</time></trkpt><trkpt lat="42.4131773" lon="14.2364594"><ele>84.0</ele><time>2026-05-01T08:18:42.831Z</time></trkpt><trkpt lat="42.4132261" lon="14.2365137"><ele>84.0</ele><time>2026-05-01T08:18:43.831Z</time></trkpt><trkpt lat="42.4132777" lon="14.2365704"><ele>84.0</ele><time>2026-05-01T08:18:44.831Z</time></trkpt><trkpt lat="42.4133336" lon="14.2366323"><ele>84.0</ele><time>2026-05-01T08:18:45.831Z</time></trkpt><trkpt lat="42.4133899" lon="14.2367144"><ele>82.66666666666667</ele><time>2026-05-01T08:18:46.83Z</time></trkpt><trkpt lat="42.4134394" lon="14.2368151"><ele>81.33333333333333</ele><time>2026-05-01T08:18:47.831Z</time></trkpt><trkpt lat="42.4134869" lon="14.2369225"><ele>80.0</ele><time>2026-05-01T08:18:48.831Z</time></trkpt><trkpt lat="42.4135332" lon="14.2370225"><ele>78.66666666666666</ele><time>2026-05-01T08:18:49.831Z</time></trkpt><trkpt lat="42.4135787" lon="14.2371147"><ele>77.33333333333333</ele><time>2026-05-01T08:18:50.831Z</time></trkpt><trkpt lat="42.4136169" lon="14.2372048"><ele>76.0</ele><time>2026-05-01T08:18:51.831Z</time></trkpt><trkpt lat="42.413655" lon="14.2372906"><ele>74.83333333333333</ele><time>2026-05-01T08:18:52.831Z</time></trkpt><trkpt lat="42.4136914" lon="14.237378"><ele>73.66666666666666</ele><time>2026-05-01T08:18:53.831Z</time></trkpt><trkpt lat="42.4137226" lon="14.2374646"><ele>72.5</ele><time>2026-05-01T08:18:54.831Z</time></trkpt><trkpt lat="42.4137473" lon="14.2375483"><ele>71.33333333333333</ele><time>2026-05-01T08:18:55.831Z</time></trkpt><trkpt lat="42.4137692" lon="14.2376394"><ele>70.16666666666667</ele><time>2026-05-01T08:18:56.831Z</time></trkpt><trkpt lat="42.4138062" lon="14.2377959"><ele>69.0</ele><time>2026-05-01T08:18:58.831Z</time></trkpt><trkpt lat="42.413844" lon="14.2379518"><ele>71.83333333333333</ele><time>2026-05-01T08:19:00.83Z</time></trkpt><trkpt lat="42.4138648" lon="14.2380342"><ele>74.66666666666667</ele><time>2026-05-01T08:19:01.831Z</time></trkpt><trkpt lat="42.413897" lon="14.2381168"><ele>77.5</ele><time>2026-05-01T08:19:02.831Z</time></trkpt><trkpt lat="42.4139317" lon="14.2382692"><ele>80.33333333333334</ele><time>2026-05-01T08:19:04.83Z</time></trkpt><trkpt lat="42.4139252" lon="14.238385"><ele>83.16666666666667</ele><time>2026-05-01T08:19:06.831Z</time></trkpt><trkpt lat="42.4139153" lon="14.2384911"><ele>86.0</ele><time>2026-05-01T08:19:09.831Z</time></trkpt><trkpt lat="42.4139137" lon="14.2385898"><ele>86.0</ele><time>2026-05-01T08:19:11.831Z</time></trkpt><trkpt lat="42.4139188" lon="14.2386936"><ele>86.0</ele><time>2026-05-01T08:19:13.831Z</time></trkpt><trkpt lat="42.4139461" lon="14.2387895"><ele>86.0</ele><time>2026-05-01T08:19:15.831Z</time></trkpt><trkpt lat="42.413966" lon="14.238905"><ele>86.0</ele><time>2026-05-01T08:19:17.831Z</time></trkpt><trkpt lat="42.4139706" lon="14.2390723"><ele>86.0</ele><time>2026-05-01T08:19:19.831Z</time></trkpt><trkpt lat="42.4139773" lon="14.2391571"><ele>86.0</ele><time>2026-05-01T08:19:20.83Z</time></trkpt><trkpt lat="42.4140397" lon="14.2392833"><ele>85.16666666666667</ele><time>2026-05-01T08:19:22.831Z</time></trkpt><trkpt lat="42.4141444" lon="14.2393764"><ele>84.33333333333334</ele><time>2026-05-01T08:19:24.831Z</time></trkpt><trkpt lat="42.4141933" lon="14.2394351"><ele>83.5</ele><time>2026-05-01T08:19:25.831Z</time></trkpt><trkpt lat="42.4142325" lon="14.2395707"><ele>82.66666666666667</ele><time>2026-05-01T08:19:27.831Z</time></trkpt><trkpt lat="42.4142233" lon="14.2396584"><ele>81.83333333333333</ele><time>2026-05-01T08:19:28.831Z</time></trkpt><trkpt lat="42.4142076" lon="14.239747"><ele>81.0</ele><time>2026-05-01T08:19:29.831Z</time></trkpt><trkpt lat="42.4141957" lon="14.2398373"><ele>79.83333333333333</ele><time>2026-05-01T08:19:30.831Z</time></trkpt><trkpt lat="42.4141898" lon="14.239927"><ele>78.66666666666667</ele><time>2026-05-01T08:19:31.831Z</time></trkpt><trkpt lat="42.4141994" lon="14.2400169"><ele>77.5</ele><time>2026-05-01T08:19:32.831Z</time></trkpt><trkpt lat="42.4142284" lon="14.2401014"><ele>76.33333333333334</ele><time>2026-05-01T08:19:33.831Z</time></trkpt><trkpt lat="42.4142673" lon="14.2401775"><ele>75.16666666666667</ele><time>2026-05-01T08:19:34.83Z</time></trkpt><trkpt lat="42.4143519" lon="14.2403166"><ele>74.0</ele><time>2026-05-01T08:19:36.831Z</time></trkpt><trkpt lat="42.414434" lon="14.2404435"><ele>74.0</ele><time>2026-05-01T08:19:38.831Z</time></trkpt><trkpt lat="42.4145106" lon="14.240569"><ele>74.0</ele><time>2026-05-01T08:19:40.831Z</time></trkpt><trkpt lat="42.4145746" lon="14.2406894"><ele>74.0</ele><time>2026-05-01T08:19:42.831Z</time></trkpt><trkpt lat="42.4146109" lon="14.2408188"><ele>74.0</ele><time>2026-05-01T08:19:44.831Z</time></trkpt><trkpt lat="42.414641" lon="14.2409751"><ele>72.60000000000001</ele><time>2026-05-01T08:19:46.831Z</time></trkpt><trkpt lat="42.4146745" lon="14.2411177"><ele>71.2</ele><time>2026-05-01T08:19:48.831Z</time></trkpt><trkpt lat="42.4147249" lon="14.2412333"><ele>69.80000000000001</ele><time>2026-05-01T08:19:50.83Z</time></trkpt><trkpt lat="42.4147784" lon="14.2413209"><ele>68.4</ele><time>2026-05-01T08:19:52.831Z</time></trkpt><trkpt lat="42.414848" lon="14.2413909"><ele>67.0</ele><time>2026-05-01T08:19:54.831Z</time></trkpt><trkpt lat="42.4149497" lon="14.2415136"><ele>67.0</ele><time>2026-05-01T08:19:56.831Z</time></trkpt><trkpt lat="42.4150131" lon="14.241591"><ele>67.0</ele><time>2026-05-01T08:19:57.83Z</time></trkpt><trkpt lat="42.4150851" lon="14.2416739"><ele>67.0</ele><time>2026-05-01T08:19:58.831Z</time></trkpt><trkpt lat="42.4151479" lon="14.2417463"><ele>67.0</ele><time>2026-05-01T08:19:59.831Z</time></trkpt><trkpt lat="42.4151979" lon="14.241812"><ele>67.0</ele><time>2026-05-01T08:20:00.831Z</time></trkpt><trkpt lat="42.4152464" lon="14.2418888"><ele>67.0</ele><time>2026-05-01T08:20:01.83Z</time></trkpt><trkpt lat="42.4152863" lon="14.2419686"><ele>67.0</ele><time>2026-05-01T08:20:02.831Z</time></trkpt><trkpt lat="42.4153199" lon="14.2420589"><ele>67.0</ele><time>2026-05-01T08:20:03.831Z</time></trkpt><trkpt lat="42.4153533" lon="14.2421703"><ele>67.0</ele><time>2026-05-01T08:20:04.831Z</time></trkpt><trkpt lat="42.415383" lon="14.2422757"><ele>67.0</ele><time>2026-05-01T08:20:05.831Z</time></trkpt><trkpt lat="42.4154121" lon="14.2423699"><ele>67.0</ele><time>2026-05-01T08:20:06.831Z</time></trkpt><trkpt lat="42.4154303" lon="14.242466"><ele>67.0</ele><time>2026-05-01T08:20:07.831Z</time></trkpt><trkpt lat="42.4154454" lon="14.2425565"><ele>66.16666666666666</ele><time>2026-05-01T08:20:08.831Z</time></trkpt><trkpt lat="42.4154921" lon="14.2427232"><ele>65.33333333333333</ele><time>2026-05-01T08:20:10.831Z</time></trkpt><trkpt lat="42.4155278" lon="14.2428154"><ele>64.5</ele><time>2026-05-01T08:20:11.831Z</time></trkpt><trkpt lat="42.4155622" lon="14.242902"><ele>63.66666666666667</ele><time>2026-05-01T08:20:12.83Z</time></trkpt><trkpt lat="42.4155951" lon="14.2429902"><ele>62.833333333333336</ele><time>2026-05-01T08:20:13.83Z</time></trkpt><trkpt lat="42.4156332" lon="14.2430734"><ele>62.0</ele><time>2026-05-01T08:20:14.831Z</time></trkpt><trkpt lat="42.4157028" lon="14.2431681"><ele>62.0</ele><time>2026-05-01T08:20:16.831Z</time></trkpt><trkpt lat="42.4158005" lon="14.2431733"><ele>62.0</ele><time>2026-05-01T08:20:18.831Z</time></trkpt><trkpt lat="42.4159064" lon="14.2431423"><ele>62.0</ele><time>2026-05-01T08:20:20.831Z</time></trkpt><trkpt lat="42.4160151" lon="14.2431871"><ele>62.0</ele><time>2026-05-01T08:20:22.831Z</time></trkpt><trkpt lat="42.4161357" lon="14.2432663"><ele>62.0</ele><time>2026-05-01T08:20:24.831Z</time></trkpt><trkpt lat="42.4162022" lon="14.2432986"><ele>62.00000000000001</ele><time>2026-05-01T08:20:25.831Z</time></trkpt><trkpt lat="42.4162676" lon="14.2433253"><ele>62.0</ele><time>2026-05-01T08:20:26.831Z</time></trkpt><trkpt lat="42.4163376" lon="14.2433541"><ele>62.0</ele><time>2026-05-01T08:20:27.831Z</time></trkpt><trkpt lat="42.4164069" lon="14.2433831"><ele>62.00000000000001</ele><time>2026-05-01T08:20:28.83Z</time></trkpt><trkpt lat="42.4164701" lon="14.2434248"><ele>62.0</ele><time>2026-05-01T08:20:29.831Z</time></trkpt><trkpt lat="42.4165295" lon="14.2434682"><ele>62.0</ele><time>2026-05-01T08:20:30.831Z</time></trkpt><trkpt lat="42.4165874" lon="14.2435235"><ele>62.85714285714286</ele><time>2026-05-01T08:20:31.831Z</time></trkpt><trkpt lat="42.4166398" lon="14.2435891"><ele>63.71428571428572</ele><time>2026-05-01T08:20:32.831Z</time></trkpt><trkpt lat="42.4166881" lon="14.2436666"><ele>64.57142857142857</ele><time>2026-05-01T08:20:33.83Z</time></trkpt><trkpt lat="42.4167323" lon="14.2437575"><ele>65.42857142857143</ele><time>2026-05-01T08:20:34.831Z</time></trkpt><trkpt lat="42.4167676" lon="14.2438467"><ele>66.28571428571428</ele><time>2026-05-01T08:20:35.831Z</time></trkpt><trkpt lat="42.4168032" lon="14.2439357"><ele>67.14285714285714</ele><time>2026-05-01T08:20:36.831Z</time></trkpt><trkpt lat="42.4168394" lon="14.2440194"><ele>68.0</ele><time>2026-05-01T08:20:37.831Z</time></trkpt><trkpt lat="42.4168704" lon="14.244096"><ele>68.0</ele><time>2026-05-01T08:20:38.831Z</time></trkpt><trkpt lat="42.4169285" lon="14.2442203"><ele>68.0</ele><time>2026-05-01T08:20:40.831Z</time></trkpt><trkpt lat="42.4170082" lon="14.2442033"><ele>68.0</ele><time>2026-05-01T08:21:21.83Z</time></trkpt><trkpt lat="42.4171056" lon="14.2441105"><ele>68.0</ele><time>2026-05-01T08:21:23.831Z</time></trkpt><trkpt lat="42.4171506" lon="14.2440507"><ele>68.0</ele><time>2026-05-01T08:21:24.83Z</time></trkpt><trkpt lat="42.4172367" lon="14.2439481"><ele>74.0</ele><time>2026-05-01T08:21:26.83Z</time></trkpt><trkpt lat="42.4174404" lon="14.2438336"><ele>80.0</ele><time>2026-05-01T08:21:30.831Z</time></trkpt><trkpt lat="42.4174929" lon="14.2437437"><ele>86.0</ele><time>2026-05-01T08:21:32.83Z</time></trkpt><trkpt lat="42.4175244" lon="14.2436135"><ele>92.0</ele><time>2026-05-01T08:21:34.831Z</time></trkpt><trkpt lat="42.4176021" lon="14.2435519"><ele>92.0</ele><time>2026-05-01T08:21:36.831Z</time></trkpt><trkpt lat="42.4176691" lon="14.2435477"><ele>92.0</ele><time>2026-05-01T08:21:37.831Z</time></trkpt><trkpt lat="42.4177499" lon="14.2435422"><ele>92.0</ele><time>2026-05-01T08:21:38.831Z</time></trkpt><trkpt lat="42.4178338" lon="14.243538"><ele>92.0</ele><time>2026-05-01T08:21:39.831Z</time></trkpt><trkpt lat="42.4179186" lon="14.2435336"><ele>92.0</ele><time>2026-05-01T08:21:40.831Z</time></trkpt><trkpt lat="42.4179941" lon="14.2435286"><ele>92.0</ele><time>2026-05-01T08:21:41.831Z</time></trkpt><trkpt lat="42.4180645" lon="14.2435512"><ele>93.83333333333334</ele><time>2026-05-01T08:21:42.831Z</time></trkpt><trkpt lat="42.4181199" lon="14.2435998"><ele>95.66666666666667</ele><time>2026-05-01T08:21:43.831Z</time></trkpt><trkpt lat="42.4181613" lon="14.2436748"><ele>97.5</ele><time>2026-05-01T08:21:44.831Z</time></trkpt><trkpt lat="42.4181967" lon="14.2437478"><ele>99.33333333333334</ele><time>2026-05-01T08:21:45.831Z</time></trkpt><trkpt lat="42.4182477" lon="14.2438823"><ele>101.16666666666667</ele><time>2026-05-01T08:21:47.831Z</time></trkpt><trkpt lat="42.4183016" lon="14.2440265"><ele>103.0</ele><time>2026-05-01T08:21:49.831Z</time></trkpt><trkpt lat="42.4183941" lon="14.244112"><ele>103.00000000000001</ele><time>2026-05-01T08:21:51.831Z</time></trkpt><trkpt lat="42.418459" lon="14.2441356"><ele>103.0</ele><time>2026-05-01T08:21:52.831Z</time></trkpt><trkpt lat="42.4185351" lon="14.2441617"><ele>103.0</ele><time>2026-05-01T08:21:53.831Z</time></trkpt><trkpt lat="42.4186046" lon="14.2441938"><ele>103.0</ele><time>2026-05-01T08:21:54.83Z</time></trkpt><trkpt lat="42.418666" lon="14.2442309"><ele>103.00000000000001</ele><time>2026-05-01T08:21:55.831Z</time></trkpt><trkpt lat="42.4187544" lon="14.2442804"><ele>103.0</ele><time>2026-05-01T08:21:57.831Z</time></trkpt><trkpt lat="42.418826" lon="14.2443204"><ele>104.16666666666667</ele><time>2026-05-01T08:22:00.83Z</time></trkpt><trkpt lat="42.4188806" lon="14.2443667"><ele>105.33333333333334</ele><time>2026-05-01T08:24:06.831Z</time></trkpt><trkpt lat="42.4189126" lon="14.2444701"><ele>106.5</ele><time>2026-05-01T08:24:08.831Z</time></trkpt><trkpt lat="42.418922" lon="14.2445594"><ele>107.66666666666666</ele><time>2026-05-01T08:24:09.831Z</time></trkpt><trkpt lat="42.4189261" lon="14.2446627"><ele>108.83333333333333</ele><time>2026-05-01T08:24:10.831Z</time></trkpt><trkpt lat="42.4189653" lon="14.2447757"><ele>110.0</ele><time>2026-05-01T08:24:12.83Z</time></trkpt><trkpt lat="42.4190519" lon="14.2447007"><ele>110.0</ele><time>2026-05-01T08:24:15.831Z</time></trkpt><trkpt lat="42.4190922" lon="14.2446265"><ele>110.0</ele><time>2026-05-01T08:24:16.83Z</time></trkpt><trkpt lat="42.4191788" lon="14.2445347"><ele>110.0</ele><time>2026-05-01T08:24:18.831Z</time></trkpt><trkpt lat="42.4192693" lon="14.2445457"><ele>110.0</ele><time>2026-05-01T08:24:20.831Z</time></trkpt><trkpt lat="42.4193191" lon="14.2446364"><ele>110.0</ele><time>2026-05-01T08:24:22.83Z</time></trkpt><trkpt lat="42.4193714" lon="14.2447981"><ele>108.2</ele><time>2026-05-01T08:24:24.831Z</time></trkpt><trkpt lat="42.4194092" lon="14.2449274"><ele>106.4</ele><time>2026-05-01T08:24:25.831Z</time></trkpt><trkpt lat="42.4194437" lon="14.2450661"><ele>104.6</ele><time>2026-05-01T08:24:26.831Z</time></trkpt><trkpt lat="42.4194817" lon="14.2452116"><ele>102.8</ele><time>2026-05-01T08:24:27.831Z</time></trkpt><trkpt lat="42.4195264" lon="14.2453643"><ele>101.0</ele><time>2026-05-01T08:24:28.831Z</time></trkpt><trkpt lat="42.4195746" lon="14.2455199"><ele>99.25</ele><time>2026-05-01T08:24:29.83Z</time></trkpt><trkpt lat="42.4196203" lon="14.2456795"><ele>97.5</ele><time>2026-05-01T08:24:30.831Z</time></trkpt><trkpt lat="42.4196687" lon="14.2458613"><ele>95.75</ele><time>2026-05-01T08:24:31.831Z</time></trkpt><trkpt lat="42.4197243" lon="14.2460592"><ele>94.0</ele><time>2026-05-01T08:24:32.831Z</time></trkpt><trkpt lat="42.4197808" lon="14.2462627"><ele>98.0</ele><time>2026-05-01T08:24:33.831Z</time></trkpt><trkpt lat="42.4198335" lon="14.2464544"><ele>102.0</ele><time>2026-05-01T08:24:34.831Z</time></trkpt><trkpt lat="42.4198691" lon="14.2465833"><ele>106.0</ele><time>2026-05-01T08:24:35.831Z</time></trkpt><trkpt lat="42.4198879" lon="14.2466713"><ele>110.0</ele><time>2026-05-01T08:24:36.831Z</time></trkpt><trkpt lat="42.4199018" lon="14.2467971"><ele>114.0</ele><time>2026-05-01T08:24:38.831Z</time></trkpt><trkpt lat="42.4198982" lon="14.2468989"><ele>114.25</ele><time>2026-05-01T08:24:39.831Z</time></trkpt><trkpt lat="42.419895" lon="14.2470424"><ele>114.5</ele><time>2026-05-01T08:24:40.831Z</time></trkpt><trkpt lat="42.4199028" lon="14.2472104"><ele>114.75</ele><time>2026-05-01T08:24:41.831Z</time></trkpt><trkpt lat="42.4199176" lon="14.247383"><ele>115.0</ele><time>2026-05-01T08:24:42.831Z</time></trkpt><trkpt lat="42.4199377" lon="14.2475504"><ele>114.2</ele><time>2026-05-01T08:24:43.83Z</time></trkpt><trkpt lat="42.4199573" lon="14.2477058"><ele>113.4</ele><time>2026-05-01T08:24:44.831Z</time></trkpt><trkpt lat="42.4199756" lon="14.2478491"><ele>112.6</ele><time>2026-05-01T08:24:45.831Z</time></trkpt><trkpt lat="42.4200025" lon="14.2479883"><ele>111.8</ele><time>2026-05-01T08:24:46.831Z</time></trkpt><trkpt lat="42.4200272" lon="14.2481253"><ele>111.0</ele><time>2026-05-01T08:24:47.831Z</time></trkpt><trkpt lat="42.4200531" lon="14.2482624"><ele>109.8</ele><time>2026-05-01T08:24:48.831Z</time></trkpt><trkpt lat="42.4200784" lon="14.2483997"><ele>108.6</ele><time>2026-05-01T08:24:49.83Z</time></trkpt><trkpt lat="42.4201041" lon="14.2485195"><ele>107.4</ele><time>2026-05-01T08:24:50.831Z</time></trkpt><trkpt lat="42.4201249" lon="14.2486192"><ele>106.2</ele><time>2026-05-01T08:24:51.831Z</time></trkpt><trkpt lat="42.4201611" lon="14.2487557"><ele>105.0</ele><time>2026-05-01T08:24:53.831Z</time></trkpt><trkpt lat="42.4201222" lon="14.2488911"><ele>103.8</ele><time>2026-05-01T08:24:56.831Z</time></trkpt><trkpt lat="42.4200111" lon="14.2490035"><ele>102.6</ele><time>2026-05-01T08:24:58.831Z</time></trkpt><trkpt lat="42.4199454" lon="14.2490651"><ele>101.4</ele><time>2026-05-01T08:24:59.831Z</time></trkpt><trkpt lat="42.4198811" lon="14.2491236"><ele>100.2</ele><time>2026-05-01T08:25:00.831Z</time></trkpt><trkpt lat="42.4198119" lon="14.2491912"><ele>99.0</ele><time>2026-05-01T08:25:01.831Z</time></trkpt><trkpt lat="42.4197383" lon="14.2492614"><ele>99.0</ele><time>2026-05-01T08:25:02.831Z</time></trkpt><trkpt lat="42.4196692" lon="14.2493393"><ele>99.0</ele><time>2026-05-01T08:25:03.831Z</time></trkpt><trkpt lat="42.4196111" lon="14.249427"><ele>99.0</ele><time>2026-05-01T08:25:04.83Z</time></trkpt><trkpt lat="42.419568" lon="14.2495107"><ele>99.0</ele><time>2026-05-01T08:25:06.831Z</time></trkpt><trkpt lat="42.4196024" lon="14.2494058"><ele>99.0</ele><time>2026-05-01T08:25:26.832Z</time></trkpt><trkpt lat="42.4195334" lon="14.2493141"><ele>99.0</ele><time>2026-05-01T08:25:29.832Z</time></trkpt><trkpt lat="42.4194678" lon="14.2492802"><ele>96.0</ele><time>2026-05-01T08:25:30.832Z</time></trkpt><trkpt lat="42.4193926" lon="14.249243"><ele>93.0</ele><time>2026-05-01T08:25:31.831Z</time></trkpt><trkpt lat="42.419302" lon="14.2492056"><ele>90.0</ele><time>2026-05-01T08:25:32.831Z</time></trkpt><trkpt lat="42.419201" lon="14.249174"><ele>87.0</ele><time>2026-05-01T08:25:33.832Z</time></trkpt><trkpt lat="42.4191049" lon="14.2491484"><ele>84.0</ele><time>2026-05-01T08:25:34.831Z</time></trkpt><trkpt lat="42.419005" lon="14.2491248"><ele>84.0</ele><time>2026-05-01T08:25:35.832Z</time></trkpt><trkpt lat="42.4189026" lon="14.2490994"><ele>84.0</ele><time>2026-05-01T08:25:36.832Z</time></trkpt><trkpt lat="42.4187948" lon="14.2490732"><ele>84.0</ele><time>2026-05-01T08:25:37.832Z</time></trkpt><trkpt lat="42.4186933" lon="14.2490485"><ele>84.0</ele><time>2026-05-01T08:25:38.832Z</time></trkpt><trkpt lat="42.4185991" lon="14.2490218"><ele>84.0</ele><time>2026-05-01T08:25:39.832Z</time></trkpt><trkpt lat="42.4185107" lon="14.2490016"><ele>79.33333333333333</ele><time>2026-05-01T08:25:40.832Z</time></trkpt><trkpt lat="42.4184183" lon="14.2489958"><ele>74.66666666666666</ele><time>2026-05-01T08:25:41.832Z</time></trkpt><trkpt lat="42.4183196" lon="14.24898"><ele>70.0</ele><time>2026-05-01T08:25:42.832Z</time></trkpt><trkpt lat="42.4180271" lon="14.2489309"><ele>66.6</ele><time>2026-05-01T08:25:46.832Z</time></trkpt><trkpt lat="42.4178947" lon="14.2488876"><ele>63.2</ele><time>2026-05-01T08:25:47.832Z</time></trkpt><trkpt lat="42.4178061" lon="14.2487637"><ele>59.8</ele><time>2026-05-01T08:25:49.832Z</time></trkpt><trkpt lat="42.4177132" lon="14.2486745"><ele>56.4</ele><time>2026-05-01T08:25:51.831Z</time></trkpt><trkpt lat="42.4176472" lon="14.248642"><ele>53.0</ele><time>2026-05-01T08:25:52.832Z</time></trkpt><trkpt lat="42.4175708" lon="14.248615"><ele>53.0</ele><time>2026-05-01T08:25:53.832Z</time></trkpt><trkpt lat="42.4174953" lon="14.2485819"><ele>53.0</ele><time>2026-05-01T08:25:54.831Z</time></trkpt><trkpt lat="42.4174314" lon="14.2485498"><ele>53.0</ele><time>2026-05-01T08:25:55.831Z</time></trkpt><trkpt lat="42.4173458" lon="14.2485046"><ele>53.0</ele><time>2026-05-01T08:25:57.832Z</time></trkpt><trkpt lat="42.4172897" lon="14.2484131"><ele>53.0</ele><time>2026-05-01T08:25:59.832Z</time></trkpt><trkpt lat="42.4172399" lon="14.2482576"><ele>53.2</ele><time>2026-05-01T08:26:01.832Z</time></trkpt><trkpt lat="42.4172305" lon="14.2480867"><ele>53.4</ele><time>2026-05-01T08:26:03.831Z</time></trkpt><trkpt lat="42.4172291" lon="14.2479717"><ele>53.60000000000001</ele><time>2026-05-01T08:26:05.832Z</time></trkpt><trkpt lat="42.4171314" lon="14.2479267"><ele>53.800000000000004</ele><time>2026-05-01T08:26:08.831Z</time></trkpt><trkpt lat="42.4170108" lon="14.2479033"><ele>54.0</ele><time>2026-05-01T08:26:10.832Z</time></trkpt><trkpt lat="42.4169449" lon="14.2478872"><ele>52.166666666666664</ele><time>2026-05-01T08:26:11.832Z</time></trkpt><trkpt lat="42.416878" lon="14.247866"><ele>50.333333333333336</ele><time>2026-05-01T08:26:12.832Z</time></trkpt><trkpt lat="42.4168093" lon="14.2478471"><ele>48.5</ele><time>2026-05-01T08:26:13.832Z</time></trkpt><trkpt lat="42.4167468" lon="14.2478219"><ele>46.66666666666667</ele><time>2026-05-01T08:26:14.832Z</time></trkpt><trkpt lat="42.4166235" lon="14.2478016"><ele>44.833333333333336</ele><time>2026-05-01T08:26:16.831Z</time></trkpt><trkpt lat="42.4165566" lon="14.2478042"><ele>43.0</ele><time>2026-05-01T08:26:17.832Z</time></trkpt><trkpt lat="42.4164676" lon="14.2478507"><ele>43.0</ele><time>2026-05-01T08:26:19.832Z</time></trkpt><trkpt lat="42.4163808" lon="14.2479789"><ele>43.0</ele><time>2026-05-01T08:26:21.832Z</time></trkpt><trkpt lat="42.4163185" lon="14.2480623"><ele>43.0</ele><time>2026-05-01T08:26:22.832Z</time></trkpt><trkpt lat="42.4162541" lon="14.2481466"><ele>43.0</ele><time>2026-05-01T08:26:23.832Z</time></trkpt><trkpt lat="42.4161836" lon="14.248243"><ele>43.0</ele><time>2026-05-01T08:26:24.832Z</time></trkpt><trkpt lat="42.4161139" lon="14.2483396"><ele>45.2</ele><time>2026-05-01T08:26:25.831Z</time></trkpt><trkpt lat="42.4160362" lon="14.2484322"><ele>47.4</ele><time>2026-05-01T08:26:26.832Z</time></trkpt><trkpt lat="42.4159591" lon="14.2485261"><ele>49.60000000000001</ele><time>2026-05-01T08:26:27.832Z</time></trkpt><trkpt lat="42.4158867" lon="14.2486147"><ele>51.800000000000004</ele><time>2026-05-01T08:26:28.832Z</time></trkpt><trkpt lat="42.4158133" lon="14.2486962"><ele>54.0</ele><time>2026-05-01T08:26:29.832Z</time></trkpt><trkpt lat="42.4157395" lon="14.2487719"><ele>54.0</ele><time>2026-05-01T08:26:30.832Z</time></trkpt><trkpt lat="42.4156666" lon="14.2488411"><ele>54.00000000000001</ele><time>2026-05-01T08:26:31.832Z</time></trkpt><trkpt lat="42.4155924" lon="14.2489144"><ele>54.00000000000001</ele><time>2026-05-01T08:26:32.832Z</time></trkpt><trkpt lat="42.4155158" lon="14.2489989"><ele>54.0</ele><time>2026-05-01T08:26:33.832Z</time></trkpt><trkpt lat="42.4154453" lon="14.2490904"><ele>54.0</ele><time>2026-05-01T08:26:34.832Z</time></trkpt><trkpt lat="42.415378" lon="14.2491857"><ele>57.666666666666664</ele><time>2026-05-01T08:26:35.832Z</time></trkpt><trkpt lat="42.415329" lon="14.2492851"><ele>61.33333333333333</ele><time>2026-05-01T08:26:36.832Z</time></trkpt><trkpt lat="42.4152805" lon="14.2493702"><ele>65.0</ele><time>2026-05-01T08:26:37.832Z</time></trkpt><trkpt lat="42.4152238" lon="14.2494512"><ele>68.66666666666666</ele><time>2026-05-01T08:26:38.832Z</time></trkpt><trkpt lat="42.4151558" lon="14.2495371"><ele>72.33333333333333</ele><time>2026-05-01T08:26:39.832Z</time></trkpt><trkpt lat="42.4150875" lon="14.2496134"><ele>76.0</ele><time>2026-05-01T08:26:40.832Z</time></trkpt><trkpt lat="42.4150219" lon="14.2496787"><ele>76.0</ele><time>2026-05-01T08:26:41.832Z</time></trkpt><trkpt lat="42.4149463" lon="14.2497326"><ele>76.0</ele><time>2026-05-01T08:26:42.832Z</time></trkpt><trkpt lat="42.4148701" lon="14.2497968"><ele>76.0</ele><time>2026-05-01T08:26:43.832Z</time></trkpt><trkpt lat="42.4147858" lon="14.2498697"><ele>76.0</ele><time>2026-05-01T08:26:44.832Z</time></trkpt><trkpt lat="42.4147003" lon="14.2499442"><ele>76.0</ele><time>2026-05-01T08:26:45.831Z</time></trkpt><trkpt lat="42.4146065" lon="14.2500309"><ele>78.0</ele><time>2026-05-01T08:26:46.832Z</time></trkpt><trkpt lat="42.4145218" lon="14.2501136"><ele>80.0</ele><time>2026-05-01T08:26:47.831Z</time></trkpt><trkpt lat="42.4144541" lon="14.2501857"><ele>82.0</ele><time>2026-05-01T08:26:48.832Z</time></trkpt><trkpt lat="42.4143972" lon="14.2502441"><ele>84.0</ele><time>2026-05-01T08:26:49.832Z</time></trkpt><trkpt lat="42.4143021" lon="14.2502804"><ele>86.0</ele><time>2026-05-01T08:26:51.832Z</time></trkpt><trkpt lat="42.4142205" lon="14.250194"><ele>86.0</ele><time>2026-05-01T08:26:53.832Z</time></trkpt><trkpt lat="42.4141726" lon="14.2501049"><ele>86.0</ele><time>2026-05-01T08:26:54.832Z</time></trkpt><trkpt lat="42.4141138" lon="14.2500167"><ele>86.0</ele><time>2026-05-01T08:26:55.832Z</time></trkpt><trkpt lat="42.4140369" lon="14.249937"><ele>86.0</ele><time>2026-05-01T08:26:56.831Z</time></trkpt><trkpt lat="42.4139458" lon="14.2498599"><ele>86.0</ele><time>2026-05-01T08:26:57.832Z</time></trkpt><trkpt lat="42.4138466" lon="14.2497976"><ele>86.6</ele><time>2026-05-01T08:26:58.831Z</time></trkpt><trkpt lat="42.4137473" lon="14.2497647"><ele>87.19999999999999</ele><time>2026-05-01T08:26:59.832Z</time></trkpt><trkpt lat="42.413646" lon="14.2497603"><ele>87.80000000000001</ele><time>2026-05-01T08:27:00.832Z</time></trkpt><trkpt lat="42.4135336" lon="14.2497848"><ele>88.4</ele><time>2026-05-01T08:27:01.832Z</time></trkpt><trkpt lat="42.4134291" lon="14.2498147"><ele>89.0</ele><time>2026-05-01T08:27:02.832Z</time></trkpt><trkpt lat="42.4133407" lon="14.2498424"><ele>89.0</ele><time>2026-05-01T08:27:03.832Z</time></trkpt><trkpt lat="42.4132782" lon="14.2498595"><ele>89.0</ele><time>2026-05-01T08:27:04.832Z</time></trkpt><trkpt lat="42.4132138" lon="14.2498922"><ele>89.0</ele><time>2026-05-01T08:27:06.832Z</time></trkpt><trkpt lat="42.4131625" lon="14.2498112"><ele>89.0</ele><time>2026-05-01T08:27:09.831Z</time></trkpt><trkpt lat="42.4131604" lon="14.2497034"><ele>89.0</ele><time>2026-05-01T08:27:10.831Z</time></trkpt><trkpt lat="42.4131441" lon="14.2495858"><ele>89.0</ele><time>2026-05-01T08:27:11.832Z</time></trkpt><trkpt lat="42.4131301" lon="14.2494379"><ele>90.25</ele><time>2026-05-01T08:27:12.832Z</time></trkpt><trkpt lat="42.4131094" lon="14.2492802"><ele>91.5</ele><time>2026-05-01T08:27:13.832Z</time></trkpt><trkpt lat="42.4130902" lon="14.2491102"><ele>92.75</ele><time>2026-05-01T08:27:14.832Z</time></trkpt><trkpt lat="42.4130644" lon="14.2489383"><ele>94.0</ele><time>2026-05-01T08:27:15.832Z</time></trkpt><trkpt lat="42.4130366" lon="14.2487653"><ele>94.75</ele><time>2026-05-01T08:27:16.831Z</time></trkpt><trkpt lat="42.4130046" lon="14.2485856"><ele>95.5</ele><time>2026-05-01T08:27:17.832Z</time></trkpt><trkpt lat="42.4129724" lon="14.2484046"><ele>96.25</ele><time>2026-05-01T08:27:18.832Z</time></trkpt><trkpt lat="42.4129438" lon="14.2482291"><ele>97.0</ele><time>2026-05-01T08:27:19.832Z</time></trkpt><trkpt lat="42.4129171" lon="14.2480677"><ele>97.0</ele><time>2026-05-01T08:27:20.831Z</time></trkpt><trkpt lat="42.4128893" lon="14.2479008"><ele>97.0</ele><time>2026-05-01T08:27:21.832Z</time></trkpt><trkpt lat="42.4128587" lon="14.247733"><ele>97.0</ele><time>2026-05-01T08:27:22.832Z</time></trkpt><trkpt lat="42.4128287" lon="14.2475758"><ele>97.0</ele><time>2026-05-01T08:27:23.832Z</time></trkpt><trkpt lat="42.4128016" lon="14.2474347"><ele>97.00000000000001</ele><time>2026-05-01T08:27:24.832Z</time></trkpt><trkpt lat="42.4127775" lon="14.2473278"><ele>97.0</ele><time>2026-05-01T08:27:25.832Z</time></trkpt><trkpt lat="42.4127683" lon="14.2472057"><ele>97.0</ele><time>2026-05-01T08:27:27.832Z</time></trkpt><trkpt lat="42.4128539" lon="14.2471429"><ele>97.0</ele><time>2026-05-01T08:27:29.832Z</time></trkpt><trkpt lat="42.4129272" lon="14.2471014"><ele>97.00000000000001</ele><time>2026-05-01T08:27:30.832Z</time></trkpt><trkpt lat="42.413007" lon="14.2470622"><ele>97.0</ele><time>2026-05-01T08:27:31.832Z</time></trkpt><trkpt lat="42.4131009" lon="14.2470174"><ele>99.39999999999999</ele><time>2026-05-01T08:27:32.831Z</time></trkpt><trkpt lat="42.4132112" lon="14.2469663"><ele>101.8</ele><time>2026-05-01T08:27:33.832Z</time></trkpt><trkpt lat="42.4133094" lon="14.2469061"><ele>104.2</ele><time>2026-05-01T08:27:34.832Z</time></trkpt><trkpt lat="42.4133867" lon="14.2468607"><ele>106.6</ele><time>2026-05-01T08:27:35.832Z</time></trkpt><trkpt lat="42.4134525" lon="14.2468147"><ele>109.0</ele><time>2026-05-01T08:27:36.832Z</time></trkpt><trkpt lat="42.413517" lon="14.2467768"><ele>109.0</ele><time>2026-05-01T08:27:37.832Z</time></trkpt><trkpt lat="42.4136251" lon="14.2467011"><ele>109.0</ele><time>2026-05-01T08:27:39.832Z</time></trkpt><trkpt lat="42.4136852" lon="14.2465699"><ele>109.0</ele><time>2026-05-01T08:27:41.832Z</time></trkpt><trkpt lat="42.4137005" lon="14.2464715"><ele>109.0</ele><time>2026-05-01T08:27:42.831Z</time></trkpt><trkpt lat="42.4137315" lon="14.2463662"><ele>109.0</ele><time>2026-05-01T08:27:43.832Z</time></trkpt><trkpt lat="42.4137725" lon="14.2462218"><ele>110.4</ele><time>2026-05-01T08:27:45.832Z</time></trkpt><trkpt lat="42.413795" lon="14.2460453"><ele>111.80000000000001</ele><time>2026-05-01T08:27:47.831Z</time></trkpt><trkpt lat="42.4138017" lon="14.2459472"><ele>113.19999999999999</ele><time>2026-05-01T08:27:48.832Z</time></trkpt><trkpt lat="42.4138044" lon="14.2458268"><ele>114.6</ele><time>2026-05-01T08:27:49.832Z</time></trkpt><trkpt lat="42.4137807" lon="14.2457033"><ele>116.0</ele><time>2026-05-01T08:27:50.831Z</time></trkpt><trkpt lat="42.4137522" lon="14.2455974"><ele>116.83333333333333</ele><time>2026-05-01T08:27:51.832Z</time></trkpt><trkpt lat="42.4137256" lon="14.2454907"><ele>117.66666666666666</ele><time>2026-05-01T08:27:52.832Z</time></trkpt><trkpt lat="42.4136899" lon="14.2453782"><ele>118.5</ele><time>2026-05-01T08:27:53.832Z</time></trkpt><trkpt lat="42.4136438" lon="14.2452693"><ele>119.33333333333334</ele><time>2026-05-01T08:27:54.832Z</time></trkpt><trkpt lat="42.4136021" lon="14.2451728"><ele>120.16666666666667</ele><time>2026-05-01T08:27:55.832Z</time></trkpt><trkpt lat="42.4135632" lon="14.2450904"><ele>121.0</ele><time>2026-05-01T08:27:56.832Z</time></trkpt><trkpt lat="42.4135327" lon="14.2450068"><ele>121.00000000000001</ele><time>2026-05-01T08:27:57.832Z</time></trkpt><trkpt lat="42.4135194" lon="14.2448524"><ele>121.0</ele><time>2026-05-01T08:27:59.832Z</time></trkpt><trkpt lat="42.4135212" lon="14.2447352"><ele>121.0</ele><time>2026-05-01T08:28:00.832Z</time></trkpt><trkpt lat="42.413514" lon="14.2446292"><ele>121.0</ele><time>2026-05-01T08:28:01.832Z</time></trkpt><trkpt lat="42.4134908" lon="14.2445302"><ele>121.00000000000001</ele><time>2026-05-01T08:28:02.832Z</time></trkpt><trkpt lat="42.4134609" lon="14.2444468"><ele>121.0</ele><time>2026-05-01T08:28:03.832Z</time></trkpt><trkpt lat="42.4134208" lon="14.2443576"><ele>121.33333333333334</ele><time>2026-05-01T08:28:04.832Z</time></trkpt><trkpt lat="42.4133821" lon="14.244268"><ele>121.66666666666667</ele><time>2026-05-01T08:28:05.831Z</time></trkpt><trkpt lat="42.4133417" lon="14.2441736"><ele>122.0</ele><time>2026-05-01T08:28:06.831Z</time></trkpt><trkpt lat="42.4133046" lon="14.2440784"><ele>122.33333333333334</ele><time>2026-05-01T08:28:07.832Z</time></trkpt><trkpt lat="42.4132708" lon="14.2439887"><ele>122.66666666666667</ele><time>2026-05-01T08:28:08.832Z</time></trkpt><trkpt lat="42.4132292" lon="14.2439087"><ele>123.0</ele><time>2026-05-01T08:28:09.832Z</time></trkpt><trkpt lat="42.4131831" lon="14.2438231"><ele>121.80000000000001</ele><time>2026-05-01T08:28:10.832Z</time></trkpt><trkpt lat="42.4131439" lon="14.2437242"><ele>120.60000000000001</ele><time>2026-05-01T08:28:11.832Z</time></trkpt><trkpt lat="42.4131073" lon="14.2436076"><ele>119.39999999999999</ele><time>2026-05-01T08:28:12.832Z</time></trkpt><trkpt lat="42.4130831" lon="14.2434816"><ele>118.19999999999999</ele><time>2026-05-01T08:28:13.832Z</time></trkpt><trkpt lat="42.4130561" lon="14.2433442"><ele>117.0</ele><time>2026-05-01T08:28:14.832Z</time></trkpt><trkpt lat="42.4130426" lon="14.2432125"><ele>116.0</ele><time>2026-05-01T08:28:15.832Z</time></trkpt><trkpt lat="42.4130447" lon="14.2430754"><ele>114.99999999999999</ele><time>2026-05-01T08:28:16.832Z</time></trkpt><trkpt lat="42.4130549" lon="14.2429391"><ele>113.99999999999999</ele><time>2026-05-01T08:28:17.832Z</time></trkpt><trkpt lat="42.4130636" lon="14.2428081"><ele>113.0</ele><time>2026-05-01T08:28:18.832Z</time></trkpt><trkpt lat="42.4130626" lon="14.2426817"><ele>112.0</ele><time>2026-05-01T08:28:19.832Z</time></trkpt><trkpt lat="42.4130508" lon="14.2425564"><ele>112.0</ele><time>2026-05-01T08:28:20.832Z</time></trkpt><trkpt lat="42.4130252" lon="14.2424369"><ele>111.99999999999999</ele><time>2026-05-01T08:28:21.832Z</time></trkpt><trkpt lat="42.4129835" lon="14.2423192"><ele>111.99999999999999</ele><time>2026-05-01T08:28:22.832Z</time></trkpt><trkpt lat="42.4129265" lon="14.2421962"><ele>112.0</ele><time>2026-05-01T08:28:23.831Z</time></trkpt><trkpt lat="42.4128675" lon="14.2420609"><ele>112.0</ele><time>2026-05-01T08:28:24.832Z</time></trkpt><trkpt lat="42.4128182" lon="14.241925"><ele>113.19999999999999</ele><time>2026-05-01T08:28:25.831Z</time></trkpt><trkpt lat="42.4127746" lon="14.2417959"><ele>114.39999999999999</ele><time>2026-05-01T08:28:26.832Z</time></trkpt><trkpt lat="42.4127433" lon="14.2416701"><ele>115.60000000000001</ele><time>2026-05-01T08:28:27.832Z</time></trkpt><trkpt lat="42.4127169" lon="14.2415442"><ele>116.80000000000001</ele><time>2026-05-01T08:28:28.832Z</time></trkpt><trkpt lat="42.4126774" lon="14.241424"><ele>118.0</ele><time>2026-05-01T08:28:29.831Z</time></trkpt><trkpt lat="42.4126337" lon="14.2413132"><ele>118.0</ele><time>2026-05-01T08:28:30.832Z</time></trkpt><trkpt lat="42.4125788" lon="14.2411999"><ele>118.00000000000001</ele><time>2026-05-01T08:28:31.832Z</time></trkpt><trkpt lat="42.4125234" lon="14.2410982"><ele>118.00000000000001</ele><time>2026-05-01T08:28:32.831Z</time></trkpt><trkpt lat="42.4124661" lon="14.2410104"><ele>118.0</ele><time>2026-05-01T08:28:33.832Z</time></trkpt><trkpt lat="42.4124033" lon="14.2409296"><ele>118.0</ele><time>2026-05-01T08:28:34.832Z</time></trkpt><trkpt lat="42.4123389" lon="14.2408469"><ele>118.00000000000001</ele><time>2026-05-01T08:28:35.832Z</time></trkpt><trkpt lat="42.4122742" lon="14.2407562"><ele>118.0</ele><time>2026-05-01T08:28:36.832Z</time></trkpt><trkpt lat="42.4122101" lon="14.2406631"><ele>118.0</ele><time>2026-05-01T08:28:37.832Z</time></trkpt><trkpt lat="42.4121496" lon="14.2405845"><ele>118.0</ele><time>2026-05-01T08:28:38.832Z</time></trkpt><trkpt lat="42.4120954" lon="14.240517"><ele>118.00000000000001</ele><time>2026-05-01T08:28:39.832Z</time></trkpt><trkpt lat="42.4120358" lon="14.2404634"><ele>118.0</ele><time>2026-05-01T08:28:40.832Z</time></trkpt><trkpt lat="42.4119373" lon="14.2404068"><ele>119.16666666666667</ele><time>2026-05-01T08:28:42.832Z</time></trkpt><trkpt lat="42.4118819" lon="14.2403538"><ele>120.33333333333334</ele><time>2026-05-01T08:28:44.832Z</time></trkpt><trkpt lat="42.411826" lon="14.2402523"><ele>121.5</ele><time>2026-05-01T08:28:53.832Z</time></trkpt><trkpt lat="42.411791" lon="14.2401514"><ele>122.66666666666666</ele><time>2026-05-01T08:28:56.832Z</time></trkpt><trkpt lat="42.4117454" lon="14.2400539"><ele>123.83333333333333</ele><time>2026-05-01T08:28:58.832Z</time></trkpt><trkpt lat="42.4117158" lon="14.2399684"><ele>125.0</ele><time>2026-05-01T08:29:00.832Z</time></trkpt><trkpt lat="42.4116658" lon="14.2398453"><ele>123.66666666666666</ele><time>2026-05-01T08:29:02.832Z</time></trkpt><trkpt lat="42.4116283" lon="14.2397705"><ele>122.33333333333333</ele><time>2026-05-01T08:29:03.831Z</time></trkpt><trkpt lat="42.4115947" lon="14.2396928"><ele>121.0</ele><time>2026-05-01T08:29:04.832Z</time></trkpt><trkpt lat="42.411563" lon="14.2395963"><ele>119.66666666666666</ele><time>2026-05-01T08:29:05.832Z</time></trkpt><trkpt lat="42.411526" lon="14.2394852"><ele>118.33333333333333</ele><time>2026-05-01T08:29:06.832Z</time></trkpt><trkpt lat="42.4114895" lon="14.2393839"><ele>117.0</ele><time>2026-05-01T08:29:07.832Z</time></trkpt><trkpt lat="42.4114576" lon="14.2392839"><ele>117.0</ele><time>2026-05-01T08:29:08.832Z</time></trkpt><trkpt lat="42.4114173" lon="14.23918"><ele>116.99999999999999</ele><time>2026-05-01T08:29:09.831Z</time></trkpt><trkpt lat="42.4113704" lon="14.2390748"><ele>116.99999999999999</ele><time>2026-05-01T08:29:10.832Z</time></trkpt><trkpt lat="42.4113243" lon="14.2389588"><ele>117.0</ele><time>2026-05-01T08:29:11.832Z</time></trkpt><trkpt lat="42.4112764" lon="14.2388358"><ele>117.0</ele><time>2026-05-01T08:29:12.832Z</time></trkpt><trkpt lat="42.4112222" lon="14.2387135"><ele>123.25</ele><time>2026-05-01T08:29:13.832Z</time></trkpt><trkpt lat="42.4111556" lon="14.2385874"><ele>129.5</ele><time>2026-05-01T08:29:14.832Z</time></trkpt><trkpt lat="42.4110905" lon="14.2384601"><ele>135.75</ele><time>2026-05-01T08:29:15.832Z</time></trkpt><trkpt lat="42.4110305" lon="14.2383201"><ele>142.0</ele><time>2026-05-01T08:29:16.832Z</time></trkpt><trkpt lat="42.4109786" lon="14.2381935"><ele>142.0</ele><time>2026-05-01T08:29:17.832Z</time></trkpt><trkpt lat="42.4109362" lon="14.2380801"><ele>142.0</ele><time>2026-05-01T08:29:18.832Z</time></trkpt><trkpt lat="42.4108992" lon="14.2379767"><ele>142.0</ele><time>2026-05-01T08:29:19.832Z</time></trkpt><trkpt lat="42.4108637" lon="14.2378736"><ele>142.0</ele><time>2026-05-01T08:29:20.832Z</time></trkpt><trkpt lat="42.4108352" lon="14.237771"><ele>142.0</ele><time>2026-05-01T08:29:21.832Z</time></trkpt><trkpt lat="42.4108045" lon="14.2376778"><ele>142.0</ele><time>2026-05-01T08:29:22.832Z</time></trkpt><trkpt lat="42.4107723" lon="14.2375923"><ele>142.0</ele><time>2026-05-01T08:29:23.831Z</time></trkpt><trkpt lat="42.410714" lon="14.2374659"><ele>142.0</ele><time>2026-05-01T08:29:25.832Z</time></trkpt><trkpt lat="42.4106344" lon="14.2373386"><ele>142.0</ele><time>2026-05-01T08:29:27.832Z</time></trkpt><trkpt lat="42.4105867" lon="14.2372604"><ele>142.0</ele><time>2026-05-01T08:29:28.831Z</time></trkpt><trkpt lat="42.4105426" lon="14.2371893"><ele>142.0</ele><time>2026-05-01T08:29:29.832Z</time></trkpt><trkpt lat="42.4105021" lon="14.2371197"><ele>142.0</ele><time>2026-05-01T08:29:30.832Z</time></trkpt><trkpt lat="42.410428" lon="14.2369947"><ele>143.0</ele><time>2026-05-01T08:29:32.832Z</time></trkpt><trkpt lat="42.4103983" lon="14.2369176"><ele>144.0</ele><time>2026-05-01T08:29:33.832Z</time></trkpt><trkpt lat="42.4103658" lon="14.2368225"><ele>145.0</ele><time>2026-05-01T08:29:34.832Z</time></trkpt><trkpt lat="42.4103341" lon="14.2367255"><ele>146.0</ele><time>2026-05-01T08:29:35.832Z</time></trkpt><trkpt lat="42.4103039" lon="14.2366311"><ele>147.0</ele><time>2026-05-01T08:29:36.832Z</time></trkpt><trkpt lat="42.4102631" lon="14.2365344"><ele>148.0</ele><time>2026-05-01T08:29:37.832Z</time></trkpt><trkpt lat="42.4102169" lon="14.2364371"><ele>148.0</ele><time>2026-05-01T08:29:38.831Z</time></trkpt><trkpt lat="42.4101675" lon="14.2363413"><ele>148.0</ele><time>2026-05-01T08:29:39.832Z</time></trkpt><trkpt lat="42.410108" lon="14.2362548"><ele>148.0</ele><time>2026-05-01T08:29:40.832Z</time></trkpt><trkpt lat="42.4100379" lon="14.2361698"><ele>148.0</ele><time>2026-05-01T08:29:41.832Z</time></trkpt><trkpt lat="42.409962" lon="14.2360899"><ele>148.0</ele><time>2026-05-01T08:29:42.832Z</time></trkpt><trkpt lat="42.409883" lon="14.2360046"><ele>148.0</ele><time>2026-05-01T08:29:43.832Z</time></trkpt><trkpt lat="42.4098055" lon="14.2359192"><ele>148.0</ele><time>2026-05-01T08:29:44.832Z</time></trkpt><trkpt lat="42.4097408" lon="14.2358383"><ele>148.0</ele><time>2026-05-01T08:29:45.832Z</time></trkpt><trkpt lat="42.4096698" lon="14.2357555"><ele>148.0</ele><time>2026-05-01T08:29:46.832Z</time></trkpt><trkpt lat="42.4096034" lon="14.2356702"><ele>148.0</ele><time>2026-05-01T08:29:47.832Z</time></trkpt><trkpt lat="42.4095387" lon="14.2355817"><ele>148.0</ele><time>2026-05-01T08:29:48.832Z</time></trkpt><trkpt lat="42.4094686" lon="14.2354888"><ele>148.0</ele><time>2026-05-01T08:29:49.832Z</time></trkpt><trkpt lat="42.4093937" lon="14.2353918"><ele>148.0</ele><time>2026-05-01T08:29:50.832Z</time></trkpt><trkpt lat="42.4093217" lon="14.2353002"><ele>148.0</ele><time>2026-05-01T08:29:51.831Z</time></trkpt><trkpt lat="42.4092564" lon="14.235217"><ele>148.0</ele><time>2026-05-01T08:29:52.832Z</time></trkpt><trkpt lat="42.4092052" lon="14.2351594"><ele>148.0</ele><time>2026-05-01T08:29:53.832Z</time></trkpt><trkpt lat="42.4091548" lon="14.2351045"><ele>148.0</ele><time>2026-05-01T08:29:54.832Z</time></trkpt><trkpt lat="42.4090985" lon="14.2350452"><ele>148.0</ele><time>2026-05-01T08:29:55.831Z</time></trkpt><trkpt lat="42.4090514" lon="14.2349836"><ele>148.0</ele><time>2026-05-01T08:29:56.832Z</time></trkpt><trkpt lat="42.4090219" lon="14.2348404"><ele>148.0</ele><time>2026-05-01T08:29:58.832Z</time></trkpt><trkpt lat="42.4090041" lon="14.2347232"><ele>148.0</ele><time>2026-05-01T08:30:00.832Z</time></trkpt><trkpt lat="42.4089541" lon="14.2346474"><ele>149.6</ele><time>2026-05-01T08:30:02.832Z</time></trkpt><trkpt lat="42.4088828" lon="14.2345908"><ele>151.20000000000002</ele><time>2026-05-01T08:30:05.832Z</time></trkpt><trkpt lat="42.4087728" lon="14.2344962"><ele>152.8</ele><time>2026-05-01T08:30:07.832Z</time></trkpt><trkpt lat="42.4087121" lon="14.2344438"><ele>154.4</ele><time>2026-05-01T08:30:08.832Z</time></trkpt><trkpt lat="42.4086436" lon="14.2343745"><ele>156.0</ele><time>2026-05-01T08:30:09.832Z</time></trkpt><trkpt lat="42.4085749" lon="14.2342936"><ele>156.0</ele><time>2026-05-01T08:30:10.832Z</time></trkpt><trkpt lat="42.4085123" lon="14.2342232"><ele>156.0</ele><time>2026-05-01T08:30:11.832Z</time></trkpt><trkpt lat="42.4084505" lon="14.234147"><ele>156.0</ele><time>2026-05-01T08:30:12.832Z</time></trkpt><trkpt lat="42.4083887" lon="14.2340698"><ele>156.0</ele><time>2026-05-01T08:30:13.832Z</time></trkpt><trkpt lat="42.408329" lon="14.2339908"><ele>156.0</ele><time>2026-05-01T08:30:14.832Z</time></trkpt><trkpt lat="42.4082914" lon="14.2339071"><ele>156.0</ele><time>2026-05-01T08:30:15.832Z</time></trkpt><trkpt lat="42.4082634" lon="14.2338212"><ele>155.0</ele><time>2026-05-01T08:30:16.832Z</time></trkpt><trkpt lat="42.4082346" lon="14.2337233"><ele>154.0</ele><time>2026-05-01T08:30:17.831Z</time></trkpt><trkpt lat="42.4081997" lon="14.2336202"><ele>153.0</ele><time>2026-05-01T08:30:18.832Z</time></trkpt><trkpt lat="42.4081724" lon="14.2335238"><ele>152.0</ele><time>2026-05-01T08:30:19.832Z</time></trkpt><trkpt lat="42.4081382" lon="14.2334138"><ele>151.0</ele><time>2026-05-01T08:30:20.832Z</time></trkpt><trkpt lat="42.4080974" lon="14.2333037"><ele>150.0</ele><time>2026-05-01T08:30:21.832Z</time></trkpt><trkpt lat="42.4080504" lon="14.2331966"><ele>147.4</ele><time>2026-05-01T08:30:22.832Z</time></trkpt><trkpt lat="42.4080071" lon="14.233086"><ele>144.8</ele><time>2026-05-01T08:30:23.832Z</time></trkpt><trkpt lat="42.4079547" lon="14.2329736"><ele>142.2</ele><time>2026-05-01T08:30:24.832Z</time></trkpt><trkpt lat="42.4078875" lon="14.232867"><ele>139.6</ele><time>2026-05-01T08:30:25.831Z</time></trkpt><trkpt lat="42.4078064" lon="14.2327465"><ele>137.0</ele><time>2026-05-01T08:30:26.831Z</time></trkpt><trkpt lat="42.4077217" lon="14.2326295"><ele>141.0</ele><time>2026-05-01T08:30:27.832Z</time></trkpt><trkpt lat="42.4076332" lon="14.232506"><ele>145.0</ele><time>2026-05-01T08:30:28.832Z</time></trkpt><trkpt lat="42.4075425" lon="14.2323787"><ele>149.0</ele><time>2026-05-01T08:30:29.832Z</time></trkpt><trkpt lat="42.4074535" lon="14.2322478"><ele>153.0</ele><time>2026-05-01T08:30:30.832Z</time></trkpt><trkpt lat="42.40737" lon="14.2321183"><ele>153.0</ele><time>2026-05-01T08:30:31.832Z</time></trkpt><trkpt lat="42.407293" lon="14.2319945"><ele>153.0</ele><time>2026-05-01T08:30:32.832Z</time></trkpt><trkpt lat="42.4072354" lon="14.2318843"><ele>153.0</ele><time>2026-05-01T08:30:33.832Z</time></trkpt><trkpt lat="42.4071881" lon="14.2317852"><ele>153.0</ele><time>2026-05-01T08:30:34.832Z</time></trkpt><trkpt lat="42.4071492" lon="14.2316896"><ele>153.0</ele><time>2026-05-01T08:30:35.832Z</time></trkpt><trkpt lat="42.4071199" lon="14.2315923"><ele>155.16666666666666</ele><time>2026-05-01T08:30:36.832Z</time></trkpt><trkpt lat="42.4071053" lon="14.2314901"><ele>157.33333333333334</ele><time>2026-05-01T08:30:37.832Z</time></trkpt><trkpt lat="42.4070874" lon="14.2313891"><ele>159.5</ele><time>2026-05-01T08:30:38.832Z</time></trkpt><trkpt lat="42.4070496" lon="14.2312937"><ele>161.66666666666669</ele><time>2026-05-01T08:30:39.832Z</time></trkpt><trkpt lat="42.406994" lon="14.2311925"><ele>163.83333333333334</ele><time>2026-05-01T08:30:40.832Z</time></trkpt><trkpt lat="42.406928" lon="14.2310739"><ele>166.0</ele><time>2026-05-01T08:30:41.832Z</time></trkpt><trkpt lat="42.4068451" lon="14.2309631"><ele>166.0</ele><time>2026-05-01T08:30:42.831Z</time></trkpt><trkpt lat="42.4067523" lon="14.2308592"><ele>166.0</ele><time>2026-05-01T08:30:43.832Z</time></trkpt><trkpt lat="42.406657" lon="14.2307591"><ele>166.0</ele><time>2026-05-01T08:30:44.832Z</time></trkpt><trkpt lat="42.4065524" lon="14.2306484"><ele>166.0</ele><time>2026-05-01T08:30:45.831Z</time></trkpt><trkpt lat="42.406465" lon="14.2305387"><ele>166.8</ele><time>2026-05-01T08:30:46.832Z</time></trkpt><trkpt lat="42.4063895" lon="14.230442"><ele>167.60000000000002</ele><time>2026-05-01T08:30:47.832Z</time></trkpt><trkpt lat="42.4063187" lon="14.2303356"><ele>168.4</ele><time>2026-05-01T08:30:48.832Z</time></trkpt><trkpt lat="42.4062535" lon="14.2302299"><ele>169.2</ele><time>2026-05-01T08:30:49.832Z</time></trkpt><trkpt lat="42.406192" lon="14.2301231"><ele>170.0</ele><time>2026-05-01T08:30:50.832Z</time></trkpt><trkpt lat="42.4061289" lon="14.2300225"><ele>170.0</ele><time>2026-05-01T08:30:51.832Z</time></trkpt><trkpt lat="42.4060686" lon="14.229935"><ele>170.0</ele><time>2026-05-01T08:30:52.832Z</time></trkpt><trkpt lat="42.4060139" lon="14.229854"><ele>170.0</ele><time>2026-05-01T08:30:53.832Z</time></trkpt><trkpt lat="42.4059592" lon="14.2297821"><ele>170.0</ele><time>2026-05-01T08:30:54.832Z</time></trkpt><trkpt lat="42.4058971" lon="14.2297288"><ele>170.0</ele><time>2026-05-01T08:30:55.832Z</time></trkpt><trkpt lat="42.4058294" lon="14.2296918"><ele>170.0</ele><time>2026-05-01T08:30:56.832Z</time></trkpt><trkpt lat="42.4057281" lon="14.2296453"><ele>170.6</ele><time>2026-05-01T08:30:58.832Z</time></trkpt><trkpt lat="42.4056189" lon="14.2296021"><ele>171.2</ele><time>2026-05-01T08:31:00.832Z</time></trkpt><trkpt lat="42.4054982" lon="14.229515"><ele>171.8</ele><time>2026-05-01T08:31:02.831Z</time></trkpt><trkpt lat="42.4054442" lon="14.2294438"><ele>172.4</ele><time>2026-05-01T08:31:03.832Z</time></trkpt><trkpt lat="42.4053989" lon="14.2293516"><ele>173.0</ele><time>2026-05-01T08:31:04.832Z</time></trkpt><trkpt lat="42.4053478" lon="14.2292397"><ele>173.0</ele><time>2026-05-01T08:31:05.832Z</time></trkpt><trkpt lat="42.4053014" lon="14.2291244"><ele>173.0</ele><time>2026-05-01T08:31:06.832Z</time></trkpt><trkpt lat="42.4052585" lon="14.2290061"><ele>173.0</ele><time>2026-05-01T08:31:07.832Z</time></trkpt><trkpt lat="42.4052025" lon="14.2288961"><ele>173.0</ele><time>2026-05-01T08:31:08.831Z</time></trkpt><trkpt lat="42.4051453" lon="14.2287823"><ele>173.0</ele><time>2026-05-01T08:31:09.832Z</time></trkpt><trkpt lat="42.4050743" lon="14.2286712"><ele>171.16666666666666</ele><time>2026-05-01T08:31:10.832Z</time></trkpt><trkpt lat="42.4050075" lon="14.2285674"><ele>169.33333333333331</ele><time>2026-05-01T08:31:11.831Z</time></trkpt><trkpt lat="42.4049425" lon="14.2284729"><ele>167.5</ele><time>2026-05-01T08:31:12.832Z</time></trkpt><trkpt lat="42.4048953" lon="14.2283961"><ele>165.66666666666666</ele><time>2026-05-01T08:31:13.832Z</time></trkpt><trkpt lat="42.4048597" lon="14.2283097"><ele>163.83333333333334</ele><time>2026-05-01T08:31:14.831Z</time></trkpt><trkpt lat="42.4048326" lon="14.2282109"><ele>162.0</ele><time>2026-05-01T08:31:15.832Z</time></trkpt><trkpt lat="42.4048091" lon="14.22812"><ele>163.66666666666666</ele><time>2026-05-01T08:31:16.832Z</time></trkpt><trkpt lat="42.4047881" lon="14.2280368"><ele>165.33333333333334</ele><time>2026-05-01T08:31:17.831Z</time></trkpt><trkpt lat="42.4047631" lon="14.22794"><ele>167.0</ele><time>2026-05-01T08:31:18.832Z</time></trkpt><trkpt lat="42.404739" lon="14.2278319"><ele>168.66666666666669</ele><time>2026-05-01T08:31:19.832Z</time></trkpt><trkpt lat="42.4047147" lon="14.2277171"><ele>170.33333333333334</ele><time>2026-05-01T08:31:20.832Z</time></trkpt><trkpt lat="42.404684" lon="14.2276124"><ele>172.0</ele><time>2026-05-01T08:31:21.832Z</time></trkpt><trkpt lat="42.4046469" lon="14.2275006"><ele>172.0</ele><time>2026-05-01T08:31:22.831Z</time></trkpt><trkpt lat="42.4046029" lon="14.2273917"><ele>172.0</ele><time>2026-05-01T08:31:23.832Z</time></trkpt><trkpt lat="42.4045423" lon="14.2272756"><ele>172.0</ele><time>2026-05-01T08:31:24.832Z</time></trkpt><trkpt lat="42.4044759" lon="14.2271617"><ele>172.0</ele><time>2026-05-01T08:31:25.832Z</time></trkpt><trkpt lat="42.4044156" lon="14.2270628"><ele>172.0</ele><time>2026-05-01T08:31:26.832Z</time></trkpt><trkpt lat="42.4043742" lon="14.2269788"><ele>169.0</ele><time>2026-05-01T08:31:27.832Z</time></trkpt><trkpt lat="42.4043472" lon="14.2268066"><ele>166.0</ele><time>2026-05-01T08:31:29.832Z</time></trkpt><trkpt lat="42.4043374" lon="14.226696"><ele>163.0</ele><time>2026-05-01T08:31:30.832Z</time></trkpt><trkpt lat="42.4043278" lon="14.2265858"><ele>160.0</ele><time>2026-05-01T08:31:31.832Z</time></trkpt><trkpt lat="42.4042979" lon="14.2265046"><ele>157.0</ele><time>2026-05-01T08:31:32.832Z</time></trkpt><trkpt lat="42.4042144" lon="14.2264152"><ele>155.66666666666669</ele><time>2026-05-01T08:31:34.831Z</time></trkpt><trkpt lat="42.404148" lon="14.2263767"><ele>154.33333333333334</ele><time>2026-05-01T08:31:35.832Z</time></trkpt><trkpt lat="42.4040769" lon="14.2263332"><ele>153.0</ele><time>2026-05-01T08:31:36.832Z</time></trkpt><trkpt lat="42.404008" lon="14.2262836"><ele>151.66666666666666</ele><time>2026-05-01T08:31:37.832Z</time></trkpt><trkpt lat="42.4039464" lon="14.2262265"><ele>150.33333333333331</ele><time>2026-05-01T08:31:38.832Z</time></trkpt><trkpt lat="42.4038873" lon="14.2261479"><ele>149.0</ele><time>2026-05-01T08:31:39.831Z</time></trkpt><trkpt lat="42.4038197" lon="14.2260438"><ele>153.4</ele><time>2026-05-01T08:31:40.832Z</time></trkpt><trkpt lat="42.403749" lon="14.2259417"><ele>157.8</ele><time>2026-05-01T08:31:41.832Z</time></trkpt><trkpt lat="42.4036962" lon="14.2258475"><ele>162.20000000000002</ele><time>2026-05-01T08:31:42.832Z</time></trkpt><trkpt lat="42.4036544" lon="14.2257476"><ele>166.60000000000002</ele><time>2026-05-01T08:31:43.832Z</time></trkpt><trkpt lat="42.4036193" lon="14.2256325"><ele>171.0</ele><time>2026-05-01T08:31:44.832Z</time></trkpt><trkpt lat="42.4035809" lon="14.225508"><ele>171.0</ele><time>2026-05-01T08:31:45.832Z</time></trkpt><trkpt lat="42.4035449" lon="14.2253875"><ele>171.0</ele><time>2026-05-01T08:31:46.832Z</time></trkpt><trkpt lat="42.403517" lon="14.2252729"><ele>171.0</ele><time>2026-05-01T08:31:47.831Z</time></trkpt><trkpt lat="42.4034948" lon="14.2251488"><ele>171.0</ele><time>2026-05-01T08:31:48.832Z</time></trkpt><trkpt lat="42.4034889" lon="14.2250223"><ele>171.0</ele><time>2026-05-01T08:31:49.832Z</time></trkpt><trkpt lat="42.4034853" lon="14.2248922"><ele>169.33333333333334</ele><time>2026-05-01T08:31:50.831Z</time></trkpt><trkpt lat="42.4034721" lon="14.2247873"><ele>167.66666666666666</ele><time>2026-05-01T08:31:51.831Z</time></trkpt><trkpt lat="42.4034452" lon="14.2246814"><ele>166.0</ele><time>2026-05-01T08:31:52.831Z</time></trkpt><trkpt lat="42.4034037" lon="14.2245941"><ele>164.33333333333331</ele><time>2026-05-01T08:31:53.831Z</time></trkpt><trkpt lat="42.4033499" lon="14.2245104"><ele>162.66666666666666</ele><time>2026-05-01T08:31:54.831Z</time></trkpt><trkpt lat="42.4032962" lon="14.2244266"><ele>161.0</ele><time>2026-05-01T08:31:55.831Z</time></trkpt><trkpt lat="42.4032631" lon="14.224346"><ele>161.0</ele><time>2026-05-01T08:31:56.831Z</time></trkpt><trkpt lat="42.4032331" lon="14.2242671"><ele>161.0</ele><time>2026-05-01T08:31:57.831Z</time></trkpt><trkpt lat="42.4031927" lon="14.2241865"><ele>161.0</ele><time>2026-05-01T08:31:58.831Z</time></trkpt><trkpt lat="42.4031439" lon="14.2241007"><ele>161.0</ele><time>2026-05-01T08:31:59.83Z</time></trkpt><trkpt lat="42.4030885" lon="14.2240148"><ele>161.0</ele><time>2026-05-01T08:32:00.83Z</time></trkpt><trkpt lat="42.4030341" lon="14.2239473"><ele>161.0</ele><time>2026-05-01T08:32:01.83Z</time></trkpt><trkpt lat="42.4029679" lon="14.2239023"><ele>161.0</ele><time>2026-05-01T08:32:02.831Z</time></trkpt><trkpt lat="42.4028885" lon="14.223875"><ele>162.0</ele><time>2026-05-01T08:32:03.831Z</time></trkpt><trkpt lat="42.40281" lon="14.2238504"><ele>163.0</ele><time>2026-05-01T08:32:04.831Z</time></trkpt><trkpt lat="42.4027297" lon="14.2238322"><ele>164.0</ele><time>2026-05-01T08:32:05.83Z</time></trkpt><trkpt lat="42.4026556" lon="14.2238129"><ele>165.0</ele><time>2026-05-01T08:32:06.831Z</time></trkpt><trkpt lat="42.4025852" lon="14.2237639"><ele>166.0</ele><time>2026-05-01T08:32:07.831Z</time></trkpt><trkpt lat="42.4025157" lon="14.223692"><ele>167.0</ele><time>2026-05-01T08:32:08.831Z</time></trkpt><trkpt lat="42.4024328" lon="14.2236019"><ele>167.0</ele><time>2026-05-01T08:32:09.831Z</time></trkpt><trkpt lat="42.402345" lon="14.2235189"><ele>167.0</ele><time>2026-05-01T08:32:10.831Z</time></trkpt><trkpt lat="42.4022666" lon="14.2234508"><ele>167.0</ele><time>2026-05-01T08:32:11.831Z</time></trkpt><trkpt lat="42.4022033" lon="14.2234015"><ele>167.0</ele><time>2026-05-01T08:32:12.831Z</time></trkpt><trkpt lat="42.4021402" lon="14.2233966"><ele>167.0</ele><time>2026-05-01T08:32:13.831Z</time></trkpt><trkpt lat="42.4020694" lon="14.2234216"><ele>167.0</ele><time>2026-05-01T08:32:14.831Z</time></trkpt><trkpt lat="42.4019761" lon="14.2234777"><ele>169.8</ele><time>2026-05-01T08:32:15.831Z</time></trkpt><trkpt lat="42.4018731" lon="14.2235452"><ele>172.6</ele><time>2026-05-01T08:32:16.831Z</time></trkpt><trkpt lat="42.4017706" lon="14.223613"><ele>175.4</ele><time>2026-05-01T08:32:17.831Z</time></trkpt><trkpt lat="42.4016655" lon="14.2236784"><ele>178.20000000000002</ele><time>2026-05-01T08:32:18.831Z</time></trkpt><trkpt lat="42.4015696" lon="14.2237307"><ele>181.0</ele><time>2026-05-01T08:32:19.831Z</time></trkpt><trkpt lat="42.4014761" lon="14.2237806"><ele>181.0</ele><time>2026-05-01T08:32:20.831Z</time></trkpt><trkpt lat="42.4013903" lon="14.2238337"><ele>181.0</ele><time>2026-05-01T08:32:21.831Z</time></trkpt><trkpt lat="42.4013063" lon="14.223893"><ele>181.0</ele><time>2026-05-01T08:32:22.831Z</time></trkpt><trkpt lat="42.4012284" lon="14.2239446"><ele>181.0</ele><time>2026-05-01T08:32:23.83Z</time></trkpt><trkpt lat="42.4011519" lon="14.2239963"><ele>181.0</ele><time>2026-05-01T08:32:24.83Z</time></trkpt><trkpt lat="42.4010679" lon="14.2240577"><ele>183.20000000000002</ele><time>2026-05-01T08:32:25.831Z</time></trkpt><trkpt lat="42.4009824" lon="14.2241241"><ele>185.4</ele><time>2026-05-01T08:32:26.831Z</time></trkpt><trkpt lat="42.4008976" lon="14.2241879"><ele>187.6</ele><time>2026-05-01T08:32:27.831Z</time></trkpt><trkpt lat="42.4008179" lon="14.224253"><ele>189.8</ele><time>2026-05-01T08:32:28.831Z</time></trkpt><trkpt lat="42.4007446" lon="14.224323"><ele>192.0</ele><time>2026-05-01T08:32:29.83Z</time></trkpt><trkpt lat="42.400684" lon="14.2243768"><ele>192.0</ele><time>2026-05-01T08:32:30.831Z</time></trkpt><trkpt lat="42.4006242" lon="14.2244171"><ele>192.0</ele><time>2026-05-01T08:32:33.831Z</time></trkpt><trkpt lat="42.4005398" lon="14.2243348"><ele>192.0</ele><time>2026-05-01T08:32:39.831Z</time></trkpt><trkpt lat="42.4004942" lon="14.2242463"><ele>192.0</ele><time>2026-05-01T08:32:40.831Z</time></trkpt><trkpt lat="42.4004374" lon="14.2241168"><ele>192.0</ele><time>2026-05-01T08:32:41.831Z</time></trkpt><trkpt lat="42.4003614" lon="14.2239672"><ele>192.5</ele><time>2026-05-01T08:32:42.831Z</time></trkpt><trkpt lat="42.4002723" lon="14.2238094"><ele>193.0</ele><time>2026-05-01T08:32:43.831Z</time></trkpt><trkpt lat="42.4001831" lon="14.2236589"><ele>193.5</ele><time>2026-05-01T08:32:44.831Z</time></trkpt><trkpt lat="42.4000934" lon="14.2235307"><ele>194.0</ele><time>2026-05-01T08:32:45.83Z</time></trkpt><trkpt lat="42.3999938" lon="14.2234097"><ele>194.0</ele><time>2026-05-01T08:32:46.831Z</time></trkpt><trkpt lat="42.3998851" lon="14.2232888"><ele>194.0</ele><time>2026-05-01T08:32:47.831Z</time></trkpt><trkpt lat="42.3997829" lon="14.2231611"><ele>194.0</ele><time>2026-05-01T08:32:48.831Z</time></trkpt><trkpt lat="42.3996694" lon="14.2230308"><ele>194.0</ele><time>2026-05-01T08:32:49.831Z</time></trkpt><trkpt lat="42.3995516" lon="14.222899"><ele>194.0</ele><time>2026-05-01T08:32:50.831Z</time></trkpt><trkpt lat="42.3994353" lon="14.2227715"><ele>194.0</ele><time>2026-05-01T08:32:51.831Z</time></trkpt><trkpt lat="42.3993169" lon="14.2226378"><ele>194.0</ele><time>2026-05-01T08:32:52.831Z</time></trkpt><trkpt lat="42.3992014" lon="14.2224995"><ele>194.0</ele><time>2026-05-01T08:32:53.831Z</time></trkpt><trkpt lat="42.3990841" lon="14.2223661"><ele>194.0</ele><time>2026-05-01T08:32:54.831Z</time></trkpt><trkpt lat="42.3989723" lon="14.2222383"><ele>194.0</ele><time>2026-05-01T08:32:55.831Z</time></trkpt><trkpt lat="42.3988657" lon="14.2221132"><ele>194.0</ele><time>2026-05-01T08:32:56.831Z</time></trkpt><trkpt lat="42.3987596" lon="14.2219809"><ele>194.25</ele><time>2026-05-01T08:32:57.831Z</time></trkpt><trkpt lat="42.3986629" lon="14.2218396"><ele>194.5</ele><time>2026-05-01T08:32:58.831Z</time></trkpt><trkpt lat="42.398575" lon="14.2216854"><ele>194.75</ele><time>2026-05-01T08:32:59.831Z</time></trkpt><trkpt lat="42.3984922" lon="14.2215317"><ele>195.0</ele><time>2026-05-01T08:33:00.83Z</time></trkpt><trkpt lat="42.3984223" lon="14.221388"><ele>195.8</ele><time>2026-05-01T08:33:01.831Z</time></trkpt><trkpt lat="42.3983543" lon="14.2212572"><ele>196.6</ele><time>2026-05-01T08:33:02.831Z</time></trkpt><trkpt lat="42.3982973" lon="14.2211305"><ele>197.39999999999998</ele><time>2026-05-01T08:33:03.831Z</time></trkpt><trkpt lat="42.398242" lon="14.2210125"><ele>198.2</ele><time>2026-05-01T08:33:04.831Z</time></trkpt><trkpt lat="42.3981852" lon="14.2209108"><ele>199.0</ele><time>2026-05-01T08:33:05.831Z</time></trkpt><trkpt lat="42.398143" lon="14.2208376"><ele>199.0</ele><time>2026-05-01T08:33:06.831Z</time></trkpt><trkpt lat="42.3980514" lon="14.2208176"><ele>199.0</ele><time>2026-05-01T08:33:08.83Z</time></trkpt><trkpt lat="42.3979448" lon="14.2209494"><ele>199.0</ele><time>2026-05-01T08:33:10.831Z</time></trkpt><trkpt lat="42.3978707" lon="14.2210502"><ele>199.0</ele><time>2026-05-01T08:33:11.831Z</time></trkpt><trkpt lat="42.3977835" lon="14.2211528"><ele>199.0</ele><time>2026-05-01T08:33:12.831Z</time></trkpt><trkpt lat="42.3976822" lon="14.2212642"><ele>199.0</ele><time>2026-05-01T08:33:13.831Z</time></trkpt><trkpt lat="42.3975938" lon="14.2213566"><ele>199.0</ele><time>2026-05-01T08:33:14.831Z</time></trkpt><trkpt lat="42.3975121" lon="14.2214426"><ele>199.0</ele><time>2026-05-01T08:33:15.831Z</time></trkpt><trkpt lat="42.3974305" lon="14.2215335"><ele>198.2</ele><time>2026-05-01T08:33:16.83Z</time></trkpt><trkpt lat="42.3973433" lon="14.2216121"><ele>197.39999999999998</ele><time>2026-05-01T08:33:17.831Z</time></trkpt><trkpt lat="42.3972602" lon="14.2216962"><ele>196.6</ele><time>2026-05-01T08:33:18.83Z</time></trkpt><trkpt lat="42.397184" lon="14.2217802"><ele>195.8</ele><time>2026-05-01T08:33:19.831Z</time></trkpt><trkpt lat="42.397131" lon="14.2218686"><ele>195.0</ele><time>2026-05-01T08:33:20.831Z</time></trkpt><trkpt lat="42.3971066" lon="14.2219658"><ele>195.0</ele><time>2026-05-01T08:33:21.831Z</time></trkpt><trkpt lat="42.3971118" lon="14.2220705"><ele>195.0</ele><time>2026-05-01T08:33:22.831Z</time></trkpt><trkpt lat="42.3971414" lon="14.2221722"><ele>195.0</ele><time>2026-05-01T08:33:23.831Z</time></trkpt><trkpt lat="42.3971866" lon="14.2222858"><ele>195.0</ele><time>2026-05-01T08:33:24.831Z</time></trkpt><trkpt lat="42.3972429" lon="14.2223965"><ele>195.0</ele><time>2026-05-01T08:33:25.83Z</time></trkpt><trkpt lat="42.3972927" lon="14.2225097"><ele>194.6</ele><time>2026-05-01T08:33:26.831Z</time></trkpt><trkpt lat="42.397358" lon="14.2226332"><ele>194.2</ele><time>2026-05-01T08:33:27.83Z</time></trkpt><trkpt lat="42.3974221" lon="14.2227535"><ele>193.8</ele><time>2026-05-01T08:33:28.831Z</time></trkpt><trkpt lat="42.397485" lon="14.2228731"><ele>193.4</ele><time>2026-05-01T08:33:29.831Z</time></trkpt><trkpt lat="42.3975441" lon="14.222997"><ele>193.0</ele><time>2026-05-01T08:33:30.831Z</time></trkpt><trkpt lat="42.3975996" lon="14.2231171"><ele>192.49999999999997</ele><time>2026-05-01T08:33:31.831Z</time></trkpt><trkpt lat="42.3976457" lon="14.22322"><ele>192.0</ele><time>2026-05-01T08:33:32.831Z</time></trkpt><trkpt lat="42.3976811" lon="14.2233178"><ele>191.5</ele><time>2026-05-01T08:33:33.831Z</time></trkpt><trkpt lat="42.3977039" lon="14.2233983"><ele>191.0</ele><time>2026-05-01T08:33:34.831Z</time></trkpt><trkpt lat="42.3976944" lon="14.2235463"><ele>190.5</ele><time>2026-05-01T08:33:36.831Z</time></trkpt><trkpt lat="42.3976775" lon="14.223666"><ele>190.0</ele><time>2026-05-01T08:33:37.831Z</time></trkpt><trkpt lat="42.3976482" lon="14.2237921"><ele>190.0</ele><time>2026-05-01T08:33:38.831Z</time></trkpt><trkpt lat="42.3976201" lon="14.2239127"><ele>190.0</ele><time>2026-05-01T08:33:39.831Z</time></trkpt><trkpt lat="42.3975958" lon="14.2240404"><ele>190.0</ele><time>2026-05-01T08:33:40.831Z</time></trkpt><trkpt lat="42.3975779" lon="14.2241777"><ele>190.0</ele><time>2026-05-01T08:33:41.831Z</time></trkpt><trkpt lat="42.3975597" lon="14.2243266"><ele>190.0</ele><time>2026-05-01T08:33:42.831Z</time></trkpt><trkpt lat="42.3975359" lon="14.2244675"><ele>188.6</ele><time>2026-05-01T08:33:43.831Z</time></trkpt><trkpt lat="42.3975055" lon="14.2246063"><ele>187.2</ele><time>2026-05-01T08:33:44.83Z</time></trkpt><trkpt lat="42.3974791" lon="14.2247504"><ele>185.8</ele><time>2026-05-01T08:33:45.831Z</time></trkpt><trkpt lat="42.3974667" lon="14.2248754"><ele>184.4</ele><time>2026-05-01T08:33:46.831Z</time></trkpt><trkpt lat="42.3974679" lon="14.2249996"><ele>183.0</ele><time>2026-05-01T08:33:47.831Z</time></trkpt><trkpt lat="42.3974732" lon="14.225129"><ele>181.66666666666666</ele><time>2026-05-01T08:33:48.831Z</time></trkpt><trkpt lat="42.3974922" lon="14.2252668"><ele>180.33333333333334</ele><time>2026-05-01T08:33:49.831Z</time></trkpt><trkpt lat="42.3975181" lon="14.2253924"><ele>179.0</ele><time>2026-05-01T08:33:50.831Z</time></trkpt><trkpt lat="42.3975436" lon="14.2255144"><ele>177.66666666666669</ele><time>2026-05-01T08:33:51.831Z</time></trkpt><trkpt lat="42.3975601" lon="14.2256273"><ele>176.33333333333334</ele><time>2026-05-01T08:33:52.831Z</time></trkpt><trkpt lat="42.3975655" lon="14.225723"><ele>175.0</ele><time>2026-05-01T08:33:53.831Z</time></trkpt><trkpt lat="42.397565" lon="14.2258666"><ele>175.0</ele><time>2026-05-01T08:33:55.831Z</time></trkpt><trkpt lat="42.3975248" lon="14.2259366"><ele>175.0</ele><time>2026-05-01T08:33:57.831Z</time></trkpt><trkpt lat="42.3974371" lon="14.2259256"><ele>175.0</ele><time>2026-05-01T08:33:59.83Z</time></trkpt><trkpt lat="42.3973678" lon="14.2257923"><ele>175.0</ele><time>2026-05-01T08:34:01.831Z</time></trkpt><trkpt lat="42.3973296" lon="14.225713"><ele>175.0</ele><time>2026-05-01T08:34:02.831Z</time></trkpt><trkpt lat="42.3972897" lon="14.2256418"><ele>175.0</ele><time>2026-05-01T08:34:03.831Z</time></trkpt><trkpt lat="42.3972047" lon="14.2255221"><ele>170.75</ele><time>2026-05-01T08:34:05.831Z</time></trkpt><trkpt lat="42.3971144" lon="14.225417"><ele>166.5</ele><time>2026-05-01T08:34:07.831Z</time></trkpt><trkpt lat="42.3970227" lon="14.2253497"><ele>162.25</ele><time>2026-05-01T08:34:09.832Z</time></trkpt><trkpt lat="42.3969188" lon="14.2252994"><ele>158.0</ele><time>2026-05-01T08:34:11.832Z</time></trkpt><trkpt lat="42.3968032" lon="14.2252876"><ele>158.0</ele><time>2026-05-01T08:34:13.832Z</time></trkpt><trkpt lat="42.3966825" lon="14.2252806"><ele>158.0</ele><time>2026-05-01T08:34:15.832Z</time></trkpt><trkpt lat="42.3965718" lon="14.225308"><ele>158.0</ele><time>2026-05-01T08:34:17.832Z</time></trkpt><trkpt lat="42.3964598" lon="14.2253077"><ele>158.0</ele><time>2026-05-01T08:34:19.832Z</time></trkpt><trkpt lat="42.3963403" lon="14.2252409"><ele>153.83333333333331</ele><time>2026-05-01T08:34:21.832Z</time></trkpt><trkpt lat="42.3962769" lon="14.2252039"><ele>149.66666666666666</ele><time>2026-05-01T08:34:22.832Z</time></trkpt><trkpt lat="42.396214" lon="14.2251705"><ele>145.5</ele><time>2026-05-01T08:34:23.832Z</time></trkpt><trkpt lat="42.3961122" lon="14.2251193"><ele>141.33333333333334</ele><time>2026-05-01T08:34:25.832Z</time></trkpt><trkpt lat="42.3959928" lon="14.2250704"><ele>137.16666666666669</ele><time>2026-05-01T08:34:27.832Z</time></trkpt><trkpt lat="42.3959301" lon="14.2250499"><ele>133.0</ele><time>2026-05-01T08:34:28.832Z</time></trkpt><trkpt lat="42.3958617" lon="14.2250254"><ele>133.0</ele><time>2026-05-01T08:34:29.832Z</time></trkpt><trkpt lat="42.3957913" lon="14.2250015"><ele>133.0</ele><time>2026-05-01T08:34:30.832Z</time></trkpt><trkpt lat="42.3957258" lon="14.2249705"><ele>133.0</ele><time>2026-05-01T08:34:31.832Z</time></trkpt><trkpt lat="42.39561" lon="14.2249037"><ele>133.0</ele><time>2026-05-01T08:34:33.832Z</time></trkpt><trkpt lat="42.3955499" lon="14.224871"><ele>133.0</ele><time>2026-05-01T08:34:34.832Z</time></trkpt><trkpt lat="42.3954366" lon="14.2248108"><ele>130.0</ele><time>2026-05-01T08:34:36.832Z</time></trkpt><trkpt lat="42.3953264" lon="14.2247589"><ele>127.00000000000001</ele><time>2026-05-01T08:34:38.832Z</time></trkpt><trkpt lat="42.3952145" lon="14.2247235"><ele>124.00000000000001</ele><time>2026-05-01T08:34:40.832Z</time></trkpt><trkpt lat="42.395101" lon="14.2247132"><ele>121.0</ele><time>2026-05-01T08:34:42.832Z</time></trkpt><trkpt lat="42.3950364" lon="14.2247134"><ele>118.0</ele><time>2026-05-01T08:34:43.831Z</time></trkpt><trkpt lat="42.3949643" lon="14.2247134"><ele>118.0</ele><time>2026-05-01T08:34:44.832Z</time></trkpt><trkpt lat="42.394894" lon="14.2247058"><ele>118.0</ele><time>2026-05-01T08:34:45.832Z</time></trkpt><trkpt lat="42.3948162" lon="14.2246885"><ele>118.0</ele><time>2026-05-01T08:34:46.832Z</time></trkpt><trkpt lat="42.3947447" lon="14.2246659"><ele>118.0</ele><time>2026-05-01T08:34:47.832Z</time></trkpt><trkpt lat="42.3946744" lon="14.2246332"><ele>118.0</ele><time>2026-05-01T08:34:48.832Z</time></trkpt><trkpt lat="42.3946061" lon="14.2246027"><ele>118.0</ele><time>2026-05-01T08:34:49.832Z</time></trkpt><trkpt lat="42.3945418" lon="14.2245646"><ele>118.0</ele><time>2026-05-01T08:34:50.831Z</time></trkpt><trkpt lat="42.3944804" lon="14.22451"><ele>114.60000000000001</ele><time>2026-05-01T08:34:51.832Z</time></trkpt><trkpt lat="42.3944217" lon="14.2244504"><ele>111.20000000000002</ele><time>2026-05-01T08:34:52.832Z</time></trkpt><trkpt lat="42.3943652" lon="14.2243855"><ele>107.8</ele><time>2026-05-01T08:34:53.832Z</time></trkpt><trkpt lat="42.3942821" lon="14.224275"><ele>104.4</ele><time>2026-05-01T08:34:55.831Z</time></trkpt><trkpt lat="42.394214" lon="14.2241592"><ele>101.0</ele><time>2026-05-01T08:34:57.832Z</time></trkpt><trkpt lat="42.3941401" lon="14.2240425"><ele>101.4</ele><time>2026-05-01T08:34:59.831Z</time></trkpt><trkpt lat="42.3940532" lon="14.2239383"><ele>101.8</ele><time>2026-05-01T08:35:01.832Z</time></trkpt><trkpt lat="42.3939823" lon="14.223849"><ele>102.2</ele><time>2026-05-01T08:35:03.832Z</time></trkpt><trkpt lat="42.3939025" lon="14.223839"><ele>102.60000000000001</ele><time>2026-05-01T08:35:06.831Z</time></trkpt><trkpt lat="42.3938267" lon="14.2238935"><ele>103.0</ele><time>2026-05-01T08:35:08.831Z</time></trkpt><trkpt lat="42.3937195" lon="14.2239166"><ele>103.00000000000001</ele><time>2026-05-01T08:35:10.832Z</time></trkpt><trkpt lat="42.3936556" lon="14.2239229"><ele>103.0</ele><time>2026-05-01T08:35:11.831Z</time></trkpt><trkpt lat="42.3935467" lon="14.2239196"><ele>103.0</ele><time>2026-05-01T08:35:13.831Z</time></trkpt><trkpt lat="42.3935033" lon="14.2240017"><ele>103.0</ele><time>2026-05-01T08:35:18.832Z</time></trkpt><trkpt lat="42.3935703" lon="14.2241232"><ele>103.00000000000001</ele><time>2026-05-01T08:35:20.832Z</time></trkpt><trkpt lat="42.3936108" lon="14.2242047"><ele>103.0</ele><time>2026-05-01T08:35:21.832Z</time></trkpt><trkpt lat="42.3936476" lon="14.2242996"><ele>103.80000000000001</ele><time>2026-05-01T08:35:22.832Z</time></trkpt><trkpt lat="42.3936766" lon="14.2244027"><ele>104.6</ele><time>2026-05-01T08:35:23.832Z</time></trkpt><trkpt lat="42.3936963" lon="14.224521"><ele>105.39999999999999</ele><time>2026-05-01T08:35:24.832Z</time></trkpt><trkpt lat="42.3937206" lon="14.2246473"><ele>106.19999999999999</ele><time>2026-05-01T08:35:25.832Z</time></trkpt><trkpt lat="42.3937512" lon="14.2247856"><ele>107.0</ele><time>2026-05-01T08:35:26.832Z</time></trkpt><trkpt lat="42.3937872" lon="14.2249211"><ele>107.39999999999999</ele><time>2026-05-01T08:35:27.832Z</time></trkpt><trkpt lat="42.3938282" lon="14.2250523"><ele>107.79999999999998</ele><time>2026-05-01T08:35:28.832Z</time></trkpt><trkpt lat="42.393863" lon="14.2251718"><ele>108.2</ele><time>2026-05-01T08:35:29.832Z</time></trkpt><trkpt lat="42.3938978" lon="14.2252908"><ele>108.6</ele><time>2026-05-01T08:35:30.832Z</time></trkpt><trkpt lat="42.3939375" lon="14.2254186"><ele>109.0</ele><time>2026-05-01T08:35:31.832Z</time></trkpt><trkpt lat="42.3939799" lon="14.2255615"><ele>105.5</ele><time>2026-05-01T08:35:32.831Z</time></trkpt><trkpt lat="42.3940252" lon="14.2257072"><ele>102.0</ele><time>2026-05-01T08:35:33.832Z</time></trkpt><trkpt lat="42.3940705" lon="14.2258542"><ele>98.5</ele><time>2026-05-01T08:35:34.832Z</time></trkpt><trkpt lat="42.3941255" lon="14.226016"><ele>95.0</ele><time>2026-05-01T08:35:35.832Z</time></trkpt><trkpt lat="42.3941787" lon="14.2261764"><ele>95.0</ele><time>2026-05-01T08:35:36.832Z</time></trkpt><trkpt lat="42.3942307" lon="14.2263277"><ele>95.0</ele><time>2026-05-01T08:35:37.832Z</time></trkpt><trkpt lat="42.3942783" lon="14.2264732"><ele>95.0</ele><time>2026-05-01T08:35:38.832Z</time></trkpt><trkpt lat="42.3943262" lon="14.2266121"><ele>95.0</ele><time>2026-05-01T08:35:39.832Z</time></trkpt><trkpt lat="42.3943754" lon="14.226752"><ele>95.5</ele><time>2026-05-01T08:35:40.832Z</time></trkpt><trkpt lat="42.3944235" lon="14.2269004"><ele>96.0</ele><time>2026-05-01T08:35:41.831Z</time></trkpt><trkpt lat="42.3944753" lon="14.2270535"><ele>96.5</ele><time>2026-05-01T08:35:42.832Z</time></trkpt><trkpt lat="42.3945241" lon="14.2272083"><ele>97.0</ele><time>2026-05-01T08:35:43.832Z</time></trkpt><trkpt lat="42.394572" lon="14.2273604"><ele>97.25</ele><time>2026-05-01T08:35:44.832Z</time></trkpt><trkpt lat="42.3946127" lon="14.2275147"><ele>97.5</ele><time>2026-05-01T08:35:45.832Z</time></trkpt><trkpt lat="42.3946579" lon="14.2276678"><ele>97.75</ele><time>2026-05-01T08:35:46.832Z</time></trkpt><trkpt lat="42.3947035" lon="14.2278252"><ele>98.0</ele><time>2026-05-01T08:35:47.832Z</time></trkpt><trkpt lat="42.3947523" lon="14.227985"><ele>96.5</ele><time>2026-05-01T08:35:48.832Z</time></trkpt><trkpt lat="42.3947942" lon="14.2281396"><ele>95.0</ele><time>2026-05-01T08:35:49.832Z</time></trkpt><trkpt lat="42.3948384" lon="14.2282923"><ele>93.5</ele><time>2026-05-01T08:35:50.832Z</time></trkpt><trkpt lat="42.3948909" lon="14.2284481"><ele>92.0</ele><time>2026-05-01T08:35:51.832Z</time></trkpt><trkpt lat="42.3949523" lon="14.2286068"><ele>91.5</ele><time>2026-05-01T08:35:52.832Z</time></trkpt><trkpt lat="42.3950176" lon="14.2287649"><ele>91.0</ele><time>2026-05-01T08:35:53.832Z</time></trkpt><trkpt lat="42.3950805" lon="14.2289138"><ele>90.5</ele><time>2026-05-01T08:35:54.832Z</time></trkpt><trkpt lat="42.3951461" lon="14.22907"><ele>90.0</ele><time>2026-05-01T08:35:55.832Z</time></trkpt><trkpt lat="42.3952069" lon="14.2292299"><ele>91.0</ele><time>2026-05-01T08:35:56.832Z</time></trkpt><trkpt lat="42.3952651" lon="14.229392"><ele>92.0</ele><time>2026-05-01T08:35:57.832Z</time></trkpt><trkpt lat="42.395324" lon="14.2295531"><ele>93.0</ele><time>2026-05-01T08:35:58.832Z</time></trkpt><trkpt lat="42.3953802" lon="14.229716"><ele>94.0</ele><time>2026-05-01T08:35:59.832Z</time></trkpt><trkpt lat="42.3954266" lon="14.2298673"><ele>94.25</ele><time>2026-05-01T08:36:00.832Z</time></trkpt><trkpt lat="42.3954751" lon="14.230013"><ele>94.5</ele><time>2026-05-01T08:36:01.832Z</time></trkpt><trkpt lat="42.3955264" lon="14.2301619"><ele>94.75</ele><time>2026-05-01T08:36:02.832Z</time></trkpt><trkpt lat="42.3955764" lon="14.2303089"><ele>95.0</ele><time>2026-05-01T08:36:03.832Z</time></trkpt><trkpt lat="42.3956273" lon="14.2304562"><ele>92.0</ele><time>2026-05-01T08:36:04.832Z</time></trkpt><trkpt lat="42.3956802" lon="14.2306093"><ele>89.0</ele><time>2026-05-01T08:36:05.832Z</time></trkpt><trkpt lat="42.3957318" lon="14.2307623"><ele>86.0</ele><time>2026-05-01T08:36:06.832Z</time></trkpt><trkpt lat="42.3957868" lon="14.2309208"><ele>83.0</ele><time>2026-05-01T08:36:07.832Z</time></trkpt><trkpt lat="42.3958372" lon="14.2310851"><ele>82.75</ele><time>2026-05-01T08:36:08.832Z</time></trkpt><trkpt lat="42.3958872" lon="14.2312555"><ele>82.5</ele><time>2026-05-01T08:36:09.832Z</time></trkpt><trkpt lat="42.395938" lon="14.2314149"><ele>82.25</ele><time>2026-05-01T08:36:10.832Z</time></trkpt><trkpt lat="42.3959917" lon="14.2315751"><ele>82.0</ele><time>2026-05-01T08:36:11.832Z</time></trkpt><trkpt lat="42.3960469" lon="14.2317398"><ele>82.0</ele><time>2026-05-01T08:36:12.831Z</time></trkpt><trkpt lat="42.3960902" lon="14.2318929"><ele>82.0</ele><time>2026-05-01T08:36:13.831Z</time></trkpt><trkpt lat="42.3961313" lon="14.232041"><ele>82.0</ele><time>2026-05-01T08:36:14.832Z</time></trkpt><trkpt lat="42.3961707" lon="14.2321759"><ele>82.0</ele><time>2026-05-01T08:36:15.832Z</time></trkpt><trkpt lat="42.3961995" lon="14.2323148"><ele>82.25</ele><time>2026-05-01T08:36:16.831Z</time></trkpt><trkpt lat="42.3962166" lon="14.2324556"><ele>82.5</ele><time>2026-05-01T08:36:17.831Z</time></trkpt><trkpt lat="42.3962269" lon="14.2326053"><ele>82.75</ele><time>2026-05-01T08:36:18.832Z</time></trkpt><trkpt lat="42.3962277" lon="14.2327639"><ele>83.0</ele><time>2026-05-01T08:36:19.832Z</time></trkpt><trkpt lat="42.3962145" lon="14.2329393"><ele>83.0</ele><time>2026-05-01T08:36:20.832Z</time></trkpt><trkpt lat="42.3961975" lon="14.2331142"><ele>83.0</ele><time>2026-05-01T08:36:21.832Z</time></trkpt><trkpt lat="42.3961838" lon="14.2332826"><ele>83.0</ele><time>2026-05-01T08:36:22.832Z</time></trkpt><trkpt lat="42.3961734" lon="14.2334471"><ele>83.0</ele><time>2026-05-01T08:36:23.831Z</time></trkpt><trkpt lat="42.3961657" lon="14.2336096"><ele>82.25</ele><time>2026-05-01T08:36:24.832Z</time></trkpt><trkpt lat="42.3961521" lon="14.2337693"><ele>81.5</ele><time>2026-05-01T08:36:25.832Z</time></trkpt><trkpt lat="42.3961391" lon="14.2339367"><ele>80.75</ele><time>2026-05-01T08:36:26.831Z</time></trkpt><trkpt lat="42.3961252" lon="14.2340987"><ele>80.0</ele><time>2026-05-01T08:36:27.832Z</time></trkpt><trkpt lat="42.3961137" lon="14.2342485"><ele>80.0</ele><time>2026-05-01T08:36:28.832Z</time></trkpt><trkpt lat="42.3961144" lon="14.2343848"><ele>80.0</ele><time>2026-05-01T08:36:29.832Z</time></trkpt><trkpt lat="42.3961318" lon="14.2344974"><ele>80.0</ele><time>2026-05-01T08:36:30.832Z</time></trkpt><trkpt lat="42.3961568" lon="14.2345877"><ele>80.0</ele><time>2026-05-01T08:36:31.832Z</time></trkpt><trkpt lat="42.3961985" lon="14.2346851"><ele>80.0</ele><time>2026-05-01T08:36:33.832Z</time></trkpt><trkpt lat="42.3962465" lon="14.2347851"><ele>80.0</ele><time>2026-05-01T08:37:08.832Z</time></trkpt><trkpt lat="42.3962834" lon="14.2348746"><ele>79.6</ele><time>2026-05-01T08:37:09.832Z</time></trkpt><trkpt lat="42.3963228" lon="14.2349888"><ele>79.2</ele><time>2026-05-01T08:37:10.832Z</time></trkpt><trkpt lat="42.3963596" lon="14.2351169"><ele>78.8</ele><time>2026-05-01T08:37:11.832Z</time></trkpt><trkpt lat="42.396384" lon="14.2352618"><ele>78.4</ele><time>2026-05-01T08:37:12.832Z</time></trkpt><trkpt lat="42.3963972" lon="14.2354156"><ele>78.0</ele><time>2026-05-01T08:37:13.831Z</time></trkpt><trkpt lat="42.396389" lon="14.2355684"><ele>77.25</ele><time>2026-05-01T08:37:14.832Z</time></trkpt><trkpt lat="42.3963597" lon="14.2357278"><ele>76.5</ele><time>2026-05-01T08:37:15.831Z</time></trkpt><trkpt lat="42.3963129" lon="14.2359015"><ele>75.75</ele><time>2026-05-01T08:37:16.832Z</time></trkpt><trkpt lat="42.3962591" lon="14.2360696"><ele>75.0</ele><time>2026-05-01T08:37:17.832Z</time></trkpt><trkpt lat="42.3962062" lon="14.2362206"><ele>75.0</ele><time>2026-05-01T08:37:18.832Z</time></trkpt><trkpt lat="42.3961611" lon="14.2363677"><ele>75.0</ele><time>2026-05-01T08:37:19.832Z</time></trkpt><trkpt lat="42.3961258" lon="14.2365288"><ele>75.0</ele><time>2026-05-01T08:37:20.832Z</time></trkpt><trkpt lat="42.3961057" lon="14.2366828"><ele>75.0</ele><time>2026-05-01T08:37:21.832Z</time></trkpt><trkpt lat="42.3960931" lon="14.2368419"><ele>74.8</ele><time>2026-05-01T08:37:22.832Z</time></trkpt><trkpt lat="42.3960838" lon="14.2369966"><ele>74.6</ele><time>2026-05-01T08:37:23.832Z</time></trkpt><trkpt lat="42.3960821" lon="14.2371368"><ele>74.4</ele><time>2026-05-01T08:37:24.832Z</time></trkpt><trkpt lat="42.3960982" lon="14.2372734"><ele>74.2</ele><time>2026-05-01T08:37:25.832Z</time></trkpt><trkpt lat="42.3961279" lon="14.2374027"><ele>74.0</ele><time>2026-05-01T08:37:26.831Z</time></trkpt><trkpt lat="42.3961663" lon="14.2375367"><ele>73.4</ele><time>2026-05-01T08:37:27.832Z</time></trkpt><trkpt lat="42.3962098" lon="14.2376741"><ele>72.80000000000001</ele><time>2026-05-01T08:37:28.832Z</time></trkpt><trkpt lat="42.396247" lon="14.2378135"><ele>72.19999999999999</ele><time>2026-05-01T08:37:29.832Z</time></trkpt><trkpt lat="42.3962733" lon="14.2379444"><ele>71.6</ele><time>2026-05-01T08:37:30.832Z</time></trkpt><trkpt lat="42.3963" lon="14.2380848"><ele>71.0</ele><time>2026-05-01T08:37:31.832Z</time></trkpt><trkpt lat="42.3963227" lon="14.2382294"><ele>70.0</ele><time>2026-05-01T08:37:32.832Z</time></trkpt><trkpt lat="42.3963488" lon="14.2383703"><ele>69.0</ele><time>2026-05-01T08:37:33.832Z</time></trkpt><trkpt lat="42.3963821" lon="14.2385009"><ele>68.0</ele><time>2026-05-01T08:37:34.832Z</time></trkpt><trkpt lat="42.3964173" lon="14.2386263"><ele>67.0</ele><time>2026-05-01T08:37:35.832Z</time></trkpt><trkpt lat="42.3964438" lon="14.2387501"><ele>66.0</ele><time>2026-05-01T08:37:36.832Z</time></trkpt><trkpt lat="42.3964562" lon="14.2388809"><ele>65.5</ele><time>2026-05-01T08:37:37.832Z</time></trkpt><trkpt lat="42.3964617" lon="14.2390202"><ele>65.0</ele><time>2026-05-01T08:37:38.832Z</time></trkpt><trkpt lat="42.3964533" lon="14.2391745"><ele>64.5</ele><time>2026-05-01T08:37:39.832Z</time></trkpt><trkpt lat="42.3964367" lon="14.2393418"><ele>64.0</ele><time>2026-05-01T08:37:40.832Z</time></trkpt><trkpt lat="42.3964178" lon="14.2395071"><ele>64.0</ele><time>2026-05-01T08:37:41.832Z</time></trkpt><trkpt lat="42.3963912" lon="14.2396814"><ele>64.0</ele><time>2026-05-01T08:37:42.832Z</time></trkpt><trkpt lat="42.3963633" lon="14.2398564"><ele>64.0</ele><time>2026-05-01T08:37:43.832Z</time></trkpt><trkpt lat="42.396331" lon="14.2400378"><ele>64.0</ele><time>2026-05-01T08:37:44.832Z</time></trkpt><trkpt lat="42.3963075" lon="14.2402113"><ele>62.75</ele><time>2026-05-01T08:37:45.832Z</time></trkpt><trkpt lat="42.396282" lon="14.2403718"><ele>61.5</ele><time>2026-05-01T08:37:46.831Z</time></trkpt><trkpt lat="42.3962597" lon="14.2405244"><ele>60.25</ele><time>2026-05-01T08:37:47.832Z</time></trkpt><trkpt lat="42.3962387" lon="14.2406714"><ele>59.0</ele><time>2026-05-01T08:37:48.831Z</time></trkpt><trkpt lat="42.3962107" lon="14.24082"><ele>58.400000000000006</ele><time>2026-05-01T08:37:49.832Z</time></trkpt><trkpt lat="42.3961782" lon="14.24097"><ele>57.800000000000004</ele><time>2026-05-01T08:37:50.832Z</time></trkpt><trkpt lat="42.3961378" lon="14.241108"><ele>57.199999999999996</ele><time>2026-05-01T08:37:51.831Z</time></trkpt><trkpt lat="42.3960989" lon="14.2412446"><ele>56.599999999999994</ele><time>2026-05-01T08:37:52.832Z</time></trkpt><trkpt lat="42.3960592" lon="14.2413785"><ele>56.0</ele><time>2026-05-01T08:37:53.832Z</time></trkpt><trkpt lat="42.3960249" lon="14.2415051"><ele>55.4</ele><time>2026-05-01T08:37:54.832Z</time></trkpt><trkpt lat="42.3959898" lon="14.2416249"><ele>54.8</ele><time>2026-05-01T08:37:55.832Z</time></trkpt><trkpt lat="42.3959561" lon="14.2417543"><ele>54.199999999999996</ele><time>2026-05-01T08:37:56.832Z</time></trkpt><trkpt lat="42.3959156" lon="14.2418857"><ele>53.599999999999994</ele><time>2026-05-01T08:37:57.832Z</time></trkpt><trkpt lat="42.3958631" lon="14.2420096"><ele>53.0</ele><time>2026-05-01T08:37:58.831Z</time></trkpt><trkpt lat="42.395802" lon="14.2421236"><ele>53.0</ele><time>2026-05-01T08:37:59.832Z</time></trkpt><trkpt lat="42.3957408" lon="14.2422373"><ele>53.0</ele><time>2026-05-01T08:38:00.832Z</time></trkpt><trkpt lat="42.3956972" lon="14.2423442"><ele>53.0</ele><time>2026-05-01T08:38:01.832Z</time></trkpt><trkpt lat="42.3956657" lon="14.2424619"><ele>53.0</ele><time>2026-05-01T08:38:02.832Z</time></trkpt><trkpt lat="42.3956537" lon="14.2425853"><ele>53.0</ele><time>2026-05-01T08:38:03.832Z</time></trkpt><trkpt lat="42.3956532" lon="14.2427226"><ele>52.25</ele><time>2026-05-01T08:38:04.832Z</time></trkpt><trkpt lat="42.3956488" lon="14.2428698"><ele>51.5</ele><time>2026-05-01T08:38:05.832Z</time></trkpt><trkpt lat="42.3956393" lon="14.2430236"><ele>50.75</ele><time>2026-05-01T08:38:06.832Z</time></trkpt><trkpt lat="42.3956289" lon="14.2431765"><ele>50.0</ele><time>2026-05-01T08:38:07.831Z</time></trkpt><trkpt lat="42.3956237" lon="14.2433303"><ele>50.0</ele><time>2026-05-01T08:38:08.832Z</time></trkpt><trkpt lat="42.3956189" lon="14.2434759"><ele>50.0</ele><time>2026-05-01T08:38:09.832Z</time></trkpt><trkpt lat="42.3956174" lon="14.2436193"><ele>50.0</ele><time>2026-05-01T08:38:10.832Z</time></trkpt><trkpt lat="42.395623" lon="14.2437585"><ele>50.0</ele><time>2026-05-01T08:38:11.831Z</time></trkpt><trkpt lat="42.3956278" lon="14.243898"><ele>50.0</ele><time>2026-05-01T08:38:12.832Z</time></trkpt><trkpt lat="42.3956292" lon="14.2440439"><ele>49.75</ele><time>2026-05-01T08:38:13.832Z</time></trkpt><trkpt lat="42.3956289" lon="14.2442126"><ele>49.5</ele><time>2026-05-01T08:38:14.832Z</time></trkpt><trkpt lat="42.3956226" lon="14.2443798"><ele>49.25</ele><time>2026-05-01T08:38:15.832Z</time></trkpt><trkpt lat="42.3956211" lon="14.2445371"><ele>49.0</ele><time>2026-05-01T08:38:16.832Z</time></trkpt><trkpt lat="42.3956219" lon="14.2446829"><ele>48.800000000000004</ele><time>2026-05-01T08:38:17.832Z</time></trkpt><trkpt lat="42.3956219" lon="14.2448247"><ele>48.6</ele><time>2026-05-01T08:38:18.832Z</time></trkpt><trkpt lat="42.3956207" lon="14.2449615"><ele>48.4</ele><time>2026-05-01T08:38:19.832Z</time></trkpt><trkpt lat="42.3956105" lon="14.2451052"><ele>48.2</ele><time>2026-05-01T08:38:20.832Z</time></trkpt><trkpt lat="42.3956058" lon="14.2452488"><ele>48.0</ele><time>2026-05-01T08:38:21.832Z</time></trkpt><trkpt lat="42.3956088" lon="14.2453929"><ele>48.0</ele><time>2026-05-01T08:38:22.832Z</time></trkpt><trkpt lat="42.3956071" lon="14.2455336"><ele>48.0</ele><time>2026-05-01T08:38:23.832Z</time></trkpt><trkpt lat="42.3956043" lon="14.2456727"><ele>48.0</ele><time>2026-05-01T08:38:24.832Z</time></trkpt><trkpt lat="42.3955991" lon="14.2458023"><ele>48.0</ele><time>2026-05-01T08:38:25.832Z</time></trkpt><trkpt lat="42.3955827" lon="14.2459324"><ele>48.0</ele><time>2026-05-01T08:38:26.832Z</time></trkpt><trkpt lat="42.3955665" lon="14.2460621"><ele>47.8</ele><time>2026-05-01T08:38:27.832Z</time></trkpt><trkpt lat="42.395532" lon="14.2461868"><ele>47.599999999999994</ele><time>2026-05-01T08:38:28.832Z</time></trkpt><trkpt lat="42.3954913" lon="14.2463179"><ele>47.400000000000006</ele><time>2026-05-01T08:38:29.831Z</time></trkpt><trkpt lat="42.3954473" lon="14.2464529"><ele>47.2</ele><time>2026-05-01T08:38:30.832Z</time></trkpt><trkpt lat="42.3954056" lon="14.2465829"><ele>47.0</ele><time>2026-05-01T08:38:31.832Z</time></trkpt><trkpt lat="42.3953598" lon="14.2467003"><ele>47.0</ele><time>2026-05-01T08:38:32.832Z</time></trkpt><trkpt lat="42.3953329" lon="14.2468227"><ele>47.0</ele><time>2026-05-01T08:38:33.832Z</time></trkpt><trkpt lat="42.3953136" lon="14.2469536"><ele>47.0</ele><time>2026-05-01T08:38:34.832Z</time></trkpt><trkpt lat="42.3952967" lon="14.2470881"><ele>47.0</ele><time>2026-05-01T08:38:35.832Z</time></trkpt><trkpt lat="42.3952704" lon="14.2472229"><ele>47.0</ele><time>2026-05-01T08:38:36.832Z</time></trkpt><trkpt lat="42.3952394" lon="14.2473656"><ele>46.400000000000006</ele><time>2026-05-01T08:38:37.832Z</time></trkpt><trkpt lat="42.3952048" lon="14.2475085"><ele>45.800000000000004</ele><time>2026-05-01T08:38:38.832Z</time></trkpt><trkpt lat="42.3951764" lon="14.2476495"><ele>45.2</ele><time>2026-05-01T08:38:39.832Z</time></trkpt><trkpt lat="42.3951615" lon="14.2477839"><ele>44.6</ele><time>2026-05-01T08:38:40.832Z</time></trkpt><trkpt lat="42.3951578" lon="14.247916"><ele>44.0</ele><time>2026-05-01T08:38:41.832Z</time></trkpt><trkpt lat="42.3951668" lon="14.2480618"><ele>43.400000000000006</ele><time>2026-05-01T08:38:42.832Z</time></trkpt><trkpt lat="42.3951901" lon="14.2482114"><ele>42.8</ele><time>2026-05-01T08:38:43.832Z</time></trkpt><trkpt lat="42.3952136" lon="14.248353"><ele>42.2</ele><time>2026-05-01T08:38:44.832Z</time></trkpt><trkpt lat="42.3952265" lon="14.2484822"><ele>41.599999999999994</ele><time>2026-05-01T08:38:45.832Z</time></trkpt><trkpt lat="42.3952287" lon="14.248613"><ele>41.0</ele><time>2026-05-01T08:38:46.832Z</time></trkpt><trkpt lat="42.3952096" lon="14.2487616"><ele>41.0</ele><time>2026-05-01T08:38:47.831Z</time></trkpt><trkpt lat="42.3951829" lon="14.2489206"><ele>41.0</ele><time>2026-05-01T08:38:48.832Z</time></trkpt><trkpt lat="42.3951515" lon="14.2490995"><ele>41.0</ele><time>2026-05-01T08:38:49.832Z</time></trkpt><trkpt lat="42.3951145" lon="14.2492817"><ele>41.0</ele><time>2026-05-01T08:38:50.832Z</time></trkpt><trkpt lat="42.3950761" lon="14.2494485"><ele>41.0</ele><time>2026-05-01T08:38:51.832Z</time></trkpt><trkpt lat="42.3950337" lon="14.249599"><ele>41.0</ele><time>2026-05-01T08:38:52.832Z</time></trkpt><trkpt lat="42.3949877" lon="14.2497464"><ele>41.0</ele><time>2026-05-01T08:38:53.831Z</time></trkpt><trkpt lat="42.3949393" lon="14.249894"><ele>41.0</ele><time>2026-05-01T08:38:54.832Z</time></trkpt><trkpt lat="42.3948908" lon="14.2500396"><ele>40.25</ele><time>2026-05-01T08:38:55.832Z</time></trkpt><trkpt lat="42.3948449" lon="14.2501913"><ele>39.5</ele><time>2026-05-01T08:38:56.832Z</time></trkpt><trkpt lat="42.3947984" lon="14.2503381"><ele>38.75</ele><time>2026-05-01T08:38:57.832Z</time></trkpt><trkpt lat="42.3947517" lon="14.2504843"><ele>38.0</ele><time>2026-05-01T08:38:58.832Z</time></trkpt><trkpt lat="42.394699" lon="14.2506342"><ele>39.2</ele><time>2026-05-01T08:38:59.832Z</time></trkpt><trkpt lat="42.3946532" lon="14.2507757"><ele>40.4</ele><time>2026-05-01T08:39:00.832Z</time></trkpt><trkpt lat="42.3946076" lon="14.2508984"><ele>41.6</ele><time>2026-05-01T08:39:01.832Z</time></trkpt><trkpt lat="42.3945667" lon="14.2510144"><ele>42.800000000000004</ele><time>2026-05-01T08:39:02.832Z</time></trkpt><trkpt lat="42.394524" lon="14.251138"><ele>44.0</ele><time>2026-05-01T08:39:03.832Z</time></trkpt><trkpt lat="42.3944833" lon="14.2512713"><ele>44.0</ele><time>2026-05-01T08:39:04.832Z</time></trkpt><trkpt lat="42.3944435" lon="14.2514073"><ele>44.0</ele><time>2026-05-01T08:39:05.832Z</time></trkpt><trkpt lat="42.394407" lon="14.2515376"><ele>44.0</ele><time>2026-05-01T08:39:06.831Z</time></trkpt><trkpt lat="42.3943701" lon="14.2516624"><ele>44.0</ele><time>2026-05-01T08:39:07.831Z</time></trkpt><trkpt lat="42.3943348" lon="14.2517852"><ele>44.0</ele><time>2026-05-01T08:39:08.832Z</time></trkpt><trkpt lat="42.3943046" lon="14.2519005"><ele>43.166666666666664</ele><time>2026-05-01T08:39:09.832Z</time></trkpt><trkpt lat="42.3942748" lon="14.252009"><ele>42.33333333333333</ele><time>2026-05-01T08:39:10.831Z</time></trkpt><trkpt lat="42.3942439" lon="14.2521136"><ele>41.5</ele><time>2026-05-01T08:39:11.832Z</time></trkpt><trkpt lat="42.3942189" lon="14.2522002"><ele>40.666666666666664</ele><time>2026-05-01T08:39:12.831Z</time></trkpt><trkpt lat="42.3942015" lon="14.2523471"><ele>39.833333333333336</ele><time>2026-05-01T08:39:14.832Z</time></trkpt><trkpt lat="42.3942066" lon="14.2524334"><ele>39.0</ele><time>2026-05-01T08:39:15.832Z</time></trkpt><trkpt lat="42.3942057" lon="14.2525771"><ele>38.5</ele><time>2026-05-01T08:39:17.832Z</time></trkpt><trkpt lat="42.3941868" lon="14.252675"><ele>38.0</ele><time>2026-05-01T08:39:23.832Z</time></trkpt><trkpt lat="42.3941564" lon="14.2527818"><ele>37.5</ele><time>2026-05-01T08:39:33.832Z</time></trkpt><trkpt lat="42.3940745" lon="14.2527877"><ele>37.0</ele><time>2026-05-01T08:39:36.832Z</time></trkpt><trkpt lat="42.3940168" lon="14.2527241"><ele>36.5</ele><time>2026-05-01T08:39:37.832Z</time></trkpt><trkpt lat="42.3939384" lon="14.2526689"><ele>36.0</ele><time>2026-05-01T08:39:38.832Z</time></trkpt><trkpt lat="42.3938623" lon="14.2526113"><ele>35.6</ele><time>2026-05-01T08:39:39.832Z</time></trkpt><trkpt lat="42.39379" lon="14.2525556"><ele>35.2</ele><time>2026-05-01T08:39:40.832Z</time></trkpt><trkpt lat="42.3937159" lon="14.2524864"><ele>34.8</ele><time>2026-05-01T08:39:41.832Z</time></trkpt><trkpt lat="42.3936304" lon="14.2524035"><ele>34.4</ele><time>2026-05-01T08:39:42.832Z</time></trkpt><trkpt lat="42.3935368" lon="14.2523254"><ele>34.0</ele><time>2026-05-01T08:39:43.831Z</time></trkpt><trkpt lat="42.393441" lon="14.2522517"><ele>35.75</ele><time>2026-05-01T08:39:44.832Z</time></trkpt><trkpt lat="42.3933432" lon="14.2521667"><ele>37.5</ele><time>2026-05-01T08:39:45.832Z</time></trkpt><trkpt lat="42.3932432" lon="14.2520769"><ele>39.25</ele><time>2026-05-01T08:39:46.832Z</time></trkpt><trkpt lat="42.393139" lon="14.2519782"><ele>41.0</ele><time>2026-05-01T08:39:47.832Z</time></trkpt><trkpt lat="42.3930326" lon="14.2518871"><ele>39.75</ele><time>2026-05-01T08:39:48.832Z</time></trkpt><trkpt lat="42.3929225" lon="14.2517987"><ele>38.5</ele><time>2026-05-01T08:39:49.832Z</time></trkpt><trkpt lat="42.3928124" lon="14.2517065"><ele>37.25</ele><time>2026-05-01T08:39:50.832Z</time></trkpt><trkpt lat="42.3927018" lon="14.2516164"><ele>36.0</ele><time>2026-05-01T08:39:51.832Z</time></trkpt><trkpt lat="42.3925928" lon="14.2515215"><ele>35.75</ele><time>2026-05-01T08:39:52.832Z</time></trkpt><trkpt lat="42.3924854" lon="14.2514252"><ele>35.5</ele><time>2026-05-01T08:39:53.832Z</time></trkpt><trkpt lat="42.3923736" lon="14.2513236"><ele>35.25</ele><time>2026-05-01T08:39:54.832Z</time></trkpt><trkpt lat="42.3922586" lon="14.2512291"><ele>35.0</ele><time>2026-05-01T08:39:55.831Z</time></trkpt><trkpt lat="42.3921432" lon="14.2511313"><ele>35.0</ele><time>2026-05-01T08:39:56.832Z</time></trkpt><trkpt lat="42.3920241" lon="14.2510409"><ele>35.0</ele><time>2026-05-01T08:39:57.832Z</time></trkpt><trkpt lat="42.3919041" lon="14.2509453"><ele>35.0</ele><time>2026-05-01T08:39:58.832Z</time></trkpt><trkpt lat="42.3917812" lon="14.2508398"><ele>35.0</ele><time>2026-05-01T08:39:59.832Z</time></trkpt><trkpt lat="42.3916559" lon="14.2507254"><ele>35.666666666666664</ele><time>2026-05-01T08:40:00.832Z</time></trkpt><trkpt lat="42.3915319" lon="14.2506133"><ele>36.333333333333336</ele><time>2026-05-01T08:40:01.832Z</time></trkpt><trkpt lat="42.3914024" lon="14.2505037"><ele>37.0</ele><time>2026-05-01T08:40:02.832Z</time></trkpt><trkpt lat="42.3912735" lon="14.2503979"><ele>37.0</ele><time>2026-05-01T08:40:03.831Z</time></trkpt><trkpt lat="42.3911448" lon="14.2502855"><ele>37.0</ele><time>2026-05-01T08:40:04.832Z</time></trkpt><trkpt lat="42.3910145" lon="14.2501737"><ele>37.0</ele><time>2026-05-01T08:40:05.832Z</time></trkpt><trkpt lat="42.3908797" lon="14.2500572"><ele>37.0</ele><time>2026-05-01T08:40:06.832Z</time></trkpt><trkpt lat="42.3907414" lon="14.2499335"><ele>37.0</ele><time>2026-05-01T08:40:07.832Z</time></trkpt><trkpt lat="42.3906011" lon="14.2498192"><ele>37.0</ele><time>2026-05-01T08:40:08.831Z</time></trkpt><trkpt lat="42.3904582" lon="14.2497137"><ele>38.0</ele><time>2026-05-01T08:40:09.831Z</time></trkpt><trkpt lat="42.3903159" lon="14.249609"><ele>39.0</ele><time>2026-05-01T08:40:10.832Z</time></trkpt><trkpt lat="42.390169" lon="14.2495127"><ele>40.0</ele><time>2026-05-01T08:40:11.832Z</time></trkpt><trkpt lat="42.3900248" lon="14.2494191"><ele>40.0</ele><time>2026-05-01T08:40:12.832Z</time></trkpt><trkpt lat="42.3898763" lon="14.24933"><ele>40.0</ele><time>2026-05-01T08:40:13.832Z</time></trkpt><trkpt lat="42.3897272" lon="14.2492471"><ele>40.0</ele><time>2026-05-01T08:40:14.831Z</time></trkpt><trkpt lat="42.3895748" lon="14.2491574"><ele>40.333333333333336</ele><time>2026-05-01T08:40:15.832Z</time></trkpt><trkpt lat="42.3894229" lon="14.2490635"><ele>40.666666666666664</ele><time>2026-05-01T08:40:16.831Z</time></trkpt><trkpt lat="42.3892756" lon="14.2489732"><ele>41.0</ele><time>2026-05-01T08:40:17.832Z</time></trkpt><trkpt lat="42.3891292" lon="14.2488795"><ele>41.0</ele><time>2026-05-01T08:40:18.832Z</time></trkpt><trkpt lat="42.3889892" lon="14.2487757"><ele>41.0</ele><time>2026-05-01T08:40:19.831Z</time></trkpt><trkpt lat="42.3888564" lon="14.2486585"><ele>41.0</ele><time>2026-05-01T08:40:20.832Z</time></trkpt><trkpt lat="42.3887275" lon="14.2485368"><ele>40.0</ele><time>2026-05-01T08:40:21.831Z</time></trkpt><trkpt lat="42.3886024" lon="14.2484054"><ele>39.0</ele><time>2026-05-01T08:40:22.832Z</time></trkpt><trkpt lat="42.3884806" lon="14.2482687"><ele>38.0</ele><time>2026-05-01T08:40:23.832Z</time></trkpt><trkpt lat="42.3883623" lon="14.2481234"><ele>41.33333333333333</ele><time>2026-05-01T08:40:24.831Z</time></trkpt><trkpt lat="42.3882488" lon="14.2479631"><ele>44.666666666666664</ele><time>2026-05-01T08:40:25.832Z</time></trkpt><trkpt lat="42.3881386" lon="14.2478022"><ele>48.0</ele><time>2026-05-01T08:40:26.832Z</time></trkpt><trkpt lat="42.3880258" lon="14.2476411"><ele>46.333333333333336</ele><time>2026-05-01T08:40:27.832Z</time></trkpt><trkpt lat="42.3879124" lon="14.2474846"><ele>44.66666666666667</ele><time>2026-05-01T08:40:28.832Z</time></trkpt><trkpt lat="42.3878028" lon="14.2473304"><ele>43.0</ele><time>2026-05-01T08:40:29.832Z</time></trkpt><trkpt lat="42.3876945" lon="14.2471791"><ele>43.0</ele><time>2026-05-01T08:40:30.832Z</time></trkpt><trkpt lat="42.387584" lon="14.2470307"><ele>43.0</ele><time>2026-05-01T08:40:31.831Z</time></trkpt><trkpt lat="42.3874779" lon="14.2468831"><ele>43.0</ele><time>2026-05-01T08:40:32.832Z</time></trkpt><trkpt lat="42.387379" lon="14.2467544"><ele>43.0</ele><time>2026-05-01T08:40:33.832Z</time></trkpt><trkpt lat="42.3872992" lon="14.2466393"><ele>43.0</ele><time>2026-05-01T08:40:34.832Z</time></trkpt><trkpt lat="42.3872308" lon="14.246542"><ele>43.0</ele><time>2026-05-01T08:40:35.832Z</time></trkpt><trkpt lat="42.3871764" lon="14.2464567"><ele>43.0</ele><time>2026-05-01T08:40:36.832Z</time></trkpt><trkpt lat="42.3871421" lon="14.2463759"><ele>43.0</ele><time>2026-05-01T08:40:37.831Z</time></trkpt><trkpt lat="42.3871265" lon="14.2462905"><ele>43.0</ele><time>2026-05-01T08:40:38.832Z</time></trkpt><trkpt lat="42.3871084" lon="14.246202"><ele>43.0</ele><time>2026-05-01T08:40:39.832Z</time></trkpt><trkpt lat="42.3870622" lon="14.2461066"><ele>42.8</ele><time>2026-05-01T08:40:40.832Z</time></trkpt><trkpt lat="42.3870045" lon="14.2460116"><ele>42.599999999999994</ele><time>2026-05-01T08:40:41.832Z</time></trkpt><trkpt lat="42.3869393" lon="14.2459048"><ele>42.400000000000006</ele><time>2026-05-01T08:40:42.832Z</time></trkpt><trkpt lat="42.3868717" lon="14.2457876"><ele>42.2</ele><time>2026-05-01T08:40:43.832Z</time></trkpt><trkpt lat="42.3868021" lon="14.245672"><ele>42.0</ele><time>2026-05-01T08:40:44.832Z</time></trkpt><trkpt lat="42.3867207" lon="14.245566"><ele>42.0</ele><time>2026-05-01T08:40:45.832Z</time></trkpt><trkpt lat="42.3866286" lon="14.2454491"><ele>42.0</ele><time>2026-05-01T08:40:46.832Z</time></trkpt><trkpt lat="42.3865228" lon="14.2453306"><ele>42.0</ele><time>2026-05-01T08:40:47.832Z</time></trkpt><trkpt lat="42.3864112" lon="14.2452071"><ele>42.0</ele><time>2026-05-01T08:40:48.832Z</time></trkpt><trkpt lat="42.3862965" lon="14.2450914"><ele>42.0</ele><time>2026-05-01T08:40:49.832Z</time></trkpt><trkpt lat="42.3861796" lon="14.2449738"><ele>42.0</ele><time>2026-05-01T08:40:50.832Z</time></trkpt><trkpt lat="42.386058" lon="14.2448677"><ele>42.0</ele><time>2026-05-01T08:40:51.832Z</time></trkpt><trkpt lat="42.3859423" lon="14.2447574"><ele>42.0</ele><time>2026-05-01T08:40:52.832Z</time></trkpt><trkpt lat="42.385822" lon="14.2446457"><ele>42.333333333333336</ele><time>2026-05-01T08:40:53.832Z</time></trkpt><trkpt lat="42.3856968" lon="14.244531"><ele>42.66666666666667</ele><time>2026-05-01T08:40:54.831Z</time></trkpt><trkpt lat="42.3855602" lon="14.2444205"><ele>43.0</ele><time>2026-05-01T08:40:55.831Z</time></trkpt><trkpt lat="42.3854246" lon="14.2443067"><ele>43.0</ele><time>2026-05-01T08:40:56.832Z</time></trkpt><trkpt lat="42.3852925" lon="14.2441877"><ele>43.0</ele><time>2026-05-01T08:40:57.832Z</time></trkpt><trkpt lat="42.3851696" lon="14.2440716"><ele>43.0</ele><time>2026-05-01T08:40:58.832Z</time></trkpt><trkpt lat="42.3850621" lon="14.243948"><ele>44.25</ele><time>2026-05-01T08:40:59.832Z</time></trkpt><trkpt lat="42.3849714" lon="14.2438213"><ele>45.5</ele><time>2026-05-01T08:41:00.832Z</time></trkpt><trkpt lat="42.3849008" lon="14.2436736"><ele>46.75</ele><time>2026-05-01T08:41:01.832Z</time></trkpt><trkpt lat="42.3848349" lon="14.2435473"><ele>48.0</ele><time>2026-05-01T08:41:02.831Z</time></trkpt><trkpt lat="42.3847432" lon="14.243441"><ele>46.25</ele><time>2026-05-01T08:41:03.831Z</time></trkpt><trkpt lat="42.3846267" lon="14.2433656"><ele>44.5</ele><time>2026-05-01T08:41:04.832Z</time></trkpt><trkpt lat="42.3844945" lon="14.2433039"><ele>42.75</ele><time>2026-05-01T08:41:05.832Z</time></trkpt><trkpt lat="42.3843501" lon="14.2432381"><ele>41.0</ele><time>2026-05-01T08:41:06.832Z</time></trkpt><trkpt lat="42.3842107" lon="14.2431513"><ele>41.666666666666664</ele><time>2026-05-01T08:41:07.832Z</time></trkpt><trkpt lat="42.3840737" lon="14.2430464"><ele>42.333333333333336</ele><time>2026-05-01T08:41:08.832Z</time></trkpt><trkpt lat="42.3839366" lon="14.242932"><ele>43.0</ele><time>2026-05-01T08:41:09.832Z</time></trkpt><trkpt lat="42.3838054" lon="14.2428123"><ele>43.0</ele><time>2026-05-01T08:41:10.832Z</time></trkpt><trkpt lat="42.3836765" lon="14.2426869"><ele>43.0</ele><time>2026-05-01T08:41:11.832Z</time></trkpt><trkpt lat="42.3835488" lon="14.2425659"><ele>43.0</ele><time>2026-05-01T08:41:12.832Z</time></trkpt><trkpt lat="42.3834221" lon="14.2424392"><ele>43.0</ele><time>2026-05-01T08:41:13.831Z</time></trkpt><trkpt lat="42.3832905" lon="14.2423111"><ele>43.0</ele><time>2026-05-01T08:41:14.832Z</time></trkpt><trkpt lat="42.3831544" lon="14.2421807"><ele>43.0</ele><time>2026-05-01T08:41:15.832Z</time></trkpt><trkpt lat="42.3830196" lon="14.2420532"><ele>43.75</ele><time>2026-05-01T08:41:16.832Z</time></trkpt><trkpt lat="42.3828974" lon="14.2419342"><ele>44.5</ele><time>2026-05-01T08:41:17.832Z</time></trkpt><trkpt lat="42.3827886" lon="14.2418348"><ele>45.25</ele><time>2026-05-01T08:41:18.832Z</time></trkpt><trkpt lat="42.3826942" lon="14.2417437"><ele>46.0</ele><time>2026-05-01T08:41:19.832Z</time></trkpt><trkpt lat="42.382602" lon="14.2416616"><ele>46.0</ele><time>2026-05-01T08:41:20.832Z</time></trkpt><trkpt lat="42.3825137" lon="14.2415719"><ele>46.0</ele><time>2026-05-01T08:41:21.832Z</time></trkpt><trkpt lat="42.3824307" lon="14.2414939"><ele>46.0</ele><time>2026-05-01T08:41:22.832Z</time></trkpt><trkpt lat="42.382339" lon="14.2414248"><ele>46.0</ele><time>2026-05-01T08:41:23.832Z</time></trkpt><trkpt lat="42.3822522" lon="14.2413519"><ele>46.0</ele><time>2026-05-01T08:41:24.832Z</time></trkpt><trkpt lat="42.3821624" lon="14.2412714"><ele>46.5</ele><time>2026-05-01T08:41:25.831Z</time></trkpt><trkpt lat="42.382072" lon="14.2411796"><ele>47.0</ele><time>2026-05-01T08:41:26.832Z</time></trkpt><trkpt lat="42.3819757" lon="14.2410858"><ele>47.5</ele><time>2026-05-01T08:41:27.832Z</time></trkpt><trkpt lat="42.3818787" lon="14.2409836"><ele>48.0</ele><time>2026-05-01T08:41:28.832Z</time></trkpt><trkpt lat="42.3817818" lon="14.2408908"><ele>48.0</ele><time>2026-05-01T08:41:29.832Z</time></trkpt><trkpt lat="42.3816827" lon="14.2407965"><ele>48.0</ele><time>2026-05-01T08:41:30.832Z</time></trkpt><trkpt lat="42.3815833" lon="14.2407183"><ele>48.0</ele><time>2026-05-01T08:41:31.832Z</time></trkpt><trkpt lat="42.3814819" lon="14.2406332"><ele>48.0</ele><time>2026-05-01T08:41:32.832Z</time></trkpt><trkpt lat="42.3813757" lon="14.2405475"><ele>49.75</ele><time>2026-05-01T08:41:33.832Z</time></trkpt><trkpt lat="42.3812648" lon="14.2404525"><ele>51.5</ele><time>2026-05-01T08:41:34.832Z</time></trkpt><trkpt lat="42.3811468" lon="14.2403585"><ele>53.25</ele><time>2026-05-01T08:41:35.832Z</time></trkpt><trkpt lat="42.3810303" lon="14.240259"><ele>55.0</ele><time>2026-05-01T08:41:36.832Z</time></trkpt><trkpt lat="42.3809074" lon="14.2401503"><ele>55.0</ele><time>2026-05-01T08:41:37.832Z</time></trkpt><trkpt lat="42.3807873" lon="14.2400337"><ele>55.0</ele><time>2026-05-01T08:41:38.832Z</time></trkpt><trkpt lat="42.3806681" lon="14.2399162"><ele>55.0</ele><time>2026-05-01T08:41:39.832Z</time></trkpt><trkpt lat="42.3805571" lon="14.2398137"><ele>55.0</ele><time>2026-05-01T08:41:40.832Z</time></trkpt><trkpt lat="42.3804567" lon="14.2397104"><ele>55.4</ele><time>2026-05-01T08:41:41.832Z</time></trkpt><trkpt lat="42.3803699" lon="14.2395855"><ele>55.8</ele><time>2026-05-01T08:41:42.832Z</time></trkpt><trkpt lat="42.3802877" lon="14.239452"><ele>56.2</ele><time>2026-05-01T08:41:43.832Z</time></trkpt><trkpt lat="42.3802107" lon="14.239337"><ele>56.6</ele><time>2026-05-01T08:41:44.832Z</time></trkpt><trkpt lat="42.3801559" lon="14.2392631"><ele>57.0</ele><time>2026-05-01T08:41:45.832Z</time></trkpt><trkpt lat="42.3801192" lon="14.2391916"><ele>57.0</ele><time>2026-05-01T08:41:46.832Z</time></trkpt><trkpt lat="42.380093" lon="14.2390618"><ele>57.0</ele><time>2026-05-01T08:41:48.832Z</time></trkpt><trkpt lat="42.3800806" lon="14.2389686"><ele>57.0</ele><time>2026-05-01T08:41:50.832Z</time></trkpt><trkpt lat="42.3800067" lon="14.2390127"><ele>57.0</ele><time>2026-05-01T08:41:54.832Z</time></trkpt><trkpt lat="42.3799555" lon="14.2391417"><ele>57.0</ele><time>2026-05-01T08:41:56.832Z</time></trkpt><trkpt lat="42.3798785" lon="14.2392748"><ele>57.0</ele><time>2026-05-01T08:41:58.832Z</time></trkpt><trkpt lat="42.3798234" lon="14.239334"><ele>57.0</ele><time>2026-05-01T08:41:59.832Z</time></trkpt><trkpt lat="42.3797578" lon="14.23939"><ele>57.0</ele><time>2026-05-01T08:42:00.832Z</time></trkpt><trkpt lat="42.3796835" lon="14.239447"><ele>57.0</ele><time>2026-05-01T08:42:01.832Z</time></trkpt><trkpt lat="42.3796115" lon="14.2395045"><ele>57.0</ele><time>2026-05-01T08:42:02.832Z</time></trkpt><trkpt lat="42.3795373" lon="14.2395602"><ele>57.0</ele><time>2026-05-01T08:42:03.831Z</time></trkpt><trkpt lat="42.3794653" lon="14.2395989"><ele>56.333333333333336</ele><time>2026-05-01T08:42:04.832Z</time></trkpt><trkpt lat="42.379395" lon="14.2396234"><ele>55.66666666666667</ele><time>2026-05-01T08:42:05.832Z</time></trkpt><trkpt lat="42.3793139" lon="14.2396496"><ele>55.0</ele><time>2026-05-01T08:42:06.832Z</time></trkpt><trkpt lat="42.3792241" lon="14.2396835"><ele>54.333333333333336</ele><time>2026-05-01T08:42:07.832Z</time></trkpt><trkpt lat="42.3791356" lon="14.2397191"><ele>53.66666666666667</ele><time>2026-05-01T08:42:08.832Z</time></trkpt><trkpt lat="42.3790592" lon="14.2397833"><ele>53.0</ele><time>2026-05-01T08:42:09.832Z</time></trkpt><trkpt lat="42.3790016" lon="14.2398746"><ele>52.00000000000001</ele><time>2026-05-01T08:42:10.832Z</time></trkpt><trkpt lat="42.3789423" lon="14.2399446"><ele>51.0</ele><time>2026-05-01T08:42:11.832Z</time></trkpt><trkpt lat="42.3788645" lon="14.2400142"><ele>50.0</ele><time>2026-05-01T08:42:13.832Z</time></trkpt><trkpt lat="42.3787988" lon="14.2400376"><ele>49.0</ele><time>2026-05-01T08:42:15.832Z</time></trkpt><trkpt lat="42.3787335" lon="14.2400336"><ele>48.0</ele><time>2026-05-01T08:42:16.832Z</time></trkpt><trkpt lat="42.3786611" lon="14.2400166"><ele>47.0</ele><time>2026-05-01T08:42:17.832Z</time></trkpt><trkpt lat="42.3785839" lon="14.2399969"><ele>47.0</ele><time>2026-05-01T08:42:18.832Z</time></trkpt><trkpt lat="42.3785067" lon="14.2399798"><ele>47.0</ele><time>2026-05-01T08:42:19.832Z</time></trkpt><trkpt lat="42.3784284" lon="14.2399663"><ele>47.0</ele><time>2026-05-01T08:42:20.832Z</time></trkpt><trkpt lat="42.3783374" lon="14.2399406"><ele>47.0</ele><time>2026-05-01T08:42:21.831Z</time></trkpt><trkpt lat="42.3782503" lon="14.2399081"><ele>47.0</ele><time>2026-05-01T08:42:22.832Z</time></trkpt><trkpt lat="42.3781623" lon="14.239836"><ele>47.0</ele><time>2026-05-01T08:42:23.832Z</time></trkpt><trkpt lat="42.3780707" lon="14.2397665"><ele>47.0</ele><time>2026-05-01T08:42:24.832Z</time></trkpt><trkpt lat="42.3779722" lon="14.2396997"><ele>47.0</ele><time>2026-05-01T08:42:25.831Z</time></trkpt><trkpt lat="42.3778634" lon="14.2396312"><ele>47.0</ele><time>2026-05-01T08:42:26.832Z</time></trkpt><trkpt lat="42.3777511" lon="14.2395574"><ele>47.0</ele><time>2026-05-01T08:42:27.832Z</time></trkpt><trkpt lat="42.377641" lon="14.2394759"><ele>47.0</ele><time>2026-05-01T08:42:28.832Z</time></trkpt><trkpt lat="42.3775235" lon="14.2393883"><ele>47.0</ele><time>2026-05-01T08:42:29.832Z</time></trkpt><trkpt lat="42.3774091" lon="14.2392973"><ele>47.0</ele><time>2026-05-01T08:42:30.832Z</time></trkpt><trkpt lat="42.3772917" lon="14.2392018"><ele>47.0</ele><time>2026-05-01T08:42:31.832Z</time></trkpt><trkpt lat="42.3771727" lon="14.2390965"><ele>46.75</ele><time>2026-05-01T08:42:32.832Z</time></trkpt><trkpt lat="42.3770503" lon="14.2389907"><ele>46.5</ele><time>2026-05-01T08:42:33.832Z</time></trkpt><trkpt lat="42.3769282" lon="14.2388878"><ele>46.25</ele><time>2026-05-01T08:42:34.832Z</time></trkpt><trkpt lat="42.3768059" lon="14.2387816"><ele>46.0</ele><time>2026-05-01T08:42:35.832Z</time></trkpt><trkpt lat="42.3766798" lon="14.2386743"><ele>46.25</ele><time>2026-05-01T08:42:36.832Z</time></trkpt><trkpt lat="42.3765572" lon="14.238561"><ele>46.5</ele><time>2026-05-01T08:42:37.832Z</time></trkpt><trkpt lat="42.3764361" lon="14.2384518"><ele>46.75</ele><time>2026-05-01T08:42:38.831Z</time></trkpt><trkpt lat="42.3763312" lon="14.2383458"><ele>47.0</ele><time>2026-05-01T08:42:39.832Z</time></trkpt><trkpt lat="42.3762269" lon="14.2382594"><ele>47.0</ele><time>2026-05-01T08:42:40.832Z</time></trkpt><trkpt lat="42.3761269" lon="14.2381967"><ele>47.0</ele><time>2026-05-01T08:42:41.832Z</time></trkpt><trkpt lat="42.376017" lon="14.2381214"><ele>47.0</ele><time>2026-05-01T08:42:42.832Z</time></trkpt><trkpt lat="42.3759054" lon="14.2380345"><ele>47.0</ele><time>2026-05-01T08:42:43.831Z</time></trkpt><trkpt lat="42.3757976" lon="14.2379325"><ele>47.5</ele><time>2026-05-01T08:42:44.831Z</time></trkpt><trkpt lat="42.375697" lon="14.2378415"><ele>48.0</ele><time>2026-05-01T08:42:45.832Z</time></trkpt><trkpt lat="42.3755972" lon="14.2377628"><ele>48.5</ele><time>2026-05-01T08:42:46.831Z</time></trkpt><trkpt lat="42.3755042" lon="14.2376885"><ele>49.0</ele><time>2026-05-01T08:42:47.832Z</time></trkpt><trkpt lat="42.3754112" lon="14.2376106"><ele>49.0</ele><time>2026-05-01T08:42:48.832Z</time></trkpt><trkpt lat="42.3753141" lon="14.2375234"><ele>49.0</ele><time>2026-05-01T08:42:49.831Z</time></trkpt><trkpt lat="42.3752104" lon="14.2374514"><ele>49.0</ele><time>2026-05-01T08:42:50.831Z</time></trkpt><trkpt lat="42.3751038" lon="14.2373813"><ele>49.0</ele><time>2026-05-01T08:42:51.832Z</time></trkpt><trkpt lat="42.3749973" lon="14.237306"><ele>50.25</ele><time>2026-05-01T08:42:52.832Z</time></trkpt><trkpt lat="42.3748932" lon="14.2372271"><ele>51.5</ele><time>2026-05-01T08:42:53.832Z</time></trkpt><trkpt lat="42.37478" lon="14.237151"><ele>52.75</ele><time>2026-05-01T08:42:54.832Z</time></trkpt><trkpt lat="42.3746578" lon="14.2370707"><ele>54.0</ele><time>2026-05-01T08:42:55.832Z</time></trkpt><trkpt lat="42.3745379" lon="14.2369853"><ele>54.0</ele><time>2026-05-01T08:42:56.832Z</time></trkpt><trkpt lat="42.3744153" lon="14.2368904"><ele>54.0</ele><time>2026-05-01T08:42:57.832Z</time></trkpt><trkpt lat="42.3742853" lon="14.2367847"><ele>54.0</ele><time>2026-05-01T08:42:58.832Z</time></trkpt><trkpt lat="42.3741488" lon="14.2366728"><ele>54.0</ele><time>2026-05-01T08:42:59.832Z</time></trkpt><trkpt lat="42.3740035" lon="14.2365655"><ele>54.0</ele><time>2026-05-01T08:43:00.831Z</time></trkpt><trkpt lat="42.3738598" lon="14.2364565"><ele>54.0</ele><time>2026-05-01T08:43:01.831Z</time></trkpt><trkpt lat="42.3737201" lon="14.236348"><ele>56.66666666666667</ele><time>2026-05-01T08:43:02.832Z</time></trkpt><trkpt lat="42.3735832" lon="14.2362486"><ele>59.333333333333336</ele><time>2026-05-01T08:43:03.832Z</time></trkpt><trkpt lat="42.3734478" lon="14.2361497"><ele>62.0</ele><time>2026-05-01T08:43:04.832Z</time></trkpt><trkpt lat="42.3733104" lon="14.2360602"><ele>62.0</ele><time>2026-05-01T08:43:05.832Z</time></trkpt><trkpt lat="42.3731763" lon="14.2359688"><ele>62.0</ele><time>2026-05-01T08:43:06.831Z</time></trkpt><trkpt lat="42.3730424" lon="14.2358822"><ele>62.0</ele><time>2026-05-01T08:43:07.832Z</time></trkpt><trkpt lat="42.3729072" lon="14.2358042"><ele>62.0</ele><time>2026-05-01T08:43:08.832Z</time></trkpt><trkpt lat="42.372775" lon="14.2357157"><ele>61.75</ele><time>2026-05-01T08:43:09.832Z</time></trkpt><trkpt lat="42.3726401" lon="14.235627"><ele>61.5</ele><time>2026-05-01T08:43:10.831Z</time></trkpt><trkpt lat="42.3725054" lon="14.2355359"><ele>61.25</ele><time>2026-05-01T08:43:11.832Z</time></trkpt><trkpt lat="42.3723884" lon="14.2354281"><ele>61.0</ele><time>2026-05-01T08:43:12.831Z</time></trkpt><trkpt lat="42.3722978" lon="14.235309"><ele>61.0</ele><time>2026-05-01T08:43:13.831Z</time></trkpt><trkpt lat="42.3722534" lon="14.235211"><ele>60.99999999999999</ele><time>2026-05-01T08:43:14.832Z</time></trkpt><trkpt lat="42.3722504" lon="14.2351136"><ele>60.99999999999999</ele><time>2026-05-01T08:43:15.832Z</time></trkpt><trkpt lat="42.3723509" lon="14.2350134"><ele>61.0</ele><time>2026-05-01T08:43:17.832Z</time></trkpt><trkpt lat="42.3724362" lon="14.235007"><ele>61.0</ele><time>2026-05-01T08:43:18.831Z</time></trkpt><trkpt lat="42.3725184" lon="14.2350193"><ele>61.0</ele><time>2026-05-01T08:43:19.832Z</time></trkpt><trkpt lat="42.3726023" lon="14.2349785"><ele>60.99999999999999</ele><time>2026-05-01T08:43:21.832Z</time></trkpt><trkpt lat="42.3725389" lon="14.2348596"><ele>60.99999999999999</ele><time>2026-05-01T08:43:24.832Z</time></trkpt><trkpt lat="42.3724495" lon="14.2348327"><ele>61.0</ele><time>2026-05-01T08:43:25.832Z</time></trkpt><trkpt lat="42.3723459" lon="14.2348178"><ele>61.0</ele><time>2026-05-01T08:43:26.832Z</time></trkpt><trkpt lat="42.3722268" lon="14.2348337"><ele>59.75</ele><time>2026-05-01T08:43:27.832Z</time></trkpt><trkpt lat="42.3721007" lon="14.2348358"><ele>58.5</ele><time>2026-05-01T08:43:28.832Z</time></trkpt><trkpt lat="42.371981" lon="14.2348299"><ele>57.25</ele><time>2026-05-01T08:43:29.832Z</time></trkpt><trkpt lat="42.3718648" lon="14.2347976"><ele>56.0</ele><time>2026-05-01T08:43:30.832Z</time></trkpt><trkpt lat="42.3717499" lon="14.2347398"><ele>56.0</ele><time>2026-05-01T08:43:31.832Z</time></trkpt><trkpt lat="42.3716275" lon="14.2346605"><ele>56.0</ele><time>2026-05-01T08:43:32.832Z</time></trkpt><trkpt lat="42.3715125" lon="14.2345565"><ele>56.0</ele><time>2026-05-01T08:43:33.832Z</time></trkpt><trkpt lat="42.3714095" lon="14.2344438"><ele>56.0</ele><time>2026-05-01T08:43:34.831Z</time></trkpt><trkpt lat="42.3713143" lon="14.2343442"><ele>55.0</ele><time>2026-05-01T08:43:35.831Z</time></trkpt><trkpt lat="42.3712365" lon="14.2342769"><ele>53.99999999999999</ele><time>2026-05-01T08:43:36.832Z</time></trkpt><trkpt lat="42.3711436" lon="14.2342079"><ele>53.0</ele><time>2026-05-01T08:43:38.832Z</time></trkpt><trkpt lat="42.3710395" lon="14.2341469"><ele>52.0</ele><time>2026-05-01T08:44:04.833Z</time></trkpt><trkpt lat="42.3709461" lon="14.2341095"><ele>51.0</ele><time>2026-05-01T08:44:41.833Z</time></trkpt><trkpt lat="42.3708263" lon="14.2341273"><ele>51.0</ele><time>2026-05-01T08:44:43.833Z</time></trkpt><trkpt lat="42.3707605" lon="14.2341406"><ele>51.0</ele><time>2026-05-01T08:44:44.833Z</time></trkpt><trkpt lat="42.370685" lon="14.2341574"><ele>51.0</ele><time>2026-05-01T08:44:45.832Z</time></trkpt><trkpt lat="42.3706128" lon="14.234173"><ele>51.0</ele><time>2026-05-01T08:44:46.833Z</time></trkpt><trkpt lat="42.3705369" lon="14.2341885"><ele>51.0</ele><time>2026-05-01T08:44:47.833Z</time></trkpt><trkpt lat="42.3704483" lon="14.2342004"><ele>51.0</ele><time>2026-05-01T08:44:48.832Z</time></trkpt><trkpt lat="42.3703442" lon="14.2342043"><ele>50.0</ele><time>2026-05-01T08:44:49.833Z</time></trkpt><trkpt lat="42.3702369" lon="14.234217"><ele>49.0</ele><time>2026-05-01T08:44:50.833Z</time></trkpt><trkpt lat="42.3701292" lon="14.2342345"><ele>48.0</ele><time>2026-05-01T08:44:51.833Z</time></trkpt><trkpt lat="42.3700267" lon="14.2342553"><ele>47.0</ele><time>2026-05-01T08:44:52.833Z</time></trkpt><trkpt lat="42.3699317" lon="14.2342645"><ele>46.0</ele><time>2026-05-01T08:44:53.833Z</time></trkpt><trkpt lat="42.3698383" lon="14.2342781"><ele>46.0</ele><time>2026-05-01T08:44:54.833Z</time></trkpt><trkpt lat="42.3697571" lon="14.2342868"><ele>46.0</ele><time>2026-05-01T08:44:55.833Z</time></trkpt><trkpt lat="42.3696625" lon="14.2342948"><ele>46.0</ele><time>2026-05-01T08:44:57.833Z</time></trkpt><trkpt lat="42.3695891" lon="14.2342965"><ele>46.0</ele><time>2026-05-01T08:45:00.833Z</time></trkpt><trkpt lat="42.3695023" lon="14.2343527"><ele>46.0</ele><time>2026-05-01T08:45:16.832Z</time></trkpt><trkpt lat="42.3694363" lon="14.2343696"><ele>46.0</ele><time>2026-05-01T08:45:17.832Z</time></trkpt><trkpt lat="42.3693446" lon="14.2343635"><ele>46.66666666666667</ele><time>2026-05-01T08:45:18.833Z</time></trkpt><trkpt lat="42.3692386" lon="14.2343605"><ele>47.333333333333336</ele><time>2026-05-01T08:45:19.833Z</time></trkpt><trkpt lat="42.3691435" lon="14.234376"><ele>48.0</ele><time>2026-05-01T08:45:20.833Z</time></trkpt><trkpt lat="42.3690661" lon="14.2343924"><ele>48.66666666666667</ele><time>2026-05-01T08:45:21.833Z</time></trkpt><trkpt lat="42.3690069" lon="14.2344618"><ele>49.333333333333336</ele><time>2026-05-01T08:45:23.833Z</time></trkpt><trkpt lat="42.3690642" lon="14.2345372"><ele>50.0</ele><time>2026-05-01T08:45:25.832Z</time></trkpt><trkpt lat="42.3691359" lon="14.2345746"><ele>50.0</ele><time>2026-05-01T08:45:26.833Z</time></trkpt><trkpt lat="42.3692441" lon="14.2345966"><ele>50.0</ele><time>2026-05-01T08:45:27.833Z</time></trkpt><trkpt lat="42.369369" lon="14.2346131"><ele>50.0</ele><time>2026-05-01T08:45:28.833Z</time></trkpt><trkpt lat="42.3695077" lon="14.2346298"><ele>50.0</ele><time>2026-05-01T08:45:29.833Z</time></trkpt><trkpt lat="42.3696365" lon="14.2346428"><ele>49.2</ele><time>2026-05-01T08:45:30.833Z</time></trkpt><trkpt lat="42.3697414" lon="14.2346549"><ele>48.4</ele><time>2026-05-01T08:45:31.833Z</time></trkpt><trkpt lat="42.3698222" lon="14.2346612"><ele>47.599999999999994</ele><time>2026-05-01T08:45:32.833Z</time></trkpt><trkpt lat="42.3698833" lon="14.2346836"><ele>46.8</ele><time>2026-05-01T08:45:33.833Z</time></trkpt><trkpt lat="42.3699559" lon="14.234822"><ele>46.0</ele><time>2026-05-01T08:45:35.833Z</time></trkpt><trkpt lat="42.3699611" lon="14.2349271"><ele>45.199999999999996</ele><time>2026-05-01T08:45:36.833Z</time></trkpt><trkpt lat="42.3699628" lon="14.2350431"><ele>44.4</ele><time>2026-05-01T08:45:37.833Z</time></trkpt><trkpt lat="42.3699742" lon="14.2351786"><ele>43.6</ele><time>2026-05-01T08:45:38.833Z</time></trkpt><trkpt lat="42.3699977" lon="14.2353224"><ele>42.8</ele><time>2026-05-01T08:45:39.833Z</time></trkpt><trkpt lat="42.3700289" lon="14.2354758"><ele>42.0</ele><time>2026-05-01T08:45:40.833Z</time></trkpt><trkpt lat="42.370065" lon="14.2356246"><ele>42.0</ele><time>2026-05-01T08:45:41.833Z</time></trkpt><trkpt lat="42.3700849" lon="14.2357544"><ele>42.0</ele><time>2026-05-01T08:45:42.832Z</time></trkpt><trkpt lat="42.3700907" lon="14.2358771"><ele>42.0</ele><time>2026-05-01T08:45:43.833Z</time></trkpt><trkpt lat="42.3700804" lon="14.2359906"><ele>42.0</ele><time>2026-05-01T08:45:44.833Z</time></trkpt><trkpt lat="42.3700462" lon="14.2361315"><ele>42.0</ele><time>2026-05-01T08:45:45.833Z</time></trkpt><trkpt lat="42.370012" lon="14.2362982"><ele>42.25</ele><time>2026-05-01T08:45:46.833Z</time></trkpt><trkpt lat="42.3699702" lon="14.236471"><ele>42.5</ele><time>2026-05-01T08:45:47.833Z</time></trkpt><trkpt lat="42.3699422" lon="14.236635"><ele>42.75</ele><time>2026-05-01T08:45:48.832Z</time></trkpt><trkpt lat="42.3699366" lon="14.2367942"><ele>43.0</ele><time>2026-05-01T08:45:49.833Z</time></trkpt><trkpt lat="42.3699503" lon="14.2369493"><ele>43.0</ele><time>2026-05-01T08:45:50.832Z</time></trkpt><trkpt lat="42.3699852" lon="14.2370831"><ele>43.0</ele><time>2026-05-01T08:45:51.833Z</time></trkpt><trkpt lat="42.370036" lon="14.2371907"><ele>43.0</ele><time>2026-05-01T08:45:52.833Z</time></trkpt><trkpt lat="42.3701064" lon="14.2372834"><ele>43.0</ele><time>2026-05-01T08:45:53.833Z</time></trkpt><trkpt lat="42.3702073" lon="14.2373788"><ele>43.0</ele><time>2026-05-01T08:45:54.833Z</time></trkpt><trkpt lat="42.3703316" lon="14.2374773"><ele>42.66666666666667</ele><time>2026-05-01T08:45:55.833Z</time></trkpt><trkpt lat="42.3704703" lon="14.2375906"><ele>42.333333333333336</ele><time>2026-05-01T08:45:56.833Z</time></trkpt><trkpt lat="42.3706176" lon="14.2377117"><ele>42.0</ele><time>2026-05-01T08:45:57.833Z</time></trkpt><trkpt lat="42.3707701" lon="14.2378443"><ele>42.0</ele><time>2026-05-01T08:45:58.833Z</time></trkpt><trkpt lat="42.3709217" lon="14.2379702"><ele>42.0</ele><time>2026-05-01T08:45:59.833Z</time></trkpt><trkpt lat="42.3710684" lon="14.2380815"><ele>42.0</ele><time>2026-05-01T08:46:00.832Z</time></trkpt><trkpt lat="42.3712047" lon="14.2381817"><ele>42.25</ele><time>2026-05-01T08:46:01.833Z</time></trkpt><trkpt lat="42.3713355" lon="14.2382787"><ele>42.5</ele><time>2026-05-01T08:46:02.833Z</time></trkpt><trkpt lat="42.3714541" lon="14.2383776"><ele>42.75</ele><time>2026-05-01T08:46:03.833Z</time></trkpt><trkpt lat="42.3715615" lon="14.2384838"><ele>43.0</ele><time>2026-05-01T08:46:04.833Z</time></trkpt><trkpt lat="42.3716604" lon="14.238595"><ele>43.0</ele><time>2026-05-01T08:46:05.833Z</time></trkpt><trkpt lat="42.3717625" lon="14.2387248"><ele>43.0</ele><time>2026-05-01T08:46:06.833Z</time></trkpt><trkpt lat="42.3718664" lon="14.2388725"><ele>43.0</ele><time>2026-05-01T08:46:07.832Z</time></trkpt><trkpt lat="42.3719669" lon="14.2390331"><ele>43.0</ele><time>2026-05-01T08:46:08.833Z</time></trkpt><trkpt lat="42.3720673" lon="14.2391927"><ele>42.5</ele><time>2026-05-01T08:46:09.833Z</time></trkpt><trkpt lat="42.3721675" lon="14.2393332"><ele>42.0</ele><time>2026-05-01T08:46:10.832Z</time></trkpt><trkpt lat="42.3722655" lon="14.2394601"><ele>41.5</ele><time>2026-05-01T08:46:11.833Z</time></trkpt><trkpt lat="42.3723648" lon="14.2395644"><ele>41.0</ele><time>2026-05-01T08:46:12.833Z</time></trkpt><trkpt lat="42.3724611" lon="14.2396513"><ele>41.0</ele><time>2026-05-01T08:46:13.832Z</time></trkpt><trkpt lat="42.37256" lon="14.2397433"><ele>41.0</ele><time>2026-05-01T08:46:14.833Z</time></trkpt><trkpt lat="42.3726628" lon="14.2398297"><ele>41.0</ele><time>2026-05-01T08:46:15.833Z</time></trkpt><trkpt lat="42.3727637" lon="14.2399129"><ele>41.0</ele><time>2026-05-01T08:46:16.833Z</time></trkpt><trkpt lat="42.3728643" lon="14.2400031"><ele>41.25</ele><time>2026-05-01T08:46:17.833Z</time></trkpt><trkpt lat="42.3729646" lon="14.2400985"><ele>41.5</ele><time>2026-05-01T08:46:18.833Z</time></trkpt><trkpt lat="42.3730611" lon="14.2401813"><ele>41.75</ele><time>2026-05-01T08:46:19.833Z</time></trkpt><trkpt lat="42.3731586" lon="14.2402539"><ele>42.0</ele><time>2026-05-01T08:46:20.833Z</time></trkpt><trkpt lat="42.3732542" lon="14.2403247"><ele>42.6</ele><time>2026-05-01T08:46:21.833Z</time></trkpt><trkpt lat="42.3733433" lon="14.2403917"><ele>43.2</ele><time>2026-05-01T08:46:22.833Z</time></trkpt><trkpt lat="42.3734247" lon="14.2404631"><ele>43.8</ele><time>2026-05-01T08:46:23.833Z</time></trkpt><trkpt lat="42.3735018" lon="14.2405481"><ele>44.4</ele><time>2026-05-01T08:46:24.833Z</time></trkpt><trkpt lat="42.3735916" lon="14.2406584"><ele>45.0</ele><time>2026-05-01T08:46:25.833Z</time></trkpt><trkpt lat="42.3736928" lon="14.2407727"><ele>45.0</ele><time>2026-05-01T08:46:26.833Z</time></trkpt><trkpt lat="42.373795" lon="14.2408853"><ele>45.0</ele><time>2026-05-01T08:46:27.833Z</time></trkpt><trkpt lat="42.3738951" lon="14.2410062"><ele>45.0</ele><time>2026-05-01T08:46:28.833Z</time></trkpt><trkpt lat="42.3739987" lon="14.2411135"><ele>45.0</ele><time>2026-05-01T08:46:29.833Z</time></trkpt><trkpt lat="42.3741178" lon="14.2412006"><ele>43.75</ele><time>2026-05-01T08:46:30.833Z</time></trkpt><trkpt lat="42.3742397" lon="14.2412797"><ele>42.5</ele><time>2026-05-01T08:46:31.833Z</time></trkpt><trkpt lat="42.3743567" lon="14.2413583"><ele>41.25</ele><time>2026-05-01T08:46:32.833Z</time></trkpt><trkpt lat="42.3744743" lon="14.2414535"><ele>40.0</ele><time>2026-05-01T08:46:33.833Z</time></trkpt><trkpt lat="42.3745866" lon="14.241569"><ele>38.0</ele><time>2026-05-01T08:46:34.833Z</time></trkpt><trkpt lat="42.3746998" lon="14.2417081"><ele>36.0</ele><time>2026-05-01T08:46:35.833Z</time></trkpt><trkpt lat="42.374822" lon="14.2418599"><ele>34.0</ele><time>2026-05-01T08:46:36.833Z</time></trkpt><trkpt lat="42.3749374" lon="14.2420007"><ele>34.0</ele><time>2026-05-01T08:46:37.833Z</time></trkpt><trkpt lat="42.3750433" lon="14.2421284"><ele>34.0</ele><time>2026-05-01T08:46:38.833Z</time></trkpt><trkpt lat="42.3751317" lon="14.2422457"><ele>34.0</ele><time>2026-05-01T08:46:39.833Z</time></trkpt><trkpt lat="42.3751984" lon="14.2423407"><ele>34.0</ele><time>2026-05-01T08:46:40.833Z</time></trkpt><trkpt lat="42.3752399" lon="14.2424196"><ele>34.0</ele><time>2026-05-01T08:46:41.833Z</time></trkpt><trkpt lat="42.3752657" lon="14.2424993"><ele>35.0</ele><time>2026-05-01T08:46:42.832Z</time></trkpt><trkpt lat="42.3752647" lon="14.2425902"><ele>36.0</ele><time>2026-05-01T08:46:43.833Z</time></trkpt><trkpt lat="42.3752488" lon="14.2427187"><ele>37.0</ele><time>2026-05-01T08:46:44.833Z</time></trkpt><trkpt lat="42.3752124" lon="14.2428809"><ele>38.0</ele><time>2026-05-01T08:46:45.833Z</time></trkpt><trkpt lat="42.3751562" lon="14.2430558"><ele>39.0</ele><time>2026-05-01T08:46:46.833Z</time></trkpt><trkpt lat="42.3750987" lon="14.2432439"><ele>41.0</ele><time>2026-05-01T08:46:47.833Z</time></trkpt><trkpt lat="42.3750421" lon="14.2434308"><ele>43.0</ele><time>2026-05-01T08:46:48.833Z</time></trkpt><trkpt lat="42.3749748" lon="14.2436328"><ele>45.0</ele><time>2026-05-01T08:46:49.833Z</time></trkpt><trkpt lat="42.3748971" lon="14.2438497"><ele>47.0</ele><time>2026-05-01T08:46:50.833Z</time></trkpt><trkpt lat="42.3748133" lon="14.2440848"><ele>49.0</ele><time>2026-05-01T08:46:51.833Z</time></trkpt><trkpt lat="42.3747317" lon="14.2443139"><ele>51.0</ele><time>2026-05-01T08:46:52.833Z</time></trkpt><trkpt lat="42.3746534" lon="14.2445438"><ele>55.33333333333333</ele><time>2026-05-01T08:46:53.833Z</time></trkpt><trkpt lat="42.3745857" lon="14.2447938"><ele>59.666666666666664</ele><time>2026-05-01T08:46:54.832Z</time></trkpt><trkpt lat="42.3745347" lon="14.2450507"><ele>64.0</ele><time>2026-05-01T08:46:55.833Z</time></trkpt><trkpt lat="42.3744868" lon="14.2452988"><ele>65.0</ele><time>2026-05-01T08:46:56.833Z</time></trkpt><trkpt lat="42.3744394" lon="14.245533"><ele>66.0</ele><time>2026-05-01T08:46:57.832Z</time></trkpt><trkpt lat="42.3743961" lon="14.245762"><ele>67.0</ele><time>2026-05-01T08:46:58.833Z</time></trkpt><trkpt lat="42.3743439" lon="14.2459618"><ele>69.0</ele><time>2026-05-01T08:46:59.833Z</time></trkpt><trkpt lat="42.3742904" lon="14.2461482"><ele>71.0</ele><time>2026-05-01T08:47:00.833Z</time></trkpt><trkpt lat="42.3742211" lon="14.2463315"><ele>73.0</ele><time>2026-05-01T08:47:01.833Z</time></trkpt><trkpt lat="42.3741293" lon="14.2465058"><ele>73.5</ele><time>2026-05-01T08:47:02.833Z</time></trkpt><trkpt lat="42.3740445" lon="14.246663"><ele>74.0</ele><time>2026-05-01T08:47:03.833Z</time></trkpt><trkpt lat="42.3739916" lon="14.2468215"><ele>74.5</ele><time>2026-05-01T08:47:04.833Z</time></trkpt><trkpt lat="42.3739877" lon="14.2469872"><ele>75.0</ele><time>2026-05-01T08:47:05.833Z</time></trkpt><trkpt lat="42.3739988" lon="14.2471304"><ele>75.0</ele><time>2026-05-01T08:47:06.833Z</time></trkpt><trkpt lat="42.3739948" lon="14.2472782"><ele>75.0</ele><time>2026-05-01T08:47:07.833Z</time></trkpt><trkpt lat="42.3739629" lon="14.2474438"><ele>75.0</ele><time>2026-05-01T08:47:08.833Z</time></trkpt><trkpt lat="42.3739158" lon="14.2476104"><ele>75.0</ele><time>2026-05-01T08:47:09.833Z</time></trkpt><trkpt lat="42.3738741" lon="14.2477519"><ele>79.2</ele><time>2026-05-01T08:47:10.832Z</time></trkpt><trkpt lat="42.3738456" lon="14.2478753"><ele>83.4</ele><time>2026-05-01T08:47:11.833Z</time></trkpt><trkpt lat="42.3738281" lon="14.2480081"><ele>87.6</ele><time>2026-05-01T08:47:12.833Z</time></trkpt><trkpt lat="42.3738268" lon="14.2481584"><ele>91.8</ele><time>2026-05-01T08:47:13.833Z</time></trkpt><trkpt lat="42.3738314" lon="14.248321"><ele>96.0</ele><time>2026-05-01T08:47:14.833Z</time></trkpt><trkpt lat="42.3738326" lon="14.2484949"><ele>97.25</ele><time>2026-05-01T08:47:15.832Z</time></trkpt><trkpt lat="42.3738317" lon="14.2486664"><ele>98.5</ele><time>2026-05-01T08:47:16.833Z</time></trkpt><trkpt lat="42.3738173" lon="14.2488273"><ele>99.75</ele><time>2026-05-01T08:47:17.833Z</time></trkpt><trkpt lat="42.3737963" lon="14.2489619"><ele>101.0</ele><time>2026-05-01T08:47:18.833Z</time></trkpt><trkpt lat="42.3737626" lon="14.2490952"><ele>102.5</ele><time>2026-05-01T08:47:19.833Z</time></trkpt><trkpt lat="42.3737199" lon="14.2492407"><ele>104.0</ele><time>2026-05-01T08:47:20.833Z</time></trkpt><trkpt lat="42.3736811" lon="14.2494006"><ele>105.5</ele><time>2026-05-01T08:47:21.833Z</time></trkpt><trkpt lat="42.3736514" lon="14.2495686"><ele>107.0</ele><time>2026-05-01T08:47:22.833Z</time></trkpt><trkpt lat="42.3736275" lon="14.2497385"><ele>107.6</ele><time>2026-05-01T08:47:23.833Z</time></trkpt><trkpt lat="42.3735982" lon="14.2498898"><ele>108.19999999999999</ele><time>2026-05-01T08:47:24.833Z</time></trkpt><trkpt lat="42.3735623" lon="14.2500194"><ele>108.8</ele><time>2026-05-01T08:47:25.833Z</time></trkpt><trkpt lat="42.3735254" lon="14.250138"><ele>109.4</ele><time>2026-05-01T08:47:26.833Z</time></trkpt><trkpt lat="42.3735145" lon="14.2502359"><ele>110.0</ele><time>2026-05-01T08:47:27.833Z</time></trkpt><trkpt lat="42.3735865" lon="14.2503749"><ele>110.0</ele><time>2026-05-01T08:47:29.833Z</time></trkpt><trkpt lat="42.3736635" lon="14.2504251"><ele>110.0</ele><time>2026-05-01T08:47:30.833Z</time></trkpt><trkpt lat="42.3737536" lon="14.2504827"><ele>110.0</ele><time>2026-05-01T08:47:31.833Z</time></trkpt><trkpt lat="42.3738418" lon="14.2505538"><ele>110.0</ele><time>2026-05-01T08:47:32.833Z</time></trkpt><trkpt lat="42.3739113" lon="14.2506547"><ele>110.0</ele><time>2026-05-01T08:47:33.833Z</time></trkpt><trkpt lat="42.373972" lon="14.2507797"><ele>110.0</ele><time>2026-05-01T08:47:34.833Z</time></trkpt><trkpt lat="42.3740263" lon="14.2509"><ele>110.0</ele><time>2026-05-01T08:47:35.833Z</time></trkpt><trkpt lat="42.3740617" lon="14.2510253"><ele>110.0</ele><time>2026-05-01T08:47:36.833Z</time></trkpt><trkpt lat="42.374079" lon="14.2511569"><ele>110.0</ele><time>2026-05-01T08:47:37.833Z</time></trkpt><trkpt lat="42.3740796" lon="14.2513048"><ele>110.0</ele><time>2026-05-01T08:47:38.833Z</time></trkpt><trkpt lat="42.3740595" lon="14.2514629"><ele>112.25</ele><time>2026-05-01T08:47:39.833Z</time></trkpt><trkpt lat="42.3740232" lon="14.2516405"><ele>114.5</ele><time>2026-05-01T08:47:40.833Z</time></trkpt><trkpt lat="42.3739849" lon="14.2518228"><ele>116.75</ele><time>2026-05-01T08:47:41.832Z</time></trkpt><trkpt lat="42.3739455" lon="14.2520079"><ele>119.0</ele><time>2026-05-01T08:47:42.833Z</time></trkpt><trkpt lat="42.3738993" lon="14.2522054"><ele>125.0</ele><time>2026-05-01T08:47:43.833Z</time></trkpt><trkpt lat="42.373852" lon="14.252408"><ele>131.0</ele><time>2026-05-01T08:47:44.833Z</time></trkpt><trkpt lat="42.3738077" lon="14.2526123"><ele>137.0</ele><time>2026-05-01T08:47:45.833Z</time></trkpt><trkpt lat="42.3737768" lon="14.2527867"><ele>143.0</ele><time>2026-05-01T08:47:46.832Z</time></trkpt><trkpt lat="42.3737669" lon="14.2529548"><ele>147.5</ele><time>2026-05-01T08:47:47.833Z</time></trkpt><trkpt lat="42.373765" lon="14.253136"><ele>152.0</ele><time>2026-05-01T08:47:48.833Z</time></trkpt><trkpt lat="42.37377" lon="14.2533165"><ele>156.5</ele><time>2026-05-01T08:47:49.833Z</time></trkpt><trkpt lat="42.3737788" lon="14.2535048"><ele>161.0</ele><time>2026-05-01T08:47:50.832Z</time></trkpt><trkpt lat="42.3737963" lon="14.2536903"><ele>161.0</ele><time>2026-05-01T08:47:51.834Z</time></trkpt><trkpt lat="42.3738188" lon="14.253869"><ele>161.0</ele><time>2026-05-01T08:47:52.834Z</time></trkpt><trkpt lat="42.3738442" lon="14.254037"><ele>161.0</ele><time>2026-05-01T08:47:53.834Z</time></trkpt><trkpt lat="42.3738714" lon="14.254198"><ele>161.0</ele><time>2026-05-01T08:47:54.834Z</time></trkpt><trkpt lat="42.3739067" lon="14.2543546"><ele>161.75</ele><time>2026-05-01T08:47:55.834Z</time></trkpt><trkpt lat="42.3739585" lon="14.2545037"><ele>162.5</ele><time>2026-05-01T08:47:56.834Z</time></trkpt><trkpt lat="42.3740204" lon="14.2546442"><ele>163.25</ele><time>2026-05-01T08:47:57.834Z</time></trkpt><trkpt lat="42.3740882" lon="14.2547945"><ele>164.0</ele><time>2026-05-01T08:47:58.834Z</time></trkpt><trkpt lat="42.3741596" lon="14.2549445"><ele>164.0</ele><time>2026-05-01T08:47:59.834Z</time></trkpt><trkpt lat="42.3742346" lon="14.2550937"><ele>164.0</ele><time>2026-05-01T08:48:00.834Z</time></trkpt><trkpt lat="42.3742965" lon="14.2552549"><ele>164.0</ele><time>2026-05-01T08:48:01.834Z</time></trkpt><trkpt lat="42.3743384" lon="14.2554181"><ele>164.0</ele><time>2026-05-01T08:48:02.834Z</time></trkpt><trkpt lat="42.3743724" lon="14.2555798"><ele>164.33333333333331</ele><time>2026-05-01T08:48:03.834Z</time></trkpt><trkpt lat="42.3743858" lon="14.2557239"><ele>164.66666666666666</ele><time>2026-05-01T08:48:04.834Z</time></trkpt><trkpt lat="42.3743825" lon="14.255829"><ele>165.0</ele><time>2026-05-01T08:48:05.834Z</time></trkpt><trkpt lat="42.3743703" lon="14.2559418"><ele>165.33333333333334</ele><time>2026-05-01T08:48:07.834Z</time></trkpt><trkpt lat="42.3743759" lon="14.2560588"><ele>165.66666666666669</ele><time>2026-05-01T09:12:17.833Z</time></trkpt><trkpt lat="42.3744346" lon="14.2561103"><ele>166.0</ele><time>2026-05-01T09:12:18.833Z</time></trkpt><trkpt lat="42.3744941" lon="14.2561673"><ele>166.0</ele><time>2026-05-01T09:12:19.833Z</time></trkpt><trkpt lat="42.3745637" lon="14.2562299"><ele>166.0</ele><time>2026-05-01T09:12:20.833Z</time></trkpt><trkpt lat="42.3746243" lon="14.256295"><ele>166.0</ele><time>2026-05-01T09:12:21.833Z</time></trkpt><trkpt lat="42.3746904" lon="14.2563545"><ele>166.0</ele><time>2026-05-01T09:12:22.833Z</time></trkpt><trkpt lat="42.3747509" lon="14.2564162"><ele>166.0</ele><time>2026-05-01T09:12:23.833Z</time></trkpt><trkpt lat="42.3748135" lon="14.256482"><ele>166.0</ele><time>2026-05-01T09:12:24.833Z</time></trkpt><trkpt lat="42.3748779" lon="14.2565491"><ele>166.4</ele><time>2026-05-01T09:12:25.833Z</time></trkpt><trkpt lat="42.3749485" lon="14.2566162"><ele>166.8</ele><time>2026-05-01T09:12:26.833Z</time></trkpt><trkpt lat="42.3750166" lon="14.256682"><ele>167.20000000000002</ele><time>2026-05-01T09:12:27.833Z</time></trkpt><trkpt lat="42.3750864" lon="14.2567513"><ele>167.60000000000002</ele><time>2026-05-01T09:12:28.833Z</time></trkpt><trkpt lat="42.3751619" lon="14.2568294"><ele>168.0</ele><time>2026-05-01T09:12:29.833Z</time></trkpt><trkpt lat="42.3752418" lon="14.2569266"><ele>168.0</ele><time>2026-05-01T09:12:30.833Z</time></trkpt><trkpt lat="42.3753171" lon="14.257041"><ele>168.0</ele><time>2026-05-01T09:12:31.832Z</time></trkpt><trkpt lat="42.3753928" lon="14.2571593"><ele>168.0</ele><time>2026-05-01T09:12:32.833Z</time></trkpt><trkpt lat="42.3754667" lon="14.2572803"><ele>168.0</ele><time>2026-05-01T09:12:33.833Z</time></trkpt><trkpt lat="42.3755382" lon="14.2574006"><ele>168.5</ele><time>2026-05-01T09:12:34.833Z</time></trkpt><trkpt lat="42.3756163" lon="14.2575245"><ele>169.0</ele><time>2026-05-01T09:12:35.833Z</time></trkpt><trkpt lat="42.3756967" lon="14.2576517"><ele>169.5</ele><time>2026-05-01T09:12:36.833Z</time></trkpt><trkpt lat="42.375778" lon="14.2577873"><ele>170.0</ele><time>2026-05-01T09:12:37.833Z</time></trkpt><trkpt lat="42.3758581" lon="14.2579212"><ele>170.0</ele><time>2026-05-01T09:12:38.833Z</time></trkpt><trkpt lat="42.3759439" lon="14.2580589"><ele>170.0</ele><time>2026-05-01T09:12:39.833Z</time></trkpt><trkpt lat="42.3760266" lon="14.2581944"><ele>170.0</ele><time>2026-05-01T09:12:40.833Z</time></trkpt><trkpt lat="42.3761133" lon="14.2583306"><ele>170.0</ele><time>2026-05-01T09:12:41.833Z</time></trkpt><trkpt lat="42.3762033" lon="14.2584811"><ele>172.0</ele><time>2026-05-01T09:12:42.833Z</time></trkpt><trkpt lat="42.3762966" lon="14.2586349"><ele>174.0</ele><time>2026-05-01T09:12:43.833Z</time></trkpt><trkpt lat="42.3763955" lon="14.2587913"><ele>176.0</ele><time>2026-05-01T09:12:44.833Z</time></trkpt><trkpt lat="42.3764956" lon="14.2589498"><ele>175.33333333333331</ele><time>2026-05-01T09:12:45.833Z</time></trkpt><trkpt lat="42.3765961" lon="14.2591073"><ele>174.66666666666666</ele><time>2026-05-01T09:12:46.833Z</time></trkpt><trkpt lat="42.3766962" lon="14.2592657"><ele>174.0</ele><time>2026-05-01T09:12:47.833Z</time></trkpt><trkpt lat="42.3768054" lon="14.2594136"><ele>174.0</ele><time>2026-05-01T09:12:48.833Z</time></trkpt><trkpt lat="42.3769003" lon="14.2595787"><ele>174.0</ele><time>2026-05-01T09:12:49.833Z</time></trkpt><trkpt lat="42.3769987" lon="14.2597375"><ele>174.0</ele><time>2026-05-01T09:12:50.833Z</time></trkpt><trkpt lat="42.3770953" lon="14.2598891"><ele>176.33333333333334</ele><time>2026-05-01T09:12:51.833Z</time></trkpt><trkpt lat="42.3771911" lon="14.2600439"><ele>178.66666666666669</ele><time>2026-05-01T09:12:52.833Z</time></trkpt><trkpt lat="42.3772884" lon="14.2602007"><ele>181.0</ele><time>2026-05-01T09:12:53.833Z</time></trkpt><trkpt lat="42.3773875" lon="14.2603604"><ele>181.0</ele><time>2026-05-01T09:12:54.833Z</time></trkpt><trkpt lat="42.3774952" lon="14.2605189"><ele>181.0</ele><time>2026-05-01T09:12:55.832Z</time></trkpt><trkpt lat="42.3776116" lon="14.260678"><ele>181.0</ele><time>2026-05-01T09:12:56.833Z</time></trkpt><trkpt lat="42.3777384" lon="14.2608369"><ele>181.0</ele><time>2026-05-01T09:12:57.833Z</time></trkpt><trkpt lat="42.3778697" lon="14.2610009"><ele>181.0</ele><time>2026-05-01T09:12:58.833Z</time></trkpt><trkpt lat="42.3780084" lon="14.2611602"><ele>181.0</ele><time>2026-05-01T09:12:59.833Z</time></trkpt><trkpt lat="42.3781383" lon="14.2613106"><ele>181.66666666666669</ele><time>2026-05-01T09:13:00.833Z</time></trkpt><trkpt lat="42.3782667" lon="14.2614581"><ele>182.33333333333334</ele><time>2026-05-01T09:13:01.833Z</time></trkpt><trkpt lat="42.3783924" lon="14.2616064"><ele>183.0</ele><time>2026-05-01T09:13:02.832Z</time></trkpt><trkpt lat="42.3785173" lon="14.2617503"><ele>183.0</ele><time>2026-05-01T09:13:03.833Z</time></trkpt><trkpt lat="42.3786413" lon="14.2618984"><ele>183.0</ele><time>2026-05-01T09:13:04.833Z</time></trkpt><trkpt lat="42.3787679" lon="14.2620553"><ele>183.0</ele><time>2026-05-01T09:13:05.832Z</time></trkpt><trkpt lat="42.3788932" lon="14.2622277"><ele>181.66666666666666</ele><time>2026-05-01T09:13:06.833Z</time></trkpt><trkpt lat="42.3790214" lon="14.2624077"><ele>180.33333333333331</ele><time>2026-05-01T09:13:07.833Z</time></trkpt><trkpt lat="42.3791442" lon="14.2625878"><ele>179.0</ele><time>2026-05-01T09:13:08.833Z</time></trkpt><trkpt lat="42.3792664" lon="14.2627606"><ele>179.0</ele><time>2026-05-01T09:13:09.833Z</time></trkpt><trkpt lat="42.3793767" lon="14.2629325"><ele>179.0</ele><time>2026-05-01T09:13:10.832Z</time></trkpt><trkpt lat="42.3794818" lon="14.2631027"><ele>179.0</ele><time>2026-05-01T09:13:11.833Z</time></trkpt><trkpt lat="42.3795861" lon="14.2632623"><ele>178.66666666666666</ele><time>2026-05-01T09:13:12.832Z</time></trkpt><trkpt lat="42.3796671" lon="14.2633877"><ele>178.33333333333331</ele><time>2026-05-01T09:13:13.833Z</time></trkpt><trkpt lat="42.3797337" lon="14.2634867"><ele>178.0</ele><time>2026-05-01T09:13:14.833Z</time></trkpt><trkpt lat="42.3797749" lon="14.263562"><ele>177.66666666666666</ele><time>2026-05-01T09:13:15.833Z</time></trkpt><trkpt lat="42.3798135" lon="14.2636342"><ele>177.33333333333334</ele><time>2026-05-01T09:13:18.833Z</time></trkpt><trkpt lat="42.379791" lon="14.2635128"><ele>177.0</ele><time>2026-05-01T09:13:28.833Z</time></trkpt><trkpt lat="42.3797373" lon="14.2634573"><ele>176.8</ele><time>2026-05-01T09:13:29.833Z</time></trkpt><trkpt lat="42.3796798" lon="14.2633779"><ele>176.6</ele><time>2026-05-01T09:13:30.833Z</time></trkpt><trkpt lat="42.3796174" lon="14.2632756"><ele>176.4</ele><time>2026-05-01T09:13:31.833Z</time></trkpt><trkpt lat="42.3795487" lon="14.2631509"><ele>176.20000000000002</ele><time>2026-05-01T09:13:32.833Z</time></trkpt><trkpt lat="42.3794628" lon="14.2630153"><ele>176.0</ele><time>2026-05-01T09:13:33.833Z</time></trkpt><trkpt lat="42.3793732" lon="14.2628776"><ele>177.0</ele><time>2026-05-01T09:13:34.833Z</time></trkpt><trkpt lat="42.3792758" lon="14.2627399"><ele>178.0</ele><time>2026-05-01T09:13:35.833Z</time></trkpt><trkpt lat="42.3791769" lon="14.2625868"><ele>179.0</ele><time>2026-05-01T09:13:36.833Z</time></trkpt><trkpt lat="42.3790672" lon="14.2624215"><ele>179.66666666666666</ele><time>2026-05-01T09:13:37.833Z</time></trkpt><trkpt lat="42.3789562" lon="14.2622547"><ele>180.33333333333334</ele><time>2026-05-01T09:13:38.833Z</time></trkpt><trkpt lat="42.3788412" lon="14.2620928"><ele>181.0</ele><time>2026-05-01T09:13:39.833Z</time></trkpt><trkpt lat="42.3787155" lon="14.2619325"><ele>181.66666666666669</ele><time>2026-05-01T09:13:40.833Z</time></trkpt><trkpt lat="42.3785896" lon="14.2617764"><ele>182.33333333333334</ele><time>2026-05-01T09:13:41.833Z</time></trkpt><trkpt lat="42.3784571" lon="14.2616211"><ele>183.0</ele><time>2026-05-01T09:13:42.833Z</time></trkpt><trkpt lat="42.3783218" lon="14.2614594"><ele>182.66666666666666</ele><time>2026-05-01T09:13:43.833Z</time></trkpt><trkpt lat="42.3781944" lon="14.2613108"><ele>182.33333333333331</ele><time>2026-05-01T09:13:44.833Z</time></trkpt><trkpt lat="42.3780735" lon="14.2611727"><ele>182.0</ele><time>2026-05-01T09:13:45.833Z</time></trkpt><trkpt lat="42.3779541" lon="14.2610399"><ele>181.66666666666666</ele><time>2026-05-01T09:13:46.833Z</time></trkpt><trkpt lat="42.3778352" lon="14.2608977"><ele>181.33333333333334</ele><time>2026-05-01T09:13:47.833Z</time></trkpt><trkpt lat="42.3777189" lon="14.2607549"><ele>181.0</ele><time>2026-05-01T09:13:48.833Z</time></trkpt><trkpt lat="42.3776055" lon="14.2606083"><ele>181.0</ele><time>2026-05-01T09:13:49.833Z</time></trkpt><trkpt lat="42.3774989" lon="14.2604571"><ele>181.0</ele><time>2026-05-01T09:13:50.832Z</time></trkpt><trkpt lat="42.3773922" lon="14.2603004"><ele>181.0</ele><time>2026-05-01T09:13:51.833Z</time></trkpt><trkpt lat="42.37729" lon="14.2601423"><ele>181.0</ele><time>2026-05-01T09:13:52.833Z</time></trkpt><trkpt lat="42.3771914" lon="14.2599857"><ele>181.0</ele><time>2026-05-01T09:13:53.833Z</time></trkpt><trkpt lat="42.3770996" lon="14.2598434"><ele>181.0</ele><time>2026-05-01T09:13:54.833Z</time></trkpt><trkpt lat="42.3770152" lon="14.2597164"><ele>181.0</ele><time>2026-05-01T09:13:55.833Z</time></trkpt><trkpt lat="42.3769482" lon="14.2596159"><ele>179.83333333333334</ele><time>2026-05-01T09:13:56.833Z</time></trkpt><trkpt lat="42.3768921" lon="14.2595454"><ele>178.66666666666669</ele><time>2026-05-01T09:13:57.833Z</time></trkpt><trkpt lat="42.3768156" lon="14.2594949"><ele>177.5</ele><time>2026-05-01T09:13:59.833Z</time></trkpt><trkpt lat="42.3767612" lon="14.2595578"><ele>176.33333333333334</ele><time>2026-05-01T09:14:02.833Z</time></trkpt><trkpt lat="42.3767637" lon="14.2597274"><ele>175.16666666666666</ele><time>2026-05-01T09:14:32.833Z</time></trkpt><trkpt lat="42.3767668" lon="14.2598263"><ele>174.0</ele><time>2026-05-01T09:14:33.833Z</time></trkpt><trkpt lat="42.3767697" lon="14.2599526"><ele>172.75</ele><time>2026-05-01T09:14:34.833Z</time></trkpt><trkpt lat="42.3767735" lon="14.2601099"><ele>171.5</ele><time>2026-05-01T09:14:35.833Z</time></trkpt><trkpt lat="42.376789" lon="14.2602862"><ele>170.25</ele><time>2026-05-01T09:14:36.832Z</time></trkpt><trkpt lat="42.3767961" lon="14.2604771"><ele>169.0</ele><time>2026-05-01T09:14:37.832Z</time></trkpt><trkpt lat="42.3767914" lon="14.2606682"><ele>167.75</ele><time>2026-05-01T09:14:38.833Z</time></trkpt><trkpt lat="42.3767671" lon="14.2608505"><ele>166.5</ele><time>2026-05-01T09:14:39.833Z</time></trkpt><trkpt lat="42.3767423" lon="14.2610276"><ele>165.25</ele><time>2026-05-01T09:14:40.833Z</time></trkpt><trkpt lat="42.376711" lon="14.2612041"><ele>164.0</ele><time>2026-05-01T09:14:41.832Z</time></trkpt><trkpt lat="42.3766837" lon="14.2613788"><ele>163.0</ele><time>2026-05-01T09:14:42.833Z</time></trkpt><trkpt lat="42.3766784" lon="14.2615541"><ele>162.0</ele><time>2026-05-01T09:14:43.833Z</time></trkpt><trkpt lat="42.3766881" lon="14.2617359"><ele>161.0</ele><time>2026-05-01T09:14:44.833Z</time></trkpt><trkpt lat="42.3767136" lon="14.2619306"><ele>160.0</ele><time>2026-05-01T09:14:45.833Z</time></trkpt><trkpt lat="42.3767353" lon="14.2621315"><ele>157.5</ele><time>2026-05-01T09:14:46.833Z</time></trkpt><trkpt lat="42.3767583" lon="14.2623325"><ele>155.0</ele><time>2026-05-01T09:14:47.833Z</time></trkpt><trkpt lat="42.3767777" lon="14.2625312"><ele>152.5</ele><time>2026-05-01T09:14:48.833Z</time></trkpt><trkpt lat="42.3767995" lon="14.262721"><ele>150.0</ele><time>2026-05-01T09:14:49.833Z</time></trkpt><trkpt lat="42.3768325" lon="14.2629005"><ele>150.0</ele><time>2026-05-01T09:14:50.833Z</time></trkpt><trkpt lat="42.3768826" lon="14.2630769"><ele>150.0</ele><time>2026-05-01T09:14:51.833Z</time></trkpt><trkpt lat="42.3769403" lon="14.26324"><ele>150.0</ele><time>2026-05-01T09:14:52.833Z</time></trkpt><trkpt lat="42.3770026" lon="14.2634014"><ele>150.0</ele><time>2026-05-01T09:14:53.832Z</time></trkpt><trkpt lat="42.3770619" lon="14.2635647"><ele>148.25</ele><time>2026-05-01T09:14:54.832Z</time></trkpt><trkpt lat="42.3771173" lon="14.2637307"><ele>146.5</ele><time>2026-05-01T09:14:55.833Z</time></trkpt><trkpt lat="42.3771757" lon="14.2639053"><ele>144.75</ele><time>2026-05-01T09:14:56.833Z</time></trkpt><trkpt lat="42.3772373" lon="14.2640793"><ele>143.0</ele><time>2026-05-01T09:14:57.833Z</time></trkpt><trkpt lat="42.3773074" lon="14.2642567"><ele>143.0</ele><time>2026-05-01T09:14:58.833Z</time></trkpt><trkpt lat="42.3773863" lon="14.2644352"><ele>143.0</ele><time>2026-05-01T09:14:59.833Z</time></trkpt><trkpt lat="42.3774667" lon="14.2646063"><ele>143.0</ele><time>2026-05-01T09:15:00.833Z</time></trkpt><trkpt lat="42.3775451" lon="14.2647767"><ele>141.0</ele><time>2026-05-01T09:15:01.833Z</time></trkpt><trkpt lat="42.3776087" lon="14.2649416"><ele>139.0</ele><time>2026-05-01T09:15:02.832Z</time></trkpt><trkpt lat="42.3776393" lon="14.2651048"><ele>137.0</ele><time>2026-05-01T09:15:03.833Z</time></trkpt><trkpt lat="42.3776516" lon="14.2652689"><ele>135.0</ele><time>2026-05-01T09:15:04.833Z</time></trkpt><trkpt lat="42.377648" lon="14.2654372"><ele>135.0</ele><time>2026-05-01T09:15:05.833Z</time></trkpt><trkpt lat="42.3776426" lon="14.2656086"><ele>135.0</ele><time>2026-05-01T09:15:06.833Z</time></trkpt><trkpt lat="42.3776504" lon="14.265781"><ele>135.0</ele><time>2026-05-01T09:15:07.833Z</time></trkpt><trkpt lat="42.3776581" lon="14.265958"><ele>135.0</ele><time>2026-05-01T09:15:08.833Z</time></trkpt><trkpt lat="42.3776644" lon="14.2661384"><ele>133.5</ele><time>2026-05-01T09:15:09.833Z</time></trkpt><trkpt lat="42.3776666" lon="14.2663115"><ele>132.0</ele><time>2026-05-01T09:15:10.833Z</time></trkpt><trkpt lat="42.3776646" lon="14.2664729"><ele>130.5</ele><time>2026-05-01T09:15:11.833Z</time></trkpt><trkpt lat="42.3776627" lon="14.266627"><ele>129.0</ele><time>2026-05-01T09:15:12.832Z</time></trkpt><trkpt lat="42.377663" lon="14.2667717"><ele>127.66666666666667</ele><time>2026-05-01T09:15:13.833Z</time></trkpt><trkpt lat="42.3776711" lon="14.2669034"><ele>126.33333333333334</ele><time>2026-05-01T09:15:14.833Z</time></trkpt><trkpt lat="42.3776819" lon="14.2670159"><ele>125.0</ele><time>2026-05-01T09:15:15.833Z</time></trkpt><trkpt lat="42.377689" lon="14.2671166"><ele>123.66666666666667</ele><time>2026-05-01T09:15:16.832Z</time></trkpt><trkpt lat="42.3776812" lon="14.2672128"><ele>122.33333333333334</ele><time>2026-05-01T09:15:18.833Z</time></trkpt><trkpt lat="42.3775973" lon="14.2672512"><ele>121.0</ele><time>2026-05-01T09:15:20.833Z</time></trkpt><trkpt lat="42.3775314" lon="14.267267"><ele>120.19999999999999</ele><time>2026-05-01T09:15:21.833Z</time></trkpt><trkpt lat="42.3774538" lon="14.2672979"><ele>119.39999999999999</ele><time>2026-05-01T09:15:22.833Z</time></trkpt><trkpt lat="42.377366" lon="14.2673415"><ele>118.6</ele><time>2026-05-01T09:15:23.833Z</time></trkpt><trkpt lat="42.3772698" lon="14.2673721"><ele>117.8</ele><time>2026-05-01T09:15:24.833Z</time></trkpt><trkpt lat="42.3771663" lon="14.2673913"><ele>117.0</ele><time>2026-05-01T09:15:25.833Z</time></trkpt><trkpt lat="42.3770496" lon="14.2674107"><ele>115.6</ele><time>2026-05-01T09:15:26.833Z</time></trkpt><trkpt lat="42.3769377" lon="14.267424"><ele>114.19999999999999</ele><time>2026-05-01T09:15:27.833Z</time></trkpt><trkpt lat="42.3768249" lon="14.2674359"><ele>112.8</ele><time>2026-05-01T09:15:28.833Z</time></trkpt><trkpt lat="42.3767156" lon="14.2674499"><ele>111.4</ele><time>2026-05-01T09:15:29.833Z</time></trkpt><trkpt lat="42.3766156" lon="14.2674688"><ele>110.0</ele><time>2026-05-01T09:15:30.833Z</time></trkpt><trkpt lat="42.3765242" lon="14.2674933"><ele>110.0</ele><time>2026-05-01T09:15:31.833Z</time></trkpt><trkpt lat="42.3764572" lon="14.2675342"><ele>110.0</ele><time>2026-05-01T09:15:32.833Z</time></trkpt><trkpt lat="42.3763956" lon="14.2675904"><ele>110.0</ele><time>2026-05-01T09:15:33.833Z</time></trkpt><trkpt lat="42.3763413" lon="14.2676814"><ele>110.0</ele><time>2026-05-01T09:15:34.832Z</time></trkpt><trkpt lat="42.3762808" lon="14.2678008"><ele>110.0</ele><time>2026-05-01T09:15:35.833Z</time></trkpt><trkpt lat="42.3762328" lon="14.2679347"><ele>114.75</ele><time>2026-05-01T09:15:36.833Z</time></trkpt><trkpt lat="42.3761884" lon="14.2680805"><ele>119.5</ele><time>2026-05-01T09:15:37.833Z</time></trkpt><trkpt lat="42.3761491" lon="14.2682279"><ele>124.25</ele><time>2026-05-01T09:15:38.832Z</time></trkpt><trkpt lat="42.376098" lon="14.2683922"><ele>129.0</ele><time>2026-05-01T09:15:39.833Z</time></trkpt><trkpt lat="42.3760528" lon="14.268571"><ele>129.0</ele><time>2026-05-01T09:15:40.832Z</time></trkpt><trkpt lat="42.3760045" lon="14.2687571"><ele>129.0</ele><time>2026-05-01T09:15:41.833Z</time></trkpt><trkpt lat="42.3759508" lon="14.2689438"><ele>129.0</ele><time>2026-05-01T09:15:42.833Z</time></trkpt><trkpt lat="42.3758962" lon="14.2691262"><ele>129.0</ele><time>2026-05-01T09:15:43.833Z</time></trkpt><trkpt lat="42.3758483" lon="14.2693042"><ele>128.25</ele><time>2026-05-01T09:15:44.833Z</time></trkpt><trkpt lat="42.3757989" lon="14.2694691"><ele>127.5</ele><time>2026-05-01T09:15:45.833Z</time></trkpt><trkpt lat="42.3757483" lon="14.2696208"><ele>126.75</ele><time>2026-05-01T09:15:46.832Z</time></trkpt><trkpt lat="42.375693" lon="14.2697696"><ele>126.0</ele><time>2026-05-01T09:15:47.833Z</time></trkpt><trkpt lat="42.3756327" lon="14.2699243"><ele>124.75</ele><time>2026-05-01T09:15:48.833Z</time></trkpt><trkpt lat="42.375564" lon="14.2700776"><ele>123.5</ele><time>2026-05-01T09:15:49.833Z</time></trkpt><trkpt lat="42.375502" lon="14.2702347"><ele>122.25</ele><time>2026-05-01T09:15:50.832Z</time></trkpt><trkpt lat="42.3754509" lon="14.2703767"><ele>121.0</ele><time>2026-05-01T09:15:51.833Z</time></trkpt><trkpt lat="42.3754019" lon="14.2705041"><ele>125.6</ele><time>2026-05-01T09:15:52.833Z</time></trkpt><trkpt lat="42.3753372" lon="14.2706124"><ele>130.2</ele><time>2026-05-01T09:15:53.833Z</time></trkpt><trkpt lat="42.3752723" lon="14.2707221"><ele>134.8</ele><time>2026-05-01T09:15:54.833Z</time></trkpt><trkpt lat="42.375209" lon="14.2708136"><ele>139.4</ele><time>2026-05-01T09:15:55.833Z</time></trkpt><trkpt lat="42.3751504" lon="14.2708796"><ele>144.0</ele><time>2026-05-01T09:15:56.833Z</time></trkpt><trkpt lat="42.3750616" lon="14.2709406"><ele>144.0</ele><time>2026-05-01T09:15:58.833Z</time></trkpt><trkpt lat="42.3749992" lon="14.2709731"><ele>144.0</ele><time>2026-05-01T09:15:59.833Z</time></trkpt><trkpt lat="42.3749242" lon="14.2709909"><ele>144.0</ele><time>2026-05-01T09:16:00.833Z</time></trkpt><trkpt lat="42.3748484" lon="14.2709874"><ele>144.0</ele><time>2026-05-01T09:16:01.833Z</time></trkpt><trkpt lat="42.3747608" lon="14.2709645"><ele>144.0</ele><time>2026-05-01T09:16:02.833Z</time></trkpt><trkpt lat="42.3746599" lon="14.2709298"><ele>144.0</ele><time>2026-05-01T09:16:03.833Z</time></trkpt><trkpt lat="42.3745406" lon="14.2709052"><ele>145.66666666666666</ele><time>2026-05-01T09:16:04.833Z</time></trkpt><trkpt lat="42.3744237" lon="14.270909"><ele>147.33333333333334</ele><time>2026-05-01T09:16:05.833Z</time></trkpt><trkpt lat="42.3743418" lon="14.2709242"><ele>149.0</ele><time>2026-05-01T09:16:06.833Z</time></trkpt><trkpt lat="42.3742491" lon="14.2709627"><ele>150.66666666666669</ele><time>2026-05-01T09:16:08.832Z</time></trkpt><trkpt lat="42.3741918" lon="14.2710027"><ele>152.33333333333334</ele><time>2026-05-01T09:16:09.833Z</time></trkpt><trkpt lat="42.3741272" lon="14.2710683"><ele>154.0</ele><time>2026-05-01T09:16:10.833Z</time></trkpt><trkpt lat="42.3740711" lon="14.2711695"><ele>154.0</ele><time>2026-05-01T09:16:11.833Z</time></trkpt><trkpt lat="42.3740419" lon="14.2712856"><ele>154.0</ele><time>2026-05-01T09:16:12.833Z</time></trkpt><trkpt lat="42.3740071" lon="14.2714061"><ele>154.0</ele><time>2026-05-01T09:16:13.833Z</time></trkpt><trkpt lat="42.3739432" lon="14.271519"><ele>154.0</ele><time>2026-05-01T09:16:14.833Z</time></trkpt><trkpt lat="42.3738519" lon="14.2716198"><ele>154.0</ele><time>2026-05-01T09:16:15.833Z</time></trkpt><trkpt lat="42.373739" lon="14.27171"><ele>149.5</ele><time>2026-05-01T09:16:16.833Z</time></trkpt><trkpt lat="42.3736236" lon="14.2717861"><ele>145.0</ele><time>2026-05-01T09:16:17.833Z</time></trkpt><trkpt lat="42.3735067" lon="14.2718607"><ele>140.5</ele><time>2026-05-01T09:16:18.833Z</time></trkpt><trkpt lat="42.3733835" lon="14.2719286"><ele>136.0</ele><time>2026-05-01T09:16:19.833Z</time></trkpt><trkpt lat="42.3732527" lon="14.2719681"><ele>136.0</ele><time>2026-05-01T09:16:20.833Z</time></trkpt><trkpt lat="42.3731023" lon="14.271986"><ele>136.0</ele><time>2026-05-01T09:16:21.833Z</time></trkpt><trkpt lat="42.3729518" lon="14.271985"><ele>136.0</ele><time>2026-05-01T09:16:22.832Z</time></trkpt><trkpt lat="42.3727959" lon="14.2719819"><ele>132.66666666666669</ele><time>2026-05-01T09:16:23.833Z</time></trkpt><trkpt lat="42.3726407" lon="14.2719905"><ele>129.33333333333334</ele><time>2026-05-01T09:16:24.833Z</time></trkpt><trkpt lat="42.3724823" lon="14.2720078"><ele>126.0</ele><time>2026-05-01T09:16:25.833Z</time></trkpt><trkpt lat="42.3723383" lon="14.2720193"><ele>126.0</ele><time>2026-05-01T09:16:26.833Z</time></trkpt><trkpt lat="42.3722293" lon="14.2720182"><ele>126.0</ele><time>2026-05-01T09:16:27.833Z</time></trkpt><trkpt lat="42.3721429" lon="14.27203"><ele>126.0</ele><time>2026-05-01T09:16:28.833Z</time></trkpt><trkpt lat="42.3720618" lon="14.2720848"><ele>126.0</ele><time>2026-05-01T09:16:29.833Z</time></trkpt><trkpt lat="42.3719766" lon="14.272185"><ele>126.0</ele><time>2026-05-01T09:16:30.833Z</time></trkpt><trkpt lat="42.371896" lon="14.2723159"><ele>121.0</ele><time>2026-05-01T09:16:31.832Z</time></trkpt><trkpt lat="42.3718278" lon="14.2724709"><ele>116.0</ele><time>2026-05-01T09:16:32.833Z</time></trkpt><trkpt lat="42.3717586" lon="14.2726588"><ele>111.0</ele><time>2026-05-01T09:16:33.833Z</time></trkpt><trkpt lat="42.3716927" lon="14.2728573"><ele>106.0</ele><time>2026-05-01T09:16:34.833Z</time></trkpt><trkpt lat="42.3716226" lon="14.2730492"><ele>104.33333333333334</ele><time>2026-05-01T09:16:35.833Z</time></trkpt><trkpt lat="42.3715507" lon="14.2732443"><ele>102.66666666666666</ele><time>2026-05-01T09:16:36.833Z</time></trkpt><trkpt lat="42.371484" lon="14.2734425"><ele>101.0</ele><time>2026-05-01T09:16:37.833Z</time></trkpt><trkpt lat="42.3714154" lon="14.2736458"><ele>97.0</ele><time>2026-05-01T09:16:38.833Z</time></trkpt><trkpt lat="42.371352" lon="14.2738497"><ele>93.0</ele><time>2026-05-01T09:16:39.833Z</time></trkpt><trkpt lat="42.371299" lon="14.2740498"><ele>89.0</ele><time>2026-05-01T09:16:40.833Z</time></trkpt><trkpt lat="42.3712637" lon="14.2742549"><ele>87.25</ele><time>2026-05-01T09:16:41.833Z</time></trkpt><trkpt lat="42.3712516" lon="14.274443"><ele>85.5</ele><time>2026-05-01T09:16:42.833Z</time></trkpt><trkpt lat="42.3712555" lon="14.2746275"><ele>83.75</ele><time>2026-05-01T09:16:43.832Z</time></trkpt><trkpt lat="42.3712724" lon="14.2748259"><ele>82.0</ele><time>2026-05-01T09:16:44.833Z</time></trkpt><trkpt lat="42.3712842" lon="14.2750331"><ele>81.0</ele><time>2026-05-01T09:16:45.833Z</time></trkpt><trkpt lat="42.3712626" lon="14.2752361"><ele>80.0</ele><time>2026-05-01T09:16:46.833Z</time></trkpt><trkpt lat="42.3712338" lon="14.2754463"><ele>79.0</ele><time>2026-05-01T09:16:47.833Z</time></trkpt><trkpt lat="42.3712023" lon="14.2756547"><ele>79.0</ele><time>2026-05-01T09:16:48.833Z</time></trkpt><trkpt lat="42.3711656" lon="14.2758674"><ele>79.0</ele><time>2026-05-01T09:16:49.833Z</time></trkpt><trkpt lat="42.3711132" lon="14.2760942"><ele>79.0</ele><time>2026-05-01T09:16:50.832Z</time></trkpt><trkpt lat="42.3710599" lon="14.2763243"><ele>78.33333333333333</ele><time>2026-05-01T09:16:51.833Z</time></trkpt><trkpt lat="42.37101" lon="14.2765472"><ele>77.66666666666667</ele><time>2026-05-01T09:16:52.833Z</time></trkpt><trkpt lat="42.3709598" lon="14.2767598"><ele>77.0</ele><time>2026-05-01T09:16:53.832Z</time></trkpt><trkpt lat="42.3709101" lon="14.2769665"><ele>77.0</ele><time>2026-05-01T09:16:54.833Z</time></trkpt><trkpt lat="42.3708667" lon="14.2771608"><ele>77.0</ele><time>2026-05-01T09:16:55.833Z</time></trkpt><trkpt lat="42.370828" lon="14.2773307"><ele>77.0</ele><time>2026-05-01T09:16:56.833Z</time></trkpt><trkpt lat="42.3707903" lon="14.2774937"><ele>77.0</ele><time>2026-05-01T09:16:57.833Z</time></trkpt><trkpt lat="42.3707522" lon="14.2776576"><ele>77.0</ele><time>2026-05-01T09:16:58.833Z</time></trkpt><trkpt lat="42.3707042" lon="14.2778281"><ele>77.0</ele><time>2026-05-01T09:16:59.833Z</time></trkpt><trkpt lat="42.3706533" lon="14.2780094"><ele>77.0</ele><time>2026-05-01T09:17:00.833Z</time></trkpt><trkpt lat="42.3705904" lon="14.2781977"><ele>77.0</ele><time>2026-05-01T09:17:01.833Z</time></trkpt><trkpt lat="42.3705114" lon="14.2783919"><ele>74.33333333333334</ele><time>2026-05-01T09:17:02.833Z</time></trkpt><trkpt lat="42.3704136" lon="14.2785635"><ele>71.66666666666667</ele><time>2026-05-01T09:17:03.833Z</time></trkpt><trkpt lat="42.3703111" lon="14.2787237"><ele>69.0</ele><time>2026-05-01T09:17:04.833Z</time></trkpt><trkpt lat="42.3701895" lon="14.2788608"><ele>68.33333333333333</ele><time>2026-05-01T09:17:05.833Z</time></trkpt><trkpt lat="42.3700516" lon="14.2789907"><ele>67.66666666666666</ele><time>2026-05-01T09:17:06.833Z</time></trkpt><trkpt lat="42.3699175" lon="14.2791032"><ele>67.0</ele><time>2026-05-01T09:17:07.833Z</time></trkpt><trkpt lat="42.3698103" lon="14.27921"><ele>67.0</ele><time>2026-05-01T09:17:08.833Z</time></trkpt><trkpt lat="42.3697274" lon="14.2793132"><ele>67.0</ele><time>2026-05-01T09:17:09.833Z</time></trkpt><trkpt lat="42.3696675" lon="14.2794333"><ele>67.0</ele><time>2026-05-01T09:17:10.833Z</time></trkpt><trkpt lat="42.3696498" lon="14.279592"><ele>67.0</ele><time>2026-05-01T09:17:11.833Z</time></trkpt><trkpt lat="42.3696623" lon="14.2797745"><ele>66.66666666666666</ele><time>2026-05-01T09:17:12.833Z</time></trkpt><trkpt lat="42.3696769" lon="14.2799802"><ele>66.33333333333333</ele><time>2026-05-01T09:17:13.833Z</time></trkpt><trkpt lat="42.3696883" lon="14.2801997"><ele>66.0</ele><time>2026-05-01T09:17:14.833Z</time></trkpt><trkpt lat="42.3696944" lon="14.2804231"><ele>65.0</ele><time>2026-05-01T09:17:15.833Z</time></trkpt><trkpt lat="42.3696978" lon="14.2806384"><ele>64.0</ele><time>2026-05-01T09:17:16.833Z</time></trkpt><trkpt lat="42.3696972" lon="14.2808514"><ele>63.0</ele><time>2026-05-01T09:17:17.833Z</time></trkpt><trkpt lat="42.3696939" lon="14.2810686"><ele>63.66666666666667</ele><time>2026-05-01T09:17:18.833Z</time></trkpt><trkpt lat="42.3696911" lon="14.2812882"><ele>64.33333333333334</ele><time>2026-05-01T09:17:19.833Z</time></trkpt><trkpt lat="42.3696923" lon="14.2815093"><ele>65.0</ele><time>2026-05-01T09:17:20.833Z</time></trkpt><trkpt lat="42.3696973" lon="14.2817259"><ele>64.4</ele><time>2026-05-01T09:17:21.833Z</time></trkpt><trkpt lat="42.3696996" lon="14.2819211"><ele>63.8</ele><time>2026-05-01T09:17:22.833Z</time></trkpt><trkpt lat="42.3696878" lon="14.2820759"><ele>63.2</ele><time>2026-05-01T09:17:23.833Z</time></trkpt><trkpt lat="42.3696645" lon="14.2821842"><ele>62.6</ele><time>2026-05-01T09:17:24.833Z</time></trkpt><trkpt lat="42.3695974" lon="14.2822502"><ele>62.0</ele><time>2026-05-01T09:17:26.833Z</time></trkpt><trkpt lat="42.3695257" lon="14.2821716"><ele>62.0</ele><time>2026-05-01T09:17:28.833Z</time></trkpt><trkpt lat="42.3694762" lon="14.2820888"><ele>62.0</ele><time>2026-05-01T09:17:29.833Z</time></trkpt><trkpt lat="42.3694173" lon="14.2819831"><ele>62.0</ele><time>2026-05-01T09:17:30.833Z</time></trkpt><trkpt lat="42.3693482" lon="14.2818597"><ele>62.0</ele><time>2026-05-01T09:17:31.833Z</time></trkpt><trkpt lat="42.3692685" lon="14.2817319"><ele>62.0</ele><time>2026-05-01T09:17:32.833Z</time></trkpt><trkpt lat="42.3691816" lon="14.2815953"><ele>62.0</ele><time>2026-05-01T09:17:33.833Z</time></trkpt><trkpt lat="42.3690967" lon="14.2814451"><ele>62.0</ele><time>2026-05-01T09:17:34.833Z</time></trkpt><trkpt lat="42.3690071" lon="14.2812885"><ele>62.0</ele><time>2026-05-01T09:17:35.833Z</time></trkpt><trkpt lat="42.3689201" lon="14.2811347"><ele>62.0</ele><time>2026-05-01T09:17:36.833Z</time></trkpt><trkpt lat="42.3688305" lon="14.2809793"><ele>62.25</ele><time>2026-05-01T09:17:37.833Z</time></trkpt><trkpt lat="42.3687458" lon="14.2808247"><ele>62.5</ele><time>2026-05-01T09:17:38.833Z</time></trkpt><trkpt lat="42.3686634" lon="14.2806748"><ele>62.75</ele><time>2026-05-01T09:17:39.833Z</time></trkpt><trkpt lat="42.3685893" lon="14.2805329"><ele>63.0</ele><time>2026-05-01T09:17:40.833Z</time></trkpt><trkpt lat="42.3685194" lon="14.2804105"><ele>62.599999999999994</ele><time>2026-05-01T09:17:41.833Z</time></trkpt><trkpt lat="42.3684489" lon="14.2802936"><ele>62.199999999999996</ele><time>2026-05-01T09:17:42.833Z</time></trkpt><trkpt lat="42.3683723" lon="14.280204"><ele>61.8</ele><time>2026-05-01T09:17:43.833Z</time></trkpt><trkpt lat="42.3682699" lon="14.2801613"><ele>61.4</ele><time>2026-05-01T09:17:44.833Z</time></trkpt><trkpt lat="42.3681604" lon="14.2801655"><ele>61.0</ele><time>2026-05-01T09:17:45.833Z</time></trkpt><trkpt lat="42.3680465" lon="14.2802151"><ele>58.75</ele><time>2026-05-01T09:17:46.833Z</time></trkpt><trkpt lat="42.36793" lon="14.2803056"><ele>56.5</ele><time>2026-05-01T09:17:47.833Z</time></trkpt><trkpt lat="42.3677986" lon="14.2804021"><ele>54.25</ele><time>2026-05-01T09:17:48.833Z</time></trkpt><trkpt lat="42.3676649" lon="14.280484"><ele>52.0</ele><time>2026-05-01T09:17:49.833Z</time></trkpt><trkpt lat="42.3675241" lon="14.28057"><ele>53.0</ele><time>2026-05-01T09:17:50.833Z</time></trkpt><trkpt lat="42.367372" lon="14.2806488"><ele>54.0</ele><time>2026-05-01T09:17:51.833Z</time></trkpt><trkpt lat="42.3672045" lon="14.2807064"><ele>55.0</ele><time>2026-05-01T09:17:52.833Z</time></trkpt><trkpt lat="42.3670217" lon="14.2807559"><ele>53.0</ele><time>2026-05-01T09:17:53.833Z</time></trkpt><trkpt lat="42.3668366" lon="14.2807928"><ele>51.0</ele><time>2026-05-01T09:17:54.833Z</time></trkpt><trkpt lat="42.366653" lon="14.2808329"><ele>49.0</ele><time>2026-05-01T09:17:55.832Z</time></trkpt><trkpt lat="42.3664762" lon="14.2808748"><ele>47.666666666666664</ele><time>2026-05-01T09:17:56.833Z</time></trkpt><trkpt lat="42.3663081" lon="14.2809166"><ele>46.33333333333333</ele><time>2026-05-01T09:17:57.833Z</time></trkpt><trkpt lat="42.366146" lon="14.2809554"><ele>45.0</ele><time>2026-05-01T09:17:58.833Z</time></trkpt><trkpt lat="42.3659913" lon="14.2809897"><ele>45.0</ele><time>2026-05-01T09:17:59.833Z</time></trkpt><trkpt lat="42.3658449" lon="14.2810207"><ele>45.0</ele><time>2026-05-01T09:18:00.833Z</time></trkpt><trkpt lat="42.3657251" lon="14.2810445"><ele>45.0</ele><time>2026-05-01T09:18:01.833Z</time></trkpt><trkpt lat="42.3656371" lon="14.2810527"><ele>45.0</ele><time>2026-05-01T09:18:02.832Z</time></trkpt><trkpt lat="42.3655689" lon="14.281059"><ele>45.0</ele><time>2026-05-01T09:18:03.833Z</time></trkpt><trkpt lat="42.3654747" lon="14.2810067"><ele>45.0</ele><time>2026-05-01T09:18:05.833Z</time></trkpt><trkpt lat="42.3654167" lon="14.2809047"><ele>45.0</ele><time>2026-05-01T09:18:06.833Z</time></trkpt><trkpt lat="42.3653502" lon="14.2807736"><ele>45.0</ele><time>2026-05-01T09:18:07.833Z</time></trkpt><trkpt lat="42.3652744" lon="14.2806235"><ele>45.0</ele><time>2026-05-01T09:18:08.833Z</time></trkpt><trkpt lat="42.3651902" lon="14.2804599"><ele>45.0</ele><time>2026-05-01T09:18:09.833Z</time></trkpt><trkpt lat="42.3651005" lon="14.2802951"><ele>45.0</ele><time>2026-05-01T09:18:10.833Z</time></trkpt><trkpt lat="42.3650126" lon="14.2801357"><ele>45.0</ele><time>2026-05-01T09:18:11.833Z</time></trkpt><trkpt lat="42.3649283" lon="14.279965"><ele>45.0</ele><time>2026-05-01T09:18:12.833Z</time></trkpt><trkpt lat="42.364844" lon="14.2797912"><ele>45.0</ele><time>2026-05-01T09:18:13.832Z</time></trkpt><trkpt lat="42.3647509" lon="14.2796153"><ele>45.0</ele><time>2026-05-01T09:18:14.833Z</time></trkpt><trkpt lat="42.364651" lon="14.2794194"><ele>45.333333333333336</ele><time>2026-05-01T09:18:15.833Z</time></trkpt><trkpt lat="42.3645483" lon="14.2792268"><ele>45.66666666666667</ele><time>2026-05-01T09:18:16.833Z</time></trkpt><trkpt lat="42.3644405" lon="14.2790414"><ele>46.0</ele><time>2026-05-01T09:18:17.833Z</time></trkpt><trkpt lat="42.3643187" lon="14.2788713"><ele>47.0</ele><time>2026-05-01T09:18:18.833Z</time></trkpt><trkpt lat="42.3641798" lon="14.2787221"><ele>48.0</ele><time>2026-05-01T09:18:19.833Z</time></trkpt><trkpt lat="42.364029" lon="14.2785899"><ele>49.0</ele><time>2026-05-01T09:18:20.833Z</time></trkpt><trkpt lat="42.3638657" lon="14.2784527"><ele>49.33333333333333</ele><time>2026-05-01T09:18:21.833Z</time></trkpt><trkpt lat="42.3637019" lon="14.2783102"><ele>49.66666666666667</ele><time>2026-05-01T09:18:22.833Z</time></trkpt><trkpt lat="42.3635407" lon="14.2781702"><ele>50.0</ele><time>2026-05-01T09:18:23.832Z</time></trkpt><trkpt lat="42.3633864" lon="14.2780458"><ele>50.0</ele><time>2026-05-01T09:18:24.833Z</time></trkpt><trkpt lat="42.3632359" lon="14.277925"><ele>50.0</ele><time>2026-05-01T09:18:25.833Z</time></trkpt><trkpt lat="42.3630857" lon="14.2778195"><ele>50.0</ele><time>2026-05-01T09:18:26.833Z</time></trkpt><trkpt lat="42.3629282" lon="14.2777434"><ele>50.0</ele><time>2026-05-01T09:18:27.833Z</time></trkpt><trkpt lat="42.3627575" lon="14.2777083"><ele>50.0</ele><time>2026-05-01T09:18:28.833Z</time></trkpt><trkpt lat="42.3625848" lon="14.2776924"><ele>50.0</ele><time>2026-05-01T09:18:29.832Z</time></trkpt><trkpt lat="42.3624056" lon="14.2777044"><ele>50.0</ele><time>2026-05-01T09:18:30.833Z</time></trkpt><trkpt lat="42.3622235" lon="14.2777205"><ele>50.0</ele><time>2026-05-01T09:18:31.832Z</time></trkpt><trkpt lat="42.3620312" lon="14.2777335"><ele>50.0</ele><time>2026-05-01T09:18:32.833Z</time></trkpt><trkpt lat="42.3618387" lon="14.2777541"><ele>50.0</ele><time>2026-05-01T09:18:33.833Z</time></trkpt><trkpt lat="42.361647" lon="14.2777733"><ele>50.0</ele><time>2026-05-01T09:18:34.833Z</time></trkpt><trkpt lat="42.3614705" lon="14.2777927"><ele>50.0</ele><time>2026-05-01T09:18:35.832Z</time></trkpt><trkpt lat="42.361296" lon="14.2778154"><ele>50.0</ele><time>2026-05-01T09:18:36.832Z</time></trkpt><trkpt lat="42.3611217" lon="14.2778315"><ele>50.0</ele><time>2026-05-01T09:18:37.832Z</time></trkpt><trkpt lat="42.3609457" lon="14.2778505"><ele>50.0</ele><time>2026-05-01T09:18:38.831Z</time></trkpt><trkpt lat="42.3607677" lon="14.2778702"><ele>50.0</ele><time>2026-05-01T09:18:39.832Z</time></trkpt><trkpt lat="42.3605929" lon="14.2778851"><ele>50.0</ele><time>2026-05-01T09:18:40.832Z</time></trkpt><trkpt lat="42.3604206" lon="14.2778873"><ele>50.0</ele><time>2026-05-01T09:18:41.832Z</time></trkpt><trkpt lat="42.3602531" lon="14.2778728"><ele>50.25</ele><time>2026-05-01T09:18:42.832Z</time></trkpt><trkpt lat="42.3601055" lon="14.2778206"><ele>50.5</ele><time>2026-05-01T09:18:43.832Z</time></trkpt><trkpt lat="42.359971" lon="14.2777328"><ele>50.75</ele><time>2026-05-01T09:18:44.832Z</time></trkpt><trkpt lat="42.3598686" lon="14.2776081"><ele>51.0</ele><time>2026-05-01T09:18:45.832Z</time></trkpt><trkpt lat="42.3598067" lon="14.2774532"><ele>51.0</ele><time>2026-05-01T09:18:46.832Z</time></trkpt><trkpt lat="42.3597778" lon="14.2772936"><ele>51.0</ele><time>2026-05-01T09:18:47.832Z</time></trkpt><trkpt lat="42.3597418" lon="14.2771573"><ele>51.0</ele><time>2026-05-01T09:18:48.832Z</time></trkpt><trkpt lat="42.3597107" lon="14.2770511"><ele>51.0</ele><time>2026-05-01T09:18:49.832Z</time></trkpt><trkpt lat="42.3596479" lon="14.2769654"><ele>51.0</ele><time>2026-05-01T09:18:51.831Z</time></trkpt><trkpt lat="42.3595528" lon="14.277018"><ele>50.8</ele><time>2026-05-01T09:18:53.832Z</time></trkpt><trkpt lat="42.3595185" lon="14.2771047"><ele>50.599999999999994</ele><time>2026-05-01T09:18:54.832Z</time></trkpt><trkpt lat="42.3594871" lon="14.2772448"><ele>50.4</ele><time>2026-05-01T09:18:55.832Z</time></trkpt><trkpt lat="42.359479" lon="14.2774129"><ele>50.2</ele><time>2026-05-01T09:18:56.831Z</time></trkpt><trkpt lat="42.3594957" lon="14.2775896"><ele>50.0</ele><time>2026-05-01T09:18:57.831Z</time></trkpt><trkpt lat="42.3595294" lon="14.2777684"><ele>50.0</ele><time>2026-05-01T09:18:58.832Z</time></trkpt><trkpt lat="42.3595669" lon="14.277937"><ele>50.0</ele><time>2026-05-01T09:18:59.832Z</time></trkpt><trkpt lat="42.3595998" lon="14.2781069"><ele>50.0</ele><time>2026-05-01T09:19:00.832Z</time></trkpt><trkpt lat="42.3596092" lon="14.278286"><ele>50.0</ele><time>2026-05-01T09:19:01.832Z</time></trkpt><trkpt lat="42.3596012" lon="14.2784726"><ele>49.0</ele><time>2026-05-01T09:19:02.832Z</time></trkpt><trkpt lat="42.3595608" lon="14.2786531"><ele>48.0</ele><time>2026-05-01T09:19:03.832Z</time></trkpt><trkpt lat="42.3595019" lon="14.2788413"><ele>47.0</ele><time>2026-05-01T09:19:04.832Z</time></trkpt><trkpt lat="42.3594391" lon="14.2790298"><ele>46.0</ele><time>2026-05-01T09:19:05.832Z</time></trkpt><trkpt lat="42.3593716" lon="14.279227"><ele>45.333333333333336</ele><time>2026-05-01T09:19:06.832Z</time></trkpt><trkpt lat="42.3592974" lon="14.2794348"><ele>44.666666666666664</ele><time>2026-05-01T09:19:07.831Z</time></trkpt><trkpt lat="42.359226" lon="14.2796391"><ele>44.0</ele><time>2026-05-01T09:19:08.832Z</time></trkpt><trkpt lat="42.359163" lon="14.2798106"><ele>43.5</ele><time>2026-05-01T09:19:09.832Z</time></trkpt><trkpt lat="42.3590994" lon="14.2799618"><ele>43.0</ele><time>2026-05-01T09:19:10.832Z</time></trkpt><trkpt lat="42.359035" lon="14.2801126"><ele>42.5</ele><time>2026-05-01T09:19:11.832Z</time></trkpt><trkpt lat="42.3589591" lon="14.2802515"><ele>42.0</ele><time>2026-05-01T09:19:12.832Z</time></trkpt><trkpt lat="42.3588686" lon="14.2803732"><ele>42.0</ele><time>2026-05-01T09:19:13.831Z</time></trkpt><trkpt lat="42.3587722" lon="14.2804846"><ele>42.0</ele><time>2026-05-01T09:19:14.832Z</time></trkpt><trkpt lat="42.3586797" lon="14.2805804"><ele>42.0</ele><time>2026-05-01T09:19:15.832Z</time></trkpt><trkpt lat="42.3585972" lon="14.2806674"><ele>42.0</ele><time>2026-05-01T09:19:16.831Z</time></trkpt><trkpt lat="42.3585155" lon="14.280741"><ele>42.0</ele><time>2026-05-01T09:19:17.832Z</time></trkpt><trkpt lat="42.3584451" lon="14.2808005"><ele>41.8</ele><time>2026-05-01T09:19:18.832Z</time></trkpt><trkpt lat="42.3583787" lon="14.2808718"><ele>41.6</ele><time>2026-05-01T09:19:20.832Z</time></trkpt><trkpt lat="42.3584425" lon="14.2809188"><ele>41.4</ele><time>2026-05-01T09:19:23.832Z</time></trkpt><trkpt lat="42.3585521" lon="14.2808612"><ele>41.199999999999996</ele><time>2026-05-01T09:19:25.832Z</time></trkpt><trkpt lat="42.3586295" lon="14.2808038"><ele>41.0</ele><time>2026-05-01T09:19:26.832Z</time></trkpt><trkpt lat="42.3587131" lon="14.2807388"><ele>41.0</ele><time>2026-05-01T09:19:27.832Z</time></trkpt><trkpt lat="42.358797" lon="14.2806636"><ele>41.0</ele><time>2026-05-01T09:19:28.832Z</time></trkpt><trkpt lat="42.3588771" lon="14.2805835"><ele>41.0</ele><time>2026-05-01T09:19:29.832Z</time></trkpt><trkpt lat="42.3589541" lon="14.2805044"><ele>41.0</ele><time>2026-05-01T09:19:30.831Z</time></trkpt><trkpt lat="42.3590318" lon="14.2804195"><ele>41.0</ele><time>2026-05-01T09:19:31.832Z</time></trkpt><trkpt lat="42.3591089" lon="14.2803219"><ele>41.199999999999996</ele><time>2026-05-01T09:19:32.832Z</time></trkpt><trkpt lat="42.3591827" lon="14.2802157"><ele>41.4</ele><time>2026-05-01T09:19:33.832Z</time></trkpt><trkpt lat="42.3592389" lon="14.2801078"><ele>41.6</ele><time>2026-05-01T09:19:34.832Z</time></trkpt><trkpt lat="42.3592708" lon="14.2800253"><ele>41.8</ele><time>2026-05-01T09:19:35.832Z</time></trkpt><trkpt lat="42.3593314" lon="14.2799043"><ele>42.0</ele><time>2026-05-01T09:19:37.832Z</time></trkpt><trkpt lat="42.3594424" lon="14.279875"><ele>42.0</ele><time>2026-05-01T09:19:39.832Z</time></trkpt><trkpt lat="42.359539" lon="14.2798711"><ele>42.0</ele><time>2026-05-01T09:19:40.832Z</time></trkpt><trkpt lat="42.3596448" lon="14.2798589"><ele>42.0</ele><time>2026-05-01T09:19:41.832Z</time></trkpt><trkpt lat="42.3597469" lon="14.2798574"><ele>42.0</ele><time>2026-05-01T09:19:42.832Z</time></trkpt><trkpt lat="42.359851" lon="14.2798775"><ele>42.0</ele><time>2026-05-01T09:19:43.832Z</time></trkpt><trkpt lat="42.3599768" lon="14.2799196"><ele>41.75</ele><time>2026-05-01T09:19:44.833Z</time></trkpt><trkpt lat="42.3601211" lon="14.2799621"><ele>41.5</ele><time>2026-05-01T09:19:45.833Z</time></trkpt><trkpt lat="42.3602653" lon="14.2800045"><ele>41.25</ele><time>2026-05-01T09:19:46.832Z</time></trkpt><trkpt lat="42.3604119" lon="14.2800349"><ele>41.0</ele><time>2026-05-01T09:19:47.833Z</time></trkpt><trkpt lat="42.3605544" lon="14.2800644"><ele>41.5</ele><time>2026-05-01T09:19:48.832Z</time></trkpt><trkpt lat="42.3606899" lon="14.2800929"><ele>42.0</ele><time>2026-05-01T09:19:49.832Z</time></trkpt><trkpt lat="42.3608111" lon="14.2801223"><ele>42.5</ele><time>2026-05-01T09:19:50.833Z</time></trkpt><trkpt lat="42.3609183" lon="14.2801488"><ele>43.0</ele><time>2026-05-01T09:19:51.833Z</time></trkpt><trkpt lat="42.3610066" lon="14.2801402"><ele>43.0</ele><time>2026-05-01T09:19:52.833Z</time></trkpt><trkpt lat="42.3610908" lon="14.2801038"><ele>43.0</ele><time>2026-05-01T09:19:53.833Z</time></trkpt><trkpt lat="42.3611843" lon="14.280037"><ele>43.0</ele><time>2026-05-01T09:19:54.832Z</time></trkpt><trkpt lat="42.3612715" lon="14.279959"><ele>43.0</ele><time>2026-05-01T09:19:55.833Z</time></trkpt><trkpt lat="42.3613537" lon="14.2798876"><ele>43.0</ele><time>2026-05-01T09:19:56.833Z</time></trkpt><trkpt lat="42.3614185" lon="14.2798232"><ele>43.0</ele><time>2026-05-01T09:19:57.833Z</time></trkpt><trkpt lat="42.3614914" lon="14.2797914"><ele>43.0</ele><time>2026-05-01T09:19:58.833Z</time></trkpt><trkpt lat="42.3615751" lon="14.2797592"><ele>43.0</ele><time>2026-05-01T09:19:59.832Z</time></trkpt><trkpt lat="42.3616679" lon="14.2797162"><ele>43.0</ele><time>2026-05-01T09:20:00.833Z</time></trkpt><trkpt lat="42.3617671" lon="14.2796708"><ele>43.0</ele><time>2026-05-01T09:20:01.833Z</time></trkpt><trkpt lat="42.3618717" lon="14.2796129"><ele>43.0</ele><time>2026-05-01T09:20:02.832Z</time></trkpt><trkpt lat="42.3619699" lon="14.2795529"><ele>43.0</ele><time>2026-05-01T09:20:03.833Z</time></trkpt><trkpt lat="42.3620607" lon="14.2795065"><ele>43.0</ele><time>2026-05-01T09:20:04.833Z</time></trkpt><trkpt lat="42.3621549" lon="14.2794808"><ele>43.0</ele><time>2026-05-01T09:20:05.833Z</time></trkpt><trkpt lat="42.3622413" lon="14.2794802"><ele>43.0</ele><time>2026-05-01T09:20:06.833Z</time></trkpt><trkpt lat="42.362323" lon="14.2794993"><ele>43.0</ele><time>2026-05-01T09:20:07.832Z</time></trkpt><trkpt lat="42.3623954" lon="14.2795265"><ele>43.0</ele><time>2026-05-01T09:20:08.833Z</time></trkpt><trkpt lat="42.3624662" lon="14.2795699"><ele>43.0</ele><time>2026-05-01T09:20:09.832Z</time></trkpt><trkpt lat="42.3625474" lon="14.2796378"><ele>43.0</ele><time>2026-05-01T09:20:10.832Z</time></trkpt><trkpt lat="42.3626446" lon="14.2797205"><ele>43.0</ele><time>2026-05-01T09:20:11.833Z</time></trkpt><trkpt lat="42.3627635" lon="14.2798108"><ele>43.0</ele><time>2026-05-01T09:20:12.833Z</time></trkpt><trkpt lat="42.3628936" lon="14.2798928"><ele>43.0</ele><time>2026-05-01T09:20:13.833Z</time></trkpt><trkpt lat="42.3630254" lon="14.2799743"><ele>43.0</ele><time>2026-05-01T09:20:14.832Z</time></trkpt><trkpt lat="42.3631632" lon="14.2800522"><ele>43.0</ele><time>2026-05-01T09:20:15.833Z</time></trkpt><trkpt lat="42.3633095" lon="14.2801273"><ele>42.75</ele><time>2026-05-01T09:20:16.833Z</time></trkpt><trkpt lat="42.3634545" lon="14.2801876"><ele>42.5</ele><time>2026-05-01T09:20:17.833Z</time></trkpt><trkpt lat="42.3635843" lon="14.280243"><ele>42.25</ele><time>2026-05-01T09:20:18.833Z</time></trkpt><trkpt lat="42.3636953" lon="14.2803009"><ele>42.0</ele><time>2026-05-01T09:20:19.833Z</time></trkpt><trkpt lat="42.363791" lon="14.2803741"><ele>42.0</ele><time>2026-05-01T09:20:20.833Z</time></trkpt><trkpt lat="42.3638701" lon="14.2804607"><ele>42.0</ele><time>2026-05-01T09:20:21.833Z</time></trkpt><trkpt lat="42.363941" lon="14.2805686"><ele>42.0</ele><time>2026-05-01T09:20:22.833Z</time></trkpt><trkpt lat="42.3640142" lon="14.2806881"><ele>42.0</ele><time>2026-05-01T09:20:23.833Z</time></trkpt><trkpt lat="42.3640839" lon="14.2808368"><ele>41.2</ele><time>2026-05-01T09:20:24.833Z</time></trkpt><trkpt lat="42.364151" lon="14.2809845"><ele>40.400000000000006</ele><time>2026-05-01T09:20:25.833Z</time></trkpt><trkpt lat="42.3642231" lon="14.2811246"><ele>39.599999999999994</ele><time>2026-05-01T09:20:26.833Z</time></trkpt><trkpt lat="42.3642781" lon="14.2812441"><ele>38.8</ele><time>2026-05-01T09:20:27.833Z</time></trkpt><trkpt lat="42.3643111" lon="14.2813585"><ele>38.0</ele><time>2026-05-01T09:20:28.833Z</time></trkpt><trkpt lat="42.3643237" lon="14.2814719"><ele>37.666666666666664</ele><time>2026-05-01T09:20:29.832Z</time></trkpt><trkpt lat="42.3643282" lon="14.281596"><ele>37.33333333333333</ele><time>2026-05-01T09:20:30.833Z</time></trkpt><trkpt lat="42.364318" lon="14.2817244"><ele>37.0</ele><time>2026-05-01T09:20:31.832Z</time></trkpt><trkpt lat="42.3642999" lon="14.2818443"><ele>36.666666666666664</ele><time>2026-05-01T09:20:32.833Z</time></trkpt><trkpt lat="42.364273" lon="14.2819481"><ele>36.333333333333336</ele><time>2026-05-01T09:20:33.833Z</time></trkpt><trkpt lat="42.3642365" lon="14.2820494"><ele>36.0</ele><time>2026-05-01T09:20:34.832Z</time></trkpt><trkpt lat="42.3641896" lon="14.2821596"><ele>36.0</ele><time>2026-05-01T09:20:35.833Z</time></trkpt><trkpt lat="42.3641385" lon="14.2822646"><ele>36.0</ele><time>2026-05-01T09:20:36.833Z</time></trkpt><trkpt lat="42.3641028" lon="14.2823424"><ele>36.0</ele><time>2026-05-01T09:20:37.833Z</time></trkpt><trkpt lat="42.3640896" lon="14.2824391"><ele>36.0</ele><time>2026-05-01T09:20:38.833Z</time></trkpt><trkpt lat="42.3640852" lon="14.2825304"><ele>36.0</ele><time>2026-05-01T09:20:39.833Z</time></trkpt><trkpt lat="42.3640997" lon="14.2827166"><ele>36.0</ele><time>2026-05-01T09:20:41.833Z</time></trkpt><trkpt lat="42.3641136" lon="14.2828327"><ele>36.0</ele><time>2026-05-01T09:20:42.833Z</time></trkpt><trkpt lat="42.3641278" lon="14.2829182"><ele>36.0</ele><time>2026-05-01T09:20:43.833Z</time></trkpt><trkpt lat="42.3641599" lon="14.283025"><ele>36.0</ele><time>2026-05-01T09:20:45.832Z</time></trkpt><trkpt lat="42.3641986" lon="14.2831014"><ele>36.0</ele><time>2026-05-01T09:20:47.833Z</time></trkpt><trkpt lat="42.364227" lon="14.2832549"><ele>36.0</ele><time>2026-05-01T09:20:49.833Z</time></trkpt><trkpt lat="42.364234" lon="14.2833591"><ele>36.0</ele><time>2026-05-01T09:20:50.832Z</time></trkpt><trkpt lat="42.3642478" lon="14.2834709"><ele>35.8</ele><time>2026-05-01T09:20:51.832Z</time></trkpt><trkpt lat="42.36426" lon="14.2835886"><ele>35.6</ele><time>2026-05-01T09:20:52.833Z</time></trkpt><trkpt lat="42.3642623" lon="14.2836997"><ele>35.4</ele><time>2026-05-01T09:20:53.833Z</time></trkpt><trkpt lat="42.3642608" lon="14.2838253"><ele>35.2</ele><time>2026-05-01T09:20:54.833Z</time></trkpt><trkpt lat="42.3642623" lon="14.2839737"><ele>35.0</ele><time>2026-05-01T09:20:55.833Z</time></trkpt><trkpt lat="42.3642607" lon="14.2841345"><ele>34.5</ele><time>2026-05-01T09:20:56.833Z</time></trkpt><trkpt lat="42.3642551" lon="14.2843053"><ele>34.0</ele><time>2026-05-01T09:20:57.832Z</time></trkpt><trkpt lat="42.3642403" lon="14.2844689"><ele>33.5</ele><time>2026-05-01T09:20:58.833Z</time></trkpt><trkpt lat="42.3642232" lon="14.2846328"><ele>33.0</ele><time>2026-05-01T09:20:59.833Z</time></trkpt><trkpt lat="42.3642121" lon="14.2847804"><ele>33.0</ele><time>2026-05-01T09:21:00.833Z</time></trkpt><trkpt lat="42.3641973" lon="14.2849419"><ele>33.0</ele><time>2026-05-01T09:21:01.833Z</time></trkpt><trkpt lat="42.3641842" lon="14.2850992"><ele>33.0</ele><time>2026-05-01T09:21:02.832Z</time></trkpt><trkpt lat="42.3641818" lon="14.2852463"><ele>33.0</ele><time>2026-05-01T09:21:03.833Z</time></trkpt><trkpt lat="42.3641846" lon="14.2853865"><ele>33.0</ele><time>2026-05-01T09:21:04.833Z</time></trkpt><trkpt lat="42.3642119" lon="14.2855409"><ele>33.0</ele><time>2026-05-01T09:21:05.832Z</time></trkpt><trkpt lat="42.3642414" lon="14.2857149"><ele>33.0</ele><time>2026-05-01T09:21:06.833Z</time></trkpt><trkpt lat="42.364273" lon="14.2858743"><ele>33.0</ele><time>2026-05-01T09:21:07.833Z</time></trkpt><trkpt lat="42.3643147" lon="14.286019"><ele>33.25</ele><time>2026-05-01T09:21:08.833Z</time></trkpt><trkpt lat="42.3643771" lon="14.2861662"><ele>33.5</ele><time>2026-05-01T09:21:09.833Z</time></trkpt><trkpt lat="42.3644536" lon="14.286306"><ele>33.75</ele><time>2026-05-01T09:21:10.833Z</time></trkpt><trkpt lat="42.3645315" lon="14.2864306"><ele>34.0</ele><time>2026-05-01T09:21:11.833Z</time></trkpt><trkpt lat="42.3646198" lon="14.2865331"><ele>34.25</ele><time>2026-05-01T09:21:12.833Z</time></trkpt><trkpt lat="42.3647164" lon="14.2866338"><ele>34.5</ele><time>2026-05-01T09:21:13.833Z</time></trkpt><trkpt lat="42.3648303" lon="14.2867404"><ele>34.75</ele><time>2026-05-01T09:21:14.833Z</time></trkpt><trkpt lat="42.3649492" lon="14.2868487"><ele>35.0</ele><time>2026-05-01T09:21:15.833Z</time></trkpt><trkpt lat="42.365065" lon="14.2869526"><ele>35.0</ele><time>2026-05-01T09:21:16.833Z</time></trkpt><trkpt lat="42.365171" lon="14.2870586"><ele>35.0</ele><time>2026-05-01T09:21:17.832Z</time></trkpt><trkpt lat="42.3652654" lon="14.2871612"><ele>35.0</ele><time>2026-05-01T09:21:18.833Z</time></trkpt><trkpt lat="42.3653493" lon="14.2872526"><ele>35.0</ele><time>2026-05-01T09:21:19.833Z</time></trkpt><trkpt lat="42.3654272" lon="14.2873124"><ele>35.166666666666664</ele><time>2026-05-01T09:21:20.833Z</time></trkpt><trkpt lat="42.365501" lon="14.287344"><ele>35.33333333333333</ele><time>2026-05-01T09:21:21.833Z</time></trkpt><trkpt lat="42.3655744" lon="14.2873747"><ele>35.5</ele><time>2026-05-01T09:21:22.833Z</time></trkpt><trkpt lat="42.3656564" lon="14.2873874"><ele>35.666666666666664</ele><time>2026-05-01T09:21:23.833Z</time></trkpt><trkpt lat="42.3657316" lon="14.2874079"><ele>35.833333333333336</ele><time>2026-05-01T09:21:24.833Z</time></trkpt><trkpt lat="42.365807" lon="14.2874533"><ele>36.0</ele><time>2026-05-01T09:21:26.833Z</time></trkpt><trkpt lat="42.3658714" lon="14.2874374"><ele>35.666666666666664</ele><time>2026-05-01T09:21:33.833Z</time></trkpt><trkpt lat="42.3659355" lon="14.2874063"><ele>35.333333333333336</ele><time>2026-05-01T09:21:34.833Z</time></trkpt><trkpt lat="42.3660122" lon="14.2873718"><ele>35.0</ele><time>2026-05-01T09:21:35.833Z</time></trkpt><trkpt lat="42.3660915" lon="14.2873288"><ele>34.66666666666667</ele><time>2026-05-01T09:21:36.832Z</time></trkpt><trkpt lat="42.3661723" lon="14.2872839"><ele>34.333333333333336</ele><time>2026-05-01T09:21:37.833Z</time></trkpt><trkpt lat="42.3662422" lon="14.287247"><ele>34.0</ele><time>2026-05-01T09:21:38.832Z</time></trkpt><trkpt lat="42.3663091" lon="14.2872201"><ele>34.14285714285714</ele><time>2026-05-01T09:21:39.833Z</time></trkpt><trkpt lat="42.3663743" lon="14.2872143"><ele>34.285714285714285</ele><time>2026-05-01T09:21:40.833Z</time></trkpt><trkpt lat="42.3664393" lon="14.2872286"><ele>34.42857142857143</ele><time>2026-05-01T09:21:41.833Z</time></trkpt><trkpt lat="42.3664968" lon="14.2872759"><ele>34.57142857142857</ele><time>2026-05-01T09:21:42.833Z</time></trkpt><trkpt lat="42.3665453" lon="14.2873415"><ele>34.714285714285715</ele><time>2026-05-01T09:21:43.833Z</time></trkpt><trkpt lat="42.3665821" lon="14.2874336"><ele>34.857142857142854</ele><time>2026-05-01T09:21:44.833Z</time></trkpt><trkpt lat="42.3666038" lon="14.2875688"><ele>35.0</ele><time>2026-05-01T09:21:45.833Z</time></trkpt><trkpt lat="42.3666241" lon="14.2877121"><ele>35.0</ele><time>2026-05-01T09:21:46.833Z</time></trkpt><trkpt lat="42.3666532" lon="14.287847"><ele>35.0</ele><time>2026-05-01T09:21:47.833Z</time></trkpt><trkpt lat="42.366682" lon="14.2879835"><ele>35.0</ele><time>2026-05-01T09:21:48.833Z</time></trkpt><trkpt lat="42.3667049" lon="14.288123"><ele>35.0</ele><time>2026-05-01T09:21:49.833Z</time></trkpt><trkpt lat="42.3667348" lon="14.2882626"><ele>35.0</ele><time>2026-05-01T09:21:50.832Z</time></trkpt><trkpt lat="42.366769" lon="14.2884071"><ele>34.8</ele><time>2026-05-01T09:21:51.833Z</time></trkpt><trkpt lat="42.3668079" lon="14.2885514"><ele>34.6</ele><time>2026-05-01T09:21:52.833Z</time></trkpt><trkpt lat="42.3668449" lon="14.2886867"><ele>34.4</ele><time>2026-05-01T09:21:53.833Z</time></trkpt><trkpt lat="42.3668709" lon="14.2888307"><ele>34.2</ele><time>2026-05-01T09:21:54.832Z</time></trkpt><trkpt lat="42.3668919" lon="14.2889831"><ele>34.0</ele><time>2026-05-01T09:21:55.833Z</time></trkpt><trkpt lat="42.3669102" lon="14.2891548"><ele>33.75</ele><time>2026-05-01T09:21:56.833Z</time></trkpt><trkpt lat="42.3669259" lon="14.2893436"><ele>33.5</ele><time>2026-05-01T09:21:57.833Z</time></trkpt><trkpt lat="42.366937" lon="14.2895452"><ele>33.25</ele><time>2026-05-01T09:21:58.833Z</time></trkpt><trkpt lat="42.3669489" lon="14.2897422"><ele>33.0</ele><time>2026-05-01T09:21:59.833Z</time></trkpt><trkpt lat="42.3669608" lon="14.2899279"><ele>33.0</ele><time>2026-05-01T09:22:00.833Z</time></trkpt><trkpt lat="42.3669782" lon="14.2900952"><ele>33.0</ele><time>2026-05-01T09:22:01.833Z</time></trkpt><trkpt lat="42.3670031" lon="14.2902456"><ele>33.0</ele><time>2026-05-01T09:22:02.833Z</time></trkpt><trkpt lat="42.3670351" lon="14.2903823"><ele>33.0</ele><time>2026-05-01T09:22:03.833Z</time></trkpt><trkpt lat="42.3670751" lon="14.2905013"><ele>33.0</ele><time>2026-05-01T09:22:04.833Z</time></trkpt><trkpt lat="42.3671289" lon="14.2906201"><ele>32.8</ele><time>2026-05-01T09:22:05.833Z</time></trkpt><trkpt lat="42.3671886" lon="14.2907305"><ele>32.599999999999994</ele><time>2026-05-01T09:22:06.832Z</time></trkpt><trkpt lat="42.3672513" lon="14.2908251"><ele>32.400000000000006</ele><time>2026-05-01T09:22:07.833Z</time></trkpt><trkpt lat="42.3673178" lon="14.2909017"><ele>32.2</ele><time>2026-05-01T09:22:08.832Z</time></trkpt><trkpt lat="42.3673968" lon="14.2909836"><ele>32.0</ele><time>2026-05-01T09:22:09.833Z</time></trkpt><trkpt lat="42.367476" lon="14.2910786"><ele>32.5</ele><time>2026-05-01T09:22:10.833Z</time></trkpt><trkpt lat="42.3675566" lon="14.2912023"><ele>33.0</ele><time>2026-05-01T09:22:11.833Z</time></trkpt><trkpt lat="42.3676344" lon="14.2913387"><ele>33.5</ele><time>2026-05-01T09:22:12.833Z</time></trkpt><trkpt lat="42.3677112" lon="14.2914779"><ele>34.0</ele><time>2026-05-01T09:22:13.833Z</time></trkpt><trkpt lat="42.367785" lon="14.2916173"><ele>33.0</ele><time>2026-05-01T09:22:14.832Z</time></trkpt><trkpt lat="42.3678566" lon="14.2917456"><ele>32.0</ele><time>2026-05-01T09:22:15.833Z</time></trkpt><trkpt lat="42.3679202" lon="14.2918745"><ele>31.0</ele><time>2026-05-01T09:22:16.833Z</time></trkpt><trkpt lat="42.367975" lon="14.2920162"><ele>30.0</ele><time>2026-05-01T09:22:17.833Z</time></trkpt><trkpt lat="42.3680277" lon="14.2921771"><ele>30.0</ele><time>2026-05-01T09:22:18.833Z</time></trkpt><trkpt lat="42.3680756" lon="14.2923574"><ele>30.0</ele><time>2026-05-01T09:22:19.833Z</time></trkpt><trkpt lat="42.3681186" lon="14.2925409"><ele>30.0</ele><time>2026-05-01T09:22:20.833Z</time></trkpt><trkpt lat="42.3681594" lon="14.2927254"><ele>30.0</ele><time>2026-05-01T09:22:21.833Z</time></trkpt><trkpt lat="42.368193" lon="14.2928856"><ele>30.0</ele><time>2026-05-01T09:22:22.833Z</time></trkpt><trkpt lat="42.3682208" lon="14.293022"><ele>30.0</ele><time>2026-05-01T09:22:23.832Z</time></trkpt><trkpt lat="42.3682484" lon="14.293144"><ele>30.0</ele><time>2026-05-01T09:22:24.833Z</time></trkpt><trkpt lat="42.3682748" lon="14.2932417"><ele>30.0</ele><time>2026-05-01T09:22:25.833Z</time></trkpt><trkpt lat="42.3682977" lon="14.2933268"><ele>30.0</ele><time>2026-05-01T09:22:26.833Z</time></trkpt><trkpt lat="42.368314" lon="14.2934135"><ele>30.0</ele><time>2026-05-01T09:22:27.833Z</time></trkpt><trkpt lat="42.3683401" lon="14.2935436"><ele>30.0</ele><time>2026-05-01T09:22:29.833Z</time></trkpt><trkpt lat="42.3683658" lon="14.2936546"><ele>30.0</ele><time>2026-05-01T09:22:31.833Z</time></trkpt><trkpt lat="42.3684009" lon="14.2937664"><ele>30.0</ele><time>2026-05-01T09:22:33.833Z</time></trkpt><trkpt lat="42.3684484" lon="14.2939002"><ele>30.0</ele><time>2026-05-01T09:22:35.833Z</time></trkpt><trkpt lat="42.3684765" lon="14.2940629"><ele>30.0</ele><time>2026-05-01T09:22:37.832Z</time></trkpt><trkpt lat="42.3684913" lon="14.2941862"><ele>29.8</ele><time>2026-05-01T09:22:38.833Z</time></trkpt><trkpt lat="42.3685129" lon="14.2943304"><ele>29.6</ele><time>2026-05-01T09:22:39.832Z</time></trkpt><trkpt lat="42.3685347" lon="14.2944815"><ele>29.4</ele><time>2026-05-01T09:22:40.833Z</time></trkpt><trkpt lat="42.3685547" lon="14.2946298"><ele>29.2</ele><time>2026-05-01T09:22:41.833Z</time></trkpt><trkpt lat="42.3685599" lon="14.2947635"><ele>29.0</ele><time>2026-05-01T09:22:42.833Z</time></trkpt><trkpt lat="42.3685523" lon="14.2948878"><ele>28.999999999999996</ele><time>2026-05-01T09:22:43.833Z</time></trkpt><trkpt lat="42.3685323" lon="14.2949995"><ele>29.0</ele><time>2026-05-01T09:22:44.832Z</time></trkpt><trkpt lat="42.3685212" lon="14.2951002"><ele>29.0</ele><time>2026-05-01T09:22:45.833Z</time></trkpt><trkpt lat="42.3685191" lon="14.2951908"><ele>29.0</ele><time>2026-05-01T09:22:47.833Z</time></trkpt><trkpt lat="42.3685543" lon="14.2953185"><ele>28.999999999999996</ele><time>2026-05-01T09:22:50.833Z</time></trkpt><trkpt lat="42.3685935" lon="14.2954104"><ele>29.0</ele><time>2026-05-01T09:22:51.833Z</time></trkpt><trkpt lat="42.3686439" lon="14.2955323"><ele>29.0</ele><time>2026-05-01T09:22:52.832Z</time></trkpt><trkpt lat="42.3687068" lon="14.2956946"><ele>29.0</ele><time>2026-05-01T09:22:53.833Z</time></trkpt><trkpt lat="42.368781" lon="14.2958886"><ele>29.0</ele><time>2026-05-01T09:22:54.833Z</time></trkpt><trkpt lat="42.3688449" lon="14.2960579"><ele>29.0</ele><time>2026-05-01T09:22:55.833Z</time></trkpt><trkpt lat="42.3689217" lon="14.296217"><ele>28.75</ele><time>2026-05-01T09:22:56.833Z</time></trkpt><trkpt lat="42.3690072" lon="14.296378"><ele>28.5</ele><time>2026-05-01T09:22:57.833Z</time></trkpt><trkpt lat="42.3690776" lon="14.2965276"><ele>28.25</ele><time>2026-05-01T09:22:58.833Z</time></trkpt><trkpt lat="42.3691427" lon="14.296658"><ele>28.0</ele><time>2026-05-01T09:22:59.833Z</time></trkpt><trkpt lat="42.3692001" lon="14.2967918"><ele>28.4</ele><time>2026-05-01T09:23:00.833Z</time></trkpt><trkpt lat="42.3692558" lon="14.296918"><ele>28.799999999999997</ele><time>2026-05-01T09:23:01.833Z</time></trkpt><trkpt lat="42.3693123" lon="14.2970451"><ele>29.2</ele><time>2026-05-01T09:23:02.833Z</time></trkpt><trkpt lat="42.3693676" lon="14.2971711"><ele>29.6</ele><time>2026-05-01T09:23:03.833Z</time></trkpt><trkpt lat="42.3694264" lon="14.2972921"><ele>30.0</ele><time>2026-05-01T09:23:04.833Z</time></trkpt><trkpt lat="42.3694864" lon="14.2974232"><ele>30.0</ele><time>2026-05-01T09:23:05.832Z</time></trkpt><trkpt lat="42.3695487" lon="14.2975597"><ele>30.0</ele><time>2026-05-01T09:23:06.833Z</time></trkpt><trkpt lat="42.3696128" lon="14.2976964"><ele>30.0</ele><time>2026-05-01T09:23:07.833Z</time></trkpt><trkpt lat="42.3696721" lon="14.2978226"><ele>30.0</ele><time>2026-05-01T09:23:08.832Z</time></trkpt><trkpt lat="42.3697256" lon="14.2979497"><ele>29.8</ele><time>2026-05-01T09:23:09.833Z</time></trkpt><trkpt lat="42.3697926" lon="14.2980741"><ele>29.6</ele><time>2026-05-01T09:23:10.833Z</time></trkpt><trkpt lat="42.3698624" lon="14.2981927"><ele>29.4</ele><time>2026-05-01T09:23:11.833Z</time></trkpt><trkpt lat="42.3699346" lon="14.2983084"><ele>29.2</ele><time>2026-05-01T09:23:12.833Z</time></trkpt><trkpt lat="42.370007" lon="14.2984144"><ele>29.0</ele><time>2026-05-01T09:23:13.833Z</time></trkpt><trkpt lat="42.3700856" lon="14.2985087"><ele>29.0</ele><time>2026-05-01T09:23:14.832Z</time></trkpt><trkpt lat="42.3701824" lon="14.2986047"><ele>29.0</ele><time>2026-05-01T09:23:15.833Z</time></trkpt><trkpt lat="42.3702848" lon="14.2987064"><ele>29.0</ele><time>2026-05-01T09:23:16.833Z</time></trkpt><trkpt lat="42.3704008" lon="14.2988108"><ele>29.0</ele><time>2026-05-01T09:23:17.833Z</time></trkpt><trkpt lat="42.3705231" lon="14.2989273"><ele>28.5</ele><time>2026-05-01T09:23:18.833Z</time></trkpt><trkpt lat="42.3706489" lon="14.2990475"><ele>28.0</ele><time>2026-05-01T09:23:19.833Z</time></trkpt><trkpt lat="42.3707606" lon="14.2991552"><ele>27.5</ele><time>2026-05-01T09:23:20.833Z</time></trkpt><trkpt lat="42.3708603" lon="14.2992512"><ele>27.0</ele><time>2026-05-01T09:23:21.832Z</time></trkpt><trkpt lat="42.3709523" lon="14.2993308"><ele>27.0</ele><time>2026-05-01T09:23:22.833Z</time></trkpt><trkpt lat="42.3710354" lon="14.2993971"><ele>27.000000000000004</ele><time>2026-05-01T09:23:23.833Z</time></trkpt><trkpt lat="42.3711203" lon="14.2994361"><ele>27.000000000000004</ele><time>2026-05-01T09:23:24.833Z</time></trkpt><trkpt lat="42.3712083" lon="14.2994588"><ele>27.0</ele><time>2026-05-01T09:23:25.833Z</time></trkpt><trkpt lat="42.371313" lon="14.2994675"><ele>27.0</ele><time>2026-05-01T09:23:26.833Z</time></trkpt><trkpt lat="42.3714194" lon="14.2994587"><ele>26.75</ele><time>2026-05-01T09:23:27.832Z</time></trkpt><trkpt lat="42.3715286" lon="14.2994423"><ele>26.5</ele><time>2026-05-01T09:23:28.833Z</time></trkpt><trkpt lat="42.3716508" lon="14.2994328"><ele>26.25</ele><time>2026-05-01T09:23:29.833Z</time></trkpt><trkpt lat="42.3717662" lon="14.2994438"><ele>26.0</ele><time>2026-05-01T09:23:30.833Z</time></trkpt><trkpt lat="42.3718697" lon="14.2994699"><ele>26.0</ele><time>2026-05-01T09:23:31.833Z</time></trkpt><trkpt lat="42.3719619" lon="14.2995092"><ele>26.0</ele><time>2026-05-01T09:23:32.833Z</time></trkpt><trkpt lat="42.372031" lon="14.2995518"><ele>26.0</ele><time>2026-05-01T09:23:33.832Z</time></trkpt><trkpt lat="42.3721247" lon="14.299657"><ele>26.0</ele><time>2026-05-01T09:23:35.833Z</time></trkpt><trkpt lat="42.3721733" lon="14.2997241"><ele>26.0</ele><time>2026-05-01T09:23:36.833Z</time></trkpt><trkpt lat="42.3722257" lon="14.2998296"><ele>25.75</ele><time>2026-05-01T09:23:37.833Z</time></trkpt><trkpt lat="42.3722818" lon="14.2999514"><ele>25.5</ele><time>2026-05-01T09:23:38.833Z</time></trkpt><trkpt lat="42.3723433" lon="14.3000871"><ele>25.25</ele><time>2026-05-01T09:23:39.833Z</time></trkpt><trkpt lat="42.3724024" lon="14.30023"><ele>25.0</ele><time>2026-05-01T09:23:40.833Z</time></trkpt><trkpt lat="42.3724682" lon="14.3003784"><ele>25.0</ele><time>2026-05-01T09:23:41.833Z</time></trkpt><trkpt lat="42.3725419" lon="14.3005395"><ele>25.0</ele><time>2026-05-01T09:23:42.833Z</time></trkpt><trkpt lat="42.3726051" lon="14.3006801"><ele>25.0</ele><time>2026-05-01T09:23:43.833Z</time></trkpt><trkpt lat="42.3726715" lon="14.3007939"><ele>25.0</ele><time>2026-05-01T09:23:44.833Z</time></trkpt><trkpt lat="42.3727489" lon="14.3008902"><ele>24.6</ele><time>2026-05-01T09:23:45.833Z</time></trkpt><trkpt lat="42.3728378" lon="14.3009683"><ele>24.2</ele><time>2026-05-01T09:23:46.833Z</time></trkpt><trkpt lat="42.3729285" lon="14.3010167"><ele>23.799999999999997</ele><time>2026-05-01T09:23:47.832Z</time></trkpt><trkpt lat="42.3730185" lon="14.3010378"><ele>23.4</ele><time>2026-05-01T09:23:48.833Z</time></trkpt><trkpt lat="42.3730982" lon="14.3010521"><ele>23.0</ele><time>2026-05-01T09:23:49.833Z</time></trkpt><trkpt lat="42.3731773" lon="14.3010565"><ele>23.0</ele><time>2026-05-01T09:23:50.833Z</time></trkpt><trkpt lat="42.3732684" lon="14.3010357"><ele>23.0</ele><time>2026-05-01T09:23:51.833Z</time></trkpt><trkpt lat="42.3733812" lon="14.3009917"><ele>23.0</ele><time>2026-05-01T09:23:52.833Z</time></trkpt><trkpt lat="42.3735068" lon="14.3009308"><ele>23.0</ele><time>2026-05-01T09:23:53.832Z</time></trkpt><trkpt lat="42.3736463" lon="14.3008607"><ele>23.0</ele><time>2026-05-01T09:23:54.833Z</time></trkpt><trkpt lat="42.3737702" lon="14.3007965"><ele>23.0</ele><time>2026-05-01T09:23:55.832Z</time></trkpt><trkpt lat="42.3738858" lon="14.3007448"><ele>23.0</ele><time>2026-05-01T09:23:56.833Z</time></trkpt><trkpt lat="42.3740039" lon="14.3006883"><ele>23.0</ele><time>2026-05-01T09:23:57.833Z</time></trkpt><trkpt lat="42.3741291" lon="14.3006182"><ele>22.599999999999998</ele><time>2026-05-01T09:23:58.833Z</time></trkpt><trkpt lat="42.37425" lon="14.3005535"><ele>22.2</ele><time>2026-05-01T09:23:59.833Z</time></trkpt><trkpt lat="42.3743591" lon="14.3005031"><ele>21.8</ele><time>2026-05-01T09:24:00.833Z</time></trkpt><trkpt lat="42.37446" lon="14.3004753"><ele>21.4</ele><time>2026-05-01T09:24:01.833Z</time></trkpt><trkpt lat="42.3745476" lon="14.300492"><ele>21.0</ele><time>2026-05-01T09:24:02.833Z</time></trkpt><trkpt lat="42.3746373" lon="14.3005245"><ele>21.4</ele><time>2026-05-01T09:24:03.833Z</time></trkpt><trkpt lat="42.3747205" lon="14.3005777"><ele>21.8</ele><time>2026-05-01T09:24:04.833Z</time></trkpt><trkpt lat="42.3747934" lon="14.300652"><ele>22.2</ele><time>2026-05-01T09:24:05.833Z</time></trkpt><trkpt lat="42.3748506" lon="14.3007475"><ele>22.599999999999998</ele><time>2026-05-01T09:24:06.832Z</time></trkpt><trkpt lat="42.3748979" lon="14.3008513"><ele>23.0</ele><time>2026-05-01T09:24:07.833Z</time></trkpt><trkpt lat="42.3749284" lon="14.3009747"><ele>23.0</ele><time>2026-05-01T09:24:08.833Z</time></trkpt><trkpt lat="42.3749309" lon="14.3011171"><ele>23.0</ele><time>2026-05-01T09:24:09.833Z</time></trkpt><trkpt lat="42.3749288" lon="14.3013153"><ele>23.0</ele><time>2026-05-01T09:24:10.833Z</time></trkpt><trkpt lat="42.3749309" lon="14.30152"><ele>23.0</ele><time>2026-05-01T09:24:11.833Z</time></trkpt><trkpt lat="42.3749261" lon="14.3016897"><ele>23.2</ele><time>2026-05-01T09:24:12.833Z</time></trkpt><trkpt lat="42.3749181" lon="14.3018272"><ele>23.4</ele><time>2026-05-01T09:24:13.833Z</time></trkpt><trkpt lat="42.3749172" lon="14.301953"><ele>23.599999999999998</ele><time>2026-05-01T09:24:14.833Z</time></trkpt><trkpt lat="42.3749261" lon="14.3020867"><ele>23.799999999999997</ele><time>2026-05-01T09:24:15.832Z</time></trkpt><trkpt lat="42.3749383" lon="14.3022114"><ele>24.0</ele><time>2026-05-01T09:24:16.833Z</time></trkpt><trkpt lat="42.3749661" lon="14.3023232"><ele>24.0</ele><time>2026-05-01T09:24:17.833Z</time></trkpt><trkpt lat="42.3750023" lon="14.3024184"><ele>24.0</ele><time>2026-05-01T09:24:18.833Z</time></trkpt><trkpt lat="42.3750543" lon="14.302516"><ele>24.0</ele><time>2026-05-01T09:24:19.833Z</time></trkpt><trkpt lat="42.3751126" lon="14.3026126"><ele>24.0</ele><time>2026-05-01T09:24:20.833Z</time></trkpt><trkpt lat="42.3751852" lon="14.3027116"><ele>24.0</ele><time>2026-05-01T09:24:21.833Z</time></trkpt><trkpt lat="42.375268" lon="14.302798"><ele>24.0</ele><time>2026-05-01T09:24:22.833Z</time></trkpt><trkpt lat="42.3753631" lon="14.3028761"><ele>24.0</ele><time>2026-05-01T09:24:23.833Z</time></trkpt><trkpt lat="42.3754781" lon="14.3029584"><ele>24.0</ele><time>2026-05-01T09:24:24.833Z</time></trkpt><trkpt lat="42.3755881" lon="14.3030266"><ele>24.0</ele><time>2026-05-01T09:24:25.833Z</time></trkpt><trkpt lat="42.3757026" lon="14.3031005"><ele>23.6</ele><time>2026-05-01T09:24:26.833Z</time></trkpt><trkpt lat="42.3758117" lon="14.3031651"><ele>23.2</ele><time>2026-05-01T09:24:27.832Z</time></trkpt><trkpt lat="42.3759073" lon="14.3032312"><ele>22.8</ele><time>2026-05-01T09:24:28.833Z</time></trkpt><trkpt lat="42.3759868" lon="14.303305"><ele>22.400000000000002</ele><time>2026-05-01T09:24:29.833Z</time></trkpt><trkpt lat="42.3760439" lon="14.3033658"><ele>22.0</ele><time>2026-05-01T09:24:30.833Z</time></trkpt><trkpt lat="42.3761508" lon="14.3034148"><ele>22.0</ele><time>2026-05-01T09:24:32.833Z</time></trkpt><trkpt lat="42.3762401" lon="14.3033313"><ele>22.0</ele><time>2026-05-01T09:24:34.833Z</time></trkpt><trkpt lat="42.3762665" lon="14.3032454"><ele>22.0</ele><time>2026-05-01T09:24:35.833Z</time></trkpt><trkpt lat="42.3762874" lon="14.3031281"><ele>22.0</ele><time>2026-05-01T09:24:36.833Z</time></trkpt><trkpt lat="42.3762935" lon="14.3029928"><ele>22.0</ele><time>2026-05-01T09:24:37.833Z</time></trkpt><trkpt lat="42.3762987" lon="14.3028817"><ele>22.0</ele><time>2026-05-01T09:24:38.833Z</time></trkpt><trkpt lat="42.3763002" lon="14.3027373"><ele>21.833333333333332</ele><time>2026-05-01T09:24:40.833Z</time></trkpt><trkpt lat="42.3762561" lon="14.3026758"><ele>21.666666666666664</ele><time>2026-05-01T09:24:41.832Z</time></trkpt><trkpt lat="42.3761925" lon="14.3026388"><ele>21.5</ele><time>2026-05-01T09:24:42.833Z</time></trkpt><trkpt lat="42.376094" lon="14.302644"><ele>21.333333333333332</ele><time>2026-05-01T09:24:43.832Z</time></trkpt><trkpt lat="42.3759921" lon="14.3026638"><ele>21.166666666666668</ele><time>2026-05-01T09:24:44.833Z</time></trkpt><trkpt lat="42.3759138" lon="14.3026724"><ele>21.0</ele><time>2026-05-01T09:24:45.833Z</time></trkpt><trkpt lat="42.3758364" lon="14.3026449"><ele>21.0</ele><time>2026-05-01T09:24:47.833Z</time></trkpt><trkpt lat="42.3758197" lon="14.3025539"><ele>21.0</ele><time>2026-05-01T09:24:49.833Z</time></trkpt><trkpt lat="42.3758333" lon="14.3024598"><ele>21.0</ele><time>2026-05-01T09:24:50.833Z</time></trkpt><trkpt lat="42.3758489" lon="14.3023426"><ele>21.0</ele><time>2026-05-01T09:24:51.833Z</time></trkpt><trkpt lat="42.3758748" lon="14.3022006"><ele>21.0</ele><time>2026-05-01T09:24:52.833Z</time></trkpt><trkpt lat="42.3759048" lon="14.302039"><ele>22.0</ele><time>2026-05-01T09:24:53.832Z</time></trkpt><trkpt lat="42.3759352" lon="14.3018763"><ele>23.0</ele><time>2026-05-01T09:24:54.833Z</time></trkpt><trkpt lat="42.3759756" lon="14.3017119"><ele>24.0</ele><time>2026-05-01T09:24:55.832Z</time></trkpt><trkpt lat="42.3760403" lon="14.3015303"><ele>25.0</ele><time>2026-05-01T09:24:56.833Z</time></trkpt><trkpt lat="42.3761142" lon="14.3013439"><ele>26.0</ele><time>2026-05-01T09:24:57.833Z</time></trkpt><trkpt lat="42.3761844" lon="14.3011713"><ele>27.0</ele><time>2026-05-01T09:24:58.833Z</time></trkpt><trkpt lat="42.3762506" lon="14.3010098"><ele>28.0</ele><time>2026-05-01T09:24:59.833Z</time></trkpt><trkpt lat="42.3763027" lon="14.3008605"><ele>29.0</ele><time>2026-05-01T09:25:00.833Z</time></trkpt><trkpt lat="42.3763566" lon="14.3007169"><ele>29.4</ele><time>2026-05-01T09:25:01.832Z</time></trkpt><trkpt lat="42.376406" lon="14.3005891"><ele>29.799999999999997</ele><time>2026-05-01T09:25:02.833Z</time></trkpt><trkpt lat="42.3764535" lon="14.3004735"><ele>30.200000000000003</ele><time>2026-05-01T09:25:03.832Z</time></trkpt><trkpt lat="42.376507" lon="14.300361"><ele>30.6</ele><time>2026-05-01T09:25:05.832Z</time></trkpt><trkpt lat="42.3766169" lon="14.3004281"><ele>31.0</ele><time>2026-05-01T09:25:08.833Z</time></trkpt><trkpt lat="42.3766749" lon="14.300519"><ele>31.0</ele><time>2026-05-01T09:25:09.832Z</time></trkpt><trkpt lat="42.3767467" lon="14.3006079"><ele>31.0</ele><time>2026-05-01T09:25:10.833Z</time></trkpt><trkpt lat="42.376844" lon="14.3007172"><ele>31.0</ele><time>2026-05-01T09:25:11.833Z</time></trkpt><trkpt lat="42.376951" lon="14.3008159"><ele>31.0</ele><time>2026-05-01T09:25:12.833Z</time></trkpt><trkpt lat="42.3770604" lon="14.3009088"><ele>31.0</ele><time>2026-05-01T09:25:13.833Z</time></trkpt><trkpt lat="42.3771654" lon="14.3009937"><ele>31.0</ele><time>2026-05-01T09:25:14.833Z</time></trkpt><trkpt lat="42.3772784" lon="14.3010602"><ele>31.0</ele><time>2026-05-01T09:25:15.832Z</time></trkpt><trkpt lat="42.3774101" lon="14.3011125"><ele>31.0</ele><time>2026-05-01T09:25:16.831Z</time></trkpt><trkpt lat="42.3775519" lon="14.3011569"><ele>30.666666666666668</ele><time>2026-05-01T09:25:17.832Z</time></trkpt><trkpt lat="42.3776988" lon="14.3011956"><ele>30.333333333333336</ele><time>2026-05-01T09:25:18.832Z</time></trkpt><trkpt lat="42.3778495" lon="14.3012403"><ele>30.0</ele><time>2026-05-01T09:25:19.832Z</time></trkpt><trkpt lat="42.3780092" lon="14.3012918"><ele>30.0</ele><time>2026-05-01T09:25:20.832Z</time></trkpt><trkpt lat="42.378168" lon="14.3013363"><ele>30.0</ele><time>2026-05-01T09:25:21.832Z</time></trkpt><trkpt lat="42.3783212" lon="14.301382"><ele>30.0</ele><time>2026-05-01T09:25:22.832Z</time></trkpt><trkpt lat="42.3784745" lon="14.3014345"><ele>29.0</ele><time>2026-05-01T09:25:23.832Z</time></trkpt><trkpt lat="42.3786359" lon="14.3014793"><ele>28.0</ele><time>2026-05-01T09:25:24.832Z</time></trkpt><trkpt lat="42.378798" lon="14.301522"><ele>27.0</ele><time>2026-05-01T09:25:25.832Z</time></trkpt><trkpt lat="42.3789621" lon="14.3015702"><ele>26.666666666666664</ele><time>2026-05-01T09:25:26.832Z</time></trkpt><trkpt lat="42.3791292" lon="14.3016215"><ele>26.333333333333332</ele><time>2026-05-01T09:25:27.832Z</time></trkpt><trkpt lat="42.3792983" lon="14.3016753"><ele>26.0</ele><time>2026-05-01T09:25:28.832Z</time></trkpt><trkpt lat="42.3794637" lon="14.3017291"><ele>26.0</ele><time>2026-05-01T09:25:29.832Z</time></trkpt><trkpt lat="42.3796317" lon="14.3017813"><ele>26.0</ele><time>2026-05-01T09:25:30.832Z</time></trkpt><trkpt lat="42.3798057" lon="14.3018331"><ele>26.0</ele><time>2026-05-01T09:25:31.832Z</time></trkpt><trkpt lat="42.37998" lon="14.3018863"><ele>26.0</ele><time>2026-05-01T09:25:32.832Z</time></trkpt><trkpt lat="42.3801514" lon="14.3019347"><ele>26.0</ele><time>2026-05-01T09:25:33.832Z</time></trkpt><trkpt lat="42.380326" lon="14.3019869"><ele>26.0</ele><time>2026-05-01T09:25:34.832Z</time></trkpt><trkpt lat="42.3804993" lon="14.302032"><ele>25.666666666666664</ele><time>2026-05-01T09:25:35.832Z</time></trkpt><trkpt lat="42.3806696" lon="14.3020934"><ele>25.333333333333336</ele><time>2026-05-01T09:25:36.831Z</time></trkpt><trkpt lat="42.3808367" lon="14.3021452"><ele>25.0</ele><time>2026-05-01T09:25:37.832Z</time></trkpt><trkpt lat="42.3810036" lon="14.3021964"><ele>24.666666666666668</ele><time>2026-05-01T09:25:38.832Z</time></trkpt><trkpt lat="42.3811712" lon="14.3022503"><ele>24.333333333333336</ele><time>2026-05-01T09:25:39.832Z</time></trkpt><trkpt lat="42.3813452" lon="14.3023109"><ele>24.0</ele><time>2026-05-01T09:25:40.832Z</time></trkpt><trkpt lat="42.3815195" lon="14.3023759"><ele>23.333333333333332</ele><time>2026-05-01T09:25:41.832Z</time></trkpt><trkpt lat="42.3816912" lon="14.302462"><ele>22.666666666666664</ele><time>2026-05-01T09:25:42.832Z</time></trkpt><trkpt lat="42.3818571" lon="14.3025562"><ele>22.0</ele><time>2026-05-01T09:25:43.831Z</time></trkpt><trkpt lat="42.3820255" lon="14.3026614"><ele>22.333333333333332</ele><time>2026-05-01T09:25:44.832Z</time></trkpt><trkpt lat="42.3821908" lon="14.3027763"><ele>22.666666666666668</ele><time>2026-05-01T09:25:45.832Z</time></trkpt><trkpt lat="42.3823352" lon="14.3028786"><ele>23.0</ele><time>2026-05-01T09:25:46.832Z</time></trkpt><trkpt lat="42.3824349" lon="14.3029504"><ele>23.0</ele><time>2026-05-01T09:25:47.832Z</time></trkpt><trkpt lat="42.3824906" lon="14.3030086"><ele>23.0</ele><time>2026-05-01T09:25:48.832Z</time></trkpt><trkpt lat="42.3825247" lon="14.3031453"><ele>23.0</ele><time>2026-05-01T09:25:50.832Z</time></trkpt><trkpt lat="42.382517" lon="14.3033043"><ele>23.0</ele><time>2026-05-01T09:25:52.832Z</time></trkpt><trkpt lat="42.3825124" lon="14.3034038"><ele>23.0</ele><time>2026-05-01T09:25:53.832Z</time></trkpt><trkpt lat="42.3824912" lon="14.3035102"><ele>22.799999999999997</ele><time>2026-05-01T09:25:54.832Z</time></trkpt><trkpt lat="42.3824685" lon="14.3036186"><ele>22.6</ele><time>2026-05-01T09:25:55.832Z</time></trkpt><trkpt lat="42.382444" lon="14.3037406"><ele>22.4</ele><time>2026-05-01T09:25:56.832Z</time></trkpt><trkpt lat="42.3824212" lon="14.3038838"><ele>22.200000000000003</ele><time>2026-05-01T09:25:57.832Z</time></trkpt><trkpt lat="42.3823991" lon="14.3040351"><ele>22.0</ele><time>2026-05-01T09:25:58.832Z</time></trkpt><trkpt lat="42.3823789" lon="14.3041887"><ele>21.75</ele><time>2026-05-01T09:25:59.832Z</time></trkpt><trkpt lat="42.3823625" lon="14.3043489"><ele>21.5</ele><time>2026-05-01T09:26:00.832Z</time></trkpt><trkpt lat="42.3823436" lon="14.3045207"><ele>21.25</ele><time>2026-05-01T09:26:01.832Z</time></trkpt><trkpt lat="42.3823255" lon="14.304701"><ele>21.0</ele><time>2026-05-01T09:26:02.832Z</time></trkpt><trkpt lat="42.3823067" lon="14.3048813"><ele>20.5</ele><time>2026-05-01T09:26:03.832Z</time></trkpt><trkpt lat="42.3822846" lon="14.3050652"><ele>20.0</ele><time>2026-05-01T09:26:04.832Z</time></trkpt><trkpt lat="42.3822616" lon="14.3052409"><ele>19.5</ele><time>2026-05-01T09:26:05.832Z</time></trkpt><trkpt lat="42.3822381" lon="14.3054157"><ele>19.0</ele><time>2026-05-01T09:26:06.832Z</time></trkpt><trkpt lat="42.3822113" lon="14.3055894"><ele>19.0</ele><time>2026-05-01T09:26:07.832Z</time></trkpt><trkpt lat="42.3821817" lon="14.3057562"><ele>19.0</ele><time>2026-05-01T09:26:08.832Z</time></trkpt><trkpt lat="42.3821505" lon="14.3059159"><ele>19.0</ele><time>2026-05-01T09:26:09.832Z</time></trkpt><trkpt lat="42.3821269" lon="14.306055"><ele>19.0</ele><time>2026-05-01T09:26:10.832Z</time></trkpt><trkpt lat="42.3821059" lon="14.30617"><ele>19.0</ele><time>2026-05-01T09:26:11.832Z</time></trkpt><trkpt lat="42.3820795" lon="14.306252"><ele>18.8</ele><time>2026-05-01T09:26:12.832Z</time></trkpt><trkpt lat="42.3820559" lon="14.3063581"><ele>18.599999999999998</ele><time>2026-05-01T09:26:14.832Z</time></trkpt><trkpt lat="42.3821057" lon="14.3064897"><ele>18.4</ele><time>2026-05-01T09:26:16.831Z</time></trkpt><trkpt lat="42.3821622" lon="14.3065979"><ele>18.2</ele><time>2026-05-01T09:26:17.832Z</time></trkpt><trkpt lat="42.3822327" lon="14.3067285"><ele>18.0</ele><time>2026-05-01T09:26:18.832Z</time></trkpt><trkpt lat="42.3823224" lon="14.3068831"><ele>17.666666666666668</ele><time>2026-05-01T09:26:19.832Z</time></trkpt><trkpt lat="42.3824116" lon="14.3070643"><ele>17.333333333333336</ele><time>2026-05-01T09:26:20.831Z</time></trkpt><trkpt lat="42.3824994" lon="14.3072532"><ele>17.0</ele><time>2026-05-01T09:26:21.832Z</time></trkpt><trkpt lat="42.3825832" lon="14.3074293"><ele>16.75</ele><time>2026-05-01T09:26:22.832Z</time></trkpt><trkpt lat="42.3826574" lon="14.3075996"><ele>16.5</ele><time>2026-05-01T09:26:23.832Z</time></trkpt><trkpt lat="42.3827287" lon="14.3077636"><ele>16.25</ele><time>2026-05-01T09:26:24.831Z</time></trkpt><trkpt lat="42.3828012" lon="14.3079337"><ele>16.0</ele><time>2026-05-01T09:26:25.832Z</time></trkpt><trkpt lat="42.3828824" lon="14.3081118"><ele>16.0</ele><time>2026-05-01T09:26:26.832Z</time></trkpt><trkpt lat="42.3829644" lon="14.3082916"><ele>16.0</ele><time>2026-05-01T09:26:27.831Z</time></trkpt><trkpt lat="42.3830466" lon="14.3084697"><ele>16.0</ele><time>2026-05-01T09:26:28.832Z</time></trkpt><trkpt lat="42.3831278" lon="14.3086483"><ele>16.0</ele><time>2026-05-01T09:26:29.832Z</time></trkpt><trkpt lat="42.3832087" lon="14.3088291"><ele>16.0</ele><time>2026-05-01T09:26:30.832Z</time></trkpt><trkpt lat="42.3832924" lon="14.3090169"><ele>16.0</ele><time>2026-05-01T09:26:31.832Z</time></trkpt><trkpt lat="42.3833822" lon="14.3092115"><ele>15.333333333333332</ele><time>2026-05-01T09:26:32.831Z</time></trkpt><trkpt lat="42.3834746" lon="14.3094138"><ele>14.666666666666668</ele><time>2026-05-01T09:26:33.831Z</time></trkpt><trkpt lat="42.3835676" lon="14.3096138"><ele>14.0</ele><time>2026-05-01T09:26:34.832Z</time></trkpt><trkpt lat="42.3836571" lon="14.3098098"><ele>14.0</ele><time>2026-05-01T09:26:35.832Z</time></trkpt><trkpt lat="42.3837458" lon="14.3100097"><ele>14.0</ele><time>2026-05-01T09:26:36.831Z</time></trkpt><trkpt lat="42.3838338" lon="14.3101989"><ele>14.0</ele><time>2026-05-01T09:26:37.831Z</time></trkpt><trkpt lat="42.3839251" lon="14.3103854"><ele>14.333333333333334</ele><time>2026-05-01T09:26:38.832Z</time></trkpt><trkpt lat="42.3840283" lon="14.3105488"><ele>14.666666666666668</ele><time>2026-05-01T09:26:39.832Z</time></trkpt><trkpt lat="42.3841571" lon="14.3106874"><ele>15.0</ele><time>2026-05-01T09:26:40.832Z</time></trkpt><trkpt lat="42.3843066" lon="14.3108094"><ele>15.0</ele><time>2026-05-01T09:26:41.831Z</time></trkpt><trkpt lat="42.3844736" lon="14.3109035"><ele>15.0</ele><time>2026-05-01T09:26:42.832Z</time></trkpt><trkpt lat="42.3846477" lon="14.3109962"><ele>15.0</ele><time>2026-05-01T09:26:43.832Z</time></trkpt><trkpt lat="42.3848255" lon="14.3110939"><ele>14.666666666666668</ele><time>2026-05-01T09:26:44.832Z</time></trkpt><trkpt lat="42.3850073" lon="14.3111867"><ele>14.333333333333334</ele><time>2026-05-01T09:26:45.831Z</time></trkpt><trkpt lat="42.3851903" lon="14.3112805"><ele>14.0</ele><time>2026-05-01T09:26:46.832Z</time></trkpt><trkpt lat="42.3853589" lon="14.3113725"><ele>14.0</ele><time>2026-05-01T09:26:47.832Z</time></trkpt><trkpt lat="42.3854994" lon="14.3114562"><ele>14.0</ele><time>2026-05-01T09:26:48.832Z</time></trkpt><trkpt lat="42.3856192" lon="14.3115233"><ele>14.0</ele><time>2026-05-01T09:26:49.831Z</time></trkpt><trkpt lat="42.3857423" lon="14.3115771"><ele>14.0</ele><time>2026-05-01T09:26:50.832Z</time></trkpt><trkpt lat="42.3858688" lon="14.3116425"><ele>14.0</ele><time>2026-05-01T09:26:51.832Z</time></trkpt><trkpt lat="42.3859983" lon="14.3117127"><ele>14.0</ele><time>2026-05-01T09:26:52.832Z</time></trkpt><trkpt lat="42.3861169" lon="14.3117801"><ele>14.0</ele><time>2026-05-01T09:26:53.832Z</time></trkpt><trkpt lat="42.3862251" lon="14.3118345"><ele>14.0</ele><time>2026-05-01T09:26:54.831Z</time></trkpt><trkpt lat="42.3863117" lon="14.3118827"><ele>14.0</ele><time>2026-05-01T09:26:55.832Z</time></trkpt><trkpt lat="42.3864048" lon="14.3119635"><ele>13.999999999999998</ele><time>2026-05-01T09:26:57.832Z</time></trkpt><trkpt lat="42.3864185" lon="14.3120634"><ele>13.999999999999998</ele><time>2026-05-01T09:26:59.832Z</time></trkpt><trkpt lat="42.3863762" lon="14.312235"><ele>14.0</ele><time>2026-05-01T09:27:01.832Z</time></trkpt><trkpt lat="42.3863555" lon="14.3123614"><ele>14.0</ele><time>2026-05-01T09:27:02.832Z</time></trkpt><trkpt lat="42.3863186" lon="14.3125104"><ele>13.75</ele><time>2026-05-01T09:27:03.832Z</time></trkpt><trkpt lat="42.3862786" lon="14.3126704"><ele>13.5</ele><time>2026-05-01T09:27:04.832Z</time></trkpt><trkpt lat="42.3862355" lon="14.3128435"><ele>13.25</ele><time>2026-05-01T09:27:05.832Z</time></trkpt><trkpt lat="42.3861965" lon="14.3130217"><ele>13.0</ele><time>2026-05-01T09:27:06.832Z</time></trkpt><trkpt lat="42.3861512" lon="14.3132129"><ele>13.0</ele><time>2026-05-01T09:27:07.832Z</time></trkpt><trkpt lat="42.3861035" lon="14.3134057"><ele>13.0</ele><time>2026-05-01T09:27:08.832Z</time></trkpt><trkpt lat="42.386053" lon="14.3135987"><ele>13.0</ele><time>2026-05-01T09:27:09.832Z</time></trkpt><trkpt lat="42.3860073" lon="14.3137997"><ele>13.0</ele><time>2026-05-01T09:27:10.832Z</time></trkpt><trkpt lat="42.38596" lon="14.3140055"><ele>13.0</ele><time>2026-05-01T09:27:11.832Z</time></trkpt><trkpt lat="42.3859085" lon="14.3142137"><ele>13.0</ele><time>2026-05-01T09:27:12.832Z</time></trkpt><trkpt lat="42.3858633" lon="14.3144189"><ele>13.0</ele><time>2026-05-01T09:27:13.831Z</time></trkpt><trkpt lat="42.3858193" lon="14.3146148"><ele>13.0</ele><time>2026-05-01T09:27:14.832Z</time></trkpt><trkpt lat="42.3857807" lon="14.3148038"><ele>13.0</ele><time>2026-05-01T09:27:15.832Z</time></trkpt><trkpt lat="42.3857387" lon="14.3149858"><ele>13.0</ele><time>2026-05-01T09:27:16.832Z</time></trkpt><trkpt lat="42.3856978" lon="14.3151659"><ele>12.25</ele><time>2026-05-01T09:27:17.832Z</time></trkpt><trkpt lat="42.3856566" lon="14.3153369"><ele>11.5</ele><time>2026-05-01T09:27:18.832Z</time></trkpt><trkpt lat="42.3856242" lon="14.3154956"><ele>10.75</ele><time>2026-05-01T09:27:19.832Z</time></trkpt><trkpt lat="42.385591" lon="14.3156341"><ele>10.0</ele><time>2026-05-01T09:27:20.832Z</time></trkpt><trkpt lat="42.3855706" lon="14.3157523"><ele>9.666666666666668</ele><time>2026-05-01T09:27:21.832Z</time></trkpt><trkpt lat="42.3855506" lon="14.3158493"><ele>9.333333333333334</ele><time>2026-05-01T09:27:22.832Z</time></trkpt><trkpt lat="42.3855392" lon="14.3159461"><ele>9.0</ele><time>2026-05-01T09:27:24.832Z</time></trkpt><trkpt lat="42.3856027" lon="14.3159869"><ele>8.666666666666666</ele><time>2026-05-01T09:27:28.832Z</time></trkpt><trkpt lat="42.3856709" lon="14.3160084"><ele>8.333333333333332</ele><time>2026-05-01T09:27:30.832Z</time></trkpt><trkpt lat="42.3857688" lon="14.3160439"><ele>8.0</ele><time>2026-05-01T09:27:32.832Z</time></trkpt><trkpt lat="42.3858093" lon="14.3161382"><ele>8.0</ele><time>2026-05-01T09:27:35.832Z</time></trkpt><trkpt lat="42.385845" lon="14.3162441"><ele>8.0</ele><time>2026-05-01T09:27:38.832Z</time></trkpt><trkpt lat="42.3859139" lon="14.3162929"><ele>8.0</ele><time>2026-05-01T09:27:40.831Z</time></trkpt><trkpt lat="42.3859238" lon="14.3164216"><ele>8.0</ele><time>2026-05-01T09:27:43.832Z</time></trkpt><trkpt lat="42.3858758" lon="14.3165677"><ele>8.0</ele><time>2026-05-01T09:27:45.832Z</time></trkpt><trkpt lat="42.3858404" lon="14.3166972"><ele>7.833333333333333</ele><time>2026-05-01T09:27:47.832Z</time></trkpt><trkpt lat="42.3857981" lon="14.3168381"><ele>7.666666666666666</ele><time>2026-05-01T09:27:49.832Z</time></trkpt><trkpt lat="42.3857716" lon="14.3169161"><ele>7.5</ele><time>2026-05-01T09:27:50.832Z</time></trkpt><trkpt lat="42.3857405" lon="14.3170009"><ele>7.333333333333334</ele><time>2026-05-01T09:27:51.832Z</time></trkpt><trkpt lat="42.38571" lon="14.3170892"><ele>7.166666666666667</ele><time>2026-05-01T09:27:52.832Z</time></trkpt><trkpt lat="42.3856855" lon="14.3171683"><ele>7.0</ele><time>2026-05-01T09:27:53.831Z</time></trkpt><trkpt lat="42.3856381" lon="14.317315"><ele>7.25</ele><time>2026-05-01T09:27:55.832Z</time></trkpt><trkpt lat="42.3855805" lon="14.317459"><ele>7.5</ele><time>2026-05-01T09:27:57.832Z</time></trkpt><trkpt lat="42.385542" lon="14.3175853"><ele>7.75</ele><time>2026-05-01T09:27:59.832Z</time></trkpt><trkpt lat="42.3854906" lon="14.3177461"><ele>8.0</ele><time>2026-05-01T09:28:01.832Z</time></trkpt><trkpt lat="42.3854329" lon="14.3178939"><ele>8.0</ele><time>2026-05-01T09:28:03.832Z</time></trkpt><trkpt lat="42.3853938" lon="14.3180367"><ele>8.0</ele><time>2026-05-01T09:28:05.831Z</time></trkpt><trkpt lat="42.3853514" lon="14.3181828"><ele>8.0</ele><time>2026-05-01T09:28:07.832Z</time></trkpt><trkpt lat="42.3853293" lon="14.318302"><ele>8.0</ele><time>2026-05-01T09:28:09.832Z</time></trkpt><trkpt lat="42.3853856" lon="14.3183725"><ele>8.0</ele><time>2026-05-01T09:28:13.832Z</time></trkpt><trkpt lat="42.3854611" lon="14.318379"><ele>8.5</ele><time>2026-05-01T09:28:15.831Z</time></trkpt><trkpt lat="42.3855807" lon="14.3183445"><ele>9.0</ele><time>2026-05-01T09:28:17.832Z</time></trkpt><trkpt lat="42.3856479" lon="14.3183083"><ele>9.5</ele><time>2026-05-01T09:28:18.832Z</time></trkpt><trkpt lat="42.3857142" lon="14.3182664"><ele>10.0</ele><time>2026-05-01T09:28:19.832Z</time></trkpt><trkpt lat="42.3857841" lon="14.318219"><ele>10.5</ele><time>2026-05-01T09:28:20.831Z</time></trkpt><trkpt lat="42.3858606" lon="14.3181836"><ele>11.0</ele><time>2026-05-01T09:28:21.832Z</time></trkpt><trkpt lat="42.3859524" lon="14.3181516"><ele>11.0</ele><time>2026-05-01T09:28:22.832Z</time></trkpt><trkpt lat="42.3860449" lon="14.3181263"><ele>11.0</ele><time>2026-05-01T09:28:23.832Z</time></trkpt><trkpt lat="42.3861414" lon="14.3181156"><ele>11.0</ele><time>2026-05-01T09:28:24.832Z</time></trkpt><trkpt lat="42.3862369" lon="14.3180978"><ele>11.0</ele><time>2026-05-01T09:28:25.831Z</time></trkpt><trkpt lat="42.3863248" lon="14.3180814"><ele>11.0</ele><time>2026-05-01T09:28:26.832Z</time></trkpt><trkpt lat="42.3864142" lon="14.3180607"><ele>10.833333333333332</ele><time>2026-05-01T09:28:27.832Z</time></trkpt><trkpt lat="42.3865015" lon="14.3180303"><ele>10.666666666666666</ele><time>2026-05-01T09:28:28.832Z</time></trkpt><trkpt lat="42.3865921" lon="14.3179901"><ele>10.5</ele><time>2026-05-01T09:28:29.832Z</time></trkpt><trkpt lat="42.3866766" lon="14.3179535"><ele>10.333333333333334</ele><time>2026-05-01T09:28:30.832Z</time></trkpt><trkpt lat="42.3867523" lon="14.3179494"><ele>10.166666666666668</ele><time>2026-05-01T09:28:31.832Z</time></trkpt><trkpt lat="42.3868427" lon="14.3180006"><ele>10.0</ele><time>2026-05-01T09:28:33.832Z</time></trkpt><trkpt lat="42.3868726" lon="14.3180971"><ele>10.0</ele><time>2026-05-01T09:28:35.831Z</time></trkpt><trkpt lat="42.3868487" lon="14.3182947"><ele>10.0</ele><time>2026-05-01T09:28:37.832Z</time></trkpt><trkpt lat="42.3868085" lon="14.318438"><ele>10.0</ele><time>2026-05-01T09:28:38.832Z</time></trkpt><trkpt lat="42.3867631" lon="14.3185992"><ele>10.0</ele><time>2026-05-01T09:28:39.832Z</time></trkpt><trkpt lat="42.3867294" lon="14.3187419"><ele>10.0</ele><time>2026-05-01T09:28:40.832Z</time></trkpt><trkpt lat="42.3867032" lon="14.3188479"><ele>10.0</ele><time>2026-05-01T09:28:41.832Z</time></trkpt><trkpt lat="42.3866848" lon="14.3189605"><ele>10.0</ele><time>2026-05-01T09:28:42.832Z</time></trkpt><trkpt lat="42.3866703" lon="14.3190632"><ele>10.0</ele><time>2026-05-01T09:28:43.832Z</time></trkpt><trkpt lat="42.3866258" lon="14.3191698"><ele>10.0</ele><time>2026-05-01T09:28:45.832Z</time></trkpt><trkpt lat="42.3865614" lon="14.3191639"><ele>10.0</ele><time>2026-05-01T09:28:47.832Z</time></trkpt><trkpt lat="42.3864469" lon="14.3191063"><ele>9.8</ele><time>2026-05-01T09:28:49.832Z</time></trkpt><trkpt lat="42.3863625" lon="14.3190653"><ele>9.6</ele><time>2026-05-01T09:28:50.832Z</time></trkpt><trkpt lat="42.3862694" lon="14.3190395"><ele>9.4</ele><time>2026-05-01T09:28:51.832Z</time></trkpt><trkpt lat="42.3861751" lon="14.319025"><ele>9.2</ele><time>2026-05-01T09:28:52.832Z</time></trkpt><trkpt lat="42.3860747" lon="14.3190309"><ele>9.0</ele><time>2026-05-01T09:28:53.832Z</time></trkpt><trkpt lat="42.3859619" lon="14.3190472"><ele>9.0</ele><time>2026-05-01T09:28:54.831Z</time></trkpt><trkpt lat="42.3858442" lon="14.319078"><ele>9.0</ele><time>2026-05-01T09:28:55.832Z</time></trkpt><trkpt lat="42.3857206" lon="14.3191163"><ele>9.0</ele><time>2026-05-01T09:28:56.832Z</time></trkpt><trkpt lat="42.385603" lon="14.3191496"><ele>9.0</ele><time>2026-05-01T09:28:57.831Z</time></trkpt><trkpt lat="42.3854913" lon="14.3191712"><ele>9.2</ele><time>2026-05-01T09:28:58.832Z</time></trkpt><trkpt lat="42.3853813" lon="14.3191836"><ele>9.4</ele><time>2026-05-01T09:28:59.831Z</time></trkpt><trkpt lat="42.3852773" lon="14.319186"><ele>9.6</ele><time>2026-05-01T09:29:00.832Z</time></trkpt><trkpt lat="42.3851686" lon="14.3191672"><ele>9.8</ele><time>2026-05-01T09:29:01.832Z</time></trkpt><trkpt lat="42.3850625" lon="14.3191459"><ele>10.0</ele><time>2026-05-01T09:29:02.832Z</time></trkpt><trkpt lat="42.3849584" lon="14.3191122"><ele>10.0</ele><time>2026-05-01T09:29:03.832Z</time></trkpt><trkpt lat="42.3848566" lon="14.3190699"><ele>10.0</ele><time>2026-05-01T09:29:04.832Z</time></trkpt><trkpt lat="42.384746" lon="14.3190096"><ele>10.0</ele><time>2026-05-01T09:29:05.832Z</time></trkpt><trkpt lat="42.3846361" lon="14.3189503"><ele>10.0</ele><time>2026-05-01T09:29:06.832Z</time></trkpt><trkpt lat="42.3845321" lon="14.3188863"><ele>10.0</ele><time>2026-05-01T09:29:07.832Z</time></trkpt><trkpt lat="42.3844471" lon="14.3188138"><ele>10.0</ele><time>2026-05-01T09:29:08.832Z</time></trkpt><trkpt lat="42.3843745" lon="14.3187213"><ele>10.0</ele><time>2026-05-01T09:29:09.832Z</time></trkpt><trkpt lat="42.384313" lon="14.3186062"><ele>10.0</ele><time>2026-05-01T09:29:10.832Z</time></trkpt><trkpt lat="42.3842477" lon="14.318473"><ele>10.0</ele><time>2026-05-01T09:29:11.832Z</time></trkpt><trkpt lat="42.3841837" lon="14.3183203"><ele>10.0</ele><time>2026-05-01T09:29:12.831Z</time></trkpt><trkpt lat="42.3841196" lon="14.3181554"><ele>10.0</ele><time>2026-05-01T09:29:13.832Z</time></trkpt><trkpt lat="42.3840548" lon="14.3179911"><ele>10.0</ele><time>2026-05-01T09:29:14.832Z</time></trkpt><trkpt lat="42.3840048" lon="14.317849"><ele>10.0</ele><time>2026-05-01T09:29:15.831Z</time></trkpt><trkpt lat="42.3839716" lon="14.3177201"><ele>10.0</ele><time>2026-05-01T09:29:16.832Z</time></trkpt><trkpt lat="42.3839523" lon="14.3175742"><ele>10.0</ele><time>2026-05-01T09:29:17.831Z</time></trkpt><trkpt lat="42.3839435" lon="14.3174065"><ele>10.0</ele><time>2026-05-01T09:29:18.832Z</time></trkpt><trkpt lat="42.383941" lon="14.3172177"><ele>10.0</ele><time>2026-05-01T09:29:19.832Z</time></trkpt><trkpt lat="42.3839392" lon="14.3170315"><ele>10.0</ele><time>2026-05-01T09:29:20.832Z</time></trkpt><trkpt lat="42.3839379" lon="14.3168603"><ele>10.0</ele><time>2026-05-01T09:29:21.832Z</time></trkpt><trkpt lat="42.3839382" lon="14.3166986"><ele>10.0</ele><time>2026-05-01T09:29:22.832Z</time></trkpt><trkpt lat="42.3839363" lon="14.3165588"><ele>10.0</ele><time>2026-05-01T09:29:23.832Z</time></trkpt><trkpt lat="42.3839226" lon="14.3164519"><ele>10.0</ele><time>2026-05-01T09:29:24.831Z</time></trkpt><trkpt lat="42.3839022" lon="14.3163619"><ele>10.0</ele><time>2026-05-01T09:29:25.832Z</time></trkpt><trkpt lat="42.3838711" lon="14.3162589"><ele>10.0</ele><time>2026-05-01T09:29:27.832Z</time></trkpt><trkpt lat="42.3838375" lon="14.3161677"><ele>10.0</ele><time>2026-05-01T09:29:29.831Z</time></trkpt><trkpt lat="42.3838076" lon="14.3160707"><ele>10.0</ele><time>2026-05-01T09:29:30.831Z</time></trkpt><trkpt lat="42.3837743" lon="14.31598"><ele>10.0</ele><time>2026-05-01T09:29:31.832Z</time></trkpt><trkpt lat="42.3837372" lon="14.3158957"><ele>10.0</ele><time>2026-05-01T09:29:32.832Z</time></trkpt><trkpt lat="42.3836947" lon="14.3158298"><ele>10.0</ele><time>2026-05-01T09:29:33.832Z</time></trkpt><trkpt lat="42.383637" lon="14.3157465"><ele>10.0</ele><time>2026-05-01T09:29:35.832Z</time></trkpt><trkpt lat="42.3835608" lon="14.3156258"><ele>10.0</ele><time>2026-05-01T09:29:37.831Z</time></trkpt><trkpt lat="42.3835034" lon="14.3155478"><ele>10.0</ele><time>2026-05-01T09:29:38.832Z</time></trkpt><trkpt lat="42.3834331" lon="14.3154404"><ele>10.0</ele><time>2026-05-01T09:29:39.832Z</time></trkpt><trkpt lat="42.3833406" lon="14.3153264"><ele>10.0</ele><time>2026-05-01T09:29:40.832Z</time></trkpt><trkpt lat="42.3832383" lon="14.3151927"><ele>10.0</ele><time>2026-05-01T09:29:41.832Z</time></trkpt><trkpt lat="42.3831332" lon="14.3150519"><ele>10.0</ele><time>2026-05-01T09:29:42.832Z</time></trkpt><trkpt lat="42.3830342" lon="14.3149137"><ele>10.0</ele><time>2026-05-01T09:29:43.832Z</time></trkpt><trkpt lat="42.3829526" lon="14.3147842"><ele>10.0</ele><time>2026-05-01T09:29:44.832Z</time></trkpt><trkpt lat="42.3828817" lon="14.3146427"><ele>10.0</ele><time>2026-05-01T09:29:45.832Z</time></trkpt><trkpt lat="42.3828223" lon="14.3144909"><ele>10.0</ele><time>2026-05-01T09:29:46.832Z</time></trkpt><trkpt lat="42.3827745" lon="14.314324"><ele>10.0</ele><time>2026-05-01T09:29:47.832Z</time></trkpt><trkpt lat="42.3827409" lon="14.3141638"><ele>10.0</ele><time>2026-05-01T09:29:48.831Z</time></trkpt><trkpt lat="42.3827156" lon="14.3140063"><ele>10.25</ele><time>2026-05-01T09:29:49.832Z</time></trkpt><trkpt lat="42.3827046" lon="14.313835"><ele>10.5</ele><time>2026-05-01T09:29:50.832Z</time></trkpt><trkpt lat="42.3827018" lon="14.3136389"><ele>10.75</ele><time>2026-05-01T09:29:51.832Z</time></trkpt><trkpt lat="42.3827022" lon="14.3134271"><ele>11.0</ele><time>2026-05-01T09:29:52.832Z</time></trkpt><trkpt lat="42.3827026" lon="14.3132003"><ele>11.0</ele><time>2026-05-01T09:29:53.832Z</time></trkpt><trkpt lat="42.3827015" lon="14.3129829"><ele>11.0</ele><time>2026-05-01T09:29:54.832Z</time></trkpt><trkpt lat="42.3826951" lon="14.3127772"><ele>11.0</ele><time>2026-05-01T09:29:55.832Z</time></trkpt><trkpt lat="42.3826913" lon="14.3125742"><ele>11.0</ele><time>2026-05-01T09:29:56.832Z</time></trkpt><trkpt lat="42.3826924" lon="14.3123744"><ele>11.0</ele><time>2026-05-01T09:29:57.832Z</time></trkpt><trkpt lat="42.3826944" lon="14.3121936"><ele>11.0</ele><time>2026-05-01T09:29:58.832Z</time></trkpt><trkpt lat="42.3826966" lon="14.3120292"><ele>11.0</ele><time>2026-05-01T09:29:59.832Z</time></trkpt><trkpt lat="42.382693" lon="14.3118952"><ele>11.166666666666666</ele><time>2026-05-01T09:30:00.832Z</time></trkpt><trkpt lat="42.382669" lon="14.3117785"><ele>11.333333333333332</ele><time>2026-05-01T09:30:01.831Z</time></trkpt><trkpt lat="42.3826232" lon="14.3116677"><ele>11.5</ele><time>2026-05-01T09:30:02.832Z</time></trkpt><trkpt lat="42.3825674" lon="14.3115864"><ele>11.666666666666666</ele><time>2026-05-01T09:30:03.832Z</time></trkpt><trkpt lat="42.3825002" lon="14.3115233"><ele>11.833333333333334</ele><time>2026-05-01T09:30:04.832Z</time></trkpt><trkpt lat="42.3824252" lon="14.3115031"><ele>12.0</ele><time>2026-05-01T09:30:05.832Z</time></trkpt><trkpt lat="42.3823315" lon="14.3115094"><ele>12.0</ele><time>2026-05-01T09:30:06.832Z</time></trkpt><trkpt lat="42.3822539" lon="14.3115189"><ele>12.0</ele><time>2026-05-01T09:30:07.831Z</time></trkpt><trkpt lat="42.3821896" lon="14.3115332"><ele>12.0</ele><time>2026-05-01T09:30:09.832Z</time></trkpt><trkpt lat="42.3821413" lon="14.3115905"><ele>12.0</ele><time>2026-05-01T09:30:11.832Z</time></trkpt><trkpt lat="42.3820871" lon="14.3116665"><ele>12.0</ele><time>2026-05-01T09:30:12.832Z</time></trkpt><trkpt lat="42.3820307" lon="14.3117652"><ele>12.0</ele><time>2026-05-01T09:30:13.832Z</time></trkpt><trkpt lat="42.3819672" lon="14.3118863"><ele>12.0</ele><time>2026-05-01T09:30:14.832Z</time></trkpt><trkpt lat="42.3818914" lon="14.312015"><ele>12.0</ele><time>2026-05-01T09:30:15.832Z</time></trkpt><trkpt lat="42.3818013" lon="14.3121387"><ele>12.0</ele><time>2026-05-01T09:30:16.832Z</time></trkpt><trkpt lat="42.3817149" lon="14.3122367"><ele>12.0</ele><time>2026-05-01T09:30:17.832Z</time></trkpt><trkpt lat="42.3816458" lon="14.312319"><ele>12.0</ele><time>2026-05-01T09:30:18.832Z</time></trkpt><trkpt lat="42.3815862" lon="14.312392"><ele>12.0</ele><time>2026-05-01T09:30:19.832Z</time></trkpt><trkpt lat="42.3815269" lon="14.3124413"><ele>12.0</ele><time>2026-05-01T09:30:20.832Z</time></trkpt><trkpt lat="42.3814618" lon="14.3124471"><ele>12.0</ele><time>2026-05-01T09:30:21.832Z</time></trkpt><trkpt lat="42.3813852" lon="14.3124131"><ele>12.0</ele><time>2026-05-01T09:30:22.832Z</time></trkpt><trkpt lat="42.381295" lon="14.3123711"><ele>12.0</ele><time>2026-05-01T09:30:23.832Z</time></trkpt><trkpt lat="42.3811869" lon="14.3123155"><ele>12.5</ele><time>2026-05-01T09:30:24.831Z</time></trkpt><trkpt lat="42.381067" lon="14.3122634"><ele>13.0</ele><time>2026-05-01T09:30:25.832Z</time></trkpt><trkpt lat="42.3809364" lon="14.3122163"><ele>13.5</ele><time>2026-05-01T09:30:26.832Z</time></trkpt><trkpt lat="42.3808145" lon="14.3121831"><ele>14.0</ele><time>2026-05-01T09:30:27.832Z</time></trkpt><trkpt lat="42.3807109" lon="14.3121705"><ele>14.000000000000002</ele><time>2026-05-01T09:30:28.832Z</time></trkpt><trkpt lat="42.3806332" lon="14.3121558"><ele>14.0</ele><time>2026-05-01T09:30:29.832Z</time></trkpt><trkpt lat="42.3805617" lon="14.3121401"><ele>14.0</ele><time>2026-05-01T09:30:30.832Z</time></trkpt><trkpt lat="42.3804838" lon="14.3121096"><ele>14.0</ele><time>2026-05-01T09:30:31.832Z</time></trkpt><trkpt lat="42.3804057" lon="14.3120642"><ele>14.000000000000002</ele><time>2026-05-01T09:30:32.832Z</time></trkpt><trkpt lat="42.3803299" lon="14.3120031"><ele>14.0</ele><time>2026-05-01T09:30:33.832Z</time></trkpt><trkpt lat="42.3802569" lon="14.3119323"><ele>14.000000000000002</ele><time>2026-05-01T09:30:34.832Z</time></trkpt><trkpt lat="42.3801885" lon="14.3118619"><ele>14.0</ele><time>2026-05-01T09:30:35.832Z</time></trkpt><trkpt lat="42.3801242" lon="14.3118048"><ele>14.0</ele><time>2026-05-01T09:30:36.832Z</time></trkpt><trkpt lat="42.3800482" lon="14.311763"><ele>14.0</ele><time>2026-05-01T09:30:37.832Z</time></trkpt><trkpt lat="42.3799681" lon="14.3117297"><ele>14.000000000000002</ele><time>2026-05-01T09:30:38.832Z</time></trkpt><trkpt lat="42.3798817" lon="14.3117006"><ele>14.0</ele><time>2026-05-01T09:30:39.831Z</time></trkpt><trkpt lat="42.3797959" lon="14.3116746"><ele>14.0</ele><time>2026-05-01T09:30:40.832Z</time></trkpt><trkpt lat="42.3797175" lon="14.3116583"><ele>13.999999999999998</ele><time>2026-05-01T09:30:41.832Z</time></trkpt><trkpt lat="42.3796326" lon="14.3116393"><ele>13.999999999999998</ele><time>2026-05-01T09:30:42.832Z</time></trkpt><trkpt lat="42.3795483" lon="14.3116079"><ele>14.0</ele><time>2026-05-01T09:30:43.832Z</time></trkpt><trkpt lat="42.3794483" lon="14.3115616"><ele>14.0</ele><time>2026-05-01T09:30:44.832Z</time></trkpt><trkpt lat="42.3793438" lon="14.3115261"><ele>14.0</ele><time>2026-05-01T09:30:45.832Z</time></trkpt><trkpt lat="42.3792356" lon="14.3115013"><ele>13.999999999999998</ele><time>2026-05-01T09:30:46.832Z</time></trkpt><trkpt lat="42.3791283" lon="14.3114875"><ele>13.999999999999998</ele><time>2026-05-01T09:30:47.832Z</time></trkpt><trkpt lat="42.3790186" lon="14.3114914"><ele>14.0</ele><time>2026-05-01T09:30:48.832Z</time></trkpt><trkpt lat="42.3789105" lon="14.311507"><ele>14.0</ele><time>2026-05-01T09:30:49.832Z</time></trkpt><trkpt lat="42.3788024" lon="14.3115173"><ele>14.2</ele><time>2026-05-01T09:30:50.832Z</time></trkpt><trkpt lat="42.3787091" lon="14.3115157"><ele>14.399999999999999</ele><time>2026-05-01T09:30:51.832Z</time></trkpt><trkpt lat="42.3786204" lon="14.3114969"><ele>14.6</ele><time>2026-05-01T09:30:52.832Z</time></trkpt><trkpt lat="42.3785312" lon="14.3114645"><ele>14.8</ele><time>2026-05-01T09:30:53.832Z</time></trkpt><trkpt lat="42.3784324" lon="14.3114145"><ele>15.0</ele><time>2026-05-01T09:30:54.832Z</time></trkpt><trkpt lat="42.3783584" lon="14.3113656"><ele>15.0</ele><time>2026-05-01T09:30:55.832Z</time></trkpt><trkpt lat="42.3782714" lon="14.3113079"><ele>15.0</ele><time>2026-05-01T09:30:57.832Z</time></trkpt><trkpt lat="42.3781998" lon="14.3113012"><ele>15.0</ele><time>2026-05-01T09:32:18.833Z</time></trkpt><trkpt lat="42.3780866" lon="14.3112568"><ele>15.0</ele><time>2026-05-01T09:32:20.833Z</time></trkpt><trkpt lat="42.3780164" lon="14.3112294"><ele>15.0</ele><time>2026-05-01T09:32:21.833Z</time></trkpt><trkpt lat="42.377946" lon="14.3111933"><ele>15.0</ele><time>2026-05-01T09:32:22.833Z</time></trkpt><trkpt lat="42.3778715" lon="14.3111443"><ele>15.166666666666666</ele><time>2026-05-01T09:32:23.833Z</time></trkpt><trkpt lat="42.3777961" lon="14.311087"><ele>15.333333333333332</ele><time>2026-05-01T09:32:24.833Z</time></trkpt><trkpt lat="42.377716" lon="14.3110247"><ele>15.5</ele><time>2026-05-01T09:32:25.833Z</time></trkpt><trkpt lat="42.3776306" lon="14.3109593"><ele>15.666666666666666</ele><time>2026-05-01T09:32:26.833Z</time></trkpt><trkpt lat="42.3775485" lon="14.3109055"><ele>15.833333333333332</ele><time>2026-05-01T09:32:27.833Z</time></trkpt><trkpt lat="42.3774775" lon="14.310869"><ele>16.0</ele><time>2026-05-01T09:32:28.833Z</time></trkpt><trkpt lat="42.3773507" lon="14.3108236"><ele>16.0</ele><time>2026-05-01T09:32:30.833Z</time></trkpt><trkpt lat="42.3772865" lon="14.3108044"><ele>15.999999999999998</ele><time>2026-05-01T09:32:31.833Z</time></trkpt><trkpt lat="42.3772139" lon="14.310793"><ele>16.0</ele><time>2026-05-01T09:32:32.833Z</time></trkpt><trkpt lat="42.37714" lon="14.3107809"><ele>16.0</ele><time>2026-05-01T09:32:33.833Z</time></trkpt><trkpt lat="42.3770667" lon="14.3107623"><ele>15.999999999999998</ele><time>2026-05-01T09:32:34.833Z</time></trkpt><trkpt lat="42.3769909" lon="14.3107429"><ele>16.0</ele><time>2026-05-01T09:32:35.832Z</time></trkpt><trkpt lat="42.3769194" lon="14.3107136"><ele>16.0</ele><time>2026-05-01T09:32:36.833Z</time></trkpt><trkpt lat="42.3768436" lon="14.3107001"><ele>16.333333333333332</ele><time>2026-05-01T09:32:37.833Z</time></trkpt><trkpt lat="42.3767745" lon="14.3107049"><ele>16.666666666666664</ele><time>2026-05-01T09:32:38.833Z</time></trkpt><trkpt lat="42.3767016" lon="14.3107192"><ele>17.0</ele><time>2026-05-01T09:32:39.833Z</time></trkpt><trkpt lat="42.3766144" lon="14.3107144"><ele>17.333333333333332</ele><time>2026-05-01T09:32:40.833Z</time></trkpt><trkpt lat="42.3765233" lon="14.3107053"><ele>17.666666666666668</ele><time>2026-05-01T09:32:41.833Z</time></trkpt><trkpt lat="42.3764262" lon="14.3106895"><ele>18.0</ele><time>2026-05-01T09:32:42.833Z</time></trkpt><trkpt lat="42.3763283" lon="14.3106767"><ele>18.8</ele><time>2026-05-01T09:32:43.833Z</time></trkpt><trkpt lat="42.3762315" lon="14.3106576"><ele>19.6</ele><time>2026-05-01T09:32:44.833Z</time></trkpt><trkpt lat="42.3761401" lon="14.3106304"><ele>20.400000000000002</ele><time>2026-05-01T09:32:45.832Z</time></trkpt><trkpt lat="42.3760505" lon="14.3106011"><ele>21.200000000000003</ele><time>2026-05-01T09:32:46.833Z</time></trkpt><trkpt lat="42.3759674" lon="14.3105828"><ele>22.0</ele><time>2026-05-01T09:32:47.832Z</time></trkpt><trkpt lat="42.3758799" lon="14.3105778"><ele>21.833333333333332</ele><time>2026-05-01T09:32:48.833Z</time></trkpt><trkpt lat="42.3757851" lon="14.3105697"><ele>21.666666666666664</ele><time>2026-05-01T09:32:49.833Z</time></trkpt><trkpt lat="42.3756887" lon="14.310539"><ele>21.5</ele><time>2026-05-01T09:32:50.832Z</time></trkpt><trkpt lat="42.3755913" lon="14.3105079"><ele>21.333333333333332</ele><time>2026-05-01T09:32:51.833Z</time></trkpt><trkpt lat="42.3755135" lon="14.3104711"><ele>21.166666666666668</ele><time>2026-05-01T09:32:52.833Z</time></trkpt><trkpt lat="42.3754473" lon="14.3104425"><ele>21.0</ele><time>2026-05-01T09:32:53.833Z</time></trkpt><trkpt lat="42.3753394" lon="14.310376"><ele>21.0</ele><time>2026-05-01T09:32:55.833Z</time></trkpt><trkpt lat="42.3752788" lon="14.3103308"><ele>21.0</ele><time>2026-05-01T09:32:56.832Z</time></trkpt><trkpt lat="42.375209" lon="14.3102706"><ele>21.0</ele><time>2026-05-01T09:32:57.833Z</time></trkpt><trkpt lat="42.3751436" lon="14.3102141"><ele>21.0</ele><time>2026-05-01T09:32:58.833Z</time></trkpt><trkpt lat="42.3750704" lon="14.3101511"><ele>21.0</ele><time>2026-05-01T09:32:59.833Z</time></trkpt><trkpt lat="42.3749778" lon="14.310081"><ele>21.0</ele><time>2026-05-01T09:33:00.832Z</time></trkpt><trkpt lat="42.3748991" lon="14.3100163"><ele>21.0</ele><time>2026-05-01T09:33:01.833Z</time></trkpt><trkpt lat="42.374801" lon="14.3099568"><ele>21.0</ele><time>2026-05-01T09:33:03.832Z</time></trkpt><trkpt lat="42.3747119" lon="14.3099831"><ele>21.0</ele><time>2026-05-01T09:33:05.833Z</time></trkpt><trkpt lat="42.3745884" lon="14.310059"><ele>21.0</ele><time>2026-05-01T09:33:07.833Z</time></trkpt><trkpt lat="42.3745288" lon="14.3100936"><ele>21.0</ele><time>2026-05-01T09:33:08.833Z</time></trkpt><trkpt lat="42.374461" lon="14.3101182"><ele>21.200000000000003</ele><time>2026-05-01T09:33:10.833Z</time></trkpt><trkpt lat="42.3743303" lon="14.3101269"><ele>21.400000000000002</ele><time>2026-05-01T09:33:38.833Z</time></trkpt><trkpt lat="42.3742697" lon="14.3101022"><ele>21.6</ele><time>2026-05-01T09:33:39.833Z</time></trkpt><trkpt lat="42.3741947" lon="14.3100519"><ele>21.8</ele><time>2026-05-01T09:33:40.833Z</time></trkpt><trkpt lat="42.3741119" lon="14.3099839"><ele>22.0</ele><time>2026-05-01T09:33:41.833Z</time></trkpt><trkpt lat="42.3740258" lon="14.3099174"><ele>22.0</ele><time>2026-05-01T09:33:42.833Z</time></trkpt><trkpt lat="42.3739478" lon="14.3098471"><ele>22.0</ele><time>2026-05-01T09:33:43.832Z</time></trkpt><trkpt lat="42.3738784" lon="14.3097651"><ele>22.0</ele><time>2026-05-01T09:33:44.833Z</time></trkpt><trkpt lat="42.3738105" lon="14.3096781"><ele>22.0</ele><time>2026-05-01T09:33:45.833Z</time></trkpt><trkpt lat="42.3737288" lon="14.3096007"><ele>22.0</ele><time>2026-05-01T09:33:46.833Z</time></trkpt><trkpt lat="42.3736374" lon="14.3095278"><ele>24.25</ele><time>2026-05-01T09:33:47.833Z</time></trkpt><trkpt lat="42.3735355" lon="14.3094538"><ele>26.5</ele><time>2026-05-01T09:33:48.833Z</time></trkpt><trkpt lat="42.3734329" lon="14.3093841"><ele>28.75</ele><time>2026-05-01T09:33:49.833Z</time></trkpt><trkpt lat="42.3733296" lon="14.3093129"><ele>31.0</ele><time>2026-05-01T09:33:50.832Z</time></trkpt><trkpt lat="42.3732327" lon="14.3092385"><ele>31.0</ele><time>2026-05-01T09:33:51.833Z</time></trkpt><trkpt lat="42.3731398" lon="14.309169"><ele>31.0</ele><time>2026-05-01T09:33:52.833Z</time></trkpt><trkpt lat="42.3730448" lon="14.3091036"><ele>31.0</ele><time>2026-05-01T09:33:53.833Z</time></trkpt><trkpt lat="42.3729461" lon="14.3090619"><ele>31.0</ele><time>2026-05-01T09:33:54.833Z</time></trkpt><trkpt lat="42.3728453" lon="14.3090285"><ele>31.0</ele><time>2026-05-01T09:33:55.833Z</time></trkpt><trkpt lat="42.3727276" lon="14.3090073"><ele>31.75</ele><time>2026-05-01T09:33:56.832Z</time></trkpt><trkpt lat="42.3726069" lon="14.3089808"><ele>32.5</ele><time>2026-05-01T09:33:57.833Z</time></trkpt><trkpt lat="42.3724889" lon="14.3089259"><ele>33.25</ele><time>2026-05-01T09:33:58.833Z</time></trkpt><trkpt lat="42.3723517" lon="14.3088405"><ele>34.0</ele><time>2026-05-01T09:33:59.833Z</time></trkpt><trkpt lat="42.3722028" lon="14.3087227"><ele>33.333333333333336</ele><time>2026-05-01T09:34:00.833Z</time></trkpt><trkpt lat="42.3720545" lon="14.3086109"><ele>32.666666666666664</ele><time>2026-05-01T09:34:01.833Z</time></trkpt><trkpt lat="42.3719105" lon="14.3085088"><ele>32.0</ele><time>2026-05-01T09:34:02.833Z</time></trkpt><trkpt lat="42.3717724" lon="14.3083997"><ele>32.0</ele><time>2026-05-01T09:34:03.833Z</time></trkpt><trkpt lat="42.3716353" lon="14.3082921"><ele>32.0</ele><time>2026-05-01T09:34:04.833Z</time></trkpt><trkpt lat="42.3714997" lon="14.3081829"><ele>32.0</ele><time>2026-05-01T09:34:05.833Z</time></trkpt><trkpt lat="42.3713651" lon="14.3080772"><ele>31.5</ele><time>2026-05-01T09:34:06.833Z</time></trkpt><trkpt lat="42.3712428" lon="14.3079789"><ele>31.0</ele><time>2026-05-01T09:34:07.833Z</time></trkpt><trkpt lat="42.3711304" lon="14.3078911"><ele>30.5</ele><time>2026-05-01T09:34:08.832Z</time></trkpt><trkpt lat="42.3710268" lon="14.3078011"><ele>30.0</ele><time>2026-05-01T09:34:09.833Z</time></trkpt><trkpt lat="42.3709237" lon="14.3077143"><ele>30.0</ele><time>2026-05-01T09:34:10.833Z</time></trkpt><trkpt lat="42.3708133" lon="14.3076324"><ele>30.0</ele><time>2026-05-01T09:34:11.832Z</time></trkpt><trkpt lat="42.3706958" lon="14.3075459"><ele>30.0</ele><time>2026-05-01T09:34:12.833Z</time></trkpt><trkpt lat="42.3705672" lon="14.3074544"><ele>30.0</ele><time>2026-05-01T09:34:13.833Z</time></trkpt><trkpt lat="42.3704308" lon="14.3073631"><ele>29.333333333333336</ele><time>2026-05-01T09:34:14.833Z</time></trkpt><trkpt lat="42.3702866" lon="14.3072704"><ele>28.666666666666668</ele><time>2026-05-01T09:34:15.833Z</time></trkpt><trkpt lat="42.3701434" lon="14.3071822"><ele>28.0</ele><time>2026-05-01T09:34:16.833Z</time></trkpt><trkpt lat="42.3700009" lon="14.3070943"><ele>28.0</ele><time>2026-05-01T09:34:17.833Z</time></trkpt><trkpt lat="42.3698629" lon="14.3070163"><ele>28.0</ele><time>2026-05-01T09:34:18.833Z</time></trkpt><trkpt lat="42.3697486" lon="14.306947"><ele>28.0</ele><time>2026-05-01T09:34:19.833Z</time></trkpt><trkpt lat="42.3696504" lon="14.3068863"><ele>28.0</ele><time>2026-05-01T09:34:20.832Z</time></trkpt><trkpt lat="42.3695627" lon="14.3068316"><ele>27.833333333333336</ele><time>2026-05-01T09:34:21.833Z</time></trkpt><trkpt lat="42.3694884" lon="14.3067692"><ele>27.666666666666668</ele><time>2026-05-01T09:34:22.833Z</time></trkpt><trkpt lat="42.3694311" lon="14.3066829"><ele>27.5</ele><time>2026-05-01T09:34:23.833Z</time></trkpt><trkpt lat="42.3693967" lon="14.3065799"><ele>27.333333333333336</ele><time>2026-05-01T09:34:24.833Z</time></trkpt><trkpt lat="42.3693785" lon="14.3064851"><ele>27.166666666666668</ele><time>2026-05-01T09:34:25.833Z</time></trkpt><trkpt lat="42.3693497" lon="14.3063946"><ele>27.0</ele><time>2026-05-01T09:34:27.833Z</time></trkpt><trkpt lat="42.3692343" lon="14.306315"><ele>27.0</ele><time>2026-05-01T09:34:29.833Z</time></trkpt><trkpt lat="42.3691616" lon="14.3062562"><ele>27.000000000000004</ele><time>2026-05-01T09:34:30.833Z</time></trkpt><trkpt lat="42.3690798" lon="14.3061789"><ele>27.000000000000004</ele><time>2026-05-01T09:34:31.832Z</time></trkpt><trkpt lat="42.3689892" lon="14.3061013"><ele>27.0</ele><time>2026-05-01T09:34:32.833Z</time></trkpt><trkpt lat="42.3688949" lon="14.306019"><ele>27.0</ele><time>2026-05-01T09:34:33.833Z</time></trkpt><trkpt lat="42.3687934" lon="14.3059246"><ele>27.25</ele><time>2026-05-01T09:34:34.833Z</time></trkpt><trkpt lat="42.3686862" lon="14.305815"><ele>27.5</ele><time>2026-05-01T09:34:35.832Z</time></trkpt><trkpt lat="42.3685778" lon="14.3056926"><ele>27.75</ele><time>2026-05-01T09:34:36.833Z</time></trkpt><trkpt lat="42.3684838" lon="14.3055906"><ele>28.0</ele><time>2026-05-01T09:34:37.833Z</time></trkpt><trkpt lat="42.3684104" lon="14.3055177"><ele>28.0</ele><time>2026-05-01T09:34:38.833Z</time></trkpt><trkpt lat="42.3683137" lon="14.3054961"><ele>27.999999999999996</ele><time>2026-05-01T09:34:40.833Z</time></trkpt><trkpt lat="42.368232" lon="14.3055964"><ele>27.999999999999996</ele><time>2026-05-01T09:34:42.833Z</time></trkpt><trkpt lat="42.3681777" lon="14.3056773"><ele>28.0</ele><time>2026-05-01T09:34:43.833Z</time></trkpt><trkpt lat="42.3681021" lon="14.3057735"><ele>28.0</ele><time>2026-05-01T09:34:44.833Z</time></trkpt><trkpt lat="42.3680205" lon="14.3058841"><ele>28.2</ele><time>2026-05-01T09:34:45.833Z</time></trkpt><trkpt lat="42.3679418" lon="14.3059867"><ele>28.4</ele><time>2026-05-01T09:34:46.833Z</time></trkpt><trkpt lat="42.3678584" lon="14.3060619"><ele>28.599999999999998</ele><time>2026-05-01T09:34:47.833Z</time></trkpt><trkpt lat="42.3677758" lon="14.3060955"><ele>28.799999999999997</ele><time>2026-05-01T09:34:48.833Z</time></trkpt><trkpt lat="42.3676781" lon="14.3061137"><ele>29.0</ele><time>2026-05-01T09:34:49.833Z</time></trkpt><trkpt lat="42.3675611" lon="14.3061288"><ele>29.0</ele><time>2026-05-01T09:34:50.832Z</time></trkpt><trkpt lat="42.367438" lon="14.3061422"><ele>29.0</ele><time>2026-05-01T09:34:51.833Z</time></trkpt><trkpt lat="42.3673172" lon="14.3061437"><ele>29.0</ele><time>2026-05-01T09:34:52.833Z</time></trkpt><trkpt lat="42.3672024" lon="14.3061195"><ele>29.0</ele><time>2026-05-01T09:34:53.833Z</time></trkpt><trkpt lat="42.367099" lon="14.3060692"><ele>30.6</ele><time>2026-05-01T09:34:54.833Z</time></trkpt><trkpt lat="42.3669971" lon="14.3060016"><ele>32.2</ele><time>2026-05-01T09:34:55.833Z</time></trkpt><trkpt lat="42.3669014" lon="14.3059478"><ele>33.800000000000004</ele><time>2026-05-01T09:34:56.832Z</time></trkpt><trkpt lat="42.3668089" lon="14.3059318"><ele>35.4</ele><time>2026-05-01T09:34:57.833Z</time></trkpt><trkpt lat="42.3667102" lon="14.3059546"><ele>37.0</ele><time>2026-05-01T09:34:58.833Z</time></trkpt><trkpt lat="42.3666017" lon="14.3060004"><ele>37.0</ele><time>2026-05-01T09:34:59.832Z</time></trkpt><trkpt lat="42.3664891" lon="14.3060284"><ele>37.0</ele><time>2026-05-01T09:35:00.833Z</time></trkpt><trkpt lat="42.366387" lon="14.3060436"><ele>37.0</ele><time>2026-05-01T09:35:01.833Z</time></trkpt><trkpt lat="42.3662919" lon="14.3060619"><ele>37.0</ele><time>2026-05-01T09:35:02.833Z</time></trkpt><trkpt lat="42.366212" lon="14.3060903"><ele>37.0</ele><time>2026-05-01T09:35:03.833Z</time></trkpt><trkpt lat="42.3661413" lon="14.3061416"><ele>37.0</ele><time>2026-05-01T09:35:04.832Z</time></trkpt><trkpt lat="42.3660606" lon="14.3061993"><ele>37.0</ele><time>2026-05-01T09:35:05.833Z</time></trkpt><trkpt lat="42.3659786" lon="14.306247"><ele>37.0</ele><time>2026-05-01T09:35:06.833Z</time></trkpt><trkpt lat="42.3659047" lon="14.3062651"><ele>37.0</ele><time>2026-05-01T09:35:07.833Z</time></trkpt><trkpt lat="42.3658195" lon="14.3062685"><ele>37.0</ele><time>2026-05-01T09:35:08.833Z</time></trkpt><trkpt lat="42.3657143" lon="14.3062569"><ele>37.0</ele><time>2026-05-01T09:35:09.833Z</time></trkpt><trkpt lat="42.3656195" lon="14.3062492"><ele>37.0</ele><time>2026-05-01T09:35:10.833Z</time></trkpt><trkpt lat="42.3655303" lon="14.3062411"><ele>37.0</ele><time>2026-05-01T09:35:11.833Z</time></trkpt><trkpt lat="42.3654496" lon="14.3062448"><ele>37.0</ele><time>2026-05-01T09:35:12.833Z</time></trkpt><trkpt lat="42.3653801" lon="14.3062478"><ele>37.0</ele><time>2026-05-01T09:35:13.833Z</time></trkpt><trkpt lat="42.3653128" lon="14.3062317"><ele>37.0</ele><time>2026-05-01T09:35:14.833Z</time></trkpt><trkpt lat="42.3652338" lon="14.306196"><ele>37.0</ele><time>2026-05-01T09:35:15.833Z</time></trkpt><trkpt lat="42.3651534" lon="14.3061712"><ele>37.16666666666667</ele><time>2026-05-01T09:35:16.833Z</time></trkpt><trkpt lat="42.3650725" lon="14.306169"><ele>37.333333333333336</ele><time>2026-05-01T09:35:17.833Z</time></trkpt><trkpt lat="42.3649914" lon="14.3061732"><ele>37.5</ele><time>2026-05-01T09:35:18.833Z</time></trkpt><trkpt lat="42.3649027" lon="14.3061898"><ele>37.666666666666664</ele><time>2026-05-01T09:35:19.833Z</time></trkpt><trkpt lat="42.3648128" lon="14.3062142"><ele>37.83333333333333</ele><time>2026-05-01T09:35:20.833Z</time></trkpt><trkpt lat="42.3647146" lon="14.3062531"><ele>38.0</ele><time>2026-05-01T09:35:21.833Z</time></trkpt><trkpt lat="42.3646091" lon="14.3063079"><ele>38.0</ele><time>2026-05-01T09:35:22.833Z</time></trkpt><trkpt lat="42.3645077" lon="14.3063741"><ele>38.0</ele><time>2026-05-01T09:35:23.833Z</time></trkpt><trkpt lat="42.3644183" lon="14.3064381"><ele>38.0</ele><time>2026-05-01T09:35:24.833Z</time></trkpt><trkpt lat="42.3643359" lon="14.3065146"><ele>38.0</ele><time>2026-05-01T09:35:25.833Z</time></trkpt><trkpt lat="42.3642497" lon="14.3065993"><ele>38.0</ele><time>2026-05-01T09:35:26.833Z</time></trkpt><trkpt lat="42.3641638" lon="14.3066843"><ele>38.199999999999996</ele><time>2026-05-01T09:35:27.833Z</time></trkpt><trkpt lat="42.3640819" lon="14.306766"><ele>38.4</ele><time>2026-05-01T09:35:28.833Z</time></trkpt><trkpt lat="42.3640023" lon="14.3068352"><ele>38.599999999999994</ele><time>2026-05-01T09:35:29.833Z</time></trkpt><trkpt lat="42.3639145" lon="14.3068984"><ele>38.8</ele><time>2026-05-01T09:35:30.833Z</time></trkpt><trkpt lat="42.3638305" lon="14.3069357"><ele>39.0</ele><time>2026-05-01T09:35:31.832Z</time></trkpt><trkpt lat="42.36375" lon="14.3069686"><ele>39.0</ele><time>2026-05-01T09:35:32.833Z</time></trkpt><trkpt lat="42.3636545" lon="14.3069939"><ele>39.0</ele><time>2026-05-01T09:35:33.833Z</time></trkpt><trkpt lat="42.3635516" lon="14.3070242"><ele>39.0</ele><time>2026-05-01T09:35:34.833Z</time></trkpt><trkpt lat="42.3634421" lon="14.3070519"><ele>39.0</ele><time>2026-05-01T09:35:35.833Z</time></trkpt><trkpt lat="42.3633302" lon="14.3070647"><ele>39.0</ele><time>2026-05-01T09:35:36.833Z</time></trkpt><trkpt lat="42.3632222" lon="14.3070647"><ele>39.0</ele><time>2026-05-01T09:35:37.833Z</time></trkpt><trkpt lat="42.3631268" lon="14.3070603"><ele>39.0</ele><time>2026-05-01T09:35:38.833Z</time></trkpt><trkpt lat="42.3630424" lon="14.3070611"><ele>39.0</ele><time>2026-05-01T09:35:39.833Z</time></trkpt><trkpt lat="42.3629463" lon="14.3070558"><ele>39.0</ele><time>2026-05-01T09:35:40.833Z</time></trkpt><trkpt lat="42.3628458" lon="14.3070357"><ele>39.0</ele><time>2026-05-01T09:35:41.833Z</time></trkpt><trkpt lat="42.3627434" lon="14.3070163"><ele>38.8</ele><time>2026-05-01T09:35:42.833Z</time></trkpt><trkpt lat="42.3626435" lon="14.3069976"><ele>38.599999999999994</ele><time>2026-05-01T09:35:43.833Z</time></trkpt><trkpt lat="42.3625455" lon="14.306985"><ele>38.4</ele><time>2026-05-01T09:35:44.833Z</time></trkpt><trkpt lat="42.3624483" lon="14.3069741"><ele>38.199999999999996</ele><time>2026-05-01T09:35:45.832Z</time></trkpt><trkpt lat="42.3623462" lon="14.3069689"><ele>38.0</ele><time>2026-05-01T09:35:46.833Z</time></trkpt><trkpt lat="42.3622452" lon="14.3069662"><ele>37.8</ele><time>2026-05-01T09:35:47.833Z</time></trkpt><trkpt lat="42.3621468" lon="14.3069595"><ele>37.599999999999994</ele><time>2026-05-01T09:35:48.833Z</time></trkpt><trkpt lat="42.3620494" lon="14.3069551"><ele>37.400000000000006</ele><time>2026-05-01T09:35:49.833Z</time></trkpt><trkpt lat="42.3619518" lon="14.3069565"><ele>37.2</ele><time>2026-05-01T09:35:50.833Z</time></trkpt><trkpt lat="42.3618609" lon="14.3069567"><ele>37.0</ele><time>2026-05-01T09:35:51.833Z</time></trkpt><trkpt lat="42.3617778" lon="14.3069464"><ele>37.0</ele><time>2026-05-01T09:35:52.832Z</time></trkpt><trkpt lat="42.3617032" lon="14.3069321"><ele>37.0</ele><time>2026-05-01T09:35:53.833Z</time></trkpt><trkpt lat="42.3616327" lon="14.306918"><ele>37.0</ele><time>2026-05-01T09:35:54.833Z</time></trkpt><trkpt lat="42.36157" lon="14.3068972"><ele>37.0</ele><time>2026-05-01T09:35:55.833Z</time></trkpt><trkpt lat="42.3615107" lon="14.306866"><ele>37.0</ele><time>2026-05-01T09:35:56.833Z</time></trkpt><trkpt lat="42.3614532" lon="14.3068041"><ele>37.0</ele><time>2026-05-01T09:35:57.833Z</time></trkpt><trkpt lat="42.361401" lon="14.3067388"><ele>37.0</ele><time>2026-05-01T09:35:58.833Z</time></trkpt><trkpt lat="42.3613481" lon="14.3066762"><ele>37.0</ele><time>2026-05-01T09:35:59.833Z</time></trkpt><trkpt lat="42.3612915" lon="14.3066175"><ele>37.0</ele><time>2026-05-01T09:36:00.832Z</time></trkpt><trkpt lat="42.3612293" lon="14.3065669"><ele>37.0</ele><time>2026-05-01T09:36:01.833Z</time></trkpt><trkpt lat="42.3611534" lon="14.3065313"><ele>37.0</ele><time>2026-05-01T09:36:02.833Z</time></trkpt><trkpt lat="42.361059" lon="14.3065119"><ele>37.0</ele><time>2026-05-01T09:36:03.833Z</time></trkpt><trkpt lat="42.3609419" lon="14.3064896"><ele>37.0</ele><time>2026-05-01T09:36:04.833Z</time></trkpt><trkpt lat="42.3608238" lon="14.3064638"><ele>37.0</ele><time>2026-05-01T09:36:05.833Z</time></trkpt><trkpt lat="42.3607047" lon="14.3064315"><ele>37.0</ele><time>2026-05-01T09:36:06.832Z</time></trkpt><trkpt lat="42.3605932" lon="14.3063916"><ele>37.0</ele><time>2026-05-01T09:36:07.833Z</time></trkpt><trkpt lat="42.3604888" lon="14.3063334"><ele>37.0</ele><time>2026-05-01T09:36:08.832Z</time></trkpt><trkpt lat="42.3603817" lon="14.3062689"><ele>35.0</ele><time>2026-05-01T09:36:09.833Z</time></trkpt><trkpt lat="42.3602698" lon="14.3062177"><ele>33.0</ele><time>2026-05-01T09:36:10.833Z</time></trkpt><trkpt lat="42.3601699" lon="14.3061761"><ele>31.000000000000004</ele><time>2026-05-01T09:36:11.833Z</time></trkpt><trkpt lat="42.3600778" lon="14.3061508"><ele>29.0</ele><time>2026-05-01T09:36:12.833Z</time></trkpt><trkpt lat="42.3599955" lon="14.3061471"><ele>27.0</ele><time>2026-05-01T09:36:13.833Z</time></trkpt><trkpt lat="42.3599096" lon="14.3061638"><ele>27.0</ele><time>2026-05-01T09:36:14.833Z</time></trkpt><trkpt lat="42.3598282" lon="14.3061999"><ele>27.000000000000004</ele><time>2026-05-01T09:36:15.832Z</time></trkpt><trkpt lat="42.3597395" lon="14.3062548"><ele>27.000000000000004</ele><time>2026-05-01T09:36:16.833Z</time></trkpt><trkpt lat="42.3596355" lon="14.3062922"><ele>27.0</ele><time>2026-05-01T09:36:17.833Z</time></trkpt><trkpt lat="42.3595309" lon="14.306326"><ele>27.0</ele><time>2026-05-01T09:36:18.833Z</time></trkpt><trkpt lat="42.3594322" lon="14.3063562"><ele>27.833333333333332</ele><time>2026-05-01T09:36:19.833Z</time></trkpt><trkpt lat="42.3593342" lon="14.3063804"><ele>28.666666666666664</ele><time>2026-05-01T09:36:20.832Z</time></trkpt><trkpt lat="42.3592467" lon="14.3064135"><ele>29.5</ele><time>2026-05-01T09:36:21.832Z</time></trkpt><trkpt lat="42.3591726" lon="14.3064436"><ele>30.333333333333332</ele><time>2026-05-01T09:36:22.832Z</time></trkpt><trkpt lat="42.3591124" lon="14.3064871"><ele>31.166666666666664</ele><time>2026-05-01T09:36:23.833Z</time></trkpt><trkpt lat="42.3590623" lon="14.306557"><ele>32.0</ele><time>2026-05-01T09:36:24.833Z</time></trkpt><trkpt lat="42.3590097" lon="14.3066459"><ele>32.166666666666664</ele><time>2026-05-01T09:36:25.833Z</time></trkpt><trkpt lat="42.3589509" lon="14.3067438"><ele>32.33333333333333</ele><time>2026-05-01T09:36:26.833Z</time></trkpt><trkpt lat="42.3588878" lon="14.3068388"><ele>32.5</ele><time>2026-05-01T09:36:27.832Z</time></trkpt><trkpt lat="42.358823" lon="14.3069269"><ele>32.666666666666664</ele><time>2026-05-01T09:36:28.833Z</time></trkpt><trkpt lat="42.3587599" lon="14.3070043"><ele>32.833333333333336</ele><time>2026-05-01T09:36:29.833Z</time></trkpt><trkpt lat="42.3586895" lon="14.3070628"><ele>33.0</ele><time>2026-05-01T09:36:30.832Z</time></trkpt><trkpt lat="42.3586202" lon="14.3071025"><ele>32.666666666666664</ele><time>2026-05-01T09:36:31.833Z</time></trkpt><trkpt lat="42.3585493" lon="14.3071258"><ele>32.333333333333336</ele><time>2026-05-01T09:36:32.833Z</time></trkpt><trkpt lat="42.3584844" lon="14.3071378"><ele>32.0</ele><time>2026-05-01T09:36:33.833Z</time></trkpt><trkpt lat="42.3584207" lon="14.3071294"><ele>31.666666666666668</ele><time>2026-05-01T09:36:34.832Z</time></trkpt><trkpt lat="42.3583431" lon="14.3070896"><ele>31.333333333333336</ele><time>2026-05-01T09:36:35.833Z</time></trkpt><trkpt lat="42.3582446" lon="14.3070497"><ele>31.0</ele><time>2026-05-01T09:36:36.833Z</time></trkpt><trkpt lat="42.3581309" lon="14.307001"><ele>31.25</ele><time>2026-05-01T09:36:37.833Z</time></trkpt><trkpt lat="42.358017" lon="14.3069444"><ele>31.5</ele><time>2026-05-01T09:36:38.833Z</time></trkpt><trkpt lat="42.3579059" lon="14.3068912"><ele>31.75</ele><time>2026-05-01T09:36:39.833Z</time></trkpt><trkpt lat="42.3577956" lon="14.3068405"><ele>32.0</ele><time>2026-05-01T09:36:40.833Z</time></trkpt><trkpt lat="42.3576928" lon="14.3067851"><ele>32.0</ele><time>2026-05-01T09:36:41.833Z</time></trkpt><trkpt lat="42.3575964" lon="14.3067334"><ele>32.0</ele><time>2026-05-01T09:36:42.832Z</time></trkpt><trkpt lat="42.357495" lon="14.3066832"><ele>32.0</ele><time>2026-05-01T09:36:43.832Z</time></trkpt><trkpt lat="42.3573883" lon="14.3066338"><ele>32.0</ele><time>2026-05-01T09:36:44.833Z</time></trkpt><trkpt lat="42.3572883" lon="14.3065854"><ele>32.0</ele><time>2026-05-01T09:36:45.833Z</time></trkpt><trkpt lat="42.3571989" lon="14.3065372"><ele>32.166666666666664</ele><time>2026-05-01T09:36:46.832Z</time></trkpt><trkpt lat="42.3571153" lon="14.306496"><ele>32.33333333333333</ele><time>2026-05-01T09:36:47.833Z</time></trkpt><trkpt lat="42.3570352" lon="14.3064642"><ele>32.5</ele><time>2026-05-01T09:36:48.833Z</time></trkpt><trkpt lat="42.3569518" lon="14.30644"><ele>32.666666666666664</ele><time>2026-05-01T09:36:49.833Z</time></trkpt><trkpt lat="42.3568656" lon="14.3064141"><ele>32.833333333333336</ele><time>2026-05-01T09:36:50.833Z</time></trkpt><trkpt lat="42.3567812" lon="14.3063906"><ele>33.0</ele><time>2026-05-01T09:36:51.833Z</time></trkpt><trkpt lat="42.3567005" lon="14.3063747"><ele>33.0</ele><time>2026-05-01T09:36:52.833Z</time></trkpt><trkpt lat="42.3566237" lon="14.3063669"><ele>33.0</ele><time>2026-05-01T09:36:53.833Z</time></trkpt><trkpt lat="42.356551" lon="14.3063656"><ele>33.0</ele><time>2026-05-01T09:36:54.833Z</time></trkpt><trkpt lat="42.3564786" lon="14.3063654"><ele>33.0</ele><time>2026-05-01T09:36:55.833Z</time></trkpt><trkpt lat="42.3563993" lon="14.3063663"><ele>33.0</ele><time>2026-05-01T09:36:56.833Z</time></trkpt><trkpt lat="42.3563104" lon="14.3063802"><ele>33.0</ele><time>2026-05-01T09:36:57.833Z</time></trkpt><trkpt lat="42.3562163" lon="14.3064008"><ele>33.8</ele><time>2026-05-01T09:36:58.833Z</time></trkpt><trkpt lat="42.3561132" lon="14.3064338"><ele>34.599999999999994</ele><time>2026-05-01T09:36:59.833Z</time></trkpt><trkpt lat="42.3560152" lon="14.3064661"><ele>35.400000000000006</ele><time>2026-05-01T09:37:00.833Z</time></trkpt><trkpt lat="42.3559143" lon="14.3064957"><ele>36.2</ele><time>2026-05-01T09:37:01.832Z</time></trkpt><trkpt lat="42.3558067" lon="14.306526"><ele>37.0</ele><time>2026-05-01T09:37:02.833Z</time></trkpt><trkpt lat="42.3556899" lon="14.3065539"><ele>37.0</ele><time>2026-05-01T09:37:03.833Z</time></trkpt><trkpt lat="42.3555678" lon="14.3065939"><ele>37.0</ele><time>2026-05-01T09:37:04.833Z</time></trkpt><trkpt lat="42.3554541" lon="14.3066333"><ele>37.0</ele><time>2026-05-01T09:37:05.833Z</time></trkpt><trkpt lat="42.3553604" lon="14.3066783"><ele>37.0</ele><time>2026-05-01T09:37:06.832Z</time></trkpt><trkpt lat="42.35527" lon="14.3067316"><ele>37.0</ele><time>2026-05-01T09:37:07.833Z</time></trkpt><trkpt lat="42.3551757" lon="14.3067773"><ele>36.6</ele><time>2026-05-01T09:37:08.833Z</time></trkpt><trkpt lat="42.3550723" lon="14.3068145"><ele>36.2</ele><time>2026-05-01T09:37:09.833Z</time></trkpt><trkpt lat="42.3549611" lon="14.3068634"><ele>35.8</ele><time>2026-05-01T09:37:10.833Z</time></trkpt><trkpt lat="42.354857" lon="14.306908"><ele>35.4</ele><time>2026-05-01T09:37:11.833Z</time></trkpt><trkpt lat="42.3547607" lon="14.3069542"><ele>35.0</ele><time>2026-05-01T09:37:12.833Z</time></trkpt><trkpt lat="42.3546655" lon="14.3069887"><ele>35.0</ele><time>2026-05-01T09:37:13.833Z</time></trkpt><trkpt lat="42.3545656" lon="14.3070233"><ele>35.0</ele><time>2026-05-01T09:37:14.833Z</time></trkpt><trkpt lat="42.3544644" lon="14.3070533"><ele>35.0</ele><time>2026-05-01T09:37:15.832Z</time></trkpt><trkpt lat="42.3543715" lon="14.3070907"><ele>35.0</ele><time>2026-05-01T09:37:16.832Z</time></trkpt><trkpt lat="42.3542797" lon="14.3071386"><ele>35.0</ele><time>2026-05-01T09:37:17.833Z</time></trkpt><trkpt lat="42.3541894" lon="14.3071971"><ele>35.83333333333333</ele><time>2026-05-01T09:37:18.833Z</time></trkpt><trkpt lat="42.3541067" lon="14.3072524"><ele>36.666666666666664</ele><time>2026-05-01T09:37:19.833Z</time></trkpt><trkpt lat="42.3540359" lon="14.3073074"><ele>37.5</ele><time>2026-05-01T09:37:20.833Z</time></trkpt><trkpt lat="42.3539773" lon="14.3073568"><ele>38.333333333333336</ele><time>2026-05-01T09:37:21.833Z</time></trkpt><trkpt lat="42.3539072" lon="14.3074084"><ele>39.16666666666667</ele><time>2026-05-01T09:37:22.833Z</time></trkpt><trkpt lat="42.3538296" lon="14.3074417"><ele>40.0</ele><time>2026-05-01T09:37:23.833Z</time></trkpt><trkpt lat="42.3537519" lon="14.3074534"><ele>40.0</ele><time>2026-05-01T09:37:24.833Z</time></trkpt><trkpt lat="42.3536654" lon="14.3074498"><ele>40.0</ele><time>2026-05-01T09:37:25.832Z</time></trkpt><trkpt lat="42.3535763" lon="14.3074351"><ele>40.0</ele><time>2026-05-01T09:37:26.832Z</time></trkpt><trkpt lat="42.3534921" lon="14.3074325"><ele>40.0</ele><time>2026-05-01T09:37:27.833Z</time></trkpt><trkpt lat="42.3534188" lon="14.3074467"><ele>40.0</ele><time>2026-05-01T09:37:28.833Z</time></trkpt><trkpt lat="42.3533527" lon="14.3074813"><ele>40.0</ele><time>2026-05-01T09:37:29.833Z</time></trkpt><trkpt lat="42.3532847" lon="14.3075482"><ele>40.0</ele><time>2026-05-01T09:37:30.833Z</time></trkpt><trkpt lat="42.3532198" lon="14.3076263"><ele>40.0</ele><time>2026-05-01T09:37:31.833Z</time></trkpt><trkpt lat="42.3531502" lon="14.3076921"><ele>40.0</ele><time>2026-05-01T09:37:32.833Z</time></trkpt><trkpt lat="42.3530655" lon="14.3077451"><ele>40.0</ele><time>2026-05-01T09:37:33.833Z</time></trkpt><trkpt lat="42.3529851" lon="14.3077783"><ele>40.0</ele><time>2026-05-01T09:37:34.833Z</time></trkpt><trkpt lat="42.3529076" lon="14.3077975"><ele>40.0</ele><time>2026-05-01T09:37:35.832Z</time></trkpt><trkpt lat="42.3528345" lon="14.3077895"><ele>39.66666666666667</ele><time>2026-05-01T09:37:36.833Z</time></trkpt><trkpt lat="42.3527517" lon="14.3077551"><ele>39.333333333333336</ele><time>2026-05-01T09:37:37.833Z</time></trkpt><trkpt lat="42.3526682" lon="14.307691"><ele>39.0</ele><time>2026-05-01T09:37:38.833Z</time></trkpt><trkpt lat="42.3525852" lon="14.3076436"><ele>38.666666666666664</ele><time>2026-05-01T09:37:39.832Z</time></trkpt><trkpt lat="42.3525048" lon="14.3076082"><ele>38.33333333333333</ele><time>2026-05-01T09:37:40.833Z</time></trkpt><trkpt lat="42.3524236" lon="14.3075956"><ele>38.0</ele><time>2026-05-01T09:37:41.833Z</time></trkpt><trkpt lat="42.3523365" lon="14.30761"><ele>38.0</ele><time>2026-05-01T09:37:42.833Z</time></trkpt><trkpt lat="42.3522364" lon="14.3076356"><ele>38.0</ele><time>2026-05-01T09:37:43.833Z</time></trkpt><trkpt lat="42.3521332" lon="14.3076585"><ele>38.0</ele><time>2026-05-01T09:37:44.833Z</time></trkpt><trkpt lat="42.3520357" lon="14.3076806"><ele>38.0</ele><time>2026-05-01T09:37:45.833Z</time></trkpt><trkpt lat="42.3519381" lon="14.3076892"><ele>38.0</ele><time>2026-05-01T09:37:46.833Z</time></trkpt><trkpt lat="42.3518343" lon="14.3077002"><ele>38.25</ele><time>2026-05-01T09:37:47.833Z</time></trkpt><trkpt lat="42.3517232" lon="14.307713"><ele>38.5</ele><time>2026-05-01T09:37:48.832Z</time></trkpt><trkpt lat="42.3516076" lon="14.3077346"><ele>38.75</ele><time>2026-05-01T09:37:49.833Z</time></trkpt><trkpt lat="42.3514825" lon="14.307755"><ele>39.0</ele><time>2026-05-01T09:37:50.833Z</time></trkpt><trkpt lat="42.351352" lon="14.307779"><ele>40.0</ele><time>2026-05-01T09:37:51.832Z</time></trkpt><trkpt lat="42.3512293" lon="14.3077944"><ele>41.0</ele><time>2026-05-01T09:37:52.832Z</time></trkpt><trkpt lat="42.3511188" lon="14.3078079"><ele>42.0</ele><time>2026-05-01T09:37:53.833Z</time></trkpt><trkpt lat="42.351009" lon="14.307822"><ele>43.0</ele><time>2026-05-01T09:37:54.833Z</time></trkpt><trkpt lat="42.3509007" lon="14.307837"><ele>43.0</ele><time>2026-05-01T09:37:55.833Z</time></trkpt><trkpt lat="42.3507962" lon="14.307853"><ele>43.0</ele><time>2026-05-01T09:37:56.833Z</time></trkpt><trkpt lat="42.3506896" lon="14.3078539"><ele>43.0</ele><time>2026-05-01T09:37:57.833Z</time></trkpt><trkpt lat="42.3505703" lon="14.3078535"><ele>43.0</ele><time>2026-05-01T09:37:58.833Z</time></trkpt><trkpt lat="42.3504532" lon="14.3078744"><ele>43.0</ele><time>2026-05-01T09:37:59.832Z</time></trkpt><trkpt lat="42.3503322" lon="14.3079147"><ele>43.25</ele><time>2026-05-01T09:38:00.833Z</time></trkpt><trkpt lat="42.3502103" lon="14.3079671"><ele>43.5</ele><time>2026-05-01T09:38:01.833Z</time></trkpt><trkpt lat="42.3500808" lon="14.3080311"><ele>43.75</ele><time>2026-05-01T09:38:02.833Z</time></trkpt><trkpt lat="42.3499481" lon="14.3080982"><ele>44.0</ele><time>2026-05-01T09:38:03.833Z</time></trkpt><trkpt lat="42.3498226" lon="14.3081624"><ele>43.800000000000004</ele><time>2026-05-01T09:38:04.833Z</time></trkpt><trkpt lat="42.3497058" lon="14.3082261"><ele>43.6</ele><time>2026-05-01T09:38:05.833Z</time></trkpt><trkpt lat="42.3496" lon="14.3082815"><ele>43.4</ele><time>2026-05-01T09:38:06.833Z</time></trkpt><trkpt lat="42.3495059" lon="14.3083301"><ele>43.2</ele><time>2026-05-01T09:38:07.833Z</time></trkpt><trkpt lat="42.3494212" lon="14.3083639"><ele>43.0</ele><time>2026-05-01T09:38:08.833Z</time></trkpt><trkpt lat="42.349346" lon="14.3083751"><ele>43.0</ele><time>2026-05-01T09:38:09.832Z</time></trkpt><trkpt lat="42.3492489" lon="14.3083167"><ele>43.0</ele><time>2026-05-01T09:38:11.833Z</time></trkpt><trkpt lat="42.3492187" lon="14.3081339"><ele>43.0</ele><time>2026-05-01T09:38:13.833Z</time></trkpt><trkpt lat="42.349207" lon="14.3080248"><ele>43.0</ele><time>2026-05-01T09:38:14.832Z</time></trkpt><trkpt lat="42.3491712" lon="14.3079406"><ele>43.0</ele><time>2026-05-01T09:38:15.833Z</time></trkpt><trkpt lat="42.3491179" lon="14.3078857"><ele>42.8</ele><time>2026-05-01T09:38:16.833Z</time></trkpt><trkpt lat="42.349012" lon="14.30788"><ele>42.599999999999994</ele><time>2026-05-01T09:38:18.833Z</time></trkpt><trkpt lat="42.3489142" lon="14.3078084"><ele>42.400000000000006</ele><time>2026-05-01T09:38:20.833Z</time></trkpt><trkpt lat="42.3488877" lon="14.3076979"><ele>42.2</ele><time>2026-05-01T09:38:21.833Z</time></trkpt><trkpt lat="42.3488569" lon="14.3075619"><ele>42.0</ele><time>2026-05-01T09:38:22.833Z</time></trkpt><trkpt lat="42.3488332" lon="14.3074014"><ele>42.0</ele><time>2026-05-01T09:38:23.833Z</time></trkpt><trkpt lat="42.3487995" lon="14.3072361"><ele>42.0</ele><time>2026-05-01T09:38:24.833Z</time></trkpt><trkpt lat="42.3487647" lon="14.3070831"><ele>42.0</ele><time>2026-05-01T09:38:25.833Z</time></trkpt><trkpt lat="42.348728" lon="14.3069331"><ele>42.0</ele><time>2026-05-01T09:38:26.833Z</time></trkpt><trkpt lat="42.3486827" lon="14.3067896"><ele>42.0</ele><time>2026-05-01T09:38:27.833Z</time></trkpt><trkpt lat="42.348633" lon="14.3066649"><ele>42.0</ele><time>2026-05-01T09:38:28.833Z</time></trkpt><trkpt lat="42.3485973" lon="14.3065661"><ele>42.0</ele><time>2026-05-01T09:38:29.833Z</time></trkpt><trkpt lat="42.3485705" lon="14.3064731"><ele>42.0</ele><time>2026-05-01T09:38:30.832Z</time></trkpt><trkpt lat="42.3485733" lon="14.3063822"><ele>42.0</ele><time>2026-05-01T09:38:31.833Z</time></trkpt><trkpt lat="42.3486071" lon="14.3062902"><ele>42.0</ele><time>2026-05-01T09:38:32.833Z</time></trkpt><trkpt lat="42.3486683" lon="14.3061836"><ele>43.2</ele><time>2026-05-01T09:38:33.833Z</time></trkpt><trkpt lat="42.3487411" lon="14.3060792"><ele>44.400000000000006</ele><time>2026-05-01T09:38:34.832Z</time></trkpt><trkpt lat="42.3488092" lon="14.3059622"><ele>45.599999999999994</ele><time>2026-05-01T09:38:35.833Z</time></trkpt><trkpt lat="42.3488559" lon="14.3058375"><ele>46.8</ele><time>2026-05-01T09:38:36.832Z</time></trkpt><trkpt lat="42.3488709" lon="14.3057172"><ele>48.0</ele><time>2026-05-01T09:38:37.832Z</time></trkpt><trkpt lat="42.348851" lon="14.3056263"><ele>49.166666666666664</ele><time>2026-05-01T09:38:38.832Z</time></trkpt><trkpt lat="42.3488093" lon="14.3055583"><ele>50.33333333333333</ele><time>2026-05-01T09:38:39.832Z</time></trkpt><trkpt lat="42.3487519" lon="14.3055042"><ele>51.5</ele><time>2026-05-01T09:38:40.832Z</time></trkpt><trkpt lat="42.348685" lon="14.3054551"><ele>52.666666666666664</ele><time>2026-05-01T09:38:41.832Z</time></trkpt><trkpt lat="42.3486251" lon="14.3054277"><ele>53.83333333333333</ele><time>2026-05-01T09:38:42.832Z</time></trkpt><trkpt lat="42.3485465" lon="14.305409"><ele>55.0</ele><time>2026-05-01T09:38:44.832Z</time></trkpt><trkpt lat="42.3484481" lon="14.3054235"><ele>54.99999999999999</ele><time>2026-05-01T09:38:47.831Z</time></trkpt><trkpt lat="42.3483827" lon="14.3054685"><ele>55.0</ele><time>2026-05-01T09:38:48.831Z</time></trkpt><trkpt lat="42.348316" lon="14.3055346"><ele>55.0</ele><time>2026-05-01T09:38:49.831Z</time></trkpt><trkpt lat="42.3482579" lon="14.3056021"><ele>55.0</ele><time>2026-05-01T09:38:50.832Z</time></trkpt><trkpt lat="42.3481973" lon="14.3056648"><ele>54.99999999999999</ele><time>2026-05-01T09:38:51.832Z</time></trkpt><trkpt lat="42.3481358" lon="14.3057393"><ele>55.0</ele><time>2026-05-01T09:38:52.832Z</time></trkpt><trkpt lat="42.3480487" lon="14.3058352"><ele>55.0</ele><time>2026-05-01T09:38:53.832Z</time></trkpt><trkpt lat="42.3479528" lon="14.3059484"><ele>55.0</ele><time>2026-05-01T09:38:54.832Z</time></trkpt><trkpt lat="42.3478503" lon="14.3060533"><ele>55.0</ele><time>2026-05-01T09:38:55.832Z</time></trkpt><trkpt lat="42.3477396" lon="14.3061447"><ele>55.0</ele><time>2026-05-01T09:38:56.832Z</time></trkpt><trkpt lat="42.3476322" lon="14.3062494"><ele>55.0</ele><time>2026-05-01T09:38:57.832Z</time></trkpt><trkpt lat="42.3475171" lon="14.306368"><ele>55.0</ele><time>2026-05-01T09:38:58.832Z</time></trkpt><trkpt lat="42.3473965" lon="14.3064708"><ele>55.0</ele><time>2026-05-01T09:38:59.831Z</time></trkpt><trkpt lat="42.3472618" lon="14.3065633"><ele>55.0</ele><time>2026-05-01T09:39:00.832Z</time></trkpt><trkpt lat="42.3471213" lon="14.306633"><ele>54.25</ele><time>2026-05-01T09:39:01.832Z</time></trkpt><trkpt lat="42.3469825" lon="14.3066974"><ele>53.5</ele><time>2026-05-01T09:39:02.832Z</time></trkpt><trkpt lat="42.3468447" lon="14.3067634"><ele>52.75</ele><time>2026-05-01T09:39:03.832Z</time></trkpt><trkpt lat="42.3467024" lon="14.3068353"><ele>52.0</ele><time>2026-05-01T09:39:04.832Z</time></trkpt><trkpt lat="42.3465582" lon="14.306907"><ele>52.0</ele><time>2026-05-01T09:39:05.832Z</time></trkpt><trkpt lat="42.3464129" lon="14.3069854"><ele>52.0</ele><time>2026-05-01T09:39:06.831Z</time></trkpt><trkpt lat="42.3462713" lon="14.3070578"><ele>52.0</ele><time>2026-05-01T09:39:07.832Z</time></trkpt><trkpt lat="42.3461378" lon="14.3071258"><ele>52.25</ele><time>2026-05-01T09:39:08.832Z</time></trkpt><trkpt lat="42.3460043" lon="14.3071874"><ele>52.5</ele><time>2026-05-01T09:39:09.832Z</time></trkpt><trkpt lat="42.3458688" lon="14.3072527"><ele>52.75</ele><time>2026-05-01T09:39:10.832Z</time></trkpt><trkpt lat="42.3457243" lon="14.3073249"><ele>53.0</ele><time>2026-05-01T09:39:11.832Z</time></trkpt><trkpt lat="42.3455787" lon="14.307408"><ele>51.333333333333336</ele><time>2026-05-01T09:39:12.832Z</time></trkpt><trkpt lat="42.3454312" lon="14.307501"><ele>49.66666666666667</ele><time>2026-05-01T09:39:13.831Z</time></trkpt><trkpt lat="42.3452809" lon="14.3075955"><ele>48.0</ele><time>2026-05-01T09:39:14.832Z</time></trkpt><trkpt lat="42.3451325" lon="14.3076871"><ele>48.0</ele><time>2026-05-01T09:39:15.832Z</time></trkpt><trkpt lat="42.3449862" lon="14.3077743"><ele>48.0</ele><time>2026-05-01T09:39:16.832Z</time></trkpt><trkpt lat="42.3448345" lon="14.3078689"><ele>48.0</ele><time>2026-05-01T09:39:17.832Z</time></trkpt><trkpt lat="42.3446787" lon="14.3079629"><ele>48.33333333333333</ele><time>2026-05-01T09:39:18.832Z</time></trkpt><trkpt lat="42.3445266" lon="14.3080537"><ele>48.666666666666664</ele><time>2026-05-01T09:39:19.832Z</time></trkpt><trkpt lat="42.3443735" lon="14.3081416"><ele>49.0</ele><time>2026-05-01T09:39:20.832Z</time></trkpt><trkpt lat="42.3442319" lon="14.3082271"><ele>47.800000000000004</ele><time>2026-05-01T09:39:21.832Z</time></trkpt><trkpt lat="42.3441055" lon="14.3083093"><ele>46.6</ele><time>2026-05-01T09:39:22.832Z</time></trkpt><trkpt lat="42.343997" lon="14.3083789"><ele>45.4</ele><time>2026-05-01T09:39:23.832Z</time></trkpt><trkpt lat="42.3439062" lon="14.3084278"><ele>44.2</ele><time>2026-05-01T09:39:24.832Z</time></trkpt><trkpt lat="42.3438241" lon="14.3084556"><ele>43.0</ele><time>2026-05-01T09:39:25.832Z</time></trkpt><trkpt lat="42.3437422" lon="14.3084825"><ele>43.0</ele><time>2026-05-01T09:39:26.832Z</time></trkpt><trkpt lat="42.3436617" lon="14.3085078"><ele>43.0</ele><time>2026-05-01T09:39:27.832Z</time></trkpt><trkpt lat="42.3435804" lon="14.3085293"><ele>43.0</ele><time>2026-05-01T09:39:28.832Z</time></trkpt><trkpt lat="42.3434999" lon="14.3085458"><ele>43.0</ele><time>2026-05-01T09:39:29.832Z</time></trkpt><trkpt lat="42.3434261" lon="14.3085554"><ele>43.0</ele><time>2026-05-01T09:39:30.831Z</time></trkpt><trkpt lat="42.3433553" lon="14.3085492"><ele>43.0</ele><time>2026-05-01T09:39:31.831Z</time></trkpt><trkpt lat="42.3432828" lon="14.3085287"><ele>43.0</ele><time>2026-05-01T09:39:32.832Z</time></trkpt><trkpt lat="42.3432069" lon="14.3084783"><ele>43.0</ele><time>2026-05-01T09:39:33.832Z</time></trkpt><trkpt lat="42.3431273" lon="14.3084107"><ele>43.0</ele><time>2026-05-01T09:39:34.832Z</time></trkpt><trkpt lat="42.3430441" lon="14.3083335"><ele>43.0</ele><time>2026-05-01T09:39:35.831Z</time></trkpt><trkpt lat="42.3429607" lon="14.3082447"><ele>43.0</ele><time>2026-05-01T09:39:36.832Z</time></trkpt><trkpt lat="42.3428737" lon="14.3081577"><ele>44.0</ele><time>2026-05-01T09:39:37.832Z</time></trkpt><trkpt lat="42.3427795" lon="14.3080699"><ele>45.0</ele><time>2026-05-01T09:39:38.832Z</time></trkpt><trkpt lat="42.3426925" lon="14.3079848"><ele>46.0</ele><time>2026-05-01T09:39:39.832Z</time></trkpt><trkpt lat="42.342604" lon="14.3079233"><ele>47.0</ele><time>2026-05-01T09:39:40.832Z</time></trkpt><trkpt lat="42.342528" lon="14.3078787"><ele>48.0</ele><time>2026-05-01T09:39:41.831Z</time></trkpt><trkpt lat="42.3424475" lon="14.3078635"><ele>48.0</ele><time>2026-05-01T09:39:42.832Z</time></trkpt><trkpt lat="42.3423662" lon="14.307865"><ele>48.0</ele><time>2026-05-01T09:39:43.832Z</time></trkpt><trkpt lat="42.3422754" lon="14.3078874"><ele>48.0</ele><time>2026-05-01T09:39:44.831Z</time></trkpt><trkpt lat="42.3421792" lon="14.3079111"><ele>48.0</ele><time>2026-05-01T09:39:45.832Z</time></trkpt><trkpt lat="42.3420845" lon="14.3079568"><ele>48.0</ele><time>2026-05-01T09:39:46.832Z</time></trkpt><trkpt lat="42.3419845" lon="14.308008"><ele>47.8</ele><time>2026-05-01T09:39:47.832Z</time></trkpt><trkpt lat="42.3418872" lon="14.3080668"><ele>47.599999999999994</ele><time>2026-05-01T09:39:48.832Z</time></trkpt><trkpt lat="42.3417919" lon="14.3081176"><ele>47.400000000000006</ele><time>2026-05-01T09:39:49.832Z</time></trkpt><trkpt lat="42.3417025" lon="14.3081652"><ele>47.2</ele><time>2026-05-01T09:39:50.832Z</time></trkpt><trkpt lat="42.3416098" lon="14.3082126"><ele>47.0</ele><time>2026-05-01T09:39:51.832Z</time></trkpt><trkpt lat="42.3415081" lon="14.3082659"><ele>46.75</ele><time>2026-05-01T09:39:52.832Z</time></trkpt><trkpt lat="42.3414018" lon="14.308325"><ele>46.5</ele><time>2026-05-01T09:39:53.832Z</time></trkpt><trkpt lat="42.3412861" lon="14.3083743"><ele>46.25</ele><time>2026-05-01T09:39:54.831Z</time></trkpt><trkpt lat="42.3411737" lon="14.3084225"><ele>46.0</ele><time>2026-05-01T09:39:55.832Z</time></trkpt><trkpt lat="42.3410729" lon="14.3084662"><ele>46.0</ele><time>2026-05-01T09:39:56.832Z</time></trkpt><trkpt lat="42.3409804" lon="14.3085006"><ele>46.0</ele><time>2026-05-01T09:39:57.832Z</time></trkpt><trkpt lat="42.3408931" lon="14.3085307"><ele>46.0</ele><time>2026-05-01T09:39:58.831Z</time></trkpt><trkpt lat="42.3408038" lon="14.3085524"><ele>46.0</ele><time>2026-05-01T09:39:59.832Z</time></trkpt><trkpt lat="42.3407162" lon="14.3085767"><ele>46.0</ele><time>2026-05-01T09:40:00.832Z</time></trkpt><trkpt lat="42.3406349" lon="14.3086008"><ele>46.0</ele><time>2026-05-01T09:40:01.832Z</time></trkpt><trkpt lat="42.3405441" lon="14.3086148"><ele>46.0</ele><time>2026-05-01T09:40:02.832Z</time></trkpt><trkpt lat="42.3404492" lon="14.3086207"><ele>46.0</ele><time>2026-05-01T09:40:03.832Z</time></trkpt><trkpt lat="42.3403703" lon="14.3086202"><ele>46.0</ele><time>2026-05-01T09:40:04.832Z</time></trkpt><trkpt lat="42.3403053" lon="14.3086156"><ele>46.0</ele><time>2026-05-01T09:40:05.831Z</time></trkpt><trkpt lat="42.3402249" lon="14.3086177"><ele>46.0</ele><time>2026-05-01T09:40:07.832Z</time></trkpt><trkpt lat="42.3401489" lon="14.3086202"><ele>46.0</ele><time>2026-05-01T09:40:09.832Z</time></trkpt><trkpt lat="42.3400654" lon="14.3086336"><ele>46.0</ele><time>2026-05-01T09:40:11.832Z</time></trkpt><trkpt lat="42.339977" lon="14.3086474"><ele>46.0</ele><time>2026-05-01T09:40:13.832Z</time></trkpt><trkpt lat="42.3399056" lon="14.3086232"><ele>46.0</ele><time>2026-05-01T09:40:15.832Z</time></trkpt><trkpt lat="42.339812" lon="14.308584"><ele>46.0</ele><time>2026-05-01T09:40:17.832Z</time></trkpt><trkpt lat="42.3397055" lon="14.308527"><ele>46.0</ele><time>2026-05-01T09:40:19.832Z</time></trkpt><trkpt lat="42.3396328" lon="14.3084825"><ele>45.85714285714286</ele><time>2026-05-01T09:40:20.832Z</time></trkpt><trkpt lat="42.3395585" lon="14.3084363"><ele>45.71428571428571</ele><time>2026-05-01T09:40:21.832Z</time></trkpt><trkpt lat="42.3394885" lon="14.3083903"><ele>45.57142857142857</ele><time>2026-05-01T09:40:22.832Z</time></trkpt><trkpt lat="42.3394268" lon="14.3083478"><ele>45.42857142857143</ele><time>2026-05-01T09:40:23.832Z</time></trkpt><trkpt lat="42.3393655" lon="14.3083041"><ele>45.28571428571429</ele><time>2026-05-01T09:40:24.832Z</time></trkpt><trkpt lat="42.3393065" lon="14.3082592"><ele>45.14285714285714</ele><time>2026-05-01T09:40:25.832Z</time></trkpt><trkpt lat="42.3392485" lon="14.3081934"><ele>45.0</ele><time>2026-05-01T09:40:26.832Z</time></trkpt><trkpt lat="42.3391844" lon="14.3081074"><ele>45.4</ele><time>2026-05-01T09:40:27.832Z</time></trkpt><trkpt lat="42.3391177" lon="14.3080053"><ele>45.8</ele><time>2026-05-01T09:40:28.832Z</time></trkpt><trkpt lat="42.3390521" lon="14.3079054"><ele>46.2</ele><time>2026-05-01T09:40:29.832Z</time></trkpt><trkpt lat="42.3389855" lon="14.3078034"><ele>46.6</ele><time>2026-05-01T09:40:30.832Z</time></trkpt><trkpt lat="42.3389247" lon="14.3077029"><ele>47.0</ele><time>2026-05-01T09:40:31.832Z</time></trkpt><trkpt lat="42.3388631" lon="14.3075938"><ele>47.0</ele><time>2026-05-01T09:40:32.832Z</time></trkpt><trkpt lat="42.3387974" lon="14.3074878"><ele>47.0</ele><time>2026-05-01T09:40:33.832Z</time></trkpt><trkpt lat="42.3387393" lon="14.3073964"><ele>47.0</ele><time>2026-05-01T09:40:34.832Z</time></trkpt><trkpt lat="42.3386943" lon="14.307333"><ele>47.0</ele><time>2026-05-01T09:40:35.832Z</time></trkpt><trkpt lat="42.3386118" lon="14.3072593"><ele>47.0</ele><time>2026-05-01T09:40:37.832Z</time></trkpt><trkpt lat="42.3385579" lon="14.3072047"><ele>47.0</ele><time>2026-05-01T09:40:38.832Z</time></trkpt><trkpt lat="42.3384896" lon="14.3071348"><ele>47.83333333333333</ele><time>2026-05-01T09:40:39.832Z</time></trkpt><trkpt lat="42.3384172" lon="14.3070821"><ele>48.666666666666664</ele><time>2026-05-01T09:40:40.832Z</time></trkpt><trkpt lat="42.3383476" lon="14.3070207"><ele>49.5</ele><time>2026-05-01T09:40:41.832Z</time></trkpt><trkpt lat="42.3382725" lon="14.3069597"><ele>50.33333333333333</ele><time>2026-05-01T09:40:42.832Z</time></trkpt><trkpt lat="42.3382058" lon="14.3068974"><ele>51.166666666666664</ele><time>2026-05-01T09:40:43.832Z</time></trkpt><trkpt lat="42.338147" lon="14.306834"><ele>52.0</ele><time>2026-05-01T09:40:44.832Z</time></trkpt><trkpt lat="42.3380908" lon="14.3067758"><ele>51.49999999999999</ele><time>2026-05-01T09:40:45.832Z</time></trkpt><trkpt lat="42.3380364" lon="14.3067233"><ele>51.0</ele><time>2026-05-01T09:40:46.832Z</time></trkpt><trkpt lat="42.3379168" lon="14.3066777"><ele>50.5</ele><time>2026-05-01T09:40:48.831Z</time></trkpt><trkpt lat="42.3378405" lon="14.3066851"><ele>50.0</ele><time>2026-05-01T09:40:49.831Z</time></trkpt><trkpt lat="42.3377595" lon="14.3066932"><ele>49.49999999999999</ele><time>2026-05-01T09:40:50.832Z</time></trkpt><trkpt lat="42.3376874" lon="14.3067034"><ele>49.0</ele><time>2026-05-01T09:40:51.832Z</time></trkpt><trkpt lat="42.3375705" lon="14.3067239"><ele>48.99999999999999</ele><time>2026-05-01T09:40:53.832Z</time></trkpt><trkpt lat="42.3374513" lon="14.3067391"><ele>49.0</ele><time>2026-05-01T09:40:55.832Z</time></trkpt><trkpt lat="42.3373842" lon="14.3067442"><ele>49.0</ele><time>2026-05-01T09:40:56.832Z</time></trkpt><trkpt lat="42.3373139" lon="14.3067479"><ele>49.0</ele><time>2026-05-01T09:40:57.832Z</time></trkpt><trkpt lat="42.3372421" lon="14.3067503"><ele>48.99999999999999</ele><time>2026-05-01T09:40:58.832Z</time></trkpt><trkpt lat="42.3371631" lon="14.3067387"><ele>49.0</ele><time>2026-05-01T09:40:59.832Z</time></trkpt><trkpt lat="42.3370888" lon="14.3067198"><ele>49.400000000000006</ele><time>2026-05-01T09:41:00.832Z</time></trkpt><trkpt lat="42.3370109" lon="14.3066985"><ele>49.8</ele><time>2026-05-01T09:41:01.833Z</time></trkpt><trkpt lat="42.3369246" lon="14.3066762"><ele>50.2</ele><time>2026-05-01T09:41:02.833Z</time></trkpt><trkpt lat="42.3368319" lon="14.3066544"><ele>50.599999999999994</ele><time>2026-05-01T09:41:03.832Z</time></trkpt><trkpt lat="42.336736" lon="14.3066297"><ele>51.0</ele><time>2026-05-01T09:41:04.833Z</time></trkpt><trkpt lat="42.3366428" lon="14.3066052"><ele>51.0</ele><time>2026-05-01T09:41:05.833Z</time></trkpt><trkpt lat="42.3365547" lon="14.306585"><ele>51.0</ele><time>2026-05-01T09:41:06.832Z</time></trkpt><trkpt lat="42.3364667" lon="14.306568"><ele>51.0</ele><time>2026-05-01T09:41:07.833Z</time></trkpt><trkpt lat="42.3363872" lon="14.3065576"><ele>51.0</ele><time>2026-05-01T09:41:08.833Z</time></trkpt><trkpt lat="42.3363199" lon="14.3065429"><ele>51.0</ele><time>2026-05-01T09:41:09.833Z</time></trkpt><trkpt lat="42.3362201" lon="14.3064822"><ele>51.0</ele><time>2026-05-01T09:41:11.833Z</time></trkpt><trkpt lat="42.3361358" lon="14.3064081"><ele>52.0</ele><time>2026-05-01T09:41:13.833Z</time></trkpt><trkpt lat="42.3360815" lon="14.3063512"><ele>53.0</ele><time>2026-05-01T09:41:15.833Z</time></trkpt><trkpt lat="42.3360216" lon="14.3062745"><ele>53.99999999999999</ele><time>2026-05-01T09:41:17.832Z</time></trkpt><trkpt lat="42.3359482" lon="14.3061838"><ele>55.0</ele><time>2026-05-01T09:41:19.833Z</time></trkpt><trkpt lat="42.3358672" lon="14.3060773"><ele>56.0</ele><time>2026-05-01T09:41:21.832Z</time></trkpt><trkpt lat="42.3357918" lon="14.3059488"><ele>56.00000000000001</ele><time>2026-05-01T09:41:23.832Z</time></trkpt><trkpt lat="42.335695" lon="14.3058736"><ele>56.0</ele><time>2026-05-01T09:41:25.833Z</time></trkpt><trkpt lat="42.3356109" lon="14.3058258"><ele>56.0</ele><time>2026-05-01T09:41:27.833Z</time></trkpt><trkpt lat="42.3355794" lon="14.3057346"><ele>56.0</ele><time>2026-05-01T09:42:14.833Z</time></trkpt><trkpt lat="42.3356218" lon="14.3056296"><ele>56.00000000000001</ele><time>2026-05-01T09:42:16.832Z</time></trkpt><trkpt lat="42.3356511" lon="14.305552"><ele>56.0</ele><time>2026-05-01T09:42:17.833Z</time></trkpt><trkpt lat="42.3356814" lon="14.3054656"><ele>57.4</ele><time>2026-05-01T09:42:18.832Z</time></trkpt><trkpt lat="42.3357155" lon="14.305369"><ele>58.8</ele><time>2026-05-01T09:42:19.833Z</time></trkpt><trkpt lat="42.3357526" lon="14.305275"><ele>60.199999999999996</ele><time>2026-05-01T09:42:20.833Z</time></trkpt><trkpt lat="42.3357855" lon="14.3051903"><ele>61.599999999999994</ele><time>2026-05-01T09:42:21.833Z</time></trkpt><trkpt lat="42.3358342" lon="14.3050669"><ele>63.0</ele><time>2026-05-01T09:42:23.833Z</time></trkpt><trkpt lat="42.3358346" lon="14.3048704"><ele>64.4</ele><time>2026-05-01T09:56:57.832Z</time></trkpt><trkpt lat="42.3358006" lon="14.3047379"><ele>65.8</ele><time>2026-05-01T09:56:59.832Z</time></trkpt><trkpt lat="42.3357719" lon="14.3046541"><ele>67.2</ele><time>2026-05-01T09:57:01.832Z</time></trkpt><trkpt lat="42.335708" lon="14.304548"><ele>68.6</ele><time>2026-05-01T09:57:03.832Z</time></trkpt><trkpt lat="42.3356227" lon="14.3044174"><ele>70.0</ele><time>2026-05-01T09:57:05.831Z</time></trkpt><trkpt lat="42.3355403" lon="14.3043315"><ele>70.0</ele><time>2026-05-01T09:57:07.832Z</time></trkpt><trkpt lat="42.335461" lon="14.3042685"><ele>70.0</ele><time>2026-05-01T09:57:10.832Z</time></trkpt><trkpt lat="42.3353951" lon="14.3041814"><ele>70.0</ele><time>2026-05-01T09:57:13.832Z</time></trkpt><trkpt lat="42.3353697" lon="14.3040577"><ele>70.0</ele><time>2026-05-01T09:57:15.832Z</time></trkpt><trkpt lat="42.3353483" lon="14.3039266"><ele>70.0</ele><time>2026-05-01T09:57:17.832Z</time></trkpt><trkpt lat="42.3352991" lon="14.3038504"><ele>72.8</ele><time>2026-05-01T09:57:19.831Z</time></trkpt><trkpt lat="42.3352403" lon="14.3038111"><ele>75.6</ele><time>2026-05-01T09:57:21.831Z</time></trkpt><trkpt lat="42.3352156" lon="14.3037312"><ele>78.4</ele><time>2026-05-01T09:57:23.831Z</time></trkpt><trkpt lat="42.3351798" lon="14.3035942"><ele>81.2</ele><time>2026-05-01T09:57:34.832Z</time></trkpt><trkpt lat="42.3350536" lon="14.3035661"><ele>84.0</ele><time>2026-05-01T09:57:36.832Z</time></trkpt><trkpt lat="42.3349686" lon="14.3035387"><ele>84.0</ele><time>2026-05-01T09:57:37.831Z</time></trkpt><trkpt lat="42.3348752" lon="14.3034847"><ele>84.0</ele><time>2026-05-01T09:57:38.832Z</time></trkpt><trkpt lat="42.3347741" lon="14.3034017"><ele>84.0</ele><time>2026-05-01T09:57:39.831Z</time></trkpt><trkpt lat="42.3346669" lon="14.3033185"><ele>84.0</ele><time>2026-05-01T09:57:40.831Z</time></trkpt><trkpt lat="42.3345588" lon="14.3032353"><ele>82.5</ele><time>2026-05-01T09:57:41.832Z</time></trkpt><trkpt lat="42.3344654" lon="14.3031414"><ele>81.0</ele><time>2026-05-01T09:57:42.832Z</time></trkpt><trkpt lat="42.33439" lon="14.3030291"><ele>79.5</ele><time>2026-05-01T09:57:43.832Z</time></trkpt><trkpt lat="42.3343252" lon="14.3028823"><ele>78.0</ele><time>2026-05-01T09:57:44.832Z</time></trkpt><trkpt lat="42.3342587" lon="14.3027446"><ele>78.0</ele><time>2026-05-01T09:57:45.832Z</time></trkpt><trkpt lat="42.3341804" lon="14.3026102"><ele>78.0</ele><time>2026-05-01T09:57:46.832Z</time></trkpt><trkpt lat="42.3341015" lon="14.3024876"><ele>78.0</ele><time>2026-05-01T09:57:47.832Z</time></trkpt><trkpt lat="42.3340099" lon="14.3023757"><ele>78.0</ele><time>2026-05-01T09:57:48.832Z</time></trkpt><trkpt lat="42.3339195" lon="14.3022622"><ele>76.25</ele><time>2026-05-01T09:57:49.832Z</time></trkpt><trkpt lat="42.3338328" lon="14.3021431"><ele>74.5</ele><time>2026-05-01T09:57:50.832Z</time></trkpt><trkpt lat="42.3337453" lon="14.302012"><ele>72.75</ele><time>2026-05-01T09:57:51.832Z</time></trkpt><trkpt lat="42.3336641" lon="14.3018722"><ele>71.0</ele><time>2026-05-01T09:57:52.832Z</time></trkpt><trkpt lat="42.3335826" lon="14.3017357"><ele>71.0</ele><time>2026-05-01T09:57:53.831Z</time></trkpt><trkpt lat="42.3334916" lon="14.3016313"><ele>71.0</ele><time>2026-05-01T09:57:54.832Z</time></trkpt><trkpt lat="42.3334036" lon="14.3015665"><ele>71.0</ele><time>2026-05-01T09:57:55.832Z</time></trkpt><trkpt lat="42.3333311" lon="14.3015645"><ele>71.0</ele><time>2026-05-01T09:57:56.832Z</time></trkpt><trkpt lat="42.3332688" lon="14.3015852"><ele>71.0</ele><time>2026-05-01T09:57:57.832Z</time></trkpt><trkpt lat="42.3331991" lon="14.3016264"><ele>71.0</ele><time>2026-05-01T09:57:58.832Z</time></trkpt><trkpt lat="42.3331188" lon="14.3016886"><ele>70.2</ele><time>2026-05-01T09:57:59.832Z</time></trkpt><trkpt lat="42.3330302" lon="14.3017566"><ele>69.39999999999999</ele><time>2026-05-01T09:58:00.832Z</time></trkpt><trkpt lat="42.3329322" lon="14.3018131"><ele>68.6</ele><time>2026-05-01T09:58:01.832Z</time></trkpt><trkpt lat="42.3328261" lon="14.3018414"><ele>67.8</ele><time>2026-05-01T09:58:02.832Z</time></trkpt><trkpt lat="42.3327183" lon="14.3018354"><ele>67.0</ele><time>2026-05-01T09:58:03.832Z</time></trkpt><trkpt lat="42.3326168" lon="14.3018156"><ele>67.0</ele><time>2026-05-01T09:58:04.831Z</time></trkpt><trkpt lat="42.3325177" lon="14.3017725"><ele>67.0</ele><time>2026-05-01T09:58:05.832Z</time></trkpt><trkpt lat="42.3324275" lon="14.3017338"><ele>67.0</ele><time>2026-05-01T09:58:06.832Z</time></trkpt><trkpt lat="42.3323407" lon="14.3016969"><ele>67.0</ele><time>2026-05-01T09:58:07.832Z</time></trkpt><trkpt lat="42.3322552" lon="14.3016575"><ele>67.0</ele><time>2026-05-01T09:58:08.832Z</time></trkpt><trkpt lat="42.3321592" lon="14.3016143"><ele>65.2</ele><time>2026-05-01T09:58:09.831Z</time></trkpt><trkpt lat="42.3320578" lon="14.3015649"><ele>63.400000000000006</ele><time>2026-05-01T09:58:10.831Z</time></trkpt><trkpt lat="42.3319572" lon="14.3015112"><ele>61.599999999999994</ele><time>2026-05-01T09:58:11.832Z</time></trkpt><trkpt lat="42.3318672" lon="14.3014575"><ele>59.8</ele><time>2026-05-01T09:58:12.832Z</time></trkpt><trkpt lat="42.3317733" lon="14.3014046"><ele>58.0</ele><time>2026-05-01T09:58:13.832Z</time></trkpt><trkpt lat="42.3316801" lon="14.3013505"><ele>59.4</ele><time>2026-05-01T09:58:14.832Z</time></trkpt><trkpt lat="42.3315909" lon="14.3012984"><ele>60.8</ele><time>2026-05-01T09:58:15.832Z</time></trkpt><trkpt lat="42.3315059" lon="14.3012481"><ele>62.2</ele><time>2026-05-01T09:58:16.832Z</time></trkpt><trkpt lat="42.3314205" lon="14.3011992"><ele>63.6</ele><time>2026-05-01T09:58:17.832Z</time></trkpt><trkpt lat="42.3313372" lon="14.3011439"><ele>65.0</ele><time>2026-05-01T09:58:18.832Z</time></trkpt><trkpt lat="42.3312478" lon="14.3010892"><ele>65.0</ele><time>2026-05-01T09:58:19.832Z</time></trkpt><trkpt lat="42.3311579" lon="14.3010256"><ele>65.0</ele><time>2026-05-01T09:58:20.832Z</time></trkpt><trkpt lat="42.33106" lon="14.3009627"><ele>65.0</ele><time>2026-05-01T09:58:21.831Z</time></trkpt><trkpt lat="42.3309561" lon="14.3008906"><ele>65.0</ele><time>2026-05-01T09:58:22.832Z</time></trkpt><trkpt lat="42.3308488" lon="14.3008138"><ele>65.0</ele><time>2026-05-01T09:58:23.832Z</time></trkpt><trkpt lat="42.3307377" lon="14.3007265"><ele>65.0</ele><time>2026-05-01T09:58:24.832Z</time></trkpt><trkpt lat="42.3306191" lon="14.3006563"><ele>65.0</ele><time>2026-05-01T09:58:25.832Z</time></trkpt><trkpt lat="42.3304929" lon="14.3006025"><ele>65.0</ele><time>2026-05-01T09:58:26.831Z</time></trkpt><trkpt lat="42.3303648" lon="14.3005549"><ele>65.0</ele><time>2026-05-01T09:58:27.832Z</time></trkpt><trkpt lat="42.3302381" lon="14.3005136"><ele>64.75</ele><time>2026-05-01T09:58:28.832Z</time></trkpt><trkpt lat="42.330119" lon="14.3004735"><ele>64.5</ele><time>2026-05-01T09:58:29.831Z</time></trkpt><trkpt lat="42.3300061" lon="14.3004445"><ele>64.25</ele><time>2026-05-01T09:58:30.832Z</time></trkpt><trkpt lat="42.3298864" lon="14.3004202"><ele>64.0</ele><time>2026-05-01T09:58:31.832Z</time></trkpt><trkpt lat="42.329772" lon="14.3003961"><ele>64.0</ele><time>2026-05-01T09:58:32.831Z</time></trkpt><trkpt lat="42.329658" lon="14.3003636"><ele>64.0</ele><time>2026-05-01T09:58:33.832Z</time></trkpt><trkpt lat="42.3295388" lon="14.3003331"><ele>64.0</ele><time>2026-05-01T09:58:34.831Z</time></trkpt><trkpt lat="42.3294197" lon="14.3003039"><ele>64.0</ele><time>2026-05-01T09:58:35.832Z</time></trkpt><trkpt lat="42.3292987" lon="14.3002674"><ele>64.0</ele><time>2026-05-01T09:58:36.832Z</time></trkpt><trkpt lat="42.3291803" lon="14.300234"><ele>64.0</ele><time>2026-05-01T09:58:37.832Z</time></trkpt><trkpt lat="42.329061" lon="14.3001993"><ele>64.0</ele><time>2026-05-01T09:58:38.832Z</time></trkpt><trkpt lat="42.3289361" lon="14.3001641"><ele>64.0</ele><time>2026-05-01T09:58:39.832Z</time></trkpt><trkpt lat="42.3288119" lon="14.3001308"><ele>63.5</ele><time>2026-05-01T09:58:40.832Z</time></trkpt><trkpt lat="42.3286889" lon="14.3000994"><ele>63.0</ele><time>2026-05-01T09:58:41.832Z</time></trkpt><trkpt lat="42.3285748" lon="14.3000645"><ele>62.5</ele><time>2026-05-01T09:58:42.832Z</time></trkpt><trkpt lat="42.3284683" lon="14.3000203"><ele>62.0</ele><time>2026-05-01T09:58:43.832Z</time></trkpt><trkpt lat="42.3283609" lon="14.2999737"><ele>62.0</ele><time>2026-05-01T09:58:44.831Z</time></trkpt><trkpt lat="42.3282674" lon="14.2999252"><ele>62.0</ele><time>2026-05-01T09:58:45.831Z</time></trkpt><trkpt lat="42.3281796" lon="14.2998768"><ele>62.0</ele><time>2026-05-01T09:58:46.832Z</time></trkpt><trkpt lat="42.3280856" lon="14.2998386"><ele>62.0</ele><time>2026-05-01T09:58:47.832Z</time></trkpt><trkpt lat="42.327988" lon="14.2997918"><ele>62.0</ele><time>2026-05-01T09:58:48.832Z</time></trkpt><trkpt lat="42.3278925" lon="14.2997437"><ele>63.25</ele><time>2026-05-01T09:58:49.832Z</time></trkpt><trkpt lat="42.3277916" lon="14.2996924"><ele>64.5</ele><time>2026-05-01T09:58:50.831Z</time></trkpt><trkpt lat="42.3276834" lon="14.299628"><ele>65.75</ele><time>2026-05-01T09:58:51.832Z</time></trkpt><trkpt lat="42.3275792" lon="14.2995594"><ele>67.0</ele><time>2026-05-01T09:58:52.832Z</time></trkpt><trkpt lat="42.3274745" lon="14.2994891"><ele>67.0</ele><time>2026-05-01T09:58:53.831Z</time></trkpt><trkpt lat="42.3273692" lon="14.2994246"><ele>67.0</ele><time>2026-05-01T09:58:54.832Z</time></trkpt><trkpt lat="42.3272609" lon="14.2993551"><ele>67.0</ele><time>2026-05-01T09:58:55.832Z</time></trkpt><trkpt lat="42.3271464" lon="14.2992895"><ele>67.0</ele><time>2026-05-01T09:58:56.832Z</time></trkpt><trkpt lat="42.3270291" lon="14.299227"><ele>66.5</ele><time>2026-05-01T09:58:57.831Z</time></trkpt><trkpt lat="42.3269091" lon="14.2991562"><ele>66.0</ele><time>2026-05-01T09:58:58.832Z</time></trkpt><trkpt lat="42.3267849" lon="14.2990848"><ele>65.5</ele><time>2026-05-01T09:58:59.832Z</time></trkpt><trkpt lat="42.3266536" lon="14.2989977"><ele>65.0</ele><time>2026-05-01T09:59:00.831Z</time></trkpt><trkpt lat="42.3265143" lon="14.2989074"><ele>66.5</ele><time>2026-05-01T09:59:01.832Z</time></trkpt><trkpt lat="42.3263839" lon="14.298822"><ele>68.0</ele><time>2026-05-01T09:59:02.832Z</time></trkpt><trkpt lat="42.3262673" lon="14.2987434"><ele>69.5</ele><time>2026-05-01T09:59:03.832Z</time></trkpt><trkpt lat="42.3261678" lon="14.2986629"><ele>71.0</ele><time>2026-05-01T09:59:04.831Z</time></trkpt><trkpt lat="42.326097" lon="14.2985773"><ele>71.0</ele><time>2026-05-01T09:59:05.831Z</time></trkpt><trkpt lat="42.3260454" lon="14.2984863"><ele>71.0</ele><time>2026-05-01T09:59:06.832Z</time></trkpt><trkpt lat="42.3260149" lon="14.2983884"><ele>71.0</ele><time>2026-05-01T09:59:07.832Z</time></trkpt><trkpt lat="42.325994" lon="14.298289"><ele>71.0</ele><time>2026-05-01T09:59:08.832Z</time></trkpt><trkpt lat="42.3259672" lon="14.2981918"><ele>71.0</ele><time>2026-05-01T09:59:09.832Z</time></trkpt><trkpt lat="42.3259244" lon="14.2981036"><ele>71.0</ele><time>2026-05-01T09:59:10.832Z</time></trkpt><trkpt lat="42.3258688" lon="14.2980457"><ele>71.83333333333334</ele><time>2026-05-01T09:59:11.832Z</time></trkpt><trkpt lat="42.3258083" lon="14.2980114"><ele>72.66666666666667</ele><time>2026-05-01T09:59:12.831Z</time></trkpt><trkpt lat="42.3257439" lon="14.298"><ele>73.5</ele><time>2026-05-01T09:59:13.832Z</time></trkpt><trkpt lat="42.3256775" lon="14.2980103"><ele>74.33333333333333</ele><time>2026-05-01T09:59:14.832Z</time></trkpt><trkpt lat="42.3255502" lon="14.298039"><ele>75.16666666666666</ele><time>2026-05-01T09:59:16.832Z</time></trkpt><trkpt lat="42.3254781" lon="14.2980677"><ele>76.0</ele><time>2026-05-01T09:59:17.832Z</time></trkpt><trkpt lat="42.3253969" lon="14.2981097"><ele>76.0</ele><time>2026-05-01T09:59:18.832Z</time></trkpt><trkpt lat="42.3253171" lon="14.298149"><ele>76.0</ele><time>2026-05-01T09:59:19.832Z</time></trkpt><trkpt lat="42.3252284" lon="14.2981849"><ele>76.0</ele><time>2026-05-01T09:59:20.832Z</time></trkpt><trkpt lat="42.3251308" lon="14.2982397"><ele>76.0</ele><time>2026-05-01T09:59:21.832Z</time></trkpt><trkpt lat="42.3250297" lon="14.2982917"><ele>76.0</ele><time>2026-05-01T09:59:22.832Z</time></trkpt><trkpt lat="42.3249303" lon="14.2983417"><ele>76.0</ele><time>2026-05-01T09:59:23.832Z</time></trkpt><trkpt lat="42.3248427" lon="14.2983797"><ele>76.0</ele><time>2026-05-01T09:59:24.831Z</time></trkpt><trkpt lat="42.3247608" lon="14.2984044"><ele>76.0</ele><time>2026-05-01T09:59:25.832Z</time></trkpt><trkpt lat="42.3246823" lon="14.2983914"><ele>76.0</ele><time>2026-05-01T09:59:26.831Z</time></trkpt><trkpt lat="42.324598" lon="14.2983605"><ele>76.0</ele><time>2026-05-01T09:59:27.832Z</time></trkpt><trkpt lat="42.3245114" lon="14.2983034"><ele>76.0</ele><time>2026-05-01T09:59:28.832Z</time></trkpt><trkpt lat="42.3244227" lon="14.298241"><ele>76.8</ele><time>2026-05-01T09:59:29.832Z</time></trkpt><trkpt lat="42.3243292" lon="14.2981705"><ele>77.6</ele><time>2026-05-01T09:59:30.832Z</time></trkpt><trkpt lat="42.3242311" lon="14.2980969"><ele>78.4</ele><time>2026-05-01T09:59:31.832Z</time></trkpt><trkpt lat="42.3241396" lon="14.2980296"><ele>79.2</ele><time>2026-05-01T09:59:32.831Z</time></trkpt><trkpt lat="42.3240547" lon="14.2979492"><ele>80.0</ele><time>2026-05-01T09:59:33.832Z</time></trkpt><trkpt lat="42.3239707" lon="14.297857"><ele>82.0</ele><time>2026-05-01T09:59:34.832Z</time></trkpt><trkpt lat="42.3238805" lon="14.2977709"><ele>84.0</ele><time>2026-05-01T09:59:35.832Z</time></trkpt><trkpt lat="42.3237907" lon="14.2976862"><ele>86.0</ele><time>2026-05-01T09:59:36.831Z</time></trkpt><trkpt lat="42.3236936" lon="14.2976057"><ele>88.0</ele><time>2026-05-01T09:59:37.832Z</time></trkpt><trkpt lat="42.3235868" lon="14.2975351"><ele>88.0</ele><time>2026-05-01T09:59:38.832Z</time></trkpt><trkpt lat="42.3234797" lon="14.2974717"><ele>88.0</ele><time>2026-05-01T09:59:39.832Z</time></trkpt><trkpt lat="42.3233801" lon="14.2974176"><ele>88.0</ele><time>2026-05-01T09:59:40.832Z</time></trkpt><trkpt lat="42.323279" lon="14.2973638"><ele>88.0</ele><time>2026-05-01T09:59:41.832Z</time></trkpt><trkpt lat="42.3231761" lon="14.2972957"><ele>88.0</ele><time>2026-05-01T09:59:42.832Z</time></trkpt><trkpt lat="42.3230736" lon="14.2972329"><ele>91.75</ele><time>2026-05-01T09:59:43.832Z</time></trkpt><trkpt lat="42.3229651" lon="14.297176"><ele>95.5</ele><time>2026-05-01T09:59:44.832Z</time></trkpt><trkpt lat="42.3228577" lon="14.29712"><ele>99.25</ele><time>2026-05-01T09:59:45.831Z</time></trkpt><trkpt lat="42.3227486" lon="14.2970708"><ele>103.0</ele><time>2026-05-01T09:59:46.832Z</time></trkpt><trkpt lat="42.3226397" lon="14.2970288"><ele>103.0</ele><time>2026-05-01T09:59:47.832Z</time></trkpt><trkpt lat="42.3225209" lon="14.2969876"><ele>103.0</ele><time>2026-05-01T09:59:48.832Z</time></trkpt><trkpt lat="42.3224004" lon="14.2969452"><ele>103.0</ele><time>2026-05-01T09:59:49.832Z</time></trkpt><trkpt lat="42.3222788" lon="14.2968977"><ele>103.0</ele><time>2026-05-01T09:59:50.832Z</time></trkpt><trkpt lat="42.322164" lon="14.2968566"><ele>102.25</ele><time>2026-05-01T09:59:51.831Z</time></trkpt><trkpt lat="42.3220507" lon="14.296816"><ele>101.5</ele><time>2026-05-01T09:59:52.832Z</time></trkpt><trkpt lat="42.3219332" lon="14.2967727"><ele>100.75</ele><time>2026-05-01T09:59:53.831Z</time></trkpt><trkpt lat="42.3218146" lon="14.2967319"><ele>100.0</ele><time>2026-05-01T09:59:54.832Z</time></trkpt><trkpt lat="42.3216929" lon="14.2966792"><ele>100.0</ele><time>2026-05-01T09:59:55.832Z</time></trkpt><trkpt lat="42.3215718" lon="14.2966231"><ele>100.0</ele><time>2026-05-01T09:59:56.832Z</time></trkpt><trkpt lat="42.3214551" lon="14.2965537"><ele>100.0</ele><time>2026-05-01T09:59:57.832Z</time></trkpt><trkpt lat="42.3213512" lon="14.2964518"><ele>100.0</ele><time>2026-05-01T09:59:58.831Z</time></trkpt><trkpt lat="42.3212696" lon="14.2963467"><ele>100.5</ele><time>2026-05-01T09:59:59.832Z</time></trkpt><trkpt lat="42.3211907" lon="14.2962303"><ele>101.0</ele><time>2026-05-01T10:00:00.832Z</time></trkpt><trkpt lat="42.321107" lon="14.2961123"><ele>101.5</ele><time>2026-05-01T10:00:01.832Z</time></trkpt><trkpt lat="42.3210233" lon="14.2960139"><ele>102.0</ele><time>2026-05-01T10:00:02.832Z</time></trkpt><trkpt lat="42.3209173" lon="14.2959226"><ele>102.0</ele><time>2026-05-01T10:00:03.832Z</time></trkpt><trkpt lat="42.3208073" lon="14.2958503"><ele>102.0</ele><time>2026-05-01T10:00:04.832Z</time></trkpt><trkpt lat="42.320696" lon="14.2957845"><ele>102.0</ele><time>2026-05-01T10:00:05.832Z</time></trkpt><trkpt lat="42.3205852" lon="14.2957223"><ele>102.0</ele><time>2026-05-01T10:00:06.832Z</time></trkpt><trkpt lat="42.3204773" lon="14.2956646"><ele>100.75</ele><time>2026-05-01T10:00:07.832Z</time></trkpt><trkpt lat="42.3203696" lon="14.295606"><ele>99.5</ele><time>2026-05-01T10:00:08.832Z</time></trkpt><trkpt lat="42.3202548" lon="14.2955449"><ele>98.25</ele><time>2026-05-01T10:00:09.832Z</time></trkpt><trkpt lat="42.3201393" lon="14.2954897"><ele>97.0</ele><time>2026-05-01T10:00:10.832Z</time></trkpt><trkpt lat="42.3200327" lon="14.2954382"><ele>99.16666666666667</ele><time>2026-05-01T10:00:11.832Z</time></trkpt><trkpt lat="42.3199378" lon="14.2953939"><ele>101.33333333333334</ele><time>2026-05-01T10:00:12.832Z</time></trkpt><trkpt lat="42.3198563" lon="14.2953442"><ele>103.5</ele><time>2026-05-01T10:00:13.832Z</time></trkpt><trkpt lat="42.319806" lon="14.2952907"><ele>105.66666666666666</ele><time>2026-05-01T10:00:14.831Z</time></trkpt><trkpt lat="42.3197829" lon="14.2951628"><ele>107.83333333333333</ele><time>2026-05-01T10:00:16.832Z</time></trkpt><trkpt lat="42.3197919" lon="14.2950757"><ele>110.0</ele><time>2026-05-01T10:00:17.832Z</time></trkpt><trkpt lat="42.3198018" lon="14.2949284"><ele>109.99999999999999</ele><time>2026-05-01T10:00:19.832Z</time></trkpt><trkpt lat="42.3197936" lon="14.2948361"><ele>110.0</ele><time>2026-05-01T10:00:21.832Z</time></trkpt><trkpt lat="42.3197512" lon="14.2947485"><ele>110.0</ele><time>2026-05-01T10:00:24.832Z</time></trkpt><trkpt lat="42.3196753" lon="14.2947101"><ele>110.0</ele><time>2026-05-01T10:00:26.832Z</time></trkpt><trkpt lat="42.3195781" lon="14.2948003"><ele>109.99999999999999</ele><time>2026-05-01T10:00:28.832Z</time></trkpt><trkpt lat="42.3195246" lon="14.2948742"><ele>110.0</ele><time>2026-05-01T10:00:29.832Z</time></trkpt><trkpt lat="42.3194295" lon="14.2949019"><ele>109.99999999999999</ele><time>2026-05-01T10:00:31.832Z</time></trkpt><trkpt lat="42.3193438" lon="14.2948157"><ele>110.0</ele><time>2026-05-01T10:00:33.832Z</time></trkpt><trkpt lat="42.3192984" lon="14.2947508"><ele>110.0</ele><time>2026-05-01T10:00:34.832Z</time></trkpt><trkpt lat="42.3192544" lon="14.294675"><ele>110.0</ele><time>2026-05-01T10:00:35.831Z</time></trkpt><trkpt lat="42.3192139" lon="14.2946"><ele>110.0</ele><time>2026-05-01T10:00:36.832Z</time></trkpt><trkpt lat="42.3191753" lon="14.2945309"><ele>109.99999999999999</ele><time>2026-05-01T10:00:37.831Z</time></trkpt><trkpt lat="42.3191242" lon="14.2944667"><ele>110.0</ele><time>2026-05-01T10:00:38.832Z</time></trkpt><trkpt lat="42.3190655" lon="14.2944075"><ele>109.99999999999999</ele><time>2026-05-01T10:00:39.832Z</time></trkpt><trkpt lat="42.3190065" lon="14.2943492"><ele>110.0</ele><time>2026-05-01T10:00:40.832Z</time></trkpt><trkpt lat="42.3189488" lon="14.2942864"><ele>110.0</ele><time>2026-05-01T10:00:41.832Z</time></trkpt><trkpt lat="42.3188937" lon="14.294208"><ele>110.0</ele><time>2026-05-01T10:00:42.832Z</time></trkpt><trkpt lat="42.3188394" lon="14.2941098"><ele>109.99999999999999</ele><time>2026-05-01T10:00:43.832Z</time></trkpt><trkpt lat="42.3187845" lon="14.2940031"><ele>110.0</ele><time>2026-05-01T10:00:44.832Z</time></trkpt><trkpt lat="42.3187324" lon="14.2938865"><ele>109.6</ele><time>2026-05-01T10:00:45.832Z</time></trkpt><trkpt lat="42.3186821" lon="14.2937667"><ele>109.2</ele><time>2026-05-01T10:00:46.831Z</time></trkpt><trkpt lat="42.3186327" lon="14.2936508"><ele>108.80000000000001</ele><time>2026-05-01T10:00:47.832Z</time></trkpt><trkpt lat="42.3185867" lon="14.293541"><ele>108.4</ele><time>2026-05-01T10:00:48.832Z</time></trkpt><trkpt lat="42.3185317" lon="14.2934406"><ele>108.0</ele><time>2026-05-01T10:00:49.832Z</time></trkpt><trkpt lat="42.3184754" lon="14.2933536"><ele>108.0</ele><time>2026-05-01T10:00:50.832Z</time></trkpt><trkpt lat="42.3184184" lon="14.293284"><ele>108.0</ele><time>2026-05-01T10:00:51.832Z</time></trkpt><trkpt lat="42.3183515" lon="14.2932293"><ele>108.0</ele><time>2026-05-01T10:00:52.831Z</time></trkpt><trkpt lat="42.3182783" lon="14.293191"><ele>108.0</ele><time>2026-05-01T10:00:53.832Z</time></trkpt><trkpt lat="42.3182083" lon="14.2931497"><ele>108.0</ele><time>2026-05-01T10:00:54.831Z</time></trkpt><trkpt lat="42.3181357" lon="14.2931048"><ele>108.0</ele><time>2026-05-01T10:00:55.832Z</time></trkpt><trkpt lat="42.3180647" lon="14.293052"><ele>108.33333333333333</ele><time>2026-05-01T10:00:56.832Z</time></trkpt><trkpt lat="42.3179856" lon="14.2929931"><ele>108.66666666666666</ele><time>2026-05-01T10:00:57.832Z</time></trkpt><trkpt lat="42.3179011" lon="14.2929396"><ele>109.0</ele><time>2026-05-01T10:00:58.832Z</time></trkpt><trkpt lat="42.3178176" lon="14.2928938"><ele>109.33333333333333</ele><time>2026-05-01T10:00:59.832Z</time></trkpt><trkpt lat="42.3177399" lon="14.2928603"><ele>109.66666666666666</ele><time>2026-05-01T10:01:00.832Z</time></trkpt><trkpt lat="42.3176738" lon="14.2928254"><ele>110.0</ele><time>2026-05-01T10:01:01.832Z</time></trkpt><trkpt lat="42.3176111" lon="14.2927894"><ele>109.99999999999999</ele><time>2026-05-01T10:01:02.831Z</time></trkpt><trkpt lat="42.3175424" lon="14.2927577"><ele>110.0</ele><time>2026-05-01T10:01:03.832Z</time></trkpt><trkpt lat="42.3174758" lon="14.2927081"><ele>110.0</ele><time>2026-05-01T10:01:04.832Z</time></trkpt><trkpt lat="42.3174081" lon="14.2926582"><ele>110.0</ele><time>2026-05-01T10:01:05.832Z</time></trkpt><trkpt lat="42.3173395" lon="14.2926217"><ele>109.99999999999999</ele><time>2026-05-01T10:01:06.832Z</time></trkpt><trkpt lat="42.317268" lon="14.2926032"><ele>110.0</ele><time>2026-05-01T10:01:07.832Z</time></trkpt><trkpt lat="42.3171904" lon="14.2926083"><ele>108.33333333333333</ele><time>2026-05-01T10:01:08.831Z</time></trkpt><trkpt lat="42.3171078" lon="14.2926339"><ele>106.66666666666666</ele><time>2026-05-01T10:01:09.832Z</time></trkpt><trkpt lat="42.3170256" lon="14.2926552"><ele>105.0</ele><time>2026-05-01T10:01:10.832Z</time></trkpt><trkpt lat="42.3169435" lon="14.2926696"><ele>103.33333333333334</ele><time>2026-05-01T10:01:11.832Z</time></trkpt><trkpt lat="42.3168629" lon="14.292674"><ele>101.66666666666667</ele><time>2026-05-01T10:01:12.831Z</time></trkpt><trkpt lat="42.3167742" lon="14.2926687"><ele>100.0</ele><time>2026-05-01T10:01:13.832Z</time></trkpt><trkpt lat="42.3166792" lon="14.2926592"><ele>100.00000000000001</ele><time>2026-05-01T10:01:14.832Z</time></trkpt><trkpt lat="42.3165882" lon="14.2926418"><ele>100.0</ele><time>2026-05-01T10:01:15.831Z</time></trkpt><trkpt lat="42.3165024" lon="14.2926265"><ele>100.0</ele><time>2026-05-01T10:01:16.832Z</time></trkpt><trkpt lat="42.3164203" lon="14.2926027"><ele>100.0</ele><time>2026-05-01T10:01:17.832Z</time></trkpt><trkpt lat="42.3163405" lon="14.2925599"><ele>100.00000000000001</ele><time>2026-05-01T10:01:18.832Z</time></trkpt><trkpt lat="42.3162633" lon="14.2924977"><ele>100.0</ele><time>2026-05-01T10:01:19.832Z</time></trkpt><trkpt lat="42.3161887" lon="14.2924254"><ele>100.33333333333334</ele><time>2026-05-01T10:01:20.832Z</time></trkpt><trkpt lat="42.3161192" lon="14.2923584"><ele>100.66666666666667</ele><time>2026-05-01T10:01:21.832Z</time></trkpt><trkpt lat="42.3160471" lon="14.2922936"><ele>101.0</ele><time>2026-05-01T10:01:22.832Z</time></trkpt><trkpt lat="42.3159688" lon="14.2922366"><ele>101.33333333333334</ele><time>2026-05-01T10:01:23.831Z</time></trkpt><trkpt lat="42.315883" lon="14.2921862"><ele>101.66666666666667</ele><time>2026-05-01T10:01:24.832Z</time></trkpt><trkpt lat="42.315796" lon="14.2921393"><ele>102.0</ele><time>2026-05-01T10:01:25.831Z</time></trkpt><trkpt lat="42.3157052" lon="14.2920983"><ele>102.0</ele><time>2026-05-01T10:01:26.832Z</time></trkpt><trkpt lat="42.3156153" lon="14.2920642"><ele>102.0</ele><time>2026-05-01T10:01:27.832Z</time></trkpt><trkpt lat="42.3155227" lon="14.2920316"><ele>102.0</ele><time>2026-05-01T10:01:28.831Z</time></trkpt><trkpt lat="42.3154252" lon="14.2920072"><ele>102.0</ele><time>2026-05-01T10:01:29.832Z</time></trkpt><trkpt lat="42.3153286" lon="14.29199"><ele>102.0</ele><time>2026-05-01T10:01:30.832Z</time></trkpt><trkpt lat="42.3152361" lon="14.291969"><ele>99.19999999999999</ele><time>2026-05-01T10:01:31.832Z</time></trkpt><trkpt lat="42.3151476" lon="14.2919434"><ele>96.4</ele><time>2026-05-01T10:01:32.832Z</time></trkpt><trkpt lat="42.3150595" lon="14.2919163"><ele>93.6</ele><time>2026-05-01T10:01:33.832Z</time></trkpt><trkpt lat="42.3149696" lon="14.2918841"><ele>90.80000000000001</ele><time>2026-05-01T10:01:34.832Z</time></trkpt><trkpt lat="42.3148801" lon="14.2918583"><ele>88.0</ele><time>2026-05-01T10:01:35.831Z</time></trkpt><trkpt lat="42.3147912" lon="14.291839"><ele>87.4</ele><time>2026-05-01T10:01:36.832Z</time></trkpt><trkpt lat="42.3146998" lon="14.2918207"><ele>86.80000000000001</ele><time>2026-05-01T10:01:37.832Z</time></trkpt><trkpt lat="42.3146085" lon="14.2918072"><ele>86.2</ele><time>2026-05-01T10:01:38.832Z</time></trkpt><trkpt lat="42.3145124" lon="14.2917846"><ele>85.6</ele><time>2026-05-01T10:01:39.832Z</time></trkpt><trkpt lat="42.3144161" lon="14.2917679"><ele>85.0</ele><time>2026-05-01T10:01:40.832Z</time></trkpt><trkpt lat="42.3143156" lon="14.2917476"><ele>85.0</ele><time>2026-05-01T10:01:41.832Z</time></trkpt><trkpt lat="42.3142154" lon="14.2917311"><ele>85.0</ele><time>2026-05-01T10:01:42.832Z</time></trkpt><trkpt lat="42.3141172" lon="14.2917196"><ele>85.0</ele><time>2026-05-01T10:01:43.832Z</time></trkpt><trkpt lat="42.314019" lon="14.2917147"><ele>85.0</ele><time>2026-05-01T10:01:44.832Z</time></trkpt><trkpt lat="42.3139252" lon="14.2917149"><ele>85.0</ele><time>2026-05-01T10:01:45.832Z</time></trkpt><trkpt lat="42.3138384" lon="14.2917133"><ele>85.33333333333333</ele><time>2026-05-01T10:01:46.832Z</time></trkpt><trkpt lat="42.3137743" lon="14.2917067"><ele>85.66666666666666</ele><time>2026-05-01T10:01:47.831Z</time></trkpt><trkpt lat="42.3137112" lon="14.2917352"><ele>86.0</ele><time>2026-05-01T10:01:49.832Z</time></trkpt><trkpt lat="42.3136442" lon="14.2917949"><ele>86.33333333333333</ele><time>2026-05-01T10:02:21.832Z</time></trkpt><trkpt lat="42.3135575" lon="14.2918228"><ele>86.66666666666667</ele><time>2026-05-01T10:02:23.832Z</time></trkpt><trkpt lat="42.3134372" lon="14.2918243"><ele>87.0</ele><time>2026-05-01T10:02:25.832Z</time></trkpt><trkpt lat="42.3133168" lon="14.2917985"><ele>87.0</ele><time>2026-05-01T10:02:27.832Z</time></trkpt><trkpt lat="42.31319" lon="14.2918099"><ele>87.0</ele><time>2026-05-01T10:02:29.832Z</time></trkpt><trkpt lat="42.313122" lon="14.2918315"><ele>87.0</ele><time>2026-05-01T10:02:30.832Z</time></trkpt><trkpt lat="42.3130576" lon="14.291839"><ele>87.0</ele><time>2026-05-01T10:02:31.832Z</time></trkpt><trkpt lat="42.3129688" lon="14.2918008"><ele>87.0</ele><time>2026-05-01T10:02:33.832Z</time></trkpt><trkpt lat="42.3128796" lon="14.2917276"><ele>87.16666666666667</ele><time>2026-05-01T10:02:35.832Z</time></trkpt><trkpt lat="42.3128327" lon="14.2915715"><ele>87.33333333333333</ele><time>2026-05-01T10:02:37.832Z</time></trkpt><trkpt lat="42.3128162" lon="14.2914679"><ele>87.5</ele><time>2026-05-01T10:02:38.831Z</time></trkpt><trkpt lat="42.3128012" lon="14.2913748"><ele>87.66666666666666</ele><time>2026-05-01T10:02:39.832Z</time></trkpt><trkpt lat="42.3127718" lon="14.2912973"><ele>87.83333333333333</ele><time>2026-05-01T10:02:40.832Z</time></trkpt><trkpt lat="42.3127105" lon="14.2912172"><ele>88.0</ele><time>2026-05-01T10:02:41.832Z</time></trkpt><trkpt lat="42.3126419" lon="14.2911492"><ele>89.0</ele><time>2026-05-01T10:02:42.832Z</time></trkpt><trkpt lat="42.312573" lon="14.291087"><ele>90.0</ele><time>2026-05-01T10:02:43.832Z</time></trkpt><trkpt lat="42.3125098" lon="14.2910473"><ele>91.0</ele><time>2026-05-01T10:02:44.832Z</time></trkpt><trkpt lat="42.3124458" lon="14.2910429"><ele>92.0</ele><time>2026-05-01T10:02:45.832Z</time></trkpt><trkpt lat="42.312372" lon="14.2910742"><ele>93.0</ele><time>2026-05-01T10:02:46.832Z</time></trkpt><trkpt lat="42.3122937" lon="14.2911014"><ele>94.0</ele><time>2026-05-01T10:02:47.832Z</time></trkpt><trkpt lat="42.3122106" lon="14.2911335"><ele>94.16666666666666</ele><time>2026-05-01T10:02:48.831Z</time></trkpt><trkpt lat="42.3121351" lon="14.2911743"><ele>94.33333333333333</ele><time>2026-05-01T10:02:49.832Z</time></trkpt><trkpt lat="42.312069" lon="14.2912144"><ele>94.5</ele><time>2026-05-01T10:02:50.832Z</time></trkpt><trkpt lat="42.3119544" lon="14.2912705"><ele>94.66666666666667</ele><time>2026-05-01T10:02:52.832Z</time></trkpt><trkpt lat="42.3118859" lon="14.291284"><ele>94.83333333333334</ele><time>2026-05-01T10:02:53.832Z</time></trkpt><trkpt lat="42.3118189" lon="14.2912851"><ele>95.0</ele><time>2026-05-01T10:02:54.832Z</time></trkpt><trkpt lat="42.3117027" lon="14.2912876"><ele>95.0</ele><time>2026-05-01T10:02:56.832Z</time></trkpt><trkpt lat="42.3116142" lon="14.2912773"><ele>95.0</ele><time>2026-05-01T10:02:58.832Z</time></trkpt><trkpt lat="42.3115463" lon="14.2913412"><ele>95.0</ele><time>2026-05-01T10:03:05.832Z</time></trkpt><trkpt lat="42.311479" lon="14.2913875"><ele>95.0</ele><time>2026-05-01T10:03:07.832Z</time></trkpt><trkpt lat="42.3113624" lon="14.2914447"><ele>95.0</ele><time>2026-05-01T10:03:09.832Z</time></trkpt><trkpt lat="42.3112459" lon="14.2914485"><ele>95.5</ele><time>2026-05-01T10:03:11.832Z</time></trkpt><trkpt lat="42.3111904" lon="14.2914045"><ele>96.0</ele><time>2026-05-01T10:03:12.832Z</time></trkpt><trkpt lat="42.3111225" lon="14.2913338"><ele>96.5</ele><time>2026-05-01T10:03:13.832Z</time></trkpt><trkpt lat="42.311062" lon="14.2912436"><ele>97.0</ele><time>2026-05-01T10:03:14.832Z</time></trkpt><trkpt lat="42.3109991" lon="14.2911371"><ele>97.49999999999999</ele><time>2026-05-01T10:03:15.831Z</time></trkpt><trkpt lat="42.3109394" lon="14.2910426"><ele>98.0</ele><time>2026-05-01T10:03:16.832Z</time></trkpt><trkpt lat="42.3108741" lon="14.29097"><ele>97.99999999999999</ele><time>2026-05-01T10:03:17.832Z</time></trkpt><trkpt lat="42.3108055" lon="14.290905"><ele>98.0</ele><time>2026-05-01T10:03:18.832Z</time></trkpt><trkpt lat="42.3107381" lon="14.2908587"><ele>98.0</ele><time>2026-05-01T10:03:19.831Z</time></trkpt><trkpt lat="42.3106601" lon="14.290815"><ele>98.0</ele><time>2026-05-01T10:03:20.832Z</time></trkpt><trkpt lat="42.3105665" lon="14.2907734"><ele>97.99999999999999</ele><time>2026-05-01T10:03:21.831Z</time></trkpt><trkpt lat="42.3104696" lon="14.290735"><ele>98.0</ele><time>2026-05-01T10:03:22.832Z</time></trkpt><trkpt lat="42.3103764" lon="14.2907082"><ele>100.0</ele><time>2026-05-01T10:03:23.831Z</time></trkpt><trkpt lat="42.3102847" lon="14.290694"><ele>102.0</ele><time>2026-05-01T10:03:24.832Z</time></trkpt><trkpt lat="42.3101793" lon="14.290693"><ele>104.00000000000001</ele><time>2026-05-01T10:03:25.832Z</time></trkpt><trkpt lat="42.3100721" lon="14.2906935"><ele>106.0</ele><time>2026-05-01T10:03:26.832Z</time></trkpt><trkpt lat="42.3099767" lon="14.2906909"><ele>108.0</ele><time>2026-05-01T10:03:27.832Z</time></trkpt><trkpt lat="42.3098796" lon="14.2906764"><ele>108.0</ele><time>2026-05-01T10:03:28.832Z</time></trkpt><trkpt lat="42.3097786" lon="14.290661"><ele>108.0</ele><time>2026-05-01T10:03:29.831Z</time></trkpt><trkpt lat="42.3096971" lon="14.2906349"><ele>108.0</ele><time>2026-05-01T10:03:30.832Z</time></trkpt><trkpt lat="42.309627" lon="14.2906013"><ele>108.0</ele><time>2026-05-01T10:03:32.832Z</time></trkpt><trkpt lat="42.3095524" lon="14.2906106"><ele>108.0</ele><time>2026-05-01T10:03:36.832Z</time></trkpt><trkpt lat="42.3094879" lon="14.2906976"><ele>108.0</ele><time>2026-05-01T10:04:55.831Z</time></trkpt><trkpt lat="42.3094311" lon="14.2907948"><ele>109.0</ele><time>2026-05-01T10:04:56.832Z</time></trkpt><trkpt lat="42.3093648" lon="14.2908766"><ele>110.0</ele><time>2026-05-01T10:04:57.832Z</time></trkpt><trkpt lat="42.3093021" lon="14.290949"><ele>111.0</ele><time>2026-05-01T10:04:58.832Z</time></trkpt><trkpt lat="42.3092515" lon="14.2910086"><ele>112.0</ele><time>2026-05-01T10:04:59.832Z</time></trkpt><trkpt lat="42.3091979" lon="14.2910593"><ele>113.0</ele><time>2026-05-01T10:05:00.832Z</time></trkpt><trkpt lat="42.3091365" lon="14.2911055"><ele>113.99999999999999</ele><time>2026-05-01T10:05:01.832Z</time></trkpt><trkpt lat="42.3090728" lon="14.2911541"><ele>114.99999999999999</ele><time>2026-05-01T10:05:02.832Z</time></trkpt><trkpt lat="42.3090009" lon="14.2912044"><ele>115.00000000000001</ele><time>2026-05-01T10:05:03.832Z</time></trkpt><trkpt lat="42.3089249" lon="14.2912503"><ele>115.0</ele><time>2026-05-01T10:05:04.832Z</time></trkpt><trkpt lat="42.3088439" lon="14.2912861"><ele>115.0</ele><time>2026-05-01T10:05:05.831Z</time></trkpt><trkpt lat="42.3087639" lon="14.2913113"><ele>115.0</ele><time>2026-05-01T10:05:06.832Z</time></trkpt><trkpt lat="42.3086932" lon="14.2913493"><ele>115.00000000000001</ele><time>2026-05-01T10:05:07.832Z</time></trkpt><trkpt lat="42.3086245" lon="14.291394"><ele>115.0</ele><time>2026-05-01T10:05:08.832Z</time></trkpt><trkpt lat="42.3085631" lon="14.2914352"><ele>114.66666666666667</ele><time>2026-05-01T10:05:09.832Z</time></trkpt><trkpt lat="42.3085034" lon="14.2914956"><ele>114.33333333333334</ele><time>2026-05-01T10:05:10.831Z</time></trkpt><trkpt lat="42.3084412" lon="14.2915672"><ele>114.0</ele><time>2026-05-01T10:05:11.832Z</time></trkpt><trkpt lat="42.3083779" lon="14.2916424"><ele>113.66666666666666</ele><time>2026-05-01T10:05:12.832Z</time></trkpt><trkpt lat="42.3083176" lon="14.2917139"><ele>113.33333333333333</ele><time>2026-05-01T10:05:13.832Z</time></trkpt><trkpt lat="42.3082664" lon="14.2917733"><ele>113.0</ele><time>2026-05-01T10:05:14.832Z</time></trkpt><trkpt lat="42.3082116" lon="14.2918411"><ele>113.0</ele><time>2026-05-01T10:05:15.832Z</time></trkpt><trkpt lat="42.3081579" lon="14.2919039"><ele>113.0</ele><time>2026-05-01T10:05:16.832Z</time></trkpt><trkpt lat="42.3081015" lon="14.2919591"><ele>113.0</ele><time>2026-05-01T10:05:17.832Z</time></trkpt><trkpt lat="42.3080418" lon="14.2920015"><ele>113.0</ele><time>2026-05-01T10:05:18.832Z</time></trkpt><trkpt lat="42.3079738" lon="14.2920393"><ele>113.0</ele><time>2026-05-01T10:05:19.832Z</time></trkpt><trkpt lat="42.3078965" lon="14.2920657"><ele>113.0</ele><time>2026-05-01T10:05:20.832Z</time></trkpt><trkpt lat="42.3078119" lon="14.2920933"><ele>113.0</ele><time>2026-05-01T10:05:21.831Z</time></trkpt><trkpt lat="42.3077305" lon="14.2921258"><ele>112.83333333333333</ele><time>2026-05-01T10:05:22.832Z</time></trkpt><trkpt lat="42.3076443" lon="14.2921641"><ele>112.66666666666666</ele><time>2026-05-01T10:05:23.832Z</time></trkpt><trkpt lat="42.3075677" lon="14.2922061"><ele>112.5</ele><time>2026-05-01T10:05:24.832Z</time></trkpt><trkpt lat="42.307501" lon="14.2922408"><ele>112.33333333333334</ele><time>2026-05-01T10:05:25.832Z</time></trkpt><trkpt lat="42.3074382" lon="14.2922665"><ele>112.16666666666667</ele><time>2026-05-01T10:05:26.831Z</time></trkpt><trkpt lat="42.3073424" lon="14.2923159"><ele>112.0</ele><time>2026-05-01T10:05:28.832Z</time></trkpt><trkpt lat="42.3072138" lon="14.2923492"><ele>112.50000000000001</ele><time>2026-05-01T10:05:30.832Z</time></trkpt><trkpt lat="42.3071332" lon="14.2923674"><ele>113.0</ele><time>2026-05-01T10:05:31.831Z</time></trkpt><trkpt lat="42.307045" lon="14.2923853"><ele>113.5</ele><time>2026-05-01T10:05:32.832Z</time></trkpt><trkpt lat="42.3069638" lon="14.2923946"><ele>114.0</ele><time>2026-05-01T10:05:33.831Z</time></trkpt><trkpt lat="42.3068888" lon="14.2924014"><ele>114.50000000000001</ele><time>2026-05-01T10:05:34.832Z</time></trkpt><trkpt lat="42.3068136" lon="14.2924257"><ele>115.0</ele><time>2026-05-01T10:05:35.832Z</time></trkpt><trkpt lat="42.3067311" lon="14.2924525"><ele>115.00000000000001</ele><time>2026-05-01T10:05:36.832Z</time></trkpt><trkpt lat="42.3066519" lon="14.2924864"><ele>115.0</ele><time>2026-05-01T10:05:37.832Z</time></trkpt><trkpt lat="42.3065791" lon="14.2925221"><ele>115.0</ele><time>2026-05-01T10:05:38.832Z</time></trkpt><trkpt lat="42.3065054" lon="14.2925574"><ele>115.0</ele><time>2026-05-01T10:05:39.832Z</time></trkpt><trkpt lat="42.3064254" lon="14.2925876"><ele>115.00000000000001</ele><time>2026-05-01T10:05:40.832Z</time></trkpt><trkpt lat="42.3063338" lon="14.2926096"><ele>115.0</ele><time>2026-05-01T10:05:41.832Z</time></trkpt><trkpt lat="42.3062509" lon="14.2926204"><ele>115.57142857142856</ele><time>2026-05-01T10:05:42.832Z</time></trkpt><trkpt lat="42.3061802" lon="14.2926272"><ele>116.14285714285714</ele><time>2026-05-01T10:05:43.832Z</time></trkpt><trkpt lat="42.3061111" lon="14.292625"><ele>116.71428571428571</ele><time>2026-05-01T10:05:44.832Z</time></trkpt><trkpt lat="42.3060435" lon="14.2926234"><ele>117.28571428571428</ele><time>2026-05-01T10:05:45.832Z</time></trkpt><trkpt lat="42.3059702" lon="14.2926171"><ele>117.85714285714286</ele><time>2026-05-01T10:05:46.832Z</time></trkpt><trkpt lat="42.305889" lon="14.2926114"><ele>118.42857142857143</ele><time>2026-05-01T10:05:47.831Z</time></trkpt><trkpt lat="42.3058044" lon="14.2926062"><ele>119.0</ele><time>2026-05-01T10:05:48.832Z</time></trkpt><trkpt lat="42.305711" lon="14.2925974"><ele>118.99999999999999</ele><time>2026-05-01T10:05:49.832Z</time></trkpt><trkpt lat="42.3056206" lon="14.2925861"><ele>119.0</ele><time>2026-05-01T10:05:50.832Z</time></trkpt><trkpt lat="42.3055446" lon="14.2925797"><ele>119.0</ele><time>2026-05-01T10:05:51.832Z</time></trkpt><trkpt lat="42.3054714" lon="14.2925746"><ele>119.0</ele><time>2026-05-01T10:05:52.832Z</time></trkpt><trkpt lat="42.3053965" lon="14.2925594"><ele>118.99999999999999</ele><time>2026-05-01T10:05:53.832Z</time></trkpt><trkpt lat="42.30532" lon="14.292543"><ele>119.0</ele><time>2026-05-01T10:05:54.832Z</time></trkpt><trkpt lat="42.3052503" lon="14.2925302"><ele>119.33333333333333</ele><time>2026-05-01T10:05:55.831Z</time></trkpt><trkpt lat="42.3051335" lon="14.2925258"><ele>119.66666666666666</ele><time>2026-05-01T10:05:57.832Z</time></trkpt><trkpt lat="42.3050428" lon="14.2925255"><ele>120.0</ele><time>2026-05-01T10:05:59.832Z</time></trkpt><trkpt lat="42.3049599" lon="14.2925334"><ele>120.33333333333334</ele><time>2026-05-01T10:06:01.832Z</time></trkpt><trkpt lat="42.3048913" lon="14.2925622"><ele>120.66666666666667</ele><time>2026-05-01T10:06:03.832Z</time></trkpt><trkpt lat="42.3048296" lon="14.2926298"><ele>121.0</ele><time>2026-05-01T10:06:05.832Z</time></trkpt><trkpt lat="42.3047443" lon="14.2927246"><ele>121.0</ele><time>2026-05-01T10:06:07.831Z</time></trkpt><trkpt lat="42.3046859" lon="14.292784"><ele>120.99999999999999</ele><time>2026-05-01T10:06:08.832Z</time></trkpt><trkpt lat="42.3046212" lon="14.2928406"><ele>121.0</ele><time>2026-05-01T10:06:09.832Z</time></trkpt><trkpt lat="42.3045607" lon="14.2928842"><ele>121.0</ele><time>2026-05-01T10:06:10.832Z</time></trkpt><trkpt lat="42.304497" lon="14.2929168"><ele>120.99999999999999</ele><time>2026-05-01T10:06:11.831Z</time></trkpt><trkpt lat="42.3044231" lon="14.2929436"><ele>121.0</ele><time>2026-05-01T10:06:12.832Z</time></trkpt><trkpt lat="42.3043542" lon="14.2929691"><ele>121.0</ele><time>2026-05-01T10:06:13.832Z</time></trkpt><trkpt lat="42.3042879" lon="14.2929902"><ele>121.0</ele><time>2026-05-01T10:06:14.832Z</time></trkpt><trkpt lat="42.3042209" lon="14.2930039"><ele>120.99999999999999</ele><time>2026-05-01T10:06:15.832Z</time></trkpt><trkpt lat="42.3041544" lon="14.2930157"><ele>121.0</ele><time>2026-05-01T10:06:16.832Z</time></trkpt><trkpt lat="42.3040792" lon="14.2930267"><ele>121.0</ele><time>2026-05-01T10:06:17.832Z</time></trkpt><trkpt lat="42.3040077" lon="14.2930402"><ele>120.99999999999999</ele><time>2026-05-01T10:06:18.832Z</time></trkpt><trkpt lat="42.3039274" lon="14.2930483"><ele>121.0</ele><time>2026-05-01T10:06:19.832Z</time></trkpt><trkpt lat="42.3038435" lon="14.293052"><ele>121.0</ele><time>2026-05-01T10:06:20.832Z</time></trkpt><trkpt lat="42.3037588" lon="14.2930496"><ele>120.0</ele><time>2026-05-01T10:06:21.832Z</time></trkpt><trkpt lat="42.3036723" lon="14.2930401"><ele>119.0</ele><time>2026-05-01T10:06:22.832Z</time></trkpt><trkpt lat="42.3035925" lon="14.2930345"><ele>118.0</ele><time>2026-05-01T10:06:23.832Z</time></trkpt><trkpt lat="42.3035244" lon="14.2930296"><ele>117.0</ele><time>2026-05-01T10:06:24.832Z</time></trkpt><trkpt lat="42.3034042" lon="14.2930182"><ele>116.0</ele><time>2026-05-01T10:06:26.832Z</time></trkpt><trkpt lat="42.3033001" lon="14.2930109"><ele>115.99999999999999</ele><time>2026-05-01T10:06:28.832Z</time></trkpt><trkpt lat="42.3031921" lon="14.2930028"><ele>116.0</ele><time>2026-05-01T10:06:30.831Z</time></trkpt><trkpt lat="42.3030704" lon="14.2929809"><ele>116.0</ele><time>2026-05-01T10:06:32.832Z</time></trkpt><trkpt lat="42.3029974" lon="14.2929696"><ele>116.0</ele><time>2026-05-01T10:06:33.832Z</time></trkpt><trkpt lat="42.3029253" lon="14.2929514"><ele>115.99999999999999</ele><time>2026-05-01T10:06:34.832Z</time></trkpt><trkpt lat="42.302855" lon="14.2929381"><ele>116.0</ele><time>2026-05-01T10:06:35.832Z</time></trkpt><trkpt lat="42.3027904" lon="14.2929256"><ele>116.00000000000001</ele><time>2026-05-01T10:06:36.832Z</time></trkpt><trkpt lat="42.3027189" lon="14.2929134"><ele>116.0</ele><time>2026-05-01T10:06:37.832Z</time></trkpt><trkpt lat="42.3026469" lon="14.2929062"><ele>116.00000000000001</ele><time>2026-05-01T10:06:38.832Z</time></trkpt><trkpt lat="42.3025755" lon="14.2929013"><ele>116.00000000000001</ele><time>2026-05-01T10:06:39.832Z</time></trkpt><trkpt lat="42.3025037" lon="14.2928898"><ele>116.0</ele><time>2026-05-01T10:06:40.832Z</time></trkpt><trkpt lat="42.3024318" lon="14.292882"><ele>116.00000000000001</ele><time>2026-05-01T10:06:41.832Z</time></trkpt><trkpt lat="42.3023524" lon="14.2928747"><ele>116.00000000000001</ele><time>2026-05-01T10:06:42.832Z</time></trkpt><trkpt lat="42.3022667" lon="14.2928652"><ele>116.16666666666666</ele><time>2026-05-01T10:06:43.832Z</time></trkpt><trkpt lat="42.3021778" lon="14.2928544"><ele>116.33333333333333</ele><time>2026-05-01T10:06:44.832Z</time></trkpt><trkpt lat="42.302082" lon="14.292832"><ele>116.5</ele><time>2026-05-01T10:06:45.832Z</time></trkpt><trkpt lat="42.301989" lon="14.2928157"><ele>116.66666666666666</ele><time>2026-05-01T10:06:46.832Z</time></trkpt><trkpt lat="42.3019059" lon="14.2928037"><ele>116.83333333333333</ele><time>2026-05-01T10:06:47.831Z</time></trkpt><trkpt lat="42.3018237" lon="14.2927903"><ele>117.0</ele><time>2026-05-01T10:06:48.832Z</time></trkpt><trkpt lat="42.3017353" lon="14.2927847"><ele>117.0</ele><time>2026-05-01T10:06:49.832Z</time></trkpt><trkpt lat="42.301642" lon="14.2927789"><ele>116.99999999999999</ele><time>2026-05-01T10:06:50.832Z</time></trkpt><trkpt lat="42.301544" lon="14.2927591"><ele>116.99999999999999</ele><time>2026-05-01T10:06:51.832Z</time></trkpt><trkpt lat="42.3014451" lon="14.2927374"><ele>117.0</ele><time>2026-05-01T10:06:52.832Z</time></trkpt><trkpt lat="42.3013466" lon="14.2927106"><ele>117.0</ele><time>2026-05-01T10:06:53.832Z</time></trkpt><trkpt lat="42.3012601" lon="14.2926844"><ele>117.5</ele><time>2026-05-01T10:06:54.832Z</time></trkpt><trkpt lat="42.3011775" lon="14.2926712"><ele>118.0</ele><time>2026-05-01T10:06:55.832Z</time></trkpt><trkpt lat="42.3011028" lon="14.2926551"><ele>118.5</ele><time>2026-05-01T10:06:56.832Z</time></trkpt><trkpt lat="42.3010268" lon="14.2926285"><ele>119.0</ele><time>2026-05-01T10:06:57.832Z</time></trkpt><trkpt lat="42.3009412" lon="14.2926034"><ele>119.5</ele><time>2026-05-01T10:06:58.832Z</time></trkpt><trkpt lat="42.3008523" lon="14.2925878"><ele>120.0</ele><time>2026-05-01T10:06:59.832Z</time></trkpt><trkpt lat="42.3007652" lon="14.2925814"><ele>120.0</ele><time>2026-05-01T10:07:00.831Z</time></trkpt><trkpt lat="42.3006769" lon="14.2925868"><ele>120.0</ele><time>2026-05-01T10:07:01.832Z</time></trkpt><trkpt lat="42.3005857" lon="14.2925869"><ele>120.0</ele><time>2026-05-01T10:07:02.832Z</time></trkpt><trkpt lat="42.3005047" lon="14.2925932"><ele>120.0</ele><time>2026-05-01T10:07:03.832Z</time></trkpt><trkpt lat="42.3004356" lon="14.2925902"><ele>120.0</ele><time>2026-05-01T10:07:04.832Z</time></trkpt><trkpt lat="42.3003737" lon="14.2925742"><ele>120.0</ele><time>2026-05-01T10:07:05.831Z</time></trkpt><trkpt lat="42.3002666" lon="14.2925164"><ele>120.16666666666667</ele><time>2026-05-01T10:07:07.832Z</time></trkpt><trkpt lat="42.3002066" lon="14.2924752"><ele>120.33333333333334</ele><time>2026-05-01T10:07:08.831Z</time></trkpt><trkpt lat="42.3001454" lon="14.2924337"><ele>120.5</ele><time>2026-05-01T10:07:09.831Z</time></trkpt><trkpt lat="42.3000854" lon="14.2923809"><ele>120.66666666666667</ele><time>2026-05-01T10:07:10.832Z</time></trkpt><trkpt lat="42.3000277" lon="14.2923253"><ele>120.83333333333334</ele><time>2026-05-01T10:07:11.832Z</time></trkpt><trkpt lat="42.2999703" lon="14.2922732"><ele>121.0</ele><time>2026-05-01T10:07:12.832Z</time></trkpt><trkpt lat="42.299883" lon="14.2921874"><ele>122.83333333333334</ele><time>2026-05-01T10:07:14.832Z</time></trkpt><trkpt lat="42.2998151" lon="14.2921385"><ele>124.66666666666667</ele><time>2026-05-01T10:07:16.832Z</time></trkpt><trkpt lat="42.2997392" lon="14.2921393"><ele>126.5</ele><time>2026-05-01T10:07:18.832Z</time></trkpt><trkpt lat="42.2996745" lon="14.2921691"><ele>128.33333333333334</ele><time>2026-05-01T10:07:19.832Z</time></trkpt><trkpt lat="42.299592" lon="14.2921859"><ele>130.16666666666666</ele><time>2026-05-01T10:07:20.831Z</time></trkpt><trkpt lat="42.29951" lon="14.2921987"><ele>132.0</ele><time>2026-05-01T10:07:21.832Z</time></trkpt><trkpt lat="42.2994284" lon="14.292196"><ele>132.16666666666666</ele><time>2026-05-01T10:07:22.832Z</time></trkpt><trkpt lat="42.299344" lon="14.2921834"><ele>132.33333333333334</ele><time>2026-05-01T10:07:23.831Z</time></trkpt><trkpt lat="42.2992661" lon="14.2921693"><ele>132.5</ele><time>2026-05-01T10:07:24.832Z</time></trkpt><trkpt lat="42.2991816" lon="14.2921474"><ele>132.66666666666669</ele><time>2026-05-01T10:07:25.832Z</time></trkpt><trkpt lat="42.2990846" lon="14.292138"><ele>132.83333333333334</ele><time>2026-05-01T10:07:26.832Z</time></trkpt><trkpt lat="42.2989854" lon="14.2921387"><ele>133.0</ele><time>2026-05-01T10:07:27.832Z</time></trkpt><trkpt lat="42.2988807" lon="14.292147"><ele>133.20000000000002</ele><time>2026-05-01T10:07:28.832Z</time></trkpt><trkpt lat="42.2987797" lon="14.2921522"><ele>133.4</ele><time>2026-05-01T10:07:29.832Z</time></trkpt><trkpt lat="42.2986848" lon="14.2921549"><ele>133.60000000000002</ele><time>2026-05-01T10:07:30.832Z</time></trkpt><trkpt lat="42.2985897" lon="14.2921579"><ele>133.8</ele><time>2026-05-01T10:07:31.832Z</time></trkpt><trkpt lat="42.2984967" lon="14.292163"><ele>134.0</ele><time>2026-05-01T10:07:32.831Z</time></trkpt><trkpt lat="42.2984097" lon="14.2921735"><ele>134.0</ele><time>2026-05-01T10:07:33.832Z</time></trkpt><trkpt lat="42.2983282" lon="14.2921868"><ele>134.0</ele><time>2026-05-01T10:07:34.831Z</time></trkpt><trkpt lat="42.2982484" lon="14.2921892"><ele>134.0</ele><time>2026-05-01T10:07:35.831Z</time></trkpt><trkpt lat="42.2981696" lon="14.2921924"><ele>134.0</ele><time>2026-05-01T10:07:36.832Z</time></trkpt><trkpt lat="42.2981026" lon="14.2922035"><ele>134.0</ele><time>2026-05-01T10:07:37.832Z</time></trkpt><trkpt lat="42.2980415" lon="14.2922251"><ele>134.0</ele><time>2026-05-01T10:07:38.832Z</time></trkpt><trkpt lat="42.2979555" lon="14.2923379"><ele>131.2</ele><time>2026-05-01T10:07:40.832Z</time></trkpt><trkpt lat="42.2979351" lon="14.2924275"><ele>128.4</ele><time>2026-05-01T10:07:41.832Z</time></trkpt><trkpt lat="42.2979172" lon="14.292579"><ele>125.6</ele><time>2026-05-01T10:07:43.831Z</time></trkpt><trkpt lat="42.2979059" lon="14.292741"><ele>122.8</ele><time>2026-05-01T10:07:45.832Z</time></trkpt><trkpt lat="42.2978981" lon="14.2928878"><ele>120.0</ele><time>2026-05-01T10:07:47.832Z</time></trkpt><trkpt lat="42.2979022" lon="14.2929916"><ele>120.0</ele><time>2026-05-01T10:07:50.832Z</time></trkpt><trkpt lat="42.2978482" lon="14.2930454"><ele>120.0</ele><time>2026-05-01T10:07:53.831Z</time></trkpt><trkpt lat="42.2977879" lon="14.2929914"><ele>120.0</ele><time>2026-05-01T10:07:55.832Z</time></trkpt><trkpt lat="42.2976996" lon="14.2928863"><ele>120.0</ele><time>2026-05-01T10:07:57.831Z</time></trkpt><trkpt lat="42.2976044" lon="14.2927898"><ele>120.0</ele><time>2026-05-01T10:07:59.831Z</time></trkpt><trkpt lat="42.2975246" lon="14.2927032"><ele>120.0</ele><time>2026-05-01T10:08:01.832Z</time></trkpt><trkpt lat="42.2974396" lon="14.2926232"><ele>120.0</ele><time>2026-05-01T10:08:03.832Z</time></trkpt><trkpt lat="42.2973867" lon="14.2925713"><ele>120.0</ele><time>2026-05-01T10:08:04.832Z</time></trkpt><trkpt lat="42.2973294" lon="14.2925132"><ele>120.0</ele><time>2026-05-01T10:08:05.832Z</time></trkpt><trkpt lat="42.2972751" lon="14.2924619"><ele>120.0</ele><time>2026-05-01T10:08:06.831Z</time></trkpt><trkpt lat="42.2972211" lon="14.2924137"><ele>120.0</ele><time>2026-05-01T10:08:07.832Z</time></trkpt><trkpt lat="42.2971185" lon="14.2923252"><ele>123.0</ele><time>2026-05-01T10:08:09.832Z</time></trkpt><trkpt lat="42.2970271" lon="14.2922385"><ele>126.0</ele><time>2026-05-01T10:08:11.832Z</time></trkpt><trkpt lat="42.2969527" lon="14.2921524"><ele>129.0</ele><time>2026-05-01T10:08:13.832Z</time></trkpt><trkpt lat="42.2968962" lon="14.2921066"><ele>132.0</ele><time>2026-05-01T10:08:15.832Z</time></trkpt><trkpt lat="42.2968204" lon="14.2920384"><ele>135.0</ele><time>2026-05-01T10:08:17.832Z</time></trkpt><trkpt lat="42.2967192" lon="14.291963"><ele>135.0</ele><time>2026-05-01T10:08:19.832Z</time></trkpt><trkpt lat="42.2966098" lon="14.2918808"><ele>135.0</ele><time>2026-05-01T10:08:21.832Z</time></trkpt><trkpt lat="42.296552" lon="14.2918384"><ele>135.0</ele><time>2026-05-01T10:08:22.832Z</time></trkpt><trkpt lat="42.2964932" lon="14.2917997"><ele>135.0</ele><time>2026-05-01T10:08:23.832Z</time></trkpt><trkpt lat="42.2963862" lon="14.2917346"><ele>135.0</ele><time>2026-05-01T10:08:25.832Z</time></trkpt><trkpt lat="42.2962922" lon="14.2916789"><ele>134.6</ele><time>2026-05-01T10:08:27.832Z</time></trkpt><trkpt lat="42.2962225" lon="14.2916158"><ele>134.2</ele><time>2026-05-01T10:08:30.832Z</time></trkpt><trkpt lat="42.2962041" lon="14.2915327"><ele>133.8</ele><time>2026-05-01T10:08:32.832Z</time></trkpt><trkpt lat="42.2962407" lon="14.2914077"><ele>133.4</ele><time>2026-05-01T10:08:34.832Z</time></trkpt><trkpt lat="42.2962824" lon="14.2912794"><ele>133.0</ele><time>2026-05-01T10:08:36.832Z</time></trkpt><trkpt lat="42.2963233" lon="14.2911301"><ele>133.0</ele><time>2026-05-01T10:08:38.832Z</time></trkpt><trkpt lat="42.2963651" lon="14.2909808"><ele>133.0</ele><time>2026-05-01T10:08:40.832Z</time></trkpt><trkpt lat="42.296404" lon="14.2908266"><ele>133.0</ele><time>2026-05-01T10:08:42.832Z</time></trkpt><trkpt lat="42.2964245" lon="14.2907419"><ele>133.0</ele><time>2026-05-01T10:08:43.831Z</time></trkpt><trkpt lat="42.2964575" lon="14.2906657"><ele>133.0</ele><time>2026-05-01T10:08:44.832Z</time></trkpt><trkpt lat="42.2964931" lon="14.2905904"><ele>133.0</ele><time>2026-05-01T10:08:45.832Z</time></trkpt><trkpt lat="42.2965316" lon="14.2905203"><ele>139.0</ele><time>2026-05-01T10:08:46.832Z</time></trkpt><trkpt lat="42.2966089" lon="14.2904036"><ele>145.0</ele><time>2026-05-01T10:08:48.832Z</time></trkpt><trkpt lat="42.2966474" lon="14.2903334"><ele>151.0</ele><time>2026-05-01T10:08:49.832Z</time></trkpt><trkpt lat="42.2967084" lon="14.2902038"><ele>157.0</ele><time>2026-05-01T10:08:51.832Z</time></trkpt><trkpt lat="42.2967458" lon="14.2900956"><ele>163.0</ele><time>2026-05-01T10:08:54.832Z</time></trkpt><trkpt lat="42.2967662" lon="14.2900035"><ele>163.0</ele><time>2026-05-01T10:08:56.832Z</time></trkpt><trkpt lat="42.2968053" lon="14.2899208"><ele>163.0</ele><time>2026-05-01T10:08:58.832Z</time></trkpt><trkpt lat="42.2968526" lon="14.2898521"><ele>163.0</ele><time>2026-05-01T10:09:00.832Z</time></trkpt><trkpt lat="42.2969104" lon="14.2897642"><ele>163.0</ele><time>2026-05-01T10:09:02.832Z</time></trkpt><trkpt lat="42.2969591" lon="14.2896839"><ele>163.0</ele><time>2026-05-01T10:09:04.832Z</time></trkpt><trkpt lat="42.2970002" lon="14.2896112"><ele>163.0</ele><time>2026-05-01T10:09:06.832Z</time></trkpt><trkpt lat="42.2970404" lon="14.2895393"><ele>163.0</ele><time>2026-05-01T10:09:08.832Z</time></trkpt><trkpt lat="42.2970679" lon="14.2894513"><ele>165.16666666666669</ele><time>2026-05-01T10:09:10.832Z</time></trkpt><trkpt lat="42.2971019" lon="14.289362"><ele>167.33333333333334</ele><time>2026-05-01T10:09:12.832Z</time></trkpt><trkpt lat="42.297143" lon="14.2892718"><ele>169.5</ele><time>2026-05-01T10:09:14.832Z</time></trkpt><trkpt lat="42.2971964" lon="14.2891843"><ele>171.66666666666666</ele><time>2026-05-01T10:09:16.832Z</time></trkpt><trkpt lat="42.2972484" lon="14.289112"><ele>173.83333333333331</ele><time>2026-05-01T10:09:20.832Z</time></trkpt><trkpt lat="42.29734" lon="14.289088"><ele>176.0</ele><time>2026-05-01T10:09:23.832Z</time></trkpt><trkpt lat="42.2974433" lon="14.289125"><ele>177.33333333333331</ele><time>2026-05-01T10:09:25.831Z</time></trkpt><trkpt lat="42.2975158" lon="14.2891228"><ele>178.66666666666666</ele><time>2026-05-01T10:09:27.832Z</time></trkpt><trkpt lat="42.2974335" lon="14.2890493"><ele>180.0</ele><time>2026-05-01T10:10:25.832Z</time></trkpt><trkpt lat="42.2973215" lon="14.2890001"><ele>181.33333333333334</ele><time>2026-05-01T10:10:27.831Z</time></trkpt><trkpt lat="42.2972622" lon="14.2889654"><ele>182.66666666666669</ele><time>2026-05-01T10:10:28.832Z</time></trkpt><trkpt lat="42.2971861" lon="14.2889225"><ele>184.0</ele><time>2026-05-01T10:10:29.832Z</time></trkpt><trkpt lat="42.2970918" lon="14.2888753"><ele>185.25</ele><time>2026-05-01T10:10:30.832Z</time></trkpt><trkpt lat="42.2969762" lon="14.2888253"><ele>186.5</ele><time>2026-05-01T10:10:31.832Z</time></trkpt><trkpt lat="42.296852" lon="14.2887898"><ele>187.75</ele><time>2026-05-01T10:10:32.832Z</time></trkpt><trkpt lat="42.2967307" lon="14.2887525"><ele>189.0</ele><time>2026-05-01T10:10:33.831Z</time></trkpt><trkpt lat="42.296607" lon="14.2887193"><ele>189.0</ele><time>2026-05-01T10:10:34.832Z</time></trkpt><trkpt lat="42.2964865" lon="14.2886935"><ele>189.0</ele><time>2026-05-01T10:10:35.832Z</time></trkpt><trkpt lat="42.2963693" lon="14.288679"><ele>189.0</ele><time>2026-05-01T10:10:36.832Z</time></trkpt><trkpt lat="42.2962682" lon="14.2886731"><ele>189.0</ele><time>2026-05-01T10:10:37.832Z</time></trkpt><trkpt lat="42.2961754" lon="14.2886639"><ele>189.0</ele><time>2026-05-01T10:10:38.832Z</time></trkpt><trkpt lat="42.2960933" lon="14.2886333"><ele>185.83333333333334</ele><time>2026-05-01T10:10:39.832Z</time></trkpt><trkpt lat="42.2960191" lon="14.2885857"><ele>182.66666666666666</ele><time>2026-05-01T10:10:40.832Z</time></trkpt><trkpt lat="42.2959511" lon="14.2885221"><ele>179.5</ele><time>2026-05-01T10:10:41.832Z</time></trkpt><trkpt lat="42.2958933" lon="14.2884588"><ele>176.33333333333331</ele><time>2026-05-01T10:10:42.832Z</time></trkpt><trkpt lat="42.2958402" lon="14.2883946"><ele>173.16666666666666</ele><time>2026-05-01T10:10:43.832Z</time></trkpt><trkpt lat="42.2957941" lon="14.2883216"><ele>170.0</ele><time>2026-05-01T10:10:44.832Z</time></trkpt><trkpt lat="42.2957506" lon="14.2882374"><ele>170.0</ele><time>2026-05-01T10:10:45.832Z</time></trkpt><trkpt lat="42.2957125" lon="14.2881525"><ele>170.0</ele><time>2026-05-01T10:10:46.832Z</time></trkpt><trkpt lat="42.2956783" lon="14.2880717"><ele>170.0</ele><time>2026-05-01T10:10:47.832Z</time></trkpt><trkpt lat="42.2956338" lon="14.2879962"><ele>170.0</ele><time>2026-05-01T10:10:48.832Z</time></trkpt><trkpt lat="42.2955815" lon="14.287918"><ele>170.0</ele><time>2026-05-01T10:10:49.832Z</time></trkpt><trkpt lat="42.2955109" lon="14.2878556"><ele>170.0</ele><time>2026-05-01T10:10:50.832Z</time></trkpt><trkpt lat="42.2954242" lon="14.2877949"><ele>166.8</ele><time>2026-05-01T10:10:51.832Z</time></trkpt><trkpt lat="42.2953413" lon="14.2877302"><ele>163.6</ele><time>2026-05-01T10:10:52.832Z</time></trkpt><trkpt lat="42.2952738" lon="14.2876332"><ele>160.4</ele><time>2026-05-01T10:10:53.832Z</time></trkpt><trkpt lat="42.2951944" lon="14.2875129"><ele>157.2</ele><time>2026-05-01T10:10:54.832Z</time></trkpt><trkpt lat="42.2950989" lon="14.2874078"><ele>154.0</ele><time>2026-05-01T10:10:55.832Z</time></trkpt><trkpt lat="42.2950025" lon="14.2872908"><ele>156.5</ele><time>2026-05-01T10:10:56.832Z</time></trkpt><trkpt lat="42.2949171" lon="14.2871572"><ele>159.0</ele><time>2026-05-01T10:10:57.832Z</time></trkpt><trkpt lat="42.2948495" lon="14.2870112"><ele>161.5</ele><time>2026-05-01T10:10:58.832Z</time></trkpt><trkpt lat="42.294799" lon="14.286855"><ele>164.0</ele><time>2026-05-01T10:10:59.832Z</time></trkpt><trkpt lat="42.294751" lon="14.286699"><ele>160.25</ele><time>2026-05-01T10:11:00.832Z</time></trkpt><trkpt lat="42.2946868" lon="14.2865492"><ele>156.5</ele><time>2026-05-01T10:11:01.832Z</time></trkpt><trkpt lat="42.2946122" lon="14.2864085"><ele>152.75</ele><time>2026-05-01T10:11:02.832Z</time></trkpt><trkpt lat="42.2945356" lon="14.2862732"><ele>149.0</ele><time>2026-05-01T10:11:03.832Z</time></trkpt><trkpt lat="42.2944507" lon="14.2861444"><ele>149.0</ele><time>2026-05-01T10:11:04.832Z</time></trkpt><trkpt lat="42.294349" lon="14.2860342"><ele>149.0</ele><time>2026-05-01T10:11:05.832Z</time></trkpt><trkpt lat="42.2942384" lon="14.2859525"><ele>149.0</ele><time>2026-05-01T10:11:06.832Z</time></trkpt><trkpt lat="42.2941374" lon="14.28588"><ele>149.0</ele><time>2026-05-01T10:11:07.832Z</time></trkpt><trkpt lat="42.2940536" lon="14.285825"><ele>149.0</ele><time>2026-05-01T10:11:08.832Z</time></trkpt><trkpt lat="42.2939931" lon="14.2857796"><ele>149.0</ele><time>2026-05-01T10:11:09.832Z</time></trkpt><trkpt lat="42.2939348" lon="14.2857424"><ele>149.0</ele><time>2026-05-01T10:11:10.831Z</time></trkpt><trkpt lat="42.2938708" lon="14.285702"><ele>149.0</ele><time>2026-05-01T10:11:11.832Z</time></trkpt><trkpt lat="42.2938037" lon="14.285646"><ele>149.0</ele><time>2026-05-01T10:11:12.832Z</time></trkpt><trkpt lat="42.2937299" lon="14.2855847"><ele>149.0</ele><time>2026-05-01T10:11:13.832Z</time></trkpt><trkpt lat="42.293654" lon="14.2855129"><ele>148.0</ele><time>2026-05-01T10:11:14.832Z</time></trkpt><trkpt lat="42.2935771" lon="14.2854338"><ele>147.0</ele><time>2026-05-01T10:11:15.832Z</time></trkpt><trkpt lat="42.2934986" lon="14.2853465"><ele>146.0</ele><time>2026-05-01T10:11:16.832Z</time></trkpt><trkpt lat="42.2934252" lon="14.2852664"><ele>145.0</ele><time>2026-05-01T10:11:17.831Z</time></trkpt><trkpt lat="42.2933628" lon="14.2851919"><ele>144.0</ele><time>2026-05-01T10:11:18.831Z</time></trkpt><trkpt lat="42.2933226" lon="14.2851257"><ele>143.0</ele><time>2026-05-01T10:11:19.832Z</time></trkpt><trkpt lat="42.2932634" lon="14.2850567"><ele>143.0</ele><time>2026-05-01T10:11:21.832Z</time></trkpt><trkpt lat="42.293203" lon="14.2850083"><ele>143.0</ele><time>2026-05-01T10:11:28.832Z</time></trkpt><trkpt lat="42.2931092" lon="14.2849533"><ele>143.0</ele><time>2026-05-01T10:11:50.832Z</time></trkpt><trkpt lat="42.293034" lon="14.2849054"><ele>143.0</ele><time>2026-05-01T10:11:52.832Z</time></trkpt><trkpt lat="42.2929389" lon="14.2848457"><ele>143.0</ele><time>2026-05-01T10:11:54.832Z</time></trkpt><trkpt lat="42.2928358" lon="14.2847783"><ele>141.4</ele><time>2026-05-01T10:11:56.832Z</time></trkpt><trkpt lat="42.2927448" lon="14.2847316"><ele>139.8</ele><time>2026-05-01T10:11:58.832Z</time></trkpt><trkpt lat="42.2926625" lon="14.2846731"><ele>138.2</ele><time>2026-05-01T10:12:00.832Z</time></trkpt><trkpt lat="42.2925843" lon="14.2846004"><ele>136.6</ele><time>2026-05-01T10:12:02.832Z</time></trkpt><trkpt lat="42.2925037" lon="14.2845088"><ele>135.0</ele><time>2026-05-01T10:12:04.832Z</time></trkpt><trkpt lat="42.2924172" lon="14.284404"><ele>135.0</ele><time>2026-05-01T10:12:06.831Z</time></trkpt><trkpt lat="42.2923321" lon="14.2842974"><ele>135.0</ele><time>2026-05-01T10:12:08.832Z</time></trkpt><trkpt lat="42.2922469" lon="14.2841791"><ele>135.0</ele><time>2026-05-01T10:12:10.832Z</time></trkpt><trkpt lat="42.2922068" lon="14.2841096"><ele>135.0</ele><time>2026-05-01T10:12:11.832Z</time></trkpt><trkpt lat="42.2921664" lon="14.2840433"><ele>135.0</ele><time>2026-05-01T10:12:12.832Z</time></trkpt><trkpt lat="42.2920951" lon="14.2839339"><ele>137.2</ele><time>2026-05-01T10:12:14.832Z</time></trkpt><trkpt lat="42.2920451" lon="14.2838669"><ele>139.4</ele><time>2026-05-01T10:12:16.832Z</time></trkpt><trkpt lat="42.2919928" lon="14.283809"><ele>141.6</ele><time>2026-05-01T10:12:18.831Z</time></trkpt><trkpt lat="42.2919031" lon="14.2837241"><ele>143.8</ele><time>2026-05-01T10:12:20.832Z</time></trkpt><trkpt lat="42.2918086" lon="14.2836296"><ele>146.0</ele><time>2026-05-01T10:12:22.832Z</time></trkpt><trkpt lat="42.2917035" lon="14.2835241"><ele>146.0</ele><time>2026-05-01T10:12:24.832Z</time></trkpt><trkpt lat="42.2916475" lon="14.28347"><ele>146.0</ele><time>2026-05-01T10:12:25.832Z</time></trkpt><trkpt lat="42.2915881" lon="14.2834118"><ele>146.0</ele><time>2026-05-01T10:12:26.832Z</time></trkpt><trkpt lat="42.291521" lon="14.2833539"><ele>146.0</ele><time>2026-05-01T10:12:27.832Z</time></trkpt><trkpt lat="42.291453" lon="14.2832998"><ele>146.0</ele><time>2026-05-01T10:12:28.832Z</time></trkpt><trkpt lat="42.2913898" lon="14.283242"><ele>146.0</ele><time>2026-05-01T10:12:29.832Z</time></trkpt><trkpt lat="42.2913303" lon="14.2831805"><ele>145.33333333333331</ele><time>2026-05-01T10:12:30.832Z</time></trkpt><trkpt lat="42.2912754" lon="14.2831165"><ele>144.66666666666666</ele><time>2026-05-01T10:12:31.832Z</time></trkpt><trkpt lat="42.2912336" lon="14.2830492"><ele>144.0</ele><time>2026-05-01T10:12:32.832Z</time></trkpt><trkpt lat="42.2911688" lon="14.2829171"><ele>143.33333333333334</ele><time>2026-05-01T10:12:34.832Z</time></trkpt><trkpt lat="42.2911259" lon="14.2827657"><ele>142.66666666666669</ele><time>2026-05-01T10:12:36.832Z</time></trkpt><trkpt lat="42.291118" lon="14.282681"><ele>142.0</ele><time>2026-05-01T10:12:37.832Z</time></trkpt><trkpt lat="42.2911052" lon="14.2825129"><ele>143.6</ele><time>2026-05-01T10:12:39.832Z</time></trkpt><trkpt lat="42.2910844" lon="14.2823799"><ele>145.2</ele><time>2026-05-01T10:12:41.832Z</time></trkpt><trkpt lat="42.2910476" lon="14.2822803"><ele>146.8</ele><time>2026-05-01T10:12:43.832Z</time></trkpt><trkpt lat="42.2909895" lon="14.2821768"><ele>148.4</ele><time>2026-05-01T10:12:45.831Z</time></trkpt><trkpt lat="42.2909189" lon="14.2820634"><ele>150.0</ele><time>2026-05-01T10:12:47.831Z</time></trkpt><trkpt lat="42.2908567" lon="14.2819276"><ele>152.28571428571428</ele><time>2026-05-01T10:12:49.832Z</time></trkpt><trkpt lat="42.2908228" lon="14.2818415"><ele>154.57142857142856</ele><time>2026-05-01T10:12:50.831Z</time></trkpt><trkpt lat="42.2907945" lon="14.2817592"><ele>156.85714285714283</ele><time>2026-05-01T10:12:51.832Z</time></trkpt><trkpt lat="42.2907793" lon="14.2816756"><ele>159.14285714285714</ele><time>2026-05-01T10:12:52.832Z</time></trkpt><trkpt lat="42.2907734" lon="14.2815883"><ele>161.42857142857144</ele><time>2026-05-01T10:12:53.831Z</time></trkpt><trkpt lat="42.2907764" lon="14.2814908"><ele>163.7142857142857</ele><time>2026-05-01T10:12:54.832Z</time></trkpt><trkpt lat="42.2907924" lon="14.2813961"><ele>166.0</ele><time>2026-05-01T10:12:55.831Z</time></trkpt><trkpt lat="42.2907996" lon="14.2813083"><ele>168.16666666666669</ele><time>2026-05-01T10:12:56.832Z</time></trkpt><trkpt lat="42.2908095" lon="14.2812112"><ele>170.33333333333334</ele><time>2026-05-01T10:12:57.832Z</time></trkpt><trkpt lat="42.2908137" lon="14.2811167"><ele>172.5</ele><time>2026-05-01T10:12:58.832Z</time></trkpt><trkpt lat="42.2908181" lon="14.2809893"><ele>174.66666666666666</ele><time>2026-05-01T10:13:00.832Z</time></trkpt><trkpt lat="42.2908217" lon="14.280903"><ele>176.83333333333331</ele><time>2026-05-01T10:13:02.831Z</time></trkpt><trkpt lat="42.2908096" lon="14.2807597"><ele>179.0</ele><time>2026-05-01T10:13:04.832Z</time></trkpt><trkpt lat="42.2907916" lon="14.2806011"><ele>178.0</ele><time>2026-05-01T10:13:06.832Z</time></trkpt><trkpt lat="42.2907707" lon="14.2804555"><ele>177.0</ele><time>2026-05-01T10:13:08.832Z</time></trkpt><trkpt lat="42.2907203" lon="14.2803043"><ele>176.0</ele><time>2026-05-01T10:13:10.832Z</time></trkpt><trkpt lat="42.2906527" lon="14.2801744"><ele>175.0</ele><time>2026-05-01T10:13:12.832Z</time></trkpt><trkpt lat="42.290619" lon="14.2800964"><ele>174.0</ele><time>2026-05-01T10:13:13.832Z</time></trkpt><trkpt lat="42.2905512" lon="14.2799653"><ele>174.0</ele><time>2026-05-01T10:13:15.831Z</time></trkpt><trkpt lat="42.2905126" lon="14.2798552"><ele>174.0</ele><time>2026-05-01T10:13:17.832Z</time></trkpt><trkpt lat="42.290477" lon="14.2797228"><ele>174.0</ele><time>2026-05-01T10:13:19.832Z</time></trkpt><trkpt lat="42.2904599" lon="14.2796404"><ele>174.0</ele><time>2026-05-01T10:13:20.832Z</time></trkpt><trkpt lat="42.2904459" lon="14.279552"><ele>174.0</ele><time>2026-05-01T10:13:21.832Z</time></trkpt><trkpt lat="42.2904284" lon="14.2794139"><ele>174.0</ele><time>2026-05-01T10:13:23.832Z</time></trkpt><trkpt lat="42.2903998" lon="14.2793025"><ele>177.79999999999998</ele><time>2026-05-01T10:13:25.832Z</time></trkpt><trkpt lat="42.2903124" lon="14.279202"><ele>181.6</ele><time>2026-05-01T10:13:27.832Z</time></trkpt><trkpt lat="42.2902193" lon="14.2791354"><ele>185.4</ele><time>2026-05-01T10:13:29.832Z</time></trkpt><trkpt lat="42.2901351" lon="14.2790811"><ele>189.2</ele><time>2026-05-01T10:13:31.832Z</time></trkpt><trkpt lat="42.2900519" lon="14.2790144"><ele>193.0</ele><time>2026-05-01T10:13:33.832Z</time></trkpt><trkpt lat="42.2899683" lon="14.2789133"><ele>194.60000000000002</ele><time>2026-05-01T10:13:35.832Z</time></trkpt><trkpt lat="42.2899072" lon="14.2787574"><ele>196.20000000000002</ele><time>2026-05-01T10:13:37.832Z</time></trkpt><trkpt lat="42.2898725" lon="14.2785919"><ele>197.8</ele><time>2026-05-01T10:13:39.832Z</time></trkpt><trkpt lat="42.2898483" lon="14.2785034"><ele>199.4</ele><time>2026-05-01T10:13:40.832Z</time></trkpt><trkpt lat="42.2898197" lon="14.2784146"><ele>201.0</ele><time>2026-05-01T10:13:41.832Z</time></trkpt><trkpt lat="42.2897963" lon="14.2783162"><ele>201.0</ele><time>2026-05-01T10:13:42.832Z</time></trkpt><trkpt lat="42.2897779" lon="14.2782141"><ele>201.0</ele><time>2026-05-01T10:13:43.832Z</time></trkpt><trkpt lat="42.2897718" lon="14.2781215"><ele>201.0</ele><time>2026-05-01T10:13:44.832Z</time></trkpt><trkpt lat="42.2897438" lon="14.277954"><ele>201.0</ele><time>2026-05-01T10:13:46.831Z</time></trkpt><trkpt lat="42.2897164" lon="14.277853"><ele>201.0</ele><time>2026-05-01T10:13:47.832Z</time></trkpt><trkpt lat="42.2896878" lon="14.2777487"><ele>201.0</ele><time>2026-05-01T10:13:48.832Z</time></trkpt><trkpt lat="42.2896584" lon="14.2776573"><ele>200.60000000000002</ele><time>2026-05-01T10:13:49.832Z</time></trkpt><trkpt lat="42.2896299" lon="14.2775495"><ele>200.2</ele><time>2026-05-01T10:13:51.832Z</time></trkpt><trkpt lat="42.2895828" lon="14.2776257"><ele>199.8</ele><time>2026-05-01T10:14:26.832Z</time></trkpt><trkpt lat="42.2896214" lon="14.2775166"><ele>199.39999999999998</ele><time>2026-05-01T10:14:45.832Z</time></trkpt><trkpt lat="42.2896035" lon="14.2773413"><ele>199.0</ele><time>2026-05-01T10:14:47.832Z</time></trkpt><trkpt lat="42.2895702" lon="14.2772298"><ele>200.79999999999998</ele><time>2026-05-01T10:14:48.832Z</time></trkpt><trkpt lat="42.2895466" lon="14.2771057"><ele>202.6</ele><time>2026-05-01T10:14:49.832Z</time></trkpt><trkpt lat="42.2895414" lon="14.2769671"><ele>204.4</ele><time>2026-05-01T10:14:50.832Z</time></trkpt><trkpt lat="42.2895356" lon="14.2768167"><ele>206.2</ele><time>2026-05-01T10:14:51.832Z</time></trkpt><trkpt lat="42.2895336" lon="14.2766589"><ele>208.0</ele><time>2026-05-01T10:14:52.832Z</time></trkpt><trkpt lat="42.2895219" lon="14.2765047"><ele>209.2</ele><time>2026-05-01T10:14:53.832Z</time></trkpt><trkpt lat="42.2894959" lon="14.2763537"><ele>210.4</ele><time>2026-05-01T10:14:54.832Z</time></trkpt><trkpt lat="42.2894636" lon="14.276218"><ele>211.59999999999997</ele><time>2026-05-01T10:14:55.832Z</time></trkpt><trkpt lat="42.2894555" lon="14.2761032"><ele>212.79999999999998</ele><time>2026-05-01T10:14:56.832Z</time></trkpt><trkpt lat="42.2894564" lon="14.2759647"><ele>214.0</ele><time>2026-05-01T10:14:58.831Z</time></trkpt><trkpt lat="42.2893982" lon="14.2759134"><ele>213.99999999999997</ele><time>2026-05-01T10:15:00.831Z</time></trkpt><trkpt lat="42.2892866" lon="14.2759315"><ele>214.0</ele><time>2026-05-01T10:15:02.832Z</time></trkpt><trkpt lat="42.2892085" lon="14.275927"><ele>214.0</ele><time>2026-05-01T10:15:03.832Z</time></trkpt><trkpt lat="42.2891416" lon="14.2759187"><ele>214.0</ele><time>2026-05-01T10:15:04.832Z</time></trkpt><trkpt lat="42.2890577" lon="14.2759166"><ele>213.99999999999997</ele><time>2026-05-01T10:15:06.831Z</time></trkpt><trkpt lat="42.2889888" lon="14.2759202"><ele>214.0</ele><time>2026-05-01T10:15:31.832Z</time></trkpt><trkpt lat="42.2889163" lon="14.2758714"><ele>212.16666666666666</ele><time>2026-05-01T10:15:34.832Z</time></trkpt><trkpt lat="42.2888196" lon="14.2757961"><ele>210.33333333333331</ele><time>2026-05-01T10:15:36.832Z</time></trkpt><trkpt lat="42.2887581" lon="14.2757722"><ele>208.5</ele><time>2026-05-01T10:15:37.832Z</time></trkpt><trkpt lat="42.2886842" lon="14.2757432"><ele>206.66666666666669</ele><time>2026-05-01T10:15:38.832Z</time></trkpt><trkpt lat="42.2886179" lon="14.2757095"><ele>204.83333333333334</ele><time>2026-05-01T10:15:39.832Z</time></trkpt><trkpt lat="42.2885635" lon="14.2756638"><ele>203.0</ele><time>2026-05-01T10:15:40.831Z</time></trkpt><trkpt lat="42.2885095" lon="14.275615"><ele>203.2</ele><time>2026-05-01T10:15:41.832Z</time></trkpt><trkpt lat="42.2884225" lon="14.2755227"><ele>203.4</ele><time>2026-05-01T10:15:43.832Z</time></trkpt><trkpt lat="42.2883325" lon="14.2754806"><ele>203.6</ele><time>2026-05-01T10:15:45.832Z</time></trkpt><trkpt lat="42.2882496" lon="14.2754611"><ele>203.79999999999998</ele><time>2026-05-01T10:15:47.832Z</time></trkpt><trkpt lat="42.2881494" lon="14.2754681"><ele>204.0</ele><time>2026-05-01T10:15:49.832Z</time></trkpt><trkpt lat="42.2880339" lon="14.2754928"><ele>204.0</ele><time>2026-05-01T10:15:51.832Z</time></trkpt><trkpt lat="42.287916" lon="14.2755221"><ele>204.0</ele><time>2026-05-01T10:15:53.832Z</time></trkpt><trkpt lat="42.2878009" lon="14.2755478"><ele>204.0</ele><time>2026-05-01T10:15:55.832Z</time></trkpt><trkpt lat="42.287686" lon="14.2755368"><ele>204.0</ele><time>2026-05-01T10:15:57.832Z</time></trkpt><trkpt lat="42.2875889" lon="14.2754775"><ele>204.0</ele><time>2026-05-01T10:15:59.831Z</time></trkpt><trkpt lat="42.2875138" lon="14.2753915"><ele>204.0</ele><time>2026-05-01T10:16:01.832Z</time></trkpt><trkpt lat="42.2874741" lon="14.2752895"><ele>204.0</ele><time>2026-05-01T10:16:03.832Z</time></trkpt><trkpt lat="42.2874166" lon="14.2751506"><ele>204.0</ele><time>2026-05-01T10:16:05.831Z</time></trkpt><trkpt lat="42.2873869" lon="14.2750657"><ele>204.0</ele><time>2026-05-01T10:16:06.832Z</time></trkpt><trkpt lat="42.2873526" lon="14.2749738"><ele>204.0</ele><time>2026-05-01T10:16:07.832Z</time></trkpt><trkpt lat="42.2873182" lon="14.2748948"><ele>204.2</ele><time>2026-05-01T10:16:08.832Z</time></trkpt><trkpt lat="42.2872699" lon="14.2747559"><ele>204.39999999999998</ele><time>2026-05-01T10:16:10.831Z</time></trkpt><trkpt lat="42.2872103" lon="14.2746896"><ele>204.6</ele><time>2026-05-01T10:16:13.832Z</time></trkpt><trkpt lat="42.2871066" lon="14.2746941"><ele>204.8</ele><time>2026-05-01T10:16:16.831Z</time></trkpt><trkpt lat="42.2869934" lon="14.2747261"><ele>205.0</ele><time>2026-05-01T10:16:18.832Z</time></trkpt><trkpt lat="42.2869232" lon="14.2747458"><ele>205.0</ele><time>2026-05-01T10:16:20.832Z</time></trkpt><trkpt lat="42.2868479" lon="14.2747704"><ele>205.0</ele><time>2026-05-01T10:16:22.832Z</time></trkpt><trkpt lat="42.2867311" lon="14.2748144"><ele>205.0</ele><time>2026-05-01T10:16:24.832Z</time></trkpt><trkpt lat="42.2866244" lon="14.2748618"><ele>205.0</ele><time>2026-05-01T10:16:26.832Z</time></trkpt><trkpt lat="42.2865522" lon="14.2748713"><ele>205.0</ele><time>2026-05-01T10:16:28.831Z</time></trkpt><trkpt lat="42.2864784" lon="14.2748383"><ele>204.2</ele><time>2026-05-01T10:16:30.832Z</time></trkpt><trkpt lat="42.2863942" lon="14.2747639"><ele>203.4</ele><time>2026-05-01T10:16:32.832Z</time></trkpt><trkpt lat="42.2863017" lon="14.2746768"><ele>202.60000000000002</ele><time>2026-05-01T10:16:34.832Z</time></trkpt><trkpt lat="42.2862131" lon="14.2745813"><ele>201.8</ele><time>2026-05-01T10:16:36.832Z</time></trkpt><trkpt lat="42.2861478" lon="14.2744524"><ele>201.0</ele><time>2026-05-01T10:16:38.832Z</time></trkpt><trkpt lat="42.2861002" lon="14.2743517"><ele>201.0</ele><time>2026-05-01T10:16:40.832Z</time></trkpt><trkpt lat="42.286075" lon="14.2742515"><ele>201.0</ele><time>2026-05-01T10:16:42.832Z</time></trkpt><trkpt lat="42.2860609" lon="14.2741576"><ele>201.0</ele><time>2026-05-01T10:16:44.832Z</time></trkpt><trkpt lat="42.2860642" lon="14.2740397"><ele>201.0</ele><time>2026-05-01T10:16:46.832Z</time></trkpt><trkpt lat="42.2860967" lon="14.2739053"><ele>201.0</ele><time>2026-05-01T10:16:48.832Z</time></trkpt><trkpt lat="42.2861403" lon="14.2737821"><ele>201.0</ele><time>2026-05-01T10:16:50.832Z</time></trkpt><trkpt lat="42.286148" lon="14.2736629"><ele>203.60000000000002</ele><time>2026-05-01T10:16:53.831Z</time></trkpt><trkpt lat="42.2861208" lon="14.2735055"><ele>206.2</ele><time>2026-05-01T10:16:55.832Z</time></trkpt><trkpt lat="42.2860753" lon="14.2733845"><ele>208.79999999999998</ele><time>2026-05-01T10:16:57.831Z</time></trkpt><trkpt lat="42.2859996" lon="14.2732766"><ele>211.39999999999998</ele><time>2026-05-01T10:16:59.832Z</time></trkpt><trkpt lat="42.2859255" lon="14.2731629"><ele>214.0</ele><time>2026-05-01T10:17:01.832Z</time></trkpt><trkpt lat="42.2858494" lon="14.2730671"><ele>213.49999999999997</ele><time>2026-05-01T10:17:03.832Z</time></trkpt><trkpt lat="42.2857697" lon="14.2729431"><ele>213.0</ele><time>2026-05-01T10:17:05.832Z</time></trkpt><trkpt lat="42.2857304" lon="14.2728742"><ele>212.5</ele><time>2026-05-01T10:17:06.831Z</time></trkpt><trkpt lat="42.2856791" lon="14.2728114"><ele>212.0</ele><time>2026-05-01T10:17:07.832Z</time></trkpt><trkpt lat="42.2856175" lon="14.2727436"><ele>211.49999999999997</ele><time>2026-05-01T10:17:08.831Z</time></trkpt><trkpt lat="42.2855551" lon="14.2726807"><ele>211.0</ele><time>2026-05-01T10:17:09.832Z</time></trkpt><trkpt lat="42.2855037" lon="14.2726118"><ele>211.0</ele><time>2026-05-01T10:17:10.832Z</time></trkpt><trkpt lat="42.2854472" lon="14.2724753"><ele>211.0</ele><time>2026-05-01T10:17:12.832Z</time></trkpt><trkpt lat="42.2854018" lon="14.2723329"><ele>211.0</ele><time>2026-05-01T10:17:14.832Z</time></trkpt><trkpt lat="42.2853677" lon="14.2721954"><ele>211.0</ele><time>2026-05-01T10:17:16.832Z</time></trkpt><trkpt lat="42.2853331" lon="14.2720257"><ele>212.99999999999997</ele><time>2026-05-01T10:17:18.832Z</time></trkpt><trkpt lat="42.2853188" lon="14.2719349"><ele>215.0</ele><time>2026-05-01T10:17:19.832Z</time></trkpt><trkpt lat="42.2853145" lon="14.2718312"><ele>217.0</ele><time>2026-05-01T10:17:20.832Z</time></trkpt><trkpt lat="42.2853078" lon="14.2717113"><ele>219.0</ele><time>2026-05-01T10:17:21.832Z</time></trkpt><trkpt lat="42.2853062" lon="14.2715748"><ele>220.99999999999997</ele><time>2026-05-01T10:17:22.832Z</time></trkpt><trkpt lat="42.2852985" lon="14.2714452"><ele>223.0</ele><time>2026-05-01T10:17:23.832Z</time></trkpt><trkpt lat="42.2852922" lon="14.2713417"><ele>225.2</ele><time>2026-05-01T10:17:24.832Z</time></trkpt><trkpt lat="42.2852819" lon="14.2711758"><ele>227.4</ele><time>2026-05-01T10:17:26.832Z</time></trkpt><trkpt lat="42.2852797" lon="14.2710003"><ele>229.59999999999997</ele><time>2026-05-01T10:17:28.832Z</time></trkpt><trkpt lat="42.2852828" lon="14.2708936"><ele>231.79999999999998</ele><time>2026-05-01T10:17:29.832Z</time></trkpt><trkpt lat="42.2852947" lon="14.2707856"><ele>234.0</ele><time>2026-05-01T10:17:30.832Z</time></trkpt><trkpt lat="42.2853045" lon="14.2706746"><ele>235.5</ele><time>2026-05-01T10:17:31.832Z</time></trkpt><trkpt lat="42.2853104" lon="14.2705648"><ele>237.0</ele><time>2026-05-01T10:17:32.831Z</time></trkpt><trkpt lat="42.2853179" lon="14.2704647"><ele>238.5</ele><time>2026-05-01T10:17:33.831Z</time></trkpt><trkpt lat="42.2853267" lon="14.2702981"><ele>240.0</ele><time>2026-05-01T10:17:35.832Z</time></trkpt><trkpt lat="42.2853311" lon="14.2702114"><ele>241.5</ele><time>2026-05-01T10:17:36.832Z</time></trkpt><trkpt lat="42.2853422" lon="14.2701268"><ele>243.0</ele><time>2026-05-01T10:17:37.832Z</time></trkpt><trkpt lat="42.2853536" lon="14.2700411"><ele>243.0</ele><time>2026-05-01T10:17:38.831Z</time></trkpt><trkpt lat="42.2853667" lon="14.2699544"><ele>243.0</ele><time>2026-05-01T10:17:39.831Z</time></trkpt><trkpt lat="42.2854026" lon="14.2697909"><ele>243.0</ele><time>2026-05-01T10:17:41.832Z</time></trkpt><trkpt lat="42.2854224" lon="14.2697068"><ele>243.0</ele><time>2026-05-01T10:17:42.832Z</time></trkpt><trkpt lat="42.2854428" lon="14.2696213"><ele>243.0</ele><time>2026-05-01T10:17:43.832Z</time></trkpt><trkpt lat="42.2854632" lon="14.2695319"><ele>243.0</ele><time>2026-05-01T10:17:44.832Z</time></trkpt><trkpt lat="42.2854958" lon="14.2693715"><ele>245.0</ele><time>2026-05-01T10:17:46.832Z</time></trkpt><trkpt lat="42.2855233" lon="14.2692108"><ele>247.0</ele><time>2026-05-01T10:17:48.832Z</time></trkpt><trkpt lat="42.2855613" lon="14.2690588"><ele>249.0</ele><time>2026-05-01T10:17:50.832Z</time></trkpt><trkpt lat="42.2855861" lon="14.2689151"><ele>251.0</ele><time>2026-05-01T10:17:52.832Z</time></trkpt><trkpt lat="42.285596" lon="14.2687778"><ele>255.28571428571425</ele><time>2026-05-01T10:17:54.832Z</time></trkpt><trkpt lat="42.2856104" lon="14.268694"><ele>259.57142857142856</ele><time>2026-05-01T10:17:55.832Z</time></trkpt><trkpt lat="42.2856194" lon="14.2685967"><ele>263.8571428571429</ele><time>2026-05-01T10:17:56.832Z</time></trkpt><trkpt lat="42.285627" lon="14.2685083"><ele>268.1428571428571</ele><time>2026-05-01T10:17:57.832Z</time></trkpt><trkpt lat="42.2856337" lon="14.2684214"><ele>272.42857142857144</ele><time>2026-05-01T10:17:58.832Z</time></trkpt><trkpt lat="42.2856403" lon="14.2683327"><ele>276.7142857142857</ele><time>2026-05-01T10:17:59.832Z</time></trkpt><trkpt lat="42.2856427" lon="14.2682286"><ele>281.0</ele><time>2026-05-01T10:18:02.832Z</time></trkpt><trkpt lat="42.2856372" lon="14.2681009"><ele>280.5</ele><time>2026-05-01T10:18:05.832Z</time></trkpt><trkpt lat="42.2856156" lon="14.2679408"><ele>280.0</ele><time>2026-05-01T10:18:07.832Z</time></trkpt><trkpt lat="42.2855381" lon="14.2677887"><ele>279.5</ele><time>2026-05-01T10:18:09.832Z</time></trkpt><trkpt lat="42.2854768" lon="14.2676975"><ele>279.0</ele><time>2026-05-01T10:18:10.832Z</time></trkpt><trkpt lat="42.2854116" lon="14.2675922"><ele>279.0</ele><time>2026-05-01T10:18:11.832Z</time></trkpt><trkpt lat="42.2853427" lon="14.2674597"><ele>279.0</ele><time>2026-05-01T10:18:12.832Z</time></trkpt><trkpt lat="42.2852579" lon="14.267323"><ele>279.0</ele><time>2026-05-01T10:18:13.832Z</time></trkpt><trkpt lat="42.2851651" lon="14.2671893"><ele>279.0</ele><time>2026-05-01T10:18:14.832Z</time></trkpt><trkpt lat="42.2850709" lon="14.2670748"><ele>280.2</ele><time>2026-05-01T10:18:15.832Z</time></trkpt><trkpt lat="42.2849755" lon="14.2669894"><ele>281.4</ele><time>2026-05-01T10:18:16.832Z</time></trkpt><trkpt lat="42.2848974" lon="14.2669195"><ele>282.6</ele><time>2026-05-01T10:18:17.832Z</time></trkpt><trkpt lat="42.2848494" lon="14.2668614"><ele>283.8</ele><time>2026-05-01T10:18:18.832Z</time></trkpt><trkpt lat="42.2848066" lon="14.2667961"><ele>285.0</ele><time>2026-05-01T10:18:19.832Z</time></trkpt><trkpt lat="42.2847455" lon="14.266667"><ele>285.0</ele><time>2026-05-01T10:18:21.832Z</time></trkpt><trkpt lat="42.2847838" lon="14.2665057"><ele>285.0</ele><time>2026-05-01T10:18:23.832Z</time></trkpt><trkpt lat="42.2848154" lon="14.266423"><ele>285.0</ele><time>2026-05-01T10:18:24.832Z</time></trkpt><trkpt lat="42.2848455" lon="14.2663477"><ele>285.0</ele><time>2026-05-01T10:18:25.832Z</time></trkpt><trkpt lat="42.2848852" lon="14.2662685"><ele>285.0</ele><time>2026-05-01T10:18:26.832Z</time></trkpt><trkpt lat="42.2849324" lon="14.2661828"><ele>285.0</ele><time>2026-05-01T10:18:27.832Z</time></trkpt><trkpt lat="42.2849799" lon="14.2660913"><ele>284.8333333333333</ele><time>2026-05-01T10:18:28.831Z</time></trkpt><trkpt lat="42.2850232" lon="14.2660102"><ele>284.6666666666667</ele><time>2026-05-01T10:18:29.832Z</time></trkpt><trkpt lat="42.2850642" lon="14.2659264"><ele>284.5</ele><time>2026-05-01T10:18:30.832Z</time></trkpt><trkpt lat="42.2851135" lon="14.2658357"><ele>284.33333333333337</ele><time>2026-05-01T10:18:31.832Z</time></trkpt><trkpt lat="42.2851644" lon="14.2657438"><ele>284.1666666666667</ele><time>2026-05-01T10:18:32.832Z</time></trkpt><trkpt lat="42.2852196" lon="14.2656606"><ele>284.0</ele><time>2026-05-01T10:18:33.832Z</time></trkpt><trkpt lat="42.2852765" lon="14.2655799"><ele>282.6666666666667</ele><time>2026-05-01T10:18:34.832Z</time></trkpt><trkpt lat="42.2853266" lon="14.2655019"><ele>281.33333333333337</ele><time>2026-05-01T10:18:35.832Z</time></trkpt><trkpt lat="42.2853726" lon="14.2654281"><ele>280.0</ele><time>2026-05-01T10:18:36.831Z</time></trkpt><trkpt lat="42.2854168" lon="14.2653525"><ele>278.6666666666667</ele><time>2026-05-01T10:18:37.832Z</time></trkpt><trkpt lat="42.2854616" lon="14.2652729"><ele>277.3333333333333</ele><time>2026-05-01T10:18:38.832Z</time></trkpt><trkpt lat="42.2855236" lon="14.2652074"><ele>276.0</ele><time>2026-05-01T10:18:39.832Z</time></trkpt><trkpt lat="42.2855991" lon="14.2651618"><ele>274.5</ele><time>2026-05-01T10:18:40.832Z</time></trkpt><trkpt lat="42.2856739" lon="14.2651136"><ele>273.0</ele><time>2026-05-01T10:18:41.832Z</time></trkpt><trkpt lat="42.2857308" lon="14.2650762"><ele>271.5</ele><time>2026-05-01T10:18:42.831Z</time></trkpt><trkpt lat="42.2857762" lon="14.264982"><ele>270.0</ele><time>2026-05-01T10:18:44.832Z</time></trkpt><trkpt lat="42.2857468" lon="14.2648827"><ele>268.5</ele><time>2026-05-01T10:18:47.832Z</time></trkpt><trkpt lat="42.2857059" lon="14.2647266"><ele>267.0</ele><time>2026-05-01T10:18:49.832Z</time></trkpt><trkpt lat="42.2856722" lon="14.2646115"><ele>265.8</ele><time>2026-05-01T10:18:50.832Z</time></trkpt><trkpt lat="42.2856248" lon="14.2644874"><ele>264.6</ele><time>2026-05-01T10:18:51.832Z</time></trkpt><trkpt lat="42.2855663" lon="14.2643658"><ele>263.40000000000003</ele><time>2026-05-01T10:18:52.832Z</time></trkpt><trkpt lat="42.2855107" lon="14.2642554"><ele>262.2</ele><time>2026-05-01T10:18:53.832Z</time></trkpt><trkpt lat="42.2854615" lon="14.2641456"><ele>261.0</ele><time>2026-05-01T10:18:54.832Z</time></trkpt><trkpt lat="42.2854116" lon="14.2640273"><ele>260.6</ele><time>2026-05-01T10:18:55.831Z</time></trkpt><trkpt lat="42.2853597" lon="14.2639207"><ele>260.20000000000005</ele><time>2026-05-01T10:18:56.832Z</time></trkpt><trkpt lat="42.2853073" lon="14.2638136"><ele>259.79999999999995</ele><time>2026-05-01T10:18:57.832Z</time></trkpt><trkpt lat="42.2852643" lon="14.2637062"><ele>259.4</ele><time>2026-05-01T10:18:58.832Z</time></trkpt><trkpt lat="42.2852267" lon="14.2635877"><ele>259.0</ele><time>2026-05-01T10:18:59.832Z</time></trkpt><trkpt lat="42.2851994" lon="14.2634559"><ele>259.0</ele><time>2026-05-01T10:19:00.832Z</time></trkpt><trkpt lat="42.2852093" lon="14.263319"><ele>259.0</ele><time>2026-05-01T10:19:01.832Z</time></trkpt><trkpt lat="42.2852452" lon="14.2631852"><ele>259.0</ele><time>2026-05-01T10:19:02.832Z</time></trkpt><trkpt lat="42.2852837" lon="14.2630632"><ele>259.0</ele><time>2026-05-01T10:19:03.832Z</time></trkpt><trkpt lat="42.2852957" lon="14.262928"><ele>259.0</ele><time>2026-05-01T10:19:04.832Z</time></trkpt><trkpt lat="42.2852873" lon="14.2627937"><ele>258.0</ele><time>2026-05-01T10:19:05.832Z</time></trkpt><trkpt lat="42.2852465" lon="14.2626528"><ele>257.0</ele><time>2026-05-01T10:19:06.832Z</time></trkpt><trkpt lat="42.2851893" lon="14.2625164"><ele>256.0</ele><time>2026-05-01T10:19:07.832Z</time></trkpt><trkpt lat="42.285123" lon="14.2623867"><ele>255.0</ele><time>2026-05-01T10:19:08.832Z</time></trkpt><trkpt lat="42.2850586" lon="14.2622507"><ele>256.4</ele><time>2026-05-01T10:19:09.831Z</time></trkpt><trkpt lat="42.284994" lon="14.2621242"><ele>257.8</ele><time>2026-05-01T10:19:10.832Z</time></trkpt><trkpt lat="42.2849278" lon="14.2620036"><ele>259.2</ele><time>2026-05-01T10:19:11.831Z</time></trkpt><trkpt lat="42.2848638" lon="14.2618798"><ele>260.6</ele><time>2026-05-01T10:19:12.832Z</time></trkpt><trkpt lat="42.2848007" lon="14.2617558"><ele>262.0</ele><time>2026-05-01T10:19:13.832Z</time></trkpt><trkpt lat="42.284736" lon="14.2616277"><ele>262.0</ele><time>2026-05-01T10:19:14.832Z</time></trkpt><trkpt lat="42.2846702" lon="14.2614948"><ele>262.0</ele><time>2026-05-01T10:19:15.832Z</time></trkpt><trkpt lat="42.2846121" lon="14.2613596"><ele>262.0</ele><time>2026-05-01T10:19:16.832Z</time></trkpt><trkpt lat="42.2845617" lon="14.2612297"><ele>262.0</ele><time>2026-05-01T10:19:17.831Z</time></trkpt><trkpt lat="42.2845214" lon="14.2610892"><ele>259.6</ele><time>2026-05-01T10:19:18.832Z</time></trkpt><trkpt lat="42.2845117" lon="14.2609579"><ele>257.2</ele><time>2026-05-01T10:19:19.832Z</time></trkpt><trkpt lat="42.284538" lon="14.2608458"><ele>254.8</ele><time>2026-05-01T10:19:20.832Z</time></trkpt><trkpt lat="42.2845972" lon="14.2607624"><ele>252.4</ele><time>2026-05-01T10:19:21.832Z</time></trkpt><trkpt lat="42.2846725" lon="14.2607072"><ele>250.0</ele><time>2026-05-01T10:19:22.832Z</time></trkpt><trkpt lat="42.2847697" lon="14.2606696"><ele>249.0</ele><time>2026-05-01T10:19:23.832Z</time></trkpt><trkpt lat="42.2848769" lon="14.2606532"><ele>248.0</ele><time>2026-05-01T10:19:24.832Z</time></trkpt><trkpt lat="42.2849843" lon="14.2606336"><ele>247.0</ele><time>2026-05-01T10:19:25.832Z</time></trkpt><trkpt lat="42.2850911" lon="14.2606225"><ele>246.0</ele><time>2026-05-01T10:19:26.832Z</time></trkpt><trkpt lat="42.2851988" lon="14.2606113"><ele>245.0</ele><time>2026-05-01T10:19:27.832Z</time></trkpt><trkpt lat="42.2853164" lon="14.2605985"><ele>245.0</ele><time>2026-05-01T10:19:28.832Z</time></trkpt><trkpt lat="42.2854346" lon="14.2605792"><ele>245.0</ele><time>2026-05-01T10:19:29.832Z</time></trkpt><trkpt lat="42.2855471" lon="14.2605637"><ele>245.0</ele><time>2026-05-01T10:19:30.832Z</time></trkpt><trkpt lat="42.2856604" lon="14.2605582"><ele>245.0</ele><time>2026-05-01T10:19:31.831Z</time></trkpt><trkpt lat="42.2857787" lon="14.2605663"><ele>244.75</ele><time>2026-05-01T10:19:32.831Z</time></trkpt><trkpt lat="42.285891" lon="14.2605945"><ele>244.5</ele><time>2026-05-01T10:19:33.832Z</time></trkpt><trkpt lat="42.2859969" lon="14.2606399"><ele>244.25</ele><time>2026-05-01T10:19:34.832Z</time></trkpt><trkpt lat="42.2861021" lon="14.2606831"><ele>244.0</ele><time>2026-05-01T10:19:35.832Z</time></trkpt><trkpt lat="42.2862152" lon="14.2607225"><ele>244.0</ele><time>2026-05-01T10:19:36.832Z</time></trkpt><trkpt lat="42.2863319" lon="14.2607433"><ele>244.0</ele><time>2026-05-01T10:19:37.832Z</time></trkpt><trkpt lat="42.286455" lon="14.2607457"><ele>244.0</ele><time>2026-05-01T10:19:38.832Z</time></trkpt><trkpt lat="42.2865766" lon="14.2607266"><ele>244.0</ele><time>2026-05-01T10:19:39.832Z</time></trkpt><trkpt lat="42.286683" lon="14.2606978"><ele>244.66666666666666</ele><time>2026-05-01T10:19:40.832Z</time></trkpt><trkpt lat="42.2867628" lon="14.2606588"><ele>245.33333333333331</ele><time>2026-05-01T10:19:41.832Z</time></trkpt><trkpt lat="42.2868258" lon="14.2606026"><ele>246.0</ele><time>2026-05-01T10:19:42.831Z</time></trkpt><trkpt lat="42.2868745" lon="14.2605251"><ele>246.66666666666669</ele><time>2026-05-01T10:19:43.831Z</time></trkpt><trkpt lat="42.286903" lon="14.260421"><ele>247.33333333333334</ele><time>2026-05-01T10:19:44.832Z</time></trkpt><trkpt lat="42.2869046" lon="14.2603065"><ele>248.0</ele><time>2026-05-01T10:19:45.832Z</time></trkpt><trkpt lat="42.2868816" lon="14.2601799"><ele>251.0</ele><time>2026-05-01T10:19:46.832Z</time></trkpt><trkpt lat="42.2868465" lon="14.2600612"><ele>254.0</ele><time>2026-05-01T10:19:47.831Z</time></trkpt><trkpt lat="42.2867978" lon="14.2599401"><ele>257.0</ele><time>2026-05-01T10:19:48.832Z</time></trkpt><trkpt lat="42.2867372" lon="14.2598263"><ele>260.0</ele><time>2026-05-01T10:19:49.832Z</time></trkpt><trkpt lat="42.2866623" lon="14.2597197"><ele>263.0</ele><time>2026-05-01T10:19:50.832Z</time></trkpt><trkpt lat="42.2865808" lon="14.2596306"><ele>264.0</ele><time>2026-05-01T10:19:51.831Z</time></trkpt><trkpt lat="42.286481" lon="14.2595544"><ele>265.0</ele><time>2026-05-01T10:19:52.832Z</time></trkpt><trkpt lat="42.2863793" lon="14.2594884"><ele>266.0</ele><time>2026-05-01T10:19:53.832Z</time></trkpt><trkpt lat="42.2862834" lon="14.2594271"><ele>267.0</ele><time>2026-05-01T10:19:54.832Z</time></trkpt><trkpt lat="42.2861862" lon="14.2593666"><ele>268.0</ele><time>2026-05-01T10:19:55.832Z</time></trkpt><trkpt lat="42.2860894" lon="14.2593048"><ele>268.0</ele><time>2026-05-01T10:19:56.831Z</time></trkpt><trkpt lat="42.2859909" lon="14.259226"><ele>268.0</ele><time>2026-05-01T10:19:57.831Z</time></trkpt><trkpt lat="42.2858952" lon="14.2591337"><ele>268.0</ele><time>2026-05-01T10:19:58.832Z</time></trkpt><trkpt lat="42.2858039" lon="14.2590339"><ele>268.0</ele><time>2026-05-01T10:19:59.832Z</time></trkpt><trkpt lat="42.2857285" lon="14.258922"><ele>271.2</ele><time>2026-05-01T10:20:00.832Z</time></trkpt><trkpt lat="42.2856668" lon="14.2588015"><ele>274.4</ele><time>2026-05-01T10:20:01.832Z</time></trkpt><trkpt lat="42.2856341" lon="14.2586801"><ele>277.59999999999997</ele><time>2026-05-01T10:20:02.832Z</time></trkpt><trkpt lat="42.2856374" lon="14.2585548"><ele>280.8</ele><time>2026-05-01T10:20:03.832Z</time></trkpt><trkpt lat="42.2856802" lon="14.2584546"><ele>284.0</ele><time>2026-05-01T10:20:04.832Z</time></trkpt><trkpt lat="42.2857528" lon="14.2583978"><ele>284.0</ele><time>2026-05-01T10:20:05.832Z</time></trkpt><trkpt lat="42.2858483" lon="14.2583741"><ele>284.0</ele><time>2026-05-01T10:20:06.831Z</time></trkpt><trkpt lat="42.2859512" lon="14.2583985"><ele>284.0</ele><time>2026-05-01T10:20:07.832Z</time></trkpt><trkpt lat="42.2860589" lon="14.2584569"><ele>284.0</ele><time>2026-05-01T10:20:08.832Z</time></trkpt><trkpt lat="42.2861567" lon="14.2585277"><ele>284.0</ele><time>2026-05-01T10:20:09.832Z</time></trkpt><trkpt lat="42.2862454" lon="14.2586038"><ele>284.0</ele><time>2026-05-01T10:20:10.831Z</time></trkpt><trkpt lat="42.2863356" lon="14.2586863"><ele>284.0</ele><time>2026-05-01T10:20:11.832Z</time></trkpt><trkpt lat="42.2864348" lon="14.2587581"><ele>284.0</ele><time>2026-05-01T10:20:12.832Z</time></trkpt><trkpt lat="42.2865377" lon="14.2588244"><ele>284.0</ele><time>2026-05-01T10:20:13.832Z</time></trkpt><trkpt lat="42.2866375" lon="14.258887"><ele>284.0</ele><time>2026-05-01T10:20:14.832Z</time></trkpt><trkpt lat="42.286741" lon="14.2589448"><ele>282.59999999999997</ele><time>2026-05-01T10:20:15.832Z</time></trkpt><trkpt lat="42.286847" lon="14.2590092"><ele>281.2</ele><time>2026-05-01T10:20:16.832Z</time></trkpt><trkpt lat="42.2869452" lon="14.2590793"><ele>279.79999999999995</ele><time>2026-05-01T10:20:17.832Z</time></trkpt><trkpt lat="42.2870394" lon="14.2591371"><ele>278.4</ele><time>2026-05-01T10:20:18.832Z</time></trkpt><trkpt lat="42.2871318" lon="14.2591951"><ele>277.0</ele><time>2026-05-01T10:20:19.831Z</time></trkpt><trkpt lat="42.2872256" lon="14.2592508"><ele>279.0</ele><time>2026-05-01T10:20:20.832Z</time></trkpt><trkpt lat="42.2873175" lon="14.2593013"><ele>281.0</ele><time>2026-05-01T10:20:21.832Z</time></trkpt><trkpt lat="42.2874114" lon="14.2593525"><ele>283.0</ele><time>2026-05-01T10:20:22.832Z</time></trkpt><trkpt lat="42.2875124" lon="14.2593814"><ele>285.0</ele><time>2026-05-01T10:20:23.831Z</time></trkpt><trkpt lat="42.2876204" lon="14.2593959"><ele>287.0</ele><time>2026-05-01T10:20:24.832Z</time></trkpt><trkpt lat="42.2877276" lon="14.2593849"><ele>287.0</ele><time>2026-05-01T10:20:25.831Z</time></trkpt><trkpt lat="42.2878363" lon="14.2593563"><ele>287.0</ele><time>2026-05-01T10:20:26.832Z</time></trkpt><trkpt lat="42.2879383" lon="14.2593145"><ele>287.0</ele><time>2026-05-01T10:20:27.831Z</time></trkpt><trkpt lat="42.2880336" lon="14.2592675"><ele>287.0</ele><time>2026-05-01T10:20:28.832Z</time></trkpt><trkpt lat="42.2881263" lon="14.2592078"><ele>287.0</ele><time>2026-05-01T10:20:29.831Z</time></trkpt><trkpt lat="42.288212" lon="14.2591484"><ele>288.0</ele><time>2026-05-01T10:20:30.832Z</time></trkpt><trkpt lat="42.2882906" lon="14.2590789"><ele>289.0</ele><time>2026-05-01T10:20:31.832Z</time></trkpt><trkpt lat="42.2883667" lon="14.2589945"><ele>290.0</ele><time>2026-05-01T10:20:32.831Z</time></trkpt><trkpt lat="42.2884402" lon="14.25889"><ele>291.0</ele><time>2026-05-01T10:20:33.832Z</time></trkpt><trkpt lat="42.2885171" lon="14.2587927"><ele>292.0</ele><time>2026-05-01T10:20:34.832Z</time></trkpt><trkpt lat="42.288593" lon="14.2587118"><ele>293.0</ele><time>2026-05-01T10:20:35.832Z</time></trkpt><trkpt lat="42.2886687" lon="14.2586305"><ele>294.0</ele><time>2026-05-01T10:20:36.832Z</time></trkpt><trkpt lat="42.288744" lon="14.2585474"><ele>295.0</ele><time>2026-05-01T10:20:37.832Z</time></trkpt><trkpt lat="42.2888202" lon="14.2584572"><ele>296.0</ele><time>2026-05-01T10:20:38.832Z</time></trkpt><trkpt lat="42.2888871" lon="14.2583642"><ele>297.0</ele><time>2026-05-01T10:20:39.832Z</time></trkpt><trkpt lat="42.2889404" lon="14.2582815"><ele>297.0</ele><time>2026-05-01T10:20:40.832Z</time></trkpt><trkpt lat="42.2889783" lon="14.2581889"><ele>297.0</ele><time>2026-05-01T10:20:41.831Z</time></trkpt><trkpt lat="42.289013" lon="14.2581102"><ele>297.0</ele><time>2026-05-01T10:20:42.832Z</time></trkpt><trkpt lat="42.2890969" lon="14.2580508"><ele>297.0</ele><time>2026-05-01T10:20:44.832Z</time></trkpt><trkpt lat="42.2891369" lon="14.257947"><ele>297.0</ele><time>2026-05-01T10:21:00.832Z</time></trkpt><trkpt lat="42.2890468" lon="14.2578232"><ele>296.8333333333333</ele><time>2026-05-01T10:21:02.832Z</time></trkpt><trkpt lat="42.2889893" lon="14.2577512"><ele>296.6666666666667</ele><time>2026-05-01T10:21:03.832Z</time></trkpt><trkpt lat="42.2889205" lon="14.2576732"><ele>296.5</ele><time>2026-05-01T10:21:04.832Z</time></trkpt><trkpt lat="42.2888502" lon="14.2575966"><ele>296.33333333333337</ele><time>2026-05-01T10:21:05.831Z</time></trkpt><trkpt lat="42.288781" lon="14.2575277"><ele>296.1666666666667</ele><time>2026-05-01T10:21:06.832Z</time></trkpt><trkpt lat="42.2887062" lon="14.257446"><ele>296.0</ele><time>2026-05-01T10:21:07.831Z</time></trkpt><trkpt lat="42.2886226" lon="14.2573521"><ele>297.5</ele><time>2026-05-01T10:21:08.832Z</time></trkpt><trkpt lat="42.2885353" lon="14.2572516"><ele>299.0</ele><time>2026-05-01T10:21:09.832Z</time></trkpt><trkpt lat="42.2884365" lon="14.25716"><ele>300.5</ele><time>2026-05-01T10:21:10.832Z</time></trkpt><trkpt lat="42.2883261" lon="14.2570799"><ele>302.0</ele><time>2026-05-01T10:21:11.832Z</time></trkpt><trkpt lat="42.2882019" lon="14.2570065"><ele>302.75</ele><time>2026-05-01T10:21:12.832Z</time></trkpt><trkpt lat="42.2880806" lon="14.2569483"><ele>303.5</ele><time>2026-05-01T10:21:13.832Z</time></trkpt><trkpt lat="42.2879572" lon="14.256885"><ele>304.25</ele><time>2026-05-01T10:21:14.831Z</time></trkpt><trkpt lat="42.2878249" lon="14.2568154"><ele>305.0</ele><time>2026-05-01T10:21:15.832Z</time></trkpt><trkpt lat="42.2876939" lon="14.2567473"><ele>305.0</ele><time>2026-05-01T10:21:16.832Z</time></trkpt><trkpt lat="42.2875661" lon="14.256679"><ele>305.0</ele><time>2026-05-01T10:21:17.831Z</time></trkpt><trkpt lat="42.2874374" lon="14.2565939"><ele>305.0</ele><time>2026-05-01T10:21:18.832Z</time></trkpt><trkpt lat="42.2873147" lon="14.2564931"><ele>305.0</ele><time>2026-05-01T10:21:19.831Z</time></trkpt><trkpt lat="42.2871917" lon="14.256377"><ele>306.6666666666667</ele><time>2026-05-01T10:21:20.832Z</time></trkpt><trkpt lat="42.2870609" lon="14.256248"><ele>308.3333333333333</ele><time>2026-05-01T10:21:21.832Z</time></trkpt><trkpt lat="42.2869315" lon="14.2561213"><ele>310.0</ele><time>2026-05-01T10:21:22.832Z</time></trkpt><trkpt lat="42.2868036" lon="14.2559964"><ele>310.0</ele><time>2026-05-01T10:21:23.831Z</time></trkpt><trkpt lat="42.2866868" lon="14.2558879"><ele>310.0</ele><time>2026-05-01T10:21:24.831Z</time></trkpt><trkpt lat="42.2865765" lon="14.2557698"><ele>310.0</ele><time>2026-05-01T10:21:25.832Z</time></trkpt><trkpt lat="42.286464" lon="14.2556594"><ele>310.0</ele><time>2026-05-01T10:21:26.832Z</time></trkpt><trkpt lat="42.28635" lon="14.2555538"><ele>310.75</ele><time>2026-05-01T10:21:27.832Z</time></trkpt><trkpt lat="42.2862265" lon="14.255446"><ele>311.5</ele><time>2026-05-01T10:21:28.832Z</time></trkpt><trkpt lat="42.2861045" lon="14.255345"><ele>312.25</ele><time>2026-05-01T10:21:29.832Z</time></trkpt><trkpt lat="42.2859779" lon="14.255257"><ele>313.0</ele><time>2026-05-01T10:21:30.832Z</time></trkpt><trkpt lat="42.2858509" lon="14.2551695"><ele>313.0</ele><time>2026-05-01T10:21:31.832Z</time></trkpt><trkpt lat="42.285729" lon="14.2550779"><ele>313.0</ele><time>2026-05-01T10:21:32.832Z</time></trkpt><trkpt lat="42.2856043" lon="14.2549989"><ele>313.0</ele><time>2026-05-01T10:21:33.831Z</time></trkpt><trkpt lat="42.2854812" lon="14.2549149"><ele>313.0</ele><time>2026-05-01T10:21:34.831Z</time></trkpt><trkpt lat="42.2853593" lon="14.2548242"><ele>313.25</ele><time>2026-05-01T10:21:35.832Z</time></trkpt><trkpt lat="42.2852388" lon="14.2547325"><ele>313.5</ele><time>2026-05-01T10:21:36.832Z</time></trkpt><trkpt lat="42.2851123" lon="14.2546552"><ele>313.75</ele><time>2026-05-01T10:21:37.832Z</time></trkpt><trkpt lat="42.284994" lon="14.2545716"><ele>314.0</ele><time>2026-05-01T10:21:38.831Z</time></trkpt><trkpt lat="42.2848809" lon="14.2544927"><ele>314.0</ele><time>2026-05-01T10:21:39.832Z</time></trkpt><trkpt lat="42.2847668" lon="14.254409"><ele>314.0</ele><time>2026-05-01T10:21:40.831Z</time></trkpt><trkpt lat="42.284647" lon="14.2543339"><ele>314.0</ele><time>2026-05-01T10:21:41.831Z</time></trkpt><trkpt lat="42.2845292" lon="14.2542552"><ele>314.0</ele><time>2026-05-01T10:21:42.831Z</time></trkpt><trkpt lat="42.284408" lon="14.2541851"><ele>314.0</ele><time>2026-05-01T10:21:43.831Z</time></trkpt><trkpt lat="42.2842795" lon="14.2541198"><ele>314.0</ele><time>2026-05-01T10:21:44.832Z</time></trkpt><trkpt lat="42.2841444" lon="14.2540532"><ele>314.0</ele><time>2026-05-01T10:21:45.832Z</time></trkpt><trkpt lat="42.2840049" lon="14.2539837"><ele>314.0</ele><time>2026-05-01T10:21:46.831Z</time></trkpt><trkpt lat="42.2838699" lon="14.2539098"><ele>314.0</ele><time>2026-05-01T10:21:47.832Z</time></trkpt><trkpt lat="42.2837378" lon="14.2538396"><ele>314.0</ele><time>2026-05-01T10:21:48.832Z</time></trkpt><trkpt lat="42.2836064" lon="14.2537669"><ele>314.0</ele><time>2026-05-01T10:21:49.832Z</time></trkpt><trkpt lat="42.2834706" lon="14.2536822"><ele>314.0</ele><time>2026-05-01T10:21:50.832Z</time></trkpt><trkpt lat="42.2833254" lon="14.2535967"><ele>314.0</ele><time>2026-05-01T10:21:51.831Z</time></trkpt><trkpt lat="42.2831788" lon="14.2535066"><ele>314.0</ele><time>2026-05-01T10:21:52.832Z</time></trkpt><trkpt lat="42.2830401" lon="14.2534157"><ele>314.0</ele><time>2026-05-01T10:21:53.832Z</time></trkpt><trkpt lat="42.2828999" lon="14.2533274"><ele>313.33333333333337</ele><time>2026-05-01T10:21:54.832Z</time></trkpt><trkpt lat="42.2827548" lon="14.2532492"><ele>312.6666666666667</ele><time>2026-05-01T10:21:55.832Z</time></trkpt><trkpt lat="42.2826054" lon="14.2531743"><ele>312.0</ele><time>2026-05-01T10:21:56.831Z</time></trkpt><trkpt lat="42.2824528" lon="14.253101"><ele>312.3333333333333</ele><time>2026-05-01T10:21:57.832Z</time></trkpt><trkpt lat="42.2823" lon="14.2530336"><ele>312.66666666666663</ele><time>2026-05-01T10:21:58.832Z</time></trkpt><trkpt lat="42.2821495" lon="14.2529698"><ele>313.0</ele><time>2026-05-01T10:21:59.832Z</time></trkpt><trkpt lat="42.2819996" lon="14.2529067"><ele>313.0</ele><time>2026-05-01T10:22:00.832Z</time></trkpt><trkpt lat="42.2818509" lon="14.25285"><ele>313.0</ele><time>2026-05-01T10:22:01.832Z</time></trkpt><trkpt lat="42.2817072" lon="14.2527906"><ele>313.0</ele><time>2026-05-01T10:22:02.832Z</time></trkpt><trkpt lat="42.2815649" lon="14.2527301"><ele>314.0</ele><time>2026-05-01T10:22:03.832Z</time></trkpt><trkpt lat="42.2814193" lon="14.2526709"><ele>315.0</ele><time>2026-05-01T10:22:04.832Z</time></trkpt><trkpt lat="42.2812754" lon="14.2526099"><ele>316.0</ele><time>2026-05-01T10:22:05.832Z</time></trkpt><trkpt lat="42.2811281" lon="14.252556"><ele>316.0</ele><time>2026-05-01T10:22:06.832Z</time></trkpt><trkpt lat="42.2809776" lon="14.2525003"><ele>316.0</ele><time>2026-05-01T10:22:07.832Z</time></trkpt><trkpt lat="42.2808285" lon="14.2524382"><ele>316.0</ele><time>2026-05-01T10:22:08.832Z</time></trkpt><trkpt lat="42.2806789" lon="14.2523759"><ele>316.0</ele><time>2026-05-01T10:22:09.832Z</time></trkpt><trkpt lat="42.280522" lon="14.2523081"><ele>316.0</ele><time>2026-05-01T10:22:10.831Z</time></trkpt><trkpt lat="42.2803659" lon="14.2522435"><ele>316.0</ele><time>2026-05-01T10:22:11.832Z</time></trkpt><trkpt lat="42.2802088" lon="14.2521778"><ele>316.0</ele><time>2026-05-01T10:22:12.832Z</time></trkpt><trkpt lat="42.2800503" lon="14.2521031"><ele>316.0</ele><time>2026-05-01T10:22:13.832Z</time></trkpt><trkpt lat="42.2798933" lon="14.2520227"><ele>316.0</ele><time>2026-05-01T10:22:14.832Z</time></trkpt><trkpt lat="42.2797425" lon="14.2519438"><ele>317.0</ele><time>2026-05-01T10:22:15.832Z</time></trkpt><trkpt lat="42.2795926" lon="14.2518607"><ele>318.0</ele><time>2026-05-01T10:22:16.832Z</time></trkpt><trkpt lat="42.2794395" lon="14.2517775"><ele>319.0</ele><time>2026-05-01T10:22:17.832Z</time></trkpt><trkpt lat="42.2792857" lon="14.2516953"><ele>319.0</ele><time>2026-05-01T10:22:18.832Z</time></trkpt><trkpt lat="42.2791315" lon="14.251622"><ele>319.0</ele><time>2026-05-01T10:22:19.832Z</time></trkpt><trkpt lat="42.2789716" lon="14.2515573"><ele>319.0</ele><time>2026-05-01T10:22:20.831Z</time></trkpt><trkpt lat="42.2788152" lon="14.2514947"><ele>320.3333333333333</ele><time>2026-05-01T10:22:21.832Z</time></trkpt><trkpt lat="42.2786587" lon="14.2514333"><ele>321.6666666666667</ele><time>2026-05-01T10:22:22.832Z</time></trkpt><trkpt lat="42.2785024" lon="14.251374"><ele>323.0</ele><time>2026-05-01T10:22:23.831Z</time></trkpt><trkpt lat="42.278348" lon="14.251305"><ele>323.0</ele><time>2026-05-01T10:22:24.832Z</time></trkpt><trkpt lat="42.2781901" lon="14.2512356"><ele>323.0</ele><time>2026-05-01T10:22:25.832Z</time></trkpt><trkpt lat="42.2780324" lon="14.2511758"><ele>323.0</ele><time>2026-05-01T10:22:26.832Z</time></trkpt><trkpt lat="42.2778746" lon="14.2511132"><ele>324.33333333333337</ele><time>2026-05-01T10:22:27.832Z</time></trkpt><trkpt lat="42.2777133" lon="14.2510555"><ele>325.6666666666667</ele><time>2026-05-01T10:22:28.832Z</time></trkpt><trkpt lat="42.2775653" lon="14.2510036"><ele>327.0</ele><time>2026-05-01T10:22:29.832Z</time></trkpt><trkpt lat="42.2774197" lon="14.250951"><ele>327.0</ele><time>2026-05-01T10:22:30.832Z</time></trkpt><trkpt lat="42.2772931" lon="14.2509127"><ele>327.0</ele><time>2026-05-01T10:22:31.832Z</time></trkpt><trkpt lat="42.2771895" lon="14.2508978"><ele>327.0</ele><time>2026-05-01T10:22:32.832Z</time></trkpt><trkpt lat="42.2770935" lon="14.2508877"><ele>327.0</ele><time>2026-05-01T10:22:33.832Z</time></trkpt><trkpt lat="42.2770079" lon="14.2508772"><ele>327.0</ele><time>2026-05-01T10:22:34.832Z</time></trkpt><trkpt lat="42.2769416" lon="14.2508774"><ele>327.8</ele><time>2026-05-01T10:22:35.832Z</time></trkpt><trkpt lat="42.2768474" lon="14.250841"><ele>328.6</ele><time>2026-05-01T10:22:37.831Z</time></trkpt><trkpt lat="42.2767669" lon="14.2507717"><ele>329.40000000000003</ele><time>2026-05-01T10:22:40.832Z</time></trkpt><trkpt lat="42.2766537" lon="14.2507038"><ele>330.20000000000005</ele><time>2026-05-01T10:22:42.832Z</time></trkpt><trkpt lat="42.2765894" lon="14.250627"><ele>331.0</ele><time>2026-05-01T10:22:43.832Z</time></trkpt><trkpt lat="42.2765055" lon="14.2505349"><ele>330.5</ele><time>2026-05-01T10:22:44.832Z</time></trkpt><trkpt lat="42.2764245" lon="14.2504335"><ele>330.0</ele><time>2026-05-01T10:22:45.832Z</time></trkpt><trkpt lat="42.2763431" lon="14.2503296"><ele>329.5</ele><time>2026-05-01T10:22:46.832Z</time></trkpt><trkpt lat="42.2762718" lon="14.2502021"><ele>329.0</ele><time>2026-05-01T10:22:47.832Z</time></trkpt><trkpt lat="42.276207" lon="14.2500659"><ele>329.0</ele><time>2026-05-01T10:22:48.832Z</time></trkpt><trkpt lat="42.2761431" lon="14.2499287"><ele>329.0</ele><time>2026-05-01T10:22:49.831Z</time></trkpt><trkpt lat="42.2760665" lon="14.2498204"><ele>329.0</ele><time>2026-05-01T10:22:50.832Z</time></trkpt><trkpt lat="42.2759818" lon="14.2497296"><ele>329.0</ele><time>2026-05-01T10:22:51.832Z</time></trkpt><trkpt lat="42.2758835" lon="14.2496765"><ele>329.0</ele><time>2026-05-01T10:22:52.831Z</time></trkpt><trkpt lat="42.275772" lon="14.2496181"><ele>327.0</ele><time>2026-05-01T10:22:53.832Z</time></trkpt><trkpt lat="42.2756623" lon="14.2495549"><ele>325.0</ele><time>2026-05-01T10:22:54.832Z</time></trkpt><trkpt lat="42.2755555" lon="14.2494891"><ele>323.0</ele><time>2026-05-01T10:22:55.832Z</time></trkpt><trkpt lat="42.2754456" lon="14.2494117"><ele>321.0</ele><time>2026-05-01T10:22:56.832Z</time></trkpt><trkpt lat="42.2753454" lon="14.2493266"><ele>321.0</ele><time>2026-05-01T10:22:57.832Z</time></trkpt><trkpt lat="42.2752443" lon="14.2492409"><ele>321.0</ele><time>2026-05-01T10:22:58.832Z</time></trkpt><trkpt lat="42.2751395" lon="14.2491508"><ele>321.0</ele><time>2026-05-01T10:22:59.832Z</time></trkpt><trkpt lat="42.2750218" lon="14.2490781"><ele>321.0</ele><time>2026-05-01T10:23:00.832Z</time></trkpt><trkpt lat="42.2748988" lon="14.2490194"><ele>321.0</ele><time>2026-05-01T10:23:01.832Z</time></trkpt><trkpt lat="42.2747747" lon="14.248965"><ele>321.0</ele><time>2026-05-01T10:23:02.832Z</time></trkpt><trkpt lat="42.2746546" lon="14.2489143"><ele>321.0</ele><time>2026-05-01T10:23:03.832Z</time></trkpt><trkpt lat="42.2745352" lon="14.2488616"><ele>321.0</ele><time>2026-05-01T10:23:04.832Z</time></trkpt><trkpt lat="42.2744136" lon="14.2488052"><ele>314.75</ele><time>2026-05-01T10:23:05.831Z</time></trkpt><trkpt lat="42.2743012" lon="14.2487627"><ele>308.5</ele><time>2026-05-01T10:23:06.832Z</time></trkpt><trkpt lat="42.2741924" lon="14.248716"><ele>302.25</ele><time>2026-05-01T10:23:07.832Z</time></trkpt><trkpt lat="42.274083" lon="14.2486569"><ele>296.0</ele><time>2026-05-01T10:23:08.831Z</time></trkpt><trkpt lat="42.2739697" lon="14.248586"><ele>299.0</ele><time>2026-05-01T10:23:09.832Z</time></trkpt><trkpt lat="42.2738535" lon="14.248511"><ele>302.0</ele><time>2026-05-01T10:23:10.832Z</time></trkpt><trkpt lat="42.2737306" lon="14.2484269"><ele>305.0</ele><time>2026-05-01T10:23:11.832Z</time></trkpt><trkpt lat="42.2736186" lon="14.2483408"><ele>308.0</ele><time>2026-05-01T10:23:12.832Z</time></trkpt><trkpt lat="42.2735098" lon="14.2482479"><ele>308.0</ele><time>2026-05-01T10:23:13.832Z</time></trkpt><trkpt lat="42.2734078" lon="14.2481555"><ele>308.0</ele><time>2026-05-01T10:23:14.832Z</time></trkpt><trkpt lat="42.2733141" lon="14.2480632"><ele>308.0</ele><time>2026-05-01T10:23:15.832Z</time></trkpt><trkpt lat="42.2732234" lon="14.2479543"><ele>308.0</ele><time>2026-05-01T10:23:16.832Z</time></trkpt><trkpt lat="42.2731492" lon="14.2478263"><ele>307.25</ele><time>2026-05-01T10:23:17.832Z</time></trkpt><trkpt lat="42.2730958" lon="14.2476783"><ele>306.5</ele><time>2026-05-01T10:23:18.832Z</time></trkpt><trkpt lat="42.2730557" lon="14.2475132"><ele>305.75</ele><time>2026-05-01T10:23:19.832Z</time></trkpt><trkpt lat="42.2730252" lon="14.2473529"><ele>305.0</ele><time>2026-05-01T10:23:20.832Z</time></trkpt><trkpt lat="42.2729988" lon="14.247201"><ele>299.5</ele><time>2026-05-01T10:23:21.831Z</time></trkpt><trkpt lat="42.2729696" lon="14.2470487"><ele>294.0</ele><time>2026-05-01T10:23:22.832Z</time></trkpt><trkpt lat="42.2729437" lon="14.2468972"><ele>288.5</ele><time>2026-05-01T10:23:23.832Z</time></trkpt><trkpt lat="42.2729193" lon="14.2467441"><ele>283.0</ele><time>2026-05-01T10:23:24.832Z</time></trkpt><trkpt lat="42.2728973" lon="14.2465988"><ele>283.0</ele><time>2026-05-01T10:23:25.831Z</time></trkpt><trkpt lat="42.2728745" lon="14.2464622"><ele>283.0</ele><time>2026-05-01T10:23:26.832Z</time></trkpt><trkpt lat="42.2728572" lon="14.2463368"><ele>283.0</ele><time>2026-05-01T10:23:27.832Z</time></trkpt><trkpt lat="42.2728533" lon="14.2462414"><ele>283.0</ele><time>2026-05-01T10:23:28.832Z</time></trkpt><trkpt lat="42.2728551" lon="14.2461156"><ele>283.0</ele><time>2026-05-01T10:23:30.832Z</time></trkpt><trkpt lat="42.2728256" lon="14.2460118"><ele>283.0</ele><time>2026-05-01T10:23:46.832Z</time></trkpt><trkpt lat="42.272759" lon="14.2459024"><ele>281.4</ele><time>2026-05-01T10:23:48.832Z</time></trkpt><trkpt lat="42.2727156" lon="14.2458234"><ele>279.8</ele><time>2026-05-01T10:23:49.832Z</time></trkpt><trkpt lat="42.2726573" lon="14.245716"><ele>278.2</ele><time>2026-05-01T10:23:50.832Z</time></trkpt><trkpt lat="42.2725956" lon="14.2456171"><ele>276.6</ele><time>2026-05-01T10:23:51.832Z</time></trkpt><trkpt lat="42.2725277" lon="14.2455183"><ele>275.0</ele><time>2026-05-01T10:23:52.832Z</time></trkpt><trkpt lat="42.2724576" lon="14.2454023"><ele>275.0</ele><time>2026-05-01T10:23:53.831Z</time></trkpt><trkpt lat="42.2723906" lon="14.2452859"><ele>275.0</ele><time>2026-05-01T10:23:54.832Z</time></trkpt><trkpt lat="42.2723294" lon="14.2451662"><ele>275.0</ele><time>2026-05-01T10:23:55.832Z</time></trkpt><trkpt lat="42.2722734" lon="14.2450345"><ele>275.0</ele><time>2026-05-01T10:23:56.831Z</time></trkpt><trkpt lat="42.2722129" lon="14.2448978"><ele>275.0</ele><time>2026-05-01T10:23:57.832Z</time></trkpt><trkpt lat="42.2721455" lon="14.2447705"><ele>277.0</ele><time>2026-05-01T10:23:58.832Z</time></trkpt><trkpt lat="42.272072" lon="14.2446497"><ele>279.0</ele><time>2026-05-01T10:23:59.832Z</time></trkpt><trkpt lat="42.271992" lon="14.2445435"><ele>281.0</ele><time>2026-05-01T10:24:00.832Z</time></trkpt><trkpt lat="42.2719071" lon="14.2444578"><ele>283.0</ele><time>2026-05-01T10:24:01.832Z</time></trkpt><trkpt lat="42.271824" lon="14.2444065"><ele>285.0</ele><time>2026-05-01T10:24:02.832Z</time></trkpt><trkpt lat="42.271745" lon="14.2443673"><ele>285.0</ele><time>2026-05-01T10:24:03.832Z</time></trkpt><trkpt lat="42.2716676" lon="14.2443383"><ele>285.0</ele><time>2026-05-01T10:24:04.832Z</time></trkpt><trkpt lat="42.2715802" lon="14.2443171"><ele>285.0</ele><time>2026-05-01T10:24:05.832Z</time></trkpt><trkpt lat="42.271479" lon="14.2443079"><ele>285.0</ele><time>2026-05-01T10:24:06.831Z</time></trkpt><trkpt lat="42.2713787" lon="14.244291"><ele>285.0</ele><time>2026-05-01T10:24:07.832Z</time></trkpt><trkpt lat="42.2712965" lon="14.2442627"><ele>284.3333333333333</ele><time>2026-05-01T10:24:08.832Z</time></trkpt><trkpt lat="42.271228" lon="14.2442125"><ele>283.6666666666667</ele><time>2026-05-01T10:24:09.831Z</time></trkpt><trkpt lat="42.2711568" lon="14.2441489"><ele>283.0</ele><time>2026-05-01T10:24:10.832Z</time></trkpt><trkpt lat="42.2710843" lon="14.2440861"><ele>282.33333333333337</ele><time>2026-05-01T10:24:11.832Z</time></trkpt><trkpt lat="42.2710069" lon="14.2440223"><ele>281.6666666666667</ele><time>2026-05-01T10:24:12.832Z</time></trkpt><trkpt lat="42.270932" lon="14.2439705"><ele>281.0</ele><time>2026-05-01T10:24:13.832Z</time></trkpt><trkpt lat="42.2708625" lon="14.2439265"><ele>282.40000000000003</ele><time>2026-05-01T10:24:14.831Z</time></trkpt><trkpt lat="42.2707879" lon="14.2438858"><ele>283.8</ele><time>2026-05-01T10:24:15.831Z</time></trkpt><trkpt lat="42.2707091" lon="14.2438277"><ele>285.20000000000005</ele><time>2026-05-01T10:24:16.831Z</time></trkpt><trkpt lat="42.270625" lon="14.2437587"><ele>286.6</ele><time>2026-05-01T10:24:17.831Z</time></trkpt><trkpt lat="42.270543" lon="14.2436743"><ele>288.0</ele><time>2026-05-01T10:24:18.832Z</time></trkpt><trkpt lat="42.2704647" lon="14.2435826"><ele>288.0</ele><time>2026-05-01T10:24:19.831Z</time></trkpt><trkpt lat="42.2703868" lon="14.2434863"><ele>288.0</ele><time>2026-05-01T10:24:20.831Z</time></trkpt><trkpt lat="42.2703055" lon="14.243388"><ele>288.0</ele><time>2026-05-01T10:24:21.832Z</time></trkpt><trkpt lat="42.2702239" lon="14.2432821"><ele>288.0</ele><time>2026-05-01T10:24:22.832Z</time></trkpt><trkpt lat="42.270133" lon="14.2431817"><ele>288.0</ele><time>2026-05-01T10:24:23.832Z</time></trkpt><trkpt lat="42.2700381" lon="14.2430822"><ele>289.25</ele><time>2026-05-01T10:24:24.832Z</time></trkpt><trkpt lat="42.2699415" lon="14.2429837"><ele>290.5</ele><time>2026-05-01T10:24:25.831Z</time></trkpt><trkpt lat="42.2698421" lon="14.2428832"><ele>291.75</ele><time>2026-05-01T10:24:26.831Z</time></trkpt><trkpt lat="42.2697483" lon="14.2427826"><ele>293.0</ele><time>2026-05-01T10:24:27.831Z</time></trkpt><trkpt lat="42.2696656" lon="14.2426896"><ele>293.0</ele><time>2026-05-01T10:24:28.832Z</time></trkpt><trkpt lat="42.2695823" lon="14.2426169"><ele>293.0</ele><time>2026-05-01T10:24:29.831Z</time></trkpt><trkpt lat="42.2694926" lon="14.2425455"><ele>293.0</ele><time>2026-05-01T10:24:30.832Z</time></trkpt><trkpt lat="42.2694021" lon="14.2424811"><ele>293.0</ele><time>2026-05-01T10:24:31.832Z</time></trkpt><trkpt lat="42.2693135" lon="14.2424062"><ele>293.0</ele><time>2026-05-01T10:24:32.832Z</time></trkpt><trkpt lat="42.2692421" lon="14.2423336"><ele>294.33333333333337</ele><time>2026-05-01T10:24:33.832Z</time></trkpt><trkpt lat="42.2691906" lon="14.2422781"><ele>295.6666666666667</ele><time>2026-05-01T10:24:36.832Z</time></trkpt><trkpt lat="42.2691184" lon="14.2421503"><ele>297.0</ele><time>2026-05-01T10:24:43.832Z</time></trkpt><trkpt lat="42.2690817" lon="14.2420703"><ele>298.3333333333333</ele><time>2026-05-01T10:24:44.831Z</time></trkpt><trkpt lat="42.2690441" lon="14.2419869"><ele>299.66666666666663</ele><time>2026-05-01T10:24:45.832Z</time></trkpt><trkpt lat="42.2690128" lon="14.2419073"><ele>301.0</ele><time>2026-05-01T10:24:46.832Z</time></trkpt><trkpt lat="42.2689547" lon="14.2417885"><ele>301.2</ele><time>2026-05-01T10:24:48.832Z</time></trkpt><trkpt lat="42.2688672" lon="14.2416432"><ele>301.40000000000003</ele><time>2026-05-01T10:24:50.832Z</time></trkpt><trkpt lat="42.2688086" lon="14.2415862"><ele>301.6</ele><time>2026-05-01T10:24:51.832Z</time></trkpt><trkpt lat="42.268696" lon="14.2415357"><ele>301.8</ele><time>2026-05-01T10:24:53.832Z</time></trkpt><trkpt lat="42.2686289" lon="14.2415095"><ele>302.0</ele><time>2026-05-01T10:24:54.832Z</time></trkpt><trkpt lat="42.2685468" lon="14.2414778"><ele>303.33333333333337</ele><time>2026-05-01T10:24:55.832Z</time></trkpt><trkpt lat="42.2684713" lon="14.2414458"><ele>304.6666666666667</ele><time>2026-05-01T10:24:56.832Z</time></trkpt><trkpt lat="42.2683902" lon="14.2414163"><ele>306.0</ele><time>2026-05-01T10:24:57.832Z</time></trkpt><trkpt lat="42.2683058" lon="14.2413885"><ele>307.3333333333333</ele><time>2026-05-01T10:24:58.832Z</time></trkpt><trkpt lat="42.2682249" lon="14.241354"><ele>308.66666666666663</ele><time>2026-05-01T10:24:59.832Z</time></trkpt><trkpt lat="42.2681506" lon="14.2413191"><ele>310.0</ele><time>2026-05-01T10:25:00.832Z</time></trkpt><trkpt lat="42.2680798" lon="14.241282"><ele>310.0</ele><time>2026-05-01T10:25:01.832Z</time></trkpt><trkpt lat="42.2679782" lon="14.2412096"><ele>310.0</ele><time>2026-05-01T10:25:03.832Z</time></trkpt><trkpt lat="42.2678956" lon="14.2411308"><ele>310.0</ele><time>2026-05-01T10:25:05.832Z</time></trkpt><trkpt lat="42.2678055" lon="14.2410267"><ele>310.0</ele><time>2026-05-01T10:25:07.832Z</time></trkpt><trkpt lat="42.2677188" lon="14.2409125"><ele>310.0</ele><time>2026-05-01T10:25:09.832Z</time></trkpt><trkpt lat="42.2676284" lon="14.2407886"><ele>310.0</ele><time>2026-05-01T10:25:11.832Z</time></trkpt><trkpt lat="42.2675889" lon="14.240717"><ele>310.0</ele><time>2026-05-01T10:25:12.832Z</time></trkpt><trkpt lat="42.2675551" lon="14.240639"><ele>310.0</ele><time>2026-05-01T10:25:13.831Z</time></trkpt><trkpt lat="42.2675234" lon="14.2405602"><ele>310.0</ele><time>2026-05-01T10:25:14.831Z</time></trkpt><trkpt lat="42.2674764" lon="14.240432"><ele>310.0</ele><time>2026-05-01T10:25:16.832Z</time></trkpt><trkpt lat="42.2674284" lon="14.2402934"><ele>311.0</ele><time>2026-05-01T10:25:18.832Z</time></trkpt><trkpt lat="42.2673517" lon="14.2401575"><ele>312.0</ele><time>2026-05-01T10:25:20.832Z</time></trkpt><trkpt lat="42.2672816" lon="14.2400446"><ele>313.0</ele><time>2026-05-01T10:25:22.833Z</time></trkpt><trkpt lat="42.2672436" lon="14.2399437"><ele>314.0</ele><time>2026-05-01T10:25:24.833Z</time></trkpt><trkpt lat="42.2672259" lon="14.23985"><ele>315.0</ele><time>2026-05-01T10:25:27.833Z</time></trkpt><trkpt lat="42.2672199" lon="14.2397266"><ele>317.2857142857143</ele><time>2026-05-01T10:25:30.833Z</time></trkpt><trkpt lat="42.2672043" lon="14.2396302"><ele>319.57142857142856</ele><time>2026-05-01T10:25:32.833Z</time></trkpt><trkpt lat="42.2671845" lon="14.2395306"><ele>321.8571428571429</ele><time>2026-05-01T10:25:35.833Z</time></trkpt><trkpt lat="42.2671629" lon="14.2394363"><ele>324.1428571428571</ele><time>2026-05-01T10:25:38.833Z</time></trkpt><trkpt lat="42.2671481" lon="14.2393478"><ele>326.42857142857144</ele><time>2026-05-01T10:25:41.832Z</time></trkpt><trkpt lat="42.2671207" lon="14.2392455"><ele>328.7142857142857</ele><time>2026-05-01T10:25:44.833Z</time></trkpt><trkpt lat="42.2670903" lon="14.2391557"><ele>331.0</ele><time>2026-05-01T10:25:46.833Z</time></trkpt><trkpt lat="42.2670453" lon="14.2390573"><ele>331.0</ele><time>2026-05-01T10:25:49.832Z</time></trkpt><trkpt lat="42.2669903" lon="14.2389727"><ele>331.0</ele><time>2026-05-01T10:25:52.833Z</time></trkpt><trkpt lat="42.2669317" lon="14.2389215"><ele>331.0</ele><time>2026-05-01T10:25:55.832Z</time></trkpt><trkpt lat="42.2668573" lon="14.2388511"><ele>331.0</ele><time>2026-05-01T10:26:06.833Z</time></trkpt><trkpt lat="42.2667737" lon="14.2387936"><ele>331.0</ele><time>2026-05-01T10:26:09.833Z</time></trkpt><trkpt lat="42.2667216" lon="14.2387323"><ele>331.0</ele><time>2026-05-01T10:26:11.833Z</time></trkpt><trkpt lat="42.2666731" lon="14.2386729"><ele>331.16666666666663</ele><time>2026-05-01T10:26:14.832Z</time></trkpt><trkpt lat="42.2666031" lon="14.2385757"><ele>331.3333333333333</ele><time>2026-05-01T10:26:51.833Z</time></trkpt><trkpt lat="42.2665526" lon="14.2385164"><ele>331.5</ele><time>2026-05-01T10:26:53.833Z</time></trkpt><trkpt lat="42.2665083" lon="14.2384532"><ele>331.6666666666667</ele><time>2026-05-01T10:26:55.833Z</time></trkpt><trkpt lat="42.2664445" lon="14.2383831"><ele>331.83333333333337</ele><time>2026-05-01T10:26:57.833Z</time></trkpt><trkpt lat="42.2663775" lon="14.2382897"><ele>332.0</ele><time>2026-05-01T10:27:00.833Z</time></trkpt><trkpt lat="42.2663184" lon="14.2381934"><ele>333.0</ele><time>2026-05-01T10:27:02.832Z</time></trkpt><trkpt lat="42.2662647" lon="14.238125"><ele>334.0</ele><time>2026-05-01T10:27:04.832Z</time></trkpt><trkpt lat="42.2661996" lon="14.2380577"><ele>335.0</ele><time>2026-05-01T10:27:08.832Z</time></trkpt><trkpt lat="42.2661234" lon="14.2379959"><ele>336.0</ele><time>2026-05-01T10:27:10.833Z</time></trkpt><trkpt lat="42.2660365" lon="14.237941"><ele>337.0</ele><time>2026-05-01T10:27:12.833Z</time></trkpt><trkpt lat="42.2659376" lon="14.2378785"><ele>337.0</ele><time>2026-05-01T10:27:14.832Z</time></trkpt><trkpt lat="42.2658321" lon="14.2378044"><ele>337.0</ele><time>2026-05-01T10:27:16.833Z</time></trkpt><trkpt lat="42.2657366" lon="14.2377215"><ele>337.0</ele><time>2026-05-01T10:27:18.832Z</time></trkpt><trkpt lat="42.2656454" lon="14.2376272"><ele>337.0</ele><time>2026-05-01T10:27:20.833Z</time></trkpt><trkpt lat="42.2655757" lon="14.2375233"><ele>338.66666666666663</ele><time>2026-05-01T10:27:22.832Z</time></trkpt><trkpt lat="42.2655407" lon="14.237443"><ele>340.3333333333333</ele><time>2026-05-01T10:27:25.833Z</time></trkpt><trkpt lat="42.2654992" lon="14.2373544"><ele>342.0</ele><time>2026-05-01T10:28:59.833Z</time></trkpt><trkpt lat="42.2654472" lon="14.2372514"><ele>343.6666666666667</ele><time>2026-05-01T10:29:01.833Z</time></trkpt><trkpt lat="42.265411" lon="14.237167"><ele>345.33333333333337</ele><time>2026-05-01T10:29:02.833Z</time></trkpt><trkpt lat="42.2653678" lon="14.2370743"><ele>347.0</ele><time>2026-05-01T10:29:03.832Z</time></trkpt><trkpt lat="42.2653311" lon="14.2369768"><ele>347.0</ele><time>2026-05-01T10:29:04.833Z</time></trkpt><trkpt lat="42.2652916" lon="14.2368733"><ele>347.0</ele><time>2026-05-01T10:29:05.833Z</time></trkpt><trkpt lat="42.2652579" lon="14.2367891"><ele>347.0</ele><time>2026-05-01T10:29:06.832Z</time></trkpt><trkpt lat="42.2652057" lon="14.236651"><ele>347.0</ele><time>2026-05-01T10:29:08.833Z</time></trkpt><trkpt lat="42.2651448" lon="14.2365294"><ele>347.0</ele><time>2026-05-01T10:29:10.833Z</time></trkpt><trkpt lat="42.2651064" lon="14.2364519"><ele>347.0</ele><time>2026-05-01T10:29:11.833Z</time></trkpt><trkpt lat="42.265065" lon="14.2363705"><ele>346.33333333333337</ele><time>2026-05-01T10:29:12.833Z</time></trkpt><trkpt lat="42.2649998" lon="14.2362369"><ele>345.6666666666667</ele><time>2026-05-01T10:29:14.833Z</time></trkpt><trkpt lat="42.2649278" lon="14.2361541"><ele>345.0</ele><time>2026-05-01T10:29:16.833Z</time></trkpt><trkpt lat="42.2648586" lon="14.2360806"><ele>344.3333333333333</ele><time>2026-05-01T10:29:18.832Z</time></trkpt><trkpt lat="42.2647951" lon="14.2360592"><ele>343.66666666666663</ele><time>2026-05-01T10:29:21.833Z</time></trkpt><trkpt lat="42.2647228" lon="14.2360409"><ele>343.0</ele><time>2026-05-01T10:29:31.833Z</time></trkpt><trkpt lat="42.2646391" lon="14.2361164"><ele>344.0</ele><time>2026-05-01T10:29:33.833Z</time></trkpt><trkpt lat="42.2645525" lon="14.2362144"><ele>345.0</ele><time>2026-05-01T10:29:35.832Z</time></trkpt><trkpt lat="42.264503" lon="14.2362748"><ele>346.0</ele><time>2026-05-01T10:29:36.833Z</time></trkpt><trkpt lat="42.2644468" lon="14.2363396"><ele>347.0</ele><time>2026-05-01T10:29:37.833Z</time></trkpt><trkpt lat="42.2643843" lon="14.2364"><ele>348.0</ele><time>2026-05-01T10:29:38.832Z</time></trkpt><trkpt lat="42.2643193" lon="14.236449"><ele>349.0</ele><time>2026-05-01T10:29:39.833Z</time></trkpt><trkpt lat="42.2642561" lon="14.2364798"><ele>349.0</ele><time>2026-05-01T10:29:40.833Z</time></trkpt><trkpt lat="42.2641419" lon="14.2365231"><ele>349.0</ele><time>2026-05-01T10:29:42.833Z</time></trkpt><trkpt lat="42.2640357" lon="14.2366077"><ele>349.0</ele><time>2026-05-01T10:29:44.833Z</time></trkpt><trkpt lat="42.26398" lon="14.2366603"><ele>349.0</ele><time>2026-05-01T10:29:45.833Z</time></trkpt><trkpt lat="42.2639197" lon="14.2367118"><ele>349.0</ele><time>2026-05-01T10:29:46.833Z</time></trkpt><trkpt lat="42.2638589" lon="14.2367616"><ele>348.3333333333333</ele><time>2026-05-01T10:29:47.833Z</time></trkpt><trkpt lat="42.2637972" lon="14.2367979"><ele>347.66666666666663</ele><time>2026-05-01T10:29:48.833Z</time></trkpt><trkpt lat="42.2637343" lon="14.2368064"><ele>347.0</ele><time>2026-05-01T10:29:49.833Z</time></trkpt><trkpt lat="42.2636611" lon="14.2368033"><ele>346.3333333333333</ele><time>2026-05-01T10:29:50.833Z</time></trkpt><trkpt lat="42.263582" lon="14.2367831"><ele>345.6666666666667</ele><time>2026-05-01T10:29:51.833Z</time></trkpt><trkpt lat="42.2635147" lon="14.2367628"><ele>345.0</ele><time>2026-05-01T10:29:52.833Z</time></trkpt><trkpt lat="42.2633866" lon="14.2367225"><ele>345.0</ele><time>2026-05-01T10:29:54.833Z</time></trkpt><trkpt lat="42.2633209" lon="14.2367231"><ele>345.0</ele><time>2026-05-01T10:29:55.833Z</time></trkpt><trkpt lat="42.2631986" lon="14.2367714"><ele>345.0</ele><time>2026-05-01T10:29:57.833Z</time></trkpt><trkpt lat="42.2631351" lon="14.2368123"><ele>345.0</ele><time>2026-05-01T10:29:58.832Z</time></trkpt><trkpt lat="42.2630643" lon="14.2368552"><ele>345.0</ele><time>2026-05-01T10:29:59.833Z</time></trkpt><trkpt lat="42.2629928" lon="14.2369014"><ele>345.0</ele><time>2026-05-01T10:30:00.833Z</time></trkpt><trkpt lat="42.2629243" lon="14.2369361"><ele>344.6666666666667</ele><time>2026-05-01T10:30:01.832Z</time></trkpt><trkpt lat="42.2628554" lon="14.2369708"><ele>344.3333333333333</ele><time>2026-05-01T10:30:02.833Z</time></trkpt><trkpt lat="42.2627882" lon="14.2370054"><ele>344.0</ele><time>2026-05-01T10:30:03.832Z</time></trkpt><trkpt lat="42.2627257" lon="14.2370322"><ele>343.66666666666663</ele><time>2026-05-01T10:30:04.833Z</time></trkpt><trkpt lat="42.2626107" lon="14.2370783"><ele>343.3333333333333</ele><time>2026-05-01T10:30:06.833Z</time></trkpt><trkpt lat="42.2625482" lon="14.2371017"><ele>343.0</ele><time>2026-05-01T10:30:07.832Z</time></trkpt><trkpt lat="42.2624861" lon="14.2371235"><ele>343.0</ele><time>2026-05-01T10:30:08.833Z</time></trkpt><trkpt lat="42.2624206" lon="14.2371428"><ele>343.0</ele><time>2026-05-01T10:30:09.833Z</time></trkpt><trkpt lat="42.2623485" lon="14.2371535"><ele>343.0</ele><time>2026-05-01T10:30:10.833Z</time></trkpt><trkpt lat="42.2622777" lon="14.2371666"><ele>343.0</ele><time>2026-05-01T10:30:11.833Z</time></trkpt><trkpt lat="42.2622134" lon="14.2371737"><ele>343.0</ele><time>2026-05-01T10:30:12.833Z</time></trkpt><trkpt lat="42.2621499" lon="14.2371799"><ele>343.0</ele><time>2026-05-01T10:30:13.833Z</time></trkpt><trkpt lat="42.2620802" lon="14.2371832"><ele>343.0</ele><time>2026-05-01T10:30:14.833Z</time></trkpt><trkpt lat="42.2620068" lon="14.2371861"><ele>341.66666666666663</ele><time>2026-05-01T10:30:15.833Z</time></trkpt><trkpt lat="42.2619301" lon="14.2371952"><ele>340.3333333333333</ele><time>2026-05-01T10:30:16.833Z</time></trkpt><trkpt lat="42.2618471" lon="14.2372136"><ele>339.0</ele><time>2026-05-01T10:30:17.833Z</time></trkpt><trkpt lat="42.261758" lon="14.2372417"><ele>337.6666666666667</ele><time>2026-05-01T10:30:18.833Z</time></trkpt><trkpt lat="42.2616767" lon="14.2372715"><ele>336.33333333333337</ele><time>2026-05-01T10:30:19.833Z</time></trkpt><trkpt lat="42.2616036" lon="14.237298"><ele>335.0</ele><time>2026-05-01T10:30:20.833Z</time></trkpt><trkpt lat="42.2615408" lon="14.2373236"><ele>337.33333333333337</ele><time>2026-05-01T10:30:21.833Z</time></trkpt><trkpt lat="42.2614819" lon="14.2373626"><ele>339.6666666666667</ele><time>2026-05-01T10:30:22.833Z</time></trkpt><trkpt lat="42.261418" lon="14.2374087"><ele>342.0</ele><time>2026-05-01T10:30:23.833Z</time></trkpt><trkpt lat="42.2613545" lon="14.2374586"><ele>344.3333333333333</ele><time>2026-05-01T10:30:24.833Z</time></trkpt><trkpt lat="42.2612891" lon="14.2374876"><ele>346.66666666666663</ele><time>2026-05-01T10:30:25.832Z</time></trkpt><trkpt lat="42.2612249" lon="14.237515"><ele>349.0</ele><time>2026-05-01T10:30:26.833Z</time></trkpt><trkpt lat="42.2611106" lon="14.2375595"><ele>349.0</ele><time>2026-05-01T10:30:28.833Z</time></trkpt><trkpt lat="42.2610271" lon="14.2376733"><ele>349.0</ele><time>2026-05-01T10:30:30.833Z</time></trkpt><trkpt lat="42.2609889" lon="14.2377489"><ele>349.0</ele><time>2026-05-01T10:30:31.833Z</time></trkpt><trkpt lat="42.2609452" lon="14.2378213"><ele>349.0</ele><time>2026-05-01T10:30:32.833Z</time></trkpt><trkpt lat="42.2608995" lon="14.2378967"><ele>349.0</ele><time>2026-05-01T10:30:33.833Z</time></trkpt><trkpt lat="42.260857" lon="14.2379804"><ele>349.0</ele><time>2026-05-01T10:30:34.833Z</time></trkpt><trkpt lat="42.2608168" lon="14.2380694"><ele>349.16666666666663</ele><time>2026-05-01T10:30:35.833Z</time></trkpt><trkpt lat="42.2607779" lon="14.2381561"><ele>349.3333333333333</ele><time>2026-05-01T10:30:36.833Z</time></trkpt><trkpt lat="42.2607259" lon="14.2382629"><ele>349.5</ele><time>2026-05-01T10:30:38.833Z</time></trkpt><trkpt lat="42.2606885" lon="14.2383646"><ele>349.6666666666667</ele><time>2026-05-01T10:30:41.833Z</time></trkpt><trkpt lat="42.260644" lon="14.238481"><ele>349.83333333333337</ele><time>2026-05-01T10:30:43.833Z</time></trkpt><trkpt lat="42.2606178" lon="14.238559"><ele>350.0</ele><time>2026-05-01T10:30:44.832Z</time></trkpt><trkpt lat="42.2605861" lon="14.2386385"><ele>350.0</ele><time>2026-05-01T10:30:45.833Z</time></trkpt><trkpt lat="42.260553" lon="14.2387214"><ele>350.0</ele><time>2026-05-01T10:30:46.833Z</time></trkpt><trkpt lat="42.2605208" lon="14.2387989"><ele>350.0</ele><time>2026-05-01T10:30:47.833Z</time></trkpt><trkpt lat="42.2604827" lon="14.2388692"><ele>350.0</ele><time>2026-05-01T10:30:48.832Z</time></trkpt><trkpt lat="42.2603877" lon="14.238977"><ele>350.0</ele><time>2026-05-01T10:30:50.832Z</time></trkpt><trkpt lat="42.2602817" lon="14.2390569"><ele>350.0</ele><time>2026-05-01T10:30:52.833Z</time></trkpt><trkpt lat="42.2601805" lon="14.2391391"><ele>351.2</ele><time>2026-05-01T10:30:54.833Z</time></trkpt><trkpt lat="42.2600966" lon="14.2392086"><ele>352.4</ele><time>2026-05-01T10:30:56.833Z</time></trkpt><trkpt lat="42.2600165" lon="14.2392594"><ele>353.6</ele><time>2026-05-01T10:30:58.833Z</time></trkpt><trkpt lat="42.2599457" lon="14.2392652"><ele>354.8</ele><time>2026-05-01T10:31:00.833Z</time></trkpt><trkpt lat="42.2598435" lon="14.2392374"><ele>356.0</ele><time>2026-05-01T10:31:03.833Z</time></trkpt><trkpt lat="42.2597593" lon="14.2391905"><ele>357.0</ele><time>2026-05-01T10:31:05.833Z</time></trkpt><trkpt lat="42.2596675" lon="14.2391633"><ele>358.0</ele><time>2026-05-01T10:31:07.832Z</time></trkpt><trkpt lat="42.2595712" lon="14.2391427"><ele>359.0</ele><time>2026-05-01T10:31:09.833Z</time></trkpt><trkpt lat="42.259463" lon="14.2391119"><ele>360.0</ele><time>2026-05-01T10:31:11.833Z</time></trkpt><trkpt lat="42.2593621" lon="14.2391018"><ele>361.0</ele><time>2026-05-01T10:31:13.833Z</time></trkpt><trkpt lat="42.2592665" lon="14.239128"><ele>361.0</ele><time>2026-05-01T10:31:15.833Z</time></trkpt><trkpt lat="42.2591787" lon="14.2391804"><ele>361.0</ele><time>2026-05-01T10:31:17.833Z</time></trkpt><trkpt lat="42.2590765" lon="14.2392047"><ele>361.0</ele><time>2026-05-01T10:31:19.833Z</time></trkpt><trkpt lat="42.2589569" lon="14.2391999"><ele>361.0</ele><time>2026-05-01T10:31:21.833Z</time></trkpt><trkpt lat="42.2588868" lon="14.2391893"><ele>361.0</ele><time>2026-05-01T10:31:22.833Z</time></trkpt><trkpt lat="42.2588143" lon="14.2391826"><ele>362.3333333333333</ele><time>2026-05-01T10:31:23.833Z</time></trkpt><trkpt lat="42.2587506" lon="14.2391753"><ele>363.66666666666663</ele><time>2026-05-01T10:31:24.833Z</time></trkpt><trkpt lat="42.2586237" lon="14.2391872"><ele>365.0</ele><time>2026-05-01T10:31:26.833Z</time></trkpt><trkpt lat="42.2585572" lon="14.2392163"><ele>366.3333333333333</ele><time>2026-05-01T10:31:27.833Z</time></trkpt><trkpt lat="42.2584624" lon="14.2392876"><ele>367.6666666666667</ele><time>2026-05-01T10:31:29.833Z</time></trkpt><trkpt lat="42.258407" lon="14.2393281"><ele>369.0</ele><time>2026-05-01T10:31:30.833Z</time></trkpt><trkpt lat="42.2583533" lon="14.2393726"><ele>369.0</ele><time>2026-05-01T10:31:31.833Z</time></trkpt><trkpt lat="42.2582486" lon="14.2394417"><ele>369.0</ele><time>2026-05-01T10:31:33.833Z</time></trkpt><trkpt lat="42.2581852" lon="14.2394819"><ele>369.0</ele><time>2026-05-01T10:31:34.833Z</time></trkpt><trkpt lat="42.2581172" lon="14.2395333"><ele>369.0</ele><time>2026-05-01T10:31:35.833Z</time></trkpt><trkpt lat="42.2580416" lon="14.2396082"><ele>369.0</ele><time>2026-05-01T10:31:36.833Z</time></trkpt><trkpt lat="42.2579637" lon="14.2397003"><ele>368.8333333333333</ele><time>2026-05-01T10:31:37.833Z</time></trkpt><trkpt lat="42.2578988" lon="14.2397891"><ele>368.6666666666667</ele><time>2026-05-01T10:31:38.833Z</time></trkpt><trkpt lat="42.2578357" lon="14.2398693"><ele>368.5</ele><time>2026-05-01T10:31:39.833Z</time></trkpt><trkpt lat="42.257782" lon="14.2399285"><ele>368.33333333333337</ele><time>2026-05-01T10:31:40.833Z</time></trkpt><trkpt lat="42.2577297" lon="14.239978"><ele>368.1666666666667</ele><time>2026-05-01T10:31:41.833Z</time></trkpt><trkpt lat="42.2576692" lon="14.2400141"><ele>368.0</ele><time>2026-05-01T10:31:42.833Z</time></trkpt><trkpt lat="42.2575962" lon="14.2400435"><ele>367.0</ele><time>2026-05-01T10:31:43.833Z</time></trkpt><trkpt lat="42.2575254" lon="14.2400544"><ele>366.0</ele><time>2026-05-01T10:31:44.832Z</time></trkpt><trkpt lat="42.2574569" lon="14.2400538"><ele>365.0</ele><time>2026-05-01T10:31:45.832Z</time></trkpt><trkpt lat="42.257382" lon="14.2400389"><ele>364.0</ele><time>2026-05-01T10:31:46.832Z</time></trkpt><trkpt lat="42.257309" lon="14.2400118"><ele>363.0</ele><time>2026-05-01T10:31:47.833Z</time></trkpt><trkpt lat="42.2572483" lon="14.2399833"><ele>362.0</ele><time>2026-05-01T10:31:48.833Z</time></trkpt><trkpt lat="42.2571534" lon="14.2399027"><ele>361.0</ele><time>2026-05-01T10:31:50.833Z</time></trkpt><trkpt lat="42.2570713" lon="14.2398151"><ele>360.0</ele><time>2026-05-01T10:31:52.833Z</time></trkpt><trkpt lat="42.2569928" lon="14.2397288"><ele>359.0</ele><time>2026-05-01T10:31:54.832Z</time></trkpt><trkpt lat="42.256904" lon="14.2396558"><ele>358.0</ele><time>2026-05-01T10:31:56.833Z</time></trkpt><trkpt lat="42.2568143" lon="14.2395936"><ele>357.0</ele><time>2026-05-01T10:31:58.832Z</time></trkpt><trkpt lat="42.256746" lon="14.2395613"><ele>357.0</ele><time>2026-05-01T10:32:00.833Z</time></trkpt><trkpt lat="42.2566766" lon="14.2395757"><ele>357.0</ele><time>2026-05-01T10:32:02.832Z</time></trkpt><trkpt lat="42.2565925" lon="14.2395091"><ele>357.0</ele><time>2026-05-01T10:32:04.832Z</time></trkpt><trkpt lat="42.2565064" lon="14.2394033"><ele>357.0</ele><time>2026-05-01T10:32:06.832Z</time></trkpt><trkpt lat="42.2564457" lon="14.2393559"><ele>357.0</ele><time>2026-05-01T10:32:07.832Z</time></trkpt><trkpt lat="42.2563791" lon="14.2393095"><ele>357.0</ele><time>2026-05-01T10:32:08.832Z</time></trkpt><trkpt lat="42.2563084" lon="14.2392535"><ele>355.0</ele><time>2026-05-01T10:32:09.832Z</time></trkpt><trkpt lat="42.2562324" lon="14.2391852"><ele>353.0</ele><time>2026-05-01T10:32:10.832Z</time></trkpt><trkpt lat="42.2561598" lon="14.2391221"><ele>351.0</ele><time>2026-05-01T10:32:11.832Z</time></trkpt><trkpt lat="42.2560904" lon="14.2390631"><ele>349.0</ele><time>2026-05-01T10:32:12.832Z</time></trkpt><trkpt lat="42.2560244" lon="14.2390009"><ele>347.0</ele><time>2026-05-01T10:32:13.832Z</time></trkpt><trkpt lat="42.2559605" lon="14.2389407"><ele>345.0</ele><time>2026-05-01T10:32:14.832Z</time></trkpt><trkpt lat="42.2558974" lon="14.238886"><ele>345.0</ele><time>2026-05-01T10:32:15.832Z</time></trkpt><trkpt lat="42.2558403" lon="14.2388386"><ele>345.0</ele><time>2026-05-01T10:32:16.832Z</time></trkpt><trkpt lat="42.2557843" lon="14.2387931"><ele>345.0</ele><time>2026-05-01T10:32:17.832Z</time></trkpt><trkpt lat="42.2556968" lon="14.2387174"><ele>345.0</ele><time>2026-05-01T10:32:19.832Z</time></trkpt><trkpt lat="42.2556299" lon="14.2386878"><ele>345.0</ele><time>2026-05-01T10:32:22.832Z</time></trkpt><trkpt lat="42.2555328" lon="14.2386421"><ele>345.0</ele><time>2026-05-01T10:32:37.832Z</time></trkpt><trkpt lat="42.2555003" lon="14.2385134"><ele>345.0</ele><time>2026-05-01T10:32:39.832Z</time></trkpt><trkpt lat="42.2554486" lon="14.2383576"><ele>345.0</ele><time>2026-05-01T10:32:41.831Z</time></trkpt><trkpt lat="42.2554028" lon="14.2382833"><ele>345.0</ele><time>2026-05-01T10:32:42.832Z</time></trkpt><trkpt lat="42.2553459" lon="14.2382245"><ele>345.0</ele><time>2026-05-01T10:32:43.832Z</time></trkpt><trkpt lat="42.2552872" lon="14.2381866"><ele>345.0</ele><time>2026-05-01T10:32:44.832Z</time></trkpt><trkpt lat="42.2552145" lon="14.2381531"><ele>345.0</ele><time>2026-05-01T10:32:45.832Z</time></trkpt><trkpt lat="42.255133" lon="14.2381383"><ele>341.4</ele><time>2026-05-01T10:32:46.832Z</time></trkpt><trkpt lat="42.255047" lon="14.2381253"><ele>337.8</ele><time>2026-05-01T10:32:47.832Z</time></trkpt><trkpt lat="42.2549501" lon="14.2381109"><ele>334.20000000000005</ele><time>2026-05-01T10:32:48.832Z</time></trkpt><trkpt lat="42.2548477" lon="14.2380928"><ele>330.6</ele><time>2026-05-01T10:32:49.831Z</time></trkpt><trkpt lat="42.2547492" lon="14.2380725"><ele>327.0</ele><time>2026-05-01T10:32:50.832Z</time></trkpt><trkpt lat="42.2546574" lon="14.2380517"><ele>327.0</ele><time>2026-05-01T10:32:51.832Z</time></trkpt><trkpt lat="42.2545675" lon="14.2380354"><ele>327.0</ele><time>2026-05-01T10:32:52.832Z</time></trkpt><trkpt lat="42.2544815" lon="14.2380193"><ele>327.0</ele><time>2026-05-01T10:32:53.832Z</time></trkpt><trkpt lat="42.2544005" lon="14.238001"><ele>327.0</ele><time>2026-05-01T10:32:54.832Z</time></trkpt><trkpt lat="42.2543195" lon="14.2379741"><ele>327.0</ele><time>2026-05-01T10:32:55.832Z</time></trkpt><trkpt lat="42.2542377" lon="14.237934"><ele>327.0</ele><time>2026-05-01T10:32:56.832Z</time></trkpt><trkpt lat="42.2541579" lon="14.2378741"><ele>327.0</ele><time>2026-05-01T10:32:57.832Z</time></trkpt><trkpt lat="42.2540753" lon="14.237799"><ele>327.0</ele><time>2026-05-01T10:32:58.832Z</time></trkpt><trkpt lat="42.2539838" lon="14.2377099"><ele>327.0</ele><time>2026-05-01T10:32:59.832Z</time></trkpt><trkpt lat="42.2538883" lon="14.2376172"><ele>327.0</ele><time>2026-05-01T10:33:00.832Z</time></trkpt><trkpt lat="42.2537947" lon="14.2375265"><ele>327.0</ele><time>2026-05-01T10:33:01.832Z</time></trkpt><trkpt lat="42.2537089" lon="14.2374351"><ele>327.6</ele><time>2026-05-01T10:33:02.831Z</time></trkpt><trkpt lat="42.2536327" lon="14.2373381"><ele>328.20000000000005</ele><time>2026-05-01T10:33:03.832Z</time></trkpt><trkpt lat="42.2535611" lon="14.237234"><ele>328.8</ele><time>2026-05-01T10:33:04.832Z</time></trkpt><trkpt lat="42.2535057" lon="14.237117"><ele>329.4</ele><time>2026-05-01T10:33:05.831Z</time></trkpt><trkpt lat="42.2534512" lon="14.2370014"><ele>330.0</ele><time>2026-05-01T10:33:06.831Z</time></trkpt><trkpt lat="42.2534036" lon="14.2368689"><ele>330.0</ele><time>2026-05-01T10:33:07.832Z</time></trkpt><trkpt lat="42.2533617" lon="14.2367289"><ele>330.0</ele><time>2026-05-01T10:33:08.832Z</time></trkpt><trkpt lat="42.2533204" lon="14.2365776"><ele>330.0</ele><time>2026-05-01T10:33:09.832Z</time></trkpt><trkpt lat="42.2532689" lon="14.2364157"><ele>330.0</ele><time>2026-05-01T10:33:10.831Z</time></trkpt><trkpt lat="42.2532146" lon="14.2362575"><ele>330.5</ele><time>2026-05-01T10:33:11.832Z</time></trkpt><trkpt lat="42.2531672" lon="14.2360968"><ele>331.0</ele><time>2026-05-01T10:33:12.832Z</time></trkpt><trkpt lat="42.2531226" lon="14.2359455"><ele>331.5</ele><time>2026-05-01T10:33:13.832Z</time></trkpt><trkpt lat="42.2530786" lon="14.2358031"><ele>332.0</ele><time>2026-05-01T10:33:14.832Z</time></trkpt><trkpt lat="42.2530398" lon="14.2356708"><ele>328.40000000000003</ele><time>2026-05-01T10:33:15.831Z</time></trkpt><trkpt lat="42.2529959" lon="14.2355516"><ele>324.8</ele><time>2026-05-01T10:33:16.831Z</time></trkpt><trkpt lat="42.2529433" lon="14.2354381"><ele>321.2</ele><time>2026-05-01T10:33:17.832Z</time></trkpt><trkpt lat="42.2528806" lon="14.2353423"><ele>317.6</ele><time>2026-05-01T10:33:18.831Z</time></trkpt><trkpt lat="42.2527996" lon="14.2352622"><ele>314.0</ele><time>2026-05-01T10:33:19.831Z</time></trkpt><trkpt lat="42.252704" lon="14.2351903"><ele>314.0</ele><time>2026-05-01T10:33:20.832Z</time></trkpt><trkpt lat="42.2526028" lon="14.2351341"><ele>314.0</ele><time>2026-05-01T10:33:21.831Z</time></trkpt><trkpt lat="42.2524994" lon="14.235082"><ele>314.0</ele><time>2026-05-01T10:33:22.832Z</time></trkpt><trkpt lat="42.2524022" lon="14.2350249"><ele>314.0</ele><time>2026-05-01T10:33:23.832Z</time></trkpt><trkpt lat="42.2523109" lon="14.2349494"><ele>314.0</ele><time>2026-05-01T10:33:24.832Z</time></trkpt><trkpt lat="42.2522268" lon="14.2348597"><ele>314.8</ele><time>2026-05-01T10:33:25.832Z</time></trkpt><trkpt lat="42.2521571" lon="14.2347577"><ele>315.59999999999997</ele><time>2026-05-01T10:33:26.832Z</time></trkpt><trkpt lat="42.2520873" lon="14.2346423"><ele>316.4</ele><time>2026-05-01T10:33:27.832Z</time></trkpt><trkpt lat="42.2520138" lon="14.234523"><ele>317.2</ele><time>2026-05-01T10:33:28.832Z</time></trkpt><trkpt lat="42.251942" lon="14.2344022"><ele>318.0</ele><time>2026-05-01T10:33:29.832Z</time></trkpt><trkpt lat="42.2518774" lon="14.2342844"><ele>318.0</ele><time>2026-05-01T10:33:30.832Z</time></trkpt><trkpt lat="42.2518256" lon="14.2341812"><ele>318.0</ele><time>2026-05-01T10:33:31.832Z</time></trkpt><trkpt lat="42.2517819" lon="14.2340839"><ele>318.0</ele><time>2026-05-01T10:33:32.832Z</time></trkpt><trkpt lat="42.2517541" lon="14.2339799"><ele>318.0</ele><time>2026-05-01T10:33:33.832Z</time></trkpt><trkpt lat="42.2517424" lon="14.2338772"><ele>318.0</ele><time>2026-05-01T10:33:34.832Z</time></trkpt><trkpt lat="42.2517568" lon="14.2337781"><ele>318.0</ele><time>2026-05-01T10:33:35.831Z</time></trkpt><trkpt lat="42.251785" lon="14.2336877"><ele>314.6</ele><time>2026-05-01T10:33:36.832Z</time></trkpt><trkpt lat="42.2518294" lon="14.2336232"><ele>311.20000000000005</ele><time>2026-05-01T10:33:37.832Z</time></trkpt><trkpt lat="42.2518956" lon="14.2335866"><ele>307.8</ele><time>2026-05-01T10:33:38.832Z</time></trkpt><trkpt lat="42.2520055" lon="14.2336385"><ele>304.40000000000003</ele><time>2026-05-01T10:33:40.832Z</time></trkpt><trkpt lat="42.2520925" lon="14.2337476"><ele>301.0</ele><time>2026-05-01T10:33:42.831Z</time></trkpt><trkpt lat="42.2521343" lon="14.2338406"><ele>301.0</ele><time>2026-05-01T10:33:43.832Z</time></trkpt><trkpt lat="42.2521776" lon="14.2339326"><ele>301.0</ele><time>2026-05-01T10:33:44.832Z</time></trkpt><trkpt lat="42.2522272" lon="14.234033"><ele>301.0</ele><time>2026-05-01T10:33:45.832Z</time></trkpt><trkpt lat="42.2522813" lon="14.2341411"><ele>301.0</ele><time>2026-05-01T10:33:46.832Z</time></trkpt><trkpt lat="42.2523446" lon="14.234244"><ele>301.0</ele><time>2026-05-01T10:33:47.832Z</time></trkpt><trkpt lat="42.2524203" lon="14.234321"><ele>299.75</ele><time>2026-05-01T10:33:48.832Z</time></trkpt><trkpt lat="42.2525096" lon="14.2343807"><ele>298.5</ele><time>2026-05-01T10:33:49.832Z</time></trkpt><trkpt lat="42.252621" lon="14.234419"><ele>297.25</ele><time>2026-05-01T10:33:50.833Z</time></trkpt><trkpt lat="42.2527443" lon="14.2344403"><ele>296.0</ele><time>2026-05-01T10:33:51.833Z</time></trkpt><trkpt lat="42.2528753" lon="14.2344425"><ele>296.0</ele><time>2026-05-01T10:33:52.833Z</time></trkpt><trkpt lat="42.2530188" lon="14.2344402"><ele>296.0</ele><time>2026-05-01T10:33:53.833Z</time></trkpt><trkpt lat="42.25318" lon="14.2344389"><ele>296.0</ele><time>2026-05-01T10:33:54.833Z</time></trkpt><trkpt lat="42.2533444" lon="14.2344386"><ele>293.6666666666667</ele><time>2026-05-01T10:33:55.833Z</time></trkpt><trkpt lat="42.2535099" lon="14.2344552"><ele>291.3333333333333</ele><time>2026-05-01T10:33:56.833Z</time></trkpt><trkpt lat="42.2536721" lon="14.2345117"><ele>289.0</ele><time>2026-05-01T10:33:57.832Z</time></trkpt><trkpt lat="42.2538234" lon="14.2345972"><ele>290.0</ele><time>2026-05-01T10:33:58.833Z</time></trkpt><trkpt lat="42.2539633" lon="14.2346842"><ele>291.0</ele><time>2026-05-01T10:33:59.833Z</time></trkpt><trkpt lat="42.2540906" lon="14.2347537"><ele>292.0</ele><time>2026-05-01T10:34:00.833Z</time></trkpt><trkpt lat="42.2542048" lon="14.2348166"><ele>293.0</ele><time>2026-05-01T10:34:01.833Z</time></trkpt><trkpt lat="42.2543104" lon="14.2348799"><ele>293.0</ele><time>2026-05-01T10:34:02.832Z</time></trkpt><trkpt lat="42.2544049" lon="14.2349384"><ele>293.0</ele><time>2026-05-01T10:34:03.832Z</time></trkpt><trkpt lat="42.2544869" lon="14.2349876"><ele>293.0</ele><time>2026-05-01T10:34:04.833Z</time></trkpt><trkpt lat="42.2545598" lon="14.235032"><ele>293.0</ele><time>2026-05-01T10:34:05.833Z</time></trkpt><trkpt lat="42.2546283" lon="14.2350762"><ele>293.0</ele><time>2026-05-01T10:34:06.833Z</time></trkpt><trkpt lat="42.254694" lon="14.2351168"><ele>293.0</ele><time>2026-05-01T10:34:07.833Z</time></trkpt><trkpt lat="42.2547529" lon="14.2351496"><ele>291.5</ele><time>2026-05-01T10:34:08.833Z</time></trkpt><trkpt lat="42.2548173" lon="14.2351788"><ele>290.0</ele><time>2026-05-01T10:34:09.833Z</time></trkpt><trkpt lat="42.2548822" lon="14.2352109"><ele>288.5</ele><time>2026-05-01T10:34:10.832Z</time></trkpt><trkpt lat="42.2549485" lon="14.2352398"><ele>287.0</ele><time>2026-05-01T10:34:11.833Z</time></trkpt><trkpt lat="42.2550209" lon="14.2352641"><ele>285.5</ele><time>2026-05-01T10:34:12.833Z</time></trkpt><trkpt lat="42.2551057" lon="14.2352835"><ele>284.0</ele><time>2026-05-01T10:34:13.832Z</time></trkpt><trkpt lat="42.2551928" lon="14.2352974"><ele>284.0</ele><time>2026-05-01T10:34:14.833Z</time></trkpt><trkpt lat="42.2552803" lon="14.2353089"><ele>284.0</ele><time>2026-05-01T10:34:15.833Z</time></trkpt><trkpt lat="42.2553667" lon="14.2353193"><ele>284.0</ele><time>2026-05-01T10:34:16.833Z</time></trkpt><trkpt lat="42.2554506" lon="14.235324"><ele>284.0</ele><time>2026-05-01T10:34:17.833Z</time></trkpt><trkpt lat="42.2555377" lon="14.2353279"><ele>284.0</ele><time>2026-05-01T10:34:18.833Z</time></trkpt><trkpt lat="42.2556294" lon="14.2353375"><ele>284.0</ele><time>2026-05-01T10:34:19.833Z</time></trkpt><trkpt lat="42.2557248" lon="14.23534"><ele>282.4</ele><time>2026-05-01T10:34:20.833Z</time></trkpt><trkpt lat="42.2558255" lon="14.2353265"><ele>280.79999999999995</ele><time>2026-05-01T10:34:21.833Z</time></trkpt><trkpt lat="42.2559252" lon="14.235304"><ele>279.20000000000005</ele><time>2026-05-01T10:34:22.833Z</time></trkpt><trkpt lat="42.2560253" lon="14.2352628"><ele>277.6</ele><time>2026-05-01T10:34:23.832Z</time></trkpt><trkpt lat="42.2561251" lon="14.2351971"><ele>276.0</ele><time>2026-05-01T10:34:24.833Z</time></trkpt><trkpt lat="42.256214" lon="14.2351175"><ele>276.0</ele><time>2026-05-01T10:34:25.833Z</time></trkpt><trkpt lat="42.2562955" lon="14.2350304"><ele>276.0</ele><time>2026-05-01T10:34:26.833Z</time></trkpt><trkpt lat="42.2563852" lon="14.2349482"><ele>276.0</ele><time>2026-05-01T10:34:27.833Z</time></trkpt><trkpt lat="42.256478" lon="14.234863"><ele>276.0</ele><time>2026-05-01T10:34:28.833Z</time></trkpt><trkpt lat="42.2565663" lon="14.234781"><ele>276.0</ele><time>2026-05-01T10:34:29.832Z</time></trkpt><trkpt lat="42.2566557" lon="14.2346993"><ele>274.3333333333333</ele><time>2026-05-01T10:34:30.833Z</time></trkpt><trkpt lat="42.2567381" lon="14.2346251"><ele>272.6666666666667</ele><time>2026-05-01T10:34:31.833Z</time></trkpt><trkpt lat="42.2568049" lon="14.2345638"><ele>271.0</ele><time>2026-05-01T10:34:32.833Z</time></trkpt><trkpt lat="42.2568561" lon="14.2345103"><ele>269.33333333333337</ele><time>2026-05-01T10:34:33.833Z</time></trkpt><trkpt lat="42.2569289" lon="14.2344247"><ele>267.6666666666667</ele><time>2026-05-01T10:34:35.833Z</time></trkpt><trkpt lat="42.2569152" lon="14.2343409"><ele>266.0</ele><time>2026-05-01T10:34:37.833Z</time></trkpt><trkpt lat="42.2568224" lon="14.2342886"><ele>266.0</ele><time>2026-05-01T10:34:39.833Z</time></trkpt><trkpt lat="42.256759" lon="14.2342822"><ele>266.0</ele><time>2026-05-01T10:34:40.833Z</time></trkpt><trkpt lat="42.2566869" lon="14.234297"><ele>266.0</ele><time>2026-05-01T10:34:41.833Z</time></trkpt><trkpt lat="42.256598" lon="14.2343108"><ele>266.0</ele><time>2026-05-01T10:34:42.833Z</time></trkpt><trkpt lat="42.2565036" lon="14.2343122"><ele>266.0</ele><time>2026-05-01T10:34:43.833Z</time></trkpt><trkpt lat="42.2564051" lon="14.234319"><ele>266.0</ele><time>2026-05-01T10:34:44.833Z</time></trkpt><trkpt lat="42.2563068" lon="14.2343385"><ele>266.0</ele><time>2026-05-01T10:34:45.833Z</time></trkpt><trkpt lat="42.2562117" lon="14.2343497"><ele>266.0</ele><time>2026-05-01T10:34:46.833Z</time></trkpt><trkpt lat="42.2561287" lon="14.2343602"><ele>266.0</ele><time>2026-05-01T10:34:47.833Z</time></trkpt><trkpt lat="42.256039" lon="14.2343496"><ele>266.0</ele><time>2026-05-01T10:34:48.833Z</time></trkpt><trkpt lat="42.255946" lon="14.2343182"><ele>266.0</ele><time>2026-05-01T10:34:49.833Z</time></trkpt><trkpt lat="42.2558583" lon="14.2342558"><ele>266.0</ele><time>2026-05-01T10:34:50.833Z</time></trkpt><trkpt lat="42.2557805" lon="14.234175"><ele>266.0</ele><time>2026-05-01T10:34:51.832Z</time></trkpt><trkpt lat="42.2557226" lon="14.2340767"><ele>266.0</ele><time>2026-05-01T10:34:52.833Z</time></trkpt><trkpt lat="42.2556796" lon="14.233961"><ele>266.0</ele><time>2026-05-01T10:34:53.833Z</time></trkpt><trkpt lat="42.2556456" lon="14.2338283"><ele>266.0</ele><time>2026-05-01T10:34:54.833Z</time></trkpt><trkpt lat="42.255615" lon="14.2336826"><ele>264.0</ele><time>2026-05-01T10:34:55.833Z</time></trkpt><trkpt lat="42.2555946" lon="14.2335387"><ele>262.0</ele><time>2026-05-01T10:34:56.833Z</time></trkpt><trkpt lat="42.2555811" lon="14.2333988"><ele>260.0</ele><time>2026-05-01T10:34:57.833Z</time></trkpt><trkpt lat="42.2555686" lon="14.2332558"><ele>258.0</ele><time>2026-05-01T10:34:58.833Z</time></trkpt><trkpt lat="42.2555667" lon="14.233111"><ele>256.0</ele><time>2026-05-01T10:34:59.833Z</time></trkpt><trkpt lat="42.2555923" lon="14.2329764"><ele>255.0</ele><time>2026-05-01T10:35:00.833Z</time></trkpt><trkpt lat="42.2556497" lon="14.2328614"><ele>254.00000000000003</ele><time>2026-05-01T10:35:01.833Z</time></trkpt><trkpt lat="42.255719" lon="14.2327611"><ele>253.00000000000003</ele><time>2026-05-01T10:35:02.833Z</time></trkpt><trkpt lat="42.2557999" lon="14.2326751"><ele>252.0</ele><time>2026-05-01T10:35:03.833Z</time></trkpt><trkpt lat="42.2558947" lon="14.2326128"><ele>251.0</ele><time>2026-05-01T10:35:04.833Z</time></trkpt><trkpt lat="42.2559875" lon="14.2325622"><ele>251.0</ele><time>2026-05-01T10:35:05.833Z</time></trkpt><trkpt lat="42.2560753" lon="14.2325008"><ele>251.00000000000003</ele><time>2026-05-01T10:35:06.833Z</time></trkpt><trkpt lat="42.2561654" lon="14.2324433"><ele>251.00000000000003</ele><time>2026-05-01T10:35:07.833Z</time></trkpt><trkpt lat="42.2562536" lon="14.2323894"><ele>251.0</ele><time>2026-05-01T10:35:08.832Z</time></trkpt><trkpt lat="42.2563426" lon="14.2323449"><ele>251.0</ele><time>2026-05-01T10:35:09.832Z</time></trkpt><trkpt lat="42.2564368" lon="14.23231"><ele>249.60000000000002</ele><time>2026-05-01T10:35:10.833Z</time></trkpt><trkpt lat="42.2565336" lon="14.2322851"><ele>248.20000000000002</ele><time>2026-05-01T10:35:11.833Z</time></trkpt><trkpt lat="42.2566315" lon="14.2322714"><ele>246.79999999999998</ele><time>2026-05-01T10:35:12.833Z</time></trkpt><trkpt lat="42.25673" lon="14.2322625"><ele>245.39999999999998</ele><time>2026-05-01T10:35:13.833Z</time></trkpt><trkpt lat="42.2568257" lon="14.232249"><ele>244.0</ele><time>2026-05-01T10:35:14.832Z</time></trkpt><trkpt lat="42.2569213" lon="14.2322291"><ele>244.0</ele><time>2026-05-01T10:35:15.833Z</time></trkpt><trkpt lat="42.2570143" lon="14.2321938"><ele>243.99999999999997</ele><time>2026-05-01T10:35:16.833Z</time></trkpt><trkpt lat="42.2571011" lon="14.2321424"><ele>243.99999999999997</ele><time>2026-05-01T10:35:17.833Z</time></trkpt><trkpt lat="42.2571842" lon="14.2320701"><ele>244.0</ele><time>2026-05-01T10:35:18.832Z</time></trkpt><trkpt lat="42.2572557" lon="14.231977"><ele>244.0</ele><time>2026-05-01T10:35:19.833Z</time></trkpt><trkpt lat="42.257322" lon="14.23188"><ele>242.6</ele><time>2026-05-01T10:35:20.833Z</time></trkpt><trkpt lat="42.2573905" lon="14.2317855"><ele>241.2</ele><time>2026-05-01T10:35:21.833Z</time></trkpt><trkpt lat="42.2574583" lon="14.2316796"><ele>239.79999999999998</ele><time>2026-05-01T10:35:22.833Z</time></trkpt><trkpt lat="42.2575305" lon="14.2315811"><ele>238.39999999999998</ele><time>2026-05-01T10:35:23.833Z</time></trkpt><trkpt lat="42.2576036" lon="14.2314789"><ele>237.0</ele><time>2026-05-01T10:35:24.833Z</time></trkpt><trkpt lat="42.2576788" lon="14.2313796"><ele>236.39999999999998</ele><time>2026-05-01T10:35:25.833Z</time></trkpt><trkpt lat="42.2577543" lon="14.2312868"><ele>235.79999999999998</ele><time>2026-05-01T10:35:26.833Z</time></trkpt><trkpt lat="42.2578313" lon="14.2311961"><ele>235.2</ele><time>2026-05-01T10:35:27.833Z</time></trkpt><trkpt lat="42.257901" lon="14.2310991"><ele>234.6</ele><time>2026-05-01T10:35:28.833Z</time></trkpt><trkpt lat="42.2579745" lon="14.2310048"><ele>234.0</ele><time>2026-05-01T10:35:29.833Z</time></trkpt><trkpt lat="42.2580459" lon="14.2309041"><ele>234.0</ele><time>2026-05-01T10:35:30.832Z</time></trkpt><trkpt lat="42.2581109" lon="14.2308041"><ele>233.99999999999997</ele><time>2026-05-01T10:35:31.833Z</time></trkpt><trkpt lat="42.2581677" lon="14.2306994"><ele>233.99999999999997</ele><time>2026-05-01T10:35:32.833Z</time></trkpt><trkpt lat="42.2582146" lon="14.2305783"><ele>234.0</ele><time>2026-05-01T10:35:33.833Z</time></trkpt><trkpt lat="42.2582469" lon="14.2304574"><ele>234.0</ele><time>2026-05-01T10:35:34.832Z</time></trkpt><trkpt lat="42.2582713" lon="14.2303308"><ele>231.39999999999998</ele><time>2026-05-01T10:35:35.833Z</time></trkpt><trkpt lat="42.2582946" lon="14.2302028"><ele>228.79999999999998</ele><time>2026-05-01T10:35:36.832Z</time></trkpt><trkpt lat="42.2583167" lon="14.2300796"><ele>226.20000000000002</ele><time>2026-05-01T10:35:37.833Z</time></trkpt><trkpt lat="42.2583368" lon="14.2299526"><ele>223.60000000000002</ele><time>2026-05-01T10:35:38.832Z</time></trkpt><trkpt lat="42.2583573" lon="14.2298249"><ele>221.0</ele><time>2026-05-01T10:35:39.833Z</time></trkpt><trkpt lat="42.2583826" lon="14.229698"><ele>220.4</ele><time>2026-05-01T10:35:40.833Z</time></trkpt><trkpt lat="42.258405" lon="14.2295737"><ele>219.8</ele><time>2026-05-01T10:35:41.833Z</time></trkpt><trkpt lat="42.2584253" lon="14.2294476"><ele>219.20000000000002</ele><time>2026-05-01T10:35:42.833Z</time></trkpt><trkpt lat="42.2584325" lon="14.229316"><ele>218.60000000000002</ele><time>2026-05-01T10:35:43.833Z</time></trkpt><trkpt lat="42.2584226" lon="14.2291843"><ele>218.0</ele><time>2026-05-01T10:35:44.833Z</time></trkpt><trkpt lat="42.2583881" lon="14.2290729"><ele>218.00000000000003</ele><time>2026-05-01T10:35:45.832Z</time></trkpt><trkpt lat="42.2583344" lon="14.2289804"><ele>218.0</ele><time>2026-05-01T10:35:46.833Z</time></trkpt><trkpt lat="42.2582573" lon="14.2289094"><ele>218.0</ele><time>2026-05-01T10:35:47.833Z</time></trkpt><trkpt lat="42.258169" lon="14.2288637"><ele>218.0</ele><time>2026-05-01T10:35:48.833Z</time></trkpt><trkpt lat="42.2580813" lon="14.2288405"><ele>218.00000000000003</ele><time>2026-05-01T10:35:49.833Z</time></trkpt><trkpt lat="42.2579996" lon="14.2288476"><ele>218.0</ele><time>2026-05-01T10:35:50.833Z</time></trkpt><trkpt lat="42.2579161" lon="14.2288823"><ele>216.60000000000002</ele><time>2026-05-01T10:35:51.833Z</time></trkpt><trkpt lat="42.2578398" lon="14.228926"><ele>215.20000000000002</ele><time>2026-05-01T10:35:52.833Z</time></trkpt><trkpt lat="42.2577556" lon="14.2289836"><ele>213.8</ele><time>2026-05-01T10:35:53.833Z</time></trkpt><trkpt lat="42.2576679" lon="14.2290461"><ele>212.4</ele><time>2026-05-01T10:35:54.833Z</time></trkpt><trkpt lat="42.2575788" lon="14.229119"><ele>211.0</ele><time>2026-05-01T10:35:55.833Z</time></trkpt><trkpt lat="42.2574861" lon="14.2291953"><ele>211.0</ele><time>2026-05-01T10:35:56.833Z</time></trkpt><trkpt lat="42.2573947" lon="14.2292674"><ele>211.0</ele><time>2026-05-01T10:35:57.833Z</time></trkpt><trkpt lat="42.2572998" lon="14.22933"><ele>211.0</ele><time>2026-05-01T10:35:58.833Z</time></trkpt><trkpt lat="42.2572036" lon="14.2293736"><ele>211.0</ele><time>2026-05-01T10:35:59.833Z</time></trkpt><trkpt lat="42.2571063" lon="14.2293968"><ele>211.0</ele><time>2026-05-01T10:36:00.833Z</time></trkpt><trkpt lat="42.2570093" lon="14.2293822"><ele>210.8</ele><time>2026-05-01T10:36:01.833Z</time></trkpt><trkpt lat="42.2569084" lon="14.2293296"><ele>210.60000000000002</ele><time>2026-05-01T10:36:02.833Z</time></trkpt><trkpt lat="42.2568217" lon="14.2292311"><ele>210.4</ele><time>2026-05-01T10:36:03.833Z</time></trkpt><trkpt lat="42.2567712" lon="14.2290999"><ele>210.2</ele><time>2026-05-01T10:36:04.833Z</time></trkpt><trkpt lat="42.2567451" lon="14.2289506"><ele>210.0</ele><time>2026-05-01T10:36:05.833Z</time></trkpt><trkpt lat="42.256746" lon="14.2287959"><ele>209.8</ele><time>2026-05-01T10:36:06.833Z</time></trkpt><trkpt lat="42.2567705" lon="14.2286486"><ele>209.6</ele><time>2026-05-01T10:36:07.833Z</time></trkpt><trkpt lat="42.2568158" lon="14.2285343"><ele>209.39999999999998</ele><time>2026-05-01T10:36:08.833Z</time></trkpt><trkpt lat="42.2568834" lon="14.2284272"><ele>209.2</ele><time>2026-05-01T10:36:09.833Z</time></trkpt><trkpt lat="42.2569545" lon="14.2283192"><ele>209.0</ele><time>2026-05-01T10:36:10.833Z</time></trkpt><trkpt lat="42.2570264" lon="14.2282086"><ele>209.0</ele><time>2026-05-01T10:36:11.833Z</time></trkpt><trkpt lat="42.2570993" lon="14.2280986"><ele>209.0</ele><time>2026-05-01T10:36:12.833Z</time></trkpt><trkpt lat="42.2571731" lon="14.2279872"><ele>209.0</ele><time>2026-05-01T10:36:13.832Z</time></trkpt><trkpt lat="42.2572396" lon="14.2278736"><ele>209.0</ele><time>2026-05-01T10:36:14.833Z</time></trkpt><trkpt lat="42.2572937" lon="14.2277563"><ele>209.0</ele><time>2026-05-01T10:36:15.833Z</time></trkpt><trkpt lat="42.257337" lon="14.2276394"><ele>207.39999999999998</ele><time>2026-05-01T10:36:16.833Z</time></trkpt><trkpt lat="42.2573738" lon="14.2275044"><ele>205.8</ele><time>2026-05-01T10:36:17.833Z</time></trkpt><trkpt lat="42.2574028" lon="14.227359"><ele>204.2</ele><time>2026-05-01T10:36:18.833Z</time></trkpt><trkpt lat="42.2574179" lon="14.2272049"><ele>202.60000000000002</ele><time>2026-05-01T10:36:19.833Z</time></trkpt><trkpt lat="42.2574235" lon="14.2270532"><ele>201.0</ele><time>2026-05-01T10:36:20.833Z</time></trkpt><trkpt lat="42.2574227" lon="14.2269015"><ele>199.20000000000002</ele><time>2026-05-01T10:36:21.833Z</time></trkpt><trkpt lat="42.2574053" lon="14.2267649"><ele>197.4</ele><time>2026-05-01T10:36:22.833Z</time></trkpt><trkpt lat="42.2573638" lon="14.2266527"><ele>195.6</ele><time>2026-05-01T10:36:23.833Z</time></trkpt><trkpt lat="42.2572966" lon="14.2265524"><ele>193.8</ele><time>2026-05-01T10:36:24.832Z</time></trkpt><trkpt lat="42.2572119" lon="14.2264637"><ele>192.0</ele><time>2026-05-01T10:36:25.833Z</time></trkpt><trkpt lat="42.2571218" lon="14.2264022"><ele>190.2</ele><time>2026-05-01T10:36:26.833Z</time></trkpt><trkpt lat="42.2570309" lon="14.2263416"><ele>188.39999999999998</ele><time>2026-05-01T10:36:27.833Z</time></trkpt><trkpt lat="42.2569343" lon="14.2262836"><ele>186.60000000000002</ele><time>2026-05-01T10:36:28.833Z</time></trkpt><trkpt lat="42.2568402" lon="14.2262261"><ele>184.8</ele><time>2026-05-01T10:36:29.832Z</time></trkpt><trkpt lat="42.2567517" lon="14.2261729"><ele>183.0</ele><time>2026-05-01T10:36:30.833Z</time></trkpt><trkpt lat="42.2566753" lon="14.2261106"><ele>183.0</ele><time>2026-05-01T10:36:31.833Z</time></trkpt><trkpt lat="42.2566183" lon="14.2260183"><ele>183.0</ele><time>2026-05-01T10:36:32.833Z</time></trkpt><trkpt lat="42.2565898" lon="14.2259174"><ele>183.0</ele><time>2026-05-01T10:36:33.833Z</time></trkpt><trkpt lat="42.2566039" lon="14.2257996"><ele>183.0</ele><time>2026-05-01T10:36:34.833Z</time></trkpt><trkpt lat="42.2566556" lon="14.2256755"><ele>183.0</ele><time>2026-05-01T10:36:35.833Z</time></trkpt><trkpt lat="42.256732" lon="14.2256009"><ele>180.4</ele><time>2026-05-01T10:36:36.833Z</time></trkpt><trkpt lat="42.2568183" lon="14.2255596"><ele>177.8</ele><time>2026-05-01T10:36:37.832Z</time></trkpt><trkpt lat="42.2569132" lon="14.2255489"><ele>175.2</ele><time>2026-05-01T10:36:38.833Z</time></trkpt><trkpt lat="42.2570238" lon="14.225558"><ele>172.6</ele><time>2026-05-01T10:36:39.833Z</time></trkpt><trkpt lat="42.2571237" lon="14.2255612"><ele>170.0</ele><time>2026-05-01T10:36:40.833Z</time></trkpt><trkpt lat="42.2572249" lon="14.2255728"><ele>170.6</ele><time>2026-05-01T10:36:41.832Z</time></trkpt><trkpt lat="42.2573259" lon="14.2255716"><ele>171.2</ele><time>2026-05-01T10:36:42.833Z</time></trkpt><trkpt lat="42.2574372" lon="14.2255771"><ele>171.8</ele><time>2026-05-01T10:36:43.833Z</time></trkpt><trkpt lat="42.2575476" lon="14.2255838"><ele>172.4</ele><time>2026-05-01T10:36:44.833Z</time></trkpt><trkpt lat="42.257655" lon="14.2255866"><ele>173.0</ele><time>2026-05-01T10:36:45.832Z</time></trkpt><trkpt lat="42.2577612" lon="14.2255834"><ele>173.0</ele><time>2026-05-01T10:36:46.833Z</time></trkpt><trkpt lat="42.2578579" lon="14.2255635"><ele>173.0</ele><time>2026-05-01T10:36:47.833Z</time></trkpt><trkpt lat="42.2579468" lon="14.2255005"><ele>173.0</ele><time>2026-05-01T10:36:48.833Z</time></trkpt><trkpt lat="42.2580133" lon="14.2254067"><ele>173.0</ele><time>2026-05-01T10:36:49.833Z</time></trkpt><trkpt lat="42.2580417" lon="14.2252921"><ele>173.0</ele><time>2026-05-01T10:36:50.833Z</time></trkpt><trkpt lat="42.2580291" lon="14.2251715"><ele>173.0</ele><time>2026-05-01T10:36:51.833Z</time></trkpt><trkpt lat="42.2579849" lon="14.2250713"><ele>173.0</ele><time>2026-05-01T10:36:52.833Z</time></trkpt><trkpt lat="42.2579151" lon="14.2249743"><ele>173.0</ele><time>2026-05-01T10:36:53.833Z</time></trkpt><trkpt lat="42.2578196" lon="14.2249125"><ele>173.0</ele><time>2026-05-01T10:36:54.833Z</time></trkpt><trkpt lat="42.2577137" lon="14.2248672"><ele>173.0</ele><time>2026-05-01T10:36:55.833Z</time></trkpt><trkpt lat="42.2576144" lon="14.2248264"><ele>171.60000000000002</ele><time>2026-05-01T10:36:56.833Z</time></trkpt><trkpt lat="42.2575167" lon="14.2247787"><ele>170.20000000000002</ele><time>2026-05-01T10:36:57.833Z</time></trkpt><trkpt lat="42.2574179" lon="14.2247217"><ele>168.8</ele><time>2026-05-01T10:36:58.833Z</time></trkpt><trkpt lat="42.2573156" lon="14.2246689"><ele>167.4</ele><time>2026-05-01T10:36:59.833Z</time></trkpt><trkpt lat="42.2572106" lon="14.2246169"><ele>166.0</ele><time>2026-05-01T10:37:00.833Z</time></trkpt><trkpt lat="42.2571096" lon="14.2245706"><ele>165.5</ele><time>2026-05-01T10:37:01.833Z</time></trkpt><trkpt lat="42.2570211" lon="14.2245042"><ele>165.0</ele><time>2026-05-01T10:37:02.833Z</time></trkpt><trkpt lat="42.2569571" lon="14.224413"><ele>164.5</ele><time>2026-05-01T10:37:03.833Z</time></trkpt><trkpt lat="42.2569226" lon="14.2243073"><ele>164.0</ele><time>2026-05-01T10:37:04.833Z</time></trkpt><trkpt lat="42.2569273" lon="14.2241992"><ele>163.5</ele><time>2026-05-01T10:37:05.833Z</time></trkpt><trkpt lat="42.2569674" lon="14.2241129"><ele>163.0</ele><time>2026-05-01T10:37:06.833Z</time></trkpt><trkpt lat="42.2570504" lon="14.2240311"><ele>163.0</ele><time>2026-05-01T10:37:08.833Z</time></trkpt><trkpt lat="42.2571161" lon="14.2239808"><ele>163.0</ele><time>2026-05-01T10:37:10.833Z</time></trkpt><trkpt lat="42.2571823" lon="14.2239365"><ele>163.0</ele><time>2026-05-01T10:37:13.833Z</time></trkpt><trkpt lat="42.2572587" lon="14.2238882"><ele>163.0</ele><time>2026-05-01T10:37:17.832Z</time></trkpt><trkpt lat="42.2573268" lon="14.2238382"><ele>163.0</ele><time>2026-05-01T10:37:19.833Z</time></trkpt><trkpt lat="42.2574036" lon="14.2237915"><ele>163.0</ele><time>2026-05-01T10:37:21.833Z</time></trkpt><trkpt lat="42.257489" lon="14.2237498"><ele>162.20000000000002</ele><time>2026-05-01T10:37:23.832Z</time></trkpt><trkpt lat="42.2576106" lon="14.2236689"><ele>161.4</ele><time>2026-05-01T10:37:25.833Z</time></trkpt><trkpt lat="42.2576828" lon="14.2235999"><ele>160.60000000000002</ele><time>2026-05-01T10:37:26.833Z</time></trkpt><trkpt lat="42.2577362" lon="14.2235112"><ele>159.8</ele><time>2026-05-01T10:37:27.833Z</time></trkpt><trkpt lat="42.2577556" lon="14.2234065"><ele>159.0</ele><time>2026-05-01T10:37:28.833Z</time></trkpt><trkpt lat="42.2577436" lon="14.2232854"><ele>159.0</ele><time>2026-05-01T10:37:29.833Z</time></trkpt><trkpt lat="42.2577094" lon="14.2231532"><ele>159.0</ele><time>2026-05-01T10:37:30.833Z</time></trkpt><trkpt lat="42.2576657" lon="14.2230324"><ele>159.0</ele><time>2026-05-01T10:37:31.833Z</time></trkpt><trkpt lat="42.2576179" lon="14.2229179"><ele>159.0</ele><time>2026-05-01T10:37:32.833Z</time></trkpt><trkpt lat="42.2575737" lon="14.2227946"><ele>159.0</ele><time>2026-05-01T10:37:33.833Z</time></trkpt><trkpt lat="42.2575308" lon="14.2226716"><ele>158.6</ele><time>2026-05-01T10:37:34.833Z</time></trkpt><trkpt lat="42.257492" lon="14.2225531"><ele>158.2</ele><time>2026-05-01T10:37:35.833Z</time></trkpt><trkpt lat="42.2574501" lon="14.2224275"><ele>157.79999999999998</ele><time>2026-05-01T10:37:36.832Z</time></trkpt><trkpt lat="42.2574038" lon="14.2222975"><ele>157.4</ele><time>2026-05-01T10:37:37.833Z</time></trkpt><trkpt lat="42.2573508" lon="14.222171"><ele>157.0</ele><time>2026-05-01T10:37:38.833Z</time></trkpt><trkpt lat="42.2573021" lon="14.2220416"><ele>157.8</ele><time>2026-05-01T10:37:39.833Z</time></trkpt><trkpt lat="42.2572556" lon="14.2219028"><ele>158.6</ele><time>2026-05-01T10:37:40.833Z</time></trkpt><trkpt lat="42.2572106" lon="14.2217635"><ele>159.4</ele><time>2026-05-01T10:37:41.833Z</time></trkpt><trkpt lat="42.2571715" lon="14.2216345"><ele>160.20000000000002</ele><time>2026-05-01T10:37:42.833Z</time></trkpt><trkpt lat="42.2571532" lon="14.221507"><ele>161.0</ele><time>2026-05-01T10:37:43.833Z</time></trkpt><trkpt lat="42.2571625" lon="14.22138"><ele>162.0</ele><time>2026-05-01T10:37:44.833Z</time></trkpt><trkpt lat="42.2571905" lon="14.2212596"><ele>163.0</ele><time>2026-05-01T10:37:45.833Z</time></trkpt><trkpt lat="42.2572439" lon="14.2211537"><ele>164.0</ele><time>2026-05-01T10:37:46.833Z</time></trkpt><trkpt lat="42.2573094" lon="14.2210639"><ele>165.0</ele><time>2026-05-01T10:37:47.833Z</time></trkpt><trkpt lat="42.2573853" lon="14.2209877"><ele>166.0</ele><time>2026-05-01T10:37:48.833Z</time></trkpt><trkpt lat="42.2574797" lon="14.2209304"><ele>166.0</ele><time>2026-05-01T10:37:49.833Z</time></trkpt><trkpt lat="42.2575807" lon="14.2208779"><ele>166.0</ele><time>2026-05-01T10:37:50.833Z</time></trkpt><trkpt lat="42.2576884" lon="14.2208305"><ele>166.0</ele><time>2026-05-01T10:37:51.833Z</time></trkpt><trkpt lat="42.257793" lon="14.2207792"><ele>166.0</ele><time>2026-05-01T10:37:52.833Z</time></trkpt><trkpt lat="42.2578923" lon="14.2207194"><ele>166.0</ele><time>2026-05-01T10:37:53.833Z</time></trkpt><trkpt lat="42.2579786" lon="14.2206581"><ele>168.33333333333334</ele><time>2026-05-01T10:37:54.833Z</time></trkpt><trkpt lat="42.2580416" lon="14.2205809"><ele>170.66666666666669</ele><time>2026-05-01T10:37:55.833Z</time></trkpt><trkpt lat="42.258077" lon="14.2204917"><ele>173.0</ele><time>2026-05-01T10:37:56.833Z</time></trkpt><trkpt lat="42.2580808" lon="14.2203959"><ele>175.33333333333334</ele><time>2026-05-01T10:37:57.833Z</time></trkpt><trkpt lat="42.2580549" lon="14.2203079"><ele>177.66666666666666</ele><time>2026-05-01T10:37:58.832Z</time></trkpt><trkpt lat="42.258002" lon="14.2202333"><ele>180.0</ele><time>2026-05-01T10:37:59.833Z</time></trkpt><trkpt lat="42.2579308" lon="14.2201787"><ele>180.0</ele><time>2026-05-01T10:38:00.833Z</time></trkpt><trkpt lat="42.2578531" lon="14.220144"><ele>180.0</ele><time>2026-05-01T10:38:01.832Z</time></trkpt><trkpt lat="42.2577617" lon="14.2201152"><ele>180.0</ele><time>2026-05-01T10:38:02.833Z</time></trkpt><trkpt lat="42.2576639" lon="14.2200979"><ele>180.0</ele><time>2026-05-01T10:38:03.833Z</time></trkpt><trkpt lat="42.2575715" lon="14.2200811"><ele>180.0</ele><time>2026-05-01T10:38:04.833Z</time></trkpt><trkpt lat="42.2574817" lon="14.2200633"><ele>180.0</ele><time>2026-05-01T10:38:05.833Z</time></trkpt><trkpt lat="42.2573878" lon="14.2200487"><ele>180.0</ele><time>2026-05-01T10:38:06.833Z</time></trkpt><trkpt lat="42.2572915" lon="14.2200246"><ele>180.0</ele><time>2026-05-01T10:38:07.833Z</time></trkpt><trkpt lat="42.2571933" lon="14.2200019"><ele>180.0</ele><time>2026-05-01T10:38:08.833Z</time></trkpt><trkpt lat="42.2571013" lon="14.2199761"><ele>180.0</ele><time>2026-05-01T10:38:09.833Z</time></trkpt><trkpt lat="42.2570114" lon="14.2199448"><ele>179.6</ele><time>2026-05-01T10:38:10.833Z</time></trkpt><trkpt lat="42.256925" lon="14.2199153"><ele>179.2</ele><time>2026-05-01T10:38:11.833Z</time></trkpt><trkpt lat="42.2568543" lon="14.219868"><ele>178.8</ele><time>2026-05-01T10:38:12.832Z</time></trkpt><trkpt lat="42.2567704" lon="14.219761"><ele>178.4</ele><time>2026-05-01T10:38:14.833Z</time></trkpt><trkpt lat="42.2567259" lon="14.2196246"><ele>178.0</ele><time>2026-05-01T10:38:16.833Z</time></trkpt><trkpt lat="42.2566355" lon="14.2196184"><ele>180.0</ele><time>2026-05-01T10:38:19.833Z</time></trkpt><trkpt lat="42.2565448" lon="14.2196371"><ele>182.0</ele><time>2026-05-01T10:38:21.833Z</time></trkpt><trkpt lat="42.2564734" lon="14.2196469"><ele>184.0</ele><time>2026-05-01T10:38:22.833Z</time></trkpt><trkpt lat="42.2563942" lon="14.2196466"><ele>186.0</ele><time>2026-05-01T10:38:23.833Z</time></trkpt><trkpt lat="42.2563206" lon="14.2196201"><ele>188.0</ele><time>2026-05-01T10:38:24.833Z</time></trkpt><trkpt lat="42.2562513" lon="14.2195605"><ele>190.0</ele><time>2026-05-01T10:38:25.833Z</time></trkpt><trkpt lat="42.2561929" lon="14.2194782"><ele>190.0</ele><time>2026-05-01T10:38:26.833Z</time></trkpt><trkpt lat="42.2561254" lon="14.219435"><ele>190.0</ele><time>2026-05-01T10:38:27.833Z</time></trkpt><trkpt lat="42.256054" lon="14.2194299"><ele>190.0</ele><time>2026-05-01T10:38:28.833Z</time></trkpt><trkpt lat="42.2559833" lon="14.2194572"><ele>190.0</ele><time>2026-05-01T10:38:29.833Z</time></trkpt><trkpt lat="42.2559298" lon="14.2195043"><ele>190.0</ele><time>2026-05-01T10:38:30.832Z</time></trkpt><trkpt lat="42.2559014" lon="14.2196309"><ele>190.0</ele><time>2026-05-01T10:38:32.833Z</time></trkpt><trkpt lat="42.2559212" lon="14.2197165"><ele>190.0</ele><time>2026-05-01T10:38:33.833Z</time></trkpt><trkpt lat="42.2559371" lon="14.2198171"><ele>188.16666666666669</ele><time>2026-05-01T10:38:34.833Z</time></trkpt><trkpt lat="42.2559415" lon="14.2199265"><ele>186.33333333333334</ele><time>2026-05-01T10:38:35.833Z</time></trkpt><trkpt lat="42.2559307" lon="14.2200471"><ele>184.5</ele><time>2026-05-01T10:38:36.833Z</time></trkpt><trkpt lat="42.2559183" lon="14.220162"><ele>182.66666666666666</ele><time>2026-05-01T10:38:37.833Z</time></trkpt><trkpt lat="42.2559033" lon="14.2202777"><ele>180.83333333333331</ele><time>2026-05-01T10:38:38.833Z</time></trkpt><trkpt lat="42.2558854" lon="14.2203961"><ele>179.0</ele><time>2026-05-01T10:38:39.833Z</time></trkpt><trkpt lat="42.2558674" lon="14.2205192"><ele>179.0</ele><time>2026-05-01T10:38:40.833Z</time></trkpt><trkpt lat="42.2558457" lon="14.2206376"><ele>179.0</ele><time>2026-05-01T10:38:41.833Z</time></trkpt><trkpt lat="42.2558166" lon="14.2207486"><ele>179.0</ele><time>2026-05-01T10:38:42.833Z</time></trkpt><trkpt lat="42.2557748" lon="14.2208523"><ele>179.0</ele><time>2026-05-01T10:38:43.833Z</time></trkpt><trkpt lat="42.2557181" lon="14.2209365"><ele>179.0</ele><time>2026-05-01T10:38:44.833Z</time></trkpt><trkpt lat="42.255651" lon="14.2209883"><ele>179.0</ele><time>2026-05-01T10:38:45.833Z</time></trkpt><trkpt lat="42.2555772" lon="14.2210485"><ele>178.6</ele><time>2026-05-01T10:38:46.833Z</time></trkpt><trkpt lat="42.2554946" lon="14.2210996"><ele>178.2</ele><time>2026-05-01T10:38:47.833Z</time></trkpt><trkpt lat="42.2554115" lon="14.2211562"><ele>177.79999999999998</ele><time>2026-05-01T10:38:48.833Z</time></trkpt><trkpt lat="42.2553289" lon="14.2212085"><ele>177.39999999999998</ele><time>2026-05-01T10:38:49.833Z</time></trkpt><trkpt lat="42.255245" lon="14.2212609"><ele>177.0</ele><time>2026-05-01T10:38:50.832Z</time></trkpt><trkpt lat="42.2551595" lon="14.2213188"><ele>177.0</ele><time>2026-05-01T10:38:51.832Z</time></trkpt><trkpt lat="42.255074" lon="14.2213795"><ele>177.0</ele><time>2026-05-01T10:38:52.832Z</time></trkpt><trkpt lat="42.2549899" lon="14.2214292"><ele>177.0</ele><time>2026-05-01T10:38:53.833Z</time></trkpt><trkpt lat="42.2549035" lon="14.2214865"><ele>177.0</ele><time>2026-05-01T10:38:54.832Z</time></trkpt><trkpt lat="42.2548208" lon="14.2215351"><ele>177.0</ele><time>2026-05-01T10:38:55.833Z</time></trkpt><trkpt lat="42.2547393" lon="14.2215699"><ele>175.39999999999998</ele><time>2026-05-01T10:38:56.833Z</time></trkpt><trkpt lat="42.2546529" lon="14.221575"><ele>173.79999999999998</ele><time>2026-05-01T10:38:57.833Z</time></trkpt><trkpt lat="42.2545661" lon="14.2215438"><ele>172.2</ele><time>2026-05-01T10:38:58.833Z</time></trkpt><trkpt lat="42.2544777" lon="14.2214848"><ele>170.6</ele><time>2026-05-01T10:38:59.833Z</time></trkpt><trkpt lat="42.2544093" lon="14.2213894"><ele>169.0</ele><time>2026-05-01T10:39:00.833Z</time></trkpt><trkpt lat="42.2543588" lon="14.2212909"><ele>169.0</ele><time>2026-05-01T10:39:01.833Z</time></trkpt><trkpt lat="42.2543165" lon="14.2212014"><ele>169.0</ele><time>2026-05-01T10:39:02.832Z</time></trkpt><trkpt lat="42.2542661" lon="14.2211476"><ele>169.0</ele><time>2026-05-01T10:39:03.833Z</time></trkpt><trkpt lat="42.2541661" lon="14.2211258"><ele>169.0</ele><time>2026-05-01T10:39:05.833Z</time></trkpt><trkpt lat="42.2540478" lon="14.2211569"><ele>169.0</ele><time>2026-05-01T10:39:07.833Z</time></trkpt><trkpt lat="42.2539778" lon="14.2211534"><ele>169.0</ele><time>2026-05-01T10:39:08.833Z</time></trkpt><trkpt lat="42.2539081" lon="14.2211223"><ele>169.16666666666669</ele><time>2026-05-01T10:39:09.833Z</time></trkpt><trkpt lat="42.2538522" lon="14.2210585"><ele>169.33333333333334</ele><time>2026-05-01T10:39:10.833Z</time></trkpt><trkpt lat="42.2538013" lon="14.2209523"><ele>169.5</ele><time>2026-05-01T10:39:11.833Z</time></trkpt><trkpt lat="42.2537549" lon="14.2208435"><ele>169.66666666666666</ele><time>2026-05-01T10:39:12.833Z</time></trkpt><trkpt lat="42.2537017" lon="14.2207456"><ele>169.83333333333331</ele><time>2026-05-01T10:39:13.833Z</time></trkpt><trkpt lat="42.2536363" lon="14.220673"><ele>170.0</ele><time>2026-05-01T10:39:14.833Z</time></trkpt><trkpt lat="42.2535647" lon="14.2206257"><ele>170.16666666666666</ele><time>2026-05-01T10:39:15.832Z</time></trkpt><trkpt lat="42.2534758" lon="14.2206111"><ele>170.33333333333331</ele><time>2026-05-01T10:39:16.832Z</time></trkpt><trkpt lat="42.2533892" lon="14.2206106"><ele>170.5</ele><time>2026-05-01T10:39:17.833Z</time></trkpt><trkpt lat="42.2533134" lon="14.2206135"><ele>170.66666666666666</ele><time>2026-05-01T10:39:18.833Z</time></trkpt><trkpt lat="42.2532497" lon="14.2206098"><ele>170.83333333333334</ele><time>2026-05-01T10:39:19.833Z</time></trkpt><trkpt lat="42.2531386" lon="14.2206128"><ele>171.0</ele><time>2026-05-01T10:39:21.833Z</time></trkpt><trkpt lat="42.2530738" lon="14.2206081"><ele>171.85714285714283</ele><time>2026-05-01T10:39:22.833Z</time></trkpt><trkpt lat="42.2530074" lon="14.2206144"><ele>172.71428571428572</ele><time>2026-05-01T10:39:23.832Z</time></trkpt><trkpt lat="42.2529389" lon="14.2206135"><ele>173.57142857142856</ele><time>2026-05-01T10:39:24.833Z</time></trkpt><trkpt lat="42.252871" lon="14.2206116"><ele>174.42857142857142</ele><time>2026-05-01T10:39:25.833Z</time></trkpt><trkpt lat="42.2528009" lon="14.2206006"><ele>175.28571428571428</ele><time>2026-05-01T10:39:26.832Z</time></trkpt><trkpt lat="42.2527201" lon="14.2205897"><ele>176.14285714285714</ele><time>2026-05-01T10:39:27.833Z</time></trkpt><trkpt lat="42.2526305" lon="14.2205748"><ele>177.0</ele><time>2026-05-01T10:39:28.832Z</time></trkpt><trkpt lat="42.2525279" lon="14.2205615"><ele>177.0</ele><time>2026-05-01T10:39:29.833Z</time></trkpt><trkpt lat="42.2524263" lon="14.2205399"><ele>177.0</ele><time>2026-05-01T10:39:30.833Z</time></trkpt><trkpt lat="42.2523195" lon="14.2205078"><ele>177.0</ele><time>2026-05-01T10:39:31.833Z</time></trkpt><trkpt lat="42.2522117" lon="14.2204734"><ele>177.0</ele><time>2026-05-01T10:39:32.833Z</time></trkpt><trkpt lat="42.252098" lon="14.2204144"><ele>177.0</ele><time>2026-05-01T10:39:33.833Z</time></trkpt><trkpt lat="42.2519779" lon="14.220359"><ele>179.0</ele><time>2026-05-01T10:39:34.833Z</time></trkpt><trkpt lat="42.2518598" lon="14.220304"><ele>181.0</ele><time>2026-05-01T10:39:35.833Z</time></trkpt><trkpt lat="42.251741" lon="14.2202509"><ele>183.0</ele><time>2026-05-01T10:39:36.833Z</time></trkpt><trkpt lat="42.2516222" lon="14.2202069"><ele>185.0</ele><time>2026-05-01T10:39:37.833Z</time></trkpt><trkpt lat="42.2515027" lon="14.2201763"><ele>187.0</ele><time>2026-05-01T10:39:38.833Z</time></trkpt><trkpt lat="42.2513811" lon="14.2201535"><ele>189.0</ele><time>2026-05-01T10:39:39.832Z</time></trkpt><trkpt lat="42.2512574" lon="14.2201342"><ele>191.0</ele><time>2026-05-01T10:39:40.832Z</time></trkpt><trkpt lat="42.2511387" lon="14.2201172"><ele>193.0</ele><time>2026-05-01T10:39:41.833Z</time></trkpt><trkpt lat="42.2510242" lon="14.220109"><ele>193.0</ele><time>2026-05-01T10:39:42.833Z</time></trkpt><trkpt lat="42.2509124" lon="14.2201095"><ele>193.0</ele><time>2026-05-01T10:39:43.833Z</time></trkpt><trkpt lat="42.2508161" lon="14.2201196"><ele>193.0</ele><time>2026-05-01T10:39:44.832Z</time></trkpt><trkpt lat="42.250739" lon="14.2201371"><ele>193.0</ele><time>2026-05-01T10:39:45.833Z</time></trkpt><trkpt lat="42.2506277" lon="14.2201558"><ele>193.0</ele><time>2026-05-01T10:39:47.832Z</time></trkpt><trkpt lat="42.2505042" lon="14.2201343"><ele>193.83333333333331</ele><time>2026-05-01T10:39:49.833Z</time></trkpt><trkpt lat="42.2504315" lon="14.2201115"><ele>194.66666666666666</ele><time>2026-05-01T10:39:50.833Z</time></trkpt><trkpt lat="42.2503558" lon="14.2200765"><ele>195.5</ele><time>2026-05-01T10:39:51.833Z</time></trkpt><trkpt lat="42.2502846" lon="14.2200344"><ele>196.33333333333331</ele><time>2026-05-01T10:39:52.833Z</time></trkpt><trkpt lat="42.250213" lon="14.2199916"><ele>197.16666666666666</ele><time>2026-05-01T10:39:53.832Z</time></trkpt><trkpt lat="42.2501369" lon="14.2199411"><ele>198.0</ele><time>2026-05-01T10:39:54.833Z</time></trkpt><trkpt lat="42.2500661" lon="14.2199016"><ele>198.0</ele><time>2026-05-01T10:39:55.833Z</time></trkpt><trkpt lat="42.2500065" lon="14.2198715"><ele>198.0</ele><time>2026-05-01T10:39:56.833Z</time></trkpt><trkpt lat="42.2499029" lon="14.2198577"><ele>198.0</ele><time>2026-05-01T10:39:58.833Z</time></trkpt><trkpt lat="42.2498324" lon="14.2198459"><ele>198.0</ele><time>2026-05-01T10:40:00.833Z</time></trkpt><trkpt lat="42.2497772" lon="14.2197993"><ele>198.0</ele><time>2026-05-01T10:40:03.833Z</time></trkpt><trkpt lat="42.2497249" lon="14.2196822"><ele>198.0</ele><time>2026-05-01T10:40:05.833Z</time></trkpt><trkpt lat="42.2496982" lon="14.2195971"><ele>201.33333333333334</ele><time>2026-05-01T10:40:06.833Z</time></trkpt><trkpt lat="42.24967" lon="14.2195132"><ele>204.66666666666669</ele><time>2026-05-01T10:40:07.833Z</time></trkpt><trkpt lat="42.2496418" lon="14.219435"><ele>208.0</ele><time>2026-05-01T10:40:08.833Z</time></trkpt><trkpt lat="42.2496149" lon="14.2193537"><ele>211.33333333333334</ele><time>2026-05-01T10:40:09.832Z</time></trkpt><trkpt lat="42.24957" lon="14.2192445"><ele>214.66666666666669</ele><time>2026-05-01T10:40:11.833Z</time></trkpt><trkpt lat="42.2494946" lon="14.2192671"><ele>218.0</ele><time>2026-05-01T10:40:14.833Z</time></trkpt><trkpt lat="42.2494429" lon="14.219363"><ele>218.00000000000003</ele><time>2026-05-01T10:40:16.833Z</time></trkpt><trkpt lat="42.2494116" lon="14.2194791"><ele>218.0</ele><time>2026-05-01T10:40:19.832Z</time></trkpt><trkpt lat="42.2493615" lon="14.2195444"><ele>218.0</ele><time>2026-05-01T10:40:32.833Z</time></trkpt><trkpt lat="42.249271" lon="14.2195016"><ele>218.0</ele><time>2026-05-01T10:40:35.833Z</time></trkpt><trkpt lat="42.2491625" lon="14.2194446"><ele>218.00000000000003</ele><time>2026-05-01T10:40:37.832Z</time></trkpt><trkpt lat="42.2490974" lon="14.219427"><ele>218.0</ele><time>2026-05-01T10:40:38.833Z</time></trkpt><trkpt lat="42.2489909" lon="14.2194011"><ele>218.16666666666669</ele><time>2026-05-01T10:40:40.833Z</time></trkpt><trkpt lat="42.2489206" lon="14.2193024"><ele>218.33333333333334</ele><time>2026-05-01T10:40:42.833Z</time></trkpt><trkpt lat="42.2488884" lon="14.2192246"><ele>218.5</ele><time>2026-05-01T10:40:43.832Z</time></trkpt><trkpt lat="42.2488551" lon="14.2191494"><ele>218.66666666666669</ele><time>2026-05-01T10:40:44.833Z</time></trkpt><trkpt lat="42.2488296" lon="14.2190672"><ele>218.83333333333334</ele><time>2026-05-01T10:40:45.833Z</time></trkpt><trkpt lat="42.2488243" lon="14.2188996"><ele>219.0</ele><time>2026-05-01T10:40:47.833Z</time></trkpt><trkpt lat="42.2488398" lon="14.2188077"><ele>219.0</ele><time>2026-05-01T10:40:48.833Z</time></trkpt><trkpt lat="42.2488518" lon="14.2187053"><ele>219.0</ele><time>2026-05-01T10:40:49.833Z</time></trkpt><trkpt lat="42.2488525" lon="14.2186191"><ele>219.0</ele><time>2026-05-01T10:40:50.833Z</time></trkpt><trkpt lat="42.2488324" lon="14.2185183"><ele>219.0</ele><time>2026-05-01T10:40:51.833Z</time></trkpt><trkpt lat="42.248811" lon="14.2184125"><ele>219.0</ele><time>2026-05-01T10:40:52.833Z</time></trkpt><trkpt lat="42.2487863" lon="14.2183101"><ele>219.0</ele><time>2026-05-01T10:40:53.832Z</time></trkpt><trkpt lat="42.2487593" lon="14.2182157"><ele>221.66666666666666</ele><time>2026-05-01T10:40:54.833Z</time></trkpt><trkpt lat="42.248743" lon="14.2181307"><ele>224.33333333333331</ele><time>2026-05-01T10:40:55.833Z</time></trkpt><trkpt lat="42.248731" lon="14.2180344"><ele>227.0</ele><time>2026-05-01T10:40:56.833Z</time></trkpt><trkpt lat="42.248715" lon="14.2179225"><ele>229.66666666666666</ele><time>2026-05-01T10:40:57.833Z</time></trkpt><trkpt lat="42.2486949" lon="14.2178046"><ele>232.33333333333331</ele><time>2026-05-01T10:40:58.832Z</time></trkpt><trkpt lat="42.2486754" lon="14.2176997"><ele>235.0</ele><time>2026-05-01T10:40:59.833Z</time></trkpt><trkpt lat="42.2486618" lon="14.2176032"><ele>235.0</ele><time>2026-05-01T10:41:00.833Z</time></trkpt><trkpt lat="42.2486498" lon="14.2175055"><ele>234.99999999999997</ele><time>2026-05-01T10:41:01.833Z</time></trkpt><trkpt lat="42.2486379" lon="14.2174126"><ele>235.0</ele><time>2026-05-01T10:41:02.832Z</time></trkpt><trkpt lat="42.2486319" lon="14.2173179"><ele>235.0</ele><time>2026-05-01T10:41:03.833Z</time></trkpt><trkpt lat="42.2486178" lon="14.2172176"><ele>234.99999999999997</ele><time>2026-05-01T10:41:04.832Z</time></trkpt><trkpt lat="42.2485912" lon="14.2171229"><ele>235.0</ele><time>2026-05-01T10:41:05.832Z</time></trkpt><trkpt lat="42.2485598" lon="14.2170333"><ele>235.0</ele><time>2026-05-01T10:41:06.833Z</time></trkpt><trkpt lat="42.2485211" lon="14.2169465"><ele>237.14285714285714</ele><time>2026-05-01T10:41:07.833Z</time></trkpt><trkpt lat="42.2484842" lon="14.216867"><ele>239.28571428571428</ele><time>2026-05-01T10:41:08.832Z</time></trkpt><trkpt lat="42.2484553" lon="14.2167808"><ele>241.42857142857142</ele><time>2026-05-01T10:41:09.833Z</time></trkpt><trkpt lat="42.2484248" lon="14.216688"><ele>243.57142857142856</ele><time>2026-05-01T10:41:10.832Z</time></trkpt><trkpt lat="42.2483945" lon="14.216595"><ele>245.71428571428572</ele><time>2026-05-01T10:41:11.833Z</time></trkpt><trkpt lat="42.2483672" lon="14.216502"><ele>247.85714285714283</ele><time>2026-05-01T10:41:12.832Z</time></trkpt><trkpt lat="42.248347" lon="14.2164083"><ele>250.0</ele><time>2026-05-01T10:41:13.833Z</time></trkpt><trkpt lat="42.2483217" lon="14.2163212"><ele>251.83333333333331</ele><time>2026-05-01T10:41:14.832Z</time></trkpt><trkpt lat="42.248297" lon="14.2162242"><ele>253.66666666666666</ele><time>2026-05-01T10:41:15.833Z</time></trkpt><trkpt lat="42.2482735" lon="14.2161286"><ele>255.5</ele><time>2026-05-01T10:41:16.833Z</time></trkpt><trkpt lat="42.248248" lon="14.216018"><ele>257.3333333333333</ele><time>2026-05-01T10:41:17.833Z</time></trkpt><trkpt lat="42.2482181" lon="14.2159038"><ele>259.1666666666667</ele><time>2026-05-01T10:41:18.833Z</time></trkpt><trkpt lat="42.2481794" lon="14.2157921"><ele>261.0</ele><time>2026-05-01T10:41:19.833Z</time></trkpt><trkpt lat="42.2481307" lon="14.2156837"><ele>259.6666666666667</ele><time>2026-05-01T10:41:20.833Z</time></trkpt><trkpt lat="42.2480779" lon="14.2155934"><ele>258.3333333333333</ele><time>2026-05-01T10:41:21.833Z</time></trkpt><trkpt lat="42.2480353" lon="14.2155075"><ele>257.0</ele><time>2026-05-01T10:41:22.833Z</time></trkpt><trkpt lat="42.2479998" lon="14.2154071"><ele>255.66666666666666</ele><time>2026-05-01T10:41:23.833Z</time></trkpt><trkpt lat="42.2479695" lon="14.2153057"><ele>254.33333333333331</ele><time>2026-05-01T10:41:24.833Z</time></trkpt><trkpt lat="42.2479316" lon="14.2152023"><ele>253.0</ele><time>2026-05-01T10:41:25.833Z</time></trkpt><trkpt lat="42.247895" lon="14.2150926"><ele>252.99999999999997</ele><time>2026-05-01T10:41:26.833Z</time></trkpt><trkpt lat="42.2478746" lon="14.2149999"><ele>253.0</ele><time>2026-05-01T10:41:27.833Z</time></trkpt><trkpt lat="42.2478698" lon="14.2149151"><ele>253.0</ele><time>2026-05-01T10:41:28.833Z</time></trkpt><trkpt lat="42.2478865" lon="14.2148092"><ele>253.0</ele><time>2026-05-01T10:41:29.833Z</time></trkpt><trkpt lat="42.2479045" lon="14.2147038"><ele>252.99999999999997</ele><time>2026-05-01T10:41:30.833Z</time></trkpt><trkpt lat="42.2479136" lon="14.2145835"><ele>253.0</ele><time>2026-05-01T10:41:31.833Z</time></trkpt><trkpt lat="42.247895" lon="14.2144735"><ele>254.83333333333331</ele><time>2026-05-01T10:41:32.832Z</time></trkpt><trkpt lat="42.2478767" lon="14.2143571"><ele>256.66666666666663</ele><time>2026-05-01T10:41:33.833Z</time></trkpt><trkpt lat="42.2478493" lon="14.214237"><ele>258.5</ele><time>2026-05-01T10:41:34.833Z</time></trkpt><trkpt lat="42.247817" lon="14.2141171"><ele>260.3333333333333</ele><time>2026-05-01T10:41:35.833Z</time></trkpt><trkpt lat="42.2477815" lon="14.214008"><ele>262.1666666666667</ele><time>2026-05-01T10:41:36.833Z</time></trkpt><trkpt lat="42.2477458" lon="14.2139078"><ele>264.0</ele><time>2026-05-01T10:41:37.833Z</time></trkpt><trkpt lat="42.2477118" lon="14.2138314"><ele>265.6666666666667</ele><time>2026-05-01T10:41:38.833Z</time></trkpt><trkpt lat="42.2476646" lon="14.2137738"><ele>267.3333333333333</ele><time>2026-05-01T10:41:39.833Z</time></trkpt><trkpt lat="42.2476177" lon="14.2137169"><ele>269.0</ele><time>2026-05-01T10:41:40.833Z</time></trkpt><trkpt lat="42.2475796" lon="14.2135786"><ele>270.66666666666663</ele><time>2026-05-01T10:41:42.833Z</time></trkpt><trkpt lat="42.2475694" lon="14.2134759"><ele>272.3333333333333</ele><time>2026-05-01T10:41:43.833Z</time></trkpt><trkpt lat="42.2475568" lon="14.21338"><ele>274.0</ele><time>2026-05-01T10:41:44.833Z</time></trkpt><trkpt lat="42.2475387" lon="14.2132782"><ele>274.0</ele><time>2026-05-01T10:41:45.833Z</time></trkpt><trkpt lat="42.2475199" lon="14.2131803"><ele>274.0</ele><time>2026-05-01T10:41:46.833Z</time></trkpt><trkpt lat="42.2475069" lon="14.2130728"><ele>274.0</ele><time>2026-05-01T10:41:47.833Z</time></trkpt><trkpt lat="42.247497" lon="14.2129601"><ele>274.0</ele><time>2026-05-01T10:41:48.833Z</time></trkpt><trkpt lat="42.2474887" lon="14.212849"><ele>274.0</ele><time>2026-05-01T10:41:49.833Z</time></trkpt><trkpt lat="42.2474816" lon="14.2127395"><ele>274.0</ele><time>2026-05-01T10:41:50.833Z</time></trkpt><trkpt lat="42.2474761" lon="14.2126302"><ele>274.3333333333333</ele><time>2026-05-01T10:41:51.833Z</time></trkpt><trkpt lat="42.247464" lon="14.2125236"><ele>274.66666666666663</ele><time>2026-05-01T10:41:52.832Z</time></trkpt><trkpt lat="42.2474502" lon="14.2124126"><ele>275.0</ele><time>2026-05-01T10:41:53.833Z</time></trkpt><trkpt lat="42.2474326" lon="14.2122979"><ele>275.3333333333333</ele><time>2026-05-01T10:41:54.833Z</time></trkpt><trkpt lat="42.2474164" lon="14.2121746"><ele>275.6666666666667</ele><time>2026-05-01T10:41:55.833Z</time></trkpt><trkpt lat="42.2473967" lon="14.212058"><ele>276.0</ele><time>2026-05-01T10:41:56.833Z</time></trkpt><trkpt lat="42.2473734" lon="14.2119461"><ele>276.8</ele><time>2026-05-01T10:41:57.833Z</time></trkpt><trkpt lat="42.2473451" lon="14.2118329"><ele>277.6</ele><time>2026-05-01T10:41:58.833Z</time></trkpt><trkpt lat="42.2473024" lon="14.2117345"><ele>278.4</ele><time>2026-05-01T10:41:59.833Z</time></trkpt><trkpt lat="42.2472625" lon="14.2116588"><ele>279.2</ele><time>2026-05-01T10:42:00.833Z</time></trkpt><trkpt lat="42.2472258" lon="14.2115416"><ele>280.0</ele><time>2026-05-01T10:42:02.833Z</time></trkpt><trkpt lat="42.2472614" lon="14.21138"><ele>282.0</ele><time>2026-05-01T10:42:04.833Z</time></trkpt><trkpt lat="42.2473018" lon="14.2112709"><ele>284.0</ele><time>2026-05-01T10:42:05.833Z</time></trkpt><trkpt lat="42.2473305" lon="14.2111692"><ele>286.0</ele><time>2026-05-01T10:42:06.832Z</time></trkpt><trkpt lat="42.2473431" lon="14.2110762"><ele>288.0</ele><time>2026-05-01T10:42:07.833Z</time></trkpt><trkpt lat="42.2473391" lon="14.2109837"><ele>290.0</ele><time>2026-05-01T10:42:08.833Z</time></trkpt><trkpt lat="42.2473319" lon="14.210874"><ele>292.0</ele><time>2026-05-01T10:42:09.833Z</time></trkpt><trkpt lat="42.2473303" lon="14.2107823"><ele>292.0</ele><time>2026-05-01T10:42:10.833Z</time></trkpt><trkpt lat="42.2473203" lon="14.2106795"><ele>292.0</ele><time>2026-05-01T10:42:11.833Z</time></trkpt><trkpt lat="42.2473088" lon="14.2105861"><ele>292.0</ele><time>2026-05-01T10:42:12.833Z</time></trkpt><trkpt lat="42.2473022" lon="14.2104927"><ele>292.0</ele><time>2026-05-01T10:42:13.833Z</time></trkpt><trkpt lat="42.2473035" lon="14.2104023"><ele>292.0</ele><time>2026-05-01T10:42:14.833Z</time></trkpt><trkpt lat="42.2473157" lon="14.2103128"><ele>292.0</ele><time>2026-05-01T10:42:15.833Z</time></trkpt><trkpt lat="42.2473343" lon="14.2102152"><ele>292.0</ele><time>2026-05-01T10:42:16.833Z</time></trkpt><trkpt lat="42.2473512" lon="14.2101193"><ele>293.85714285714283</ele><time>2026-05-01T10:42:17.833Z</time></trkpt><trkpt lat="42.2473613" lon="14.2100235"><ele>295.7142857142857</ele><time>2026-05-01T10:42:18.833Z</time></trkpt><trkpt lat="42.2473661" lon="14.2099244"><ele>297.57142857142856</ele><time>2026-05-01T10:42:19.833Z</time></trkpt><trkpt lat="42.2473646" lon="14.209826"><ele>299.42857142857144</ele><time>2026-05-01T10:42:20.833Z</time></trkpt><trkpt lat="42.2473655" lon="14.2097333"><ele>301.2857142857143</ele><time>2026-05-01T10:42:21.833Z</time></trkpt><trkpt lat="42.2473693" lon="14.2096372"><ele>303.14285714285717</ele><time>2026-05-01T10:42:22.833Z</time></trkpt><trkpt lat="42.2473605" lon="14.209546"><ele>305.0</ele><time>2026-05-01T10:42:23.832Z</time></trkpt><trkpt lat="42.2473187" lon="14.2093857"><ele>307.0</ele><time>2026-05-01T10:42:25.833Z</time></trkpt><trkpt lat="42.247301" lon="14.2092234"><ele>309.0</ele><time>2026-05-01T10:42:27.833Z</time></trkpt><trkpt lat="42.2472694" lon="14.2090821"><ele>311.0</ele><time>2026-05-01T10:42:29.833Z</time></trkpt><trkpt lat="42.2472107" lon="14.2089981"><ele>313.0</ele><time>2026-05-01T10:42:31.833Z</time></trkpt><trkpt lat="42.2470986" lon="14.2089627"><ele>315.0</ele><time>2026-05-01T10:42:33.833Z</time></trkpt><trkpt lat="42.2470086" lon="14.208962"><ele>318.2</ele><time>2026-05-01T10:42:35.833Z</time></trkpt><trkpt lat="42.246902" lon="14.2089401"><ele>321.4</ele><time>2026-05-01T10:42:37.833Z</time></trkpt><trkpt lat="42.2468185" lon="14.208882"><ele>324.6</ele><time>2026-05-01T10:42:39.833Z</time></trkpt><trkpt lat="42.2467744" lon="14.2087993"><ele>327.8</ele><time>2026-05-01T10:42:41.833Z</time></trkpt><trkpt lat="42.2467171" lon="14.2086547"><ele>331.0</ele><time>2026-05-01T10:42:43.833Z</time></trkpt><trkpt lat="42.246651" lon="14.2085412"><ele>331.0</ele><time>2026-05-01T10:42:45.833Z</time></trkpt><trkpt lat="42.2466035" lon="14.2084764"><ele>331.0</ele><time>2026-05-01T10:42:46.833Z</time></trkpt><trkpt lat="42.2465545" lon="14.208391"><ele>331.0</ele><time>2026-05-01T10:42:47.833Z</time></trkpt><trkpt lat="42.2465" lon="14.2082943"><ele>331.0</ele><time>2026-05-01T10:42:48.833Z</time></trkpt><trkpt lat="42.2464373" lon="14.2082025"><ele>331.0</ele><time>2026-05-01T10:42:49.833Z</time></trkpt><trkpt lat="42.246389" lon="14.2081219"><ele>331.0</ele><time>2026-05-01T10:42:50.833Z</time></trkpt><trkpt lat="42.2463609" lon="14.2080438"><ele>330.8333333333333</ele><time>2026-05-01T10:42:51.833Z</time></trkpt><trkpt lat="42.2463363" lon="14.2079515"><ele>330.66666666666663</ele><time>2026-05-01T10:42:52.833Z</time></trkpt><trkpt lat="42.246305" lon="14.2078523"><ele>330.5</ele><time>2026-05-01T10:42:53.833Z</time></trkpt><trkpt lat="42.2462781" lon="14.2077348"><ele>330.3333333333333</ele><time>2026-05-01T10:42:54.833Z</time></trkpt><trkpt lat="42.2462577" lon="14.2076136"><ele>330.1666666666667</ele><time>2026-05-01T10:42:55.833Z</time></trkpt><trkpt lat="42.2462496" lon="14.2074997"><ele>330.0</ele><time>2026-05-01T10:42:56.832Z</time></trkpt><trkpt lat="42.2462561" lon="14.207404"><ele>332.3333333333333</ele><time>2026-05-01T10:42:57.833Z</time></trkpt><trkpt lat="42.2462714" lon="14.2072542"><ele>334.6666666666667</ele><time>2026-05-01T10:42:59.833Z</time></trkpt><trkpt lat="42.2462646" lon="14.2071566"><ele>337.0</ele><time>2026-05-01T10:43:00.833Z</time></trkpt><trkpt lat="42.2462405" lon="14.2070499"><ele>339.33333333333337</ele><time>2026-05-01T10:43:01.833Z</time></trkpt><trkpt lat="42.2462393" lon="14.2069393"><ele>341.6666666666667</ele><time>2026-05-01T10:43:03.832Z</time></trkpt><trkpt lat="42.2462367" lon="14.2068147"><ele>344.0</ele><time>2026-05-01T10:44:48.833Z</time></trkpt><trkpt lat="42.2462286" lon="14.2066453"><ele>344.00000000000006</ele><time>2026-05-01T10:44:50.833Z</time></trkpt><trkpt lat="42.2462409" lon="14.2065573"><ele>344.0</ele><time>2026-05-01T10:44:51.833Z</time></trkpt><trkpt lat="42.2462658" lon="14.2064671"><ele>344.0</ele><time>2026-05-01T10:44:52.832Z</time></trkpt><trkpt lat="42.2462926" lon="14.2063802"><ele>344.0</ele><time>2026-05-01T10:44:53.833Z</time></trkpt><trkpt lat="42.2463207" lon="14.2062948"><ele>344.0</ele><time>2026-05-01T10:44:54.833Z</time></trkpt><trkpt lat="42.2463503" lon="14.2061983"><ele>344.00000000000006</ele><time>2026-05-01T10:44:55.832Z</time></trkpt><trkpt lat="42.2463845" lon="14.2061092"><ele>344.0</ele><time>2026-05-01T10:44:56.833Z</time></trkpt><trkpt lat="42.2464276" lon="14.2060212"><ele>346.0</ele><time>2026-05-01T10:44:57.833Z</time></trkpt><trkpt lat="42.2464659" lon="14.2059334"><ele>348.0</ele><time>2026-05-01T10:44:58.833Z</time></trkpt><trkpt lat="42.2464824" lon="14.2057981"><ele>350.0</ele><time>2026-05-01T10:45:00.833Z</time></trkpt><trkpt lat="42.2464171" lon="14.2056865"><ele>352.0</ele><time>2026-05-01T10:45:02.832Z</time></trkpt><trkpt lat="42.2463672" lon="14.2056148"><ele>354.0</ele><time>2026-05-01T10:45:04.832Z</time></trkpt><trkpt lat="42.2462808" lon="14.2055068"><ele>357.8333333333333</ele><time>2026-05-01T10:45:06.833Z</time></trkpt><trkpt lat="42.2462254" lon="14.2054187"><ele>361.6666666666667</ele><time>2026-05-01T10:45:07.833Z</time></trkpt><trkpt lat="42.2461643" lon="14.2053322"><ele>365.5</ele><time>2026-05-01T10:45:08.833Z</time></trkpt><trkpt lat="42.2461087" lon="14.2052467"><ele>369.33333333333337</ele><time>2026-05-01T10:45:09.833Z</time></trkpt><trkpt lat="42.2460544" lon="14.205175"><ele>373.1666666666667</ele><time>2026-05-01T10:45:10.833Z</time></trkpt><trkpt lat="42.2459838" lon="14.2051085"><ele>377.0</ele><time>2026-05-01T10:45:12.833Z</time></trkpt><trkpt lat="42.2459178" lon="14.2049748"><ele>377.0</ele><time>2026-05-01T10:45:14.833Z</time></trkpt><trkpt lat="42.2458724" lon="14.2048841"><ele>377.0</ele><time>2026-05-01T10:45:15.833Z</time></trkpt><trkpt lat="42.2458411" lon="14.2047928"><ele>377.0</ele><time>2026-05-01T10:45:16.833Z</time></trkpt><trkpt lat="42.2458268" lon="14.2047083"><ele>377.0</ele><time>2026-05-01T10:45:17.833Z</time></trkpt><trkpt lat="42.2458329" lon="14.2046215"><ele>377.0</ele><time>2026-05-01T10:45:18.833Z</time></trkpt><trkpt lat="42.2458869" lon="14.2044708"><ele>377.0</ele><time>2026-05-01T10:45:20.832Z</time></trkpt><trkpt lat="42.2459207" lon="14.2043843"><ele>377.6666666666667</ele><time>2026-05-01T10:45:21.833Z</time></trkpt><trkpt lat="42.2459588" lon="14.2042847"><ele>378.33333333333337</ele><time>2026-05-01T10:45:22.833Z</time></trkpt><trkpt lat="42.2459933" lon="14.204191"><ele>379.0</ele><time>2026-05-01T10:45:23.832Z</time></trkpt><trkpt lat="42.2460193" lon="14.2041014"><ele>379.6666666666667</ele><time>2026-05-01T10:45:24.833Z</time></trkpt><trkpt lat="42.2460434" lon="14.204013"><ele>380.3333333333333</ele><time>2026-05-01T10:45:25.833Z</time></trkpt><trkpt lat="42.2460557" lon="14.2039149"><ele>381.0</ele><time>2026-05-01T10:45:26.833Z</time></trkpt><trkpt lat="42.2460618" lon="14.2038092"><ele>382.1666666666667</ele><time>2026-05-01T10:45:27.833Z</time></trkpt><trkpt lat="42.24606" lon="14.2036931"><ele>383.33333333333337</ele><time>2026-05-01T10:45:28.833Z</time></trkpt><trkpt lat="42.2460447" lon="14.2035785"><ele>384.5</ele><time>2026-05-01T10:45:29.833Z</time></trkpt><trkpt lat="42.246027" lon="14.203455"><ele>385.6666666666667</ele><time>2026-05-01T10:45:30.832Z</time></trkpt><trkpt lat="42.2460067" lon="14.2033327"><ele>386.83333333333337</ele><time>2026-05-01T10:45:31.833Z</time></trkpt><trkpt lat="42.2459766" lon="14.2032218"><ele>388.0</ele><time>2026-05-01T10:45:32.833Z</time></trkpt><trkpt lat="42.245938" lon="14.2031254"><ele>389.2</ele><time>2026-05-01T10:45:33.833Z</time></trkpt><trkpt lat="42.2458976" lon="14.2030338"><ele>390.4</ele><time>2026-05-01T10:45:34.833Z</time></trkpt><trkpt lat="42.2458695" lon="14.2029559"><ele>391.59999999999997</ele><time>2026-05-01T10:45:35.832Z</time></trkpt><trkpt lat="42.2457922" lon="14.202838"><ele>392.79999999999995</ele><time>2026-05-01T10:45:37.833Z</time></trkpt><trkpt lat="42.2456936" lon="14.2028144"><ele>394.0</ele><time>2026-05-01T10:45:39.833Z</time></trkpt><trkpt lat="42.2456114" lon="14.2027483"><ele>395.6</ele><time>2026-05-01T10:45:41.833Z</time></trkpt><trkpt lat="42.2455305" lon="14.202622"><ele>397.2</ele><time>2026-05-01T10:45:43.833Z</time></trkpt><trkpt lat="42.2454827" lon="14.2025096"><ele>398.8</ele><time>2026-05-01T10:45:45.833Z</time></trkpt><trkpt lat="42.2454517" lon="14.2023917"><ele>400.40000000000003</ele><time>2026-05-01T10:45:47.833Z</time></trkpt><trkpt lat="42.2454105" lon="14.2023153"><ele>402.0</ele><time>2026-05-01T10:45:50.833Z</time></trkpt><trkpt lat="42.2453617" lon="14.2024235"><ele>402.0</ele><time>2026-05-01T10:45:52.832Z</time></trkpt><trkpt lat="42.2453372" lon="14.2025191"><ele>402.0</ele><time>2026-05-01T10:45:53.833Z</time></trkpt><trkpt lat="42.2452993" lon="14.2026119"><ele>402.0</ele><time>2026-05-01T10:45:54.833Z</time></trkpt><trkpt lat="42.2452449" lon="14.2027152"><ele>402.0</ele><time>2026-05-01T10:45:55.833Z</time></trkpt><trkpt lat="42.2451783" lon="14.2027925"><ele>402.0</ele><time>2026-05-01T10:45:56.833Z</time></trkpt><trkpt lat="42.2450947" lon="14.2028629"><ele>402.0</ele><time>2026-05-01T10:45:57.833Z</time></trkpt><trkpt lat="42.2450051" lon="14.2029193"><ele>402.0</ele><time>2026-05-01T10:45:58.833Z</time></trkpt><trkpt lat="42.2449118" lon="14.2029623"><ele>402.0</ele><time>2026-05-01T10:45:59.833Z</time></trkpt><trkpt lat="42.2448237" lon="14.2029957"><ele>402.0</ele><time>2026-05-01T10:46:00.833Z</time></trkpt><trkpt lat="42.2447444" lon="14.203034"><ele>402.0</ele><time>2026-05-01T10:46:01.833Z</time></trkpt><trkpt lat="42.2446662" lon="14.203083"><ele>402.0</ele><time>2026-05-01T10:46:02.833Z</time></trkpt><trkpt lat="42.2445974" lon="14.2031421"><ele>402.0</ele><time>2026-05-01T10:46:03.833Z</time></trkpt><trkpt lat="42.2445365" lon="14.2032235"><ele>401.6</ele><time>2026-05-01T10:46:04.833Z</time></trkpt><trkpt lat="42.2444827" lon="14.2033304"><ele>401.20000000000005</ele><time>2026-05-01T10:46:05.833Z</time></trkpt><trkpt lat="42.2444475" lon="14.2034703"><ele>400.8</ele><time>2026-05-01T10:46:06.833Z</time></trkpt><trkpt lat="42.2444238" lon="14.2036212"><ele>400.4</ele><time>2026-05-01T10:46:07.833Z</time></trkpt><trkpt lat="42.244405" lon="14.2037951"><ele>400.0</ele><time>2026-05-01T10:46:08.832Z</time></trkpt><trkpt lat="42.2443763" lon="14.2039757"><ele>398.0</ele><time>2026-05-01T10:46:09.833Z</time></trkpt><trkpt lat="42.244341" lon="14.2041443"><ele>396.0</ele><time>2026-05-01T10:46:10.833Z</time></trkpt><trkpt lat="42.2442866" lon="14.2043009"><ele>394.0</ele><time>2026-05-01T10:46:11.833Z</time></trkpt><trkpt lat="42.2442158" lon="14.2044319"><ele>392.0</ele><time>2026-05-01T10:46:12.833Z</time></trkpt><trkpt lat="42.2441265" lon="14.2045584"><ele>392.0</ele><time>2026-05-01T10:46:13.833Z</time></trkpt><trkpt lat="42.2440299" lon="14.2046717"><ele>392.0</ele><time>2026-05-01T10:46:14.832Z</time></trkpt><trkpt lat="42.2439326" lon="14.2047787"><ele>392.0</ele><time>2026-05-01T10:46:15.833Z</time></trkpt><trkpt lat="42.243846" lon="14.2048888"><ele>392.0</ele><time>2026-05-01T10:46:16.833Z</time></trkpt><trkpt lat="42.2437631" lon="14.2050048"><ele>392.75</ele><time>2026-05-01T10:46:17.833Z</time></trkpt><trkpt lat="42.2436953" lon="14.2051365"><ele>393.5</ele><time>2026-05-01T10:46:18.833Z</time></trkpt><trkpt lat="42.243643" lon="14.2052812"><ele>394.25</ele><time>2026-05-01T10:46:19.832Z</time></trkpt><trkpt lat="42.2436005" lon="14.2054259"><ele>395.0</ele><time>2026-05-01T10:46:20.832Z</time></trkpt><trkpt lat="42.2435602" lon="14.2055585"><ele>392.6</ele><time>2026-05-01T10:46:21.833Z</time></trkpt><trkpt lat="42.243516" lon="14.2056728"><ele>390.2</ele><time>2026-05-01T10:46:22.833Z</time></trkpt><trkpt lat="42.2434666" lon="14.2057835"><ele>387.79999999999995</ele><time>2026-05-01T10:46:23.833Z</time></trkpt><trkpt lat="42.2434075" lon="14.2058866"><ele>385.4</ele><time>2026-05-01T10:46:24.833Z</time></trkpt><trkpt lat="42.243333" lon="14.2059735"><ele>383.0</ele><time>2026-05-01T10:46:25.833Z</time></trkpt><trkpt lat="42.2432475" lon="14.2060564"><ele>383.0</ele><time>2026-05-01T10:46:26.833Z</time></trkpt><trkpt lat="42.2431581" lon="14.2061331"><ele>383.0</ele><time>2026-05-01T10:46:27.833Z</time></trkpt><trkpt lat="42.2430644" lon="14.2062128"><ele>383.0</ele><time>2026-05-01T10:46:28.833Z</time></trkpt><trkpt lat="42.2429683" lon="14.2063004"><ele>383.0</ele><time>2026-05-01T10:46:29.833Z</time></trkpt><trkpt lat="42.2428644" lon="14.2063904"><ele>380.75</ele><time>2026-05-01T10:46:30.833Z</time></trkpt><trkpt lat="42.2427638" lon="14.2064723"><ele>378.5</ele><time>2026-05-01T10:46:31.833Z</time></trkpt><trkpt lat="42.24266" lon="14.2065541"><ele>376.25</ele><time>2026-05-01T10:46:32.833Z</time></trkpt><trkpt lat="42.2425605" lon="14.2066379"><ele>374.0</ele><time>2026-05-01T10:46:33.833Z</time></trkpt><trkpt lat="42.24246" lon="14.2067161"><ele>374.0</ele><time>2026-05-01T10:46:34.833Z</time></trkpt><trkpt lat="42.2423615" lon="14.2067836"><ele>374.0</ele><time>2026-05-01T10:46:35.832Z</time></trkpt><trkpt lat="42.2422558" lon="14.2068373"><ele>374.0</ele><time>2026-05-01T10:46:36.833Z</time></trkpt><trkpt lat="42.2421542" lon="14.2068738"><ele>374.0</ele><time>2026-05-01T10:46:37.833Z</time></trkpt><trkpt lat="42.2420449" lon="14.2069047"><ele>374.0</ele><time>2026-05-01T10:46:38.833Z</time></trkpt><trkpt lat="42.2419362" lon="14.2069189"><ele>374.79999999999995</ele><time>2026-05-01T10:46:39.832Z</time></trkpt><trkpt lat="42.2418248" lon="14.20693"><ele>375.59999999999997</ele><time>2026-05-01T10:46:40.833Z</time></trkpt><trkpt lat="42.2417151" lon="14.2069468"><ele>376.4</ele><time>2026-05-01T10:46:41.833Z</time></trkpt><trkpt lat="42.2416063" lon="14.2069562"><ele>377.2</ele><time>2026-05-01T10:46:42.833Z</time></trkpt><trkpt lat="42.2414919" lon="14.2069575"><ele>378.0</ele><time>2026-05-01T10:46:43.833Z</time></trkpt><trkpt lat="42.2413747" lon="14.2069575"><ele>375.75</ele><time>2026-05-01T10:46:44.833Z</time></trkpt><trkpt lat="42.241251" lon="14.2069541"><ele>373.5</ele><time>2026-05-01T10:46:45.833Z</time></trkpt><trkpt lat="42.2411266" lon="14.2069181"><ele>371.25</ele><time>2026-05-01T10:46:46.833Z</time></trkpt><trkpt lat="42.2410063" lon="14.2068738"><ele>369.0</ele><time>2026-05-01T10:46:47.833Z</time></trkpt><trkpt lat="42.2408912" lon="14.2068334"><ele>369.0</ele><time>2026-05-01T10:46:48.833Z</time></trkpt><trkpt lat="42.2407813" lon="14.2067919"><ele>369.0</ele><time>2026-05-01T10:46:49.833Z</time></trkpt><trkpt lat="42.2406761" lon="14.2067832"><ele>369.0</ele><time>2026-05-01T10:46:50.833Z</time></trkpt><trkpt lat="42.2405704" lon="14.2068163"><ele>369.0</ele><time>2026-05-01T10:46:51.833Z</time></trkpt><trkpt lat="42.2404777" lon="14.2068836"><ele>369.0</ele><time>2026-05-01T10:46:52.833Z</time></trkpt><trkpt lat="42.2403883" lon="14.2069364"><ele>367.5</ele><time>2026-05-01T10:46:53.833Z</time></trkpt><trkpt lat="42.2403031" lon="14.2069732"><ele>366.0</ele><time>2026-05-01T10:46:54.832Z</time></trkpt><trkpt lat="42.2402233" lon="14.2069538"><ele>364.5</ele><time>2026-05-01T10:46:55.833Z</time></trkpt><trkpt lat="42.2401552" lon="14.2069062"><ele>363.0</ele><time>2026-05-01T10:46:56.833Z</time></trkpt><trkpt lat="42.2400969" lon="14.20686"><ele>361.5</ele><time>2026-05-01T10:46:57.832Z</time></trkpt><trkpt lat="42.2400312" lon="14.2068393"><ele>360.0</ele><time>2026-05-01T10:46:58.832Z</time></trkpt><trkpt lat="42.2399366" lon="14.2068546"><ele>360.0</ele><time>2026-05-01T10:47:00.833Z</time></trkpt><trkpt lat="42.2398431" lon="14.2068264"><ele>360.0</ele><time>2026-05-01T10:47:03.833Z</time></trkpt><trkpt lat="42.2397526" lon="14.2067277"><ele>360.0</ele><time>2026-05-01T10:47:05.833Z</time></trkpt><trkpt lat="42.2396966" lon="14.2066676"><ele>360.0</ele><time>2026-05-01T10:47:06.833Z</time></trkpt><trkpt lat="42.2396263" lon="14.2065982"><ele>360.0</ele><time>2026-05-01T10:47:07.832Z</time></trkpt><trkpt lat="42.2395499" lon="14.2065158"><ele>359.2</ele><time>2026-05-01T10:47:08.833Z</time></trkpt><trkpt lat="42.2394754" lon="14.2064348"><ele>358.4</ele><time>2026-05-01T10:47:09.832Z</time></trkpt><trkpt lat="42.2394014" lon="14.2063613"><ele>357.6</ele><time>2026-05-01T10:47:10.833Z</time></trkpt><trkpt lat="42.2393247" lon="14.2062754"><ele>356.8</ele><time>2026-05-01T10:47:11.833Z</time></trkpt><trkpt lat="42.2392551" lon="14.206183"><ele>356.0</ele><time>2026-05-01T10:47:12.833Z</time></trkpt><trkpt lat="42.2391941" lon="14.2060811"><ele>356.0</ele><time>2026-05-01T10:47:13.833Z</time></trkpt><trkpt lat="42.2391426" lon="14.205971"><ele>356.0</ele><time>2026-05-01T10:47:14.833Z</time></trkpt><trkpt lat="42.2390876" lon="14.2058342"><ele>356.0</ele><time>2026-05-01T10:47:15.833Z</time></trkpt><trkpt lat="42.239025" lon="14.2056898"><ele>356.0</ele><time>2026-05-01T10:47:16.833Z</time></trkpt><trkpt lat="42.2389643" lon="14.2055617"><ele>356.0</ele><time>2026-05-01T10:47:17.833Z</time></trkpt><trkpt lat="42.2389029" lon="14.2054454"><ele>354.1666666666667</ele><time>2026-05-01T10:47:18.833Z</time></trkpt><trkpt lat="42.2388407" lon="14.2053408"><ele>352.33333333333337</ele><time>2026-05-01T10:47:19.833Z</time></trkpt><trkpt lat="42.2387851" lon="14.205255"><ele>350.5</ele><time>2026-05-01T10:47:20.833Z</time></trkpt><trkpt lat="42.2387381" lon="14.205169"><ele>348.6666666666667</ele><time>2026-05-01T10:47:21.833Z</time></trkpt><trkpt lat="42.2386896" lon="14.2050932"><ele>346.8333333333333</ele><time>2026-05-01T10:47:22.833Z</time></trkpt><trkpt lat="42.2386381" lon="14.2050379"><ele>345.0</ele><time>2026-05-01T10:47:23.833Z</time></trkpt><trkpt lat="42.2385841" lon="14.2049872"><ele>345.0</ele><time>2026-05-01T10:47:24.833Z</time></trkpt><trkpt lat="42.2385253" lon="14.204918"><ele>345.0</ele><time>2026-05-01T10:47:25.833Z</time></trkpt><trkpt lat="42.2384773" lon="14.2048374"><ele>345.0</ele><time>2026-05-01T10:47:26.833Z</time></trkpt><trkpt lat="42.238427" lon="14.2047386"><ele>345.0</ele><time>2026-05-01T10:47:27.833Z</time></trkpt><trkpt lat="42.2383852" lon="14.2046452"><ele>345.0</ele><time>2026-05-01T10:47:28.833Z</time></trkpt><trkpt lat="42.2383428" lon="14.2045753"><ele>345.0</ele><time>2026-05-01T10:47:29.832Z</time></trkpt><trkpt lat="42.2382689" lon="14.2044108"><ele>346.3333333333333</ele><time>2026-05-01T10:47:31.833Z</time></trkpt><trkpt lat="42.2382349" lon="14.2043117"><ele>347.6666666666667</ele><time>2026-05-01T10:47:32.832Z</time></trkpt><trkpt lat="42.2381972" lon="14.2042086"><ele>349.0</ele><time>2026-05-01T10:47:33.832Z</time></trkpt><trkpt lat="42.2381637" lon="14.2041061"><ele>350.33333333333337</ele><time>2026-05-01T10:47:34.833Z</time></trkpt><trkpt lat="42.238133" lon="14.2040054"><ele>351.6666666666667</ele><time>2026-05-01T10:47:35.833Z</time></trkpt><trkpt lat="42.2381044" lon="14.2039043"><ele>353.0</ele><time>2026-05-01T10:47:36.833Z</time></trkpt><trkpt lat="42.2380765" lon="14.2038075"><ele>349.6666666666667</ele><time>2026-05-01T10:47:37.833Z</time></trkpt><trkpt lat="42.2380607" lon="14.203713"><ele>346.33333333333337</ele><time>2026-05-01T10:47:38.833Z</time></trkpt><trkpt lat="42.2380601" lon="14.2036204"><ele>343.0</ele><time>2026-05-01T10:47:39.833Z</time></trkpt><trkpt lat="42.2380689" lon="14.2035319"><ele>339.6666666666667</ele><time>2026-05-01T10:47:40.833Z</time></trkpt><trkpt lat="42.2380737" lon="14.2034399"><ele>336.3333333333333</ele><time>2026-05-01T10:47:41.833Z</time></trkpt><trkpt lat="42.2380097" lon="14.2032852"><ele>333.0</ele><time>2026-05-01T10:47:43.833Z</time></trkpt><trkpt lat="42.2379531" lon="14.2032195"><ele>333.2857142857143</ele><time>2026-05-01T10:47:44.832Z</time></trkpt><trkpt lat="42.23789" lon="14.203151"><ele>333.57142857142856</ele><time>2026-05-01T10:47:45.832Z</time></trkpt><trkpt lat="42.2378361" lon="14.2030877"><ele>333.85714285714283</ele><time>2026-05-01T10:47:46.832Z</time></trkpt><trkpt lat="42.2377921" lon="14.2030154"><ele>334.1428571428571</ele><time>2026-05-01T10:47:47.832Z</time></trkpt><trkpt lat="42.2377634" lon="14.2029347"><ele>334.42857142857144</ele><time>2026-05-01T10:47:48.833Z</time></trkpt><trkpt lat="42.2377215" lon="14.202851"><ele>334.71428571428567</ele><time>2026-05-01T10:47:49.832Z</time></trkpt><trkpt lat="42.2376773" lon="14.2027713"><ele>335.0</ele><time>2026-05-01T10:47:50.833Z</time></trkpt><trkpt lat="42.2376281" lon="14.2027046"><ele>335.0</ele><time>2026-05-01T10:47:51.833Z</time></trkpt><trkpt lat="42.2375865" lon="14.202627"><ele>335.0</ele><time>2026-05-01T10:47:52.833Z</time></trkpt><trkpt lat="42.2375556" lon="14.2025498"><ele>335.0</ele><time>2026-05-01T10:47:53.833Z</time></trkpt><trkpt lat="42.237503" lon="14.2023935"><ele>335.0</ele><time>2026-05-01T10:47:55.833Z</time></trkpt><trkpt lat="42.2374775" lon="14.2023059"><ele>335.0</ele><time>2026-05-01T10:47:56.833Z</time></trkpt><trkpt lat="42.2374587" lon="14.2022197"><ele>335.0</ele><time>2026-05-01T10:47:57.832Z</time></trkpt><trkpt lat="42.237441" lon="14.2021151"><ele>336.0</ele><time>2026-05-01T10:47:58.833Z</time></trkpt><trkpt lat="42.2374215" lon="14.2020032"><ele>337.0</ele><time>2026-05-01T10:47:59.833Z</time></trkpt><trkpt lat="42.2374006" lon="14.2018958"><ele>338.0</ele><time>2026-05-01T10:48:00.833Z</time></trkpt><trkpt lat="42.2373825" lon="14.201791"><ele>339.0</ele><time>2026-05-01T10:48:01.832Z</time></trkpt><trkpt lat="42.237362" lon="14.201697"><ele>340.0</ele><time>2026-05-01T10:48:02.833Z</time></trkpt><trkpt lat="42.2373481" lon="14.2016034"><ele>341.0</ele><time>2026-05-01T10:48:03.833Z</time></trkpt><trkpt lat="42.2373238" lon="14.2014387"><ele>341.6</ele><time>2026-05-01T10:48:05.833Z</time></trkpt><trkpt lat="42.2372917" lon="14.2012793"><ele>342.20000000000005</ele><time>2026-05-01T10:48:07.833Z</time></trkpt><trkpt lat="42.2372852" lon="14.2011373"><ele>342.79999999999995</ele><time>2026-05-01T10:48:09.833Z</time></trkpt><trkpt lat="42.2373078" lon="14.2009962"><ele>343.4</ele><time>2026-05-01T10:48:11.833Z</time></trkpt><trkpt lat="42.2373137" lon="14.2009115"><ele>344.0</ele><time>2026-05-01T10:48:12.833Z</time></trkpt><trkpt lat="42.2373328" lon="14.2007473"><ele>345.0</ele><time>2026-05-01T10:48:14.833Z</time></trkpt><trkpt lat="42.2373484" lon="14.200593"><ele>346.0</ele><time>2026-05-01T10:48:16.833Z</time></trkpt><trkpt lat="42.2373624" lon="14.2004318"><ele>347.0</ele><time>2026-05-01T10:48:18.833Z</time></trkpt><trkpt lat="42.2373775" lon="14.2002922"><ele>348.0</ele><time>2026-05-01T10:48:20.833Z</time></trkpt><trkpt lat="42.2374062" lon="14.200128"><ele>348.0</ele><time>2026-05-01T10:48:22.833Z</time></trkpt><trkpt lat="42.2374323" lon="14.1999898"><ele>348.0</ele><time>2026-05-01T10:48:24.833Z</time></trkpt><trkpt lat="42.2374533" lon="14.1998869"><ele>348.0</ele><time>2026-05-01T10:48:26.833Z</time></trkpt><trkpt lat="42.2374674" lon="14.1997935"><ele>348.0</ele><time>2026-05-01T10:48:35.833Z</time></trkpt><trkpt lat="42.2373966" lon="14.1997172"><ele>348.0</ele><time>2026-05-01T10:49:03.833Z</time></trkpt><trkpt lat="42.237272" lon="14.1996573"><ele>344.5</ele><time>2026-05-01T10:49:05.833Z</time></trkpt><trkpt lat="42.2371968" lon="14.1996321"><ele>341.0</ele><time>2026-05-01T10:49:06.833Z</time></trkpt><trkpt lat="42.2371218" lon="14.1995978"><ele>337.5</ele><time>2026-05-01T10:49:07.833Z</time></trkpt><trkpt lat="42.2370422" lon="14.1995682"><ele>334.0</ele><time>2026-05-01T10:49:08.833Z</time></trkpt><trkpt lat="42.2369671" lon="14.1995458"><ele>330.5</ele><time>2026-05-01T10:49:09.833Z</time></trkpt><trkpt lat="42.2368886" lon="14.1995112"><ele>327.0</ele><time>2026-05-01T10:49:10.833Z</time></trkpt><trkpt lat="42.2368061" lon="14.1994785"><ele>327.0</ele><time>2026-05-01T10:49:11.833Z</time></trkpt><trkpt lat="42.236724" lon="14.1994414"><ele>327.0</ele><time>2026-05-01T10:49:12.833Z</time></trkpt><trkpt lat="42.2366446" lon="14.1994067"><ele>327.0</ele><time>2026-05-01T10:49:13.833Z</time></trkpt><trkpt lat="42.2365654" lon="14.1993818"><ele>327.0</ele><time>2026-05-01T10:49:14.833Z</time></trkpt><trkpt lat="42.2364855" lon="14.1993583"><ele>327.0</ele><time>2026-05-01T10:49:15.833Z</time></trkpt><trkpt lat="42.2364073" lon="14.1993253"><ele>327.0</ele><time>2026-05-01T10:49:16.832Z</time></trkpt><trkpt lat="42.2363326" lon="14.1992946"><ele>323.0</ele><time>2026-05-01T10:49:17.833Z</time></trkpt><trkpt lat="42.2362602" lon="14.1992621"><ele>319.0</ele><time>2026-05-01T10:49:18.833Z</time></trkpt><trkpt lat="42.2361964" lon="14.1992441"><ele>315.0</ele><time>2026-05-01T10:49:19.833Z</time></trkpt><trkpt lat="42.2361216" lon="14.1992895"><ele>311.0</ele><time>2026-05-01T10:49:21.833Z</time></trkpt><trkpt lat="42.2360766" lon="14.1994274"><ele>307.0</ele><time>2026-05-01T10:49:23.833Z</time></trkpt><trkpt lat="42.2360486" lon="14.1995329"><ele>303.0</ele><time>2026-05-01T10:49:24.833Z</time></trkpt><trkpt lat="42.2360201" lon="14.1996543"><ele>303.0</ele><time>2026-05-01T10:49:25.833Z</time></trkpt><trkpt lat="42.2359907" lon="14.1997542"><ele>303.0</ele><time>2026-05-01T10:49:26.833Z</time></trkpt><trkpt lat="42.2359642" lon="14.1998373"><ele>303.0</ele><time>2026-05-01T10:49:27.833Z</time></trkpt><trkpt lat="42.2359384" lon="14.1999853"><ele>303.0</ele><time>2026-05-01T10:49:29.833Z</time></trkpt><trkpt lat="42.2358798" lon="14.2000961"><ele>303.0</ele><time>2026-05-01T10:49:31.833Z</time></trkpt><trkpt lat="42.2357811" lon="14.2001161"><ele>303.1666666666667</ele><time>2026-05-01T10:49:33.833Z</time></trkpt><trkpt lat="42.2357135" lon="14.2001006"><ele>303.3333333333333</ele><time>2026-05-01T10:49:34.832Z</time></trkpt><trkpt lat="42.2356405" lon="14.2000746"><ele>303.5</ele><time>2026-05-01T10:49:35.833Z</time></trkpt><trkpt lat="42.2355699" lon="14.2000386"><ele>303.66666666666663</ele><time>2026-05-01T10:49:36.833Z</time></trkpt><trkpt lat="42.2354961" lon="14.1999936"><ele>303.8333333333333</ele><time>2026-05-01T10:49:37.832Z</time></trkpt><trkpt lat="42.2354178" lon="14.1999556"><ele>304.0</ele><time>2026-05-01T10:49:38.833Z</time></trkpt><trkpt lat="42.235337" lon="14.1999204"><ele>301.3333333333333</ele><time>2026-05-01T10:49:39.833Z</time></trkpt><trkpt lat="42.2352657" lon="14.1998827"><ele>298.66666666666663</ele><time>2026-05-01T10:49:40.833Z</time></trkpt><trkpt lat="42.2351963" lon="14.1998355"><ele>296.0</ele><time>2026-05-01T10:49:41.832Z</time></trkpt><trkpt lat="42.2351317" lon="14.1997909"><ele>293.3333333333333</ele><time>2026-05-01T10:49:42.833Z</time></trkpt><trkpt lat="42.2350735" lon="14.1997399"><ele>290.6666666666667</ele><time>2026-05-01T10:49:43.833Z</time></trkpt><trkpt lat="42.235013" lon="14.1996743"><ele>288.0</ele><time>2026-05-01T10:49:44.832Z</time></trkpt><trkpt lat="42.2349571" lon="14.1995997"><ele>287.8333333333333</ele><time>2026-05-01T10:49:45.833Z</time></trkpt><trkpt lat="42.2348938" lon="14.1995224"><ele>287.6666666666667</ele><time>2026-05-01T10:49:46.832Z</time></trkpt><trkpt lat="42.2348223" lon="14.1994558"><ele>287.5</ele><time>2026-05-01T10:49:47.833Z</time></trkpt><trkpt lat="42.2347565" lon="14.1993913"><ele>287.33333333333337</ele><time>2026-05-01T10:49:48.833Z</time></trkpt><trkpt lat="42.234691" lon="14.1993259"><ele>287.1666666666667</ele><time>2026-05-01T10:49:49.833Z</time></trkpt><trkpt lat="42.2346346" lon="14.1992557"><ele>287.0</ele><time>2026-05-01T10:49:50.833Z</time></trkpt><trkpt lat="42.2345921" lon="14.1991884"><ele>285.6666666666667</ele><time>2026-05-01T10:49:51.833Z</time></trkpt><trkpt lat="42.2345506" lon="14.1991217"><ele>284.33333333333337</ele><time>2026-05-01T10:49:52.833Z</time></trkpt><trkpt lat="42.2345112" lon="14.1990493"><ele>283.0</ele><time>2026-05-01T10:49:53.833Z</time></trkpt><trkpt lat="42.2344424" lon="14.1989312"><ele>281.6666666666667</ele><time>2026-05-01T10:49:55.833Z</time></trkpt><trkpt lat="42.2343515" lon="14.1988416"><ele>280.3333333333333</ele><time>2026-05-01T10:49:57.832Z</time></trkpt><trkpt lat="42.2342968" lon="14.1987982"><ele>279.0</ele><time>2026-05-01T10:49:58.833Z</time></trkpt><trkpt lat="42.2341919" lon="14.1987131"><ele>278.2</ele><time>2026-05-01T10:50:00.832Z</time></trkpt><trkpt lat="42.2340929" lon="14.1986189"><ele>277.4</ele><time>2026-05-01T10:50:02.832Z</time></trkpt><trkpt lat="42.2340063" lon="14.19852"><ele>276.6</ele><time>2026-05-01T10:50:04.833Z</time></trkpt><trkpt lat="42.2339254" lon="14.1984406"><ele>275.8</ele><time>2026-05-01T10:50:06.833Z</time></trkpt><trkpt lat="42.2338349" lon="14.1984745"><ele>275.0</ele><time>2026-05-01T10:50:08.833Z</time></trkpt><trkpt lat="42.2337645" lon="14.1985499"><ele>274.2857142857143</ele><time>2026-05-01T10:50:10.833Z</time></trkpt><trkpt lat="42.2336923" lon="14.1986173"><ele>273.57142857142856</ele><time>2026-05-01T10:50:12.832Z</time></trkpt><trkpt lat="42.2336241" lon="14.198606"><ele>272.85714285714283</ele><time>2026-05-01T10:50:14.832Z</time></trkpt><trkpt lat="42.2335758" lon="14.1985509"><ele>272.1428571428571</ele><time>2026-05-01T10:50:15.833Z</time></trkpt><trkpt lat="42.2335228" lon="14.1984895"><ele>271.4285714285714</ele><time>2026-05-01T10:50:16.833Z</time></trkpt><trkpt lat="42.2334638" lon="14.1984249"><ele>270.7142857142857</ele><time>2026-05-01T10:50:17.833Z</time></trkpt><trkpt lat="42.2334041" lon="14.1983728"><ele>270.0</ele><time>2026-05-01T10:50:18.832Z</time></trkpt><trkpt lat="42.2333514" lon="14.1983152"><ele>270.0</ele><time>2026-05-01T10:50:19.833Z</time></trkpt><trkpt lat="42.2333019" lon="14.1982517"><ele>270.0</ele><time>2026-05-01T10:50:20.833Z</time></trkpt><trkpt lat="42.2332598" lon="14.1981815"><ele>270.0</ele><time>2026-05-01T10:50:21.832Z</time></trkpt><trkpt lat="42.2332136" lon="14.1981136"><ele>270.0</ele><time>2026-05-01T10:50:22.833Z</time></trkpt><trkpt lat="42.2331727" lon="14.1980394"><ele>270.0</ele><time>2026-05-01T10:50:23.833Z</time></trkpt><trkpt lat="42.2331333" lon="14.1979287"><ele>270.0</ele><time>2026-05-01T10:50:25.833Z</time></trkpt><trkpt lat="42.2331124" lon="14.1978201"><ele>270.0</ele><time>2026-05-01T10:50:29.832Z</time></trkpt><trkpt lat="42.233026" lon="14.197793"><ele>270.0</ele><time>2026-05-01T10:50:55.833Z</time></trkpt><trkpt lat="42.232949" lon="14.1978066"><ele>270.0</ele><time>2026-05-01T10:50:57.833Z</time></trkpt><trkpt lat="42.2329078" lon="14.1976936"><ele>270.0</ele><time>2026-05-01T10:51:01.833Z</time></trkpt><trkpt lat="42.2329138" lon="14.1975988"><ele>270.0</ele><time>2026-05-01T10:51:02.833Z</time></trkpt><trkpt lat="42.2329225" lon="14.1975134"><ele>270.0</ele><time>2026-05-01T10:51:03.832Z</time></trkpt><trkpt lat="42.2329356" lon="14.1974289"><ele>270.0</ele><time>2026-05-01T10:51:04.833Z</time></trkpt><trkpt lat="42.2329394" lon="14.1973429"><ele>270.0</ele><time>2026-05-01T10:51:05.832Z</time></trkpt><trkpt lat="42.2329244" lon="14.1972434"><ele>270.0</ele><time>2026-05-01T10:51:06.833Z</time></trkpt><trkpt lat="42.2328984" lon="14.197119"><ele>270.0</ele><time>2026-05-01T10:51:07.833Z</time></trkpt><trkpt lat="42.232875" lon="14.1970082"><ele>270.0</ele><time>2026-05-01T10:51:08.833Z</time></trkpt><trkpt lat="42.2328481" lon="14.1968558"><ele>270.0</ele><time>2026-05-01T10:51:10.833Z</time></trkpt><trkpt lat="42.2328198" lon="14.1967033"><ele>270.0</ele><time>2026-05-01T10:51:12.833Z</time></trkpt><trkpt lat="42.2327973" lon="14.1966097"><ele>270.0</ele><time>2026-05-01T10:51:13.833Z</time></trkpt><trkpt lat="42.232788" lon="14.1965093"><ele>270.0</ele><time>2026-05-01T10:51:14.833Z</time></trkpt><trkpt lat="42.2327908" lon="14.1964089"><ele>270.0</ele><time>2026-05-01T10:51:15.833Z</time></trkpt><trkpt lat="42.2327741" lon="14.1962972"><ele>270.0</ele><time>2026-05-01T10:51:16.833Z</time></trkpt><trkpt lat="42.2327449" lon="14.1961879"><ele>270.0</ele><time>2026-05-01T10:51:17.833Z</time></trkpt><trkpt lat="42.2327047" lon="14.1961018"><ele>270.0</ele><time>2026-05-01T10:51:18.833Z</time></trkpt><trkpt lat="42.2326101" lon="14.1960207"><ele>270.1666666666667</ele><time>2026-05-01T10:51:20.833Z</time></trkpt><trkpt lat="42.2325428" lon="14.1960122"><ele>270.3333333333333</ele><time>2026-05-01T10:51:21.833Z</time></trkpt><trkpt lat="42.232468" lon="14.1960127"><ele>270.5</ele><time>2026-05-01T10:51:22.833Z</time></trkpt><trkpt lat="42.2323801" lon="14.196027"><ele>270.66666666666663</ele><time>2026-05-01T10:51:23.832Z</time></trkpt><trkpt lat="42.232282" lon="14.1960532"><ele>270.8333333333333</ele><time>2026-05-01T10:51:24.833Z</time></trkpt><trkpt lat="42.232181" lon="14.1960749"><ele>271.0</ele><time>2026-05-01T10:51:25.833Z</time></trkpt><trkpt lat="42.232075" lon="14.1960947"><ele>271.6</ele><time>2026-05-01T10:51:26.833Z</time></trkpt><trkpt lat="42.2319669" lon="14.1961114"><ele>272.20000000000005</ele><time>2026-05-01T10:51:27.833Z</time></trkpt><trkpt lat="42.2318536" lon="14.1961296"><ele>272.79999999999995</ele><time>2026-05-01T10:51:28.833Z</time></trkpt><trkpt lat="42.2317418" lon="14.1961439"><ele>273.4</ele><time>2026-05-01T10:51:29.833Z</time></trkpt><trkpt lat="42.2316322" lon="14.1961542"><ele>274.0</ele><time>2026-05-01T10:51:30.833Z</time></trkpt><trkpt lat="42.2315256" lon="14.1961577"><ele>274.4</ele><time>2026-05-01T10:51:31.833Z</time></trkpt><trkpt lat="42.2314239" lon="14.1961577"><ele>274.79999999999995</ele><time>2026-05-01T10:51:32.833Z</time></trkpt><trkpt lat="42.2313226" lon="14.1961617"><ele>275.20000000000005</ele><time>2026-05-01T10:51:33.832Z</time></trkpt><trkpt lat="42.2312287" lon="14.1961607"><ele>275.6</ele><time>2026-05-01T10:51:34.833Z</time></trkpt><trkpt lat="42.2311305" lon="14.1961499"><ele>276.0</ele><time>2026-05-01T10:51:35.833Z</time></trkpt><trkpt lat="42.2310312" lon="14.1961234"><ele>276.0</ele><time>2026-05-01T10:51:36.833Z</time></trkpt><trkpt lat="42.2309218" lon="14.1960892"><ele>276.0</ele><time>2026-05-01T10:51:37.833Z</time></trkpt><trkpt lat="42.2308163" lon="14.1960556"><ele>276.0</ele><time>2026-05-01T10:51:38.833Z</time></trkpt><trkpt lat="42.2307202" lon="14.1960178"><ele>276.0</ele><time>2026-05-01T10:51:39.833Z</time></trkpt><trkpt lat="42.2306314" lon="14.1959736"><ele>276.0</ele><time>2026-05-01T10:51:40.833Z</time></trkpt><trkpt lat="42.2305431" lon="14.1959063"><ele>276.0</ele><time>2026-05-01T10:51:41.833Z</time></trkpt><trkpt lat="42.2304598" lon="14.1958292"><ele>276.0</ele><time>2026-05-01T10:51:42.833Z</time></trkpt><trkpt lat="42.2303812" lon="14.1957335"><ele>276.0</ele><time>2026-05-01T10:51:43.833Z</time></trkpt><trkpt lat="42.2302912" lon="14.195644"><ele>276.0</ele><time>2026-05-01T10:51:44.833Z</time></trkpt><trkpt lat="42.230194" lon="14.1955739"><ele>276.0</ele><time>2026-05-01T10:51:45.833Z</time></trkpt><trkpt lat="42.2300928" lon="14.1955348"><ele>276.8333333333333</ele><time>2026-05-01T10:51:46.832Z</time></trkpt><trkpt lat="42.2299972" lon="14.1955093"><ele>277.6666666666667</ele><time>2026-05-01T10:51:47.833Z</time></trkpt><trkpt lat="42.2299112" lon="14.1954899"><ele>278.5</ele><time>2026-05-01T10:51:48.833Z</time></trkpt><trkpt lat="42.2298406" lon="14.1954543"><ele>279.33333333333337</ele><time>2026-05-01T10:51:49.833Z</time></trkpt><trkpt lat="42.2297899" lon="14.195397"><ele>280.1666666666667</ele><time>2026-05-01T10:51:50.832Z</time></trkpt><trkpt lat="42.2297466" lon="14.1953178"><ele>281.0</ele><time>2026-05-01T10:51:51.833Z</time></trkpt><trkpt lat="42.2296955" lon="14.1952005"><ele>281.0</ele><time>2026-05-01T10:51:52.833Z</time></trkpt><trkpt lat="42.2296463" lon="14.1950753"><ele>281.0</ele><time>2026-05-01T10:51:53.833Z</time></trkpt><trkpt lat="42.2295812" lon="14.1949545"><ele>281.0</ele><time>2026-05-01T10:51:54.832Z</time></trkpt><trkpt lat="42.2295062" lon="14.1948405"><ele>281.0</ele><time>2026-05-01T10:51:55.833Z</time></trkpt><trkpt lat="42.2294221" lon="14.1947204"><ele>282.5</ele><time>2026-05-01T10:51:56.833Z</time></trkpt><trkpt lat="42.2293475" lon="14.194593"><ele>284.0</ele><time>2026-05-01T10:51:57.833Z</time></trkpt><trkpt lat="42.2292706" lon="14.1944629"><ele>285.5</ele><time>2026-05-01T10:51:58.833Z</time></trkpt><trkpt lat="42.2291911" lon="14.1943387"><ele>287.0</ele><time>2026-05-01T10:51:59.833Z</time></trkpt><trkpt lat="42.2291063" lon="14.1942289"><ele>287.0</ele><time>2026-05-01T10:52:00.833Z</time></trkpt><trkpt lat="42.2290271" lon="14.1941272"><ele>287.0</ele><time>2026-05-01T10:52:01.833Z</time></trkpt><trkpt lat="42.228942" lon="14.1940268"><ele>287.0</ele><time>2026-05-01T10:52:02.833Z</time></trkpt><trkpt lat="42.2288551" lon="14.193923"><ele>287.0</ele><time>2026-05-01T10:52:03.834Z</time></trkpt><trkpt lat="42.2287753" lon="14.1938383"><ele>287.0</ele><time>2026-05-01T10:52:04.833Z</time></trkpt><trkpt lat="42.228703" lon="14.1937892"><ele>288.5</ele><time>2026-05-01T10:52:05.834Z</time></trkpt><trkpt lat="42.2286237" lon="14.1937642"><ele>290.0</ele><time>2026-05-01T10:52:06.834Z</time></trkpt><trkpt lat="42.2285437" lon="14.1937624"><ele>291.5</ele><time>2026-05-01T10:52:07.833Z</time></trkpt><trkpt lat="42.2284553" lon="14.193749"><ele>293.0</ele><time>2026-05-01T10:52:08.834Z</time></trkpt><trkpt lat="42.2283646" lon="14.1937119"><ele>294.5</ele><time>2026-05-01T10:52:09.834Z</time></trkpt><trkpt lat="42.2282741" lon="14.1936666"><ele>296.0</ele><time>2026-05-01T10:52:10.834Z</time></trkpt><trkpt lat="42.2281833" lon="14.1935981"><ele>295.0</ele><time>2026-05-01T10:52:11.833Z</time></trkpt><trkpt lat="42.2281044" lon="14.1935089"><ele>294.0</ele><time>2026-05-01T10:52:12.834Z</time></trkpt><trkpt lat="42.2280278" lon="14.1934188"><ele>293.0</ele><time>2026-05-01T10:52:13.834Z</time></trkpt><trkpt lat="42.2279458" lon="14.1933231"><ele>292.0</ele><time>2026-05-01T10:52:14.834Z</time></trkpt><trkpt lat="42.2278513" lon="14.1932298"><ele>291.0</ele><time>2026-05-01T10:52:15.834Z</time></trkpt><trkpt lat="42.2277503" lon="14.1931348"><ele>293.25</ele><time>2026-05-01T10:52:16.834Z</time></trkpt><trkpt lat="42.2276427" lon="14.193045"><ele>295.5</ele><time>2026-05-01T10:52:17.834Z</time></trkpt><trkpt lat="42.2275268" lon="14.1929523"><ele>297.75</ele><time>2026-05-01T10:52:18.834Z</time></trkpt><trkpt lat="42.2274091" lon="14.1928532"><ele>300.0</ele><time>2026-05-01T10:52:19.834Z</time></trkpt><trkpt lat="42.2272953" lon="14.1927522"><ele>300.0</ele><time>2026-05-01T10:52:20.834Z</time></trkpt><trkpt lat="42.227191" lon="14.1926699"><ele>300.0</ele><time>2026-05-01T10:52:21.833Z</time></trkpt><trkpt lat="42.2270945" lon="14.1926126"><ele>300.0</ele><time>2026-05-01T10:52:22.834Z</time></trkpt><trkpt lat="42.2270012" lon="14.1925836"><ele>300.0</ele><time>2026-05-01T10:52:23.834Z</time></trkpt><trkpt lat="42.2269013" lon="14.1925575"><ele>300.0</ele><time>2026-05-01T10:52:24.834Z</time></trkpt><trkpt lat="42.2268053" lon="14.1925378"><ele>300.0</ele><time>2026-05-01T10:52:25.834Z</time></trkpt><trkpt lat="42.2266948" lon="14.1925256"><ele>300.0</ele><time>2026-05-01T10:52:26.834Z</time></trkpt><trkpt lat="42.2265842" lon="14.1925179"><ele>300.0</ele><time>2026-05-01T10:52:27.834Z</time></trkpt><trkpt lat="42.2264712" lon="14.192509"><ele>300.0</ele><time>2026-05-01T10:52:28.834Z</time></trkpt><trkpt lat="42.2263583" lon="14.1925123"><ele>300.0</ele><time>2026-05-01T10:52:29.833Z</time></trkpt><trkpt lat="42.2262516" lon="14.1925297"><ele>300.5</ele><time>2026-05-01T10:52:30.834Z</time></trkpt><trkpt lat="42.226146" lon="14.1925651"><ele>301.0</ele><time>2026-05-01T10:52:31.834Z</time></trkpt><trkpt lat="42.2260366" lon="14.1926106"><ele>301.5</ele><time>2026-05-01T10:52:32.834Z</time></trkpt><trkpt lat="42.2259219" lon="14.1926563"><ele>302.0</ele><time>2026-05-01T10:52:33.834Z</time></trkpt><trkpt lat="42.2258036" lon="14.1927038"><ele>302.0</ele><time>2026-05-01T10:52:34.834Z</time></trkpt><trkpt lat="42.2256852" lon="14.1927385"><ele>302.0</ele><time>2026-05-01T10:52:35.834Z</time></trkpt><trkpt lat="42.2255695" lon="14.1927746"><ele>302.0</ele><time>2026-05-01T10:52:36.833Z</time></trkpt><trkpt lat="42.225451" lon="14.19279"><ele>302.0</ele><time>2026-05-01T10:52:37.834Z</time></trkpt><trkpt lat="42.2253276" lon="14.1928045"><ele>302.75</ele><time>2026-05-01T10:52:38.834Z</time></trkpt><trkpt lat="42.2252103" lon="14.1928156"><ele>303.5</ele><time>2026-05-01T10:52:39.834Z</time></trkpt><trkpt lat="42.2250949" lon="14.19283"><ele>304.25</ele><time>2026-05-01T10:52:40.834Z</time></trkpt><trkpt lat="42.2249832" lon="14.1928431"><ele>305.0</ele><time>2026-05-01T10:52:41.834Z</time></trkpt><trkpt lat="42.2248781" lon="14.1928568"><ele>305.4</ele><time>2026-05-01T10:52:42.834Z</time></trkpt><trkpt lat="42.2247761" lon="14.1928658"><ele>305.8</ele><time>2026-05-01T10:52:43.833Z</time></trkpt><trkpt lat="42.2246774" lon="14.192874"><ele>306.2</ele><time>2026-05-01T10:52:44.834Z</time></trkpt><trkpt lat="42.2245753" lon="14.1928929"><ele>306.6</ele><time>2026-05-01T10:52:45.834Z</time></trkpt><trkpt lat="42.2244689" lon="14.192907"><ele>307.0</ele><time>2026-05-01T10:52:46.833Z</time></trkpt><trkpt lat="42.2243586" lon="14.1929056"><ele>307.0</ele><time>2026-05-01T10:52:47.834Z</time></trkpt><trkpt lat="42.2242544" lon="14.1928844"><ele>307.0</ele><time>2026-05-01T10:52:48.834Z</time></trkpt><trkpt lat="42.2241713" lon="14.1928466"><ele>307.0</ele><time>2026-05-01T10:52:49.834Z</time></trkpt><trkpt lat="42.2240911" lon="14.192789"><ele>307.0</ele><time>2026-05-01T10:52:50.834Z</time></trkpt><trkpt lat="42.2240065" lon="14.1927179"><ele>307.0</ele><time>2026-05-01T10:52:51.834Z</time></trkpt><trkpt lat="42.223932" lon="14.1926351"><ele>307.8333333333333</ele><time>2026-05-01T10:52:52.833Z</time></trkpt><trkpt lat="42.2238622" lon="14.1925569"><ele>308.66666666666663</ele><time>2026-05-01T10:52:53.834Z</time></trkpt><trkpt lat="42.2237924" lon="14.1924938"><ele>309.5</ele><time>2026-05-01T10:52:54.834Z</time></trkpt><trkpt lat="42.2237305" lon="14.1924545"><ele>310.3333333333333</ele><time>2026-05-01T10:52:55.834Z</time></trkpt><trkpt lat="42.2236626" lon="14.1924166"><ele>311.1666666666667</ele><time>2026-05-01T10:52:57.834Z</time></trkpt><trkpt lat="42.2235957" lon="14.1924105"><ele>312.0</ele><time>2026-05-01T10:53:01.834Z</time></trkpt><trkpt lat="42.2234856" lon="14.1925111"><ele>312.0</ele><time>2026-05-01T10:53:35.834Z</time></trkpt><trkpt lat="42.223419" lon="14.1925464"><ele>312.0</ele><time>2026-05-01T10:53:36.834Z</time></trkpt><trkpt lat="42.2233364" lon="14.1925809"><ele>312.0</ele><time>2026-05-01T10:53:37.833Z</time></trkpt><trkpt lat="42.2232456" lon="14.1926114"><ele>312.0</ele><time>2026-05-01T10:53:38.834Z</time></trkpt><trkpt lat="42.223144" lon="14.1926327"><ele>312.0</ele><time>2026-05-01T10:53:39.834Z</time></trkpt><trkpt lat="42.2230402" lon="14.1926558"><ele>312.4</ele><time>2026-05-01T10:53:40.834Z</time></trkpt><trkpt lat="42.2229415" lon="14.1926801"><ele>312.79999999999995</ele><time>2026-05-01T10:53:41.834Z</time></trkpt><trkpt lat="42.2228402" lon="14.1927018"><ele>313.2</ele><time>2026-05-01T10:53:42.834Z</time></trkpt><trkpt lat="42.2227358" lon="14.1927147"><ele>313.59999999999997</ele><time>2026-05-01T10:53:43.834Z</time></trkpt><trkpt lat="42.2226348" lon="14.1927269"><ele>314.0</ele><time>2026-05-01T10:53:44.834Z</time></trkpt><trkpt lat="42.2225408" lon="14.1927285"><ele>314.0</ele><time>2026-05-01T10:53:45.834Z</time></trkpt><trkpt lat="42.2224521" lon="14.1927271"><ele>314.0</ele><time>2026-05-01T10:53:46.833Z</time></trkpt><trkpt lat="42.2223598" lon="14.1927088"><ele>314.0</ele><time>2026-05-01T10:53:47.834Z</time></trkpt><trkpt lat="42.222258" lon="14.1926769"><ele>314.0</ele><time>2026-05-01T10:53:48.833Z</time></trkpt><trkpt lat="42.222161" lon="14.192642"><ele>314.0</ele><time>2026-05-01T10:53:49.834Z</time></trkpt><trkpt lat="42.2220596" lon="14.1926066"><ele>314.8</ele><time>2026-05-01T10:53:50.834Z</time></trkpt><trkpt lat="42.2219614" lon="14.1925763"><ele>315.59999999999997</ele><time>2026-05-01T10:53:51.833Z</time></trkpt><trkpt lat="42.2218661" lon="14.1925469"><ele>316.4</ele><time>2026-05-01T10:53:52.834Z</time></trkpt><trkpt lat="42.2217691" lon="14.1925182"><ele>317.2</ele><time>2026-05-01T10:53:53.834Z</time></trkpt><trkpt lat="42.2216758" lon="14.1924834"><ele>318.0</ele><time>2026-05-01T10:53:54.834Z</time></trkpt><trkpt lat="42.2215866" lon="14.1924308"><ele>318.0</ele><time>2026-05-01T10:53:55.834Z</time></trkpt><trkpt lat="42.221497" lon="14.1923679"><ele>318.0</ele><time>2026-05-01T10:53:56.834Z</time></trkpt><trkpt lat="42.2214127" lon="14.1922957"><ele>318.0</ele><time>2026-05-01T10:53:57.834Z</time></trkpt><trkpt lat="42.2213322" lon="14.1922307"><ele>318.0</ele><time>2026-05-01T10:53:58.834Z</time></trkpt><trkpt lat="42.2212683" lon="14.192188"><ele>318.0</ele><time>2026-05-01T10:53:59.834Z</time></trkpt><trkpt lat="42.2211994" lon="14.1921254"><ele>318.0</ele><time>2026-05-01T10:54:01.834Z</time></trkpt><trkpt lat="42.221136" lon="14.1921411"><ele>318.0</ele><time>2026-05-01T10:54:04.834Z</time></trkpt><trkpt lat="42.2211678" lon="14.1922196"><ele>318.0</ele><time>2026-05-01T10:54:06.834Z</time></trkpt><trkpt lat="42.2212215" lon="14.1922689"><ele>318.0</ele><time>2026-05-01T10:54:07.834Z</time></trkpt><trkpt lat="42.2212891" lon="14.1923313"><ele>318.0</ele><time>2026-05-01T10:54:08.834Z</time></trkpt><trkpt lat="42.2213556" lon="14.1924073"><ele>318.0</ele><time>2026-05-01T10:54:09.833Z</time></trkpt><trkpt lat="42.22142" lon="14.192479"><ele>318.0</ele><time>2026-05-01T10:54:10.834Z</time></trkpt><trkpt lat="42.2214941" lon="14.1925605"><ele>318.0</ele><time>2026-05-01T10:54:11.834Z</time></trkpt><trkpt lat="42.2215717" lon="14.1926443"><ele>318.0</ele><time>2026-05-01T10:54:12.834Z</time></trkpt><trkpt lat="42.2216465" lon="14.1927276"><ele>318.0</ele><time>2026-05-01T10:54:13.834Z</time></trkpt><trkpt lat="42.2217165" lon="14.1928105"><ele>318.0</ele><time>2026-05-01T10:54:14.833Z</time></trkpt><trkpt lat="42.2217865" lon="14.1928873"><ele>318.0</ele><time>2026-05-01T10:54:15.834Z</time></trkpt><trkpt lat="42.2218575" lon="14.1929607"><ele>318.0</ele><time>2026-05-01T10:54:16.834Z</time></trkpt><trkpt lat="42.221936" lon="14.1930401"><ele>318.0</ele><time>2026-05-01T10:54:17.834Z</time></trkpt><trkpt lat="42.2220172" lon="14.1931243"><ele>318.0</ele><time>2026-05-01T10:54:18.833Z</time></trkpt><trkpt lat="42.2221066" lon="14.1932122"><ele>318.0</ele><time>2026-05-01T10:54:19.834Z</time></trkpt><trkpt lat="42.2222005" lon="14.1932974"><ele>318.0</ele><time>2026-05-01T10:54:20.834Z</time></trkpt><trkpt lat="42.2222952" lon="14.1933656"><ele>316.6666666666667</ele><time>2026-05-01T10:54:21.834Z</time></trkpt><trkpt lat="42.2223847" lon="14.1934193"><ele>315.3333333333333</ele><time>2026-05-01T10:54:22.834Z</time></trkpt><trkpt lat="42.2224639" lon="14.1934756"><ele>314.0</ele><time>2026-05-01T10:54:23.834Z</time></trkpt><trkpt lat="42.2225403" lon="14.1935241"><ele>312.66666666666663</ele><time>2026-05-01T10:54:24.834Z</time></trkpt><trkpt lat="42.22261" lon="14.1935728"><ele>311.3333333333333</ele><time>2026-05-01T10:54:25.834Z</time></trkpt><trkpt lat="42.2226835" lon="14.1936185"><ele>310.0</ele><time>2026-05-01T10:54:26.834Z</time></trkpt><trkpt lat="42.2227517" lon="14.1936656"><ele>310.0</ele><time>2026-05-01T10:54:27.833Z</time></trkpt><trkpt lat="42.2228259" lon="14.1937101"><ele>310.0</ele><time>2026-05-01T10:54:28.834Z</time></trkpt><trkpt lat="42.2229008" lon="14.1937595"><ele>310.0</ele><time>2026-05-01T10:54:29.834Z</time></trkpt><trkpt lat="42.222981" lon="14.1938122"><ele>310.0</ele><time>2026-05-01T10:54:30.834Z</time></trkpt><trkpt lat="42.2230584" lon="14.1938654"><ele>310.0</ele><time>2026-05-01T10:54:31.834Z</time></trkpt><trkpt lat="42.2231405" lon="14.193924"><ele>310.0</ele><time>2026-05-01T10:54:32.834Z</time></trkpt><trkpt lat="42.2232271" lon="14.1939854"><ele>309.0</ele><time>2026-05-01T10:54:33.834Z</time></trkpt><trkpt lat="42.2233162" lon="14.194037"><ele>308.0</ele><time>2026-05-01T10:54:34.833Z</time></trkpt><trkpt lat="42.2234012" lon="14.194085"><ele>307.0</ele><time>2026-05-01T10:54:35.834Z</time></trkpt><trkpt lat="42.2234807" lon="14.1941319"><ele>306.0</ele><time>2026-05-01T10:54:36.834Z</time></trkpt><trkpt lat="42.2235582" lon="14.1941768"><ele>305.0</ele><time>2026-05-01T10:54:37.834Z</time></trkpt><trkpt lat="42.2236375" lon="14.194219"><ele>304.0</ele><time>2026-05-01T10:54:38.834Z</time></trkpt><trkpt lat="42.2237141" lon="14.1942829"><ele>304.0</ele><time>2026-05-01T10:54:39.833Z</time></trkpt><trkpt lat="42.2237892" lon="14.1943498"><ele>304.0</ele><time>2026-05-01T10:54:40.834Z</time></trkpt><trkpt lat="42.2238642" lon="14.1944176"><ele>304.0</ele><time>2026-05-01T10:54:41.834Z</time></trkpt><trkpt lat="42.2239356" lon="14.1944908"><ele>304.0</ele><time>2026-05-01T10:54:42.834Z</time></trkpt><trkpt lat="42.2240109" lon="14.1945659"><ele>304.0</ele><time>2026-05-01T10:54:43.833Z</time></trkpt><trkpt lat="42.2240861" lon="14.1946324"><ele>303.59999999999997</ele><time>2026-05-01T10:54:44.833Z</time></trkpt><trkpt lat="42.2241691" lon="14.1946977"><ele>303.2</ele><time>2026-05-01T10:54:45.834Z</time></trkpt><trkpt lat="42.2242469" lon="14.194753"><ele>302.79999999999995</ele><time>2026-05-01T10:54:46.834Z</time></trkpt><trkpt lat="42.224329" lon="14.1948036"><ele>302.4</ele><time>2026-05-01T10:54:47.834Z</time></trkpt><trkpt lat="42.2244145" lon="14.1948455"><ele>302.0</ele><time>2026-05-01T10:54:48.834Z</time></trkpt><trkpt lat="42.2245023" lon="14.1948885"><ele>301.6666666666667</ele><time>2026-05-01T10:54:49.833Z</time></trkpt><trkpt lat="42.2245851" lon="14.1949123"><ele>301.33333333333337</ele><time>2026-05-01T10:54:50.834Z</time></trkpt><trkpt lat="42.2246712" lon="14.1949125"><ele>301.0</ele><time>2026-05-01T10:54:51.834Z</time></trkpt><trkpt lat="42.2247556" lon="14.1949175"><ele>300.6666666666667</ele><time>2026-05-01T10:54:52.834Z</time></trkpt><trkpt lat="42.2248417" lon="14.1949271"><ele>300.3333333333333</ele><time>2026-05-01T10:54:53.834Z</time></trkpt><trkpt lat="42.2249258" lon="14.1949424"><ele>300.0</ele><time>2026-05-01T10:54:54.833Z</time></trkpt><trkpt lat="42.2250052" lon="14.1949578"><ele>298.8333333333333</ele><time>2026-05-01T10:54:55.834Z</time></trkpt><trkpt lat="42.2250834" lon="14.1949735"><ele>297.6666666666667</ele><time>2026-05-01T10:54:56.834Z</time></trkpt><trkpt lat="42.2251573" lon="14.1949976"><ele>296.5</ele><time>2026-05-01T10:54:57.834Z</time></trkpt><trkpt lat="42.2252193" lon="14.1950302"><ele>295.33333333333337</ele><time>2026-05-01T10:54:58.834Z</time></trkpt><trkpt lat="42.2253179" lon="14.1951305"><ele>294.1666666666667</ele><time>2026-05-01T10:55:00.834Z</time></trkpt><trkpt lat="42.2253555" lon="14.1952069"><ele>293.0</ele><time>2026-05-01T10:55:01.834Z</time></trkpt><trkpt lat="42.2253838" lon="14.1952984"><ele>293.0</ele><time>2026-05-01T10:55:02.834Z</time></trkpt><trkpt lat="42.2253985" lon="14.1953946"><ele>293.0</ele><time>2026-05-01T10:55:03.834Z</time></trkpt><trkpt lat="42.2254169" lon="14.1954853"><ele>293.0</ele><time>2026-05-01T10:55:04.834Z</time></trkpt><trkpt lat="42.225482" lon="14.1955925"><ele>293.0</ele><time>2026-05-01T10:55:06.834Z</time></trkpt><trkpt lat="42.2256033" lon="14.1956435"><ele>293.0</ele><time>2026-05-01T10:55:08.834Z</time></trkpt><trkpt lat="42.225666" lon="14.1956709"><ele>293.0</ele><time>2026-05-01T10:55:09.833Z</time></trkpt><trkpt lat="42.22577" lon="14.1957328"><ele>294.4</ele><time>2026-05-01T10:55:11.834Z</time></trkpt><trkpt lat="42.2258504" lon="14.1958107"><ele>295.8</ele><time>2026-05-01T10:55:13.834Z</time></trkpt><trkpt lat="42.2258884" lon="14.1958801"><ele>297.2</ele><time>2026-05-01T10:55:15.833Z</time></trkpt><trkpt lat="42.225906" lon="14.1959811"><ele>298.6</ele><time>2026-05-01T10:55:17.833Z</time></trkpt><trkpt lat="42.2259235" lon="14.1961304"><ele>300.0</ele><time>2026-05-01T10:55:19.834Z</time></trkpt><trkpt lat="42.2259591" lon="14.1962701"><ele>300.0</ele><time>2026-05-01T10:55:21.833Z</time></trkpt><trkpt lat="42.2259868" lon="14.1964107"><ele>300.0</ele><time>2026-05-01T10:55:23.834Z</time></trkpt><trkpt lat="42.2260068" lon="14.1965326"><ele>300.0</ele><time>2026-05-01T10:55:25.834Z</time></trkpt><trkpt lat="42.2260365" lon="14.1966462"><ele>300.0</ele><time>2026-05-01T10:55:27.834Z</time></trkpt><trkpt lat="42.2260751" lon="14.196724"><ele>300.0</ele><time>2026-05-01T10:55:29.834Z</time></trkpt><trkpt lat="42.2261792" lon="14.1968501"><ele>300.8333333333333</ele><time>2026-05-01T10:55:47.834Z</time></trkpt><trkpt lat="42.2262965" lon="14.1969385"><ele>301.6666666666667</ele><time>2026-05-01T10:55:49.834Z</time></trkpt><trkpt lat="42.2263581" lon="14.196984"><ele>302.5</ele><time>2026-05-01T10:55:50.834Z</time></trkpt><trkpt lat="42.2264191" lon="14.1970425"><ele>303.33333333333337</ele><time>2026-05-01T10:55:52.833Z</time></trkpt><trkpt lat="42.2264718" lon="14.1970907"><ele>304.1666666666667</ele><time>2026-05-01T10:55:54.834Z</time></trkpt><trkpt lat="42.2265217" lon="14.1971713"><ele>305.0</ele><time>2026-05-01T10:55:56.834Z</time></trkpt><trkpt lat="42.2265826" lon="14.1972787"><ele>307.2</ele><time>2026-05-01T10:55:58.834Z</time></trkpt><trkpt lat="42.2266468" lon="14.1973736"><ele>309.4</ele><time>2026-05-01T10:56:00.834Z</time></trkpt><trkpt lat="42.2267437" lon="14.197468"><ele>311.6</ele><time>2026-05-01T10:56:02.834Z</time></trkpt><trkpt lat="42.2267996" lon="14.1975169"><ele>313.8</ele><time>2026-05-01T10:56:03.834Z</time></trkpt><trkpt lat="42.2268593" lon="14.1975457"><ele>316.0</ele><time>2026-05-01T10:56:04.834Z</time></trkpt><trkpt lat="42.2269702" lon="14.197628"><ele>316.0</ele><time>2026-05-01T10:56:06.833Z</time></trkpt><trkpt lat="42.2270302" lon="14.1976806"><ele>316.0</ele><time>2026-05-01T10:56:07.834Z</time></trkpt><trkpt lat="42.227123" lon="14.1977787"><ele>316.0</ele><time>2026-05-01T10:56:09.834Z</time></trkpt><trkpt lat="42.2271748" lon="14.1978366"><ele>316.0</ele><time>2026-05-01T10:56:10.834Z</time></trkpt><trkpt lat="42.2272232" lon="14.1978921"><ele>316.0</ele><time>2026-05-01T10:56:11.834Z</time></trkpt><trkpt lat="42.2272704" lon="14.1979651"><ele>316.0</ele><time>2026-05-01T10:56:12.834Z</time></trkpt><trkpt lat="42.2273074" lon="14.1980552"><ele>315.8333333333333</ele><time>2026-05-01T10:56:13.833Z</time></trkpt><trkpt lat="42.2273441" lon="14.1981515"><ele>315.66666666666663</ele><time>2026-05-01T10:56:14.834Z</time></trkpt><trkpt lat="42.2273747" lon="14.1982547"><ele>315.5</ele><time>2026-05-01T10:56:15.834Z</time></trkpt><trkpt lat="42.2274008" lon="14.198361"><ele>315.3333333333333</ele><time>2026-05-01T10:56:16.834Z</time></trkpt><trkpt lat="42.2274191" lon="14.1984742"><ele>315.1666666666667</ele><time>2026-05-01T10:56:17.834Z</time></trkpt><trkpt lat="42.2274326" lon="14.1985857"><ele>315.0</ele><time>2026-05-01T10:56:18.833Z</time></trkpt><trkpt lat="42.2274362" lon="14.1986903"><ele>315.0</ele><time>2026-05-01T10:56:19.834Z</time></trkpt><trkpt lat="42.2274303" lon="14.1987987"><ele>315.0</ele><time>2026-05-01T10:56:20.834Z</time></trkpt><trkpt lat="42.2274243" lon="14.198896"><ele>315.0</ele><time>2026-05-01T10:56:21.834Z</time></trkpt><trkpt lat="42.2274155" lon="14.1990507"><ele>315.0</ele><time>2026-05-01T10:56:23.834Z</time></trkpt><trkpt lat="42.2274329" lon="14.1992013"><ele>315.0</ele><time>2026-05-01T10:56:25.834Z</time></trkpt><trkpt lat="42.2274596" lon="14.1992785"><ele>315.0</ele><time>2026-05-01T10:56:26.833Z</time></trkpt><trkpt lat="42.227497" lon="14.199359"><ele>314.2</ele><time>2026-05-01T10:56:27.833Z</time></trkpt><trkpt lat="42.2275645" lon="14.1994872"><ele>313.4</ele><time>2026-05-01T10:56:29.833Z</time></trkpt><trkpt lat="42.2276163" lon="14.1996155"><ele>312.6</ele><time>2026-05-01T10:56:31.834Z</time></trkpt><trkpt lat="42.2276675" lon="14.1997372"><ele>311.8</ele><time>2026-05-01T10:56:33.834Z</time></trkpt><trkpt lat="42.2276725" lon="14.1998833"><ele>311.0</ele><time>2026-05-01T10:56:35.834Z</time></trkpt><trkpt lat="42.2276122" lon="14.20005"><ele>310.6666666666667</ele><time>2026-05-01T10:56:37.834Z</time></trkpt><trkpt lat="42.2275778" lon="14.2001483"><ele>310.33333333333337</ele><time>2026-05-01T10:56:38.834Z</time></trkpt><trkpt lat="42.2275417" lon="14.2002593"><ele>310.0</ele><time>2026-05-01T10:56:39.834Z</time></trkpt><trkpt lat="42.2275006" lon="14.2003632"><ele>309.6666666666667</ele><time>2026-05-01T10:56:40.833Z</time></trkpt><trkpt lat="42.227458" lon="14.2004524"><ele>309.3333333333333</ele><time>2026-05-01T10:56:41.834Z</time></trkpt><trkpt lat="42.2274103" lon="14.2005399"><ele>309.0</ele><time>2026-05-01T10:56:42.834Z</time></trkpt><trkpt lat="42.2273532" lon="14.2006404"><ele>308.3333333333333</ele><time>2026-05-01T10:56:43.834Z</time></trkpt><trkpt lat="42.2273043" lon="14.2007271"><ele>307.6666666666667</ele><time>2026-05-01T10:56:44.834Z</time></trkpt><trkpt lat="42.2272691" lon="14.2007984"><ele>307.0</ele><time>2026-05-01T10:56:45.833Z</time></trkpt><trkpt lat="42.2272301" lon="14.2009214"><ele>306.33333333333337</ele><time>2026-05-01T10:56:47.834Z</time></trkpt><trkpt lat="42.2272783" lon="14.201014"><ele>305.6666666666667</ele><time>2026-05-01T10:56:50.834Z</time></trkpt><trkpt lat="42.22736" lon="14.2010794"><ele>305.0</ele><time>2026-05-01T10:56:52.834Z</time></trkpt><trkpt lat="42.2274151" lon="14.2011251"><ele>305.0</ele><time>2026-05-01T10:56:53.834Z</time></trkpt><trkpt lat="42.2274907" lon="14.2012065"><ele>305.0</ele><time>2026-05-01T10:56:55.834Z</time></trkpt><trkpt lat="42.2274952" lon="14.2013617"><ele>305.0</ele><time>2026-05-01T10:57:07.834Z</time></trkpt><trkpt lat="42.2274191" lon="14.2014834"><ele>305.0</ele><time>2026-05-01T10:57:09.834Z</time></trkpt><trkpt lat="42.2273709" lon="14.2015628"><ele>305.0</ele><time>2026-05-01T10:57:10.834Z</time></trkpt><trkpt lat="42.2273137" lon="14.2016526"><ele>307.0</ele><time>2026-05-01T10:57:11.834Z</time></trkpt><trkpt lat="42.227254" lon="14.2017511"><ele>309.0</ele><time>2026-05-01T10:57:12.834Z</time></trkpt><trkpt lat="42.2272008" lon="14.2018477"><ele>311.0</ele><time>2026-05-01T10:57:13.834Z</time></trkpt><trkpt lat="42.2271561" lon="14.2019299"><ele>313.0</ele><time>2026-05-01T10:57:14.834Z</time></trkpt><trkpt lat="42.2270625" lon="14.2020378"><ele>315.0</ele><time>2026-05-01T10:57:16.834Z</time></trkpt><trkpt lat="42.2270135" lon="14.2021057"><ele>315.0</ele><time>2026-05-01T10:57:17.834Z</time></trkpt><trkpt lat="42.2269637" lon="14.2021891"><ele>315.0</ele><time>2026-05-01T10:57:18.833Z</time></trkpt><trkpt lat="42.2269173" lon="14.2022813"><ele>315.0</ele><time>2026-05-01T10:57:19.834Z</time></trkpt><trkpt lat="42.2268668" lon="14.2023801"><ele>315.0</ele><time>2026-05-01T10:57:20.834Z</time></trkpt><trkpt lat="42.2268109" lon="14.2024762"><ele>315.0</ele><time>2026-05-01T10:57:21.834Z</time></trkpt><trkpt lat="42.2267473" lon="14.2025526"><ele>315.0</ele><time>2026-05-01T10:57:22.834Z</time></trkpt><trkpt lat="42.2266879" lon="14.2026133"><ele>315.0</ele><time>2026-05-01T10:57:23.834Z</time></trkpt><trkpt lat="42.2266446" lon="14.2026844"><ele>315.0</ele><time>2026-05-01T10:57:24.834Z</time></trkpt><trkpt lat="42.2266141" lon="14.2027711"><ele>315.0</ele><time>2026-05-01T10:57:25.834Z</time></trkpt><trkpt lat="42.2265822" lon="14.202845"><ele>315.0</ele><time>2026-05-01T10:57:26.834Z</time></trkpt><trkpt lat="42.2264841" lon="14.2029471"><ele>315.0</ele><time>2026-05-01T10:57:28.834Z</time></trkpt><trkpt lat="42.2264271" lon="14.203006"><ele>315.0</ele><time>2026-05-01T10:57:29.834Z</time></trkpt><trkpt lat="42.2263658" lon="14.2030691"><ele>315.0</ele><time>2026-05-01T10:57:30.833Z</time></trkpt><trkpt lat="42.2263008" lon="14.2031284"><ele>315.0</ele><time>2026-05-01T10:57:31.834Z</time></trkpt><trkpt lat="42.2262521" lon="14.2031831"><ele>315.0</ele><time>2026-05-01T10:57:32.833Z</time></trkpt><trkpt lat="42.226199" lon="14.2032989"><ele>315.0</ele><time>2026-05-01T10:57:34.834Z</time></trkpt><trkpt lat="42.2261622" lon="14.2033788"><ele>315.0</ele><time>2026-05-01T10:57:35.834Z</time></trkpt><trkpt lat="42.2260826" lon="14.2035161"><ele>315.0</ele><time>2026-05-01T10:57:37.834Z</time></trkpt><trkpt lat="42.2260398" lon="14.2035887"><ele>315.14285714285717</ele><time>2026-05-01T10:57:38.834Z</time></trkpt><trkpt lat="42.225998" lon="14.2036559"><ele>315.2857142857143</ele><time>2026-05-01T10:57:39.834Z</time></trkpt><trkpt lat="42.2259502" lon="14.2037163"><ele>315.42857142857144</ele><time>2026-05-01T10:57:40.834Z</time></trkpt><trkpt lat="42.2258949" lon="14.2037773"><ele>315.57142857142856</ele><time>2026-05-01T10:57:41.834Z</time></trkpt><trkpt lat="42.2258287" lon="14.203826"><ele>315.7142857142857</ele><time>2026-05-01T10:57:42.834Z</time></trkpt><trkpt lat="42.22576" lon="14.2038787"><ele>315.8571428571429</ele><time>2026-05-01T10:57:43.834Z</time></trkpt><trkpt lat="42.2256993" lon="14.2039211"><ele>316.0</ele><time>2026-05-01T10:57:44.834Z</time></trkpt><trkpt lat="42.2256312" lon="14.2039508"><ele>314.40000000000003</ele><time>2026-05-01T10:57:45.834Z</time></trkpt><trkpt lat="42.2255323" lon="14.2040321"><ele>312.8</ele><time>2026-05-01T10:57:47.834Z</time></trkpt><trkpt lat="42.2254403" lon="14.2041491"><ele>311.20000000000005</ele><time>2026-05-01T10:57:49.834Z</time></trkpt><trkpt lat="42.2253274" lon="14.2042314"><ele>309.6</ele><time>2026-05-01T10:57:51.834Z</time></trkpt><trkpt lat="42.2252582" lon="14.2042632"><ele>308.0</ele><time>2026-05-01T10:57:52.834Z</time></trkpt><trkpt lat="42.2251803" lon="14.2043026"><ele>308.0</ele><time>2026-05-01T10:57:53.834Z</time></trkpt><trkpt lat="42.225104" lon="14.2043323"><ele>308.0</ele><time>2026-05-01T10:57:54.834Z</time></trkpt><trkpt lat="42.2250391" lon="14.2043687"><ele>308.0</ele><time>2026-05-01T10:57:55.833Z</time></trkpt><trkpt lat="42.2249775" lon="14.2044022"><ele>308.0</ele><time>2026-05-01T10:57:56.834Z</time></trkpt><trkpt lat="42.224895" lon="14.2044728"><ele>308.0</ele><time>2026-05-01T10:57:58.834Z</time></trkpt><trkpt lat="42.2248125" lon="14.204547"><ele>308.0</ele><time>2026-05-01T10:58:01.834Z</time></trkpt><trkpt lat="42.2247302" lon="14.2046301"><ele>308.57142857142856</ele><time>2026-05-01T10:58:03.833Z</time></trkpt><trkpt lat="42.2246765" lon="14.204679"><ele>309.1428571428571</ele><time>2026-05-01T10:58:04.834Z</time></trkpt><trkpt lat="42.2246175" lon="14.2047252"><ele>309.7142857142857</ele><time>2026-05-01T10:58:05.834Z</time></trkpt><trkpt lat="42.2245606" lon="14.2047727"><ele>310.2857142857143</ele><time>2026-05-01T10:58:06.834Z</time></trkpt><trkpt lat="42.2244941" lon="14.2048126"><ele>310.85714285714283</ele><time>2026-05-01T10:58:07.833Z</time></trkpt><trkpt lat="42.2244254" lon="14.204835"><ele>311.42857142857144</ele><time>2026-05-01T10:58:08.834Z</time></trkpt><trkpt lat="42.2243593" lon="14.2048599"><ele>312.0</ele><time>2026-05-01T10:58:09.834Z</time></trkpt><trkpt lat="42.2242981" lon="14.2048974"><ele>312.0</ele><time>2026-05-01T10:58:10.834Z</time></trkpt><trkpt lat="42.2242066" lon="14.2049856"><ele>312.0</ele><time>2026-05-01T10:58:12.834Z</time></trkpt><trkpt lat="42.2241533" lon="14.2050528"><ele>312.0</ele><time>2026-05-01T10:58:14.834Z</time></trkpt><trkpt lat="42.2240441" lon="14.2051317"><ele>312.0</ele><time>2026-05-01T10:58:16.834Z</time></trkpt><trkpt lat="42.2239733" lon="14.2051709"><ele>312.0</ele><time>2026-05-01T10:58:17.834Z</time></trkpt><trkpt lat="42.223899" lon="14.2052072"><ele>313.1666666666667</ele><time>2026-05-01T10:58:18.834Z</time></trkpt><trkpt lat="42.2238315" lon="14.2052442"><ele>314.3333333333333</ele><time>2026-05-01T10:58:19.834Z</time></trkpt><trkpt lat="42.2237281" lon="14.205338"><ele>315.5</ele><time>2026-05-01T10:58:21.834Z</time></trkpt><trkpt lat="42.2236773" lon="14.2053964"><ele>316.66666666666663</ele><time>2026-05-01T10:58:22.834Z</time></trkpt><trkpt lat="42.2236167" lon="14.205441"><ele>317.8333333333333</ele><time>2026-05-01T10:58:23.834Z</time></trkpt><trkpt lat="42.2235499" lon="14.2054825"><ele>319.0</ele><time>2026-05-01T10:58:24.834Z</time></trkpt><trkpt lat="42.2234688" lon="14.2055387"><ele>319.0</ele><time>2026-05-01T10:58:25.834Z</time></trkpt><trkpt lat="42.2233812" lon="14.2056034"><ele>319.0</ele><time>2026-05-01T10:58:26.834Z</time></trkpt><trkpt lat="42.2233027" lon="14.2056678"><ele>319.0</ele><time>2026-05-01T10:58:27.834Z</time></trkpt><trkpt lat="42.2232326" lon="14.2057238"><ele>319.0</ele><time>2026-05-01T10:58:28.834Z</time></trkpt><trkpt lat="42.2231666" lon="14.2057656"><ele>319.0</ele><time>2026-05-01T10:58:29.834Z</time></trkpt><trkpt lat="42.2231022" lon="14.205823"><ele>319.0</ele><time>2026-05-01T10:58:30.834Z</time></trkpt><trkpt lat="42.2230269" lon="14.2058882"><ele>320.0</ele><time>2026-05-01T10:58:31.834Z</time></trkpt><trkpt lat="42.2229522" lon="14.2059746"><ele>321.0</ele><time>2026-05-01T10:58:32.834Z</time></trkpt><trkpt lat="42.2228799" lon="14.2060697"><ele>322.0</ele><time>2026-05-01T10:58:33.834Z</time></trkpt><trkpt lat="42.2228087" lon="14.2061512"><ele>323.0</ele><time>2026-05-01T10:58:34.834Z</time></trkpt><trkpt lat="42.2227331" lon="14.2062175"><ele>324.0</ele><time>2026-05-01T10:58:35.834Z</time></trkpt><trkpt lat="42.2226615" lon="14.2062813"><ele>324.0</ele><time>2026-05-01T10:58:36.834Z</time></trkpt><trkpt lat="42.2225964" lon="14.2063411"><ele>324.0</ele><time>2026-05-01T10:58:37.833Z</time></trkpt><trkpt lat="42.2225263" lon="14.2063895"><ele>324.0</ele><time>2026-05-01T10:58:38.833Z</time></trkpt><trkpt lat="42.2224542" lon="14.2064406"><ele>324.0</ele><time>2026-05-01T10:58:39.834Z</time></trkpt><trkpt lat="42.222385" lon="14.2064905"><ele>324.0</ele><time>2026-05-01T10:58:40.834Z</time></trkpt><trkpt lat="42.2223193" lon="14.2065397"><ele>324.0</ele><time>2026-05-01T10:58:41.834Z</time></trkpt><trkpt lat="42.222258" lon="14.2065897"><ele>323.8333333333333</ele><time>2026-05-01T10:58:42.833Z</time></trkpt><trkpt lat="42.2222038" lon="14.2066372"><ele>323.6666666666667</ele><time>2026-05-01T10:58:43.834Z</time></trkpt><trkpt lat="42.2221488" lon="14.2066836"><ele>323.5</ele><time>2026-05-01T10:58:44.834Z</time></trkpt><trkpt lat="42.2220882" lon="14.2067179"><ele>323.33333333333337</ele><time>2026-05-01T10:58:45.834Z</time></trkpt><trkpt lat="42.2220298" lon="14.2067555"><ele>323.1666666666667</ele><time>2026-05-01T10:58:46.834Z</time></trkpt><trkpt lat="42.2219317" lon="14.2068279"><ele>323.0</ele><time>2026-05-01T10:58:48.834Z</time></trkpt><trkpt lat="42.2218433" lon="14.2068951"><ele>323.0</ele><time>2026-05-01T10:58:50.834Z</time></trkpt><trkpt lat="42.221749" lon="14.2069714"><ele>323.0</ele><time>2026-05-01T10:58:52.834Z</time></trkpt><trkpt lat="42.2216506" lon="14.2070576"><ele>323.0</ele><time>2026-05-01T10:58:54.834Z</time></trkpt><trkpt lat="42.221561" lon="14.2071534"><ele>323.0</ele><time>2026-05-01T10:58:56.834Z</time></trkpt><trkpt lat="42.2214649" lon="14.2072553"><ele>324.1666666666667</ele><time>2026-05-01T10:58:58.834Z</time></trkpt><trkpt lat="42.2214108" lon="14.2073125"><ele>325.33333333333337</ele><time>2026-05-01T10:58:59.834Z</time></trkpt><trkpt lat="42.2213559" lon="14.2073669"><ele>326.5</ele><time>2026-05-01T10:59:00.834Z</time></trkpt><trkpt lat="42.2213001" lon="14.2074155"><ele>327.6666666666667</ele><time>2026-05-01T10:59:01.833Z</time></trkpt><trkpt lat="42.221202" lon="14.2075052"><ele>328.8333333333333</ele><time>2026-05-01T10:59:03.834Z</time></trkpt><trkpt lat="42.2210975" lon="14.2075909"><ele>330.0</ele><time>2026-05-01T10:59:05.834Z</time></trkpt><trkpt lat="42.2210411" lon="14.2076331"><ele>330.0</ele><time>2026-05-01T10:59:06.834Z</time></trkpt><trkpt lat="42.2209388" lon="14.2077266"><ele>330.0</ele><time>2026-05-01T10:59:08.834Z</time></trkpt><trkpt lat="42.2208817" lon="14.2077705"><ele>330.0</ele><time>2026-05-01T10:59:09.834Z</time></trkpt><trkpt lat="42.2208223" lon="14.207816"><ele>330.0</ele><time>2026-05-01T10:59:10.834Z</time></trkpt><trkpt lat="42.220762" lon="14.2078535"><ele>330.0</ele><time>2026-05-01T10:59:11.834Z</time></trkpt><trkpt lat="42.2207048" lon="14.2078942"><ele>330.0</ele><time>2026-05-01T10:59:12.834Z</time></trkpt><trkpt lat="42.2206007" lon="14.2079656"><ele>330.6</ele><time>2026-05-01T10:59:14.834Z</time></trkpt><trkpt lat="42.2205052" lon="14.208037"><ele>331.2</ele><time>2026-05-01T10:59:16.834Z</time></trkpt><trkpt lat="42.2204118" lon="14.2081122"><ele>331.79999999999995</ele><time>2026-05-01T10:59:18.834Z</time></trkpt><trkpt lat="42.2203149" lon="14.2081786"><ele>332.4</ele><time>2026-05-01T10:59:20.833Z</time></trkpt><trkpt lat="42.2202262" lon="14.2082654"><ele>333.0</ele><time>2026-05-01T10:59:22.834Z</time></trkpt><trkpt lat="42.2201343" lon="14.2083643"><ele>333.0</ele><time>2026-05-01T10:59:24.834Z</time></trkpt><trkpt lat="42.2200734" lon="14.208417"><ele>333.0</ele><time>2026-05-01T10:59:25.834Z</time></trkpt><trkpt lat="42.2200016" lon="14.2084804"><ele>333.0</ele><time>2026-05-01T10:59:26.833Z</time></trkpt><trkpt lat="42.2199202" lon="14.2085502"><ele>333.0</ele><time>2026-05-01T10:59:27.834Z</time></trkpt><trkpt lat="42.219834" lon="14.2086206"><ele>333.0</ele><time>2026-05-01T10:59:28.834Z</time></trkpt><trkpt lat="42.219747" lon="14.2086842"><ele>334.59999999999997</ele><time>2026-05-01T10:59:29.834Z</time></trkpt><trkpt lat="42.2196575" lon="14.2087505"><ele>336.2</ele><time>2026-05-01T10:59:30.834Z</time></trkpt><trkpt lat="42.219564" lon="14.2088029"><ele>337.8</ele><time>2026-05-01T10:59:31.834Z</time></trkpt><trkpt lat="42.2194703" lon="14.2088494"><ele>339.4</ele><time>2026-05-01T10:59:32.834Z</time></trkpt><trkpt lat="42.2193757" lon="14.2088906"><ele>341.0</ele><time>2026-05-01T10:59:33.834Z</time></trkpt><trkpt lat="42.2192853" lon="14.2089199"><ele>341.0</ele><time>2026-05-01T10:59:34.834Z</time></trkpt><trkpt lat="42.2191879" lon="14.2089374"><ele>341.0</ele><time>2026-05-01T10:59:35.834Z</time></trkpt><trkpt lat="42.2190904" lon="14.2089427"><ele>341.0</ele><time>2026-05-01T10:59:36.834Z</time></trkpt><trkpt lat="42.219001" lon="14.2089361"><ele>341.0</ele><time>2026-05-01T10:59:37.834Z</time></trkpt><trkpt lat="42.2189088" lon="14.2089139"><ele>341.0</ele><time>2026-05-01T10:59:38.834Z</time></trkpt><trkpt lat="42.2188132" lon="14.2088675"><ele>339.8</ele><time>2026-05-01T10:59:39.834Z</time></trkpt><trkpt lat="42.2187271" lon="14.2088203"><ele>338.6</ele><time>2026-05-01T10:59:40.834Z</time></trkpt><trkpt lat="42.2186476" lon="14.2087588"><ele>337.4</ele><time>2026-05-01T10:59:41.833Z</time></trkpt><trkpt lat="42.2185701" lon="14.2086898"><ele>336.2</ele><time>2026-05-01T10:59:42.834Z</time></trkpt><trkpt lat="42.2184858" lon="14.208632"><ele>335.0</ele><time>2026-05-01T10:59:43.834Z</time></trkpt><trkpt lat="42.218397" lon="14.2085897"><ele>335.0</ele><time>2026-05-01T10:59:44.834Z</time></trkpt><trkpt lat="42.2182987" lon="14.2085353"><ele>335.0</ele><time>2026-05-01T10:59:45.834Z</time></trkpt><trkpt lat="42.2182014" lon="14.2084739"><ele>335.0</ele><time>2026-05-01T10:59:46.834Z</time></trkpt><trkpt lat="42.2181054" lon="14.2084117"><ele>335.0</ele><time>2026-05-01T10:59:47.833Z</time></trkpt><trkpt lat="42.2179992" lon="14.2083519"><ele>335.0</ele><time>2026-05-01T10:59:48.834Z</time></trkpt><trkpt lat="42.2178963" lon="14.2083082"><ele>335.4</ele><time>2026-05-01T10:59:49.834Z</time></trkpt><trkpt lat="42.2177917" lon="14.208279"><ele>335.8</ele><time>2026-05-01T10:59:50.834Z</time></trkpt><trkpt lat="42.2176874" lon="14.2082486"><ele>336.20000000000005</ele><time>2026-05-01T10:59:51.834Z</time></trkpt><trkpt lat="42.217583" lon="14.2082099"><ele>336.6</ele><time>2026-05-01T10:59:52.833Z</time></trkpt><trkpt lat="42.2174852" lon="14.2081664"><ele>337.0</ele><time>2026-05-01T10:59:53.834Z</time></trkpt><trkpt lat="42.2174037" lon="14.2081219"><ele>338.8</ele><time>2026-05-01T10:59:54.834Z</time></trkpt><trkpt lat="42.2173285" lon="14.2080687"><ele>340.6</ele><time>2026-05-01T10:59:55.834Z</time></trkpt><trkpt lat="42.217261" lon="14.2079936"><ele>342.40000000000003</ele><time>2026-05-01T10:59:56.834Z</time></trkpt><trkpt lat="42.2171895" lon="14.2079096"><ele>344.20000000000005</ele><time>2026-05-01T10:59:57.833Z</time></trkpt><trkpt lat="42.2171165" lon="14.2078309"><ele>346.0</ele><time>2026-05-01T10:59:58.834Z</time></trkpt><trkpt lat="42.2170441" lon="14.2077474"><ele>346.0</ele><time>2026-05-01T10:59:59.834Z</time></trkpt><trkpt lat="42.2169744" lon="14.2076625"><ele>346.0</ele><time>2026-05-01T11:00:00.834Z</time></trkpt><trkpt lat="42.2169094" lon="14.2075911"><ele>346.0</ele><time>2026-05-01T11:00:01.834Z</time></trkpt><trkpt lat="42.2168427" lon="14.2075289"><ele>346.0</ele><time>2026-05-01T11:00:02.834Z</time></trkpt><trkpt lat="42.2167623" lon="14.2074651"><ele>346.0</ele><time>2026-05-01T11:00:03.834Z</time></trkpt><trkpt lat="42.2166735" lon="14.2073921"><ele>347.0</ele><time>2026-05-01T11:00:04.834Z</time></trkpt><trkpt lat="42.2165774" lon="14.2073254"><ele>348.0</ele><time>2026-05-01T11:00:05.834Z</time></trkpt><trkpt lat="42.2164864" lon="14.2072655"><ele>349.0</ele><time>2026-05-01T11:00:06.834Z</time></trkpt><trkpt lat="42.2163961" lon="14.2072157"><ele>350.0</ele><time>2026-05-01T11:00:07.834Z</time></trkpt><trkpt lat="42.2163117" lon="14.2071696"><ele>351.0</ele><time>2026-05-01T11:00:08.834Z</time></trkpt><trkpt lat="42.2162337" lon="14.2071299"><ele>351.0</ele><time>2026-05-01T11:00:09.833Z</time></trkpt><trkpt lat="42.2161547" lon="14.207094"><ele>351.0</ele><time>2026-05-01T11:00:10.834Z</time></trkpt><trkpt lat="42.216076" lon="14.207059"><ele>351.0</ele><time>2026-05-01T11:00:11.833Z</time></trkpt><trkpt lat="42.215997" lon="14.2070311"><ele>351.0</ele><time>2026-05-01T11:00:12.834Z</time></trkpt><trkpt lat="42.2159162" lon="14.2070061"><ele>351.0</ele><time>2026-05-01T11:00:13.834Z</time></trkpt><trkpt lat="42.2158417" lon="14.2069822"><ele>351.0</ele><time>2026-05-01T11:00:14.834Z</time></trkpt><trkpt lat="42.2157658" lon="14.2069599"><ele>351.0</ele><time>2026-05-01T11:00:15.834Z</time></trkpt><trkpt lat="42.2156871" lon="14.2069365"><ele>351.0</ele><time>2026-05-01T11:00:16.834Z</time></trkpt><trkpt lat="42.215604" lon="14.2069075"><ele>351.0</ele><time>2026-05-01T11:00:17.834Z</time></trkpt><trkpt lat="42.2155241" lon="14.2068769"><ele>351.0</ele><time>2026-05-01T11:00:18.834Z</time></trkpt><trkpt lat="42.2154511" lon="14.2068458"><ele>351.0</ele><time>2026-05-01T11:00:19.834Z</time></trkpt><trkpt lat="42.2153733" lon="14.2068237"><ele>351.0</ele><time>2026-05-01T11:00:20.834Z</time></trkpt><trkpt lat="42.2152916" lon="14.206799"><ele>351.6666666666667</ele><time>2026-05-01T11:00:21.834Z</time></trkpt><trkpt lat="42.215206" lon="14.2067699"><ele>352.3333333333333</ele><time>2026-05-01T11:00:22.833Z</time></trkpt><trkpt lat="42.2151187" lon="14.2067434"><ele>353.0</ele><time>2026-05-01T11:00:23.834Z</time></trkpt><trkpt lat="42.2150361" lon="14.2067248"><ele>353.66666666666663</ele><time>2026-05-01T11:00:24.833Z</time></trkpt><trkpt lat="42.2149571" lon="14.2066995"><ele>354.3333333333333</ele><time>2026-05-01T11:00:25.834Z</time></trkpt><trkpt lat="42.2148746" lon="14.2066736"><ele>355.0</ele><time>2026-05-01T11:00:26.834Z</time></trkpt><trkpt lat="42.2147877" lon="14.2066485"><ele>355.8333333333333</ele><time>2026-05-01T11:00:27.834Z</time></trkpt><trkpt lat="42.2147061" lon="14.2066357"><ele>356.66666666666663</ele><time>2026-05-01T11:00:28.834Z</time></trkpt><trkpt lat="42.2146261" lon="14.2066161"><ele>357.5</ele><time>2026-05-01T11:00:29.834Z</time></trkpt><trkpt lat="42.2145443" lon="14.2065978"><ele>358.3333333333333</ele><time>2026-05-01T11:00:30.834Z</time></trkpt><trkpt lat="42.2144608" lon="14.2065789"><ele>359.1666666666667</ele><time>2026-05-01T11:00:31.834Z</time></trkpt><trkpt lat="42.2143746" lon="14.2065521"><ele>360.0</ele><time>2026-05-01T11:00:32.834Z</time></trkpt><trkpt lat="42.2142827" lon="14.206516"><ele>361.0</ele><time>2026-05-01T11:00:33.834Z</time></trkpt><trkpt lat="42.2141866" lon="14.2064774"><ele>362.0</ele><time>2026-05-01T11:00:34.834Z</time></trkpt><trkpt lat="42.2140911" lon="14.2064558"><ele>363.0</ele><time>2026-05-01T11:00:35.833Z</time></trkpt><trkpt lat="42.2139997" lon="14.2064307"><ele>364.0</ele><time>2026-05-01T11:00:36.834Z</time></trkpt><trkpt lat="42.2139062" lon="14.2064066"><ele>365.0</ele><time>2026-05-01T11:00:37.834Z</time></trkpt><trkpt lat="42.2138203" lon="14.2063796"><ele>365.6</ele><time>2026-05-01T11:00:38.834Z</time></trkpt><trkpt lat="42.2137337" lon="14.2063485"><ele>366.2</ele><time>2026-05-01T11:00:39.834Z</time></trkpt><trkpt lat="42.2136474" lon="14.2063198"><ele>366.79999999999995</ele><time>2026-05-01T11:00:40.834Z</time></trkpt><trkpt lat="42.2135576" lon="14.2062915"><ele>367.4</ele><time>2026-05-01T11:00:41.834Z</time></trkpt><trkpt lat="42.2134651" lon="14.2062619"><ele>368.0</ele><time>2026-05-01T11:00:42.834Z</time></trkpt><trkpt lat="42.2133741" lon="14.206229"><ele>368.0</ele><time>2026-05-01T11:00:43.834Z</time></trkpt><trkpt lat="42.2132842" lon="14.2062016"><ele>368.0</ele><time>2026-05-01T11:00:44.834Z</time></trkpt><trkpt lat="42.2131911" lon="14.2061772"><ele>368.0</ele><time>2026-05-01T11:00:45.834Z</time></trkpt><trkpt lat="42.213105" lon="14.2061458"><ele>368.0</ele><time>2026-05-01T11:00:46.834Z</time></trkpt><trkpt lat="42.2130138" lon="14.2061206"><ele>368.0</ele><time>2026-05-01T11:00:47.833Z</time></trkpt><trkpt lat="42.2129265" lon="14.2060963"><ele>368.6666666666667</ele><time>2026-05-01T11:00:48.834Z</time></trkpt><trkpt lat="42.2128468" lon="14.206074"><ele>369.33333333333337</ele><time>2026-05-01T11:00:49.834Z</time></trkpt><trkpt lat="42.212776" lon="14.2060548"><ele>370.0</ele><time>2026-05-01T11:00:50.834Z</time></trkpt><trkpt lat="42.212713" lon="14.2060357"><ele>370.6666666666667</ele><time>2026-05-01T11:00:51.834Z</time></trkpt><trkpt lat="42.2126204" lon="14.2060081"><ele>371.3333333333333</ele><time>2026-05-01T11:00:53.834Z</time></trkpt><trkpt lat="42.2125538" lon="14.2059643"><ele>372.0</ele><time>2026-05-01T11:00:57.834Z</time></trkpt><trkpt lat="42.2124605" lon="14.2059708"><ele>372.0</ele><time>2026-05-01T11:01:24.834Z</time></trkpt><trkpt lat="42.2123883" lon="14.205966"><ele>372.0</ele><time>2026-05-01T11:01:25.834Z</time></trkpt><trkpt lat="42.2123014" lon="14.2059456"><ele>372.0</ele><time>2026-05-01T11:01:26.834Z</time></trkpt><trkpt lat="42.2122043" lon="14.2059176"><ele>372.0</ele><time>2026-05-01T11:01:27.833Z</time></trkpt><trkpt lat="42.2121172" lon="14.205895"><ele>372.0</ele><time>2026-05-01T11:01:28.834Z</time></trkpt><trkpt lat="42.2120316" lon="14.2058832"><ele>372.0</ele><time>2026-05-01T11:01:29.834Z</time></trkpt><trkpt lat="42.2119459" lon="14.2058709"><ele>372.8</ele><time>2026-05-01T11:01:30.834Z</time></trkpt><trkpt lat="42.2118546" lon="14.2058541"><ele>373.6</ele><time>2026-05-01T11:01:31.834Z</time></trkpt><trkpt lat="42.2117553" lon="14.2058284"><ele>374.40000000000003</ele><time>2026-05-01T11:01:32.833Z</time></trkpt><trkpt lat="42.211652" lon="14.205794"><ele>375.20000000000005</ele><time>2026-05-01T11:01:33.833Z</time></trkpt><trkpt lat="42.21155" lon="14.2057577"><ele>376.0</ele><time>2026-05-01T11:01:34.834Z</time></trkpt><trkpt lat="42.2114448" lon="14.2057282"><ele>376.8</ele><time>2026-05-01T11:01:35.834Z</time></trkpt><trkpt lat="42.2113478" lon="14.2056969"><ele>377.6</ele><time>2026-05-01T11:01:36.834Z</time></trkpt><trkpt lat="42.211259" lon="14.2056589"><ele>378.4</ele><time>2026-05-01T11:01:37.834Z</time></trkpt><trkpt lat="42.2111786" lon="14.2056281"><ele>379.2</ele><time>2026-05-01T11:01:38.834Z</time></trkpt><trkpt lat="42.211098" lon="14.2055972"><ele>380.0</ele><time>2026-05-01T11:01:39.834Z</time></trkpt><trkpt lat="42.2110049" lon="14.2055782"><ele>381.1666666666667</ele><time>2026-05-01T11:01:40.834Z</time></trkpt><trkpt lat="42.2109156" lon="14.2055586"><ele>382.33333333333337</ele><time>2026-05-01T11:01:41.834Z</time></trkpt><trkpt lat="42.210837" lon="14.2055459"><ele>383.5</ele><time>2026-05-01T11:01:42.833Z</time></trkpt><trkpt lat="42.2107619" lon="14.205529"><ele>384.6666666666667</ele><time>2026-05-01T11:01:43.834Z</time></trkpt><trkpt lat="42.210673" lon="14.2055031"><ele>385.8333333333333</ele><time>2026-05-01T11:01:44.834Z</time></trkpt><trkpt lat="42.210578" lon="14.2054741"><ele>387.0</ele><time>2026-05-01T11:01:45.834Z</time></trkpt><trkpt lat="42.2104804" lon="14.2054435"><ele>387.20000000000005</ele><time>2026-05-01T11:01:46.834Z</time></trkpt><trkpt lat="42.2103815" lon="14.2054183"><ele>387.4</ele><time>2026-05-01T11:01:47.833Z</time></trkpt><trkpt lat="42.2102786" lon="14.2053914"><ele>387.6</ele><time>2026-05-01T11:01:48.834Z</time></trkpt><trkpt lat="42.2101755" lon="14.2053628"><ele>387.79999999999995</ele><time>2026-05-01T11:01:49.834Z</time></trkpt><trkpt lat="42.2100742" lon="14.2053354"><ele>388.0</ele><time>2026-05-01T11:01:50.834Z</time></trkpt><trkpt lat="42.209989" lon="14.2053098"><ele>388.00000000000006</ele><time>2026-05-01T11:01:51.834Z</time></trkpt><trkpt lat="42.2099071" lon="14.2052907"><ele>388.0</ele><time>2026-05-01T11:01:52.834Z</time></trkpt><trkpt lat="42.2098242" lon="14.2052709"><ele>388.0</ele><time>2026-05-01T11:01:53.834Z</time></trkpt><trkpt lat="42.2097363" lon="14.2052436"><ele>388.0</ele><time>2026-05-01T11:01:54.834Z</time></trkpt><trkpt lat="42.2096429" lon="14.2052092"><ele>388.00000000000006</ele><time>2026-05-01T11:01:55.834Z</time></trkpt><trkpt lat="42.2095574" lon="14.2051813"><ele>388.0</ele><time>2026-05-01T11:01:56.834Z</time></trkpt><trkpt lat="42.2094743" lon="14.2051527"><ele>388.50000000000006</ele><time>2026-05-01T11:01:57.834Z</time></trkpt><trkpt lat="42.2093848" lon="14.2051173"><ele>389.0</ele><time>2026-05-01T11:01:58.834Z</time></trkpt><trkpt lat="42.2092907" lon="14.2050817"><ele>389.5</ele><time>2026-05-01T11:01:59.834Z</time></trkpt><trkpt lat="42.2092027" lon="14.2050525"><ele>390.0</ele><time>2026-05-01T11:02:00.834Z</time></trkpt><trkpt lat="42.2091225" lon="14.2050179"><ele>390.50000000000006</ele><time>2026-05-01T11:02:01.834Z</time></trkpt><trkpt lat="42.2090492" lon="14.2049853"><ele>391.0</ele><time>2026-05-01T11:02:02.834Z</time></trkpt><trkpt lat="42.2089726" lon="14.2049508"><ele>391.00000000000006</ele><time>2026-05-01T11:02:03.834Z</time></trkpt><trkpt lat="42.2088995" lon="14.2049213"><ele>391.0</ele><time>2026-05-01T11:02:04.834Z</time></trkpt><trkpt lat="42.2088342" lon="14.2048891"><ele>391.0</ele><time>2026-05-01T11:02:05.834Z</time></trkpt><trkpt lat="42.2087679" lon="14.2048543"><ele>391.0</ele><time>2026-05-01T11:02:06.834Z</time></trkpt><trkpt lat="42.2086935" lon="14.2048155"><ele>391.00000000000006</ele><time>2026-05-01T11:02:07.834Z</time></trkpt><trkpt lat="42.2086192" lon="14.2047774"><ele>391.0</ele><time>2026-05-01T11:02:08.834Z</time></trkpt><trkpt lat="42.2085434" lon="14.2047455"><ele>392.71428571428567</ele><time>2026-05-01T11:02:09.834Z</time></trkpt><trkpt lat="42.2084706" lon="14.2047094"><ele>394.42857142857144</ele><time>2026-05-01T11:02:10.834Z</time></trkpt><trkpt lat="42.2083963" lon="14.2046755"><ele>396.1428571428571</ele><time>2026-05-01T11:02:11.834Z</time></trkpt><trkpt lat="42.208324" lon="14.2046422"><ele>397.85714285714283</ele><time>2026-05-01T11:02:12.834Z</time></trkpt><trkpt lat="42.2082616" lon="14.2046068"><ele>399.57142857142856</ele><time>2026-05-01T11:02:13.834Z</time></trkpt><trkpt lat="42.2081983" lon="14.2045675"><ele>401.2857142857143</ele><time>2026-05-01T11:02:14.833Z</time></trkpt><trkpt lat="42.2081303" lon="14.2045223"><ele>403.0</ele><time>2026-05-01T11:02:15.833Z</time></trkpt><trkpt lat="42.2080621" lon="14.2044762"><ele>403.00000000000006</ele><time>2026-05-01T11:02:16.834Z</time></trkpt><trkpt lat="42.2079947" lon="14.2044261"><ele>403.0</ele><time>2026-05-01T11:02:17.834Z</time></trkpt><trkpt lat="42.2079253" lon="14.2043739"><ele>403.0</ele><time>2026-05-01T11:02:18.834Z</time></trkpt><trkpt lat="42.2078544" lon="14.2043289"><ele>403.0</ele><time>2026-05-01T11:02:19.834Z</time></trkpt><trkpt lat="42.2077879" lon="14.2042753"><ele>403.00000000000006</ele><time>2026-05-01T11:02:20.834Z</time></trkpt><trkpt lat="42.20772" lon="14.2042178"><ele>403.0</ele><time>2026-05-01T11:02:21.834Z</time></trkpt><trkpt lat="42.2076438" lon="14.2041515"><ele>403.0</ele><time>2026-05-01T11:02:22.834Z</time></trkpt><trkpt lat="42.207565" lon="14.2040892"><ele>403.0</ele><time>2026-05-01T11:02:23.833Z</time></trkpt><trkpt lat="42.2074764" lon="14.2040215"><ele>403.0</ele><time>2026-05-01T11:02:24.834Z</time></trkpt><trkpt lat="42.207383" lon="14.2039555"><ele>403.0</ele><time>2026-05-01T11:02:25.834Z</time></trkpt><trkpt lat="42.2072913" lon="14.2038932"><ele>403.0</ele><time>2026-05-01T11:02:26.833Z</time></trkpt><trkpt lat="42.2072097" lon="14.2038266"><ele>404.4</ele><time>2026-05-01T11:02:27.834Z</time></trkpt><trkpt lat="42.2071277" lon="14.203767"><ele>405.79999999999995</ele><time>2026-05-01T11:02:28.833Z</time></trkpt><trkpt lat="42.2070459" lon="14.2037128"><ele>407.2</ele><time>2026-05-01T11:02:29.834Z</time></trkpt><trkpt lat="42.2069667" lon="14.2036603"><ele>408.6</ele><time>2026-05-01T11:02:30.834Z</time></trkpt><trkpt lat="42.2068796" lon="14.2036015"><ele>410.0</ele><time>2026-05-01T11:02:31.834Z</time></trkpt><trkpt lat="42.2067959" lon="14.2035426"><ele>410.0</ele><time>2026-05-01T11:02:32.834Z</time></trkpt><trkpt lat="42.2067076" lon="14.2034815"><ele>410.0</ele><time>2026-05-01T11:02:33.833Z</time></trkpt><trkpt lat="42.2066229" lon="14.2034224"><ele>410.0</ele><time>2026-05-01T11:02:34.834Z</time></trkpt><trkpt lat="42.2065404" lon="14.2033681"><ele>410.0</ele><time>2026-05-01T11:02:35.834Z</time></trkpt><trkpt lat="42.2064612" lon="14.2033186"><ele>410.0</ele><time>2026-05-01T11:02:36.834Z</time></trkpt><trkpt lat="42.2063828" lon="14.2032664"><ele>409.66666666666663</ele><time>2026-05-01T11:02:37.834Z</time></trkpt><trkpt lat="42.2063088" lon="14.2032133"><ele>409.3333333333333</ele><time>2026-05-01T11:02:38.834Z</time></trkpt><trkpt lat="42.2062382" lon="14.2031488"><ele>409.0</ele><time>2026-05-01T11:02:39.834Z</time></trkpt><trkpt lat="42.2061579" lon="14.2030704"><ele>408.66666666666663</ele><time>2026-05-01T11:02:40.834Z</time></trkpt><trkpt lat="42.2060715" lon="14.2029991"><ele>408.3333333333333</ele><time>2026-05-01T11:02:41.834Z</time></trkpt><trkpt lat="42.2059981" lon="14.2029602"><ele>408.0</ele><time>2026-05-01T11:02:42.834Z</time></trkpt><trkpt lat="42.2059157" lon="14.2029341"><ele>409.5</ele><time>2026-05-01T11:02:44.833Z</time></trkpt><trkpt lat="42.2058361" lon="14.202902"><ele>411.0</ele><time>2026-05-01T11:03:06.834Z</time></trkpt><trkpt lat="42.2057689" lon="14.2028669"><ele>412.5</ele><time>2026-05-01T11:03:07.834Z</time></trkpt><trkpt lat="42.2056852" lon="14.2028152"><ele>414.0</ele><time>2026-05-01T11:03:08.833Z</time></trkpt><trkpt lat="42.2055969" lon="14.2027603"><ele>415.5</ele><time>2026-05-01T11:03:09.834Z</time></trkpt><trkpt lat="42.2055118" lon="14.2027023"><ele>417.0</ele><time>2026-05-01T11:03:10.834Z</time></trkpt><trkpt lat="42.205418" lon="14.2026431"><ele>417.0</ele><time>2026-05-01T11:03:11.834Z</time></trkpt><trkpt lat="42.2053208" lon="14.2025715"><ele>417.0</ele><time>2026-05-01T11:03:12.833Z</time></trkpt><trkpt lat="42.2052263" lon="14.2025049"><ele>417.0</ele><time>2026-05-01T11:03:13.834Z</time></trkpt><trkpt lat="42.2051316" lon="14.2024437"><ele>417.0</ele><time>2026-05-01T11:03:14.834Z</time></trkpt><trkpt lat="42.2050442" lon="14.2023862"><ele>417.0</ele><time>2026-05-01T11:03:15.834Z</time></trkpt><trkpt lat="42.2049571" lon="14.2023333"><ele>419.40000000000003</ele><time>2026-05-01T11:03:16.833Z</time></trkpt><trkpt lat="42.2048717" lon="14.2022823"><ele>421.8</ele><time>2026-05-01T11:03:17.834Z</time></trkpt><trkpt lat="42.2047888" lon="14.2022301"><ele>424.2</ele><time>2026-05-01T11:03:18.833Z</time></trkpt><trkpt lat="42.2047049" lon="14.2021835"><ele>426.6</ele><time>2026-05-01T11:03:19.834Z</time></trkpt><trkpt lat="42.2046158" lon="14.2021442"><ele>429.0</ele><time>2026-05-01T11:03:20.834Z</time></trkpt><trkpt lat="42.2045311" lon="14.2020983"><ele>429.0</ele><time>2026-05-01T11:03:21.833Z</time></trkpt><trkpt lat="42.2044478" lon="14.2020443"><ele>429.0</ele><time>2026-05-01T11:03:22.834Z</time></trkpt><trkpt lat="42.2043614" lon="14.2019865"><ele>429.0</ele><time>2026-05-01T11:03:23.833Z</time></trkpt><trkpt lat="42.2042713" lon="14.2019344"><ele>429.0</ele><time>2026-05-01T11:03:24.834Z</time></trkpt><trkpt lat="42.2041762" lon="14.2018808"><ele>429.0</ele><time>2026-05-01T11:03:25.833Z</time></trkpt><trkpt lat="42.2040794" lon="14.2018333"><ele>427.79999999999995</ele><time>2026-05-01T11:03:26.834Z</time></trkpt><trkpt lat="42.2039783" lon="14.2017876"><ele>426.59999999999997</ele><time>2026-05-01T11:03:27.834Z</time></trkpt><trkpt lat="42.2038863" lon="14.2017455"><ele>425.4</ele><time>2026-05-01T11:03:28.834Z</time></trkpt><trkpt lat="42.2037919" lon="14.2017041"><ele>424.2</ele><time>2026-05-01T11:03:29.834Z</time></trkpt><trkpt lat="42.2036967" lon="14.2016686"><ele>423.0</ele><time>2026-05-01T11:03:30.834Z</time></trkpt><trkpt lat="42.2035982" lon="14.201635"><ele>423.0</ele><time>2026-05-01T11:03:31.834Z</time></trkpt><trkpt lat="42.2034925" lon="14.2016051"><ele>423.0</ele><time>2026-05-01T11:03:32.834Z</time></trkpt><trkpt lat="42.203383" lon="14.2015837"><ele>423.0</ele><time>2026-05-01T11:03:33.834Z</time></trkpt><trkpt lat="42.2032851" lon="14.2015764"><ele>423.0</ele><time>2026-05-01T11:03:34.834Z</time></trkpt><trkpt lat="42.2032011" lon="14.2015569"><ele>423.0</ele><time>2026-05-01T11:03:35.834Z</time></trkpt><trkpt lat="42.2031195" lon="14.2015191"><ele>423.59999999999997</ele><time>2026-05-01T11:03:36.834Z</time></trkpt><trkpt lat="42.2030332" lon="14.2014743"><ele>424.2</ele><time>2026-05-01T11:03:37.834Z</time></trkpt><trkpt lat="42.2029463" lon="14.2014274"><ele>424.8</ele><time>2026-05-01T11:03:38.833Z</time></trkpt><trkpt lat="42.2028595" lon="14.201372"><ele>425.4</ele><time>2026-05-01T11:03:39.834Z</time></trkpt><trkpt lat="42.202776" lon="14.2013252"><ele>426.0</ele><time>2026-05-01T11:03:40.834Z</time></trkpt><trkpt lat="42.2026953" lon="14.2012917"><ele>426.0</ele><time>2026-05-01T11:03:41.834Z</time></trkpt><trkpt lat="42.202622" lon="14.2012632"><ele>426.0</ele><time>2026-05-01T11:03:42.834Z</time></trkpt><trkpt lat="42.20252" lon="14.2012331"><ele>426.0</ele><time>2026-05-01T11:03:44.834Z</time></trkpt><trkpt lat="42.2024366" lon="14.2012225"><ele>426.0</ele><time>2026-05-01T11:03:47.834Z</time></trkpt><trkpt lat="42.2023697" lon="14.2012048"><ele>426.0</ele><time>2026-05-01T11:03:49.834Z</time></trkpt><trkpt lat="42.2022876" lon="14.2011772"><ele>426.0</ele><time>2026-05-01T11:03:51.834Z</time></trkpt><trkpt lat="42.2022075" lon="14.2011756"><ele>426.8333333333333</ele><time>2026-05-01T11:03:53.834Z</time></trkpt><trkpt lat="42.2021298" lon="14.2011417"><ele>427.66666666666663</ele><time>2026-05-01T11:03:56.834Z</time></trkpt><trkpt lat="42.2020789" lon="14.2010731"><ele>428.5</ele><time>2026-05-01T11:03:58.834Z</time></trkpt><trkpt lat="42.2020101" lon="14.201012"><ele>429.3333333333333</ele><time>2026-05-01T11:04:00.834Z</time></trkpt><trkpt lat="42.2019384" lon="14.200968"><ele>430.16666666666663</ele><time>2026-05-01T11:04:03.834Z</time></trkpt><trkpt lat="42.2018764" lon="14.2009402"><ele>431.0</ele><time>2026-05-01T11:04:05.834Z</time></trkpt><trkpt lat="42.2018064" lon="14.2009211"><ele>430.99999999999994</ele><time>2026-05-01T11:04:08.834Z</time></trkpt><trkpt lat="42.2017474" lon="14.200888"><ele>431.0</ele><time>2026-05-01T11:04:11.834Z</time></trkpt><trkpt lat="42.2016771" lon="14.200877"><ele>431.0</ele><time>2026-05-01T11:04:13.834Z</time></trkpt><trkpt lat="42.2016069" lon="14.2008766"><ele>431.0</ele><time>2026-05-01T11:04:15.834Z</time></trkpt><trkpt lat="42.2015391" lon="14.200883"><ele>430.99999999999994</ele><time>2026-05-01T11:04:17.834Z</time></trkpt><trkpt lat="42.2014138" lon="14.200859"><ele>431.0</ele><time>2026-05-01T11:19:15.835Z</time></trkpt><trkpt lat="42.2013221" lon="14.2008308"><ele>432.3333333333333</ele><time>2026-05-01T11:19:16.836Z</time></trkpt><trkpt lat="42.2012555" lon="14.2008061"><ele>433.66666666666663</ele><time>2026-05-01T11:19:17.835Z</time></trkpt><trkpt lat="42.2011594" lon="14.2007597"><ele>435.0</ele><time>2026-05-01T11:19:19.836Z</time></trkpt><trkpt lat="42.2010899" lon="14.2007136"><ele>436.33333333333337</ele><time>2026-05-01T11:19:21.835Z</time></trkpt><trkpt lat="42.2010048" lon="14.200681"><ele>437.6666666666667</ele><time>2026-05-01T11:19:23.835Z</time></trkpt><trkpt lat="42.2008991" lon="14.2006459"><ele>439.0</ele><time>2026-05-01T11:19:25.836Z</time></trkpt><trkpt lat="42.2007993" lon="14.2006111"><ele>440.0</ele><time>2026-05-01T11:19:27.836Z</time></trkpt><trkpt lat="42.2007032" lon="14.2005403"><ele>441.0</ele><time>2026-05-01T11:19:29.835Z</time></trkpt><trkpt lat="42.2006047" lon="14.200472"><ele>442.0</ele><time>2026-05-01T11:19:31.836Z</time></trkpt><trkpt lat="42.2005008" lon="14.2004644"><ele>443.0</ele><time>2026-05-01T11:19:33.836Z</time></trkpt><trkpt lat="42.2003882" lon="14.2004862"><ele>444.0</ele><time>2026-05-01T11:19:35.836Z</time></trkpt><trkpt lat="42.2003248" lon="14.2004851"><ele>445.3333333333333</ele><time>2026-05-01T11:19:36.836Z</time></trkpt><trkpt lat="42.2002564" lon="14.2004795"><ele>446.66666666666663</ele><time>2026-05-01T11:19:37.836Z</time></trkpt><trkpt lat="42.2001856" lon="14.200457"><ele>448.0</ele><time>2026-05-01T11:19:38.836Z</time></trkpt><trkpt lat="42.2001227" lon="14.2004235"><ele>449.3333333333333</ele><time>2026-05-01T11:19:39.836Z</time></trkpt><trkpt lat="42.2000119" lon="14.2003409"><ele>450.66666666666663</ele><time>2026-05-01T11:19:41.835Z</time></trkpt><trkpt lat="42.1999574" lon="14.2002798"><ele>452.0</ele><time>2026-05-01T11:19:42.836Z</time></trkpt><trkpt lat="42.1998965" lon="14.2002339"><ele>453.14285714285717</ele><time>2026-05-01T11:19:43.836Z</time></trkpt><trkpt lat="42.1998258" lon="14.2001924"><ele>454.2857142857142</ele><time>2026-05-01T11:19:44.836Z</time></trkpt><trkpt lat="42.1997533" lon="14.2001615"><ele>455.4285714285714</ele><time>2026-05-01T11:19:45.836Z</time></trkpt><trkpt lat="42.1996843" lon="14.2001334"><ele>456.57142857142856</ele><time>2026-05-01T11:19:46.836Z</time></trkpt><trkpt lat="42.1996211" lon="14.2000946"><ele>457.71428571428567</ele><time>2026-05-01T11:19:47.836Z</time></trkpt><trkpt lat="42.1995631" lon="14.2000416"><ele>458.8571428571428</ele><time>2026-05-01T11:19:48.836Z</time></trkpt><trkpt lat="42.1994945" lon="14.2000054"><ele>459.99999999999994</ele><time>2026-05-01T11:19:49.836Z</time></trkpt><trkpt lat="42.1994175" lon="14.1999894"><ele>460.00000000000006</ele><time>2026-05-01T11:19:50.836Z</time></trkpt><trkpt lat="42.199333" lon="14.1999974"><ele>460.0</ele><time>2026-05-01T11:19:51.836Z</time></trkpt><trkpt lat="42.1992391" lon="14.1999943"><ele>460.0</ele><time>2026-05-01T11:19:52.836Z</time></trkpt><trkpt lat="42.1991517" lon="14.1999876"><ele>460.0</ele><time>2026-05-01T11:19:53.836Z</time></trkpt><trkpt lat="42.1990651" lon="14.199981"><ele>460.00000000000006</ele><time>2026-05-01T11:19:54.836Z</time></trkpt><trkpt lat="42.1989825" lon="14.1999796"><ele>460.0</ele><time>2026-05-01T11:19:55.836Z</time></trkpt><trkpt lat="42.1988942" lon="14.1999803"><ele>461.6</ele><time>2026-05-01T11:19:56.836Z</time></trkpt><trkpt lat="42.1988032" lon="14.1999795"><ele>463.2</ele><time>2026-05-01T11:19:57.836Z</time></trkpt><trkpt lat="42.1987072" lon="14.1999829"><ele>464.79999999999995</ele><time>2026-05-01T11:19:58.836Z</time></trkpt><trkpt lat="42.19861" lon="14.1999859"><ele>466.4</ele><time>2026-05-01T11:19:59.836Z</time></trkpt><trkpt lat="42.198507" lon="14.1999942"><ele>468.0</ele><time>2026-05-01T11:20:00.836Z</time></trkpt><trkpt lat="42.1984013" lon="14.2000253"><ele>468.0</ele><time>2026-05-01T11:20:01.836Z</time></trkpt><trkpt lat="42.1982909" lon="14.2000591"><ele>467.99999999999994</ele><time>2026-05-01T11:20:02.836Z</time></trkpt><trkpt lat="42.198199" lon="14.2000827"><ele>467.99999999999994</ele><time>2026-05-01T11:20:03.836Z</time></trkpt><trkpt lat="42.1981033" lon="14.2000941"><ele>468.0</ele><time>2026-05-01T11:20:04.836Z</time></trkpt><trkpt lat="42.1980059" lon="14.2000804"><ele>468.0</ele><time>2026-05-01T11:20:05.836Z</time></trkpt><trkpt lat="42.1979072" lon="14.2000514"><ele>469.0</ele><time>2026-05-01T11:20:06.835Z</time></trkpt><trkpt lat="42.1977993" lon="14.200029"><ele>469.99999999999994</ele><time>2026-05-01T11:20:07.835Z</time></trkpt><trkpt lat="42.1977011" lon="14.2000231"><ele>470.99999999999994</ele><time>2026-05-01T11:20:08.836Z</time></trkpt><trkpt lat="42.1976208" lon="14.2000245"><ele>472.0</ele><time>2026-05-01T11:20:09.836Z</time></trkpt><trkpt lat="42.197525" lon="14.2000433"><ele>473.0</ele><time>2026-05-01T11:20:11.836Z</time></trkpt><trkpt lat="42.1974531" lon="14.1999972"><ele>472.99999999999994</ele><time>2026-05-01T11:20:14.836Z</time></trkpt><trkpt lat="42.1974226" lon="14.1998757"><ele>473.0</ele><time>2026-05-01T11:20:16.836Z</time></trkpt><trkpt lat="42.1974015" lon="14.19979"><ele>473.0</ele><time>2026-05-01T11:20:17.836Z</time></trkpt><trkpt lat="42.1973881" lon="14.1997046"><ele>473.0</ele><time>2026-05-01T11:20:18.836Z</time></trkpt><trkpt lat="42.1973908" lon="14.1996145"><ele>472.99999999999994</ele><time>2026-05-01T11:20:19.836Z</time></trkpt><trkpt lat="42.1974148" lon="14.1995155"><ele>473.0</ele><time>2026-05-01T11:20:20.836Z</time></trkpt><trkpt lat="42.1974404" lon="14.1994061"><ele>473.99999999999994</ele><time>2026-05-01T11:20:21.836Z</time></trkpt><trkpt lat="42.1974629" lon="14.199294"><ele>475.0</ele><time>2026-05-01T11:20:22.835Z</time></trkpt><trkpt lat="42.1974731" lon="14.1992031"><ele>476.0</ele><time>2026-05-01T11:20:23.836Z</time></trkpt><trkpt lat="42.1974603" lon="14.1990968"><ele>477.0</ele><time>2026-05-01T11:20:25.836Z</time></trkpt><trkpt lat="42.1973904" lon="14.1989726"><ele>477.99999999999994</ele><time>2026-05-01T11:20:27.836Z</time></trkpt><trkpt lat="42.1973481" lon="14.1988906"><ele>479.0</ele><time>2026-05-01T11:20:28.835Z</time></trkpt><trkpt lat="42.1972912" lon="14.1988063"><ele>479.3333333333333</ele><time>2026-05-01T11:20:29.836Z</time></trkpt><trkpt lat="42.1972319" lon="14.1987319"><ele>479.66666666666663</ele><time>2026-05-01T11:20:30.836Z</time></trkpt><trkpt lat="42.1971709" lon="14.1986779"><ele>480.0</ele><time>2026-05-01T11:20:31.836Z</time></trkpt><trkpt lat="42.1971261" lon="14.1985572"><ele>480.33333333333337</ele><time>2026-05-01T11:20:33.836Z</time></trkpt><trkpt lat="42.1971627" lon="14.198458"><ele>480.6666666666667</ele><time>2026-05-01T11:20:35.836Z</time></trkpt><trkpt lat="42.1972494" lon="14.1984584"><ele>481.0</ele><time>2026-05-01T11:20:37.835Z</time></trkpt><trkpt lat="42.197348" lon="14.1984404"><ele>481.00000000000006</ele><time>2026-05-01T11:20:39.836Z</time></trkpt><trkpt lat="42.1974155" lon="14.1983432"><ele>481.0</ele><time>2026-05-01T11:20:41.836Z</time></trkpt><trkpt lat="42.1974857" lon="14.198227"><ele>481.0</ele><time>2026-05-01T11:20:43.836Z</time></trkpt><trkpt lat="42.1975301" lon="14.1981534"><ele>481.0</ele><time>2026-05-01T11:20:44.836Z</time></trkpt><trkpt lat="42.1975741" lon="14.1980765"><ele>481.00000000000006</ele><time>2026-05-01T11:20:45.835Z</time></trkpt><trkpt lat="42.1976092" lon="14.1979913"><ele>481.0</ele><time>2026-05-01T11:20:46.836Z</time></trkpt><trkpt lat="42.197653" lon="14.1979049"><ele>481.33333333333337</ele><time>2026-05-01T11:20:47.836Z</time></trkpt><trkpt lat="42.197718" lon="14.1977956"><ele>481.6666666666667</ele><time>2026-05-01T11:20:49.836Z</time></trkpt><trkpt lat="42.1976929" lon="14.1977024"><ele>482.0</ele><time>2026-05-01T11:20:52.836Z</time></trkpt><trkpt lat="42.1976111" lon="14.1976244"><ele>482.33333333333337</ele><time>2026-05-01T11:20:54.835Z</time></trkpt><trkpt lat="42.1975633" lon="14.197533"><ele>482.6666666666667</ele><time>2026-05-01T11:20:59.836Z</time></trkpt><trkpt lat="42.1975102" lon="14.1974775"><ele>483.0</ele><time>2026-05-01T11:21:00.836Z</time></trkpt><trkpt lat="42.197441" lon="14.1974155"><ele>483.0</ele><time>2026-05-01T11:21:01.836Z</time></trkpt><trkpt lat="42.1973572" lon="14.1973662"><ele>483.0</ele><time>2026-05-01T11:21:02.836Z</time></trkpt><trkpt lat="42.197285" lon="14.1973018"><ele>483.0</ele><time>2026-05-01T11:21:03.836Z</time></trkpt><trkpt lat="42.197226" lon="14.1972243"><ele>483.0</ele><time>2026-05-01T11:21:04.836Z</time></trkpt><trkpt lat="42.1971633" lon="14.1971475"><ele>483.0</ele><time>2026-05-01T11:21:05.836Z</time></trkpt><trkpt lat="42.197085" lon="14.1970969"><ele>483.0</ele><time>2026-05-01T11:21:06.835Z</time></trkpt><trkpt lat="42.1970124" lon="14.197059"><ele>485.0</ele><time>2026-05-01T11:21:07.836Z</time></trkpt><trkpt lat="42.1969504" lon="14.1969128"><ele>486.99999999999994</ele><time>2026-05-01T11:21:09.836Z</time></trkpt><trkpt lat="42.1969457" lon="14.1968124"><ele>488.99999999999994</ele><time>2026-05-01T11:21:10.836Z</time></trkpt><trkpt lat="42.1969338" lon="14.196723"><ele>491.0</ele><time>2026-05-01T11:21:11.836Z</time></trkpt><trkpt lat="42.1968571" lon="14.1965688"><ele>493.0</ele><time>2026-05-01T11:21:13.836Z</time></trkpt><trkpt lat="42.1967947" lon="14.1964756"><ele>493.33333333333337</ele><time>2026-05-01T11:21:14.836Z</time></trkpt><trkpt lat="42.1967387" lon="14.1963862"><ele>493.6666666666667</ele><time>2026-05-01T11:21:15.836Z</time></trkpt><trkpt lat="42.1967001" lon="14.1962971"><ele>494.0</ele><time>2026-05-01T11:21:16.835Z</time></trkpt><trkpt lat="42.1966845" lon="14.1962028"><ele>494.33333333333337</ele><time>2026-05-01T11:21:17.836Z</time></trkpt><trkpt lat="42.1966775" lon="14.196111"><ele>494.6666666666667</ele><time>2026-05-01T11:21:18.835Z</time></trkpt><trkpt lat="42.1965887" lon="14.1959861"><ele>495.0</ele><time>2026-05-01T11:21:20.836Z</time></trkpt><trkpt lat="42.1965197" lon="14.1959305"><ele>496.0</ele><time>2026-05-01T11:21:21.836Z</time></trkpt><trkpt lat="42.1964542" lon="14.1958558"><ele>497.0</ele><time>2026-05-01T11:21:22.836Z</time></trkpt><trkpt lat="42.1964085" lon="14.1957784"><ele>498.0</ele><time>2026-05-01T11:21:23.836Z</time></trkpt><trkpt lat="42.1963607" lon="14.1957092"><ele>499.0</ele><time>2026-05-01T11:21:24.836Z</time></trkpt><trkpt lat="42.1962664" lon="14.1955846"><ele>500.0</ele><time>2026-05-01T11:21:26.835Z</time></trkpt><trkpt lat="42.196214" lon="14.1955211"><ele>501.0</ele><time>2026-05-01T11:21:27.836Z</time></trkpt><trkpt lat="42.1961653" lon="14.1954612"><ele>501.0</ele><time>2026-05-01T11:21:28.836Z</time></trkpt><trkpt lat="42.1960607" lon="14.1953601"><ele>501.0</ele><time>2026-05-01T11:21:30.836Z</time></trkpt><trkpt lat="42.195997" lon="14.1952974"><ele>501.0</ele><time>2026-05-01T11:21:31.836Z</time></trkpt><trkpt lat="42.1959359" lon="14.1952502"><ele>501.0</ele><time>2026-05-01T11:21:32.836Z</time></trkpt><trkpt lat="42.1958759" lon="14.1952066"><ele>501.0</ele><time>2026-05-01T11:21:33.836Z</time></trkpt><trkpt lat="42.1958223" lon="14.1951615"><ele>501.0</ele><time>2026-05-01T11:21:34.835Z</time></trkpt><trkpt lat="42.1957417" lon="14.1950678"><ele>502.6</ele><time>2026-05-01T11:21:36.836Z</time></trkpt><trkpt lat="42.1956429" lon="14.1950316"><ele>504.20000000000005</ele><time>2026-05-01T11:21:38.836Z</time></trkpt><trkpt lat="42.1955671" lon="14.1949436"><ele>505.79999999999995</ele><time>2026-05-01T11:21:40.836Z</time></trkpt><trkpt lat="42.1954962" lon="14.1948119"><ele>507.4</ele><time>2026-05-01T11:21:42.835Z</time></trkpt><trkpt lat="42.1954489" lon="14.1947508"><ele>509.0</ele><time>2026-05-01T11:21:43.836Z</time></trkpt><trkpt lat="42.1953628" lon="14.1946544"><ele>509.6</ele><time>2026-05-01T11:21:45.836Z</time></trkpt><trkpt lat="42.1953166" lon="14.1945516"><ele>510.2</ele><time>2026-05-01T11:21:47.836Z</time></trkpt><trkpt lat="42.1953036" lon="14.1944343"><ele>510.80000000000007</ele><time>2026-05-01T11:21:49.836Z</time></trkpt><trkpt lat="42.1952329" lon="14.1943182"><ele>511.40000000000003</ele><time>2026-05-01T11:21:51.835Z</time></trkpt><trkpt lat="42.1951782" lon="14.1942695"><ele>512.0</ele><time>2026-05-01T11:21:52.836Z</time></trkpt><trkpt lat="42.1950846" lon="14.1942125"><ele>512.0</ele><time>2026-05-01T11:21:54.836Z</time></trkpt><trkpt lat="42.1949957" lon="14.1942184"><ele>512.0</ele><time>2026-05-01T11:21:56.836Z</time></trkpt><trkpt lat="42.1949043" lon="14.1942184"><ele>512.0</ele><time>2026-05-01T11:21:58.835Z</time></trkpt><trkpt lat="42.1948223" lon="14.1941521"><ele>512.0</ele><time>2026-05-01T11:22:00.835Z</time></trkpt><trkpt lat="42.1947457" lon="14.1940861"><ele>512.0</ele><time>2026-05-01T11:22:02.835Z</time></trkpt><trkpt lat="42.1946999" lon="14.193965"><ele>513.3333333333333</ele><time>2026-05-01T11:22:04.836Z</time></trkpt><trkpt lat="42.194723" lon="14.1938035"><ele>514.6666666666666</ele><time>2026-05-01T11:22:06.836Z</time></trkpt><trkpt lat="42.1947523" lon="14.1937205"><ele>516.0</ele><time>2026-05-01T11:22:07.835Z</time></trkpt><trkpt lat="42.194784" lon="14.193636"><ele>517.3333333333334</ele><time>2026-05-01T11:22:08.836Z</time></trkpt><trkpt lat="42.1948257" lon="14.1935089"><ele>518.6666666666667</ele><time>2026-05-01T11:22:10.835Z</time></trkpt><trkpt lat="42.1948367" lon="14.1934098"><ele>520.0</ele><time>2026-05-01T11:22:12.836Z</time></trkpt><trkpt lat="42.1948153" lon="14.1932777"><ele>521.2</ele><time>2026-05-01T11:22:14.836Z</time></trkpt><trkpt lat="42.1947752" lon="14.1931325"><ele>522.4</ele><time>2026-05-01T11:22:16.836Z</time></trkpt><trkpt lat="42.1947428" lon="14.193022"><ele>523.6</ele><time>2026-05-01T11:22:18.836Z</time></trkpt><trkpt lat="42.1947078" lon="14.1929037"><ele>524.8</ele><time>2026-05-01T11:22:20.836Z</time></trkpt><trkpt lat="42.194689" lon="14.1927609"><ele>526.0</ele><time>2026-05-01T11:22:22.836Z</time></trkpt><trkpt lat="42.1946738" lon="14.192615"><ele>526.0</ele><time>2026-05-01T11:22:24.836Z</time></trkpt><trkpt lat="42.1946235" lon="14.1924797"><ele>526.0</ele><time>2026-05-01T11:22:26.836Z</time></trkpt><trkpt lat="42.1945455" lon="14.1923826"><ele>526.0</ele><time>2026-05-01T11:22:28.836Z</time></trkpt><trkpt lat="42.1944403" lon="14.1922809"><ele>526.0</ele><time>2026-05-01T11:22:30.836Z</time></trkpt><trkpt lat="42.1943338" lon="14.1922126"><ele>526.6666666666667</ele><time>2026-05-01T11:22:32.836Z</time></trkpt><trkpt lat="42.194228" lon="14.1921796"><ele>527.3333333333334</ele><time>2026-05-01T11:22:34.836Z</time></trkpt><trkpt lat="42.1941453" lon="14.1921793"><ele>528.0</ele><time>2026-05-01T11:22:36.836Z</time></trkpt><trkpt lat="42.1940815" lon="14.1921369"><ele>528.6666666666666</ele><time>2026-05-01T11:22:38.836Z</time></trkpt><trkpt lat="42.1940264" lon="14.1920288"><ele>529.3333333333333</ele><time>2026-05-01T11:22:40.836Z</time></trkpt><trkpt lat="42.1939475" lon="14.191979"><ele>530.0</ele><time>2026-05-01T11:22:43.836Z</time></trkpt><trkpt lat="42.1938783" lon="14.1919742"><ele>530.0</ele><time>2026-05-01T11:22:45.836Z</time></trkpt><trkpt lat="42.1937979" lon="14.1919835"><ele>530.0</ele><time>2026-05-01T11:22:47.836Z</time></trkpt><trkpt lat="42.1937168" lon="14.1920209"><ele>530.0</ele><time>2026-05-01T11:22:49.836Z</time></trkpt><trkpt lat="42.1936315" lon="14.1920253"><ele>530.0</ele><time>2026-05-01T11:22:51.836Z</time></trkpt><trkpt lat="42.1935641" lon="14.1919325"><ele>530.0</ele><time>2026-05-01T11:22:54.836Z</time></trkpt><trkpt lat="42.1935228" lon="14.191802"><ele>530.0</ele><time>2026-05-01T11:22:56.835Z</time></trkpt><trkpt lat="42.1934632" lon="14.1916957"><ele>530.0</ele><time>2026-05-01T11:22:58.836Z</time></trkpt><trkpt lat="42.1934057" lon="14.1915702"><ele>530.0</ele><time>2026-05-01T11:23:00.835Z</time></trkpt><trkpt lat="42.1933332" lon="14.1914428"><ele>530.0</ele><time>2026-05-01T11:23:02.835Z</time></trkpt><trkpt lat="42.1932847" lon="14.1913671"><ele>530.0</ele><time>2026-05-01T11:23:03.836Z</time></trkpt><trkpt lat="42.1932236" lon="14.1913174"><ele>531.0</ele><time>2026-05-01T11:23:04.836Z</time></trkpt><trkpt lat="42.1931614" lon="14.1912708"><ele>532.0</ele><time>2026-05-01T11:23:05.836Z</time></trkpt><trkpt lat="42.1930923" lon="14.1912256"><ele>533.0</ele><time>2026-05-01T11:23:06.835Z</time></trkpt><trkpt lat="42.1930206" lon="14.1912025"><ele>534.0</ele><time>2026-05-01T11:23:07.836Z</time></trkpt><trkpt lat="42.1929589" lon="14.1911724"><ele>535.0</ele><time>2026-05-01T11:23:08.836Z</time></trkpt><trkpt lat="42.1928586" lon="14.1911345"><ele>536.0</ele><time>2026-05-01T11:23:10.835Z</time></trkpt><trkpt lat="42.1927446" lon="14.1910939"><ele>536.0</ele><time>2026-05-01T11:23:12.835Z</time></trkpt><trkpt lat="42.1926803" lon="14.1910698"><ele>536.0</ele><time>2026-05-01T11:23:13.836Z</time></trkpt><trkpt lat="42.1926123" lon="14.1910353"><ele>536.0</ele><time>2026-05-01T11:23:14.835Z</time></trkpt><trkpt lat="42.1925457" lon="14.1910035"><ele>536.0</ele><time>2026-05-01T11:23:15.836Z</time></trkpt><trkpt lat="42.1924447" lon="14.1909617"><ele>536.0</ele><time>2026-05-01T11:23:17.835Z</time></trkpt><trkpt lat="42.1923804" lon="14.1909156"><ele>536.0</ele><time>2026-05-01T11:23:32.835Z</time></trkpt><trkpt lat="42.1923077" lon="14.1908747"><ele>537.8</ele><time>2026-05-01T11:23:35.836Z</time></trkpt><trkpt lat="42.1921988" lon="14.1908511"><ele>539.6</ele><time>2026-05-01T11:23:37.835Z</time></trkpt><trkpt lat="42.1920759" lon="14.1908347"><ele>541.4</ele><time>2026-05-01T11:23:39.835Z</time></trkpt><trkpt lat="42.1920002" lon="14.1908253"><ele>543.2</ele><time>2026-05-01T11:23:40.836Z</time></trkpt><trkpt lat="42.191932" lon="14.1908212"><ele>545.0</ele><time>2026-05-01T11:23:41.836Z</time></trkpt><trkpt lat="42.1918258" lon="14.190829"><ele>545.0</ele><time>2026-05-01T11:23:43.836Z</time></trkpt><trkpt lat="42.1916988" lon="14.1907575"><ele>545.0</ele><time>2026-05-01T11:23:45.836Z</time></trkpt><trkpt lat="42.1916241" lon="14.1906937"><ele>545.0</ele><time>2026-05-01T11:23:46.836Z</time></trkpt><trkpt lat="42.1915502" lon="14.1906291"><ele>545.0</ele><time>2026-05-01T11:23:47.836Z</time></trkpt><trkpt lat="42.1914803" lon="14.1905551"><ele>545.0</ele><time>2026-05-01T11:23:48.836Z</time></trkpt><trkpt lat="42.1914178" lon="14.1904804"><ele>546.3333333333333</ele><time>2026-05-01T11:23:49.836Z</time></trkpt><trkpt lat="42.1913656" lon="14.1904231"><ele>547.6666666666666</ele><time>2026-05-01T11:23:50.836Z</time></trkpt><trkpt lat="42.1913193" lon="14.1903647"><ele>549.0</ele><time>2026-05-01T11:23:51.836Z</time></trkpt><trkpt lat="42.1912465" lon="14.190253"><ele>550.3333333333334</ele><time>2026-05-01T11:23:53.835Z</time></trkpt><trkpt lat="42.1911752" lon="14.1901324"><ele>551.6666666666667</ele><time>2026-05-01T11:23:55.836Z</time></trkpt><trkpt lat="42.1911358" lon="14.1900646"><ele>553.0</ele><time>2026-05-01T11:23:56.835Z</time></trkpt><trkpt lat="42.1910501" lon="14.1900034"><ele>553.0</ele><time>2026-05-01T11:23:58.836Z</time></trkpt><trkpt lat="42.1909656" lon="14.1899045"><ele>553.0</ele><time>2026-05-01T11:24:00.836Z</time></trkpt><trkpt lat="42.1908805" lon="14.1897801"><ele>553.0</ele><time>2026-05-01T11:24:02.836Z</time></trkpt><trkpt lat="42.1908189" lon="14.1897255"><ele>553.0</ele><time>2026-05-01T11:24:03.836Z</time></trkpt><trkpt lat="42.190765" lon="14.1896671"><ele>553.0</ele><time>2026-05-01T11:24:04.836Z</time></trkpt><trkpt lat="42.1907201" lon="14.1896004"><ele>553.0</ele><time>2026-05-01T11:24:05.836Z</time></trkpt><trkpt lat="42.1906823" lon="14.1895272"><ele>554.3333333333334</ele><time>2026-05-01T11:24:06.836Z</time></trkpt><trkpt lat="42.1905842" lon="14.1894329"><ele>555.6666666666667</ele><time>2026-05-01T11:24:08.836Z</time></trkpt><trkpt lat="42.1905167" lon="14.1894172"><ele>557.0</ele><time>2026-05-01T11:24:09.836Z</time></trkpt><trkpt lat="42.1904474" lon="14.1893935"><ele>558.3333333333334</ele><time>2026-05-01T11:24:10.836Z</time></trkpt><trkpt lat="42.1903544" lon="14.1893023"><ele>559.6666666666666</ele><time>2026-05-01T11:24:12.835Z</time></trkpt><trkpt lat="42.1903167" lon="14.1892323"><ele>561.0</ele><time>2026-05-01T11:24:13.836Z</time></trkpt><trkpt lat="42.1902616" lon="14.1890682"><ele>561.2857142857142</ele><time>2026-05-01T11:24:15.836Z</time></trkpt><trkpt lat="42.1902281" lon="14.1889683"><ele>561.5714285714286</ele><time>2026-05-01T11:24:16.836Z</time></trkpt><trkpt lat="42.1901905" lon="14.188875"><ele>561.8571428571429</ele><time>2026-05-01T11:24:17.836Z</time></trkpt><trkpt lat="42.1901451" lon="14.1887943"><ele>562.1428571428571</ele><time>2026-05-01T11:24:18.836Z</time></trkpt><trkpt lat="42.1901034" lon="14.1887133"><ele>562.4285714285714</ele><time>2026-05-01T11:24:19.836Z</time></trkpt><trkpt lat="42.190062" lon="14.1886362"><ele>562.7142857142857</ele><time>2026-05-01T11:24:20.836Z</time></trkpt><trkpt lat="42.1900171" lon="14.1885654"><ele>563.0</ele><time>2026-05-01T11:24:21.836Z</time></trkpt><trkpt lat="42.1899751" lon="14.1884979"><ele>563.0</ele><time>2026-05-01T11:24:22.836Z</time></trkpt><trkpt lat="42.1899411" lon="14.1883529"><ele>563.0</ele><time>2026-05-01T11:24:24.835Z</time></trkpt><trkpt lat="42.1899406" lon="14.1882567"><ele>563.0</ele><time>2026-05-01T11:24:25.836Z</time></trkpt><trkpt lat="42.1899338" lon="14.188153"><ele>563.0</ele><time>2026-05-01T11:24:26.836Z</time></trkpt><trkpt lat="42.1899073" lon="14.1880578"><ele>563.0</ele><time>2026-05-01T11:24:27.836Z</time></trkpt><trkpt lat="42.1898756" lon="14.1879689"><ele>563.0</ele><time>2026-05-01T11:24:28.836Z</time></trkpt><trkpt lat="42.1898452" lon="14.1878856"><ele>566.0</ele><time>2026-05-01T11:24:29.836Z</time></trkpt><trkpt lat="42.1897902" lon="14.1877469"><ele>569.0</ele><time>2026-05-01T11:24:31.836Z</time></trkpt><trkpt lat="42.1897079" lon="14.1876152"><ele>572.0</ele><time>2026-05-01T11:24:33.836Z</time></trkpt><trkpt lat="42.1896635" lon="14.1875291"><ele>575.0</ele><time>2026-05-01T11:24:34.836Z</time></trkpt><trkpt lat="42.1896291" lon="14.1874408"><ele>578.0</ele><time>2026-05-01T11:24:35.836Z</time></trkpt><trkpt lat="42.1895998" lon="14.1873338"><ele>578.0</ele><time>2026-05-01T11:24:36.836Z</time></trkpt><trkpt lat="42.1895666" lon="14.1872281"><ele>578.0</ele><time>2026-05-01T11:24:37.835Z</time></trkpt><trkpt lat="42.1895299" lon="14.1871384"><ele>578.0</ele><time>2026-05-01T11:24:38.836Z</time></trkpt><trkpt lat="42.1895014" lon="14.1870568"><ele>578.0</ele><time>2026-05-01T11:24:39.836Z</time></trkpt><trkpt lat="42.1894679" lon="14.1869489"><ele>578.0</ele><time>2026-05-01T11:24:41.835Z</time></trkpt><trkpt lat="42.1894134" lon="14.1868673"><ele>578.0</ele><time>2026-05-01T11:24:43.836Z</time></trkpt><trkpt lat="42.1893423" lon="14.1868309"><ele>578.0</ele><time>2026-05-01T11:24:45.836Z</time></trkpt><trkpt lat="42.1892815" lon="14.1868532"><ele>578.0</ele><time>2026-05-01T11:24:47.835Z</time></trkpt><trkpt lat="42.1891902" lon="14.186896"><ele>578.0</ele><time>2026-05-01T11:24:49.836Z</time></trkpt><trkpt lat="42.1890823" lon="14.1869477"><ele>578.0</ele><time>2026-05-01T11:24:51.836Z</time></trkpt><trkpt lat="42.188969" lon="14.1869719"><ele>578.0</ele><time>2026-05-01T11:24:53.836Z</time></trkpt><trkpt lat="42.1888529" lon="14.186926"><ele>579.6</ele><time>2026-05-01T11:24:55.836Z</time></trkpt><trkpt lat="42.1887294" lon="14.1868988"><ele>581.1999999999999</ele><time>2026-05-01T11:24:57.836Z</time></trkpt><trkpt lat="42.1886629" lon="14.1868843"><ele>582.8</ele><time>2026-05-01T11:24:58.836Z</time></trkpt><trkpt lat="42.1885831" lon="14.1868855"><ele>584.4</ele><time>2026-05-01T11:24:59.836Z</time></trkpt><trkpt lat="42.1884895" lon="14.1869078"><ele>586.0</ele><time>2026-05-01T11:25:00.836Z</time></trkpt><trkpt lat="42.1884044" lon="14.1869353"><ele>586.0</ele><time>2026-05-01T11:25:01.836Z</time></trkpt><trkpt lat="42.1883373" lon="14.1869672"><ele>586.0</ele><time>2026-05-01T11:25:02.835Z</time></trkpt><trkpt lat="42.1882787" lon="14.1870056"><ele>586.0</ele><time>2026-05-01T11:25:03.836Z</time></trkpt><trkpt lat="42.1881761" lon="14.1870891"><ele>586.0</ele><time>2026-05-01T11:25:05.836Z</time></trkpt><trkpt lat="42.1881043" lon="14.1871457"><ele>586.0</ele><time>2026-05-01T11:25:07.835Z</time></trkpt><trkpt lat="42.1880417" lon="14.1871685"><ele>586.0</ele><time>2026-05-01T11:25:10.836Z</time></trkpt><trkpt lat="42.1879944" lon="14.1871098"><ele>587.3333333333334</ele><time>2026-05-01T11:25:12.836Z</time></trkpt><trkpt lat="42.1879721" lon="14.1870177"><ele>588.6666666666667</ele><time>2026-05-01T11:25:14.836Z</time></trkpt><trkpt lat="42.1879163" lon="14.1869396"><ele>590.0</ele><time>2026-05-01T11:25:21.836Z</time></trkpt><trkpt lat="42.1878271" lon="14.1868158"><ele>591.3333333333334</ele><time>2026-05-01T11:25:23.836Z</time></trkpt><trkpt lat="42.1877799" lon="14.1867492"><ele>592.6666666666666</ele><time>2026-05-01T11:25:24.836Z</time></trkpt><trkpt lat="42.1877256" lon="14.1866812"><ele>594.0</ele><time>2026-05-01T11:25:25.836Z</time></trkpt><trkpt lat="42.1876541" lon="14.1865564"><ele>594.4</ele><time>2026-05-01T11:25:27.835Z</time></trkpt><trkpt lat="42.1876117" lon="14.186414"><ele>594.8</ele><time>2026-05-01T11:25:29.834Z</time></trkpt><trkpt lat="42.18754" lon="14.1862798"><ele>595.2</ele><time>2026-05-01T11:25:31.835Z</time></trkpt><trkpt lat="42.1874886" lon="14.1862135"><ele>595.6</ele><time>2026-05-01T11:25:32.835Z</time></trkpt><trkpt lat="42.1874275" lon="14.18614"><ele>596.0</ele><time>2026-05-01T11:25:33.834Z</time></trkpt><trkpt lat="42.1873621" lon="14.1860642"><ele>597.5</ele><time>2026-05-01T11:25:34.834Z</time></trkpt><trkpt lat="42.187308" lon="14.1859869"><ele>599.0</ele><time>2026-05-01T11:25:35.835Z</time></trkpt><trkpt lat="42.1872479" lon="14.1859125"><ele>600.5</ele><time>2026-05-01T11:25:36.835Z</time></trkpt><trkpt lat="42.1871886" lon="14.1858604"><ele>602.0</ele><time>2026-05-01T11:25:37.835Z</time></trkpt><trkpt lat="42.1871283" lon="14.185808"><ele>603.5</ele><time>2026-05-01T11:25:38.835Z</time></trkpt><trkpt lat="42.1870707" lon="14.1857318"><ele>605.0</ele><time>2026-05-01T11:25:39.834Z</time></trkpt><trkpt lat="42.1870224" lon="14.1856624"><ele>605.0</ele><time>2026-05-01T11:25:40.834Z</time></trkpt><trkpt lat="42.1869529" lon="14.1855648"><ele>605.0</ele><time>2026-05-01T11:25:42.835Z</time></trkpt><trkpt lat="42.1869063" lon="14.1855025"><ele>605.0</ele><time>2026-05-01T11:25:44.834Z</time></trkpt><trkpt lat="42.186835" lon="14.185415"><ele>605.0</ele><time>2026-05-01T11:25:46.835Z</time></trkpt><trkpt lat="42.1867688" lon="14.1853251"><ele>605.0</ele><time>2026-05-01T11:25:48.835Z</time></trkpt><trkpt lat="42.1867008" lon="14.185204"><ele>605.0</ele><time>2026-05-01T11:25:50.835Z</time></trkpt><trkpt lat="42.1866612" lon="14.1851354"><ele>605.0</ele><time>2026-05-01T11:25:51.835Z</time></trkpt><trkpt lat="42.1866176" lon="14.1850623"><ele>605.0</ele><time>2026-05-01T11:25:52.835Z</time></trkpt><trkpt lat="42.1865666" lon="14.1849854"><ele>605.0</ele><time>2026-05-01T11:25:53.835Z</time></trkpt><trkpt lat="42.1865099" lon="14.1848958"><ele>605.0</ele><time>2026-05-01T11:25:54.835Z</time></trkpt><trkpt lat="42.1864526" lon="14.1848039"><ele>605.0</ele><time>2026-05-01T11:25:55.835Z</time></trkpt><trkpt lat="42.1863912" lon="14.1847097"><ele>607.8</ele><time>2026-05-01T11:25:56.835Z</time></trkpt><trkpt lat="42.186334" lon="14.1846216"><ele>610.6</ele><time>2026-05-01T11:25:57.835Z</time></trkpt><trkpt lat="42.1862809" lon="14.1845406"><ele>613.4</ele><time>2026-05-01T11:25:58.835Z</time></trkpt><trkpt lat="42.1862386" lon="14.1844688"><ele>616.2</ele><time>2026-05-01T11:25:59.834Z</time></trkpt><trkpt lat="42.1861711" lon="14.1843447"><ele>619.0</ele><time>2026-05-01T11:26:01.835Z</time></trkpt><trkpt lat="42.1861019" lon="14.1841989"><ele>619.0</ele><time>2026-05-01T11:26:03.835Z</time></trkpt><trkpt lat="42.1860527" lon="14.1841393"><ele>619.0</ele><time>2026-05-01T11:26:04.834Z</time></trkpt><trkpt lat="42.1860037" lon="14.1840695"><ele>619.0</ele><time>2026-05-01T11:26:05.834Z</time></trkpt><trkpt lat="42.1859535" lon="14.1840021"><ele>619.0</ele><time>2026-05-01T11:26:06.835Z</time></trkpt><trkpt lat="42.1858455" lon="14.1839415"><ele>619.0</ele><time>2026-05-01T11:26:08.834Z</time></trkpt><trkpt lat="42.1857377" lon="14.1839967"><ele>619.0</ele><time>2026-05-01T11:26:10.834Z</time></trkpt><trkpt lat="42.1856826" lon="14.1840419"><ele>620.1666666666667</ele><time>2026-05-01T11:26:11.835Z</time></trkpt><trkpt lat="42.1856246" lon="14.1840855"><ele>621.3333333333334</ele><time>2026-05-01T11:26:14.835Z</time></trkpt><trkpt lat="42.1855533" lon="14.1840707"><ele>622.5</ele><time>2026-05-01T11:26:20.835Z</time></trkpt><trkpt lat="42.1854893" lon="14.1840118"><ele>623.6666666666666</ele><time>2026-05-01T11:26:22.834Z</time></trkpt><trkpt lat="42.1854191" lon="14.1839161"><ele>624.8333333333333</ele><time>2026-05-01T11:26:24.835Z</time></trkpt><trkpt lat="42.185348" lon="14.1838529"><ele>626.0</ele><time>2026-05-01T11:26:26.835Z</time></trkpt><trkpt lat="42.185272" lon="14.1838012"><ele>626.4</ele><time>2026-05-01T11:26:28.835Z</time></trkpt><trkpt lat="42.1851993" lon="14.183656"><ele>626.8</ele><time>2026-05-01T11:26:30.835Z</time></trkpt><trkpt lat="42.1851743" lon="14.1835753"><ele>627.1999999999999</ele><time>2026-05-01T11:26:31.835Z</time></trkpt><trkpt lat="42.1851833" lon="14.1833892"><ele>627.6</ele><time>2026-05-01T11:26:33.835Z</time></trkpt><trkpt lat="42.1852195" lon="14.1832694"><ele>628.0</ele><time>2026-05-01T11:26:34.835Z</time></trkpt><trkpt lat="42.1852557" lon="14.1831411"><ele>628.1999999999999</ele><time>2026-05-01T11:26:35.835Z</time></trkpt><trkpt lat="42.1852832" lon="14.1830129"><ele>628.4</ele><time>2026-05-01T11:26:36.834Z</time></trkpt><trkpt lat="42.1853016" lon="14.1828842"><ele>628.5999999999999</ele><time>2026-05-01T11:26:37.835Z</time></trkpt><trkpt lat="42.1853174" lon="14.1827734"><ele>628.8</ele><time>2026-05-01T11:26:38.835Z</time></trkpt><trkpt lat="42.1853321" lon="14.1826594"><ele>629.0</ele><time>2026-05-01T11:26:39.835Z</time></trkpt><trkpt lat="42.1853453" lon="14.1825417"><ele>629.0</ele><time>2026-05-01T11:26:40.835Z</time></trkpt><trkpt lat="42.1853557" lon="14.1824272"><ele>629.0</ele><time>2026-05-01T11:26:41.834Z</time></trkpt><trkpt lat="42.1853661" lon="14.1823152"><ele>629.0</ele><time>2026-05-01T11:26:42.835Z</time></trkpt><trkpt lat="42.1853738" lon="14.1822211"><ele>629.0</ele><time>2026-05-01T11:26:43.834Z</time></trkpt><trkpt lat="42.1853739" lon="14.182063"><ele>629.0</ele><time>2026-05-01T11:26:45.835Z</time></trkpt><trkpt lat="42.185343" lon="14.1819397"><ele>629.3333333333333</ele><time>2026-05-01T11:26:47.835Z</time></trkpt><trkpt lat="42.1852731" lon="14.1818886"><ele>629.6666666666666</ele><time>2026-05-01T11:26:49.835Z</time></trkpt><trkpt lat="42.1851485" lon="14.1818601"><ele>630.0</ele><time>2026-05-01T11:26:51.835Z</time></trkpt><trkpt lat="42.185085" lon="14.1818549"><ele>630.3333333333334</ele><time>2026-05-01T11:26:52.835Z</time></trkpt><trkpt lat="42.1850153" lon="14.1818355"><ele>630.6666666666667</ele><time>2026-05-01T11:26:54.835Z</time></trkpt><trkpt lat="42.1849664" lon="14.181777"><ele>631.0</ele><time>2026-05-01T11:26:56.835Z</time></trkpt><trkpt lat="42.1849594" lon="14.1816538"><ele>631.0</ele><time>2026-05-01T11:26:58.835Z</time></trkpt><trkpt lat="42.1849738" lon="14.1815239"><ele>631.0</ele><time>2026-05-01T11:27:00.835Z</time></trkpt><trkpt lat="42.1849826" lon="14.1813753"><ele>631.0</ele><time>2026-05-01T11:27:02.835Z</time></trkpt><trkpt lat="42.1849791" lon="14.1812895"><ele>631.0</ele><time>2026-05-01T11:27:03.835Z</time></trkpt><trkpt lat="42.1849584" lon="14.1812018"><ele>631.0</ele><time>2026-05-01T11:27:04.835Z</time></trkpt><trkpt lat="42.1849218" lon="14.1811223"><ele>631.0</ele><time>2026-05-01T11:27:05.835Z</time></trkpt><trkpt lat="42.1848673" lon="14.1810108"><ele>632.2</ele><time>2026-05-01T11:27:07.835Z</time></trkpt><trkpt lat="42.1848712" lon="14.1808781"><ele>633.4000000000001</ele><time>2026-05-01T11:27:09.835Z</time></trkpt><trkpt lat="42.1849171" lon="14.1807381"><ele>634.6</ele><time>2026-05-01T11:27:11.835Z</time></trkpt><trkpt lat="42.18488" lon="14.1806183"><ele>635.8000000000001</ele><time>2026-05-01T11:27:15.835Z</time></trkpt><trkpt lat="42.1848113" lon="14.180605"><ele>637.0</ele><time>2026-05-01T11:27:16.835Z</time></trkpt><trkpt lat="42.1847325" lon="14.1806079"><ele>645.0</ele><time>2026-05-01T11:27:17.835Z</time></trkpt><trkpt lat="42.1835168" lon="14.1812593"><ele>645.0</ele><time>2026-05-01T11:32:24.833Z</time></trkpt><trkpt lat="42.1834819" lon="14.1813395"><ele>645.0</ele><time>2026-05-01T11:32:32.843Z</time></trkpt><trkpt lat="42.1835332" lon="14.1814017"><ele>645.0</ele><time>2026-05-01T11:33:44.206Z</time></trkpt><trkpt lat="42.1834776" lon="14.1813107"><ele>645.0</ele><time>2026-05-01T11:33:57.745Z</time></trkpt><trkpt lat="42.183525" lon="14.1813725"><ele>645.0</ele><time>2026-05-01T11:34:29.875Z</time></trkpt><trkpt lat="42.1835042" lon="14.1812848"><ele>645.0</ele><time>2026-05-01T11:52:43.032Z</time></trkpt><trkpt lat="42.1835593" lon="14.1812347"><ele>645.0</ele><time>2026-05-01T11:52:51.052Z</time></trkpt><trkpt lat="42.183628" lon="14.1812413"><ele>645.0</ele><time>2026-05-01T11:54:03.004Z</time></trkpt><trkpt lat="42.1836722" lon="14.1813097"><ele>645.0</ele><time>2026-05-01T11:54:08.03Z</time></trkpt><trkpt lat="42.1836647" lon="14.181408"><ele>645.0</ele><time>2026-05-01T11:54:19.044Z</time></trkpt><trkpt lat="42.1836314" lon="14.1814849"><ele>645.0</ele><time>2026-05-01T11:54:25.004Z</time></trkpt><trkpt lat="42.1836379" lon="14.1815729"><ele>645.0</ele><time>2026-05-01T11:54:32.05Z</time></trkpt><trkpt lat="42.1835757" lon="14.1815962"><ele>645.0</ele><time>2026-05-01T11:54:42.031Z</time></trkpt><trkpt lat="42.1835487" lon="14.1815136"><ele>645.0</ele><time>2026-05-01T11:55:19.004Z</time></trkpt><trkpt lat="42.1834998" lon="14.1814438"><ele>644.6666666666666</ele><time>2026-05-01T11:55:27.027Z</time></trkpt><trkpt lat="42.1834601" lon="14.1815291"><ele>644.3333333333334</ele><time>2026-05-01T11:55:38.022Z</time></trkpt><trkpt lat="42.183426" lon="14.1816312"><ele>644.0</ele><time>2026-05-01T11:55:44.004Z</time></trkpt><trkpt lat="42.1834492" lon="14.1817597"><ele>643.6666666666667</ele><time>2026-05-01T11:55:55.004Z</time></trkpt><trkpt lat="42.1834913" lon="14.18183"><ele>643.3333333333334</ele><time>2026-05-01T11:55:59.004Z</time></trkpt><trkpt lat="42.1834815" lon="14.1817383"><ele>643.0</ele><time>2026-05-01T11:56:03.004Z</time></trkpt><trkpt lat="42.1834989" lon="14.1816155"><ele>643.0</ele><time>2026-05-01T11:56:15.915Z</time></trkpt><trkpt lat="42.1835509" lon="14.1815549"><ele>643.0</ele><time>2026-05-01T11:56:21.004Z</time></trkpt><trkpt lat="42.1836295" lon="14.1816021"><ele>643.0</ele><time>2026-05-01T11:56:30.004Z</time></trkpt><trkpt lat="42.1836905" lon="14.1815596"><ele>643.0</ele><time>2026-05-01T11:56:38.048Z</time></trkpt><trkpt lat="42.1836963" lon="14.1814621"><ele>643.0</ele><time>2026-05-01T11:56:45.006Z</time></trkpt><trkpt lat="42.1836537" lon="14.1813572"><ele>643.0</ele><time>2026-05-01T11:58:19.018Z</time></trkpt><trkpt lat="42.1836321" lon="14.181272"><ele>645.0</ele><time>2026-05-01T11:58:32.021Z</time></trkpt><trkpt lat="42.18356" lon="14.1812656"><ele>645.0</ele><time>2026-05-01T11:59:00.005Z</time></trkpt></trkseg><trkseg><trkpt lat="42.1835824" lon="14.1811558"><ele>645.0</ele><time>2026-05-01T12:12:54.99Z</time></trkpt><trkpt lat="42.1834872" lon="14.1811185"><ele>645.0</ele><time>2026-05-01T12:12:57.005Z</time></trkpt><trkpt lat="42.1835295" lon="14.1810114"><ele>645.0</ele><time>2026-05-01T12:12:59.005Z</time></trkpt><trkpt lat="42.1835835" lon="14.180958"><ele>645.0</ele><time>2026-05-01T12:13:00.005Z</time></trkpt><trkpt lat="42.183636" lon="14.1809063"><ele>645.0</ele><time>2026-05-01T12:13:01.005Z</time></trkpt><trkpt lat="42.1837252" lon="14.1808134"><ele>645.0</ele><time>2026-05-01T12:13:03.005Z</time></trkpt><trkpt lat="42.1838042" lon="14.1807312"><ele>645.0</ele><time>2026-05-01T12:13:05.005Z</time></trkpt><trkpt lat="42.1838752" lon="14.1807184"><ele>645.0</ele><time>2026-05-01T12:13:08.03Z</time></trkpt><trkpt lat="42.1839087" lon="14.1807986"><ele>645.0</ele><time>2026-05-01T12:13:21.005Z</time></trkpt><trkpt lat="42.1839186" lon="14.1809588"><ele>645.0</ele><time>2026-05-01T12:13:23.005Z</time></trkpt><trkpt lat="42.1839132" lon="14.1811199"><ele>645.0</ele><time>2026-05-01T12:13:25.005Z</time></trkpt><trkpt lat="42.1839004" lon="14.1812572"><ele>645.0</ele><time>2026-05-01T12:13:27.005Z</time></trkpt><trkpt lat="42.1838538" lon="14.1814102"><ele>645.0</ele><time>2026-05-01T12:13:29.005Z</time></trkpt><trkpt lat="42.183791" lon="14.1815525"><ele>645.0</ele><time>2026-05-01T12:13:31.005Z</time></trkpt><trkpt lat="42.1837539" lon="14.1816303"><ele>645.0</ele><time>2026-05-01T12:13:32.005Z</time></trkpt><trkpt lat="42.1837155" lon="14.1817139"><ele>645.0</ele><time>2026-05-01T12:13:33.005Z</time></trkpt><trkpt lat="42.1836724" lon="14.1818068"><ele>644.6666666666666</ele><time>2026-05-01T12:13:34.005Z</time></trkpt><trkpt lat="42.183623" lon="14.1818896"><ele>644.3333333333334</ele><time>2026-05-01T12:13:35.005Z</time></trkpt><trkpt lat="42.1835684" lon="14.1819761"><ele>644.0</ele><time>2026-05-01T12:13:36.005Z</time></trkpt><trkpt lat="42.1835125" lon="14.1820441"><ele>643.6666666666667</ele><time>2026-05-01T12:13:37.005Z</time></trkpt><trkpt lat="42.183405" lon="14.1820841"><ele>643.3333333333334</ele><time>2026-05-01T12:13:39.005Z</time></trkpt><trkpt lat="42.1833416" lon="14.1821193"><ele>643.0</ele><time>2026-05-01T12:13:41.005Z</time></trkpt><trkpt lat="42.1833674" lon="14.1822639"><ele>643.0</ele><time>2026-05-01T12:13:44.005Z</time></trkpt><trkpt lat="42.1834285" lon="14.1823411"><ele>643.0</ele><time>2026-05-01T12:13:45.005Z</time></trkpt><trkpt lat="42.1835008" lon="14.1824228"><ele>643.0</ele><time>2026-05-01T12:13:46.005Z</time></trkpt><trkpt lat="42.1835704" lon="14.1825256"><ele>643.0</ele><time>2026-05-01T12:13:47.005Z</time></trkpt><trkpt lat="42.1836284" lon="14.1826368"><ele>643.0</ele><time>2026-05-01T12:13:48.005Z</time></trkpt><trkpt lat="42.183674" lon="14.1827522"><ele>640.8</ele><time>2026-05-01T12:13:49.005Z</time></trkpt><trkpt lat="42.1837216" lon="14.1828718"><ele>638.5999999999999</ele><time>2026-05-01T12:13:50.005Z</time></trkpt><trkpt lat="42.1837572" lon="14.1829967"><ele>636.4000000000001</ele><time>2026-05-01T12:13:51.005Z</time></trkpt><trkpt lat="42.1837835" lon="14.1831189"><ele>634.2</ele><time>2026-05-01T12:13:52.005Z</time></trkpt><trkpt lat="42.1838185" lon="14.183249"><ele>632.0</ele><time>2026-05-01T12:13:53.005Z</time></trkpt><trkpt lat="42.1838641" lon="14.1833798"><ele>631.75</ele><time>2026-05-01T12:13:54.005Z</time></trkpt><trkpt lat="42.1839226" lon="14.1835077"><ele>631.5</ele><time>2026-05-01T12:13:55.005Z</time></trkpt><trkpt lat="42.1839837" lon="14.1836353"><ele>631.25</ele><time>2026-05-01T12:13:56.005Z</time></trkpt><trkpt lat="42.1840449" lon="14.1837634"><ele>631.0</ele><time>2026-05-01T12:13:57.005Z</time></trkpt><trkpt lat="42.184113" lon="14.1839031"><ele>628.75</ele><time>2026-05-01T12:13:58.005Z</time></trkpt><trkpt lat="42.1841766" lon="14.184059"><ele>626.5</ele><time>2026-05-01T12:13:59.005Z</time></trkpt><trkpt lat="42.1842393" lon="14.1842285"><ele>624.25</ele><time>2026-05-01T12:14:00.005Z</time></trkpt><trkpt lat="42.1843013" lon="14.1844153"><ele>622.0</ele><time>2026-05-01T12:14:01.005Z</time></trkpt><trkpt lat="42.1843636" lon="14.1846097"><ele>622.0</ele><time>2026-05-01T12:14:02.005Z</time></trkpt><trkpt lat="42.1844326" lon="14.1848066"><ele>622.0</ele><time>2026-05-01T12:14:03.005Z</time></trkpt><trkpt lat="42.1845051" lon="14.1850019"><ele>622.0</ele><time>2026-05-01T12:14:04.005Z</time></trkpt><trkpt lat="42.1845834" lon="14.1851963"><ele>618.0</ele><time>2026-05-01T12:14:05.005Z</time></trkpt><trkpt lat="42.184667" lon="14.1853799"><ele>614.0</ele><time>2026-05-01T12:14:06.005Z</time></trkpt><trkpt lat="42.184756" lon="14.1855494"><ele>610.0</ele><time>2026-05-01T12:14:07.005Z</time></trkpt><trkpt lat="42.1848576" lon="14.1857067"><ele>610.0</ele><time>2026-05-01T12:14:08.005Z</time></trkpt><trkpt lat="42.1849591" lon="14.1858529"><ele>610.0</ele><time>2026-05-01T12:14:09.005Z</time></trkpt><trkpt lat="42.1850646" lon="14.1860009"><ele>610.0</ele><time>2026-05-01T12:14:10.005Z</time></trkpt><trkpt lat="42.1851712" lon="14.1861482"><ele>610.0</ele><time>2026-05-01T12:14:11.005Z</time></trkpt><trkpt lat="42.1852749" lon="14.1862932"><ele>610.0</ele><time>2026-05-01T12:14:12.005Z</time></trkpt><trkpt lat="42.1853708" lon="14.1864487"><ele>610.0</ele><time>2026-05-01T12:14:13.005Z</time></trkpt><trkpt lat="42.185457" lon="14.1866147"><ele>610.0</ele><time>2026-05-01T12:14:14.006Z</time></trkpt><trkpt lat="42.18553" lon="14.1867901"><ele>607.75</ele><time>2026-05-01T12:14:15.006Z</time></trkpt><trkpt lat="42.1855916" lon="14.1869708"><ele>605.5</ele><time>2026-05-01T12:14:16.006Z</time></trkpt><trkpt lat="42.1856502" lon="14.1871464"><ele>603.25</ele><time>2026-05-01T12:14:17.006Z</time></trkpt><trkpt lat="42.1857036" lon="14.1873124"><ele>601.0</ele><time>2026-05-01T12:14:18.006Z</time></trkpt><trkpt lat="42.1857496" lon="14.1874629"><ele>599.0</ele><time>2026-05-01T12:14:19.006Z</time></trkpt><trkpt lat="42.1857853" lon="14.1875946"><ele>597.0</ele><time>2026-05-01T12:14:20.006Z</time></trkpt><trkpt lat="42.185821" lon="14.1877085"><ele>595.0</ele><time>2026-05-01T12:14:21.006Z</time></trkpt><trkpt lat="42.1858485" lon="14.187815"><ele>593.0</ele><time>2026-05-01T12:14:22.006Z</time></trkpt><trkpt lat="42.1858986" lon="14.1879429"><ele>591.0</ele><time>2026-05-01T12:14:24.006Z</time></trkpt><trkpt lat="42.1858823" lon="14.1880275"><ele>591.0</ele><time>2026-05-01T12:14:27.006Z</time></trkpt><trkpt lat="42.1858087" lon="14.1878899"><ele>591.0</ele><time>2026-05-01T12:14:30.006Z</time></trkpt><trkpt lat="42.1857713" lon="14.1877863"><ele>591.0</ele><time>2026-05-01T12:14:31.006Z</time></trkpt><trkpt lat="42.1857237" lon="14.1876749"><ele>591.0</ele><time>2026-05-01T12:14:32.006Z</time></trkpt><trkpt lat="42.18567" lon="14.1875512"><ele>591.0</ele><time>2026-05-01T12:14:33.006Z</time></trkpt><trkpt lat="42.1856096" lon="14.1874188"><ele>591.25</ele><time>2026-05-01T12:14:34.006Z</time></trkpt><trkpt lat="42.1855464" lon="14.1872759"><ele>591.5</ele><time>2026-05-01T12:14:35.006Z</time></trkpt><trkpt lat="42.1854792" lon="14.187138"><ele>591.75</ele><time>2026-05-01T12:14:36.006Z</time></trkpt><trkpt lat="42.1854064" lon="14.1870147"><ele>592.0</ele><time>2026-05-01T12:14:37.006Z</time></trkpt><trkpt lat="42.1853323" lon="14.1869132"><ele>592.0</ele><time>2026-05-01T12:14:38.006Z</time></trkpt><trkpt lat="42.1852627" lon="14.1868244"><ele>592.0</ele><time>2026-05-01T12:14:39.006Z</time></trkpt><trkpt lat="42.1851881" lon="14.1867423"><ele>592.0</ele><time>2026-05-01T12:14:40.006Z</time></trkpt><trkpt lat="42.1851037" lon="14.1866661"><ele>592.0</ele><time>2026-05-01T12:14:41.006Z</time></trkpt><trkpt lat="42.1850087" lon="14.1865905"><ele>592.0</ele><time>2026-05-01T12:14:42.006Z</time></trkpt><trkpt lat="42.1849135" lon="14.1865313"><ele>592.0</ele><time>2026-05-01T12:14:43.006Z</time></trkpt><trkpt lat="42.1848246" lon="14.1864813"><ele>592.0</ele><time>2026-05-01T12:14:44.006Z</time></trkpt><trkpt lat="42.1847499" lon="14.1864465"><ele>592.0</ele><time>2026-05-01T12:14:45.006Z</time></trkpt><trkpt lat="42.1846862" lon="14.186438"><ele>592.0</ele><time>2026-05-01T12:14:46.006Z</time></trkpt><trkpt lat="42.1846122" lon="14.1864461"><ele>592.0</ele><time>2026-05-01T12:14:47.006Z</time></trkpt><trkpt lat="42.1845155" lon="14.186477"><ele>592.0</ele><time>2026-05-01T12:14:48.006Z</time></trkpt><trkpt lat="42.1844205" lon="14.1865005"><ele>592.0</ele><time>2026-05-01T12:14:49.006Z</time></trkpt><trkpt lat="42.1843271" lon="14.1865161"><ele>592.0</ele><time>2026-05-01T12:14:50.006Z</time></trkpt><trkpt lat="42.1842501" lon="14.1865141"><ele>592.0</ele><time>2026-05-01T12:14:51.006Z</time></trkpt><trkpt lat="42.1841688" lon="14.1864954"><ele>592.0</ele><time>2026-05-01T12:14:52.006Z</time></trkpt><trkpt lat="42.1840732" lon="14.1864839"><ele>592.0</ele><time>2026-05-01T12:14:53.006Z</time></trkpt><trkpt lat="42.1839692" lon="14.1864802"><ele>591.2</ele><time>2026-05-01T12:14:54.006Z</time></trkpt><trkpt lat="42.1838533" lon="14.1864936"><ele>590.4000000000001</ele><time>2026-05-01T12:14:55.006Z</time></trkpt><trkpt lat="42.1837482" lon="14.1865092"><ele>589.5999999999999</ele><time>2026-05-01T12:14:56.006Z</time></trkpt><trkpt lat="42.1836512" lon="14.1865315"><ele>588.8</ele><time>2026-05-01T12:14:57.006Z</time></trkpt><trkpt lat="42.1835468" lon="14.1865746"><ele>588.0</ele><time>2026-05-01T12:14:58.006Z</time></trkpt><trkpt lat="42.1834301" lon="14.186646"><ele>586.5</ele><time>2026-05-01T12:14:59.006Z</time></trkpt><trkpt lat="42.1833025" lon="14.186733"><ele>585.0</ele><time>2026-05-01T12:15:00.006Z</time></trkpt><trkpt lat="42.183168" lon="14.1868187"><ele>583.5</ele><time>2026-05-01T12:15:01.006Z</time></trkpt><trkpt lat="42.183046" lon="14.1868958"><ele>582.0</ele><time>2026-05-01T12:15:02.006Z</time></trkpt><trkpt lat="42.1829221" lon="14.1869478"><ele>582.0</ele><time>2026-05-01T12:15:03.006Z</time></trkpt><trkpt lat="42.1828016" lon="14.1869876"><ele>582.0</ele><time>2026-05-01T12:15:04.006Z</time></trkpt><trkpt lat="42.1826966" lon="14.1870158"><ele>582.0</ele><time>2026-05-01T12:15:05.006Z</time></trkpt><trkpt lat="42.1826191" lon="14.1870387"><ele>582.0</ele><time>2026-05-01T12:15:06.006Z</time></trkpt><trkpt lat="42.1825542" lon="14.1870733"><ele>582.0</ele><time>2026-05-01T12:15:08.006Z</time></trkpt><trkpt lat="42.1825735" lon="14.187207"><ele>582.0</ele><time>2026-05-01T12:15:11.006Z</time></trkpt><trkpt lat="42.1826293" lon="14.1872717"><ele>582.0</ele><time>2026-05-01T12:15:12.006Z</time></trkpt><trkpt lat="42.1826912" lon="14.1873629"><ele>582.0</ele><time>2026-05-01T12:15:13.006Z</time></trkpt><trkpt lat="42.1827599" lon="14.1874657"><ele>582.0</ele><time>2026-05-01T12:15:14.006Z</time></trkpt><trkpt lat="42.1828358" lon="14.1875744"><ele>582.0</ele><time>2026-05-01T12:15:15.006Z</time></trkpt><trkpt lat="42.1829349" lon="14.1876774"><ele>581.25</ele><time>2026-05-01T12:15:16.006Z</time></trkpt><trkpt lat="42.1830389" lon="14.1877886"><ele>580.5</ele><time>2026-05-01T12:15:17.006Z</time></trkpt><trkpt lat="42.1831475" lon="14.1878991"><ele>579.75</ele><time>2026-05-01T12:15:18.006Z</time></trkpt><trkpt lat="42.183249" lon="14.1880165"><ele>579.0</ele><time>2026-05-01T12:15:19.006Z</time></trkpt><trkpt lat="42.1833329" lon="14.1881543"><ele>578.0</ele><time>2026-05-01T12:15:20.006Z</time></trkpt><trkpt lat="42.1834077" lon="14.1882985"><ele>577.0</ele><time>2026-05-01T12:15:21.006Z</time></trkpt><trkpt lat="42.1834823" lon="14.1884535"><ele>576.0</ele><time>2026-05-01T12:15:22.006Z</time></trkpt><trkpt lat="42.1835597" lon="14.1886108"><ele>575.0</ele><time>2026-05-01T12:15:23.006Z</time></trkpt><trkpt lat="42.1836311" lon="14.1887722"><ele>575.0</ele><time>2026-05-01T12:15:24.006Z</time></trkpt><trkpt lat="42.1837003" lon="14.1889242"><ele>575.0</ele><time>2026-05-01T12:15:25.006Z</time></trkpt><trkpt lat="42.1837707" lon="14.1890752"><ele>575.0</ele><time>2026-05-01T12:15:26.006Z</time></trkpt><trkpt lat="42.1838365" lon="14.1892314"><ele>575.0</ele><time>2026-05-01T12:15:27.006Z</time></trkpt><trkpt lat="42.183891" lon="14.1894004"><ele>573.5</ele><time>2026-05-01T12:15:28.006Z</time></trkpt><trkpt lat="42.1839271" lon="14.1895811"><ele>572.0</ele><time>2026-05-01T12:15:29.006Z</time></trkpt><trkpt lat="42.1839475" lon="14.189763"><ele>570.5</ele><time>2026-05-01T12:15:30.006Z</time></trkpt><trkpt lat="42.1839578" lon="14.1899532"><ele>569.0</ele><time>2026-05-01T12:15:31.006Z</time></trkpt><trkpt lat="42.1839582" lon="14.1901288"><ele>568.0</ele><time>2026-05-01T12:15:32.006Z</time></trkpt><trkpt lat="42.1839586" lon="14.190293"><ele>567.0</ele><time>2026-05-01T12:15:33.006Z</time></trkpt><trkpt lat="42.1839633" lon="14.1904547"><ele>566.0</ele><time>2026-05-01T12:15:34.006Z</time></trkpt><trkpt lat="42.1839682" lon="14.1906155"><ele>565.0</ele><time>2026-05-01T12:15:35.006Z</time></trkpt><trkpt lat="42.1839766" lon="14.1907754"><ele>563.8</ele><time>2026-05-01T12:15:36.006Z</time></trkpt><trkpt lat="42.183994" lon="14.1909287"><ele>562.6</ele><time>2026-05-01T12:15:37.006Z</time></trkpt><trkpt lat="42.1840051" lon="14.1910745"><ele>561.4</ele><time>2026-05-01T12:15:38.006Z</time></trkpt><trkpt lat="42.1840078" lon="14.1912158"><ele>560.2</ele><time>2026-05-01T12:15:39.006Z</time></trkpt><trkpt lat="42.1839962" lon="14.1913267"><ele>559.0</ele><time>2026-05-01T12:15:40.006Z</time></trkpt><trkpt lat="42.1839791" lon="14.1914169"><ele>558.2</ele><time>2026-05-01T12:15:41.006Z</time></trkpt><trkpt lat="42.1839681" lon="14.1915542"><ele>557.4</ele><time>2026-05-01T12:15:43.006Z</time></trkpt><trkpt lat="42.1839719" lon="14.1917117"><ele>556.6</ele><time>2026-05-01T12:15:45.006Z</time></trkpt><trkpt lat="42.1839804" lon="14.1918004"><ele>555.8</ele><time>2026-05-01T12:15:46.006Z</time></trkpt><trkpt lat="42.1840115" lon="14.1919549"><ele>555.0</ele><time>2026-05-01T12:15:48.006Z</time></trkpt><trkpt lat="42.1840693" lon="14.1920898"><ele>555.0</ele><time>2026-05-01T12:15:50.006Z</time></trkpt><trkpt lat="42.1841337" lon="14.1922302"><ele>555.0</ele><time>2026-05-01T12:15:52.006Z</time></trkpt><trkpt lat="42.1842061" lon="14.1923685"><ele>555.0</ele><time>2026-05-01T12:15:54.006Z</time></trkpt><trkpt lat="42.1842402" lon="14.1924523"><ele>555.0</ele><time>2026-05-01T12:15:55.006Z</time></trkpt><trkpt lat="42.1842646" lon="14.1925322"><ele>555.0</ele><time>2026-05-01T12:15:56.006Z</time></trkpt><trkpt lat="42.1842847" lon="14.1926165"><ele>555.0</ele><time>2026-05-01T12:15:57.006Z</time></trkpt><trkpt lat="42.1843007" lon="14.1927009"><ele>553.2</ele><time>2026-05-01T12:15:58.006Z</time></trkpt><trkpt lat="42.1843347" lon="14.1928591"><ele>551.4</ele><time>2026-05-01T12:16:00.006Z</time></trkpt><trkpt lat="42.1843554" lon="14.193006"><ele>549.6</ele><time>2026-05-01T12:16:02.006Z</time></trkpt><trkpt lat="42.1843583" lon="14.1931117"><ele>547.8</ele><time>2026-05-01T12:16:04.006Z</time></trkpt><trkpt lat="42.1843114" lon="14.193253"><ele>546.0</ele><time>2026-05-01T12:16:06.006Z</time></trkpt><trkpt lat="42.1842749" lon="14.1933475"><ele>545.1666666666666</ele><time>2026-05-01T12:16:07.006Z</time></trkpt><trkpt lat="42.1842424" lon="14.1934413"><ele>544.3333333333334</ele><time>2026-05-01T12:16:08.006Z</time></trkpt><trkpt lat="42.184216" lon="14.193529"><ele>543.5</ele><time>2026-05-01T12:16:09.006Z</time></trkpt><trkpt lat="42.1841621" lon="14.1936538"><ele>542.6666666666667</ele><time>2026-05-01T12:16:11.006Z</time></trkpt><trkpt lat="42.184128" lon="14.1937718"><ele>541.8333333333334</ele><time>2026-05-01T12:16:13.006Z</time></trkpt><trkpt lat="42.184107" lon="14.1938585"><ele>541.0</ele><time>2026-05-01T12:16:14.006Z</time></trkpt><trkpt lat="42.1840977" lon="14.1939611"><ele>540.2</ele><time>2026-05-01T12:16:15.006Z</time></trkpt><trkpt lat="42.1840906" lon="14.1940529"><ele>539.4000000000001</ele><time>2026-05-01T12:16:16.006Z</time></trkpt><trkpt lat="42.1840777" lon="14.1942119"><ele>538.6</ele><time>2026-05-01T12:16:18.006Z</time></trkpt><trkpt lat="42.1840834" lon="14.1943369"><ele>537.8000000000001</ele><time>2026-05-01T12:16:20.006Z</time></trkpt><trkpt lat="42.184109" lon="14.1944633"><ele>537.0</ele><time>2026-05-01T12:16:22.006Z</time></trkpt><trkpt lat="42.1841718" lon="14.1945698"><ele>537.0</ele><time>2026-05-01T12:16:24.006Z</time></trkpt><trkpt lat="42.1842369" lon="14.1946706"><ele>537.0</ele><time>2026-05-01T12:16:26.006Z</time></trkpt><trkpt lat="42.1843033" lon="14.1947304"><ele>537.0</ele><time>2026-05-01T12:16:28.007Z</time></trkpt><trkpt lat="42.1842163" lon="14.1947386"><ele>537.0</ele><time>2026-05-01T12:16:34.006Z</time></trkpt><trkpt lat="42.1841523" lon="14.1947208"><ele>537.0</ele><time>2026-05-01T12:16:37.006Z</time></trkpt><trkpt lat="42.1841543" lon="14.1948134"><ele>537.0</ele><time>2026-05-01T12:16:39.006Z</time></trkpt><trkpt lat="42.1842151" lon="14.1949193"><ele>535.3333333333334</ele><time>2026-05-01T12:16:41.006Z</time></trkpt><trkpt lat="42.1842835" lon="14.1950165"><ele>533.6666666666666</ele><time>2026-05-01T12:16:43.006Z</time></trkpt><trkpt lat="42.1842775" lon="14.1951044"><ele>532.0</ele><time>2026-05-01T12:16:45.006Z</time></trkpt><trkpt lat="42.1842877" lon="14.1952075"><ele>530.3333333333333</ele><time>2026-05-01T12:16:48.006Z</time></trkpt><trkpt lat="42.1843776" lon="14.1952566"><ele>528.6666666666666</ele><time>2026-05-01T12:16:50.006Z</time></trkpt><trkpt lat="42.1844442" lon="14.1952877"><ele>527.0</ele><time>2026-05-01T12:16:51.006Z</time></trkpt><trkpt lat="42.1845198" lon="14.1953247"><ele>527.0</ele><time>2026-05-01T12:16:52.006Z</time></trkpt><trkpt lat="42.1845909" lon="14.1953774"><ele>527.0</ele><time>2026-05-01T12:16:53.006Z</time></trkpt><trkpt lat="42.1846643" lon="14.1954434"><ele>527.0</ele><time>2026-05-01T12:16:54.006Z</time></trkpt><trkpt lat="42.1847333" lon="14.1955234"><ele>527.0</ele><time>2026-05-01T12:16:55.006Z</time></trkpt><trkpt lat="42.1847945" lon="14.1956135"><ele>527.0</ele><time>2026-05-01T12:16:56.006Z</time></trkpt><trkpt lat="42.1848589" lon="14.1957112"><ele>527.0</ele><time>2026-05-01T12:16:57.006Z</time></trkpt><trkpt lat="42.1849265" lon="14.1957881"><ele>526.1666666666666</ele><time>2026-05-01T12:16:58.006Z</time></trkpt><trkpt lat="42.1849909" lon="14.1958592"><ele>525.3333333333333</ele><time>2026-05-01T12:16:59.006Z</time></trkpt><trkpt lat="42.1850448" lon="14.1959335"><ele>524.5</ele><time>2026-05-01T12:17:00.006Z</time></trkpt><trkpt lat="42.1850855" lon="14.196018"><ele>523.6666666666666</ele><time>2026-05-01T12:17:01.006Z</time></trkpt><trkpt lat="42.1851186" lon="14.1961158"><ele>522.8333333333334</ele><time>2026-05-01T12:17:02.006Z</time></trkpt><trkpt lat="42.1851442" lon="14.1962219"><ele>522.0</ele><time>2026-05-01T12:17:03.006Z</time></trkpt><trkpt lat="42.185185" lon="14.1963081"><ele>522.0</ele><time>2026-05-01T12:17:05.006Z</time></trkpt><trkpt lat="42.1853062" lon="14.1963201"><ele>522.0</ele><time>2026-05-01T12:17:08.006Z</time></trkpt><trkpt lat="42.1854009" lon="14.1963841"><ele>522.0</ele><time>2026-05-01T12:17:10.006Z</time></trkpt><trkpt lat="42.1854854" lon="14.1963959"><ele>522.0</ele><time>2026-05-01T12:17:13.006Z</time></trkpt><trkpt lat="42.1855467" lon="14.1964405"><ele>522.0</ele><time>2026-05-01T12:17:15.006Z</time></trkpt><trkpt lat="42.1855888" lon="14.1965159"><ele>521.6666666666666</ele><time>2026-05-01T12:17:17.006Z</time></trkpt><trkpt lat="42.1856515" lon="14.1965706"><ele>521.3333333333334</ele><time>2026-05-01T12:17:19.006Z</time></trkpt><trkpt lat="42.1857186" lon="14.1966367"><ele>521.0</ele><time>2026-05-01T12:17:21.006Z</time></trkpt><trkpt lat="42.1857872" lon="14.1967217"><ele>520.6666666666667</ele><time>2026-05-01T12:17:23.006Z</time></trkpt><trkpt lat="42.1858539" lon="14.19679"><ele>520.3333333333334</ele><time>2026-05-01T12:17:25.006Z</time></trkpt><trkpt lat="42.1859562" lon="14.1968326"><ele>520.0</ele><time>2026-05-01T12:17:27.006Z</time></trkpt><trkpt lat="42.1860621" lon="14.1968571"><ele>520.0</ele><time>2026-05-01T12:17:29.006Z</time></trkpt><trkpt lat="42.1861737" lon="14.1968913"><ele>520.0</ele><time>2026-05-01T12:17:31.006Z</time></trkpt><trkpt lat="42.1862664" lon="14.1968868"><ele>520.0</ele><time>2026-05-01T12:17:33.006Z</time></trkpt><trkpt lat="42.1863532" lon="14.1968441"><ele>520.0</ele><time>2026-05-01T12:17:35.006Z</time></trkpt><trkpt lat="42.1864447" lon="14.1968221"><ele>520.0</ele><time>2026-05-01T12:17:37.006Z</time></trkpt><trkpt lat="42.1865403" lon="14.1968255"><ele>518.3333333333334</ele><time>2026-05-01T12:17:39.006Z</time></trkpt><trkpt lat="42.1866139" lon="14.1968185"><ele>516.6666666666667</ele><time>2026-05-01T12:17:41.006Z</time></trkpt><trkpt lat="42.1867081" lon="14.1967855"><ele>515.0</ele><time>2026-05-01T12:17:43.006Z</time></trkpt><trkpt lat="42.1867999" lon="14.1968314"><ele>513.3333333333334</ele><time>2026-05-01T12:17:45.006Z</time></trkpt><trkpt lat="42.1868448" lon="14.1968936"><ele>511.6666666666667</ele><time>2026-05-01T12:17:46.006Z</time></trkpt><trkpt lat="42.1868895" lon="14.1969603"><ele>510.0</ele><time>2026-05-01T12:17:47.006Z</time></trkpt><trkpt lat="42.1869464" lon="14.1970329"><ele>510.0</ele><time>2026-05-01T12:17:48.006Z</time></trkpt><trkpt lat="42.1869931" lon="14.1970935"><ele>510.0</ele><time>2026-05-01T12:17:49.006Z</time></trkpt><trkpt lat="42.1870353" lon="14.1971578"><ele>510.0</ele><time>2026-05-01T12:17:50.006Z</time></trkpt><trkpt lat="42.1871097" lon="14.1972976"><ele>510.0</ele><time>2026-05-01T12:17:52.006Z</time></trkpt><trkpt lat="42.1871559" lon="14.1973669"><ele>510.0</ele><time>2026-05-01T12:17:53.006Z</time></trkpt><trkpt lat="42.1872017" lon="14.1974326"><ele>510.0</ele><time>2026-05-01T12:17:54.006Z</time></trkpt><trkpt lat="42.1872486" lon="14.1975004"><ele>512.0</ele><time>2026-05-01T12:17:55.006Z</time></trkpt><trkpt lat="42.1872972" lon="14.1975808"><ele>514.0</ele><time>2026-05-01T12:17:56.006Z</time></trkpt><trkpt lat="42.1873382" lon="14.1976816"><ele>516.0</ele><time>2026-05-01T12:17:58.006Z</time></trkpt><trkpt lat="42.1873298" lon="14.1978349"><ele>518.0</ele><time>2026-05-01T12:18:00.006Z</time></trkpt><trkpt lat="42.1873255" lon="14.1979492"><ele>520.0</ele><time>2026-05-01T12:18:01.006Z</time></trkpt><trkpt lat="42.1873248" lon="14.1980878"><ele>520.25</ele><time>2026-05-01T12:18:02.006Z</time></trkpt><trkpt lat="42.1873429" lon="14.1982425"><ele>520.5</ele><time>2026-05-01T12:18:03.006Z</time></trkpt><trkpt lat="42.1873731" lon="14.198415"><ele>520.75</ele><time>2026-05-01T12:18:04.006Z</time></trkpt><trkpt lat="42.1874026" lon="14.1986037"><ele>521.0</ele><time>2026-05-01T12:18:05.006Z</time></trkpt><trkpt lat="42.1874325" lon="14.1988129"><ele>519.5</ele><time>2026-05-01T12:18:06.006Z</time></trkpt><trkpt lat="42.1874769" lon="14.199021"><ele>518.0</ele><time>2026-05-01T12:18:07.006Z</time></trkpt><trkpt lat="42.187535" lon="14.199204"><ele>516.5</ele><time>2026-05-01T12:18:08.006Z</time></trkpt><trkpt lat="42.1875952" lon="14.1993735"><ele>515.0</ele><time>2026-05-01T12:18:09.006Z</time></trkpt><trkpt lat="42.1876344" lon="14.1995545"><ele>515.0</ele><time>2026-05-01T12:18:10.006Z</time></trkpt><trkpt lat="42.1876446" lon="14.1997473"><ele>515.0</ele><time>2026-05-01T12:18:11.006Z</time></trkpt><trkpt lat="42.1876483" lon="14.199952"><ele>515.0</ele><time>2026-05-01T12:18:12.006Z</time></trkpt><trkpt lat="42.1876646" lon="14.2001612"><ele>516.0</ele><time>2026-05-01T12:18:13.006Z</time></trkpt><trkpt lat="42.1877092" lon="14.2003817"><ele>517.0</ele><time>2026-05-01T12:18:14.006Z</time></trkpt><trkpt lat="42.1877809" lon="14.2006074"><ele>518.0</ele><time>2026-05-01T12:18:15.006Z</time></trkpt><trkpt lat="42.1878636" lon="14.2008345"><ele>520.0</ele><time>2026-05-01T12:18:16.006Z</time></trkpt><trkpt lat="42.1879463" lon="14.2010507"><ele>522.0</ele><time>2026-05-01T12:18:17.006Z</time></trkpt><trkpt lat="42.1880218" lon="14.2012561"><ele>524.0</ele><time>2026-05-01T12:18:18.006Z</time></trkpt><trkpt lat="42.1880916" lon="14.2014514"><ele>523.0</ele><time>2026-05-01T12:18:19.006Z</time></trkpt><trkpt lat="42.1881641" lon="14.2016422"><ele>522.0</ele><time>2026-05-01T12:18:20.006Z</time></trkpt><trkpt lat="42.1882464" lon="14.2018301"><ele>521.0</ele><time>2026-05-01T12:18:21.006Z</time></trkpt><trkpt lat="42.1883377" lon="14.2020035"><ele>521.0</ele><time>2026-05-01T12:18:22.006Z</time></trkpt><trkpt lat="42.1884425" lon="14.2021645"><ele>521.0</ele><time>2026-05-01T12:18:23.006Z</time></trkpt><trkpt lat="42.1885534" lon="14.2023318"><ele>521.0</ele><time>2026-05-01T12:18:24.006Z</time></trkpt><trkpt lat="42.1886605" lon="14.2024976"><ele>528.0</ele><time>2026-05-01T12:18:25.006Z</time></trkpt><trkpt lat="42.1887552" lon="14.2026745"><ele>535.0</ele><time>2026-05-01T12:18:26.006Z</time></trkpt><trkpt lat="42.18883" lon="14.2028587"><ele>542.0</ele><time>2026-05-01T12:18:27.006Z</time></trkpt><trkpt lat="42.1888802" lon="14.2030649"><ele>538.6666666666666</ele><time>2026-05-01T12:18:28.006Z</time></trkpt><trkpt lat="42.1889298" lon="14.2032762"><ele>535.3333333333334</ele><time>2026-05-01T12:18:29.006Z</time></trkpt><trkpt lat="42.1889778" lon="14.2034799"><ele>532.0</ele><time>2026-05-01T12:18:30.006Z</time></trkpt><trkpt lat="42.1890322" lon="14.2036888"><ele>532.0</ele><time>2026-05-01T12:18:31.006Z</time></trkpt><trkpt lat="42.1890845" lon="14.2038889"><ele>532.0</ele><time>2026-05-01T12:18:32.006Z</time></trkpt><trkpt lat="42.1891311" lon="14.2040918"><ele>532.0</ele><time>2026-05-01T12:18:33.006Z</time></trkpt><trkpt lat="42.1891711" lon="14.2042904"><ele>534.75</ele><time>2026-05-01T12:18:34.006Z</time></trkpt><trkpt lat="42.1892122" lon="14.2044846"><ele>537.5</ele><time>2026-05-01T12:18:35.006Z</time></trkpt><trkpt lat="42.1892408" lon="14.2046758"><ele>540.25</ele><time>2026-05-01T12:18:36.006Z</time></trkpt><trkpt lat="42.1892593" lon="14.2048692"><ele>543.0</ele><time>2026-05-01T12:18:37.006Z</time></trkpt><trkpt lat="42.1892713" lon="14.2050657"><ele>544.1999999999999</ele><time>2026-05-01T12:18:38.006Z</time></trkpt><trkpt lat="42.1893089" lon="14.205238"><ele>545.4</ele><time>2026-05-01T12:18:39.006Z</time></trkpt><trkpt lat="42.1893659" lon="14.2053775"><ele>546.5999999999999</ele><time>2026-05-01T12:18:40.006Z</time></trkpt><trkpt lat="42.1894291" lon="14.2054794"><ele>547.8</ele><time>2026-05-01T12:18:41.006Z</time></trkpt><trkpt lat="42.1894915" lon="14.2055643"><ele>549.0</ele><time>2026-05-01T12:18:42.006Z</time></trkpt><trkpt lat="42.189563" lon="14.2056262"><ele>549.0</ele><time>2026-05-01T12:18:43.006Z</time></trkpt><trkpt lat="42.1896488" lon="14.2056549"><ele>549.0</ele><time>2026-05-01T12:18:44.006Z</time></trkpt><trkpt lat="42.1897464" lon="14.2056753"><ele>549.0</ele><time>2026-05-01T12:18:45.006Z</time></trkpt><trkpt lat="42.1898493" lon="14.205701"><ele>549.0</ele><time>2026-05-01T12:18:46.006Z</time></trkpt><trkpt lat="42.1899558" lon="14.2057478"><ele>549.0</ele><time>2026-05-01T12:18:47.006Z</time></trkpt><trkpt lat="42.190068" lon="14.2058196"><ele>547.5</ele><time>2026-05-01T12:18:48.006Z</time></trkpt><trkpt lat="42.1901697" lon="14.2059193"><ele>546.0</ele><time>2026-05-01T12:18:49.006Z</time></trkpt><trkpt lat="42.1902503" lon="14.2060636"><ele>544.5</ele><time>2026-05-01T12:18:50.006Z</time></trkpt><trkpt lat="42.1903152" lon="14.2062211"><ele>543.0</ele><time>2026-05-01T12:18:51.006Z</time></trkpt><trkpt lat="42.1903731" lon="14.2063827"><ele>546.0</ele><time>2026-05-01T12:18:52.006Z</time></trkpt><trkpt lat="42.1904222" lon="14.2065506"><ele>549.0</ele><time>2026-05-01T12:18:53.005Z</time></trkpt><trkpt lat="42.1904603" lon="14.2067292"><ele>552.0</ele><time>2026-05-01T12:18:54.005Z</time></trkpt><trkpt lat="42.1904893" lon="14.2069093"><ele>555.0</ele><time>2026-05-01T12:18:55.005Z</time></trkpt><trkpt lat="42.1905096" lon="14.2071009"><ele>555.0</ele><time>2026-05-01T12:18:56.005Z</time></trkpt><trkpt lat="42.1905301" lon="14.2072879"><ele>555.0</ele><time>2026-05-01T12:18:57.005Z</time></trkpt><trkpt lat="42.190541" lon="14.2074654"><ele>555.0</ele><time>2026-05-01T12:18:58.005Z</time></trkpt><trkpt lat="42.1905542" lon="14.2076228"><ele>555.0</ele><time>2026-05-01T12:18:59.005Z</time></trkpt><trkpt lat="42.1905632" lon="14.2077611"><ele>556.0</ele><time>2026-05-01T12:19:00.005Z</time></trkpt><trkpt lat="42.1905718" lon="14.2078773"><ele>557.0</ele><time>2026-05-01T12:19:01.005Z</time></trkpt><trkpt lat="42.1905752" lon="14.2079714"><ele>558.0</ele><time>2026-05-01T12:19:02.005Z</time></trkpt><trkpt lat="42.1906534" lon="14.2080945"><ele>559.0</ele><time>2026-05-01T12:19:04.005Z</time></trkpt><trkpt lat="42.1907316" lon="14.2081078"><ele>560.0</ele><time>2026-05-01T12:19:05.005Z</time></trkpt><trkpt lat="42.1908329" lon="14.2081129"><ele>553.5</ele><time>2026-05-01T12:19:06.005Z</time></trkpt><trkpt lat="42.1909504" lon="14.208123"><ele>547.0</ele><time>2026-05-01T12:19:07.005Z</time></trkpt><trkpt lat="42.1910722" lon="14.2081568"><ele>540.5</ele><time>2026-05-01T12:19:08.005Z</time></trkpt><trkpt lat="42.1911986" lon="14.2081766"><ele>534.0</ele><time>2026-05-01T12:19:09.005Z</time></trkpt><trkpt lat="42.1913313" lon="14.2081871"><ele>534.0</ele><time>2026-05-01T12:19:10.005Z</time></trkpt><trkpt lat="42.1914685" lon="14.2081947"><ele>534.0</ele><time>2026-05-01T12:19:11.005Z</time></trkpt><trkpt lat="42.1916017" lon="14.2081895"><ele>534.0</ele><time>2026-05-01T12:19:12.005Z</time></trkpt><trkpt lat="42.1917372" lon="14.2081931"><ele>534.0</ele><time>2026-05-01T12:19:13.005Z</time></trkpt><trkpt lat="42.1918641" lon="14.208197"><ele>532.2</ele><time>2026-05-01T12:19:14.005Z</time></trkpt><trkpt lat="42.1919722" lon="14.2082027"><ele>530.4</ele><time>2026-05-01T12:19:15.005Z</time></trkpt><trkpt lat="42.1920758" lon="14.2081998"><ele>528.6</ele><time>2026-05-01T12:19:16.005Z</time></trkpt><trkpt lat="42.1921871" lon="14.2081859"><ele>526.8</ele><time>2026-05-01T12:19:17.005Z</time></trkpt><trkpt lat="42.1923046" lon="14.2081686"><ele>525.0</ele><time>2026-05-01T12:19:18.005Z</time></trkpt><trkpt lat="42.1924206" lon="14.20815"><ele>522.4</ele><time>2026-05-01T12:19:19.005Z</time></trkpt><trkpt lat="42.1925339" lon="14.2081246"><ele>519.8</ele><time>2026-05-01T12:19:20.005Z</time></trkpt><trkpt lat="42.1926469" lon="14.2080983"><ele>517.2</ele><time>2026-05-01T12:19:21.005Z</time></trkpt><trkpt lat="42.1927541" lon="14.208069"><ele>514.6</ele><time>2026-05-01T12:19:22.005Z</time></trkpt><trkpt lat="42.1928569" lon="14.2080471"><ele>512.0</ele><time>2026-05-01T12:19:23.005Z</time></trkpt><trkpt lat="42.1929538" lon="14.2080374"><ele>512.0</ele><time>2026-05-01T12:19:24.005Z</time></trkpt><trkpt lat="42.1930468" lon="14.2080269"><ele>512.0</ele><time>2026-05-01T12:19:25.005Z</time></trkpt><trkpt lat="42.1931438" lon="14.2080157"><ele>512.0</ele><time>2026-05-01T12:19:26.005Z</time></trkpt><trkpt lat="42.193242" lon="14.208007"><ele>512.0</ele><time>2026-05-01T12:19:27.005Z</time></trkpt><trkpt lat="42.1933411" lon="14.2080092"><ele>512.0</ele><time>2026-05-01T12:19:28.005Z</time></trkpt><trkpt lat="42.1934491" lon="14.2080231"><ele>510.40000000000003</ele><time>2026-05-01T12:19:29.005Z</time></trkpt><trkpt lat="42.193561" lon="14.2080409"><ele>508.80000000000007</ele><time>2026-05-01T12:19:30.005Z</time></trkpt><trkpt lat="42.1936635" lon="14.2080602"><ele>507.2</ele><time>2026-05-01T12:19:31.005Z</time></trkpt><trkpt lat="42.1937618" lon="14.2080772"><ele>505.6</ele><time>2026-05-01T12:19:32.005Z</time></trkpt><trkpt lat="42.1938606" lon="14.2080927"><ele>504.0</ele><time>2026-05-01T12:19:33.005Z</time></trkpt><trkpt lat="42.1939628" lon="14.208112"><ele>502.2</ele><time>2026-05-01T12:19:34.005Z</time></trkpt><trkpt lat="42.1940674" lon="14.2081483"><ele>500.4</ele><time>2026-05-01T12:19:35.005Z</time></trkpt><trkpt lat="42.1941783" lon="14.2081961"><ele>498.6</ele><time>2026-05-01T12:19:36.005Z</time></trkpt><trkpt lat="42.1942778" lon="14.208249"><ele>496.8</ele><time>2026-05-01T12:19:37.005Z</time></trkpt><trkpt lat="42.1943666" lon="14.2083067"><ele>495.0</ele><time>2026-05-01T12:19:38.005Z</time></trkpt><trkpt lat="42.194447" lon="14.2083777"><ele>495.0</ele><time>2026-05-01T12:19:39.005Z</time></trkpt><trkpt lat="42.1945216" lon="14.208454"><ele>495.0</ele><time>2026-05-01T12:19:40.005Z</time></trkpt><trkpt lat="42.194593" lon="14.2085313"><ele>495.0</ele><time>2026-05-01T12:19:41.005Z</time></trkpt><trkpt lat="42.194665" lon="14.20861"><ele>495.0</ele><time>2026-05-01T12:19:42.005Z</time></trkpt><trkpt lat="42.1947419" lon="14.2086889"><ele>495.0</ele><time>2026-05-01T12:19:43.005Z</time></trkpt><trkpt lat="42.1948134" lon="14.2087762"><ele>493.0</ele><time>2026-05-01T12:19:44.005Z</time></trkpt><trkpt lat="42.1948783" lon="14.2088629"><ele>491.0</ele><time>2026-05-01T12:19:45.005Z</time></trkpt><trkpt lat="42.1949394" lon="14.2089341"><ele>489.0</ele><time>2026-05-01T12:19:46.005Z</time></trkpt><trkpt lat="42.1950012" lon="14.2089822"><ele>487.0</ele><time>2026-05-01T12:19:47.005Z</time></trkpt><trkpt lat="42.1950675" lon="14.2089957"><ele>485.0</ele><time>2026-05-01T12:19:48.005Z</time></trkpt><trkpt lat="42.1951482" lon="14.2089679"><ele>483.0</ele><time>2026-05-01T12:19:49.005Z</time></trkpt><trkpt lat="42.1952324" lon="14.2089067"><ele>482.4</ele><time>2026-05-01T12:19:50.005Z</time></trkpt><trkpt lat="42.1953188" lon="14.2088468"><ele>481.79999999999995</ele><time>2026-05-01T12:19:51.005Z</time></trkpt><trkpt lat="42.1954058" lon="14.208797"><ele>481.2</ele><time>2026-05-01T12:19:52.005Z</time></trkpt><trkpt lat="42.1954966" lon="14.2087319"><ele>480.6</ele><time>2026-05-01T12:19:53.005Z</time></trkpt><trkpt lat="42.1955859" lon="14.2086664"><ele>480.0</ele><time>2026-05-01T12:19:54.005Z</time></trkpt><trkpt lat="42.1956621" lon="14.2085876"><ele>479.0</ele><time>2026-05-01T12:19:55.005Z</time></trkpt><trkpt lat="42.1957301" lon="14.2085054"><ele>478.0</ele><time>2026-05-01T12:19:56.005Z</time></trkpt><trkpt lat="42.1958029" lon="14.2084234"><ele>477.0</ele><time>2026-05-01T12:19:57.005Z</time></trkpt><trkpt lat="42.1958773" lon="14.2083671"><ele>476.0</ele><time>2026-05-01T12:19:58.005Z</time></trkpt><trkpt lat="42.1959482" lon="14.2083342"><ele>475.0</ele><time>2026-05-01T12:19:59.005Z</time></trkpt><trkpt lat="42.1960213" lon="14.2083324"><ele>474.0</ele><time>2026-05-01T12:20:00.005Z</time></trkpt><trkpt lat="42.1960945" lon="14.2083472"><ele>474.0</ele><time>2026-05-01T12:20:01.005Z</time></trkpt><trkpt lat="42.1961663" lon="14.2083568"><ele>474.0</ele><time>2026-05-01T12:20:02.005Z</time></trkpt><trkpt lat="42.1962457" lon="14.2083493"><ele>474.0</ele><time>2026-05-01T12:20:03.005Z</time></trkpt><trkpt lat="42.1963292" lon="14.2083346"><ele>474.0</ele><time>2026-05-01T12:20:04.005Z</time></trkpt><trkpt lat="42.1964121" lon="14.2083036"><ele>474.0</ele><time>2026-05-01T12:20:05.005Z</time></trkpt><trkpt lat="42.1964978" lon="14.2082702"><ele>474.0</ele><time>2026-05-01T12:20:06.005Z</time></trkpt><trkpt lat="42.1965849" lon="14.2082456"><ele>471.4</ele><time>2026-05-01T12:20:07.005Z</time></trkpt><trkpt lat="42.196674" lon="14.2082238"><ele>468.79999999999995</ele><time>2026-05-01T12:20:08.005Z</time></trkpt><trkpt lat="42.1967605" lon="14.2081993"><ele>466.20000000000005</ele><time>2026-05-01T12:20:09.005Z</time></trkpt><trkpt lat="42.1968542" lon="14.2081572"><ele>463.6</ele><time>2026-05-01T12:20:10.005Z</time></trkpt><trkpt lat="42.1969433" lon="14.2081082"><ele>461.0</ele><time>2026-05-01T12:20:11.005Z</time></trkpt><trkpt lat="42.1970312" lon="14.2080669"><ele>459.4</ele><time>2026-05-01T12:20:12.005Z</time></trkpt><trkpt lat="42.197119" lon="14.2080443"><ele>457.8</ele><time>2026-05-01T12:20:13.005Z</time></trkpt><trkpt lat="42.1972124" lon="14.2080321"><ele>456.19999999999993</ele><time>2026-05-01T12:20:14.005Z</time></trkpt><trkpt lat="42.1973073" lon="14.2080433"><ele>454.59999999999997</ele><time>2026-05-01T12:20:15.005Z</time></trkpt><trkpt lat="42.197394" lon="14.2080688"><ele>453.0</ele><time>2026-05-01T12:20:16.005Z</time></trkpt><trkpt lat="42.1974827" lon="14.2081201"><ele>452.2</ele><time>2026-05-01T12:20:17.005Z</time></trkpt><trkpt lat="42.1975665" lon="14.2081735"><ele>451.4</ele><time>2026-05-01T12:20:18.005Z</time></trkpt><trkpt lat="42.1976575" lon="14.2082222"><ele>450.59999999999997</ele><time>2026-05-01T12:20:19.005Z</time></trkpt><trkpt lat="42.1977522" lon="14.2082557"><ele>449.79999999999995</ele><time>2026-05-01T12:20:20.005Z</time></trkpt><trkpt lat="42.1978471" lon="14.2082782"><ele>449.0</ele><time>2026-05-01T12:20:21.005Z</time></trkpt><trkpt lat="42.1979318" lon="14.2083051"><ele>448.99999999999994</ele><time>2026-05-01T12:20:22.005Z</time></trkpt><trkpt lat="42.1980117" lon="14.2083281"><ele>449.0</ele><time>2026-05-01T12:20:23.005Z</time></trkpt><trkpt lat="42.1980818" lon="14.2083537"><ele>449.0</ele><time>2026-05-01T12:20:24.005Z</time></trkpt><trkpt lat="42.1981515" lon="14.208378"><ele>449.0</ele><time>2026-05-01T12:20:25.005Z</time></trkpt><trkpt lat="42.198225" lon="14.2083936"><ele>448.99999999999994</ele><time>2026-05-01T12:20:26.005Z</time></trkpt><trkpt lat="42.1983017" lon="14.208406"><ele>449.0</ele><time>2026-05-01T12:20:27.005Z</time></trkpt><trkpt lat="42.1983789" lon="14.2084246"><ele>446.85714285714283</ele><time>2026-05-01T12:20:28.005Z</time></trkpt><trkpt lat="42.1984535" lon="14.2084492"><ele>444.71428571428567</ele><time>2026-05-01T12:20:29.005Z</time></trkpt><trkpt lat="42.1985282" lon="14.2084653"><ele>442.57142857142856</ele><time>2026-05-01T12:20:30.005Z</time></trkpt><trkpt lat="42.1986005" lon="14.2084686"><ele>440.42857142857144</ele><time>2026-05-01T12:20:31.005Z</time></trkpt><trkpt lat="42.1986734" lon="14.2084589"><ele>438.2857142857143</ele><time>2026-05-01T12:20:32.005Z</time></trkpt><trkpt lat="42.1987469" lon="14.2084522"><ele>436.1428571428571</ele><time>2026-05-01T12:20:33.005Z</time></trkpt><trkpt lat="42.198821" lon="14.2084649"><ele>434.0</ele><time>2026-05-01T12:20:34.005Z</time></trkpt><trkpt lat="42.198884" lon="14.2084857"><ele>433.99999999999994</ele><time>2026-05-01T12:20:35.005Z</time></trkpt><trkpt lat="42.198948" lon="14.2085003"><ele>434.0</ele><time>2026-05-01T12:20:36.005Z</time></trkpt><trkpt lat="42.1990585" lon="14.208422"><ele>434.0</ele><time>2026-05-01T12:20:38.005Z</time></trkpt><trkpt lat="42.1990886" lon="14.2083414"><ele>434.0</ele><time>2026-05-01T12:20:39.005Z</time></trkpt><trkpt lat="42.1990783" lon="14.2082487"><ele>433.99999999999994</ele><time>2026-05-01T12:20:40.005Z</time></trkpt><trkpt lat="42.1990549" lon="14.2081652"><ele>434.0</ele><time>2026-05-01T12:20:41.005Z</time></trkpt><trkpt lat="42.1990245" lon="14.2080732"><ele>431.99999999999994</ele><time>2026-05-01T12:20:42.005Z</time></trkpt><trkpt lat="42.1989962" lon="14.2079729"><ele>430.0</ele><time>2026-05-01T12:20:43.005Z</time></trkpt><trkpt lat="42.1989808" lon="14.2078717"><ele>428.0</ele><time>2026-05-01T12:20:44.005Z</time></trkpt><trkpt lat="42.1989702" lon="14.2077668"><ele>426.0</ele><time>2026-05-01T12:20:45.005Z</time></trkpt><trkpt lat="42.1989734" lon="14.2076549"><ele>423.99999999999994</ele><time>2026-05-01T12:20:46.005Z</time></trkpt><trkpt lat="42.1989945" lon="14.2075427"><ele>422.0</ele><time>2026-05-01T12:20:47.005Z</time></trkpt><trkpt lat="42.1990331" lon="14.207447"><ele>421.7142857142857</ele><time>2026-05-01T12:20:48.005Z</time></trkpt><trkpt lat="42.1990733" lon="14.2073586"><ele>421.42857142857144</ele><time>2026-05-01T12:20:49.005Z</time></trkpt><trkpt lat="42.1991194" lon="14.2072754"><ele>421.1428571428571</ele><time>2026-05-01T12:20:50.005Z</time></trkpt><trkpt lat="42.1991616" lon="14.2071976"><ele>420.8571428571429</ele><time>2026-05-01T12:20:51.005Z</time></trkpt><trkpt lat="42.199205" lon="14.2071204"><ele>420.57142857142856</ele><time>2026-05-01T12:20:52.005Z</time></trkpt><trkpt lat="42.1992571" lon="14.207053"><ele>420.2857142857143</ele><time>2026-05-01T12:20:53.005Z</time></trkpt><trkpt lat="42.1993131" lon="14.2070003"><ele>420.0</ele><time>2026-05-01T12:20:54.005Z</time></trkpt><trkpt lat="42.1994201" lon="14.2069696"><ele>420.0</ele><time>2026-05-01T12:20:56.005Z</time></trkpt><trkpt lat="42.1995479" lon="14.2069867"><ele>420.0</ele><time>2026-05-01T12:20:58.005Z</time></trkpt><trkpt lat="42.1996255" lon="14.2070129"><ele>420.0</ele><time>2026-05-01T12:20:59.005Z</time></trkpt><trkpt lat="42.1996991" lon="14.2070435"><ele>420.0</ele><time>2026-05-01T12:21:00.005Z</time></trkpt><trkpt lat="42.199767" lon="14.2070678"><ele>420.0</ele><time>2026-05-01T12:21:01.005Z</time></trkpt><trkpt lat="42.1998331" lon="14.2071112"><ele>420.0</ele><time>2026-05-01T12:21:02.005Z</time></trkpt><trkpt lat="42.1999015" lon="14.2071605"><ele>419.8</ele><time>2026-05-01T12:21:03.005Z</time></trkpt><trkpt lat="42.199968" lon="14.2072238"><ele>419.6</ele><time>2026-05-01T12:21:04.005Z</time></trkpt><trkpt lat="42.200029" lon="14.2072588"><ele>419.4</ele><time>2026-05-01T12:21:05.005Z</time></trkpt><trkpt lat="42.2001156" lon="14.2072822"><ele>419.2</ele><time>2026-05-01T12:21:07.005Z</time></trkpt><trkpt lat="42.2002166" lon="14.2073029"><ele>419.0</ele><time>2026-05-01T12:21:10.005Z</time></trkpt><trkpt lat="42.2003191" lon="14.2073679"><ele>418.99999999999994</ele><time>2026-05-01T12:21:12.005Z</time></trkpt><trkpt lat="42.2004144" lon="14.2073903"><ele>419.0</ele><time>2026-05-01T12:21:14.005Z</time></trkpt><trkpt lat="42.2004891" lon="14.2073802"><ele>419.0</ele><time>2026-05-01T12:21:16.005Z</time></trkpt><trkpt lat="42.2005539" lon="14.2073676"><ele>419.0</ele><time>2026-05-01T12:21:18.005Z</time></trkpt><trkpt lat="42.2006175" lon="14.207386"><ele>418.99999999999994</ele><time>2026-05-01T12:21:20.005Z</time></trkpt><trkpt lat="42.2006614" lon="14.2074746"><ele>419.0</ele><time>2026-05-01T12:21:23.005Z</time></trkpt><trkpt lat="42.2006649" lon="14.2076167"><ele>419.0</ele><time>2026-05-01T12:21:25.005Z</time></trkpt><trkpt lat="42.200688" lon="14.2077334"><ele>419.0</ele><time>2026-05-01T12:21:27.005Z</time></trkpt><trkpt lat="42.2006081" lon="14.2078494"><ele>419.0</ele><time>2026-05-01T12:22:02.005Z</time></trkpt><trkpt lat="42.2005264" lon="14.2079089"><ele>419.0</ele><time>2026-05-01T12:22:04.005Z</time></trkpt><trkpt lat="42.2005116" lon="14.2080326"><ele>419.0</ele><time>2026-05-01T12:22:06.005Z</time></trkpt><trkpt lat="42.2005547" lon="14.2081759"><ele>417.49999999999994</ele><time>2026-05-01T12:22:08.005Z</time></trkpt><trkpt lat="42.2006008" lon="14.2083003"><ele>416.0</ele><time>2026-05-01T12:22:10.005Z</time></trkpt><trkpt lat="42.2006094" lon="14.2084475"><ele>414.5</ele><time>2026-05-01T12:22:12.005Z</time></trkpt><trkpt lat="42.2006026" lon="14.2085392"><ele>413.0</ele><time>2026-05-01T12:22:13.005Z</time></trkpt><trkpt lat="42.2005932" lon="14.2086318"><ele>411.49999999999994</ele><time>2026-05-01T12:22:14.005Z</time></trkpt><trkpt lat="42.2005899" lon="14.2087198"><ele>410.0</ele><time>2026-05-01T12:22:15.005Z</time></trkpt><trkpt lat="42.2006024" lon="14.2088632"><ele>410.0</ele><time>2026-05-01T12:22:17.005Z</time></trkpt><trkpt lat="42.2006089" lon="14.208973"><ele>410.0</ele><time>2026-05-01T12:22:19.005Z</time></trkpt><trkpt lat="42.2006375" lon="14.2090984"><ele>410.0</ele><time>2026-05-01T12:22:21.005Z</time></trkpt><trkpt lat="42.200678" lon="14.2092217"><ele>410.0</ele><time>2026-05-01T12:22:23.005Z</time></trkpt><trkpt lat="42.2006785" lon="14.2093405"><ele>410.0</ele><time>2026-05-01T12:22:25.005Z</time></trkpt><trkpt lat="42.2007079" lon="14.2094469"><ele>411.2</ele><time>2026-05-01T12:22:27.005Z</time></trkpt><trkpt lat="42.2007675" lon="14.2095229"><ele>412.4</ele><time>2026-05-01T12:22:29.005Z</time></trkpt><trkpt lat="42.2008434" lon="14.2095239"><ele>413.6</ele><time>2026-05-01T12:22:31.005Z</time></trkpt><trkpt lat="42.200935" lon="14.2095079"><ele>414.8</ele><time>2026-05-01T12:22:33.005Z</time></trkpt><trkpt lat="42.2010357" lon="14.2094736"><ele>416.0</ele><time>2026-05-01T12:22:35.005Z</time></trkpt><trkpt lat="42.2011364" lon="14.2094543"><ele>416.0</ele><time>2026-05-01T12:22:37.005Z</time></trkpt><trkpt lat="42.2012477" lon="14.2094501"><ele>416.0</ele><time>2026-05-01T12:22:39.005Z</time></trkpt><trkpt lat="42.2013627" lon="14.2094635"><ele>416.0</ele><time>2026-05-01T12:22:41.005Z</time></trkpt><trkpt lat="42.2014863" lon="14.209495"><ele>416.0</ele><time>2026-05-01T12:22:43.005Z</time></trkpt><trkpt lat="42.2015512" lon="14.2095015"><ele>416.0</ele><time>2026-05-01T12:22:44.005Z</time></trkpt><trkpt lat="42.2016719" lon="14.2094732"><ele>415.66666666666663</ele><time>2026-05-01T12:22:46.005Z</time></trkpt><trkpt lat="42.2017935" lon="14.2094531"><ele>415.3333333333333</ele><time>2026-05-01T12:22:48.005Z</time></trkpt><trkpt lat="42.2018642" lon="14.2094416"><ele>415.0</ele><time>2026-05-01T12:22:49.005Z</time></trkpt><trkpt lat="42.2019314" lon="14.2094307"><ele>414.66666666666663</ele><time>2026-05-01T12:22:50.005Z</time></trkpt><trkpt lat="42.2019966" lon="14.2094182"><ele>414.3333333333333</ele><time>2026-05-01T12:22:51.005Z</time></trkpt><trkpt lat="42.2020636" lon="14.2094098"><ele>414.0</ele><time>2026-05-01T12:22:52.005Z</time></trkpt><trkpt lat="42.2021276" lon="14.2094091"><ele>414.0</ele><time>2026-05-01T12:22:53.005Z</time></trkpt><trkpt lat="42.2022364" lon="14.2094507"><ele>414.0</ele><time>2026-05-01T12:22:55.005Z</time></trkpt><trkpt lat="42.2023446" lon="14.2095105"><ele>414.0</ele><time>2026-05-01T12:22:57.005Z</time></trkpt><trkpt lat="42.2024589" lon="14.209557"><ele>414.0</ele><time>2026-05-01T12:22:59.005Z</time></trkpt><trkpt lat="42.2025212" lon="14.2095796"><ele>414.0</ele><time>2026-05-01T12:23:00.005Z</time></trkpt><trkpt lat="42.2026316" lon="14.2096094"><ele>413.4</ele><time>2026-05-01T12:23:02.005Z</time></trkpt><trkpt lat="42.2027359" lon="14.2096185"><ele>412.79999999999995</ele><time>2026-05-01T12:23:04.005Z</time></trkpt><trkpt lat="42.2028467" lon="14.2096482"><ele>412.20000000000005</ele><time>2026-05-01T12:23:06.006Z</time></trkpt><trkpt lat="42.2029606" lon="14.2097153"><ele>411.6</ele><time>2026-05-01T12:23:08.005Z</time></trkpt><trkpt lat="42.203017" lon="14.2097535"><ele>411.0</ele><time>2026-05-01T12:23:09.005Z</time></trkpt><trkpt lat="42.2031283" lon="14.2098021"><ele>410.6</ele><time>2026-05-01T12:23:11.005Z</time></trkpt><trkpt lat="42.2032322" lon="14.2098203"><ele>410.20000000000005</ele><time>2026-05-01T12:23:13.005Z</time></trkpt><trkpt lat="42.203356" lon="14.2098448"><ele>409.79999999999995</ele><time>2026-05-01T12:23:15.005Z</time></trkpt><trkpt lat="42.2034829" lon="14.2098538"><ele>409.4</ele><time>2026-05-01T12:23:17.005Z</time></trkpt><trkpt lat="42.2035488" lon="14.2098565"><ele>409.0</ele><time>2026-05-01T12:23:18.005Z</time></trkpt><trkpt lat="42.2036137" lon="14.2098607"><ele>409.00000000000006</ele><time>2026-05-01T12:23:19.005Z</time></trkpt><trkpt lat="42.2036772" lon="14.2098679"><ele>409.0</ele><time>2026-05-01T12:23:20.005Z</time></trkpt><trkpt lat="42.2037579" lon="14.2098628"><ele>409.0</ele><time>2026-05-01T12:23:22.005Z</time></trkpt><trkpt lat="42.203838" lon="14.2097941"><ele>409.0</ele><time>2026-05-01T12:23:24.005Z</time></trkpt><trkpt lat="42.2039045" lon="14.2097274"><ele>409.00000000000006</ele><time>2026-05-01T12:23:26.005Z</time></trkpt><trkpt lat="42.2039621" lon="14.209655"><ele>409.0</ele><time>2026-05-01T12:23:28.005Z</time></trkpt><trkpt lat="42.2040545" lon="14.2095788"><ele>408.0</ele><time>2026-05-01T12:23:30.005Z</time></trkpt><trkpt lat="42.2041652" lon="14.2095459"><ele>407.0</ele><time>2026-05-01T12:23:32.005Z</time></trkpt><trkpt lat="42.2042828" lon="14.2095735"><ele>406.0</ele><time>2026-05-01T12:23:34.005Z</time></trkpt><trkpt lat="42.2043883" lon="14.2096412"><ele>405.0</ele><time>2026-05-01T12:23:36.005Z</time></trkpt><trkpt lat="42.2044945" lon="14.2097379"><ele>405.0</ele><time>2026-05-01T12:23:38.005Z</time></trkpt><trkpt lat="42.2045485" lon="14.2097943"><ele>405.0</ele><time>2026-05-01T12:23:39.005Z</time></trkpt><trkpt lat="42.2045974" lon="14.2098504"><ele>405.0</ele><time>2026-05-01T12:23:40.005Z</time></trkpt><trkpt lat="42.2046894" lon="14.2099564"><ele>405.0</ele><time>2026-05-01T12:23:42.005Z</time></trkpt><trkpt lat="42.2047649" lon="14.2100738"><ele>405.0</ele><time>2026-05-01T12:23:44.006Z</time></trkpt><trkpt lat="42.2048479" lon="14.2101773"><ele>403.6</ele><time>2026-05-01T12:23:46.005Z</time></trkpt><trkpt lat="42.2048928" lon="14.2102389"><ele>402.2</ele><time>2026-05-01T12:23:47.005Z</time></trkpt><trkpt lat="42.2049843" lon="14.2103346"><ele>400.79999999999995</ele><time>2026-05-01T12:23:49.005Z</time></trkpt><trkpt lat="42.2050889" lon="14.2104124"><ele>399.4</ele><time>2026-05-01T12:23:51.005Z</time></trkpt><trkpt lat="42.2052118" lon="14.2104357"><ele>398.0</ele><time>2026-05-01T12:23:53.005Z</time></trkpt><trkpt lat="42.2052938" lon="14.2104293"><ele>397.99999999999994</ele><time>2026-05-01T12:23:54.005Z</time></trkpt><trkpt lat="42.205383" lon="14.2104292"><ele>398.0</ele><time>2026-05-01T12:23:55.005Z</time></trkpt><trkpt lat="42.2054587" lon="14.2104419"><ele>398.0</ele><time>2026-05-01T12:23:56.006Z</time></trkpt><trkpt lat="42.2055188" lon="14.2104713"><ele>398.0</ele><time>2026-05-01T12:23:57.005Z</time></trkpt><trkpt lat="42.2056122" lon="14.2105614"><ele>397.99999999999994</ele><time>2026-05-01T12:23:59.005Z</time></trkpt><trkpt lat="42.2057055" lon="14.2106054"><ele>398.0</ele><time>2026-05-01T12:24:01.005Z</time></trkpt><trkpt lat="42.2058142" lon="14.2106946"><ele>394.79999999999995</ele><time>2026-05-01T12:24:03.005Z</time></trkpt><trkpt lat="42.2058742" lon="14.2107598"><ele>391.6</ele><time>2026-05-01T12:24:04.005Z</time></trkpt><trkpt lat="42.20593" lon="14.2108127"><ele>388.4</ele><time>2026-05-01T12:24:05.005Z</time></trkpt><trkpt lat="42.2060359" lon="14.2108778"><ele>385.20000000000005</ele><time>2026-05-01T12:24:07.005Z</time></trkpt><trkpt lat="42.2061612" lon="14.2108853"><ele>382.0</ele><time>2026-05-01T12:24:09.005Z</time></trkpt><trkpt lat="42.2062646" lon="14.2108474"><ele>382.0</ele><time>2026-05-01T12:24:11.005Z</time></trkpt><trkpt lat="42.2063177" lon="14.210762"><ele>382.0</ele><time>2026-05-01T12:24:13.005Z</time></trkpt><trkpt lat="42.2063936" lon="14.2106466"><ele>382.0</ele><time>2026-05-01T12:24:15.005Z</time></trkpt><trkpt lat="42.2064784" lon="14.2105716"><ele>382.0</ele><time>2026-05-01T12:24:17.005Z</time></trkpt><trkpt lat="42.2065976" lon="14.2105392"><ele>382.0</ele><time>2026-05-01T12:24:19.005Z</time></trkpt><trkpt lat="42.2067119" lon="14.2105629"><ele>381.8333333333333</ele><time>2026-05-01T12:24:21.005Z</time></trkpt><trkpt lat="42.2068022" lon="14.2106413"><ele>381.66666666666663</ele><time>2026-05-01T12:24:23.005Z</time></trkpt><trkpt lat="42.2068992" lon="14.2107429"><ele>381.5</ele><time>2026-05-01T12:24:25.005Z</time></trkpt><trkpt lat="42.2069587" lon="14.2107962"><ele>381.3333333333333</ele><time>2026-05-01T12:24:26.005Z</time></trkpt><trkpt lat="42.2070154" lon="14.2108573"><ele>381.1666666666667</ele><time>2026-05-01T12:24:27.005Z</time></trkpt><trkpt lat="42.2070691" lon="14.2109236"><ele>381.0</ele><time>2026-05-01T12:24:28.005Z</time></trkpt><trkpt lat="42.2071136" lon="14.2109951"><ele>381.0</ele><time>2026-05-01T12:24:29.005Z</time></trkpt><trkpt lat="42.2071589" lon="14.2110649"><ele>381.0</ele><time>2026-05-01T12:24:30.005Z</time></trkpt><trkpt lat="42.2072638" lon="14.2111297"><ele>381.0</ele><time>2026-05-01T12:24:32.005Z</time></trkpt><trkpt lat="42.2073722" lon="14.2111341"><ele>381.0</ele><time>2026-05-01T12:24:34.005Z</time></trkpt><trkpt lat="42.2074521" lon="14.2111847"><ele>381.0</ele><time>2026-05-01T12:24:36.005Z</time></trkpt><trkpt lat="42.2075439" lon="14.2112188"><ele>381.0</ele><time>2026-05-01T12:24:38.005Z</time></trkpt><trkpt lat="42.2076428" lon="14.2112194"><ele>381.0</ele><time>2026-05-01T12:24:40.005Z</time></trkpt><trkpt lat="42.2077313" lon="14.2112326"><ele>381.0</ele><time>2026-05-01T12:24:42.005Z</time></trkpt><trkpt lat="42.2078135" lon="14.2112881"><ele>381.0</ele><time>2026-05-01T12:24:44.005Z</time></trkpt><trkpt lat="42.2079014" lon="14.2113365"><ele>381.0</ele><time>2026-05-01T12:24:46.005Z</time></trkpt><trkpt lat="42.2080002" lon="14.2113757"><ele>381.0</ele><time>2026-05-01T12:24:48.005Z</time></trkpt><trkpt lat="42.2081072" lon="14.2114264"><ele>381.0</ele><time>2026-05-01T12:24:50.005Z</time></trkpt><trkpt lat="42.208227" lon="14.2114739"><ele>381.0</ele><time>2026-05-01T12:24:52.005Z</time></trkpt><trkpt lat="42.2082909" lon="14.211508"><ele>381.0</ele><time>2026-05-01T12:24:53.005Z</time></trkpt><trkpt lat="42.2083548" lon="14.2115339"><ele>381.0</ele><time>2026-05-01T12:24:54.005Z</time></trkpt><trkpt lat="42.2084642" lon="14.2115681"><ele>379.0</ele><time>2026-05-01T12:24:56.005Z</time></trkpt><trkpt lat="42.2085749" lon="14.2115422"><ele>377.0</ele><time>2026-05-01T12:24:58.005Z</time></trkpt><trkpt lat="42.2086807" lon="14.2115462"><ele>375.0</ele><time>2026-05-01T12:25:00.005Z</time></trkpt><trkpt lat="42.2087888" lon="14.2116109"><ele>373.0</ele><time>2026-05-01T12:25:02.005Z</time></trkpt><trkpt lat="42.2088719" lon="14.2117095"><ele>371.0</ele><time>2026-05-01T12:25:04.005Z</time></trkpt><trkpt lat="42.2089307" lon="14.2118509"><ele>370.83333333333337</ele><time>2026-05-01T12:25:06.005Z</time></trkpt><trkpt lat="42.2090263" lon="14.2119438"><ele>370.6666666666667</ele><time>2026-05-01T12:25:08.005Z</time></trkpt><trkpt lat="42.2090852" lon="14.2119798"><ele>370.5</ele><time>2026-05-01T12:25:09.005Z</time></trkpt><trkpt lat="42.2091452" lon="14.2120275"><ele>370.3333333333333</ele><time>2026-05-01T12:25:10.005Z</time></trkpt><trkpt lat="42.2092111" lon="14.2120682"><ele>370.16666666666663</ele><time>2026-05-01T12:25:11.005Z</time></trkpt><trkpt lat="42.209276" lon="14.2120931"><ele>370.0</ele><time>2026-05-01T12:25:12.005Z</time></trkpt><trkpt lat="42.2093393" lon="14.2121148"><ele>370.0</ele><time>2026-05-01T12:25:13.005Z</time></trkpt><trkpt lat="42.209402" lon="14.2121483"><ele>370.0</ele><time>2026-05-01T12:25:14.005Z</time></trkpt><trkpt lat="42.2094681" lon="14.2121822"><ele>370.0</ele><time>2026-05-01T12:25:15.005Z</time></trkpt><trkpt lat="42.209532" lon="14.2122111"><ele>370.0</ele><time>2026-05-01T12:25:16.005Z</time></trkpt><trkpt lat="42.2096545" lon="14.2122492"><ele>370.0</ele><time>2026-05-01T12:25:18.005Z</time></trkpt><trkpt lat="42.2097605" lon="14.2122942"><ele>370.0</ele><time>2026-05-01T12:25:20.005Z</time></trkpt><trkpt lat="42.2098307" lon="14.212287"><ele>369.5</ele><time>2026-05-01T12:25:22.005Z</time></trkpt><trkpt lat="42.2099122" lon="14.2122669"><ele>369.0</ele><time>2026-05-01T12:25:25.005Z</time></trkpt><trkpt lat="42.2099486" lon="14.2123508"><ele>368.5</ele><time>2026-05-01T12:25:27.005Z</time></trkpt><trkpt lat="42.2099345" lon="14.2124428"><ele>368.0</ele><time>2026-05-01T12:25:28.005Z</time></trkpt><trkpt lat="42.2099149" lon="14.2125387"><ele>367.5</ele><time>2026-05-01T12:25:29.005Z</time></trkpt><trkpt lat="42.2098708" lon="14.2126351"><ele>367.0</ele><time>2026-05-01T12:25:30.005Z</time></trkpt><trkpt lat="42.209799" lon="14.2127138"><ele>366.8333333333333</ele><time>2026-05-01T12:25:31.005Z</time></trkpt><trkpt lat="42.2097171" lon="14.2127722"><ele>366.66666666666663</ele><time>2026-05-01T12:25:32.005Z</time></trkpt><trkpt lat="42.2096426" lon="14.2128449"><ele>366.5</ele><time>2026-05-01T12:25:33.005Z</time></trkpt><trkpt lat="42.2095899" lon="14.2129348"><ele>366.3333333333333</ele><time>2026-05-01T12:25:34.005Z</time></trkpt><trkpt lat="42.2095621" lon="14.2130395"><ele>366.1666666666667</ele><time>2026-05-01T12:25:35.005Z</time></trkpt><trkpt lat="42.209566" lon="14.2131666"><ele>366.0</ele><time>2026-05-01T12:25:36.005Z</time></trkpt><trkpt lat="42.2096042" lon="14.2132932"><ele>365.20000000000005</ele><time>2026-05-01T12:25:37.005Z</time></trkpt><trkpt lat="42.209664" lon="14.2134129"><ele>364.40000000000003</ele><time>2026-05-01T12:25:38.005Z</time></trkpt><trkpt lat="42.2097261" lon="14.2135312"><ele>363.6</ele><time>2026-05-01T12:25:39.005Z</time></trkpt><trkpt lat="42.2097728" lon="14.213659"><ele>362.8</ele><time>2026-05-01T12:25:40.005Z</time></trkpt><trkpt lat="42.2097986" lon="14.2137879"><ele>362.0</ele><time>2026-05-01T12:25:41.005Z</time></trkpt><trkpt lat="42.209812" lon="14.2139192"><ele>361.20000000000005</ele><time>2026-05-01T12:25:42.005Z</time></trkpt><trkpt lat="42.2098305" lon="14.2140514"><ele>360.4</ele><time>2026-05-01T12:25:43.005Z</time></trkpt><trkpt lat="42.2098695" lon="14.2141742"><ele>359.6</ele><time>2026-05-01T12:25:44.005Z</time></trkpt><trkpt lat="42.2099341" lon="14.2142671"><ele>358.79999999999995</ele><time>2026-05-01T12:25:45.005Z</time></trkpt><trkpt lat="42.2100163" lon="14.2143339"><ele>358.0</ele><time>2026-05-01T12:25:46.005Z</time></trkpt><trkpt lat="42.2101074" lon="14.2143992"><ele>358.0</ele><time>2026-05-01T12:25:47.005Z</time></trkpt><trkpt lat="42.2101908" lon="14.2144848"><ele>358.0</ele><time>2026-05-01T12:25:48.005Z</time></trkpt><trkpt lat="42.2102333" lon="14.2145808"><ele>358.0</ele><time>2026-05-01T12:25:49.005Z</time></trkpt><trkpt lat="42.210239" lon="14.2147173"><ele>358.0</ele><time>2026-05-01T12:25:51.005Z</time></trkpt><trkpt lat="42.2102188" lon="14.21487"><ele>358.0</ele><time>2026-05-01T12:25:53.005Z</time></trkpt><trkpt lat="42.2101942" lon="14.2149685"><ele>359.5</ele><time>2026-05-01T12:25:55.005Z</time></trkpt><trkpt lat="42.2101218" lon="14.2149986"><ele>361.0</ele><time>2026-05-01T12:25:57.005Z</time></trkpt><trkpt lat="42.2100592" lon="14.2149866"><ele>362.5</ele><time>2026-05-01T12:26:00.005Z</time></trkpt><trkpt lat="42.2099886" lon="14.21499"><ele>364.0</ele><time>2026-05-01T12:26:03.005Z</time></trkpt><trkpt lat="42.2098785" lon="14.2149836"><ele>365.5</ele><time>2026-05-01T12:26:05.005Z</time></trkpt><trkpt lat="42.2098073" lon="14.2149763"><ele>367.0</ele><time>2026-05-01T12:26:06.005Z</time></trkpt><trkpt lat="42.2097341" lon="14.2149657"><ele>368.57142857142856</ele><time>2026-05-01T12:26:07.005Z</time></trkpt><trkpt lat="42.2096624" lon="14.2149506"><ele>370.14285714285717</ele><time>2026-05-01T12:26:08.005Z</time></trkpt><trkpt lat="42.2095942" lon="14.2149361"><ele>371.7142857142857</ele><time>2026-05-01T12:26:09.005Z</time></trkpt><trkpt lat="42.2095188" lon="14.2149242"><ele>373.2857142857143</ele><time>2026-05-01T12:26:10.005Z</time></trkpt><trkpt lat="42.2094333" lon="14.2149239"><ele>374.8571428571429</ele><time>2026-05-01T12:26:11.005Z</time></trkpt><trkpt lat="42.2093567" lon="14.2149195"><ele>376.42857142857144</ele><time>2026-05-01T12:26:12.005Z</time></trkpt><trkpt lat="42.2092917" lon="14.2149093"><ele>378.0</ele><time>2026-05-01T12:26:13.005Z</time></trkpt><trkpt lat="42.2092254" lon="14.2149028"><ele>378.0</ele><time>2026-05-01T12:26:14.005Z</time></trkpt><trkpt lat="42.2091583" lon="14.2148985"><ele>378.0</ele><time>2026-05-01T12:26:15.005Z</time></trkpt><trkpt lat="42.2090898" lon="14.2148822"><ele>378.0</ele><time>2026-05-01T12:26:16.006Z</time></trkpt><trkpt lat="42.2090229" lon="14.2148563"><ele>378.0</ele><time>2026-05-01T12:26:17.006Z</time></trkpt><trkpt lat="42.2089319" lon="14.2147608"><ele>378.0</ele><time>2026-05-01T12:26:19.006Z</time></trkpt><trkpt lat="42.2088756" lon="14.2146606"><ele>378.0</ele><time>2026-05-01T12:26:21.006Z</time></trkpt><trkpt lat="42.2088408" lon="14.2145446"><ele>378.0</ele><time>2026-05-01T12:26:23.006Z</time></trkpt><trkpt lat="42.2088333" lon="14.2144262"><ele>378.0</ele><time>2026-05-01T12:26:25.006Z</time></trkpt><trkpt lat="42.2088159" lon="14.214309"><ele>378.0</ele><time>2026-05-01T12:26:27.006Z</time></trkpt><trkpt lat="42.2088109" lon="14.2141964"><ele>378.0</ele><time>2026-05-01T12:26:29.006Z</time></trkpt><trkpt lat="42.2088094" lon="14.2140627"><ele>378.0</ele><time>2026-05-01T12:26:31.006Z</time></trkpt><trkpt lat="42.2087685" lon="14.2139484"><ele>378.0</ele><time>2026-05-01T12:26:33.006Z</time></trkpt><trkpt lat="42.2086935" lon="14.2138561"><ele>378.0</ele><time>2026-05-01T12:26:35.006Z</time></trkpt><trkpt lat="42.2086054" lon="14.2137624"><ele>378.0</ele><time>2026-05-01T12:26:37.006Z</time></trkpt><trkpt lat="42.2085501" lon="14.213712"><ele>378.0</ele><time>2026-05-01T12:26:38.006Z</time></trkpt><trkpt lat="42.2084504" lon="14.2136084"><ele>378.0</ele><time>2026-05-01T12:26:40.006Z</time></trkpt><trkpt lat="42.2083649" lon="14.2134929"><ele>378.0</ele><time>2026-05-01T12:26:42.006Z</time></trkpt><trkpt lat="42.2082936" lon="14.2134075"><ele>378.0</ele><time>2026-05-01T12:26:44.006Z</time></trkpt><trkpt lat="42.208191" lon="14.2133473"><ele>378.0</ele><time>2026-05-01T12:26:47.006Z</time></trkpt><trkpt lat="42.2080905" lon="14.2133212"><ele>378.0</ele><time>2026-05-01T12:26:49.006Z</time></trkpt><trkpt lat="42.2079983" lon="14.2133085"><ele>378.0</ele><time>2026-05-01T12:26:51.006Z</time></trkpt><trkpt lat="42.2079147" lon="14.213298"><ele>380.59999999999997</ele><time>2026-05-01T12:26:53.006Z</time></trkpt><trkpt lat="42.2078381" lon="14.2133076"><ele>383.2</ele><time>2026-05-01T12:26:55.006Z</time></trkpt><trkpt lat="42.2077498" lon="14.2133114"><ele>385.8</ele><time>2026-05-01T12:26:57.006Z</time></trkpt><trkpt lat="42.2076602" lon="14.2132606"><ele>388.4</ele><time>2026-05-01T12:26:59.006Z</time></trkpt><trkpt lat="42.2075646" lon="14.2131975"><ele>391.0</ele><time>2026-05-01T12:27:01.006Z</time></trkpt><trkpt lat="42.2074576" lon="14.2131899"><ele>391.00000000000006</ele><time>2026-05-01T12:27:03.006Z</time></trkpt><trkpt lat="42.207362" lon="14.2132112"><ele>391.0</ele><time>2026-05-01T12:27:05.006Z</time></trkpt><trkpt lat="42.2072831" lon="14.2132223"><ele>391.0</ele><time>2026-05-01T12:27:07.006Z</time></trkpt><trkpt lat="42.2072106" lon="14.2132752"><ele>391.0</ele><time>2026-05-01T12:27:10.006Z</time></trkpt><trkpt lat="42.2071475" lon="14.2133311"><ele>391.00000000000006</ele><time>2026-05-01T12:27:12.006Z</time></trkpt><trkpt lat="42.2070633" lon="14.2133712"><ele>391.0</ele><time>2026-05-01T12:27:14.006Z</time></trkpt><trkpt lat="42.2069906" lon="14.213351"><ele>392.83333333333337</ele><time>2026-05-01T12:27:16.006Z</time></trkpt><trkpt lat="42.2068747" lon="14.213354"><ele>394.6666666666667</ele><time>2026-05-01T12:27:18.006Z</time></trkpt><trkpt lat="42.2068094" lon="14.2133681"><ele>396.5</ele><time>2026-05-01T12:27:19.006Z</time></trkpt><trkpt lat="42.2067377" lon="14.2133829"><ele>398.33333333333337</ele><time>2026-05-01T12:27:20.006Z</time></trkpt><trkpt lat="42.2066195" lon="14.2134437"><ele>400.1666666666667</ele><time>2026-05-01T12:27:22.006Z</time></trkpt><trkpt lat="42.206555" lon="14.2134704"><ele>402.0</ele><time>2026-05-01T12:27:23.006Z</time></trkpt><trkpt lat="42.2064953" lon="14.2134979"><ele>403.6</ele><time>2026-05-01T12:27:24.006Z</time></trkpt><trkpt lat="42.2063692" lon="14.2134944"><ele>405.20000000000005</ele><time>2026-05-01T12:27:26.006Z</time></trkpt><trkpt lat="42.2062683" lon="14.2134565"><ele>406.8</ele><time>2026-05-01T12:27:28.006Z</time></trkpt><trkpt lat="42.2061923" lon="14.2134302"><ele>408.4</ele><time>2026-05-01T12:27:30.006Z</time></trkpt><trkpt lat="42.2060919" lon="14.2134462"><ele>410.0</ele><time>2026-05-01T12:27:32.006Z</time></trkpt><trkpt lat="42.2059796" lon="14.2134696"><ele>409.99999999999994</ele><time>2026-05-01T12:27:34.006Z</time></trkpt><trkpt lat="42.2059158" lon="14.2134806"><ele>410.0</ele><time>2026-05-01T12:27:35.006Z</time></trkpt><trkpt lat="42.2058514" lon="14.2134888"><ele>410.0</ele><time>2026-05-01T12:27:36.006Z</time></trkpt><trkpt lat="42.2057322" lon="14.2134867"><ele>410.0</ele><time>2026-05-01T12:27:38.006Z</time></trkpt><trkpt lat="42.2056254" lon="14.2134665"><ele>409.99999999999994</ele><time>2026-05-01T12:27:40.006Z</time></trkpt><trkpt lat="42.2055334" lon="14.2134498"><ele>410.0</ele><time>2026-05-01T12:27:42.006Z</time></trkpt><trkpt lat="42.2054206" lon="14.213447"><ele>410.8333333333333</ele><time>2026-05-01T12:27:44.006Z</time></trkpt><trkpt lat="42.205347" lon="14.2134535"><ele>411.66666666666663</ele><time>2026-05-01T12:27:45.006Z</time></trkpt><trkpt lat="42.2052798" lon="14.2134541"><ele>412.5</ele><time>2026-05-01T12:27:46.006Z</time></trkpt><trkpt lat="42.2052086" lon="14.2134562"><ele>413.33333333333337</ele><time>2026-05-01T12:27:47.006Z</time></trkpt><trkpt lat="42.2051451" lon="14.2134455"><ele>414.1666666666667</ele><time>2026-05-01T12:27:48.006Z</time></trkpt><trkpt lat="42.2050543" lon="14.2134498"><ele>415.0</ele><time>2026-05-01T12:27:50.006Z</time></trkpt><trkpt lat="42.2049675" lon="14.2134474"><ele>415.0</ele><time>2026-05-01T12:27:52.006Z</time></trkpt><trkpt lat="42.2048717" lon="14.2134375"><ele>415.0</ele><time>2026-05-01T12:27:54.006Z</time></trkpt><trkpt lat="42.2047721" lon="14.2134542"><ele>415.0</ele><time>2026-05-01T12:27:56.006Z</time></trkpt><trkpt lat="42.204677" lon="14.213495"><ele>415.0</ele><time>2026-05-01T12:27:58.006Z</time></trkpt><trkpt lat="42.2045982" lon="14.2135287"><ele>415.0</ele><time>2026-05-01T12:28:00.006Z</time></trkpt><trkpt lat="42.204509" lon="14.2135541"><ele>416.4</ele><time>2026-05-01T12:28:02.006Z</time></trkpt><trkpt lat="42.2043976" lon="14.2135821"><ele>417.8</ele><time>2026-05-01T12:28:04.006Z</time></trkpt><trkpt lat="42.2043306" lon="14.2135816"><ele>419.20000000000005</ele><time>2026-05-01T12:28:05.006Z</time></trkpt><trkpt lat="42.2042235" lon="14.2135713"><ele>420.6</ele><time>2026-05-01T12:28:07.006Z</time></trkpt><trkpt lat="42.2041146" lon="14.2135769"><ele>422.0</ele><time>2026-05-01T12:28:09.006Z</time></trkpt><trkpt lat="42.2039946" lon="14.2135591"><ele>423.49999999999994</ele><time>2026-05-01T12:28:11.006Z</time></trkpt><trkpt lat="42.203884" lon="14.2135684"><ele>425.0</ele><time>2026-05-01T12:28:13.006Z</time></trkpt><trkpt lat="42.2037561" lon="14.2135805"><ele>426.5</ele><time>2026-05-01T12:28:15.006Z</time></trkpt><trkpt lat="42.2036917" lon="14.2135945"><ele>428.0</ele><time>2026-05-01T12:28:16.006Z</time></trkpt><trkpt lat="42.203622" lon="14.2136048"><ele>429.49999999999994</ele><time>2026-05-01T12:28:17.006Z</time></trkpt><trkpt lat="42.2035573" lon="14.2136138"><ele>431.0</ele><time>2026-05-01T12:28:18.006Z</time></trkpt><trkpt lat="42.2034493" lon="14.2136027"><ele>431.0</ele><time>2026-05-01T12:28:20.006Z</time></trkpt><trkpt lat="42.2033858" lon="14.2135826"><ele>431.0</ele><time>2026-05-01T12:28:21.006Z</time></trkpt><trkpt lat="42.2033215" lon="14.2135732"><ele>431.0</ele><time>2026-05-01T12:28:22.006Z</time></trkpt><trkpt lat="42.2032559" lon="14.2135732"><ele>431.0</ele><time>2026-05-01T12:28:23.006Z</time></trkpt><trkpt lat="42.203183" lon="14.2135764"><ele>431.0</ele><time>2026-05-01T12:28:24.006Z</time></trkpt><trkpt lat="42.2031157" lon="14.2135703"><ele>431.0</ele><time>2026-05-01T12:28:25.006Z</time></trkpt><trkpt lat="42.2030504" lon="14.2135773"><ele>431.0</ele><time>2026-05-01T12:28:26.006Z</time></trkpt><trkpt lat="42.2029761" lon="14.2135777"><ele>432.49999999999994</ele><time>2026-05-01T12:28:27.006Z</time></trkpt><trkpt lat="42.2029015" lon="14.2135692"><ele>434.0</ele><time>2026-05-01T12:28:28.006Z</time></trkpt><trkpt lat="42.2028256" lon="14.2135642"><ele>435.5</ele><time>2026-05-01T12:28:29.006Z</time></trkpt><trkpt lat="42.2027503" lon="14.2135567"><ele>437.0</ele><time>2026-05-01T12:28:30.006Z</time></trkpt><trkpt lat="42.2026749" lon="14.2135489"><ele>438.49999999999994</ele><time>2026-05-01T12:28:31.006Z</time></trkpt><trkpt lat="42.2026075" lon="14.2135416"><ele>440.0</ele><time>2026-05-01T12:28:32.006Z</time></trkpt><trkpt lat="42.2024937" lon="14.2135205"><ele>440.0</ele><time>2026-05-01T12:28:34.006Z</time></trkpt><trkpt lat="42.2023746" lon="14.2134999"><ele>440.0</ele><time>2026-05-01T12:28:36.006Z</time></trkpt><trkpt lat="42.2022536" lon="14.2134965"><ele>440.0</ele><time>2026-05-01T12:28:38.006Z</time></trkpt><trkpt lat="42.202132" lon="14.2135214"><ele>440.0</ele><time>2026-05-01T12:28:40.006Z</time></trkpt><trkpt lat="42.2020115" lon="14.2135612"><ele>442.8</ele><time>2026-05-01T12:28:42.006Z</time></trkpt><trkpt lat="42.2019075" lon="14.2135942"><ele>445.6</ele><time>2026-05-01T12:28:44.006Z</time></trkpt><trkpt lat="42.201826" lon="14.2136123"><ele>448.4</ele><time>2026-05-01T12:28:46.006Z</time></trkpt><trkpt lat="42.201729" lon="14.2136369"><ele>451.2</ele><time>2026-05-01T12:28:48.006Z</time></trkpt><trkpt lat="42.2016135" lon="14.2136441"><ele>454.0</ele><time>2026-05-01T12:28:50.006Z</time></trkpt><trkpt lat="42.2015475" lon="14.2136483"><ele>455.6666666666667</ele><time>2026-05-01T12:28:51.006Z</time></trkpt><trkpt lat="42.2014714" lon="14.2136455"><ele>457.33333333333337</ele><time>2026-05-01T12:28:52.006Z</time></trkpt><trkpt lat="42.2013811" lon="14.2136467"><ele>459.0</ele><time>2026-05-01T12:28:53.006Z</time></trkpt><trkpt lat="42.2012902" lon="14.2136461"><ele>460.66666666666663</ele><time>2026-05-01T12:28:54.006Z</time></trkpt><trkpt lat="42.2012126" lon="14.2136423"><ele>462.3333333333333</ele><time>2026-05-01T12:28:55.006Z</time></trkpt><trkpt lat="42.2011427" lon="14.213631"><ele>464.0</ele><time>2026-05-01T12:28:56.006Z</time></trkpt><trkpt lat="42.2010735" lon="14.2136152"><ele>463.99999999999994</ele><time>2026-05-01T12:28:57.006Z</time></trkpt><trkpt lat="42.2010034" lon="14.2135976"><ele>464.0</ele><time>2026-05-01T12:28:58.006Z</time></trkpt><trkpt lat="42.2009317" lon="14.2135799"><ele>464.0</ele><time>2026-05-01T12:28:59.006Z</time></trkpt><trkpt lat="42.2008657" lon="14.2135617"><ele>464.0</ele><time>2026-05-01T12:29:00.006Z</time></trkpt><trkpt lat="42.2008038" lon="14.2135435"><ele>463.99999999999994</ele><time>2026-05-01T12:29:01.006Z</time></trkpt><trkpt lat="42.2006928" lon="14.2134999"><ele>464.0</ele><time>2026-05-01T12:29:03.006Z</time></trkpt><trkpt lat="42.2006266" lon="14.2134789"><ele>463.79999999999995</ele><time>2026-05-01T12:29:04.006Z</time></trkpt><trkpt lat="42.2005151" lon="14.2134841"><ele>463.59999999999997</ele><time>2026-05-01T12:29:06.006Z</time></trkpt><trkpt lat="42.2004092" lon="14.2134873"><ele>463.4</ele><time>2026-05-01T12:29:08.006Z</time></trkpt><trkpt lat="42.2002937" lon="14.2134568"><ele>463.2</ele><time>2026-05-01T12:29:10.006Z</time></trkpt><trkpt lat="42.2002293" lon="14.2134367"><ele>463.0</ele><time>2026-05-01T12:29:11.006Z</time></trkpt><trkpt lat="42.2001615" lon="14.213434"><ele>463.0</ele><time>2026-05-01T12:29:12.006Z</time></trkpt><trkpt lat="42.200098" lon="14.2134415"><ele>462.99999999999994</ele><time>2026-05-01T12:29:13.006Z</time></trkpt><trkpt lat="42.1999748" lon="14.2134841"><ele>462.99999999999994</ele><time>2026-05-01T12:29:15.006Z</time></trkpt><trkpt lat="42.1998641" lon="14.2135517"><ele>463.0</ele><time>2026-05-01T12:29:17.006Z</time></trkpt><trkpt lat="42.1998041" lon="14.2136039"><ele>463.0</ele><time>2026-05-01T12:29:18.006Z</time></trkpt><trkpt lat="42.1997431" lon="14.2136524"><ele>460.0</ele><time>2026-05-01T12:29:19.006Z</time></trkpt><trkpt lat="42.1996527" lon="14.2137318"><ele>456.99999999999994</ele><time>2026-05-01T12:29:21.006Z</time></trkpt><trkpt lat="42.1995647" lon="14.213836"><ele>453.99999999999994</ele><time>2026-05-01T12:29:23.006Z</time></trkpt><trkpt lat="42.1995124" lon="14.2138892"><ele>451.0</ele><time>2026-05-01T12:29:24.006Z</time></trkpt><trkpt lat="42.1994058" lon="14.2139612"><ele>448.0</ele><time>2026-05-01T12:29:26.006Z</time></trkpt><trkpt lat="42.1993293" lon="14.2139782"><ele>449.0</ele><time>2026-05-01T12:29:28.006Z</time></trkpt><trkpt lat="42.1992619" lon="14.2140116"><ele>449.99999999999994</ele><time>2026-05-01T12:29:31.006Z</time></trkpt><trkpt lat="42.1991834" lon="14.2140859"><ele>450.99999999999994</ele><time>2026-05-01T12:29:38.006Z</time></trkpt><trkpt lat="42.1990988" lon="14.2141605"><ele>452.0</ele><time>2026-05-01T12:29:40.006Z</time></trkpt><trkpt lat="42.1990137" lon="14.2142764"><ele>453.0</ele><time>2026-05-01T12:29:42.006Z</time></trkpt><trkpt lat="42.1989589" lon="14.214342"><ele>452.99999999999994</ele><time>2026-05-01T12:29:43.006Z</time></trkpt><trkpt lat="42.1989075" lon="14.2144036"><ele>453.0</ele><time>2026-05-01T12:29:44.006Z</time></trkpt><trkpt lat="42.198854" lon="14.2144743"><ele>452.99999999999994</ele><time>2026-05-01T12:29:45.006Z</time></trkpt><trkpt lat="42.1988033" lon="14.2145611"><ele>452.99999999999994</ele><time>2026-05-01T12:29:46.006Z</time></trkpt><trkpt lat="42.1987597" lon="14.2146498"><ele>453.0</ele><time>2026-05-01T12:29:47.006Z</time></trkpt><trkpt lat="42.1987231" lon="14.2147266"><ele>452.99999999999994</ele><time>2026-05-01T12:29:48.006Z</time></trkpt><trkpt lat="42.1986753" lon="14.2147994"><ele>452.99999999999994</ele><time>2026-05-01T12:29:50.006Z</time></trkpt><trkpt lat="42.1986139" lon="14.2148595"><ele>456.4</ele><time>2026-05-01T12:29:52.006Z</time></trkpt><trkpt lat="42.1985583" lon="14.2149167"><ele>459.79999999999995</ele><time>2026-05-01T12:29:54.006Z</time></trkpt><trkpt lat="42.1984989" lon="14.2150221"><ele>463.2</ele><time>2026-05-01T12:29:57.006Z</time></trkpt><trkpt lat="42.1984504" lon="14.2150863"><ele>466.6</ele><time>2026-05-01T12:30:00.006Z</time></trkpt><trkpt lat="42.1983789" lon="14.2151608"><ele>470.0</ele><time>2026-05-01T12:30:52.006Z</time></trkpt><trkpt lat="42.1982655" lon="14.2153704"><ele>469.99999999999994</ele><time>2026-05-01T12:43:27.006Z</time></trkpt><trkpt lat="42.1983083" lon="14.2154844"><ele>470.0</ele><time>2026-05-01T12:43:29.006Z</time></trkpt><trkpt lat="42.1983533" lon="14.2156008"><ele>470.0</ele><time>2026-05-01T12:43:31.006Z</time></trkpt><trkpt lat="42.1983929" lon="14.2157158"><ele>470.0</ele><time>2026-05-01T12:43:33.006Z</time></trkpt><trkpt lat="42.1984366" lon="14.2158088"><ele>469.99999999999994</ele><time>2026-05-01T12:43:35.006Z</time></trkpt><trkpt lat="42.1984199" lon="14.2158968"><ele>470.0</ele><time>2026-05-01T12:43:46.006Z</time></trkpt><trkpt lat="42.198344" lon="14.2159111"><ele>470.85714285714283</ele><time>2026-05-01T12:43:50.006Z</time></trkpt><trkpt lat="42.1982729" lon="14.2159202"><ele>471.71428571428567</ele><time>2026-05-01T12:43:53.006Z</time></trkpt><trkpt lat="42.1982051" lon="14.2159498"><ele>472.57142857142856</ele><time>2026-05-01T12:43:59.006Z</time></trkpt><trkpt lat="42.1981456" lon="14.2159186"><ele>473.42857142857144</ele><time>2026-05-01T12:44:03.006Z</time></trkpt><trkpt lat="42.1980936" lon="14.2158647"><ele>474.2857142857143</ele><time>2026-05-01T12:44:14.006Z</time></trkpt><trkpt lat="42.1981501" lon="14.2159157"><ele>475.1428571428571</ele><time>2026-05-01T12:48:07.005Z</time></trkpt><trkpt lat="42.1981015" lon="14.2158406"><ele>476.0</ele><time>2026-05-01T12:53:44.004Z</time></trkpt><trkpt lat="42.1980677" lon="14.21576"><ele>476.0</ele><time>2026-05-01T12:53:50.004Z</time></trkpt><trkpt lat="42.1980754" lon="14.2156693"><ele>476.0</ele><time>2026-05-01T12:53:55.004Z</time></trkpt><trkpt lat="42.1981279" lon="14.2156072"><ele>476.0</ele><time>2026-05-01T12:54:01.004Z</time></trkpt><trkpt lat="42.1981492" lon="14.2155137"><ele>476.0</ele><time>2026-05-01T12:54:06.004Z</time></trkpt><trkpt lat="42.1981768" lon="14.215428"><ele>476.0</ele><time>2026-05-01T12:54:11.004Z</time></trkpt><trkpt lat="42.1982217" lon="14.2153522"><ele>476.0</ele><time>2026-05-01T12:54:17.004Z</time></trkpt><trkpt lat="42.1981565" lon="14.2153117"><ele>476.0</ele><time>2026-05-01T12:54:26.004Z</time></trkpt><trkpt lat="42.1980891" lon="14.2153495"><ele>475.99999999999994</ele><time>2026-05-01T12:54:30.004Z</time></trkpt><trkpt lat="42.198034" lon="14.2154484"><ele>476.0</ele><time>2026-05-01T12:54:32.004Z</time></trkpt><trkpt lat="42.1980148" lon="14.2155498"><ele>476.0</ele><time>2026-05-01T12:54:35.004Z</time></trkpt><trkpt lat="42.1980079" lon="14.2156696"><ele>476.0</ele><time>2026-05-01T12:54:38.004Z</time></trkpt><trkpt lat="42.1980004" lon="14.2157591"><ele>475.99999999999994</ele><time>2026-05-01T12:54:41.004Z</time></trkpt><trkpt lat="42.1979833" lon="14.2158601"><ele>476.0</ele><time>2026-05-01T12:54:43.004Z</time></trkpt><trkpt lat="42.1979562" lon="14.2159551"><ele>475.99999999999994</ele><time>2026-05-01T12:54:45.004Z</time></trkpt><trkpt lat="42.1979133" lon="14.2160408"><ele>476.0</ele><time>2026-05-01T12:54:47.004Z</time></trkpt><trkpt lat="42.1978667" lon="14.2161078"><ele>476.0</ele><time>2026-05-01T12:54:49.004Z</time></trkpt><trkpt lat="42.197813" lon="14.2161658"><ele>476.0</ele><time>2026-05-01T12:55:16.004Z</time></trkpt><trkpt lat="42.1977511" lon="14.2162325"><ele>475.99999999999994</ele><time>2026-05-01T12:55:20.004Z</time></trkpt><trkpt lat="42.197696" lon="14.2163245"><ele>476.0</ele><time>2026-05-01T12:55:23.004Z</time></trkpt><trkpt lat="42.1976249" lon="14.2164399"><ele>479.16666666666663</ele><time>2026-05-01T12:55:25.004Z</time></trkpt><trkpt lat="42.1975705" lon="14.2164883"><ele>482.3333333333333</ele><time>2026-05-01T12:55:26.004Z</time></trkpt><trkpt lat="42.1975085" lon="14.2165954"><ele>485.5</ele><time>2026-05-01T12:55:28.004Z</time></trkpt><trkpt lat="42.1975022" lon="14.2166966"><ele>488.66666666666663</ele><time>2026-05-01T12:55:30.004Z</time></trkpt><trkpt lat="42.1974877" lon="14.216813"><ele>491.8333333333333</ele><time>2026-05-01T12:55:32.004Z</time></trkpt><trkpt lat="42.1974441" lon="14.2169233"><ele>495.0</ele><time>2026-05-01T12:55:34.004Z</time></trkpt><trkpt lat="42.197391" lon="14.216989"><ele>494.8</ele><time>2026-05-01T12:55:37.004Z</time></trkpt><trkpt lat="42.197311" lon="14.2170478"><ele>494.6</ele><time>2026-05-01T12:55:43.004Z</time></trkpt><trkpt lat="42.1972077" lon="14.2170592"><ele>494.4</ele><time>2026-05-01T12:55:45.004Z</time></trkpt><trkpt lat="42.1970744" lon="14.2170893"><ele>494.2</ele><time>2026-05-01T12:55:47.004Z</time></trkpt><trkpt lat="42.1969994" lon="14.2171165"><ele>494.0</ele><time>2026-05-01T12:55:48.004Z</time></trkpt><trkpt lat="42.1969191" lon="14.2171486"><ele>493.99999999999994</ele><time>2026-05-01T12:55:49.004Z</time></trkpt><trkpt lat="42.1968384" lon="14.2171786"><ele>494.0</ele><time>2026-05-01T12:55:50.004Z</time></trkpt><trkpt lat="42.1967559" lon="14.2172135"><ele>494.0</ele><time>2026-05-01T12:55:51.004Z</time></trkpt><trkpt lat="42.1966701" lon="14.2172423"><ele>494.0</ele><time>2026-05-01T12:55:52.004Z</time></trkpt><trkpt lat="42.196579" lon="14.2172708"><ele>493.99999999999994</ele><time>2026-05-01T12:55:53.004Z</time></trkpt><trkpt lat="42.1964868" lon="14.2173024"><ele>494.0</ele><time>2026-05-01T12:55:54.004Z</time></trkpt><trkpt lat="42.1963995" lon="14.2173294"><ele>497.2</ele><time>2026-05-01T12:55:55.004Z</time></trkpt><trkpt lat="42.196309" lon="14.2173611"><ele>500.4</ele><time>2026-05-01T12:55:56.004Z</time></trkpt><trkpt lat="42.1962125" lon="14.2173961"><ele>503.6</ele><time>2026-05-01T12:55:57.004Z</time></trkpt><trkpt lat="42.1961191" lon="14.2174303"><ele>506.8</ele><time>2026-05-01T12:55:58.004Z</time></trkpt><trkpt lat="42.196028" lon="14.2174604"><ele>510.0</ele><time>2026-05-01T12:55:59.004Z</time></trkpt><trkpt lat="42.1959366" lon="14.2174933"><ele>510.0</ele><time>2026-05-01T12:56:00.004Z</time></trkpt><trkpt lat="42.195842" lon="14.2175249"><ele>510.0</ele><time>2026-05-01T12:56:01.004Z</time></trkpt><trkpt lat="42.1957451" lon="14.217562"><ele>510.0</ele><time>2026-05-01T12:56:02.004Z</time></trkpt><trkpt lat="42.1956447" lon="14.2175982"><ele>510.0</ele><time>2026-05-01T12:56:03.004Z</time></trkpt><trkpt lat="42.1955451" lon="14.2176406"><ele>510.0</ele><time>2026-05-01T12:56:04.004Z</time></trkpt><trkpt lat="42.1954468" lon="14.2176966"><ele>511.0</ele><time>2026-05-01T12:56:05.004Z</time></trkpt><trkpt lat="42.1953444" lon="14.2177689"><ele>512.0</ele><time>2026-05-01T12:56:06.004Z</time></trkpt><trkpt lat="42.1952504" lon="14.2178591"><ele>513.0</ele><time>2026-05-01T12:56:07.004Z</time></trkpt><trkpt lat="42.1951573" lon="14.2179552"><ele>514.0</ele><time>2026-05-01T12:56:08.004Z</time></trkpt><trkpt lat="42.1950769" lon="14.2180475"><ele>514.0</ele><time>2026-05-01T12:56:09.004Z</time></trkpt><trkpt lat="42.1949935" lon="14.2181118"><ele>514.0</ele><time>2026-05-01T12:56:10.004Z</time></trkpt><trkpt lat="42.1949306" lon="14.2181814"><ele>514.0</ele><time>2026-05-01T12:56:11.004Z</time></trkpt><trkpt lat="42.1948832" lon="14.2183197"><ele>514.0</ele><time>2026-05-01T12:56:13.004Z</time></trkpt><trkpt lat="42.1948738" lon="14.2184834"><ele>514.0</ele><time>2026-05-01T12:56:15.004Z</time></trkpt><trkpt lat="42.1948097" lon="14.2186598"><ele>515.4</ele><time>2026-05-01T12:56:17.004Z</time></trkpt><trkpt lat="42.194787" lon="14.2187766"><ele>516.8</ele><time>2026-05-01T12:56:18.004Z</time></trkpt><trkpt lat="42.1947932" lon="14.2189084"><ele>518.2</ele><time>2026-05-01T12:56:19.004Z</time></trkpt><trkpt lat="42.1948085" lon="14.2190529"><ele>519.6</ele><time>2026-05-01T12:56:20.004Z</time></trkpt><trkpt lat="42.1948307" lon="14.219205"><ele>521.0</ele><time>2026-05-01T12:56:21.004Z</time></trkpt><trkpt lat="42.1948499" lon="14.2193652"><ele>521.0</ele><time>2026-05-01T12:56:22.004Z</time></trkpt><trkpt lat="42.1948654" lon="14.2195321"><ele>521.0</ele><time>2026-05-01T12:56:23.004Z</time></trkpt><trkpt lat="42.1948759" lon="14.2197021"><ele>521.0</ele><time>2026-05-01T12:56:24.004Z</time></trkpt><trkpt lat="42.1949001" lon="14.2198675"><ele>521.0</ele><time>2026-05-01T12:56:25.004Z</time></trkpt><trkpt lat="42.1949107" lon="14.220036"><ele>521.6</ele><time>2026-05-01T12:56:26.004Z</time></trkpt><trkpt lat="42.1949074" lon="14.2201986"><ele>522.2</ele><time>2026-05-01T12:56:27.004Z</time></trkpt><trkpt lat="42.1948834" lon="14.2203464"><ele>522.8</ele><time>2026-05-01T12:56:28.004Z</time></trkpt><trkpt lat="42.1948343" lon="14.220464"><ele>523.4</ele><time>2026-05-01T12:56:29.004Z</time></trkpt><trkpt lat="42.19476" lon="14.2205158"><ele>524.0</ele><time>2026-05-01T12:56:30.004Z</time></trkpt><trkpt lat="42.1946621" lon="14.2204994"><ele>526.4</ele><time>2026-05-01T12:56:31.004Z</time></trkpt><trkpt lat="42.1945982" lon="14.2204658"><ele>528.8</ele><time>2026-05-01T12:56:32.004Z</time></trkpt><trkpt lat="42.1945492" lon="14.2203768"><ele>531.2</ele><time>2026-05-01T12:56:33.004Z</time></trkpt><trkpt lat="42.1945071" lon="14.2202452"><ele>533.6</ele><time>2026-05-01T12:56:34.004Z</time></trkpt><trkpt lat="42.1944598" lon="14.2201043"><ele>536.0</ele><time>2026-05-01T12:56:35.004Z</time></trkpt><trkpt lat="42.1944009" lon="14.2199428"><ele>535.0</ele><time>2026-05-01T12:56:36.004Z</time></trkpt><trkpt lat="42.1943012" lon="14.2198096"><ele>534.0</ele><time>2026-05-01T12:56:37.004Z</time></trkpt><trkpt lat="42.1941846" lon="14.2196925"><ele>533.0</ele><time>2026-05-01T12:56:38.004Z</time></trkpt><trkpt lat="42.1940565" lon="14.219593"><ele>532.0</ele><time>2026-05-01T12:56:39.004Z</time></trkpt><trkpt lat="42.1939235" lon="14.2195154"><ele>534.25</ele><time>2026-05-01T12:56:40.004Z</time></trkpt><trkpt lat="42.1937954" lon="14.2194323"><ele>536.5</ele><time>2026-05-01T12:56:41.004Z</time></trkpt><trkpt lat="42.1936803" lon="14.2193443"><ele>538.75</ele><time>2026-05-01T12:56:42.004Z</time></trkpt><trkpt lat="42.1935644" lon="14.2192787"><ele>541.0</ele><time>2026-05-01T12:56:43.004Z</time></trkpt><trkpt lat="42.193451" lon="14.2192219"><ele>541.0</ele><time>2026-05-01T12:56:44.004Z</time></trkpt><trkpt lat="42.1933331" lon="14.2192089"><ele>541.0</ele><time>2026-05-01T12:56:45.004Z</time></trkpt><trkpt lat="42.1932018" lon="14.2192471"><ele>541.0</ele><time>2026-05-01T12:56:46.004Z</time></trkpt><trkpt lat="42.193088" lon="14.2193304"><ele>541.0</ele><time>2026-05-01T12:56:47.004Z</time></trkpt><trkpt lat="42.1929914" lon="14.2194416"><ele>540.4</ele><time>2026-05-01T12:56:48.004Z</time></trkpt><trkpt lat="42.19293" lon="14.2195635"><ele>539.8</ele><time>2026-05-01T12:56:49.004Z</time></trkpt><trkpt lat="42.1929277" lon="14.2196763"><ele>539.1999999999999</ele><time>2026-05-01T12:56:50.004Z</time></trkpt><trkpt lat="42.1929611" lon="14.2198061"><ele>538.6</ele><time>2026-05-01T12:56:51.004Z</time></trkpt><trkpt lat="42.1930246" lon="14.219915"><ele>538.0</ele><time>2026-05-01T12:56:52.004Z</time></trkpt><trkpt lat="42.1931184" lon="14.2200106"><ele>541.0</ele><time>2026-05-01T12:56:53.004Z</time></trkpt><trkpt lat="42.1932355" lon="14.2200922"><ele>544.0</ele><time>2026-05-01T12:56:54.004Z</time></trkpt><trkpt lat="42.1933773" lon="14.2201732"><ele>547.0</ele><time>2026-05-01T12:56:55.004Z</time></trkpt><trkpt lat="42.1935128" lon="14.2202444"><ele>550.0</ele><time>2026-05-01T12:56:56.004Z</time></trkpt><trkpt lat="42.1936339" lon="14.220298"><ele>550.0</ele><time>2026-05-01T12:56:57.004Z</time></trkpt><trkpt lat="42.1937133" lon="14.2203651"><ele>550.0</ele><time>2026-05-01T12:56:58.004Z</time></trkpt><trkpt lat="42.1937808" lon="14.2204353"><ele>550.0</ele><time>2026-05-01T12:56:59.004Z</time></trkpt><trkpt lat="42.1937747" lon="14.2205592"><ele>550.0</ele><time>2026-05-01T12:57:01.004Z</time></trkpt><trkpt lat="42.1936503" lon="14.2205914"><ele>550.0</ele><time>2026-05-01T12:57:03.004Z</time></trkpt><trkpt lat="42.193554" lon="14.2205577"><ele>550.0</ele><time>2026-05-01T12:57:04.004Z</time></trkpt><trkpt lat="42.1934668" lon="14.2205207"><ele>550.0</ele><time>2026-05-01T12:57:05.004Z</time></trkpt><trkpt lat="42.193377" lon="14.2205519"><ele>550.0</ele><time>2026-05-01T12:57:07.004Z</time></trkpt><trkpt lat="42.1933318" lon="14.2206112"><ele>550.0</ele><time>2026-05-01T12:57:09.004Z</time></trkpt><trkpt lat="42.1932983" lon="14.2207629"><ele>550.0</ele><time>2026-05-01T12:57:11.004Z</time></trkpt><trkpt lat="42.1932874" lon="14.2208469"><ele>550.0</ele><time>2026-05-01T12:57:12.004Z</time></trkpt><trkpt lat="42.1932554" lon="14.2209758"><ele>553.3333333333334</ele><time>2026-05-01T12:57:14.004Z</time></trkpt><trkpt lat="42.1931328" lon="14.2209905"><ele>556.6666666666667</ele><time>2026-05-01T12:57:17.005Z</time></trkpt><trkpt lat="42.1930601" lon="14.2209725"><ele>560.0</ele><time>2026-05-01T12:57:18.004Z</time></trkpt><trkpt lat="42.1929908" lon="14.2209462"><ele>563.3333333333334</ele><time>2026-05-01T12:57:19.004Z</time></trkpt><trkpt lat="42.1929141" lon="14.2209378"><ele>566.6666666666666</ele><time>2026-05-01T12:57:20.004Z</time></trkpt><trkpt lat="42.1928429" lon="14.2209248"><ele>570.0</ele><time>2026-05-01T12:57:21.004Z</time></trkpt><trkpt lat="42.1927752" lon="14.2209167"><ele>570.0</ele><time>2026-05-01T12:57:22.004Z</time></trkpt><trkpt lat="42.1926519" lon="14.2209172"><ele>570.0</ele><time>2026-05-01T12:57:24.004Z</time></trkpt><trkpt lat="42.1925859" lon="14.2209184"><ele>570.0</ele><time>2026-05-01T12:57:25.004Z</time></trkpt><trkpt lat="42.1925119" lon="14.2209062"><ele>570.0</ele><time>2026-05-01T12:57:26.004Z</time></trkpt><trkpt lat="42.1924359" lon="14.220877"><ele>570.0</ele><time>2026-05-01T12:57:27.004Z</time></trkpt><trkpt lat="42.1923619" lon="14.2208331"><ele>570.0</ele><time>2026-05-01T12:57:28.004Z</time></trkpt><trkpt lat="42.1922823" lon="14.2208072"><ele>570.6666666666666</ele><time>2026-05-01T12:57:29.004Z</time></trkpt><trkpt lat="42.1922063" lon="14.2207719"><ele>571.3333333333334</ele><time>2026-05-01T12:57:30.004Z</time></trkpt><trkpt lat="42.1921313" lon="14.2207374"><ele>572.0</ele><time>2026-05-01T12:57:31.004Z</time></trkpt><trkpt lat="42.1920614" lon="14.2207008"><ele>572.6666666666667</ele><time>2026-05-01T12:57:32.004Z</time></trkpt><trkpt lat="42.191988" lon="14.2206753"><ele>573.3333333333334</ele><time>2026-05-01T12:57:33.004Z</time></trkpt><trkpt lat="42.1919157" lon="14.2206483"><ele>574.0</ele><time>2026-05-01T12:57:34.004Z</time></trkpt><trkpt lat="42.1918448" lon="14.2206229"><ele>573.0</ele><time>2026-05-01T12:57:35.004Z</time></trkpt><trkpt lat="42.19177" lon="14.2206043"><ele>572.0</ele><time>2026-05-01T12:57:36.004Z</time></trkpt><trkpt lat="42.1916948" lon="14.2206099"><ele>571.0</ele><time>2026-05-01T12:57:37.004Z</time></trkpt><trkpt lat="42.1916159" lon="14.2206072"><ele>570.0</ele><time>2026-05-01T12:57:38.004Z</time></trkpt><trkpt lat="42.1915371" lon="14.2205988"><ele>569.0</ele><time>2026-05-01T12:57:39.004Z</time></trkpt><trkpt lat="42.1914604" lon="14.2205955"><ele>568.0</ele><time>2026-05-01T12:57:40.004Z</time></trkpt><trkpt lat="42.1913695" lon="14.2205654"><ele>568.0</ele><time>2026-05-01T12:57:42.004Z</time></trkpt><trkpt lat="42.1912833" lon="14.2205399"><ele>568.0</ele><time>2026-05-01T12:57:45.004Z</time></trkpt><trkpt lat="42.1911306" lon="14.220583"><ele>568.0</ele><time>2026-05-01T12:59:40.004Z</time></trkpt><trkpt lat="42.1910742" lon="14.2206405"><ele>568.0</ele><time>2026-05-01T12:59:52.004Z</time></trkpt><trkpt lat="42.191034" lon="14.2207158"><ele>568.0</ele><time>2026-05-01T12:59:59.018Z</time></trkpt><trkpt lat="42.1910992" lon="14.2207216"><ele>568.0</ele><time>2026-05-01T13:01:40.027Z</time></trkpt><trkpt lat="42.1911162" lon="14.2206342"><ele>568.0</ele><time>2026-05-01T13:03:52.004Z</time></trkpt><trkpt lat="42.1911539" lon="14.2205661"><ele>568.0</ele><time>2026-05-01T13:05:44.026Z</time></trkpt><trkpt lat="42.1912194" lon="14.2205254"><ele>568.0</ele><time>2026-05-01T13:06:19.019Z</time></trkpt><trkpt lat="42.1911561" lon="14.2205281"><ele>568.0</ele><time>2026-05-01T13:08:21.024Z</time></trkpt><trkpt lat="42.1911043" lon="14.2206107"><ele>568.0</ele><time>2026-05-01T13:08:28.004Z</time></trkpt><trkpt lat="42.191098" lon="14.2207008"><ele>568.0</ele><time>2026-05-01T13:08:39.03Z</time></trkpt><trkpt lat="42.1911365" lon="14.2206223"><ele>568.0</ele><time>2026-05-01T13:09:09.046Z</time></trkpt><trkpt lat="42.1912034" lon="14.2205814"><ele>568.0</ele><time>2026-05-01T13:09:17.004Z</time></trkpt><trkpt lat="42.1912547" lon="14.220524"><ele>568.0</ele><time>2026-05-01T13:09:27.004Z</time></trkpt><trkpt lat="42.1913224" lon="14.2205037"><ele>568.0</ele><time>2026-05-01T13:09:35.016Z</time></trkpt><trkpt lat="42.191241" lon="14.2205375"><ele>568.0</ele><time>2026-05-01T13:09:45.004Z</time></trkpt><trkpt lat="42.1912984" lon="14.2204293"><ele>568.0</ele><time>2026-05-01T13:10:40.004Z</time></trkpt><trkpt lat="42.1912771" lon="14.2205102"><ele>568.0</ele><time>2026-05-01T13:10:55.004Z</time></trkpt><trkpt lat="42.1913272" lon="14.2204521"><ele>568.0</ele><time>2026-05-01T13:11:33.004Z</time></trkpt><trkpt lat="42.1912806" lon="14.2205123"><ele>568.0</ele><time>2026-05-01T13:12:42.006Z</time></trkpt><trkpt lat="42.1910442" lon="14.2205682"><ele>568.0</ele><time>2026-05-01T13:25:16.003Z</time></trkpt><trkpt lat="42.1909767" lon="14.220608"><ele>568.0</ele><time>2026-05-01T13:25:19.003Z</time></trkpt><trkpt lat="42.1909124" lon="14.2206047"><ele>568.0</ele><time>2026-05-01T13:25:53.003Z</time></trkpt><trkpt lat="42.190814" lon="14.2205972"><ele>568.0</ele><time>2026-05-01T13:25:55.003Z</time></trkpt><trkpt lat="42.1906822" lon="14.2205963"><ele>568.0</ele><time>2026-05-01T13:25:57.003Z</time></trkpt><trkpt lat="42.1906038" lon="14.2205863"><ele>568.0</ele><time>2026-05-01T13:25:58.003Z</time></trkpt><trkpt lat="42.1905258" lon="14.2205715"><ele>568.0</ele><time>2026-05-01T13:25:59.003Z</time></trkpt><trkpt lat="42.1904511" lon="14.220547"><ele>568.0</ele><time>2026-05-01T13:26:00.003Z</time></trkpt><trkpt lat="42.1903803" lon="14.2205137"><ele>568.0</ele><time>2026-05-01T13:26:01.003Z</time></trkpt><trkpt lat="42.1903137" lon="14.2204892"><ele>568.5</ele><time>2026-05-01T13:26:02.003Z</time></trkpt><trkpt lat="42.1902327" lon="14.2204413"><ele>569.0</ele><time>2026-05-01T13:26:04.003Z</time></trkpt><trkpt lat="42.1902119" lon="14.2203554"><ele>569.5</ele><time>2026-05-01T13:26:07.003Z</time></trkpt><trkpt lat="42.1901452" lon="14.2203364"><ele>570.0</ele><time>2026-05-01T13:26:09.003Z</time></trkpt><trkpt lat="42.190089" lon="14.2202665"><ele>570.5</ele><time>2026-05-01T13:26:12.003Z</time></trkpt><trkpt lat="42.1900658" lon="14.220121"><ele>571.0</ele><time>2026-05-01T13:26:14.003Z</time></trkpt><trkpt lat="42.1899892" lon="14.2200383"><ele>571.0</ele><time>2026-05-01T13:26:16.003Z</time></trkpt><trkpt lat="42.1898823" lon="14.2200112"><ele>571.0</ele><time>2026-05-01T13:26:18.003Z</time></trkpt><trkpt lat="42.1898055" lon="14.2200061"><ele>571.0</ele><time>2026-05-01T13:26:21.003Z</time></trkpt><trkpt lat="42.1898587" lon="14.2199551"><ele>571.0</ele><time>2026-05-01T13:26:25.003Z</time></trkpt><trkpt lat="42.1900142" lon="14.219938"><ele>571.0</ele><time>2026-05-01T13:26:27.003Z</time></trkpt><trkpt lat="42.1901159" lon="14.2198945"><ele>571.0</ele><time>2026-05-01T13:26:28.003Z</time></trkpt><trkpt lat="42.1902121" lon="14.2198375"><ele>571.0</ele><time>2026-05-01T13:26:29.003Z</time></trkpt><trkpt lat="42.1903143" lon="14.2197865"><ele>571.0</ele><time>2026-05-01T13:26:30.003Z</time></trkpt><trkpt lat="42.1904123" lon="14.2197502"><ele>571.0</ele><time>2026-05-01T13:26:31.003Z</time></trkpt><trkpt lat="42.190499" lon="14.2197161"><ele>571.0</ele><time>2026-05-01T13:26:32.003Z</time></trkpt><trkpt lat="42.1905822" lon="14.2196926"><ele>567.4</ele><time>2026-05-01T13:26:33.003Z</time></trkpt><trkpt lat="42.19068" lon="14.2196807"><ele>563.8</ele><time>2026-05-01T13:26:34.003Z</time></trkpt><trkpt lat="42.1907852" lon="14.2196913"><ele>560.1999999999999</ele><time>2026-05-01T13:26:35.003Z</time></trkpt><trkpt lat="42.1908962" lon="14.2197027"><ele>556.6</ele><time>2026-05-01T13:26:36.003Z</time></trkpt><trkpt lat="42.1910064" lon="14.2197317"><ele>553.0</ele><time>2026-05-01T13:26:37.003Z</time></trkpt><trkpt lat="42.1911207" lon="14.2197432"><ele>553.0</ele><time>2026-05-01T13:26:38.003Z</time></trkpt><trkpt lat="42.1912427" lon="14.2197557"><ele>553.0</ele><time>2026-05-01T13:26:39.003Z</time></trkpt><trkpt lat="42.1913789" lon="14.2197603"><ele>553.0</ele><time>2026-05-01T13:26:40.003Z</time></trkpt><trkpt lat="42.1915163" lon="14.2197773"><ele>553.0</ele><time>2026-05-01T13:26:41.003Z</time></trkpt><trkpt lat="42.1916578" lon="14.2197813"><ele>552.0</ele><time>2026-05-01T13:26:42.003Z</time></trkpt><trkpt lat="42.1917997" lon="14.2197858"><ele>551.0</ele><time>2026-05-01T13:26:43.003Z</time></trkpt><trkpt lat="42.1919331" lon="14.2197971"><ele>550.0</ele><time>2026-05-01T13:26:44.003Z</time></trkpt><trkpt lat="42.1920532" lon="14.2198088"><ele>549.0</ele><time>2026-05-01T13:26:45.003Z</time></trkpt><trkpt lat="42.1921702" lon="14.2198204"><ele>551.75</ele><time>2026-05-01T13:26:46.003Z</time></trkpt><trkpt lat="42.1922881" lon="14.2198361"><ele>554.5</ele><time>2026-05-01T13:26:47.003Z</time></trkpt><trkpt lat="42.1924091" lon="14.2198764"><ele>557.25</ele><time>2026-05-01T13:26:48.003Z</time></trkpt><trkpt lat="42.1925326" lon="14.2199307"><ele>560.0</ele><time>2026-05-01T13:26:49.003Z</time></trkpt><trkpt lat="42.1926532" lon="14.2199905"><ele>560.0</ele><time>2026-05-01T13:26:50.003Z</time></trkpt><trkpt lat="42.1927701" lon="14.220052"><ele>560.0</ele><time>2026-05-01T13:26:51.003Z</time></trkpt><trkpt lat="42.192878" lon="14.220135"><ele>560.0</ele><time>2026-05-01T13:26:52.003Z</time></trkpt><trkpt lat="42.1929954" lon="14.2202448"><ele>560.0</ele><time>2026-05-01T13:26:53.003Z</time></trkpt><trkpt lat="42.1930924" lon="14.2203476"><ele>557.5</ele><time>2026-05-01T13:26:54.003Z</time></trkpt><trkpt lat="42.1931995" lon="14.2204317"><ele>555.0</ele><time>2026-05-01T13:26:55.003Z</time></trkpt><trkpt lat="42.1933068" lon="14.2204921"><ele>552.5</ele><time>2026-05-01T13:26:56.003Z</time></trkpt><trkpt lat="42.1934214" lon="14.2205306"><ele>550.0</ele><time>2026-05-01T13:26:57.003Z</time></trkpt><trkpt lat="42.1935284" lon="14.2205651"><ele>550.0</ele><time>2026-05-01T13:26:58.003Z</time></trkpt><trkpt lat="42.1936255" lon="14.2206078"><ele>550.0</ele><time>2026-05-01T13:26:59.003Z</time></trkpt><trkpt lat="42.1937085" lon="14.2206425"><ele>550.0</ele><time>2026-05-01T13:27:00.003Z</time></trkpt><trkpt lat="42.1937852" lon="14.2206333"><ele>550.0</ele><time>2026-05-01T13:27:01.003Z</time></trkpt><trkpt lat="42.1938509" lon="14.2205912"><ele>550.0</ele><time>2026-05-01T13:27:02.003Z</time></trkpt><trkpt lat="42.1938693" lon="14.2205094"><ele>550.0</ele><time>2026-05-01T13:27:03.003Z</time></trkpt><trkpt lat="42.1938347" lon="14.2204111"><ele>550.0</ele><time>2026-05-01T13:27:04.003Z</time></trkpt><trkpt lat="42.1937692" lon="14.2203462"><ele>550.0</ele><time>2026-05-01T13:27:05.003Z</time></trkpt><trkpt lat="42.1936869" lon="14.2202975"><ele>550.0</ele><time>2026-05-01T13:27:06.003Z</time></trkpt><trkpt lat="42.193611" lon="14.2202572"><ele>550.0</ele><time>2026-05-01T13:27:07.003Z</time></trkpt><trkpt lat="42.1935473" lon="14.2202251"><ele>550.0</ele><time>2026-05-01T13:27:08.003Z</time></trkpt><trkpt lat="42.1934387" lon="14.2201606"><ele>550.0</ele><time>2026-05-01T13:27:10.003Z</time></trkpt><trkpt lat="42.1933696" lon="14.2201223"><ele>550.0</ele><time>2026-05-01T13:27:12.003Z</time></trkpt><trkpt lat="42.1932763" lon="14.2200474"><ele>550.0</ele><time>2026-05-01T13:27:21.003Z</time></trkpt><trkpt lat="42.1933484" lon="14.2200097"><ele>550.0</ele><time>2026-05-01T13:27:24.003Z</time></trkpt><trkpt lat="42.1934646" lon="14.2201042"><ele>550.0</ele><time>2026-05-01T13:27:26.003Z</time></trkpt><trkpt lat="42.193537" lon="14.220154"><ele>550.0</ele><time>2026-05-01T13:27:27.003Z</time></trkpt><trkpt lat="42.1936168" lon="14.220197"><ele>550.0</ele><time>2026-05-01T13:27:28.003Z</time></trkpt><trkpt lat="42.1936951" lon="14.2202351"><ele>550.0</ele><time>2026-05-01T13:27:29.003Z</time></trkpt><trkpt lat="42.1937718" lon="14.2202737"><ele>550.0</ele><time>2026-05-01T13:27:30.003Z</time></trkpt><trkpt lat="42.1938433" lon="14.220311"><ele>550.0</ele><time>2026-05-01T13:27:31.003Z</time></trkpt><trkpt lat="42.1938955" lon="14.2203627"><ele>550.0</ele><time>2026-05-01T13:27:32.003Z</time></trkpt><trkpt lat="42.1939397" lon="14.2204581"><ele>550.0</ele><time>2026-05-01T13:27:33.003Z</time></trkpt><trkpt lat="42.1939789" lon="14.2205744"><ele>546.8</ele><time>2026-05-01T13:27:34.003Z</time></trkpt><trkpt lat="42.194012" lon="14.2206959"><ele>543.6</ele><time>2026-05-01T13:27:35.003Z</time></trkpt><trkpt lat="42.194025" lon="14.2208243"><ele>540.4</ele><time>2026-05-01T13:27:36.003Z</time></trkpt><trkpt lat="42.1940329" lon="14.2209814"><ele>537.2</ele><time>2026-05-01T13:27:37.003Z</time></trkpt><trkpt lat="42.194034" lon="14.2211393"><ele>534.0</ele><time>2026-05-01T13:27:38.003Z</time></trkpt><trkpt lat="42.1940279" lon="14.2213009"><ele>534.0</ele><time>2026-05-01T13:27:39.003Z</time></trkpt><trkpt lat="42.194022" lon="14.2214651"><ele>534.0</ele><time>2026-05-01T13:27:40.003Z</time></trkpt><trkpt lat="42.1940168" lon="14.2216426"><ele>534.0</ele><time>2026-05-01T13:27:41.003Z</time></trkpt><trkpt lat="42.1940103" lon="14.2218298"><ele>534.0</ele><time>2026-05-01T13:27:42.003Z</time></trkpt><trkpt lat="42.1940114" lon="14.2220291"><ele>537.6666666666666</ele><time>2026-05-01T13:27:43.003Z</time></trkpt><trkpt lat="42.1940023" lon="14.2222268"><ele>541.3333333333333</ele><time>2026-05-01T13:27:44.003Z</time></trkpt><trkpt lat="42.1940029" lon="14.2224366"><ele>545.0</ele><time>2026-05-01T13:27:45.003Z</time></trkpt><trkpt lat="42.1940116" lon="14.2226499"><ele>537.3333333333333</ele><time>2026-05-01T13:27:46.003Z</time></trkpt><trkpt lat="42.1940266" lon="14.2228596"><ele>529.6666666666666</ele><time>2026-05-01T13:27:47.003Z</time></trkpt><trkpt lat="42.1940454" lon="14.2230618"><ele>522.0</ele><time>2026-05-01T13:27:48.003Z</time></trkpt><trkpt lat="42.1940634" lon="14.2232557"><ele>520.8000000000001</ele><time>2026-05-01T13:27:49.003Z</time></trkpt><trkpt lat="42.1940808" lon="14.2234315"><ele>519.6</ele><time>2026-05-01T13:27:50.003Z</time></trkpt><trkpt lat="42.1940998" lon="14.2235851"><ele>518.4000000000001</ele><time>2026-05-01T13:27:51.003Z</time></trkpt><trkpt lat="42.1941204" lon="14.2237131"><ele>517.2</ele><time>2026-05-01T13:27:52.003Z</time></trkpt><trkpt lat="42.194148" lon="14.2238069"><ele>516.0</ele><time>2026-05-01T13:27:53.003Z</time></trkpt><trkpt lat="42.1942333" lon="14.2238946"><ele>516.0</ele><time>2026-05-01T13:27:55.003Z</time></trkpt><trkpt lat="42.1943006" lon="14.2238653"><ele>516.0</ele><time>2026-05-01T13:27:56.003Z</time></trkpt><trkpt lat="42.19438" lon="14.2238028"><ele>516.0</ele><time>2026-05-01T13:27:57.003Z</time></trkpt><trkpt lat="42.1944647" lon="14.2237267"><ele>516.0</ele><time>2026-05-01T13:27:58.003Z</time></trkpt><trkpt lat="42.194536" lon="14.2236556"><ele>516.0</ele><time>2026-05-01T13:27:59.003Z</time></trkpt><trkpt lat="42.1946038" lon="14.2236047"><ele>516.0</ele><time>2026-05-01T13:28:00.003Z</time></trkpt><trkpt lat="42.1946668" lon="14.2235553"><ele>516.0</ele><time>2026-05-01T13:28:01.003Z</time></trkpt><trkpt lat="42.1947188" lon="14.2235071"><ele>516.0</ele><time>2026-05-01T13:28:02.003Z</time></trkpt><trkpt lat="42.1948268" lon="14.2234275"><ele>516.0</ele><time>2026-05-01T13:28:04.003Z</time></trkpt><trkpt lat="42.1949393" lon="14.2233371"><ele>516.0</ele><time>2026-05-01T13:28:06.003Z</time></trkpt><trkpt lat="42.1950119" lon="14.2232732"><ele>516.0</ele><time>2026-05-01T13:28:07.003Z</time></trkpt><trkpt lat="42.1950888" lon="14.2231967"><ele>514.8</ele><time>2026-05-01T13:28:08.003Z</time></trkpt><trkpt lat="42.1951607" lon="14.2231079"><ele>513.6</ele><time>2026-05-01T13:28:09.003Z</time></trkpt><trkpt lat="42.195244" lon="14.2230155"><ele>512.4</ele><time>2026-05-01T13:28:10.003Z</time></trkpt><trkpt lat="42.1953198" lon="14.2229071"><ele>511.2</ele><time>2026-05-01T13:28:11.003Z</time></trkpt><trkpt lat="42.1954044" lon="14.2227974"><ele>510.0</ele><time>2026-05-01T13:28:12.003Z</time></trkpt><trkpt lat="42.1954831" lon="14.2226933"><ele>510.0</ele><time>2026-05-01T13:28:13.003Z</time></trkpt><trkpt lat="42.1955543" lon="14.2225701"><ele>510.0</ele><time>2026-05-01T13:28:14.003Z</time></trkpt><trkpt lat="42.1956189" lon="14.2224292"><ele>510.0</ele><time>2026-05-01T13:28:15.003Z</time></trkpt><trkpt lat="42.1956672" lon="14.2222667"><ele>510.0</ele><time>2026-05-01T13:28:16.003Z</time></trkpt><trkpt lat="42.1957011" lon="14.2220944"><ele>508.75</ele><time>2026-05-01T13:28:17.003Z</time></trkpt><trkpt lat="42.1957383" lon="14.2219216"><ele>507.5</ele><time>2026-05-01T13:28:18.003Z</time></trkpt><trkpt lat="42.1957716" lon="14.2217488"><ele>506.25</ele><time>2026-05-01T13:28:19.003Z</time></trkpt><trkpt lat="42.1957852" lon="14.2215613"><ele>505.0</ele><time>2026-05-01T13:28:20.003Z</time></trkpt><trkpt lat="42.1957796" lon="14.2213755"><ele>505.0</ele><time>2026-05-01T13:28:21.003Z</time></trkpt><trkpt lat="42.1957749" lon="14.2211946"><ele>505.0</ele><time>2026-05-01T13:28:22.003Z</time></trkpt><trkpt lat="42.1957701" lon="14.2210212"><ele>505.0</ele><time>2026-05-01T13:28:23.003Z</time></trkpt><trkpt lat="42.1957693" lon="14.2208623"><ele>505.0</ele><time>2026-05-01T13:28:24.003Z</time></trkpt><trkpt lat="42.1957743" lon="14.2207067"><ele>505.4</ele><time>2026-05-01T13:28:25.003Z</time></trkpt><trkpt lat="42.1957835" lon="14.2205632"><ele>505.8</ele><time>2026-05-01T13:28:26.003Z</time></trkpt><trkpt lat="42.1958056" lon="14.2204237"><ele>506.20000000000005</ele><time>2026-05-01T13:28:27.003Z</time></trkpt><trkpt lat="42.195835" lon="14.2202783"><ele>506.6</ele><time>2026-05-01T13:28:28.003Z</time></trkpt><trkpt lat="42.1958788" lon="14.2201269"><ele>507.0</ele><time>2026-05-01T13:28:29.003Z</time></trkpt><trkpt lat="42.1959266" lon="14.2199793"><ele>507.0</ele><time>2026-05-01T13:28:30.003Z</time></trkpt><trkpt lat="42.1959882" lon="14.2198445"><ele>507.0</ele><time>2026-05-01T13:28:31.003Z</time></trkpt><trkpt lat="42.1960738" lon="14.2197245"><ele>507.0</ele><time>2026-05-01T13:28:32.003Z</time></trkpt><trkpt lat="42.1961678" lon="14.2196133"><ele>507.0</ele><time>2026-05-01T13:28:33.003Z</time></trkpt><trkpt lat="42.1962577" lon="14.2195187"><ele>507.20000000000005</ele><time>2026-05-01T13:28:34.003Z</time></trkpt><trkpt lat="42.1963408" lon="14.2194368"><ele>507.40000000000003</ele><time>2026-05-01T13:28:35.003Z</time></trkpt><trkpt lat="42.1964198" lon="14.2193669"><ele>507.59999999999997</ele><time>2026-05-01T13:28:36.003Z</time></trkpt><trkpt lat="42.1964796" lon="14.2193102"><ele>507.79999999999995</ele><time>2026-05-01T13:28:37.003Z</time></trkpt><trkpt lat="42.1965352" lon="14.2192693"><ele>508.0</ele><time>2026-05-01T13:28:38.003Z</time></trkpt><trkpt lat="42.1966563" lon="14.2192547"><ele>507.00000000000006</ele><time>2026-05-01T13:28:40.003Z</time></trkpt><trkpt lat="42.1967235" lon="14.2192594"><ele>506.0</ele><time>2026-05-01T13:28:41.003Z</time></trkpt><trkpt lat="42.1967884" lon="14.2192381"><ele>505.0</ele><time>2026-05-01T13:28:42.003Z</time></trkpt><trkpt lat="42.1968957" lon="14.2191438"><ele>504.0</ele><time>2026-05-01T13:28:44.003Z</time></trkpt><trkpt lat="42.1969632" lon="14.2191164"><ele>503.00000000000006</ele><time>2026-05-01T13:28:45.003Z</time></trkpt><trkpt lat="42.1970586" lon="14.2190951"><ele>502.0</ele><time>2026-05-01T13:28:46.003Z</time></trkpt><trkpt lat="42.1971722" lon="14.2190786"><ele>502.0</ele><time>2026-05-01T13:28:47.003Z</time></trkpt><trkpt lat="42.1972873" lon="14.2190683"><ele>502.0</ele><time>2026-05-01T13:28:48.003Z</time></trkpt><trkpt lat="42.1974159" lon="14.2190573"><ele>502.0</ele><time>2026-05-01T13:28:49.003Z</time></trkpt><trkpt lat="42.1975544" lon="14.2190324"><ele>502.0</ele><time>2026-05-01T13:28:50.003Z</time></trkpt><trkpt lat="42.1976979" lon="14.2190125"><ele>500.25</ele><time>2026-05-01T13:28:51.003Z</time></trkpt><trkpt lat="42.1978263" lon="14.2189794"><ele>498.5</ele><time>2026-05-01T13:28:52.003Z</time></trkpt><trkpt lat="42.197953" lon="14.2189496"><ele>496.75</ele><time>2026-05-01T13:28:53.003Z</time></trkpt><trkpt lat="42.1980876" lon="14.2189145"><ele>495.0</ele><time>2026-05-01T13:28:54.003Z</time></trkpt><trkpt lat="42.1982207" lon="14.2188721"><ele>494.25</ele><time>2026-05-01T13:28:55.003Z</time></trkpt><trkpt lat="42.1983482" lon="14.2188305"><ele>493.5</ele><time>2026-05-01T13:28:56.003Z</time></trkpt><trkpt lat="42.1984751" lon="14.2187811"><ele>492.75</ele><time>2026-05-01T13:28:57.003Z</time></trkpt><trkpt lat="42.1986019" lon="14.2187378"><ele>492.0</ele><time>2026-05-01T13:28:58.003Z</time></trkpt><trkpt lat="42.1987286" lon="14.2186886"><ele>492.0</ele><time>2026-05-01T13:28:59.003Z</time></trkpt><trkpt lat="42.1988539" lon="14.2186377"><ele>492.0</ele><time>2026-05-01T13:29:00.003Z</time></trkpt><trkpt lat="42.1989752" lon="14.2185895"><ele>492.0</ele><time>2026-05-01T13:29:01.003Z</time></trkpt><trkpt lat="42.1990999" lon="14.218534"><ele>492.0</ele><time>2026-05-01T13:29:02.003Z</time></trkpt><trkpt lat="42.1992253" lon="14.2184813"><ele>490.75</ele><time>2026-05-01T13:29:03.003Z</time></trkpt><trkpt lat="42.1993492" lon="14.218426"><ele>489.5</ele><time>2026-05-01T13:29:04.003Z</time></trkpt><trkpt lat="42.1994761" lon="14.2183761"><ele>488.25</ele><time>2026-05-01T13:29:05.003Z</time></trkpt><trkpt lat="42.1995993" lon="14.2183348"><ele>487.0</ele><time>2026-05-01T13:29:06.003Z</time></trkpt><trkpt lat="42.1997232" lon="14.2182951"><ele>485.75</ele><time>2026-05-01T13:29:07.003Z</time></trkpt><trkpt lat="42.1998453" lon="14.2182641"><ele>484.5</ele><time>2026-05-01T13:29:08.003Z</time></trkpt><trkpt lat="42.1999675" lon="14.218243"><ele>483.25</ele><time>2026-05-01T13:29:09.003Z</time></trkpt><trkpt lat="42.2000839" lon="14.2182311"><ele>482.0</ele><time>2026-05-01T13:29:10.003Z</time></trkpt><trkpt lat="42.2002027" lon="14.2182314"><ele>482.0</ele><time>2026-05-01T13:29:11.003Z</time></trkpt><trkpt lat="42.2003211" lon="14.2182366"><ele>482.0</ele><time>2026-05-01T13:29:12.003Z</time></trkpt><trkpt lat="42.2004415" lon="14.2182459"><ele>482.0</ele><time>2026-05-01T13:29:13.003Z</time></trkpt><trkpt lat="42.2005614" lon="14.218256"><ele>482.0</ele><time>2026-05-01T13:29:14.003Z</time></trkpt><trkpt lat="42.2006712" lon="14.2182626"><ele>481.20000000000005</ele><time>2026-05-01T13:29:15.003Z</time></trkpt><trkpt lat="42.2007733" lon="14.2182744"><ele>480.40000000000003</ele><time>2026-05-01T13:29:16.003Z</time></trkpt><trkpt lat="42.2008783" lon="14.2182959"><ele>479.59999999999997</ele><time>2026-05-01T13:29:17.003Z</time></trkpt><trkpt lat="42.200981" lon="14.2183275"><ele>478.79999999999995</ele><time>2026-05-01T13:29:18.003Z</time></trkpt><trkpt lat="42.2010823" lon="14.2183526"><ele>478.0</ele><time>2026-05-01T13:29:19.003Z</time></trkpt><trkpt lat="42.2011785" lon="14.2183773"><ele>478.00000000000006</ele><time>2026-05-01T13:29:20.003Z</time></trkpt><trkpt lat="42.2012653" lon="14.2184145"><ele>478.0</ele><time>2026-05-01T13:29:21.003Z</time></trkpt><trkpt lat="42.2013418" lon="14.2184334"><ele>478.0</ele><time>2026-05-01T13:29:22.003Z</time></trkpt><trkpt lat="42.201409" lon="14.2184383"><ele>478.0</ele><time>2026-05-01T13:29:23.003Z</time></trkpt><trkpt lat="42.2015111" lon="14.2184271"><ele>478.00000000000006</ele><time>2026-05-01T13:29:25.003Z</time></trkpt><trkpt lat="42.2015765" lon="14.2184446"><ele>478.0</ele><time>2026-05-01T13:29:27.003Z</time></trkpt><trkpt lat="42.201675" lon="14.2185794"><ele>478.0</ele><time>2026-05-01T13:35:47.002Z</time></trkpt><trkpt lat="42.2017531" lon="14.2185888"><ele>477.99999999999994</ele><time>2026-05-01T13:35:49.002Z</time></trkpt><trkpt lat="42.2016815" lon="14.218621"><ele>477.99999999999994</ele><time>2026-05-01T13:35:53.002Z</time></trkpt><trkpt lat="42.201559" lon="14.2185261"><ele>478.0</ele><time>2026-05-01T13:35:55.002Z</time></trkpt><trkpt lat="42.2014864" lon="14.2184813"><ele>478.0</ele><time>2026-05-01T13:35:56.002Z</time></trkpt><trkpt lat="42.2013987" lon="14.2184388"><ele>478.0</ele><time>2026-05-01T13:35:57.002Z</time></trkpt><trkpt lat="42.2013029" lon="14.2183968"><ele>477.99999999999994</ele><time>2026-05-01T13:35:58.002Z</time></trkpt><trkpt lat="42.2012027" lon="14.2183562"><ele>477.99999999999994</ele><time>2026-05-01T13:35:59.002Z</time></trkpt><trkpt lat="42.2011034" lon="14.2183111"><ele>478.0</ele><time>2026-05-01T13:36:00.002Z</time></trkpt><trkpt lat="42.2009942" lon="14.2182702"><ele>478.0</ele><time>2026-05-01T13:36:01.002Z</time></trkpt><trkpt lat="42.2008803" lon="14.2182367"><ele>478.00000000000006</ele><time>2026-05-01T13:36:02.002Z</time></trkpt><trkpt lat="42.2007692" lon="14.2182225"><ele>478.0</ele><time>2026-05-01T13:36:03.002Z</time></trkpt><trkpt lat="42.2006777" lon="14.2182047"><ele>478.0</ele><time>2026-05-01T13:36:04.002Z</time></trkpt><trkpt lat="42.2006065" lon="14.2181871"><ele>478.0</ele><time>2026-05-01T13:36:05.002Z</time></trkpt><trkpt lat="42.2005668" lon="14.2181052"><ele>478.00000000000006</ele><time>2026-05-01T13:36:07.002Z</time></trkpt><trkpt lat="42.200651" lon="14.2180654"><ele>478.0</ele><time>2026-05-01T13:36:10.002Z</time></trkpt><trkpt lat="42.200714" lon="14.2180627"><ele>477.4</ele><time>2026-05-01T13:36:11.002Z</time></trkpt><trkpt lat="42.2007941" lon="14.218067"><ele>476.79999999999995</ele><time>2026-05-01T13:36:12.002Z</time></trkpt><trkpt lat="42.200888" lon="14.2180603"><ele>476.2</ele><time>2026-05-01T13:36:13.002Z</time></trkpt><trkpt lat="42.2009896" lon="14.218024"><ele>475.6</ele><time>2026-05-01T13:36:14.002Z</time></trkpt><trkpt lat="42.2011011" lon="14.2179925"><ele>475.0</ele><time>2026-05-01T13:36:15.002Z</time></trkpt><trkpt lat="42.2012173" lon="14.217974"><ele>475.0</ele><time>2026-05-01T13:36:16.002Z</time></trkpt><trkpt lat="42.2013487" lon="14.2179557"><ele>475.0</ele><time>2026-05-01T13:36:17.002Z</time></trkpt><trkpt lat="42.2014896" lon="14.2179471"><ele>475.0</ele><time>2026-05-01T13:36:18.002Z</time></trkpt><trkpt lat="42.2016388" lon="14.2179418"><ele>475.0</ele><time>2026-05-01T13:36:19.002Z</time></trkpt><trkpt lat="42.2017932" lon="14.2179574"><ele>474.0</ele><time>2026-05-01T13:36:20.002Z</time></trkpt><trkpt lat="42.2019527" lon="14.2180005"><ele>473.0</ele><time>2026-05-01T13:36:21.002Z</time></trkpt><trkpt lat="42.2021083" lon="14.2180344"><ele>472.0</ele><time>2026-05-01T13:36:22.002Z</time></trkpt><trkpt lat="42.2022646" lon="14.218071"><ele>471.25</ele><time>2026-05-01T13:36:23.002Z</time></trkpt><trkpt lat="42.2024049" lon="14.2180835"><ele>470.5</ele><time>2026-05-01T13:36:24.002Z</time></trkpt><trkpt lat="42.2025459" lon="14.2180792"><ele>469.75</ele><time>2026-05-01T13:36:25.002Z</time></trkpt><trkpt lat="42.2026857" lon="14.2180595"><ele>469.0</ele><time>2026-05-01T13:36:26.002Z</time></trkpt><trkpt lat="42.2028245" lon="14.2180372"><ele>469.0</ele><time>2026-05-01T13:36:27.002Z</time></trkpt><trkpt lat="42.20296" lon="14.2180149"><ele>469.0</ele><time>2026-05-01T13:36:28.002Z</time></trkpt><trkpt lat="42.2030862" lon="14.2179713"><ele>469.0</ele><time>2026-05-01T13:36:29.002Z</time></trkpt><trkpt lat="42.2032034" lon="14.2179036"><ele>469.0</ele><time>2026-05-01T13:36:30.002Z</time></trkpt><trkpt lat="42.2033074" lon="14.2177901"><ele>466.75</ele><time>2026-05-01T13:36:31.002Z</time></trkpt><trkpt lat="42.2034324" lon="14.2176898"><ele>464.5</ele><time>2026-05-01T13:36:32.002Z</time></trkpt><trkpt lat="42.203555" lon="14.2175786"><ele>462.25</ele><time>2026-05-01T13:36:33.002Z</time></trkpt><trkpt lat="42.2036761" lon="14.2174785"><ele>460.0</ele><time>2026-05-01T13:36:34.002Z</time></trkpt><trkpt lat="42.2037852" lon="14.2173917"><ele>460.0</ele><time>2026-05-01T13:36:35.002Z</time></trkpt><trkpt lat="42.2038854" lon="14.2173273"><ele>460.0</ele><time>2026-05-01T13:36:36.002Z</time></trkpt><trkpt lat="42.2039894" lon="14.2173061"><ele>460.0</ele><time>2026-05-01T13:36:37.002Z</time></trkpt><trkpt lat="42.2041021" lon="14.2173112"><ele>460.0</ele><time>2026-05-01T13:36:38.002Z</time></trkpt><trkpt lat="42.2042162" lon="14.2173289"><ele>460.0</ele><time>2026-05-01T13:36:39.002Z</time></trkpt><trkpt lat="42.2043333" lon="14.2173239"><ele>460.6</ele><time>2026-05-01T13:36:40.002Z</time></trkpt><trkpt lat="42.2044456" lon="14.2172993"><ele>461.2</ele><time>2026-05-01T13:36:41.002Z</time></trkpt><trkpt lat="42.2045485" lon="14.2172558"><ele>461.79999999999995</ele><time>2026-05-01T13:36:42.002Z</time></trkpt><trkpt lat="42.2046509" lon="14.217207"><ele>462.4</ele><time>2026-05-01T13:36:43.002Z</time></trkpt><trkpt lat="42.2047457" lon="14.2171743"><ele>463.0</ele><time>2026-05-01T13:36:44.002Z</time></trkpt><trkpt lat="42.2048284" lon="14.2171491"><ele>462.4285714285714</ele><time>2026-05-01T13:36:45.002Z</time></trkpt><trkpt lat="42.2048966" lon="14.2171267"><ele>461.8571428571428</ele><time>2026-05-01T13:36:46.002Z</time></trkpt><trkpt lat="42.2049621" lon="14.2170903"><ele>461.2857142857143</ele><time>2026-05-01T13:36:47.002Z</time></trkpt><trkpt lat="42.2050319" lon="14.2170536"><ele>460.71428571428567</ele><time>2026-05-01T13:36:48.002Z</time></trkpt><trkpt lat="42.2051017" lon="14.2170163"><ele>460.1428571428571</ele><time>2026-05-01T13:36:49.002Z</time></trkpt><trkpt lat="42.2051782" lon="14.2169795"><ele>459.57142857142856</ele><time>2026-05-01T13:36:50.002Z</time></trkpt><trkpt lat="42.2052524" lon="14.2169523"><ele>459.0</ele><time>2026-05-01T13:36:51.002Z</time></trkpt><trkpt lat="42.2053236" lon="14.2169309"><ele>459.0</ele><time>2026-05-01T13:36:52.002Z</time></trkpt><trkpt lat="42.2053881" lon="14.2169122"><ele>459.0</ele><time>2026-05-01T13:36:53.002Z</time></trkpt><trkpt lat="42.2054786" lon="14.21691"><ele>459.0</ele><time>2026-05-01T13:36:55.002Z</time></trkpt><trkpt lat="42.205536" lon="14.2169646"><ele>459.0</ele><time>2026-05-01T13:36:57.002Z</time></trkpt><trkpt lat="42.2056075" lon="14.2171169"><ele>459.0</ele><time>2026-05-01T13:36:59.002Z</time></trkpt><trkpt lat="42.2056452" lon="14.2172354"><ele>456.0</ele><time>2026-05-01T13:37:00.002Z</time></trkpt><trkpt lat="42.2056911" lon="14.217347"><ele>453.0</ele><time>2026-05-01T13:37:01.002Z</time></trkpt><trkpt lat="42.2057461" lon="14.2174541"><ele>450.0</ele><time>2026-05-01T13:37:02.002Z</time></trkpt><trkpt lat="42.205808" lon="14.2175791"><ele>447.0</ele><time>2026-05-01T13:37:03.002Z</time></trkpt><trkpt lat="42.205877" lon="14.217724"><ele>444.0</ele><time>2026-05-01T13:37:04.002Z</time></trkpt><trkpt lat="42.2059546" lon="14.2178778"><ele>444.0</ele><time>2026-05-01T13:37:05.002Z</time></trkpt><trkpt lat="42.2060356" lon="14.2180262"><ele>444.0</ele><time>2026-05-01T13:37:06.002Z</time></trkpt><trkpt lat="42.206115" lon="14.2181675"><ele>444.0</ele><time>2026-05-01T13:37:07.002Z</time></trkpt><trkpt lat="42.2062214" lon="14.2182813"><ele>444.0</ele><time>2026-05-01T13:37:08.002Z</time></trkpt><trkpt lat="42.2063376" lon="14.2183809"><ele>442.5</ele><time>2026-05-01T13:37:09.002Z</time></trkpt><trkpt lat="42.206456" lon="14.2184604"><ele>441.0</ele><time>2026-05-01T13:37:10.002Z</time></trkpt><trkpt lat="42.2065606" lon="14.2185421"><ele>439.5</ele><time>2026-05-01T13:37:11.002Z</time></trkpt><trkpt lat="42.2066517" lon="14.2186342"><ele>438.0</ele><time>2026-05-01T13:37:12.002Z</time></trkpt><trkpt lat="42.2067364" lon="14.2187568"><ele>435.66666666666663</ele><time>2026-05-01T13:37:13.002Z</time></trkpt><trkpt lat="42.2068145" lon="14.2189159"><ele>433.3333333333333</ele><time>2026-05-01T13:37:14.002Z</time></trkpt><trkpt lat="42.2068997" lon="14.2190959"><ele>431.0</ele><time>2026-05-01T13:37:15.002Z</time></trkpt><trkpt lat="42.2069778" lon="14.2192877"><ele>430.25</ele><time>2026-05-01T13:37:16.002Z</time></trkpt><trkpt lat="42.2070553" lon="14.2194531"><ele>429.5</ele><time>2026-05-01T13:37:17.002Z</time></trkpt><trkpt lat="42.2071222" lon="14.2196005"><ele>428.75</ele><time>2026-05-01T13:37:18.002Z</time></trkpt><trkpt lat="42.2071796" lon="14.219742"><ele>428.0</ele><time>2026-05-01T13:37:19.002Z</time></trkpt><trkpt lat="42.2072367" lon="14.2198557"><ele>427.2</ele><time>2026-05-01T13:37:20.002Z</time></trkpt><trkpt lat="42.2073091" lon="14.2199315"><ele>426.4</ele><time>2026-05-01T13:37:21.002Z</time></trkpt><trkpt lat="42.2074058" lon="14.2199834"><ele>425.59999999999997</ele><time>2026-05-01T13:37:22.002Z</time></trkpt><trkpt lat="42.2075156" lon="14.2199892"><ele>424.79999999999995</ele><time>2026-05-01T13:37:23.002Z</time></trkpt><trkpt lat="42.2076058" lon="14.2199898"><ele>424.0</ele><time>2026-05-01T13:37:24.002Z</time></trkpt><trkpt lat="42.2076691" lon="14.220002"><ele>422.79999999999995</ele><time>2026-05-01T13:37:25.002Z</time></trkpt><trkpt lat="42.2077618" lon="14.2200496"><ele>421.59999999999997</ele><time>2026-05-01T13:37:27.002Z</time></trkpt><trkpt lat="42.2077971" lon="14.220175"><ele>420.4</ele><time>2026-05-01T13:37:29.002Z</time></trkpt><trkpt lat="42.2078552" lon="14.2202203"><ele>419.2</ele><time>2026-05-01T13:37:31.002Z</time></trkpt><trkpt lat="42.2079421" lon="14.2201763"><ele>418.0</ele><time>2026-05-01T13:37:33.002Z</time></trkpt><trkpt lat="42.2080455" lon="14.2202125"><ele>418.00000000000006</ele><time>2026-05-01T13:37:35.002Z</time></trkpt><trkpt lat="42.2081171" lon="14.2203275"><ele>418.0</ele><time>2026-05-01T13:37:37.002Z</time></trkpt><trkpt lat="42.2081632" lon="14.2204092"><ele>418.0</ele><time>2026-05-01T13:37:39.002Z</time></trkpt><trkpt lat="42.2082758" lon="14.2203622"><ele>418.0</ele><time>2026-05-01T13:37:42.002Z</time></trkpt><trkpt lat="42.2083362" lon="14.2203218"><ele>418.00000000000006</ele><time>2026-05-01T13:37:43.002Z</time></trkpt><trkpt lat="42.2084026" lon="14.2202755"><ele>418.0</ele><time>2026-05-01T13:37:44.002Z</time></trkpt><trkpt lat="42.2084676" lon="14.2202168"><ele>416.33333333333337</ele><time>2026-05-01T13:37:45.002Z</time></trkpt><trkpt lat="42.2085457" lon="14.2201462"><ele>414.6666666666667</ele><time>2026-05-01T13:37:46.002Z</time></trkpt><trkpt lat="42.2086225" lon="14.220067"><ele>413.0</ele><time>2026-05-01T13:37:47.002Z</time></trkpt><trkpt lat="42.2087029" lon="14.219995"><ele>411.33333333333337</ele><time>2026-05-01T13:37:48.002Z</time></trkpt><trkpt lat="42.2087753" lon="14.2199363"><ele>409.6666666666667</ele><time>2026-05-01T13:37:49.002Z</time></trkpt><trkpt lat="42.2088359" lon="14.2199081"><ele>408.0</ele><time>2026-05-01T13:37:50.002Z</time></trkpt><trkpt lat="42.2089562" lon="14.2199204"><ele>406.1666666666667</ele><time>2026-05-01T13:37:52.002Z</time></trkpt><trkpt lat="42.2090341" lon="14.2199416"><ele>404.33333333333337</ele><time>2026-05-01T13:37:53.002Z</time></trkpt><trkpt lat="42.20911" lon="14.2199737"><ele>402.5</ele><time>2026-05-01T13:37:54.002Z</time></trkpt><trkpt lat="42.2091864" lon="14.2200098"><ele>400.6666666666667</ele><time>2026-05-01T13:37:55.002Z</time></trkpt><trkpt lat="42.2092589" lon="14.220035"><ele>398.83333333333337</ele><time>2026-05-01T13:37:56.002Z</time></trkpt><trkpt lat="42.2093306" lon="14.2200507"><ele>397.0</ele><time>2026-05-01T13:37:57.002Z</time></trkpt><trkpt lat="42.2094426" lon="14.2200719"><ele>397.00000000000006</ele><time>2026-05-01T13:37:59.002Z</time></trkpt><trkpt lat="42.2095334" lon="14.2200297"><ele>397.0</ele><time>2026-05-01T13:38:01.002Z</time></trkpt><trkpt lat="42.2095789" lon="14.2199639"><ele>397.0</ele><time>2026-05-01T13:38:02.002Z</time></trkpt><trkpt lat="42.209629" lon="14.2198719"><ele>397.0</ele><time>2026-05-01T13:38:03.002Z</time></trkpt><trkpt lat="42.2096806" lon="14.2197665"><ele>397.00000000000006</ele><time>2026-05-01T13:38:04.002Z</time></trkpt><trkpt lat="42.2097091" lon="14.2196557"><ele>397.0</ele><time>2026-05-01T13:38:05.002Z</time></trkpt><trkpt lat="42.2097295" lon="14.2195459"><ele>397.00000000000006</ele><time>2026-05-01T13:38:06.002Z</time></trkpt><trkpt lat="42.2097363" lon="14.2194494"><ele>397.0</ele><time>2026-05-01T13:38:07.002Z</time></trkpt><trkpt lat="42.2097619" lon="14.2193586"><ele>397.0</ele><time>2026-05-01T13:38:09.002Z</time></trkpt><trkpt lat="42.2098293" lon="14.2194386"><ele>397.0</ele><time>2026-05-01T13:38:12.002Z</time></trkpt><trkpt lat="42.2098148" lon="14.2195621"><ele>397.00000000000006</ele><time>2026-05-01T13:38:13.002Z</time></trkpt><trkpt lat="42.209811" lon="14.2196986"><ele>397.0</ele><time>2026-05-01T13:38:14.002Z</time></trkpt><trkpt lat="42.2098104" lon="14.2198798"><ele>397.0</ele><time>2026-05-01T13:38:15.002Z</time></trkpt><trkpt lat="42.2098026" lon="14.2200928"><ele>397.0</ele><time>2026-05-01T13:38:16.002Z</time></trkpt><trkpt lat="42.2097894" lon="14.220313"><ele>397.0</ele><time>2026-05-01T13:38:17.002Z</time></trkpt><trkpt lat="42.2097917" lon="14.2204961"><ele>397.00000000000006</ele><time>2026-05-01T13:38:18.002Z</time></trkpt><trkpt lat="42.2098081" lon="14.220625"><ele>397.0</ele><time>2026-05-01T13:38:19.002Z</time></trkpt><trkpt lat="42.2098273" lon="14.2207147"><ele>397.0</ele><time>2026-05-01T13:38:20.002Z</time></trkpt><trkpt lat="42.2098942" lon="14.2207917"><ele>397.0</ele><time>2026-05-01T13:38:22.002Z</time></trkpt><trkpt lat="42.2100072" lon="14.2207637"><ele>397.00000000000006</ele><time>2026-05-01T13:38:24.002Z</time></trkpt><trkpt lat="42.2100798" lon="14.2207399"><ele>397.0</ele><time>2026-05-01T13:38:25.002Z</time></trkpt><trkpt lat="42.2101565" lon="14.2207276"><ele>395.83333333333337</ele><time>2026-05-01T13:38:26.002Z</time></trkpt><trkpt lat="42.2102326" lon="14.2207237"><ele>394.6666666666667</ele><time>2026-05-01T13:38:27.002Z</time></trkpt><trkpt lat="42.2103181" lon="14.2207427"><ele>393.5</ele><time>2026-05-01T13:38:29.002Z</time></trkpt><trkpt lat="42.210367" lon="14.2208422"><ele>392.33333333333337</ele><time>2026-05-01T13:38:31.002Z</time></trkpt><trkpt lat="42.2104349" lon="14.2209062"><ele>391.1666666666667</ele><time>2026-05-01T13:38:33.002Z</time></trkpt><trkpt lat="42.210547" lon="14.2208837"><ele>390.0</ele><time>2026-05-01T13:38:35.002Z</time></trkpt><trkpt lat="42.2106223" lon="14.2208529"><ele>388.8</ele><time>2026-05-01T13:38:36.002Z</time></trkpt><trkpt lat="42.2107123" lon="14.2208236"><ele>387.6</ele><time>2026-05-01T13:38:37.002Z</time></trkpt><trkpt lat="42.2108011" lon="14.2208039"><ele>386.4</ele><time>2026-05-01T13:38:38.002Z</time></trkpt><trkpt lat="42.2108942" lon="14.2207908"><ele>385.2</ele><time>2026-05-01T13:38:39.002Z</time></trkpt><trkpt lat="42.2109877" lon="14.2207746"><ele>384.0</ele><time>2026-05-01T13:38:40.002Z</time></trkpt><trkpt lat="42.2110772" lon="14.2207583"><ele>384.0</ele><time>2026-05-01T13:38:41.002Z</time></trkpt><trkpt lat="42.2111688" lon="14.220737"><ele>384.0</ele><time>2026-05-01T13:38:42.002Z</time></trkpt><trkpt lat="42.2112553" lon="14.2207147"><ele>384.0</ele><time>2026-05-01T13:38:43.002Z</time></trkpt><trkpt lat="42.2113342" lon="14.2206978"><ele>384.0</ele><time>2026-05-01T13:38:44.002Z</time></trkpt><trkpt lat="42.2114085" lon="14.2206761"><ele>384.0</ele><time>2026-05-01T13:38:45.002Z</time></trkpt><trkpt lat="42.2114764" lon="14.2206492"><ele>384.0</ele><time>2026-05-01T13:38:46.002Z</time></trkpt><trkpt lat="42.211543" lon="14.2206178"><ele>381.6666666666667</ele><time>2026-05-01T13:38:47.002Z</time></trkpt><trkpt lat="42.2116128" lon="14.2206067"><ele>379.3333333333333</ele><time>2026-05-01T13:38:48.002Z</time></trkpt><trkpt lat="42.2116871" lon="14.2205961"><ele>377.0</ele><time>2026-05-01T13:38:49.002Z</time></trkpt><trkpt lat="42.211752" lon="14.2205855"><ele>374.66666666666663</ele><time>2026-05-01T13:38:50.003Z</time></trkpt><trkpt lat="42.211816" lon="14.2205627"><ele>372.3333333333333</ele><time>2026-05-01T13:38:51.003Z</time></trkpt><trkpt lat="42.2119119" lon="14.2205011"><ele>370.0</ele><time>2026-05-01T13:38:53.003Z</time></trkpt><trkpt lat="42.2119619" lon="14.2204396"><ele>370.0</ele><time>2026-05-01T13:38:55.003Z</time></trkpt><trkpt lat="42.2120033" lon="14.2203498"><ele>370.0</ele><time>2026-05-01T13:38:58.003Z</time></trkpt><trkpt lat="42.2120488" lon="14.2202649"><ele>370.0</ele><time>2026-05-01T13:39:01.003Z</time></trkpt><trkpt lat="42.2120896" lon="14.220178"><ele>370.0</ele><time>2026-05-01T13:39:05.003Z</time></trkpt><trkpt lat="42.2121666" lon="14.2201276"><ele>370.0</ele><time>2026-05-01T13:39:08.003Z</time></trkpt><trkpt lat="42.2122295" lon="14.2201445"><ele>370.0</ele><time>2026-05-01T13:39:10.003Z</time></trkpt><trkpt lat="42.2122841" lon="14.220258"><ele>370.0</ele><time>2026-05-01T13:39:13.003Z</time></trkpt><trkpt lat="42.2122834" lon="14.2204122"><ele>370.0</ele><time>2026-05-01T13:39:15.003Z</time></trkpt><trkpt lat="42.2122774" lon="14.220498"><ele>370.0</ele><time>2026-05-01T13:39:16.003Z</time></trkpt><trkpt lat="42.2122934" lon="14.2206339"><ele>370.0</ele><time>2026-05-01T13:39:18.003Z</time></trkpt><trkpt lat="42.2123363" lon="14.2207746"><ele>370.0</ele><time>2026-05-01T13:39:20.003Z</time></trkpt><trkpt lat="42.2124004" lon="14.2208088"><ele>370.2857142857143</ele><time>2026-05-01T13:39:22.003Z</time></trkpt><trkpt lat="42.2124629" lon="14.2207797"><ele>370.57142857142856</ele><time>2026-05-01T13:39:23.003Z</time></trkpt><trkpt lat="42.2125246" lon="14.2207416"><ele>370.8571428571429</ele><time>2026-05-01T13:39:24.003Z</time></trkpt><trkpt lat="42.2125986" lon="14.2207019"><ele>371.1428571428571</ele><time>2026-05-01T13:39:25.003Z</time></trkpt><trkpt lat="42.2126691" lon="14.2206668"><ele>371.42857142857144</ele><time>2026-05-01T13:39:26.003Z</time></trkpt><trkpt lat="42.2127278" lon="14.2206333"><ele>371.7142857142857</ele><time>2026-05-01T13:39:27.003Z</time></trkpt><trkpt lat="42.2128182" lon="14.2205944"><ele>372.0</ele><time>2026-05-01T13:39:29.003Z</time></trkpt><trkpt lat="42.2128909" lon="14.2205499"><ele>372.0</ele><time>2026-05-01T13:39:31.003Z</time></trkpt><trkpt lat="42.2129714" lon="14.220473"><ele>372.0</ele><time>2026-05-01T13:39:33.003Z</time></trkpt><trkpt lat="42.2130512" lon="14.2204238"><ele>372.0</ele><time>2026-05-01T13:39:35.003Z</time></trkpt><trkpt lat="42.2131112" lon="14.2203687"><ele>372.0</ele><time>2026-05-01T13:39:37.003Z</time></trkpt><trkpt lat="42.2131775" lon="14.2202799"><ele>372.0</ele><time>2026-05-01T13:39:39.003Z</time></trkpt><trkpt lat="42.2132904" lon="14.2202017"><ele>372.5714285714286</ele><time>2026-05-01T13:39:41.003Z</time></trkpt><trkpt lat="42.2133629" lon="14.2201535"><ele>373.14285714285717</ele><time>2026-05-01T13:39:42.003Z</time></trkpt><trkpt lat="42.2134246" lon="14.2200949"><ele>373.7142857142857</ele><time>2026-05-01T13:39:43.003Z</time></trkpt><trkpt lat="42.2134776" lon="14.2200263"><ele>374.28571428571433</ele><time>2026-05-01T13:39:44.003Z</time></trkpt><trkpt lat="42.2135283" lon="14.2199617"><ele>374.85714285714283</ele><time>2026-05-01T13:39:45.003Z</time></trkpt><trkpt lat="42.2135857" lon="14.219912"><ele>375.42857142857144</ele><time>2026-05-01T13:39:46.003Z</time></trkpt><trkpt lat="42.2136477" lon="14.2198633"><ele>376.0</ele><time>2026-05-01T13:39:47.003Z</time></trkpt><trkpt lat="42.2137074" lon="14.2197995"><ele>374.20000000000005</ele><time>2026-05-01T13:39:48.003Z</time></trkpt><trkpt lat="42.2137691" lon="14.2197311"><ele>372.40000000000003</ele><time>2026-05-01T13:39:49.003Z</time></trkpt><trkpt lat="42.2138291" lon="14.2196714"><ele>370.6</ele><time>2026-05-01T13:39:50.003Z</time></trkpt><trkpt lat="42.2139241" lon="14.2195716"><ele>368.8</ele><time>2026-05-01T13:39:52.003Z</time></trkpt><trkpt lat="42.2139937" lon="14.2194665"><ele>367.0</ele><time>2026-05-01T13:39:54.003Z</time></trkpt><trkpt lat="42.2140572" lon="14.2193509"><ele>367.0</ele><time>2026-05-01T13:39:56.003Z</time></trkpt><trkpt lat="42.2141216" lon="14.2192302"><ele>367.0</ele><time>2026-05-01T13:39:58.003Z</time></trkpt><trkpt lat="42.2141744" lon="14.2191039"><ele>367.0</ele><time>2026-05-01T13:40:00.003Z</time></trkpt><trkpt lat="42.2142248" lon="14.2189997"><ele>367.0</ele><time>2026-05-01T13:40:02.003Z</time></trkpt><trkpt lat="42.2142808" lon="14.2189099"><ele>367.0</ele><time>2026-05-01T13:40:04.003Z</time></trkpt><trkpt lat="42.214357" lon="14.2188117"><ele>364.5</ele><time>2026-05-01T13:40:06.003Z</time></trkpt><trkpt lat="42.2144144" lon="14.2187706"><ele>362.0</ele><time>2026-05-01T13:40:07.003Z</time></trkpt><trkpt lat="42.2144791" lon="14.2187155"><ele>359.5</ele><time>2026-05-01T13:40:08.004Z</time></trkpt><trkpt lat="42.2145437" lon="14.2186491"><ele>357.0</ele><time>2026-05-01T13:40:09.003Z</time></trkpt><trkpt lat="42.2146041" lon="14.2185792"><ele>354.5</ele><time>2026-05-01T13:40:10.003Z</time></trkpt><trkpt lat="42.2146598" lon="14.2185181"><ele>352.0</ele><time>2026-05-01T13:40:11.003Z</time></trkpt><trkpt lat="42.2147179" lon="14.2184523"><ele>352.0</ele><time>2026-05-01T13:40:12.003Z</time></trkpt><trkpt lat="42.2147706" lon="14.2183844"><ele>352.0</ele><time>2026-05-01T13:40:13.003Z</time></trkpt><trkpt lat="42.2148281" lon="14.2183169"><ele>352.0</ele><time>2026-05-01T13:40:14.003Z</time></trkpt><trkpt lat="42.2148828" lon="14.218248"><ele>352.0</ele><time>2026-05-01T13:40:15.003Z</time></trkpt><trkpt lat="42.2149332" lon="14.2181849"><ele>352.0</ele><time>2026-05-01T13:40:16.003Z</time></trkpt><trkpt lat="42.2149883" lon="14.2181239"><ele>352.0</ele><time>2026-05-01T13:40:17.003Z</time></trkpt><trkpt lat="42.2150512" lon="14.2180611"><ele>352.0</ele><time>2026-05-01T13:40:18.003Z</time></trkpt><trkpt lat="42.215108" lon="14.2180046"><ele>351.3333333333333</ele><time>2026-05-01T13:40:19.003Z</time></trkpt><trkpt lat="42.2151643" lon="14.2179589"><ele>350.66666666666663</ele><time>2026-05-01T13:40:20.003Z</time></trkpt><trkpt lat="42.2152335" lon="14.2179148"><ele>350.0</ele><time>2026-05-01T13:40:21.003Z</time></trkpt><trkpt lat="42.2153151" lon="14.2178686"><ele>349.3333333333333</ele><time>2026-05-01T13:40:22.003Z</time></trkpt><trkpt lat="42.2153927" lon="14.2178159"><ele>348.6666666666667</ele><time>2026-05-01T13:40:23.003Z</time></trkpt><trkpt lat="42.2154635" lon="14.217766"><ele>348.0</ele><time>2026-05-01T13:40:24.003Z</time></trkpt><trkpt lat="42.2155339" lon="14.2177043"><ele>348.0</ele><time>2026-05-01T13:40:25.003Z</time></trkpt><trkpt lat="42.2156071" lon="14.2176348"><ele>348.0</ele><time>2026-05-01T13:40:26.003Z</time></trkpt><trkpt lat="42.2156798" lon="14.217564"><ele>348.0</ele><time>2026-05-01T13:40:27.003Z</time></trkpt><trkpt lat="42.2157561" lon="14.2175008"><ele>348.0</ele><time>2026-05-01T13:40:28.003Z</time></trkpt><trkpt lat="42.2158247" lon="14.2174379"><ele>348.0</ele><time>2026-05-01T13:40:29.003Z</time></trkpt><trkpt lat="42.2158879" lon="14.2173803"><ele>348.0</ele><time>2026-05-01T13:40:30.003Z</time></trkpt><trkpt lat="42.2159525" lon="14.2173123"><ele>347.0</ele><time>2026-05-01T13:40:31.003Z</time></trkpt><trkpt lat="42.2160139" lon="14.2172501"><ele>346.0</ele><time>2026-05-01T13:40:32.003Z</time></trkpt><trkpt lat="42.2160793" lon="14.2171902"><ele>345.0</ele><time>2026-05-01T13:40:33.003Z</time></trkpt><trkpt lat="42.2161411" lon="14.2171288"><ele>344.0</ele><time>2026-05-01T13:40:34.003Z</time></trkpt><trkpt lat="42.2162001" lon="14.217074"><ele>343.0</ele><time>2026-05-01T13:40:35.003Z</time></trkpt><trkpt lat="42.2162547" lon="14.2170295"><ele>342.0</ele><time>2026-05-01T13:40:36.003Z</time></trkpt><trkpt lat="42.2163099" lon="14.21698"><ele>341.0</ele><time>2026-05-01T13:40:37.003Z</time></trkpt><trkpt lat="42.2163651" lon="14.216934"><ele>341.0</ele><time>2026-05-01T13:40:38.003Z</time></trkpt><trkpt lat="42.2164306" lon="14.2168899"><ele>341.0</ele><time>2026-05-01T13:40:39.003Z</time></trkpt><trkpt lat="42.2164943" lon="14.2168548"><ele>341.0</ele><time>2026-05-01T13:40:40.003Z</time></trkpt><trkpt lat="42.2166065" lon="14.216804"><ele>341.0</ele><time>2026-05-01T13:40:42.003Z</time></trkpt><trkpt lat="42.216716" lon="14.2167491"><ele>341.0</ele><time>2026-05-01T13:40:44.003Z</time></trkpt><trkpt lat="42.2167768" lon="14.2167055"><ele>341.0</ele><time>2026-05-01T13:40:45.003Z</time></trkpt><trkpt lat="42.2168456" lon="14.2166554"><ele>341.1666666666667</ele><time>2026-05-01T13:40:46.003Z</time></trkpt><trkpt lat="42.2169147" lon="14.2165993"><ele>341.33333333333337</ele><time>2026-05-01T13:40:47.003Z</time></trkpt><trkpt lat="42.216976" lon="14.2165545"><ele>341.5</ele><time>2026-05-01T13:40:48.003Z</time></trkpt><trkpt lat="42.2170426" lon="14.2165031"><ele>341.6666666666667</ele><time>2026-05-01T13:40:49.003Z</time></trkpt><trkpt lat="42.217116" lon="14.2164577"><ele>341.8333333333333</ele><time>2026-05-01T13:40:50.003Z</time></trkpt><trkpt lat="42.2172018" lon="14.2164093"><ele>342.0</ele><time>2026-05-01T13:40:51.003Z</time></trkpt><trkpt lat="42.2172864" lon="14.2163581"><ele>342.40000000000003</ele><time>2026-05-01T13:40:52.003Z</time></trkpt><trkpt lat="42.2173655" lon="14.2163114"><ele>342.8</ele><time>2026-05-01T13:40:53.003Z</time></trkpt><trkpt lat="42.2174326" lon="14.2162684"><ele>343.2</ele><time>2026-05-01T13:40:54.003Z</time></trkpt><trkpt lat="42.2175338" lon="14.2162501"><ele>343.6</ele><time>2026-05-01T13:40:56.003Z</time></trkpt><trkpt lat="42.2175963" lon="14.2163431"><ele>344.0</ele><time>2026-05-01T13:40:58.003Z</time></trkpt><trkpt lat="42.2176695" lon="14.2164932"><ele>344.00000000000006</ele><time>2026-05-01T13:41:00.003Z</time></trkpt><trkpt lat="42.2177049" lon="14.2165792"><ele>344.0</ele><time>2026-05-01T13:41:01.003Z</time></trkpt><trkpt lat="42.2177451" lon="14.2166475"><ele>344.0</ele><time>2026-05-01T13:41:02.003Z</time></trkpt><trkpt lat="42.2176905" lon="14.2167496"><ele>344.0</ele><time>2026-05-01T13:41:04.003Z</time></trkpt><trkpt lat="42.2176337" lon="14.2167942"><ele>344.0</ele><time>2026-05-01T13:41:05.003Z</time></trkpt><trkpt lat="42.2175673" lon="14.2168171"><ele>344.00000000000006</ele><time>2026-05-01T13:41:06.003Z</time></trkpt><trkpt lat="42.2175026" lon="14.2168325"><ele>344.0</ele><time>2026-05-01T13:41:07.003Z</time></trkpt><trkpt lat="42.2174486" lon="14.2169085"><ele>344.0</ele><time>2026-05-01T13:41:09.003Z</time></trkpt><trkpt lat="42.2175341" lon="14.2169403"><ele>344.0</ele><time>2026-05-01T13:41:11.003Z</time></trkpt><trkpt lat="42.2176135" lon="14.21694"><ele>344.0</ele><time>2026-05-01T13:41:12.003Z</time></trkpt><trkpt lat="42.2176968" lon="14.2169276"><ele>344.0</ele><time>2026-05-01T13:41:13.003Z</time></trkpt><trkpt lat="42.2177784" lon="14.2169202"><ele>344.0</ele><time>2026-05-01T13:41:14.003Z</time></trkpt><trkpt lat="42.2178606" lon="14.2169084"><ele>344.0</ele><time>2026-05-01T13:41:15.003Z</time></trkpt><trkpt lat="42.2179346" lon="14.2169081"><ele>344.0</ele><time>2026-05-01T13:41:16.003Z</time></trkpt><trkpt lat="42.2180445" lon="14.2169549"><ele>344.0</ele><time>2026-05-01T13:41:18.003Z</time></trkpt><trkpt lat="42.2181067" lon="14.2170231"><ele>344.0</ele><time>2026-05-01T13:41:19.003Z</time></trkpt><trkpt lat="42.2181652" lon="14.2171017"><ele>344.0</ele><time>2026-05-01T13:41:20.003Z</time></trkpt><trkpt lat="42.2182222" lon="14.2171628"><ele>344.0</ele><time>2026-05-01T13:41:21.003Z</time></trkpt><trkpt lat="42.2183184" lon="14.217172"><ele>344.0</ele><time>2026-05-01T13:41:23.003Z</time></trkpt><trkpt lat="42.2183889" lon="14.2170294"><ele>344.6</ele><time>2026-05-01T13:41:25.003Z</time></trkpt><trkpt lat="42.2184576" lon="14.2169418"><ele>345.2</ele><time>2026-05-01T13:41:26.003Z</time></trkpt><trkpt lat="42.2185363" lon="14.2168445"><ele>345.8</ele><time>2026-05-01T13:41:27.003Z</time></trkpt><trkpt lat="42.2186298" lon="14.2167512"><ele>346.40000000000003</ele><time>2026-05-01T13:41:28.003Z</time></trkpt><trkpt lat="42.2187298" lon="14.2166612"><ele>347.0</ele><time>2026-05-01T13:41:29.003Z</time></trkpt><trkpt lat="42.2188365" lon="14.2165624"><ele>345.5</ele><time>2026-05-01T13:41:30.003Z</time></trkpt><trkpt lat="42.2189434" lon="14.2164436"><ele>344.0</ele><time>2026-05-01T13:41:31.003Z</time></trkpt><trkpt lat="42.2190414" lon="14.216318"><ele>342.5</ele><time>2026-05-01T13:41:32.003Z</time></trkpt><trkpt lat="42.2191352" lon="14.2161793"><ele>341.0</ele><time>2026-05-01T13:41:33.003Z</time></trkpt><trkpt lat="42.2192237" lon="14.2160407"><ele>341.0</ele><time>2026-05-01T13:41:34.003Z</time></trkpt><trkpt lat="42.2193053" lon="14.2158853"><ele>341.0</ele><time>2026-05-01T13:41:35.003Z</time></trkpt><trkpt lat="42.2193738" lon="14.2157064"><ele>341.0</ele><time>2026-05-01T13:41:36.003Z</time></trkpt><trkpt lat="42.2194421" lon="14.2155113"><ele>337.6666666666667</ele><time>2026-05-01T13:41:37.003Z</time></trkpt><trkpt lat="42.219519" lon="14.215314"><ele>334.3333333333333</ele><time>2026-05-01T13:41:38.003Z</time></trkpt><trkpt lat="42.2196007" lon="14.2151261"><ele>331.0</ele><time>2026-05-01T13:41:39.004Z</time></trkpt><trkpt lat="42.2196886" lon="14.2149426"><ele>329.66666666666663</ele><time>2026-05-01T13:41:40.003Z</time></trkpt><trkpt lat="42.2197767" lon="14.2147558"><ele>328.3333333333333</ele><time>2026-05-01T13:41:41.003Z</time></trkpt><trkpt lat="42.2198575" lon="14.2145717"><ele>327.0</ele><time>2026-05-01T13:41:42.003Z</time></trkpt><trkpt lat="42.2199265" lon="14.2144015"><ele>327.0</ele><time>2026-05-01T13:41:43.003Z</time></trkpt><trkpt lat="42.2199847" lon="14.2142511"><ele>327.0</ele><time>2026-05-01T13:41:44.003Z</time></trkpt><trkpt lat="42.2200293" lon="14.2141189"><ele>327.0</ele><time>2026-05-01T13:41:45.003Z</time></trkpt><trkpt lat="42.2200674" lon="14.213991"><ele>327.0</ele><time>2026-05-01T13:41:46.003Z</time></trkpt><trkpt lat="42.2201034" lon="14.213896"><ele>327.0</ele><time>2026-05-01T13:41:47.003Z</time></trkpt><trkpt lat="42.2201063" lon="14.2137581"><ele>325.8</ele><time>2026-05-01T13:41:49.003Z</time></trkpt><trkpt lat="42.2199914" lon="14.2136642"><ele>324.6</ele><time>2026-05-01T13:41:51.003Z</time></trkpt><trkpt lat="42.2199221" lon="14.2136233"><ele>323.40000000000003</ele><time>2026-05-01T13:41:52.003Z</time></trkpt><trkpt lat="42.2198647" lon="14.2135309"><ele>322.20000000000005</ele><time>2026-05-01T13:41:54.003Z</time></trkpt><trkpt lat="42.2199033" lon="14.213398"><ele>321.0</ele><time>2026-05-01T13:41:56.003Z</time></trkpt><trkpt lat="42.2199563" lon="14.2133085"><ele>321.0</ele><time>2026-05-01T13:41:57.003Z</time></trkpt><trkpt lat="42.2200158" lon="14.213192"><ele>321.0</ele><time>2026-05-01T13:41:58.003Z</time></trkpt><trkpt lat="42.2200959" lon="14.2130547"><ele>321.0</ele><time>2026-05-01T13:41:59.003Z</time></trkpt><trkpt lat="42.2201905" lon="14.2129176"><ele>321.0</ele><time>2026-05-01T13:42:00.003Z</time></trkpt><trkpt lat="42.2203048" lon="14.2127807"><ele>321.3333333333333</ele><time>2026-05-01T13:42:01.003Z</time></trkpt><trkpt lat="42.2204229" lon="14.2126218"><ele>321.66666666666663</ele><time>2026-05-01T13:42:02.003Z</time></trkpt><trkpt lat="42.2205527" lon="14.2124662"><ele>322.0</ele><time>2026-05-01T13:42:03.003Z</time></trkpt><trkpt lat="42.2206793" lon="14.2123045"><ele>321.3333333333333</ele><time>2026-05-01T13:42:04.003Z</time></trkpt><trkpt lat="42.2207903" lon="14.2121456"><ele>320.6666666666667</ele><time>2026-05-01T13:42:05.003Z</time></trkpt><trkpt lat="42.2209084" lon="14.2120024"><ele>320.0</ele><time>2026-05-01T13:42:06.003Z</time></trkpt><trkpt lat="42.2210352" lon="14.2118719"><ele>320.0</ele><time>2026-05-01T13:42:07.003Z</time></trkpt><trkpt lat="42.2211719" lon="14.211753"><ele>320.0</ele><time>2026-05-01T13:42:08.003Z</time></trkpt><trkpt lat="42.2213253" lon="14.2116628"><ele>320.0</ele><time>2026-05-01T13:42:09.003Z</time></trkpt><trkpt lat="42.2214856" lon="14.2115728"><ele>318.0</ele><time>2026-05-01T13:42:10.003Z</time></trkpt><trkpt lat="42.2216368" lon="14.2114842"><ele>316.0</ele><time>2026-05-01T13:42:11.003Z</time></trkpt><trkpt lat="42.2217767" lon="14.2113958"><ele>314.0</ele><time>2026-05-01T13:42:12.003Z</time></trkpt><trkpt lat="42.2219105" lon="14.2113126"><ele>314.0</ele><time>2026-05-01T13:42:13.003Z</time></trkpt><trkpt lat="42.2220456" lon="14.2112473"><ele>314.0</ele><time>2026-05-01T13:42:14.003Z</time></trkpt><trkpt lat="42.222187" lon="14.2111988"><ele>314.0</ele><time>2026-05-01T13:42:15.003Z</time></trkpt><trkpt lat="42.2223203" lon="14.2111547"><ele>314.0</ele><time>2026-05-01T13:42:16.003Z</time></trkpt><trkpt lat="42.2224502" lon="14.2111035"><ele>313.0</ele><time>2026-05-01T13:42:17.003Z</time></trkpt><trkpt lat="42.2225669" lon="14.2110364"><ele>312.0</ele><time>2026-05-01T13:42:18.003Z</time></trkpt><trkpt lat="42.2226826" lon="14.2109603"><ele>311.0</ele><time>2026-05-01T13:42:19.003Z</time></trkpt><trkpt lat="42.2227825" lon="14.2108802"><ele>310.0</ele><time>2026-05-01T13:42:20.003Z</time></trkpt><trkpt lat="42.2228728" lon="14.210799"><ele>310.0</ele><time>2026-05-01T13:42:21.003Z</time></trkpt><trkpt lat="42.2229551" lon="14.2107265"><ele>310.0</ele><time>2026-05-01T13:42:22.003Z</time></trkpt><trkpt lat="42.2230317" lon="14.2106564"><ele>310.0</ele><time>2026-05-01T13:42:23.003Z</time></trkpt><trkpt lat="42.223098" lon="14.2105926"><ele>310.0</ele><time>2026-05-01T13:42:24.003Z</time></trkpt><trkpt lat="42.2231645" lon="14.2105166"><ele>310.0</ele><time>2026-05-01T13:42:25.003Z</time></trkpt><trkpt lat="42.2232327" lon="14.2104444"><ele>310.0</ele><time>2026-05-01T13:42:26.003Z</time></trkpt><trkpt lat="42.2233021" lon="14.2103584"><ele>309.8333333333333</ele><time>2026-05-01T13:42:27.003Z</time></trkpt><trkpt lat="42.2233653" lon="14.2102711"><ele>309.66666666666663</ele><time>2026-05-01T13:42:28.003Z</time></trkpt><trkpt lat="42.2234288" lon="14.210189"><ele>309.5</ele><time>2026-05-01T13:42:29.003Z</time></trkpt><trkpt lat="42.2234973" lon="14.2101105"><ele>309.3333333333333</ele><time>2026-05-01T13:42:30.003Z</time></trkpt><trkpt lat="42.2235638" lon="14.2100341"><ele>309.1666666666667</ele><time>2026-05-01T13:42:31.003Z</time></trkpt><trkpt lat="42.2236306" lon="14.2099742"><ele>309.0</ele><time>2026-05-01T13:42:32.003Z</time></trkpt><trkpt lat="42.2236989" lon="14.2099218"><ele>309.0</ele><time>2026-05-01T13:42:33.003Z</time></trkpt><trkpt lat="42.2237615" lon="14.2098741"><ele>309.0</ele><time>2026-05-01T13:42:34.003Z</time></trkpt><trkpt lat="42.223824" lon="14.2098529"><ele>309.0</ele><time>2026-05-01T13:42:35.003Z</time></trkpt><trkpt lat="42.2239008" lon="14.2098601"><ele>309.0</ele><time>2026-05-01T13:42:36.003Z</time></trkpt><trkpt lat="42.2239822" lon="14.2098734"><ele>309.0</ele><time>2026-05-01T13:42:37.003Z</time></trkpt><trkpt lat="42.2240694" lon="14.2098947"><ele>309.0</ele><time>2026-05-01T13:42:38.003Z</time></trkpt><trkpt lat="42.2241523" lon="14.2099006"><ele>309.00000000000006</ele><time>2026-05-01T13:42:39.003Z</time></trkpt><trkpt lat="42.2242253" lon="14.2098915"><ele>309.0</ele><time>2026-05-01T13:42:40.003Z</time></trkpt><trkpt lat="42.2242922" lon="14.2098656"><ele>309.0</ele><time>2026-05-01T13:42:41.003Z</time></trkpt><trkpt lat="42.2243516" lon="14.2098144"><ele>309.0</ele><time>2026-05-01T13:42:42.003Z</time></trkpt><trkpt lat="42.2244046" lon="14.2097441"><ele>309.0</ele><time>2026-05-01T13:42:43.003Z</time></trkpt><trkpt lat="42.2244559" lon="14.2096645"><ele>309.00000000000006</ele><time>2026-05-01T13:42:44.003Z</time></trkpt><trkpt lat="42.2245147" lon="14.2095863"><ele>309.0</ele><time>2026-05-01T13:42:45.003Z</time></trkpt><trkpt lat="42.2245733" lon="14.2095079"><ele>309.3333333333333</ele><time>2026-05-01T13:42:46.003Z</time></trkpt><trkpt lat="42.2246341" lon="14.2094338"><ele>309.6666666666667</ele><time>2026-05-01T13:42:47.003Z</time></trkpt><trkpt lat="42.2246905" lon="14.2093649"><ele>310.0</ele><time>2026-05-01T13:42:48.003Z</time></trkpt><trkpt lat="42.224754" lon="14.2092952"><ele>310.33333333333337</ele><time>2026-05-01T13:42:49.003Z</time></trkpt><trkpt lat="42.2248256" lon="14.209243"><ele>310.6666666666667</ele><time>2026-05-01T13:42:50.003Z</time></trkpt><trkpt lat="42.224906" lon="14.2092029"><ele>311.0</ele><time>2026-05-01T13:42:51.003Z</time></trkpt><trkpt lat="42.2249965" lon="14.2091704"><ele>310.2</ele><time>2026-05-01T13:42:52.003Z</time></trkpt><trkpt lat="42.2250881" lon="14.2091515"><ele>309.40000000000003</ele><time>2026-05-01T13:42:53.003Z</time></trkpt><trkpt lat="42.2251841" lon="14.209123"><ele>308.6</ele><time>2026-05-01T13:42:54.003Z</time></trkpt><trkpt lat="42.2252847" lon="14.2090764"><ele>307.8</ele><time>2026-05-01T13:42:55.003Z</time></trkpt><trkpt lat="42.2253888" lon="14.2090145"><ele>307.0</ele><time>2026-05-01T13:42:56.003Z</time></trkpt><trkpt lat="42.2254918" lon="14.2089504"><ele>306.6</ele><time>2026-05-01T13:42:57.003Z</time></trkpt><trkpt lat="42.2255947" lon="14.2088869"><ele>306.2</ele><time>2026-05-01T13:42:58.003Z</time></trkpt><trkpt lat="42.2256987" lon="14.2088329"><ele>305.8</ele><time>2026-05-01T13:42:59.003Z</time></trkpt><trkpt lat="42.2258014" lon="14.208795"><ele>305.4</ele><time>2026-05-01T13:43:00.003Z</time></trkpt><trkpt lat="42.2259056" lon="14.2087637"><ele>305.0</ele><time>2026-05-01T13:43:01.003Z</time></trkpt><trkpt lat="42.2259977" lon="14.2087382"><ele>304.7142857142857</ele><time>2026-05-01T13:43:02.003Z</time></trkpt><trkpt lat="42.2260711" lon="14.2087113"><ele>304.4285714285714</ele><time>2026-05-01T13:43:03.003Z</time></trkpt><trkpt lat="42.2261321" lon="14.2086755"><ele>304.1428571428571</ele><time>2026-05-01T13:43:04.003Z</time></trkpt><trkpt lat="42.2261813" lon="14.2086186"><ele>303.8571428571429</ele><time>2026-05-01T13:43:05.003Z</time></trkpt><trkpt lat="42.2262125" lon="14.2085425"><ele>303.57142857142856</ele><time>2026-05-01T13:43:06.003Z</time></trkpt><trkpt lat="42.226246" lon="14.2084485"><ele>303.2857142857143</ele><time>2026-05-01T13:43:07.003Z</time></trkpt><trkpt lat="42.2262855" lon="14.208342"><ele>303.0</ele><time>2026-05-01T13:43:08.003Z</time></trkpt><trkpt lat="42.2263315" lon="14.2082399"><ele>302.6666666666667</ele><time>2026-05-01T13:43:09.003Z</time></trkpt><trkpt lat="42.2263787" lon="14.2081459"><ele>302.3333333333333</ele><time>2026-05-01T13:43:10.003Z</time></trkpt><trkpt lat="42.2264251" lon="14.2080481"><ele>302.0</ele><time>2026-05-01T13:43:11.003Z</time></trkpt><trkpt lat="42.2264609" lon="14.2079457"><ele>301.66666666666663</ele><time>2026-05-01T13:43:12.003Z</time></trkpt><trkpt lat="42.2264929" lon="14.207844"><ele>301.3333333333333</ele><time>2026-05-01T13:43:13.003Z</time></trkpt><trkpt lat="42.2265187" lon="14.2077562"><ele>301.0</ele><time>2026-05-01T13:43:14.003Z</time></trkpt><trkpt lat="42.2265532" lon="14.207679"><ele>300.6</ele><time>2026-05-01T13:43:15.003Z</time></trkpt><trkpt lat="42.2265991" lon="14.2075995"><ele>300.20000000000005</ele><time>2026-05-01T13:43:16.003Z</time></trkpt><trkpt lat="42.2266677" lon="14.2075275"><ele>299.79999999999995</ele><time>2026-05-01T13:43:17.003Z</time></trkpt><trkpt lat="42.2267547" lon="14.2074575"><ele>299.4</ele><time>2026-05-01T13:43:18.003Z</time></trkpt><trkpt lat="42.2268477" lon="14.207386"><ele>299.0</ele><time>2026-05-01T13:43:19.003Z</time></trkpt><trkpt lat="42.226947" lon="14.2073177"><ele>298.8</ele><time>2026-05-01T13:43:20.003Z</time></trkpt><trkpt lat="42.2270519" lon="14.2072547"><ele>298.59999999999997</ele><time>2026-05-01T13:43:21.003Z</time></trkpt><trkpt lat="42.2271525" lon="14.207199"><ele>298.4</ele><time>2026-05-01T13:43:22.003Z</time></trkpt><trkpt lat="42.2272402" lon="14.2071365"><ele>298.2</ele><time>2026-05-01T13:43:23.003Z</time></trkpt><trkpt lat="42.2273239" lon="14.2070806"><ele>298.0</ele><time>2026-05-01T13:43:24.003Z</time></trkpt><trkpt lat="42.2274005" lon="14.2070256"><ele>297.3333333333333</ele><time>2026-05-01T13:43:25.003Z</time></trkpt><trkpt lat="42.2274732" lon="14.206972"><ele>296.66666666666663</ele><time>2026-05-01T13:43:26.003Z</time></trkpt><trkpt lat="42.2275356" lon="14.206915"><ele>296.0</ele><time>2026-05-01T13:43:27.003Z</time></trkpt><trkpt lat="42.2275763" lon="14.2068251"><ele>295.3333333333333</ele><time>2026-05-01T13:43:28.003Z</time></trkpt><trkpt lat="42.2276123" lon="14.2067085"><ele>294.6666666666667</ele><time>2026-05-01T13:43:29.003Z</time></trkpt><trkpt lat="42.2276385" lon="14.2065874"><ele>294.0</ele><time>2026-05-01T13:43:30.003Z</time></trkpt><trkpt lat="42.2276613" lon="14.2064575"><ele>293.5</ele><time>2026-05-01T13:43:31.003Z</time></trkpt><trkpt lat="42.2276908" lon="14.2063413"><ele>293.0</ele><time>2026-05-01T13:43:32.003Z</time></trkpt><trkpt lat="42.2277211" lon="14.2062359"><ele>292.5</ele><time>2026-05-01T13:43:33.003Z</time></trkpt><trkpt lat="42.2277615" lon="14.2061446"><ele>292.0</ele><time>2026-05-01T13:43:34.003Z</time></trkpt><trkpt lat="42.2277919" lon="14.206056"><ele>291.5</ele><time>2026-05-01T13:43:35.003Z</time></trkpt><trkpt lat="42.2278079" lon="14.2059683"><ele>291.0</ele><time>2026-05-01T13:43:36.003Z</time></trkpt><trkpt lat="42.2278069" lon="14.2058754"><ele>291.0</ele><time>2026-05-01T13:43:37.003Z</time></trkpt><trkpt lat="42.2277857" lon="14.2057883"><ele>291.0</ele><time>2026-05-01T13:43:38.003Z</time></trkpt><trkpt lat="42.2277448" lon="14.2056931"><ele>291.0</ele><time>2026-05-01T13:43:39.003Z</time></trkpt><trkpt lat="42.2277123" lon="14.205613"><ele>291.0</ele><time>2026-05-01T13:43:40.003Z</time></trkpt><trkpt lat="42.2276858" lon="14.2055254"><ele>291.0</ele><time>2026-05-01T13:43:41.003Z</time></trkpt><trkpt lat="42.2276818" lon="14.2053588"><ele>291.0</ele><time>2026-05-01T13:43:43.003Z</time></trkpt><trkpt lat="42.227709" lon="14.205213"><ele>290.8333333333333</ele><time>2026-05-01T13:43:45.003Z</time></trkpt><trkpt lat="42.2277735" lon="14.2051058"><ele>290.6666666666667</ele><time>2026-05-01T13:43:47.003Z</time></trkpt><trkpt lat="42.22786" lon="14.2050128"><ele>290.5</ele><time>2026-05-01T13:43:49.003Z</time></trkpt><trkpt lat="42.2279204" lon="14.2049719"><ele>290.33333333333337</ele><time>2026-05-01T13:43:50.003Z</time></trkpt><trkpt lat="42.2279911" lon="14.2049363"><ele>290.1666666666667</ele><time>2026-05-01T13:43:51.003Z</time></trkpt><trkpt lat="42.2280585" lon="14.2049035"><ele>290.0</ele><time>2026-05-01T13:43:52.003Z</time></trkpt><trkpt lat="42.2281208" lon="14.204868"><ele>290.0</ele><time>2026-05-01T13:43:53.003Z</time></trkpt><trkpt lat="42.228177" lon="14.2048238"><ele>290.0</ele><time>2026-05-01T13:43:54.003Z</time></trkpt><trkpt lat="42.2282277" lon="14.2047677"><ele>290.0</ele><time>2026-05-01T13:43:55.003Z</time></trkpt><trkpt lat="42.2282681" lon="14.2046993"><ele>290.0</ele><time>2026-05-01T13:43:56.003Z</time></trkpt><trkpt lat="42.2283077" lon="14.2046228"><ele>290.0</ele><time>2026-05-01T13:43:57.003Z</time></trkpt><trkpt lat="42.2283492" lon="14.2045371"><ele>290.0</ele><time>2026-05-01T13:43:58.003Z</time></trkpt><trkpt lat="42.2283875" lon="14.2044501"><ele>290.0</ele><time>2026-05-01T13:43:59.003Z</time></trkpt><trkpt lat="42.2284245" lon="14.2043638"><ele>290.0</ele><time>2026-05-01T13:44:00.003Z</time></trkpt><trkpt lat="42.2284593" lon="14.2042765"><ele>290.0</ele><time>2026-05-01T13:44:01.003Z</time></trkpt><trkpt lat="42.2284933" lon="14.2042009"><ele>290.0</ele><time>2026-05-01T13:44:02.003Z</time></trkpt><trkpt lat="42.2285849" lon="14.2040826"><ele>290.0</ele><time>2026-05-01T13:44:04.003Z</time></trkpt><trkpt lat="42.228646" lon="14.2040311"><ele>290.0</ele><time>2026-05-01T13:44:05.003Z</time></trkpt><trkpt lat="42.2287216" lon="14.2039778"><ele>290.0</ele><time>2026-05-01T13:44:06.003Z</time></trkpt><trkpt lat="42.2288013" lon="14.203931"><ele>289.6</ele><time>2026-05-01T13:44:07.003Z</time></trkpt><trkpt lat="42.2288851" lon="14.203883"><ele>289.2</ele><time>2026-05-01T13:44:08.003Z</time></trkpt><trkpt lat="42.2289705" lon="14.2038365"><ele>288.8</ele><time>2026-05-01T13:44:09.003Z</time></trkpt><trkpt lat="42.2290583" lon="14.2037884"><ele>288.4</ele><time>2026-05-01T13:44:10.003Z</time></trkpt><trkpt lat="42.2291484" lon="14.2037329"><ele>288.0</ele><time>2026-05-01T13:44:11.003Z</time></trkpt><trkpt lat="42.2292398" lon="14.2036657"><ele>288.0</ele><time>2026-05-01T13:44:12.003Z</time></trkpt><trkpt lat="42.2293263" lon="14.2035959"><ele>288.0</ele><time>2026-05-01T13:44:13.003Z</time></trkpt><trkpt lat="42.2294035" lon="14.2035223"><ele>288.0</ele><time>2026-05-01T13:44:14.003Z</time></trkpt><trkpt lat="42.2294699" lon="14.2034375"><ele>288.0</ele><time>2026-05-01T13:44:15.003Z</time></trkpt><trkpt lat="42.2295164" lon="14.2033419"><ele>288.0</ele><time>2026-05-01T13:44:16.003Z</time></trkpt><trkpt lat="42.2295466" lon="14.2032388"><ele>287.2</ele><time>2026-05-01T13:44:17.003Z</time></trkpt><trkpt lat="42.2295629" lon="14.2031212"><ele>286.4</ele><time>2026-05-01T13:44:18.003Z</time></trkpt><trkpt lat="42.2295716" lon="14.2029906"><ele>285.59999999999997</ele><time>2026-05-01T13:44:19.003Z</time></trkpt><trkpt lat="42.229577" lon="14.2028674"><ele>284.8</ele><time>2026-05-01T13:44:20.003Z</time></trkpt><trkpt lat="42.2295847" lon="14.2027511"><ele>284.0</ele><time>2026-05-01T13:44:21.003Z</time></trkpt><trkpt lat="42.2295994" lon="14.2026332"><ele>284.0</ele><time>2026-05-01T13:44:22.003Z</time></trkpt><trkpt lat="42.2296242" lon="14.2025264"><ele>284.0</ele><time>2026-05-01T13:44:23.003Z</time></trkpt><trkpt lat="42.229665" lon="14.2024164"><ele>284.0</ele><time>2026-05-01T13:44:24.003Z</time></trkpt><trkpt lat="42.2297214" lon="14.2023013"><ele>284.0</ele><time>2026-05-01T13:44:25.003Z</time></trkpt><trkpt lat="42.2297835" lon="14.2021873"><ele>284.0</ele><time>2026-05-01T13:44:26.003Z</time></trkpt><trkpt lat="42.229857" lon="14.202081"><ele>283.75</ele><time>2026-05-01T13:44:27.003Z</time></trkpt><trkpt lat="42.2299336" lon="14.2019803"><ele>283.5</ele><time>2026-05-01T13:44:28.003Z</time></trkpt><trkpt lat="42.2300179" lon="14.2018802"><ele>283.25</ele><time>2026-05-01T13:44:29.003Z</time></trkpt><trkpt lat="42.2301313" lon="14.2017844"><ele>283.0</ele><time>2026-05-01T13:44:30.003Z</time></trkpt><trkpt lat="42.2302585" lon="14.2016986"><ele>283.0</ele><time>2026-05-01T13:44:31.003Z</time></trkpt><trkpt lat="42.2303912" lon="14.2016057"><ele>283.0</ele><time>2026-05-01T13:44:32.003Z</time></trkpt><trkpt lat="42.2305208" lon="14.2014914"><ele>283.0</ele><time>2026-05-01T13:44:33.003Z</time></trkpt><trkpt lat="42.230625" lon="14.2013628"><ele>283.0</ele><time>2026-05-01T13:44:34.003Z</time></trkpt><trkpt lat="42.2307254" lon="14.2012053"><ele>282.75</ele><time>2026-05-01T13:44:35.003Z</time></trkpt><trkpt lat="42.2308143" lon="14.2010368"><ele>282.5</ele><time>2026-05-01T13:44:36.003Z</time></trkpt><trkpt lat="42.2308853" lon="14.2008645"><ele>282.25</ele><time>2026-05-01T13:44:37.003Z</time></trkpt><trkpt lat="42.2309649" lon="14.2007078"><ele>282.0</ele><time>2026-05-01T13:44:38.003Z</time></trkpt><trkpt lat="42.2310646" lon="14.2005936"><ele>280.75</ele><time>2026-05-01T13:44:39.003Z</time></trkpt><trkpt lat="42.2311759" lon="14.2004844"><ele>279.5</ele><time>2026-05-01T13:44:40.003Z</time></trkpt><trkpt lat="42.2312782" lon="14.2003679"><ele>278.25</ele><time>2026-05-01T13:44:41.003Z</time></trkpt><trkpt lat="42.2313701" lon="14.2002414"><ele>277.0</ele><time>2026-05-01T13:44:42.003Z</time></trkpt><trkpt lat="42.2314549" lon="14.2001155"><ele>276.75</ele><time>2026-05-01T13:44:43.003Z</time></trkpt><trkpt lat="42.2315417" lon="14.1999944"><ele>276.5</ele><time>2026-05-01T13:44:44.003Z</time></trkpt><trkpt lat="42.2316311" lon="14.1998757"><ele>276.25</ele><time>2026-05-01T13:44:45.003Z</time></trkpt><trkpt lat="42.2317135" lon="14.1997642"><ele>276.0</ele><time>2026-05-01T13:44:46.003Z</time></trkpt><trkpt lat="42.2317904" lon="14.1996738"><ele>276.0</ele><time>2026-05-01T13:44:47.003Z</time></trkpt><trkpt lat="42.2318654" lon="14.1996007"><ele>276.0</ele><time>2026-05-01T13:44:48.003Z</time></trkpt><trkpt lat="42.2319228" lon="14.1995281"><ele>276.0</ele><time>2026-05-01T13:44:49.003Z</time></trkpt><trkpt lat="42.2319614" lon="14.1994255"><ele>276.0</ele><time>2026-05-01T13:44:50.003Z</time></trkpt><trkpt lat="42.2320125" lon="14.1993138"><ele>276.0</ele><time>2026-05-01T13:44:51.003Z</time></trkpt><trkpt lat="42.2320795" lon="14.1991974"><ele>276.0</ele><time>2026-05-01T13:44:52.003Z</time></trkpt><trkpt lat="42.2321593" lon="14.1990746"><ele>276.0</ele><time>2026-05-01T13:44:53.003Z</time></trkpt><trkpt lat="42.2322452" lon="14.1989479"><ele>276.0</ele><time>2026-05-01T13:44:54.003Z</time></trkpt><trkpt lat="42.232329" lon="14.1988172"><ele>276.0</ele><time>2026-05-01T13:44:55.003Z</time></trkpt><trkpt lat="42.2324041" lon="14.1986912"><ele>275.2</ele><time>2026-05-01T13:44:56.003Z</time></trkpt><trkpt lat="42.2324789" lon="14.1985784"><ele>274.40000000000003</ele><time>2026-05-01T13:44:57.003Z</time></trkpt><trkpt lat="42.2325502" lon="14.1984681"><ele>273.6</ele><time>2026-05-01T13:44:58.003Z</time></trkpt><trkpt lat="42.2326204" lon="14.1983735"><ele>272.8</ele><time>2026-05-01T13:44:59.003Z</time></trkpt><trkpt lat="42.2326866" lon="14.198278"><ele>272.0</ele><time>2026-05-01T13:45:00.003Z</time></trkpt><trkpt lat="42.2327439" lon="14.1981778"><ele>271.1666666666667</ele><time>2026-05-01T13:45:01.003Z</time></trkpt><trkpt lat="42.2327885" lon="14.198086"><ele>270.33333333333337</ele><time>2026-05-01T13:45:02.003Z</time></trkpt><trkpt lat="42.232821" lon="14.1980097"><ele>269.5</ele><time>2026-05-01T13:45:03.003Z</time></trkpt><trkpt lat="42.2328501" lon="14.1978985"><ele>268.6666666666667</ele><time>2026-05-01T13:45:05.003Z</time></trkpt><trkpt lat="42.232892" lon="14.1978143"><ele>267.8333333333333</ele><time>2026-05-01T13:45:07.003Z</time></trkpt><trkpt lat="42.2329684" lon="14.1977729"><ele>267.0</ele><time>2026-05-01T13:45:10.003Z</time></trkpt><trkpt lat="42.2330373" lon="14.1977843"><ele>267.0</ele><time>2026-05-01T13:45:13.003Z</time></trkpt><trkpt lat="42.233115" lon="14.1977796"><ele>267.0</ele><time>2026-05-01T13:45:24.003Z</time></trkpt><trkpt lat="42.2332006" lon="14.1977013"><ele>267.0</ele><time>2026-05-01T13:45:27.003Z</time></trkpt><trkpt lat="42.2332795" lon="14.1976108"><ele>267.0</ele><time>2026-05-01T13:45:29.003Z</time></trkpt><trkpt lat="42.2333449" lon="14.1975668"><ele>267.0</ele><time>2026-05-01T13:45:30.003Z</time></trkpt><trkpt lat="42.233412" lon="14.1975114"><ele>267.0</ele><time>2026-05-01T13:45:31.003Z</time></trkpt><trkpt lat="42.233489" lon="14.1974552"><ele>267.0</ele><time>2026-05-01T13:45:32.003Z</time></trkpt><trkpt lat="42.2335741" lon="14.1973971"><ele>267.0</ele><time>2026-05-01T13:45:33.003Z</time></trkpt><trkpt lat="42.2336376" lon="14.1973295"><ele>267.0</ele><time>2026-05-01T13:45:34.003Z</time></trkpt><trkpt lat="42.2336841" lon="14.1972239"><ele>267.0</ele><time>2026-05-01T13:45:35.003Z</time></trkpt><trkpt lat="42.2337314" lon="14.1971097"><ele>267.0</ele><time>2026-05-01T13:45:36.003Z</time></trkpt><trkpt lat="42.233782" lon="14.1969919"><ele>267.0</ele><time>2026-05-01T13:45:37.003Z</time></trkpt><trkpt lat="42.2338309" lon="14.1968803"><ele>267.0</ele><time>2026-05-01T13:45:38.003Z</time></trkpt><trkpt lat="42.2338833" lon="14.1967684"><ele>267.0</ele><time>2026-05-01T13:45:39.003Z</time></trkpt><trkpt lat="42.2339306" lon="14.1966467"><ele>267.0</ele><time>2026-05-01T13:45:40.003Z</time></trkpt><trkpt lat="42.2339745" lon="14.1965117"><ele>267.0</ele><time>2026-05-01T13:45:41.003Z</time></trkpt><trkpt lat="42.2340154" lon="14.1963791"><ele>266.8</ele><time>2026-05-01T13:45:42.003Z</time></trkpt><trkpt lat="42.2340625" lon="14.1962587"><ele>266.6</ele><time>2026-05-01T13:45:43.003Z</time></trkpt><trkpt lat="42.2341216" lon="14.1961367"><ele>266.40000000000003</ele><time>2026-05-01T13:45:44.003Z</time></trkpt><trkpt lat="42.2341808" lon="14.1960069"><ele>266.2</ele><time>2026-05-01T13:45:45.003Z</time></trkpt><trkpt lat="42.2342375" lon="14.1958851"><ele>266.0</ele><time>2026-05-01T13:45:46.003Z</time></trkpt><trkpt lat="42.2342978" lon="14.1957746"><ele>266.0</ele><time>2026-05-01T13:45:47.003Z</time></trkpt><trkpt lat="42.234372" lon="14.1956704"><ele>266.0</ele><time>2026-05-01T13:45:48.003Z</time></trkpt><trkpt lat="42.2344497" lon="14.1955641"><ele>266.0</ele><time>2026-05-01T13:45:49.003Z</time></trkpt><trkpt lat="42.2345268" lon="14.1954684"><ele>266.0</ele><time>2026-05-01T13:45:50.003Z</time></trkpt><trkpt lat="42.2345995" lon="14.195383"><ele>266.0</ele><time>2026-05-01T13:45:51.003Z</time></trkpt><trkpt lat="42.2346583" lon="14.1952989"><ele>266.0</ele><time>2026-05-01T13:45:52.003Z</time></trkpt><trkpt lat="42.234713" lon="14.195229"><ele>266.0</ele><time>2026-05-01T13:45:53.003Z</time></trkpt><trkpt lat="42.2347708" lon="14.1951734"><ele>266.0</ele><time>2026-05-01T13:45:54.003Z</time></trkpt><trkpt lat="42.2348463" lon="14.195112"><ele>266.0</ele><time>2026-05-01T13:45:55.003Z</time></trkpt><trkpt lat="42.2349243" lon="14.1950402"><ele>266.0</ele><time>2026-05-01T13:45:56.003Z</time></trkpt><trkpt lat="42.235005" lon="14.1949518"><ele>266.0</ele><time>2026-05-01T13:45:57.003Z</time></trkpt><trkpt lat="42.2350919" lon="14.1948513"><ele>265.8</ele><time>2026-05-01T13:45:58.003Z</time></trkpt><trkpt lat="42.2351867" lon="14.1947515"><ele>265.6</ele><time>2026-05-01T13:45:59.003Z</time></trkpt><trkpt lat="42.2352796" lon="14.1946552"><ele>265.4</ele><time>2026-05-01T13:46:00.003Z</time></trkpt><trkpt lat="42.2353582" lon="14.194576"><ele>265.2</ele><time>2026-05-01T13:46:01.003Z</time></trkpt><trkpt lat="42.2354279" lon="14.1945098"><ele>265.0</ele><time>2026-05-01T13:46:02.003Z</time></trkpt><trkpt lat="42.2354845" lon="14.1944632"><ele>265.0</ele><time>2026-05-01T13:46:03.003Z</time></trkpt><trkpt lat="42.235604" lon="14.1943883"><ele>265.0</ele><time>2026-05-01T13:46:05.003Z</time></trkpt><trkpt lat="42.2356746" lon="14.1943478"><ele>265.0</ele><time>2026-05-01T13:46:06.003Z</time></trkpt><trkpt lat="42.2357586" lon="14.1943113"><ele>265.0</ele><time>2026-05-01T13:46:07.003Z</time></trkpt><trkpt lat="42.235849" lon="14.1942813"><ele>265.0</ele><time>2026-05-01T13:46:08.003Z</time></trkpt><trkpt lat="42.2359184" lon="14.1942232"><ele>265.0</ele><time>2026-05-01T13:46:09.003Z</time></trkpt><trkpt lat="42.2359801" lon="14.1941309"><ele>265.0</ele><time>2026-05-01T13:46:10.003Z</time></trkpt><trkpt lat="42.2360403" lon="14.1940177"><ele>265.0</ele><time>2026-05-01T13:46:11.003Z</time></trkpt><trkpt lat="42.2360963" lon="14.1938931"><ele>265.0</ele><time>2026-05-01T13:46:12.003Z</time></trkpt><trkpt lat="42.2361475" lon="14.193757"><ele>265.0</ele><time>2026-05-01T13:46:13.003Z</time></trkpt><trkpt lat="42.2361876" lon="14.1936243"><ele>264.4</ele><time>2026-05-01T13:46:14.003Z</time></trkpt><trkpt lat="42.2362251" lon="14.1934962"><ele>263.8</ele><time>2026-05-01T13:46:15.003Z</time></trkpt><trkpt lat="42.2362608" lon="14.1933636"><ele>263.2</ele><time>2026-05-01T13:46:16.003Z</time></trkpt><trkpt lat="42.236296" lon="14.1932332"><ele>262.6</ele><time>2026-05-01T13:46:17.003Z</time></trkpt><trkpt lat="42.2363213" lon="14.1931072"><ele>262.0</ele><time>2026-05-01T13:46:18.003Z</time></trkpt><trkpt lat="42.2363457" lon="14.1929939"><ele>262.2</ele><time>2026-05-01T13:46:19.003Z</time></trkpt><trkpt lat="42.2363653" lon="14.1928845"><ele>262.4</ele><time>2026-05-01T13:46:20.003Z</time></trkpt><trkpt lat="42.2363904" lon="14.1927658"><ele>262.6</ele><time>2026-05-01T13:46:21.003Z</time></trkpt><trkpt lat="42.2364263" lon="14.1926472"><ele>262.8</ele><time>2026-05-01T13:46:22.003Z</time></trkpt><trkpt lat="42.2364739" lon="14.192527"><ele>263.0</ele><time>2026-05-01T13:46:23.003Z</time></trkpt><trkpt lat="42.23652" lon="14.1923929"><ele>261.8</ele><time>2026-05-01T13:46:24.003Z</time></trkpt><trkpt lat="42.2365623" lon="14.1922503"><ele>260.6</ele><time>2026-05-01T13:46:25.003Z</time></trkpt><trkpt lat="42.2366015" lon="14.1921103"><ele>259.4</ele><time>2026-05-01T13:46:26.003Z</time></trkpt><trkpt lat="42.2366444" lon="14.1919821"><ele>258.2</ele><time>2026-05-01T13:46:27.003Z</time></trkpt><trkpt lat="42.2366916" lon="14.1918571"><ele>257.0</ele><time>2026-05-01T13:46:28.003Z</time></trkpt><trkpt lat="42.2367445" lon="14.19174"><ele>257.0</ele><time>2026-05-01T13:46:29.003Z</time></trkpt><trkpt lat="42.2368016" lon="14.1916217"><ele>257.0</ele><time>2026-05-01T13:46:30.003Z</time></trkpt><trkpt lat="42.2368681" lon="14.1915195"><ele>257.0</ele><time>2026-05-01T13:46:31.003Z</time></trkpt><trkpt lat="42.2369351" lon="14.1914309"><ele>257.0</ele><time>2026-05-01T13:46:32.003Z</time></trkpt><trkpt lat="42.2370006" lon="14.1913485"><ele>257.0</ele><time>2026-05-01T13:46:33.003Z</time></trkpt><trkpt lat="42.2370574" lon="14.1912722"><ele>256.1666666666667</ele><time>2026-05-01T13:46:34.003Z</time></trkpt><trkpt lat="42.2371014" lon="14.1911967"><ele>255.33333333333334</ele><time>2026-05-01T13:46:35.003Z</time></trkpt><trkpt lat="42.2371291" lon="14.1911035"><ele>254.5</ele><time>2026-05-01T13:46:36.003Z</time></trkpt><trkpt lat="42.2371505" lon="14.1909994"><ele>253.66666666666669</ele><time>2026-05-01T13:46:37.003Z</time></trkpt><trkpt lat="42.2371747" lon="14.190888"><ele>252.83333333333334</ele><time>2026-05-01T13:46:38.003Z</time></trkpt><trkpt lat="42.2372163" lon="14.1907686"><ele>252.0</ele><time>2026-05-01T13:46:39.003Z</time></trkpt><trkpt lat="42.2372616" lon="14.1906487"><ele>252.2</ele><time>2026-05-01T13:46:40.003Z</time></trkpt><trkpt lat="42.2373103" lon="14.1905319"><ele>252.39999999999998</ele><time>2026-05-01T13:46:41.003Z</time></trkpt><trkpt lat="42.2373702" lon="14.1904171"><ele>252.60000000000002</ele><time>2026-05-01T13:46:42.003Z</time></trkpt><trkpt lat="42.2374444" lon="14.1903206"><ele>252.8</ele><time>2026-05-01T13:46:43.003Z</time></trkpt><trkpt lat="42.2375408" lon="14.1902257"><ele>253.0</ele><time>2026-05-01T13:46:44.003Z</time></trkpt><trkpt lat="42.2376394" lon="14.1901307"><ele>253.0</ele><time>2026-05-01T13:46:45.003Z</time></trkpt><trkpt lat="42.2377275" lon="14.1900139"><ele>253.0</ele><time>2026-05-01T13:46:46.003Z</time></trkpt><trkpt lat="42.2377952" lon="14.1898794"><ele>253.0</ele><time>2026-05-01T13:46:47.003Z</time></trkpt><trkpt lat="42.2378539" lon="14.1897146"><ele>253.0</ele><time>2026-05-01T13:46:48.003Z</time></trkpt><trkpt lat="42.2378918" lon="14.1895477"><ele>251.75</ele><time>2026-05-01T13:46:49.003Z</time></trkpt><trkpt lat="42.2379153" lon="14.1893683"><ele>250.5</ele><time>2026-05-01T13:46:50.003Z</time></trkpt><trkpt lat="42.2379192" lon="14.1891843"><ele>249.25</ele><time>2026-05-01T13:46:51.003Z</time></trkpt><trkpt lat="42.237923" lon="14.1890216"><ele>248.0</ele><time>2026-05-01T13:46:52.003Z</time></trkpt><trkpt lat="42.2379244" lon="14.1888665"><ele>247.4</ele><time>2026-05-01T13:46:53.003Z</time></trkpt><trkpt lat="42.2379254" lon="14.1887269"><ele>246.8</ele><time>2026-05-01T13:46:54.003Z</time></trkpt><trkpt lat="42.2379483" lon="14.188584"><ele>246.2</ele><time>2026-05-01T13:46:55.003Z</time></trkpt><trkpt lat="42.2379988" lon="14.1884406"><ele>245.6</ele><time>2026-05-01T13:46:56.003Z</time></trkpt><trkpt lat="42.2380656" lon="14.1883093"><ele>245.0</ele><time>2026-05-01T13:46:57.003Z</time></trkpt><trkpt lat="42.238151" lon="14.1882011"><ele>244.6</ele><time>2026-05-01T13:46:58.003Z</time></trkpt><trkpt lat="42.2382303" lon="14.1881104"><ele>244.2</ele><time>2026-05-01T13:46:59.003Z</time></trkpt><trkpt lat="42.2382945" lon="14.1880134"><ele>243.8</ele><time>2026-05-01T13:47:00.003Z</time></trkpt><trkpt lat="42.2383318" lon="14.1879067"><ele>243.4</ele><time>2026-05-01T13:47:01.003Z</time></trkpt><trkpt lat="42.23835" lon="14.1877942"><ele>243.0</ele><time>2026-05-01T13:47:02.003Z</time></trkpt><trkpt lat="42.2383437" lon="14.1876846"><ele>243.0</ele><time>2026-05-01T13:47:03.003Z</time></trkpt><trkpt lat="42.2383388" lon="14.1875784"><ele>243.0</ele><time>2026-05-01T13:47:04.003Z</time></trkpt><trkpt lat="42.2383784" lon="14.1874469"><ele>243.0</ele><time>2026-05-01T13:47:06.003Z</time></trkpt><trkpt lat="42.2384694" lon="14.1873721"><ele>243.0</ele><time>2026-05-01T13:47:08.003Z</time></trkpt><trkpt lat="42.2385336" lon="14.1873381"><ele>243.0</ele><time>2026-05-01T13:47:09.003Z</time></trkpt><trkpt lat="42.238608" lon="14.187305"><ele>243.0</ele><time>2026-05-01T13:47:10.003Z</time></trkpt><trkpt lat="42.238697" lon="14.1872719"><ele>243.66666666666666</ele><time>2026-05-01T13:47:11.003Z</time></trkpt><trkpt lat="42.2387792" lon="14.1872547"><ele>244.33333333333331</ele><time>2026-05-01T13:47:12.003Z</time></trkpt><trkpt lat="42.2388584" lon="14.1872246"><ele>245.0</ele><time>2026-05-01T13:47:13.003Z</time></trkpt><trkpt lat="42.2389293" lon="14.1871691"><ele>245.66666666666666</ele><time>2026-05-01T13:47:14.003Z</time></trkpt><trkpt lat="42.2389913" lon="14.1870791"><ele>246.33333333333331</ele><time>2026-05-01T13:47:15.003Z</time></trkpt><trkpt lat="42.2390441" lon="14.1869765"><ele>247.0</ele><time>2026-05-01T13:47:16.003Z</time></trkpt><trkpt lat="42.2390923" lon="14.1868604"><ele>247.39999999999998</ele><time>2026-05-01T13:47:17.003Z</time></trkpt><trkpt lat="42.239149" lon="14.1867376"><ele>247.79999999999998</ele><time>2026-05-01T13:47:18.003Z</time></trkpt><trkpt lat="42.2392048" lon="14.1865998"><ele>248.2</ele><time>2026-05-01T13:47:19.003Z</time></trkpt><trkpt lat="42.2392497" lon="14.1864899"><ele>248.6</ele><time>2026-05-01T13:47:20.003Z</time></trkpt><trkpt lat="42.2392969" lon="14.1863827"><ele>249.0</ele><time>2026-05-01T13:47:21.004Z</time></trkpt><trkpt lat="42.2393437" lon="14.1862813"><ele>250.2</ele><time>2026-05-01T13:47:22.003Z</time></trkpt><trkpt lat="42.239411" lon="14.1861908"><ele>251.39999999999998</ele><time>2026-05-01T13:47:23.003Z</time></trkpt><trkpt lat="42.2394988" lon="14.1861139"><ele>252.6</ele><time>2026-05-01T13:47:24.003Z</time></trkpt><trkpt lat="42.2395877" lon="14.1860287"><ele>253.8</ele><time>2026-05-01T13:47:25.003Z</time></trkpt><trkpt lat="42.2396707" lon="14.1859312"><ele>255.0</ele><time>2026-05-01T13:47:26.003Z</time></trkpt><trkpt lat="42.2397509" lon="14.185818"><ele>254.6</ele><time>2026-05-01T13:47:27.003Z</time></trkpt><trkpt lat="42.2398186" lon="14.1856943"><ele>254.2</ele><time>2026-05-01T13:47:28.003Z</time></trkpt><trkpt lat="42.2398721" lon="14.1855778"><ele>253.8</ele><time>2026-05-01T13:47:29.003Z</time></trkpt><trkpt lat="42.2399217" lon="14.185456"><ele>253.4</ele><time>2026-05-01T13:47:30.003Z</time></trkpt><trkpt lat="42.2399775" lon="14.1853319"><ele>253.0</ele><time>2026-05-01T13:47:31.003Z</time></trkpt><trkpt lat="42.2400485" lon="14.1852261"><ele>253.0</ele><time>2026-05-01T13:47:32.003Z</time></trkpt><trkpt lat="42.2401391" lon="14.1851297"><ele>253.0</ele><time>2026-05-01T13:47:33.003Z</time></trkpt><trkpt lat="42.2402232" lon="14.1850453"><ele>253.0</ele><time>2026-05-01T13:47:34.003Z</time></trkpt><trkpt lat="42.2402961" lon="14.184962"><ele>253.0</ele><time>2026-05-01T13:47:35.003Z</time></trkpt><trkpt lat="42.240359" lon="14.1848824"><ele>253.0</ele><time>2026-05-01T13:47:36.003Z</time></trkpt><trkpt lat="42.2404226" lon="14.1848119"><ele>252.99999999999997</ele><time>2026-05-01T13:47:37.003Z</time></trkpt><trkpt lat="42.2404783" lon="14.1847563"><ele>253.0</ele><time>2026-05-01T13:47:38.003Z</time></trkpt><trkpt lat="42.2405368" lon="14.1847233"><ele>253.0</ele><time>2026-05-01T13:47:39.003Z</time></trkpt><trkpt lat="42.2406656" lon="14.1847515"><ele>253.0</ele><time>2026-05-01T13:47:41.003Z</time></trkpt><trkpt lat="42.2407413" lon="14.1847944"><ele>252.99999999999997</ele><time>2026-05-01T13:47:42.003Z</time></trkpt><trkpt lat="42.2408247" lon="14.1848435"><ele>253.0</ele><time>2026-05-01T13:47:43.003Z</time></trkpt><trkpt lat="42.2409158" lon="14.1848926"><ele>252.2</ele><time>2026-05-01T13:47:44.003Z</time></trkpt><trkpt lat="42.2410141" lon="14.1849535"><ele>251.4</ele><time>2026-05-01T13:47:45.003Z</time></trkpt><trkpt lat="42.2411173" lon="14.1850166"><ele>250.59999999999997</ele><time>2026-05-01T13:47:46.003Z</time></trkpt><trkpt lat="42.241219" lon="14.1850811"><ele>249.79999999999998</ele><time>2026-05-01T13:47:47.003Z</time></trkpt><trkpt lat="42.2413209" lon="14.1851317"><ele>249.0</ele><time>2026-05-01T13:47:48.003Z</time></trkpt><trkpt lat="42.2414046" lon="14.1851571"><ele>248.39999999999998</ele><time>2026-05-01T13:47:49.003Z</time></trkpt><trkpt lat="42.2414905" lon="14.1851531"><ele>247.79999999999998</ele><time>2026-05-01T13:47:50.003Z</time></trkpt><trkpt lat="42.2415708" lon="14.1851105"><ele>247.20000000000002</ele><time>2026-05-01T13:47:51.003Z</time></trkpt><trkpt lat="42.2416525" lon="14.1850233"><ele>246.60000000000002</ele><time>2026-05-01T13:47:52.003Z</time></trkpt><trkpt lat="42.2417307" lon="14.1849311"><ele>246.0</ele><time>2026-05-01T13:47:53.003Z</time></trkpt><trkpt lat="42.2418025" lon="14.1848325"><ele>246.0</ele><time>2026-05-01T13:47:54.003Z</time></trkpt><trkpt lat="42.2418773" lon="14.1847386"><ele>246.00000000000003</ele><time>2026-05-01T13:47:55.003Z</time></trkpt><trkpt lat="42.2419388" lon="14.1846376"><ele>246.00000000000003</ele><time>2026-05-01T13:47:56.003Z</time></trkpt><trkpt lat="42.2419884" lon="14.1845103"><ele>246.0</ele><time>2026-05-01T13:47:57.003Z</time></trkpt><trkpt lat="42.2420108" lon="14.1843577"><ele>246.0</ele><time>2026-05-01T13:47:58.003Z</time></trkpt><trkpt lat="42.2420135" lon="14.1841955"><ele>246.0</ele><time>2026-05-01T13:47:59.003Z</time></trkpt><trkpt lat="42.2420247" lon="14.1840591"><ele>246.00000000000003</ele><time>2026-05-01T13:48:00.003Z</time></trkpt><trkpt lat="42.2420585" lon="14.1839325"><ele>246.00000000000003</ele><time>2026-05-01T13:48:01.003Z</time></trkpt><trkpt lat="42.2421037" lon="14.1838095"><ele>246.0</ele><time>2026-05-01T13:48:02.003Z</time></trkpt><trkpt lat="42.2421736" lon="14.1836815"><ele>246.0</ele><time>2026-05-01T13:48:03.003Z</time></trkpt><trkpt lat="42.2422463" lon="14.1835642"><ele>246.20000000000002</ele><time>2026-05-01T13:48:04.003Z</time></trkpt><trkpt lat="42.2423206" lon="14.1834411"><ele>246.40000000000003</ele><time>2026-05-01T13:48:05.003Z</time></trkpt><trkpt lat="42.242406" lon="14.1833653"><ele>246.6</ele><time>2026-05-01T13:48:06.003Z</time></trkpt><trkpt lat="42.24251" lon="14.1833303"><ele>246.8</ele><time>2026-05-01T13:48:07.003Z</time></trkpt><trkpt lat="42.2426226" lon="14.1833282"><ele>247.0</ele><time>2026-05-01T13:48:08.003Z</time></trkpt><trkpt lat="42.2427495" lon="14.1833426"><ele>247.0</ele><time>2026-05-01T13:48:09.003Z</time></trkpt><trkpt lat="42.2428659" lon="14.1833708"><ele>247.0</ele><time>2026-05-01T13:48:10.003Z</time></trkpt><trkpt lat="42.2429589" lon="14.1833875"><ele>247.0</ele><time>2026-05-01T13:48:11.003Z</time></trkpt><trkpt lat="42.2430309" lon="14.1834074"><ele>247.0</ele><time>2026-05-01T13:48:12.003Z</time></trkpt><trkpt lat="42.2431428" lon="14.1834304"><ele>247.0</ele><time>2026-05-01T13:48:14.003Z</time></trkpt><trkpt lat="42.2432252" lon="14.1834193"><ele>247.39999999999998</ele><time>2026-05-01T13:48:16.003Z</time></trkpt><trkpt lat="42.2433055" lon="14.1833612"><ele>247.79999999999998</ele><time>2026-05-01T13:48:19.003Z</time></trkpt><trkpt lat="42.2433804" lon="14.1832937"><ele>248.2</ele><time>2026-05-01T13:48:21.003Z</time></trkpt><trkpt lat="42.2434852" lon="14.1833086"><ele>248.6</ele><time>2026-05-01T13:48:23.003Z</time></trkpt><trkpt lat="42.2435576" lon="14.183349"><ele>249.0</ele><time>2026-05-01T13:48:24.003Z</time></trkpt><trkpt lat="42.2436544" lon="14.1834069"><ele>249.0</ele><time>2026-05-01T13:48:25.003Z</time></trkpt><trkpt lat="42.243767" lon="14.1834658"><ele>249.0</ele><time>2026-05-01T13:48:26.003Z</time></trkpt><trkpt lat="42.2438859" lon="14.1835323"><ele>249.0</ele><time>2026-05-01T13:48:27.003Z</time></trkpt><trkpt lat="42.2440199" lon="14.18361"><ele>249.0</ele><time>2026-05-01T13:48:28.003Z</time></trkpt><trkpt lat="42.2441575" lon="14.1836825"><ele>248.5</ele><time>2026-05-01T13:48:29.003Z</time></trkpt><trkpt lat="42.2442888" lon="14.183756"><ele>248.0</ele><time>2026-05-01T13:48:30.003Z</time></trkpt><trkpt lat="42.2444166" lon="14.1838234"><ele>247.5</ele><time>2026-05-01T13:48:31.003Z</time></trkpt><trkpt lat="42.2445495" lon="14.1838802"><ele>247.0</ele><time>2026-05-01T13:48:32.003Z</time></trkpt><trkpt lat="42.2446877" lon="14.1839379"><ele>246.5</ele><time>2026-05-01T13:48:33.003Z</time></trkpt><trkpt lat="42.2448256" lon="14.18399"><ele>246.0</ele><time>2026-05-01T13:48:34.003Z</time></trkpt><trkpt lat="42.2449581" lon="14.1840478"><ele>245.5</ele><time>2026-05-01T13:48:35.003Z</time></trkpt><trkpt lat="42.2450904" lon="14.1840994"><ele>245.0</ele><time>2026-05-01T13:48:36.003Z</time></trkpt><trkpt lat="42.2452264" lon="14.1841355"><ele>244.0</ele><time>2026-05-01T13:48:37.003Z</time></trkpt><trkpt lat="42.2453676" lon="14.1841214"><ele>243.0</ele><time>2026-05-01T13:48:38.003Z</time></trkpt><trkpt lat="42.2455252" lon="14.1840876"><ele>242.0</ele><time>2026-05-01T13:48:39.003Z</time></trkpt><trkpt lat="42.2457002" lon="14.1840389"><ele>241.66666666666669</ele><time>2026-05-01T13:48:40.003Z</time></trkpt><trkpt lat="42.2458857" lon="14.1839795"><ele>241.33333333333331</ele><time>2026-05-01T13:48:41.003Z</time></trkpt><trkpt lat="42.246083" lon="14.183919"><ele>241.0</ele><time>2026-05-01T13:48:42.003Z</time></trkpt><trkpt lat="42.246277" lon="14.1838576"><ele>241.0</ele><time>2026-05-01T13:48:43.003Z</time></trkpt><trkpt lat="42.2464597" lon="14.1838092"><ele>241.0</ele><time>2026-05-01T13:48:44.003Z</time></trkpt><trkpt lat="42.2466144" lon="14.1837788"><ele>241.0</ele><time>2026-05-01T13:48:45.003Z</time></trkpt><trkpt lat="42.2467577" lon="14.183778"><ele>239.75</ele><time>2026-05-01T13:48:46.003Z</time></trkpt><trkpt lat="42.2468886" lon="14.1838211"><ele>238.5</ele><time>2026-05-01T13:48:47.003Z</time></trkpt><trkpt lat="42.2470019" lon="14.183914"><ele>237.25</ele><time>2026-05-01T13:48:48.003Z</time></trkpt><trkpt lat="42.2471012" lon="14.1840366"><ele>236.0</ele><time>2026-05-01T13:48:49.003Z</time></trkpt><trkpt lat="42.2471987" lon="14.1841611"><ele>234.0</ele><time>2026-05-01T13:48:50.003Z</time></trkpt><trkpt lat="42.2472968" lon="14.1842774"><ele>232.0</ele><time>2026-05-01T13:48:51.003Z</time></trkpt><trkpt lat="42.2474066" lon="14.1843548"><ele>230.0</ele><time>2026-05-01T13:48:52.003Z</time></trkpt><trkpt lat="42.2475212" lon="14.1843984"><ele>228.0</ele><time>2026-05-01T13:48:53.003Z</time></trkpt><trkpt lat="42.2476483" lon="14.1843944"><ele>228.0</ele><time>2026-05-01T13:48:54.003Z</time></trkpt><trkpt lat="42.247779" lon="14.1843586"><ele>228.0</ele><time>2026-05-01T13:48:55.003Z</time></trkpt><trkpt lat="42.2478914" lon="14.1843044"><ele>228.0</ele><time>2026-05-01T13:48:56.003Z</time></trkpt><trkpt lat="42.2479875" lon="14.184171"><ele>228.0</ele><time>2026-05-01T13:48:57.003Z</time></trkpt><trkpt lat="42.2480764" lon="14.1840097"><ele>227.5</ele><time>2026-05-01T13:48:58.003Z</time></trkpt><trkpt lat="42.2481511" lon="14.1838234"><ele>227.0</ele><time>2026-05-01T13:48:59.003Z</time></trkpt><trkpt lat="42.248215" lon="14.1836441"><ele>226.5</ele><time>2026-05-01T13:49:00.003Z</time></trkpt><trkpt lat="42.248284" lon="14.183498"><ele>226.0</ele><time>2026-05-01T13:49:01.003Z</time></trkpt><trkpt lat="42.2483607" lon="14.1833736"><ele>226.0</ele><time>2026-05-01T13:49:02.003Z</time></trkpt><trkpt lat="42.2484569" lon="14.1832936"><ele>226.0</ele><time>2026-05-01T13:49:03.003Z</time></trkpt><trkpt lat="42.2485739" lon="14.1832454"><ele>226.0</ele><time>2026-05-01T13:49:04.003Z</time></trkpt><trkpt lat="42.2486902" lon="14.18322"><ele>226.0</ele><time>2026-05-01T13:49:05.003Z</time></trkpt><trkpt lat="42.2488018" lon="14.18322"><ele>225.99999999999997</ele><time>2026-05-01T13:49:06.003Z</time></trkpt><trkpt lat="42.248915" lon="14.1832541"><ele>226.0</ele><time>2026-05-01T13:49:07.003Z</time></trkpt><trkpt lat="42.2489937" lon="14.1833104"><ele>226.0</ele><time>2026-05-01T13:49:08.003Z</time></trkpt><trkpt lat="42.2490425" lon="14.1833766"><ele>226.0</ele><time>2026-05-01T13:49:09.003Z</time></trkpt><trkpt lat="42.2490914" lon="14.1834903"><ele>225.99999999999997</ele><time>2026-05-01T13:49:11.003Z</time></trkpt><trkpt lat="42.2491458" lon="14.1835478"><ele>226.0</ele><time>2026-05-01T13:49:13.003Z</time></trkpt><trkpt lat="42.2492043" lon="14.1834789"><ele>225.16666666666666</ele><time>2026-05-01T13:49:17.003Z</time></trkpt><trkpt lat="42.2492655" lon="14.183446"><ele>224.33333333333331</ele><time>2026-05-01T13:49:19.003Z</time></trkpt><trkpt lat="42.2493359" lon="14.1834108"><ele>223.5</ele><time>2026-05-01T13:49:22.003Z</time></trkpt><trkpt lat="42.2494078" lon="14.1833316"><ele>222.66666666666669</ele><time>2026-05-01T13:49:39.003Z</time></trkpt><trkpt lat="42.2495112" lon="14.1832442"><ele>221.83333333333334</ele><time>2026-05-01T13:49:41.003Z</time></trkpt><trkpt lat="42.2495671" lon="14.1831812"><ele>221.0</ele><time>2026-05-01T13:49:42.003Z</time></trkpt><trkpt lat="42.2496164" lon="14.1831085"><ele>221.0</ele><time>2026-05-01T13:49:43.003Z</time></trkpt><trkpt lat="42.2496825" lon="14.1830147"><ele>221.00000000000003</ele><time>2026-05-01T13:49:45.003Z</time></trkpt><trkpt lat="42.2497304" lon="14.1829447"><ele>221.00000000000003</ele><time>2026-05-01T13:50:09.003Z</time></trkpt><trkpt lat="42.2498333" lon="14.1828567"><ele>221.0</ele><time>2026-05-01T13:50:11.003Z</time></trkpt><trkpt lat="42.2498994" lon="14.1827665"><ele>221.0</ele><time>2026-05-01T13:50:12.003Z</time></trkpt><trkpt lat="42.2499722" lon="14.1826566"><ele>221.5</ele><time>2026-05-01T13:50:13.003Z</time></trkpt><trkpt lat="42.2500487" lon="14.1825269"><ele>222.0</ele><time>2026-05-01T13:50:14.003Z</time></trkpt><trkpt lat="42.2501213" lon="14.1824093"><ele>222.5</ele><time>2026-05-01T13:50:15.003Z</time></trkpt><trkpt lat="42.2501979" lon="14.182305"><ele>223.0</ele><time>2026-05-01T13:50:16.003Z</time></trkpt><trkpt lat="42.2502794" lon="14.1822131"><ele>223.0</ele><time>2026-05-01T13:50:17.003Z</time></trkpt><trkpt lat="42.2503763" lon="14.1821173"><ele>223.0</ele><time>2026-05-01T13:50:18.003Z</time></trkpt><trkpt lat="42.2504844" lon="14.1820173"><ele>223.0</ele><time>2026-05-01T13:50:19.003Z</time></trkpt><trkpt lat="42.2505929" lon="14.1819114"><ele>223.0</ele><time>2026-05-01T13:50:20.003Z</time></trkpt><trkpt lat="42.2506965" lon="14.1818061"><ele>222.75</ele><time>2026-05-01T13:50:21.003Z</time></trkpt><trkpt lat="42.250807" lon="14.1817118"><ele>222.5</ele><time>2026-05-01T13:50:22.003Z</time></trkpt><trkpt lat="42.2509348" lon="14.1816323"><ele>222.25</ele><time>2026-05-01T13:50:23.003Z</time></trkpt><trkpt lat="42.2510698" lon="14.1815493"><ele>222.0</ele><time>2026-05-01T13:50:24.003Z</time></trkpt><trkpt lat="42.2511992" lon="14.1814675"><ele>222.0</ele><time>2026-05-01T13:50:25.003Z</time></trkpt><trkpt lat="42.251311" lon="14.1813916"><ele>222.0</ele><time>2026-05-01T13:50:26.003Z</time></trkpt><trkpt lat="42.2514111" lon="14.1813183"><ele>222.0</ele><time>2026-05-01T13:50:27.003Z</time></trkpt><trkpt lat="42.2514934" lon="14.181268"><ele>222.0</ele><time>2026-05-01T13:50:28.003Z</time></trkpt><trkpt lat="42.2515593" lon="14.1812616"><ele>222.0</ele><time>2026-05-01T13:50:29.003Z</time></trkpt><trkpt lat="42.2516792" lon="14.1813475"><ele>222.5</ele><time>2026-05-01T13:50:31.003Z</time></trkpt><trkpt lat="42.251775" lon="14.1814208"><ele>223.0</ele><time>2026-05-01T13:50:32.003Z</time></trkpt><trkpt lat="42.2518769" lon="14.1815118"><ele>223.5</ele><time>2026-05-01T13:50:33.003Z</time></trkpt><trkpt lat="42.2519787" lon="14.1816269"><ele>224.0</ele><time>2026-05-01T13:50:34.003Z</time></trkpt><trkpt lat="42.2520793" lon="14.1817398"><ele>221.5</ele><time>2026-05-01T13:50:35.003Z</time></trkpt><trkpt lat="42.2521878" lon="14.1818276"><ele>219.0</ele><time>2026-05-01T13:50:36.003Z</time></trkpt><trkpt lat="42.252312" lon="14.18189"><ele>216.5</ele><time>2026-05-01T13:50:37.003Z</time></trkpt><trkpt lat="42.2524509" lon="14.1819159"><ele>214.0</ele><time>2026-05-01T13:50:38.003Z</time></trkpt><trkpt lat="42.2525915" lon="14.1819105"><ele>213.66666666666666</ele><time>2026-05-01T13:50:39.003Z</time></trkpt><trkpt lat="42.2527412" lon="14.1818804"><ele>213.33333333333331</ele><time>2026-05-01T13:50:40.003Z</time></trkpt><trkpt lat="42.2529028" lon="14.1818424"><ele>213.0</ele><time>2026-05-01T13:50:41.003Z</time></trkpt><trkpt lat="42.2530659" lon="14.1818077"><ele>214.5</ele><time>2026-05-01T13:50:42.003Z</time></trkpt><trkpt lat="42.2532207" lon="14.1817848"><ele>216.0</ele><time>2026-05-01T13:50:43.003Z</time></trkpt><trkpt lat="42.2533682" lon="14.181771"><ele>217.5</ele><time>2026-05-01T13:50:44.003Z</time></trkpt><trkpt lat="42.2534994" lon="14.1818025"><ele>219.0</ele><time>2026-05-01T13:50:45.003Z</time></trkpt><trkpt lat="42.2536142" lon="14.1818647"><ele>219.0</ele><time>2026-05-01T13:50:46.003Z</time></trkpt><trkpt lat="42.2537318" lon="14.1819565"><ele>219.0</ele><time>2026-05-01T13:50:47.003Z</time></trkpt><trkpt lat="42.2538599" lon="14.1820688"><ele>219.0</ele><time>2026-05-01T13:50:48.003Z</time></trkpt><trkpt lat="42.2540009" lon="14.1821851"><ele>219.33333333333331</ele><time>2026-05-01T13:50:49.003Z</time></trkpt><trkpt lat="42.2541439" lon="14.1822984"><ele>219.66666666666666</ele><time>2026-05-01T13:50:50.003Z</time></trkpt><trkpt lat="42.2542881" lon="14.1824117"><ele>220.0</ele><time>2026-05-01T13:50:51.003Z</time></trkpt><trkpt lat="42.2544297" lon="14.1825238"><ele>220.0</ele><time>2026-05-01T13:50:52.003Z</time></trkpt><trkpt lat="42.2545646" lon="14.1826317"><ele>220.0</ele><time>2026-05-01T13:50:53.003Z</time></trkpt><trkpt lat="42.2546851" lon="14.182755"><ele>220.0</ele><time>2026-05-01T13:50:54.003Z</time></trkpt><trkpt lat="42.254796" lon="14.1828957"><ele>220.33333333333331</ele><time>2026-05-01T13:50:55.003Z</time></trkpt><trkpt lat="42.2549063" lon="14.1830643"><ele>220.66666666666669</ele><time>2026-05-01T13:50:56.003Z</time></trkpt><trkpt lat="42.2550316" lon="14.1832334"><ele>221.0</ele><time>2026-05-01T13:50:57.003Z</time></trkpt><trkpt lat="42.2551555" lon="14.183396"><ele>221.0</ele><time>2026-05-01T13:50:58.003Z</time></trkpt><trkpt lat="42.2552732" lon="14.1835543"><ele>221.0</ele><time>2026-05-01T13:50:59.003Z</time></trkpt><trkpt lat="42.255387" lon="14.1837113"><ele>221.0</ele><time>2026-05-01T13:51:00.003Z</time></trkpt><trkpt lat="42.255499" lon="14.1838666"><ele>221.0</ele><time>2026-05-01T13:51:01.003Z</time></trkpt><trkpt lat="42.2556007" lon="14.184012"><ele>221.0</ele><time>2026-05-01T13:51:02.003Z</time></trkpt><trkpt lat="42.2556916" lon="14.1841518"><ele>221.0</ele><time>2026-05-01T13:51:03.003Z</time></trkpt><trkpt lat="42.2557704" lon="14.1842861"><ele>221.0</ele><time>2026-05-01T13:51:04.003Z</time></trkpt><trkpt lat="42.2558454" lon="14.184412"><ele>221.0</ele><time>2026-05-01T13:51:05.003Z</time></trkpt><trkpt lat="42.2559329" lon="14.1845126"><ele>221.0</ele><time>2026-05-01T13:51:06.003Z</time></trkpt><trkpt lat="42.2560367" lon="14.1845893"><ele>221.0</ele><time>2026-05-01T13:51:07.003Z</time></trkpt><trkpt lat="42.2561376" lon="14.1846586"><ele>221.0</ele><time>2026-05-01T13:51:08.003Z</time></trkpt><trkpt lat="42.2562441" lon="14.1847346"><ele>221.0</ele><time>2026-05-01T13:51:09.003Z</time></trkpt><trkpt lat="42.256347" lon="14.1848201"><ele>221.00000000000003</ele><time>2026-05-01T13:51:10.003Z</time></trkpt><trkpt lat="42.2564473" lon="14.1848998"><ele>221.00000000000003</ele><time>2026-05-01T13:51:11.003Z</time></trkpt><trkpt lat="42.256534" lon="14.1849823"><ele>221.0</ele><time>2026-05-01T13:51:12.003Z</time></trkpt><trkpt lat="42.2565992" lon="14.185032"><ele>221.0</ele><time>2026-05-01T13:51:13.003Z</time></trkpt><trkpt lat="42.2566694" lon="14.1850467"><ele>221.0</ele><time>2026-05-01T13:51:15.003Z</time></trkpt><trkpt lat="42.2567391" lon="14.1849482"><ele>221.00000000000003</ele><time>2026-05-01T13:51:17.003Z</time></trkpt><trkpt lat="42.2567921" lon="14.184862"><ele>221.00000000000003</ele><time>2026-05-01T13:51:18.003Z</time></trkpt><trkpt lat="42.2568522" lon="14.1847693"><ele>221.0</ele><time>2026-05-01T13:51:19.003Z</time></trkpt><trkpt lat="42.256925" lon="14.1846837"><ele>221.0</ele><time>2026-05-01T13:51:20.003Z</time></trkpt><trkpt lat="42.2570114" lon="14.184607"><ele>222.5</ele><time>2026-05-01T13:51:21.003Z</time></trkpt><trkpt lat="42.2571114" lon="14.1845315"><ele>224.0</ele><time>2026-05-01T13:51:22.003Z</time></trkpt><trkpt lat="42.2572233" lon="14.184451"><ele>225.5</ele><time>2026-05-01T13:51:23.003Z</time></trkpt><trkpt lat="42.2573246" lon="14.1843589"><ele>227.0</ele><time>2026-05-01T13:51:24.003Z</time></trkpt><trkpt lat="42.2574247" lon="14.1842545"><ele>227.39999999999998</ele><time>2026-05-01T13:51:25.003Z</time></trkpt><trkpt lat="42.257492" lon="14.1841622"><ele>227.79999999999998</ele><time>2026-05-01T13:51:26.003Z</time></trkpt><trkpt lat="42.2575347" lon="14.1840925"><ele>228.2</ele><time>2026-05-01T13:51:27.003Z</time></trkpt><trkpt lat="42.2575642" lon="14.1839086"><ele>228.6</ele><time>2026-05-01T13:51:29.003Z</time></trkpt><trkpt lat="42.2575706" lon="14.1837819"><ele>229.0</ele><time>2026-05-01T13:51:30.003Z</time></trkpt><trkpt lat="42.257559" lon="14.1836444"><ele>230.2</ele><time>2026-05-01T13:51:31.003Z</time></trkpt><trkpt lat="42.2575414" lon="14.1835143"><ele>231.39999999999998</ele><time>2026-05-01T13:51:32.003Z</time></trkpt><trkpt lat="42.2575171" lon="14.1833914"><ele>232.6</ele><time>2026-05-01T13:51:33.003Z</time></trkpt><trkpt lat="42.2574863" lon="14.1832718"><ele>233.8</ele><time>2026-05-01T13:51:34.003Z</time></trkpt><trkpt lat="42.2574578" lon="14.183141"><ele>235.0</ele><time>2026-05-01T13:51:35.003Z</time></trkpt><trkpt lat="42.257437" lon="14.1830085"><ele>237.2</ele><time>2026-05-01T13:51:36.003Z</time></trkpt><trkpt lat="42.2574123" lon="14.1829239"><ele>239.4</ele><time>2026-05-01T13:51:37.003Z</time></trkpt><trkpt lat="42.2573066" lon="14.182811"><ele>241.60000000000002</ele><time>2026-05-01T13:51:39.003Z</time></trkpt><trkpt lat="42.2572238" lon="14.1827624"><ele>243.8</ele><time>2026-05-01T13:51:40.003Z</time></trkpt><trkpt lat="42.2571318" lon="14.1827231"><ele>246.0</ele><time>2026-05-01T13:51:41.003Z</time></trkpt><trkpt lat="42.257057" lon="14.182691"><ele>246.4</ele><time>2026-05-01T13:51:42.003Z</time></trkpt><trkpt lat="42.2570169" lon="14.1825937"><ele>246.8</ele><time>2026-05-01T13:51:44.003Z</time></trkpt><trkpt lat="42.2570437" lon="14.1824233"><ele>247.20000000000002</ele><time>2026-05-01T13:51:46.003Z</time></trkpt><trkpt lat="42.2570475" lon="14.1823175"><ele>247.60000000000002</ele><time>2026-05-01T13:51:47.003Z</time></trkpt><trkpt lat="42.2570729" lon="14.182182"><ele>248.0</ele><time>2026-05-01T13:51:49.003Z</time></trkpt><trkpt lat="42.2571701" lon="14.182104"><ele>249.4</ele><time>2026-05-01T13:51:51.003Z</time></trkpt><trkpt lat="42.2572282" lon="14.182024"><ele>250.8</ele><time>2026-05-01T13:51:52.003Z</time></trkpt><trkpt lat="42.2572811" lon="14.181921"><ele>252.2</ele><time>2026-05-01T13:51:53.003Z</time></trkpt><trkpt lat="42.257328" lon="14.1817845"><ele>253.6</ele><time>2026-05-01T13:51:54.003Z</time></trkpt><trkpt lat="42.2573631" lon="14.1816489"><ele>255.0</ele><time>2026-05-01T13:51:55.003Z</time></trkpt><trkpt lat="42.2574036" lon="14.1815142"><ele>256.8</ele><time>2026-05-01T13:51:56.003Z</time></trkpt><trkpt lat="42.2574371" lon="14.1813835"><ele>258.6</ele><time>2026-05-01T13:51:57.003Z</time></trkpt><trkpt lat="42.2574818" lon="14.1812525"><ele>260.4</ele><time>2026-05-01T13:51:59.003Z</time></trkpt><trkpt lat="42.2575282" lon="14.1811823"><ele>262.2</ele><time>2026-05-01T13:52:03.003Z</time></trkpt><trkpt lat="42.257587" lon="14.1810541"><ele>264.0</ele><time>2026-05-01T13:52:05.003Z</time></trkpt><trkpt lat="42.2576399" lon="14.1809582"><ele>264.0</ele><time>2026-05-01T13:52:06.003Z</time></trkpt><trkpt lat="42.2576945" lon="14.1808552"><ele>264.0</ele><time>2026-05-01T13:52:07.003Z</time></trkpt><trkpt lat="42.2577535" lon="14.1807563"><ele>264.0</ele><time>2026-05-01T13:52:08.003Z</time></trkpt><trkpt lat="42.2577914" lon="14.1806677"><ele>264.0</ele><time>2026-05-01T13:52:09.003Z</time></trkpt><trkpt lat="42.2578117" lon="14.1805775"><ele>264.0</ele><time>2026-05-01T13:52:10.003Z</time></trkpt><trkpt lat="42.257832" lon="14.1804625"><ele>264.0</ele><time>2026-05-01T13:52:11.003Z</time></trkpt><trkpt lat="42.2578582" lon="14.1803302"><ele>267.25</ele><time>2026-05-01T13:52:12.003Z</time></trkpt><trkpt lat="42.2578736" lon="14.1801751"><ele>270.5</ele><time>2026-05-01T13:52:13.003Z</time></trkpt><trkpt lat="42.257888" lon="14.1800137"><ele>273.75</ele><time>2026-05-01T13:52:14.003Z</time></trkpt><trkpt lat="42.2579054" lon="14.179858"><ele>277.0</ele><time>2026-05-01T13:52:15.003Z</time></trkpt><trkpt lat="42.2579145" lon="14.1797022"><ele>279.2</ele><time>2026-05-01T13:52:16.003Z</time></trkpt><trkpt lat="42.2579115" lon="14.1795598"><ele>281.4</ele><time>2026-05-01T13:52:17.003Z</time></trkpt><trkpt lat="42.2579025" lon="14.1794444"><ele>283.6</ele><time>2026-05-01T13:52:18.003Z</time></trkpt><trkpt lat="42.2579032" lon="14.1793417"><ele>285.8</ele><time>2026-05-01T13:52:19.003Z</time></trkpt><trkpt lat="42.2579218" lon="14.1792258"><ele>288.0</ele><time>2026-05-01T13:52:20.003Z</time></trkpt><trkpt lat="42.2579439" lon="14.1790973"><ele>290.0</ele><time>2026-05-01T13:52:21.003Z</time></trkpt><trkpt lat="42.2579556" lon="14.1789723"><ele>292.0</ele><time>2026-05-01T13:52:22.003Z</time></trkpt><trkpt lat="42.2579732" lon="14.1788593"><ele>294.0</ele><time>2026-05-01T13:52:23.003Z</time></trkpt><trkpt lat="42.2580076" lon="14.1787601"><ele>296.0</ele><time>2026-05-01T13:52:24.003Z</time></trkpt><trkpt lat="42.2580376" lon="14.178646"><ele>298.0</ele><time>2026-05-01T13:52:25.003Z</time></trkpt><trkpt lat="42.2580486" lon="14.1784949"><ele>298.0</ele><time>2026-05-01T13:52:26.003Z</time></trkpt><trkpt lat="42.258061" lon="14.1783778"><ele>298.0</ele><time>2026-05-01T13:52:27.003Z</time></trkpt><trkpt lat="42.2580701" lon="14.1782891"><ele>298.0</ele><time>2026-05-01T13:52:28.003Z</time></trkpt><trkpt lat="42.2580931" lon="14.1781866"><ele>298.0</ele><time>2026-05-01T13:52:30.003Z</time></trkpt><trkpt lat="42.258086" lon="14.1780652"><ele>298.0</ele><time>2026-05-01T13:52:32.003Z</time></trkpt><trkpt lat="42.2580752" lon="14.17797"><ele>298.0</ele><time>2026-05-01T13:52:33.003Z</time></trkpt><trkpt lat="42.2580257" lon="14.1778468"><ele>299.4</ele><time>2026-05-01T13:52:35.003Z</time></trkpt><trkpt lat="42.257928" lon="14.1777967"><ele>300.8</ele><time>2026-05-01T13:52:37.003Z</time></trkpt><trkpt lat="42.2578472" lon="14.1777178"><ele>302.2</ele><time>2026-05-01T13:52:39.003Z</time></trkpt><trkpt lat="42.2577504" lon="14.1777191"><ele>303.6</ele><time>2026-05-01T13:52:41.003Z</time></trkpt><trkpt lat="42.257628" lon="14.1777443"><ele>305.0</ele><time>2026-05-01T13:52:43.003Z</time></trkpt><trkpt lat="42.2575657" lon="14.1777203"><ele>305.0</ele><time>2026-05-01T13:52:44.003Z</time></trkpt><trkpt lat="42.2574977" lon="14.177696"><ele>305.0</ele><time>2026-05-01T13:52:45.003Z</time></trkpt><trkpt lat="42.2573661" lon="14.1777289"><ele>305.0</ele><time>2026-05-01T13:52:47.003Z</time></trkpt><trkpt lat="42.2572749" lon="14.1777825"><ele>305.0</ele><time>2026-05-01T13:52:48.003Z</time></trkpt><trkpt lat="42.2572025" lon="14.1778317"><ele>305.0</ele><time>2026-05-01T13:52:49.003Z</time></trkpt><trkpt lat="42.2571342" lon="14.1779438"><ele>307.2</ele><time>2026-05-01T13:52:51.003Z</time></trkpt><trkpt lat="42.2570509" lon="14.1779579"><ele>309.4</ele><time>2026-05-01T13:52:53.003Z</time></trkpt><trkpt lat="42.2570219" lon="14.1778572"><ele>311.6</ele><time>2026-05-01T13:52:55.003Z</time></trkpt><trkpt lat="42.257059" lon="14.1776916"><ele>313.8</ele><time>2026-05-01T13:52:57.003Z</time></trkpt><trkpt lat="42.2570822" lon="14.1775693"><ele>316.0</ele><time>2026-05-01T13:52:58.003Z</time></trkpt><trkpt lat="42.2571137" lon="14.1774501"><ele>315.8</ele><time>2026-05-01T13:52:59.003Z</time></trkpt><trkpt lat="42.2571681" lon="14.177328"><ele>315.6</ele><time>2026-05-01T13:53:00.003Z</time></trkpt><trkpt lat="42.2572364" lon="14.1771878"><ele>315.4</ele><time>2026-05-01T13:53:01.003Z</time></trkpt><trkpt lat="42.2573022" lon="14.1770744"><ele>315.2</ele><time>2026-05-01T13:53:02.003Z</time></trkpt><trkpt lat="42.2573443" lon="14.1769494"><ele>315.0</ele><time>2026-05-01T13:53:03.003Z</time></trkpt><trkpt lat="42.2573957" lon="14.1768007"><ele>315.0</ele><time>2026-05-01T13:53:04.003Z</time></trkpt><trkpt lat="42.2574469" lon="14.1766388"><ele>315.0</ele><time>2026-05-01T13:53:05.003Z</time></trkpt><trkpt lat="42.2574961" lon="14.176481"><ele>315.0</ele><time>2026-05-01T13:53:06.003Z</time></trkpt><trkpt lat="42.2575337" lon="14.1763673"><ele>315.0</ele><time>2026-05-01T13:53:07.003Z</time></trkpt><trkpt lat="42.257558" lon="14.1762314"><ele>316.5</ele><time>2026-05-01T13:53:09.003Z</time></trkpt><trkpt lat="42.2575089" lon="14.1761388"><ele>318.0</ele><time>2026-05-01T13:53:11.003Z</time></trkpt><trkpt lat="42.2573961" lon="14.1760657"><ele>319.5</ele><time>2026-05-01T13:53:13.003Z</time></trkpt><trkpt lat="42.2573366" lon="14.1760202"><ele>321.0</ele><time>2026-05-01T13:53:14.003Z</time></trkpt><trkpt lat="42.257284" lon="14.1759603"><ele>322.5</ele><time>2026-05-01T13:53:15.003Z</time></trkpt><trkpt lat="42.2572473" lon="14.1758819"><ele>324.0</ele><time>2026-05-01T13:53:16.003Z</time></trkpt><trkpt lat="42.2572232" lon="14.1757197"><ele>325.0</ele><time>2026-05-01T13:53:18.003Z</time></trkpt><trkpt lat="42.2571834" lon="14.1755688"><ele>326.0</ele><time>2026-05-01T13:53:20.003Z</time></trkpt><trkpt lat="42.2571531" lon="14.1754328"><ele>327.0</ele><time>2026-05-01T13:53:22.003Z</time></trkpt><trkpt lat="42.2571592" lon="14.1753376"><ele>328.0</ele><time>2026-05-01T13:53:23.003Z</time></trkpt><trkpt lat="42.2571784" lon="14.1752334"><ele>329.0</ele><time>2026-05-01T13:53:24.003Z</time></trkpt><trkpt lat="42.2572194" lon="14.1751098"><ele>329.0</ele><time>2026-05-01T13:53:25.003Z</time></trkpt><trkpt lat="42.2572606" lon="14.1749829"><ele>329.0</ele><time>2026-05-01T13:53:26.003Z</time></trkpt><trkpt lat="42.2573192" lon="14.1748429"><ele>329.0</ele><time>2026-05-01T13:53:27.003Z</time></trkpt><trkpt lat="42.2573907" lon="14.1746774"><ele>329.0</ele><time>2026-05-01T13:53:28.003Z</time></trkpt><trkpt lat="42.2574711" lon="14.1745024"><ele>332.33333333333337</ele><time>2026-05-01T13:53:29.003Z</time></trkpt><trkpt lat="42.2575538" lon="14.1743129"><ele>335.6666666666667</ele><time>2026-05-01T13:53:30.003Z</time></trkpt><trkpt lat="42.2576409" lon="14.1741092"><ele>339.0</ele><time>2026-05-01T13:53:31.003Z</time></trkpt><trkpt lat="42.257732" lon="14.173907"><ele>340.75</ele><time>2026-05-01T13:53:32.003Z</time></trkpt><trkpt lat="42.2578293" lon="14.1737296"><ele>342.5</ele><time>2026-05-01T13:53:33.003Z</time></trkpt><trkpt lat="42.257911" lon="14.1735792"><ele>344.25</ele><time>2026-05-01T13:53:34.003Z</time></trkpt><trkpt lat="42.2579958" lon="14.1734589"><ele>346.0</ele><time>2026-05-01T13:53:35.003Z</time></trkpt><trkpt lat="42.2580882" lon="14.173371"><ele>345.6</ele><time>2026-05-01T13:53:36.003Z</time></trkpt><trkpt lat="42.2581708" lon="14.1732897"><ele>345.20000000000005</ele><time>2026-05-01T13:53:37.003Z</time></trkpt><trkpt lat="42.2582502" lon="14.1732104"><ele>344.79999999999995</ele><time>2026-05-01T13:53:38.003Z</time></trkpt><trkpt lat="42.2583135" lon="14.1731368"><ele>344.4</ele><time>2026-05-01T13:53:39.003Z</time></trkpt><trkpt lat="42.2583618" lon="14.1730758"><ele>344.0</ele><time>2026-05-01T13:53:40.003Z</time></trkpt><trkpt lat="42.258428" lon="14.1729407"><ele>347.25</ele><time>2026-05-01T13:53:42.003Z</time></trkpt><trkpt lat="42.2584679" lon="14.1728317"><ele>350.5</ele><time>2026-05-01T13:53:43.003Z</time></trkpt><trkpt lat="42.2585394" lon="14.1727261"><ele>353.75</ele><time>2026-05-01T13:53:44.003Z</time></trkpt><trkpt lat="42.2586307" lon="14.1726099"><ele>357.0</ele><time>2026-05-01T13:53:45.003Z</time></trkpt><trkpt lat="42.2587315" lon="14.1724795"><ele>360.75</ele><time>2026-05-01T13:53:46.003Z</time></trkpt><trkpt lat="42.2588411" lon="14.1723493"><ele>364.5</ele><time>2026-05-01T13:53:47.003Z</time></trkpt><trkpt lat="42.2589553" lon="14.172222"><ele>368.25</ele><time>2026-05-01T13:53:48.003Z</time></trkpt><trkpt lat="42.2590734" lon="14.1720964"><ele>372.0</ele><time>2026-05-01T13:53:49.003Z</time></trkpt><trkpt lat="42.2591877" lon="14.1719775"><ele>372.25</ele><time>2026-05-01T13:53:50.003Z</time></trkpt><trkpt lat="42.2592954" lon="14.1718537"><ele>372.5</ele><time>2026-05-01T13:53:51.003Z</time></trkpt><trkpt lat="42.2593959" lon="14.1717263"><ele>372.75</ele><time>2026-05-01T13:53:52.003Z</time></trkpt><trkpt lat="42.2594685" lon="14.1716036"><ele>373.0</ele><time>2026-05-01T13:53:53.003Z</time></trkpt><trkpt lat="42.2595165" lon="14.1714818"><ele>372.4</ele><time>2026-05-01T13:53:54.003Z</time></trkpt><trkpt lat="42.2595583" lon="14.1713919"><ele>371.79999999999995</ele><time>2026-05-01T13:53:55.003Z</time></trkpt><trkpt lat="42.2596322" lon="14.1712554"><ele>371.2</ele><time>2026-05-01T13:53:57.003Z</time></trkpt><trkpt lat="42.2596846" lon="14.1711753"><ele>370.6</ele><time>2026-05-01T13:53:58.003Z</time></trkpt><trkpt lat="42.2597616" lon="14.1710979"><ele>370.0</ele><time>2026-05-01T13:53:59.003Z</time></trkpt><trkpt lat="42.2598456" lon="14.1710129"><ele>370.0</ele><time>2026-05-01T13:54:00.003Z</time></trkpt><trkpt lat="42.2599418" lon="14.1709156"><ele>370.0</ele><time>2026-05-01T13:54:01.003Z</time></trkpt><trkpt lat="42.260045" lon="14.1708141"><ele>370.0</ele><time>2026-05-01T13:54:02.003Z</time></trkpt><trkpt lat="42.2601519" lon="14.1707058"><ele>370.0</ele><time>2026-05-01T13:54:03.003Z</time></trkpt><trkpt lat="42.2602679" lon="14.1705908"><ele>369.25</ele><time>2026-05-01T13:54:04.003Z</time></trkpt><trkpt lat="42.2603878" lon="14.1704766"><ele>368.5</ele><time>2026-05-01T13:54:05.003Z</time></trkpt><trkpt lat="42.2605036" lon="14.1703602"><ele>367.75</ele><time>2026-05-01T13:54:06.003Z</time></trkpt><trkpt lat="42.2606144" lon="14.1702352"><ele>367.0</ele><time>2026-05-01T13:54:07.003Z</time></trkpt><trkpt lat="42.2607161" lon="14.1701139"><ele>365.0</ele><time>2026-05-01T13:54:08.003Z</time></trkpt><trkpt lat="42.2608051" lon="14.1699957"><ele>363.0</ele><time>2026-05-01T13:54:09.003Z</time></trkpt><trkpt lat="42.260877" lon="14.1699038"><ele>361.0</ele><time>2026-05-01T13:54:10.003Z</time></trkpt><trkpt lat="42.2609238" lon="14.1698289"><ele>359.0</ele><time>2026-05-01T13:54:11.003Z</time></trkpt><trkpt lat="42.2609549" lon="14.1697462"><ele>357.0</ele><time>2026-05-01T13:54:12.003Z</time></trkpt><trkpt lat="42.2609741" lon="14.1696392"><ele>355.0</ele><time>2026-05-01T13:54:13.003Z</time></trkpt><trkpt lat="42.2609938" lon="14.1695042"><ele>353.6</ele><time>2026-05-01T13:54:14.003Z</time></trkpt><trkpt lat="42.2610012" lon="14.1693549"><ele>352.2</ele><time>2026-05-01T13:54:15.003Z</time></trkpt><trkpt lat="42.2610105" lon="14.1692103"><ele>350.79999999999995</ele><time>2026-05-01T13:54:16.003Z</time></trkpt><trkpt lat="42.2610177" lon="14.1690692"><ele>349.4</ele><time>2026-05-01T13:54:17.003Z</time></trkpt><trkpt lat="42.2610153" lon="14.1689319"><ele>348.0</ele><time>2026-05-01T13:54:18.003Z</time></trkpt><trkpt lat="42.2609996" lon="14.1688024"><ele>346.75</ele><time>2026-05-01T13:54:19.003Z</time></trkpt><trkpt lat="42.2609967" lon="14.1686628"><ele>345.5</ele><time>2026-05-01T13:54:20.003Z</time></trkpt><trkpt lat="42.2610104" lon="14.1685177"><ele>344.25</ele><time>2026-05-01T13:54:21.003Z</time></trkpt><trkpt lat="42.2610417" lon="14.1683666"><ele>343.0</ele><time>2026-05-01T13:54:22.003Z</time></trkpt><trkpt lat="42.2610829" lon="14.1682018"><ele>340.75</ele><time>2026-05-01T13:54:23.003Z</time></trkpt><trkpt lat="42.2611235" lon="14.16805"><ele>338.5</ele><time>2026-05-01T13:54:24.003Z</time></trkpt><trkpt lat="42.2611507" lon="14.1679168"><ele>336.25</ele><time>2026-05-01T13:54:25.003Z</time></trkpt><trkpt lat="42.2611539" lon="14.1677692"><ele>334.0</ele><time>2026-05-01T13:54:26.003Z</time></trkpt><trkpt lat="42.2611517" lon="14.1676043"><ele>334.0</ele><time>2026-05-01T13:54:27.003Z</time></trkpt><trkpt lat="42.2611414" lon="14.1674467"><ele>334.0</ele><time>2026-05-01T13:54:28.003Z</time></trkpt><trkpt lat="42.2611329" lon="14.1673084"><ele>334.0</ele><time>2026-05-01T13:54:29.003Z</time></trkpt><trkpt lat="42.2611276" lon="14.1672034"><ele>334.0</ele><time>2026-05-01T13:54:30.003Z</time></trkpt><trkpt lat="42.2611123" lon="14.1670835"><ele>334.0</ele><time>2026-05-01T13:54:32.003Z</time></trkpt><trkpt lat="42.2610378" lon="14.1670568"><ele>333.16666666666663</ele><time>2026-05-01T13:54:34.003Z</time></trkpt><trkpt lat="42.2609699" lon="14.1670373"><ele>332.3333333333333</ele><time>2026-05-01T13:54:35.003Z</time></trkpt><trkpt lat="42.2608947" lon="14.1670134"><ele>331.5</ele><time>2026-05-01T13:54:36.003Z</time></trkpt><trkpt lat="42.2608052" lon="14.1669951"><ele>330.6666666666667</ele><time>2026-05-01T13:54:37.003Z</time></trkpt><trkpt lat="42.2607036" lon="14.166958"><ele>329.83333333333337</ele><time>2026-05-01T13:54:38.003Z</time></trkpt><trkpt lat="42.2606061" lon="14.1669067"><ele>329.0</ele><time>2026-05-01T13:54:39.003Z</time></trkpt><trkpt lat="42.2605107" lon="14.1668618"><ele>329.0</ele><time>2026-05-01T13:54:40.003Z</time></trkpt><trkpt lat="42.260431" lon="14.1668274"><ele>329.0</ele><time>2026-05-01T13:54:41.003Z</time></trkpt><trkpt lat="42.2603481" lon="14.1667903"><ele>329.0</ele><time>2026-05-01T13:54:42.003Z</time></trkpt><trkpt lat="42.260263" lon="14.1667601"><ele>329.0</ele><time>2026-05-01T13:54:43.003Z</time></trkpt><trkpt lat="42.260182" lon="14.1667336"><ele>329.0</ele><time>2026-05-01T13:54:44.003Z</time></trkpt><trkpt lat="42.2601148" lon="14.1667282"><ele>329.0</ele><time>2026-05-01T13:54:45.003Z</time></trkpt><trkpt lat="42.2599825" lon="14.1667308"><ele>329.0</ele><time>2026-05-01T13:54:47.003Z</time></trkpt><trkpt lat="42.2599087" lon="14.1667382"><ele>329.0</ele><time>2026-05-01T13:54:48.003Z</time></trkpt><trkpt lat="42.2598296" lon="14.16674"><ele>329.0</ele><time>2026-05-01T13:54:49.004Z</time></trkpt><trkpt lat="42.2597492" lon="14.1667306"><ele>329.0</ele><time>2026-05-01T13:54:50.003Z</time></trkpt><trkpt lat="42.259673" lon="14.1667031"><ele>329.0</ele><time>2026-05-01T13:54:51.003Z</time></trkpt><trkpt lat="42.2596026" lon="14.1666691"><ele>329.0</ele><time>2026-05-01T13:54:52.003Z</time></trkpt><trkpt lat="42.2595442" lon="14.1666308"><ele>329.83333333333337</ele><time>2026-05-01T13:54:53.003Z</time></trkpt><trkpt lat="42.2594865" lon="14.1665835"><ele>330.6666666666667</ele><time>2026-05-01T13:54:54.003Z</time></trkpt><trkpt lat="42.2594088" lon="14.1665384"><ele>331.5</ele><time>2026-05-01T13:54:55.003Z</time></trkpt><trkpt lat="42.2593286" lon="14.166497"><ele>332.3333333333333</ele><time>2026-05-01T13:54:56.003Z</time></trkpt><trkpt lat="42.2592469" lon="14.1664609"><ele>333.16666666666663</ele><time>2026-05-01T13:54:57.003Z</time></trkpt><trkpt lat="42.2591643" lon="14.1664287"><ele>334.0</ele><time>2026-05-01T13:54:58.003Z</time></trkpt><trkpt lat="42.259081" lon="14.1663991"><ele>334.0</ele><time>2026-05-01T13:54:59.003Z</time></trkpt><trkpt lat="42.2590042" lon="14.1663606"><ele>334.0</ele><time>2026-05-01T13:55:00.003Z</time></trkpt><trkpt lat="42.2589283" lon="14.1663095"><ele>334.0</ele><time>2026-05-01T13:55:01.003Z</time></trkpt><trkpt lat="42.2588364" lon="14.1662579"><ele>334.0</ele><time>2026-05-01T13:55:02.003Z</time></trkpt><trkpt lat="42.2587435" lon="14.1662203"><ele>334.0</ele><time>2026-05-01T13:55:03.003Z</time></trkpt><trkpt lat="42.2586569" lon="14.1661959"><ele>337.6</ele><time>2026-05-01T13:55:04.003Z</time></trkpt><trkpt lat="42.2585646" lon="14.1661857"><ele>341.2</ele><time>2026-05-01T13:55:05.003Z</time></trkpt><trkpt lat="42.2584559" lon="14.166164"><ele>344.8</ele><time>2026-05-01T13:55:06.003Z</time></trkpt><trkpt lat="42.2583667" lon="14.1661504"><ele>348.40000000000003</ele><time>2026-05-01T13:55:07.003Z</time></trkpt><trkpt lat="42.2582904" lon="14.1661628"><ele>352.0</ele><time>2026-05-01T13:55:08.003Z</time></trkpt><trkpt lat="42.258206" lon="14.16618"><ele>351.0</ele><time>2026-05-01T13:55:09.003Z</time></trkpt><trkpt lat="42.2581128" lon="14.1661907"><ele>350.0</ele><time>2026-05-01T13:55:10.003Z</time></trkpt><trkpt lat="42.2580359" lon="14.1662017"><ele>349.0</ele><time>2026-05-01T13:55:11.003Z</time></trkpt><trkpt lat="42.2579272" lon="14.1662467"><ele>348.0</ele><time>2026-05-01T13:55:13.003Z</time></trkpt><trkpt lat="42.2578313" lon="14.1663568"><ele>347.0</ele><time>2026-05-01T13:55:15.003Z</time></trkpt><trkpt lat="42.2577823" lon="14.1664548"><ele>348.6</ele><time>2026-05-01T13:55:16.003Z</time></trkpt><trkpt lat="42.2577335" lon="14.1665652"><ele>350.20000000000005</ele><time>2026-05-01T13:55:17.003Z</time></trkpt><trkpt lat="42.2576778" lon="14.1666799"><ele>351.8</ele><time>2026-05-01T13:55:18.003Z</time></trkpt><trkpt lat="42.2576233" lon="14.166804"><ele>353.4</ele><time>2026-05-01T13:55:19.003Z</time></trkpt><trkpt lat="42.25757" lon="14.1669239"><ele>355.0</ele><time>2026-05-01T13:55:20.003Z</time></trkpt><trkpt lat="42.2575127" lon="14.1670524"><ele>355.0</ele><time>2026-05-01T13:55:21.003Z</time></trkpt><trkpt lat="42.2574524" lon="14.1671643"><ele>355.0</ele><time>2026-05-01T13:55:22.003Z</time></trkpt><trkpt lat="42.2573907" lon="14.1672764"><ele>355.0</ele><time>2026-05-01T13:55:23.003Z</time></trkpt><trkpt lat="42.2573319" lon="14.1673744"><ele>355.0</ele><time>2026-05-01T13:55:24.003Z</time></trkpt><trkpt lat="42.2572651" lon="14.1674534"><ele>355.0</ele><time>2026-05-01T13:55:25.003Z</time></trkpt><trkpt lat="42.2571887" lon="14.1675195"><ele>354.6</ele><time>2026-05-01T13:55:26.003Z</time></trkpt><trkpt lat="42.2571066" lon="14.1675656"><ele>354.2</ele><time>2026-05-01T13:55:27.003Z</time></trkpt><trkpt lat="42.257007" lon="14.1675874"><ele>353.79999999999995</ele><time>2026-05-01T13:55:28.003Z</time></trkpt><trkpt lat="42.256893" lon="14.1676011"><ele>353.4</ele><time>2026-05-01T13:55:29.003Z</time></trkpt><trkpt lat="42.2567781" lon="14.1676045"><ele>353.0</ele><time>2026-05-01T13:55:30.003Z</time></trkpt><trkpt lat="42.2566683" lon="14.1676322"><ele>353.0</ele><time>2026-05-01T13:55:31.003Z</time></trkpt><trkpt lat="42.2565703" lon="14.167683"><ele>353.0</ele><time>2026-05-01T13:55:32.003Z</time></trkpt><trkpt lat="42.2564772" lon="14.1677545"><ele>353.0</ele><time>2026-05-01T13:55:33.003Z</time></trkpt><trkpt lat="42.2563768" lon="14.1678441"><ele>353.0</ele><time>2026-05-01T13:55:34.003Z</time></trkpt><trkpt lat="42.2562755" lon="14.1679403"><ele>351.4</ele><time>2026-05-01T13:55:35.003Z</time></trkpt><trkpt lat="42.2561828" lon="14.1680352"><ele>349.79999999999995</ele><time>2026-05-01T13:55:36.003Z</time></trkpt><trkpt lat="42.2560964" lon="14.1681288"><ele>348.2</ele><time>2026-05-01T13:55:37.003Z</time></trkpt><trkpt lat="42.2560163" lon="14.16823"><ele>346.6</ele><time>2026-05-01T13:55:38.003Z</time></trkpt><trkpt lat="42.2559538" lon="14.1683241"><ele>345.0</ele><time>2026-05-01T13:55:39.003Z</time></trkpt><trkpt lat="42.2559148" lon="14.1684059"><ele>345.0</ele><time>2026-05-01T13:55:40.003Z</time></trkpt><trkpt lat="42.2558904" lon="14.168494"><ele>345.0</ele><time>2026-05-01T13:55:41.003Z</time></trkpt><trkpt lat="42.2558501" lon="14.168589"><ele>345.0</ele><time>2026-05-01T13:55:42.003Z</time></trkpt><trkpt lat="42.2557908" lon="14.1686824"><ele>345.0</ele><time>2026-05-01T13:55:43.003Z</time></trkpt><trkpt lat="42.2557454" lon="14.1687843"><ele>345.0</ele><time>2026-05-01T13:55:44.003Z</time></trkpt><trkpt lat="42.2557011" lon="14.1688823"><ele>345.0</ele><time>2026-05-01T13:55:45.003Z</time></trkpt><trkpt lat="42.2556636" lon="14.1689886"><ele>345.1666666666667</ele><time>2026-05-01T13:55:46.003Z</time></trkpt><trkpt lat="42.2556249" lon="14.1690839"><ele>345.3333333333333</ele><time>2026-05-01T13:55:47.003Z</time></trkpt><trkpt lat="42.2555974" lon="14.1691633"><ele>345.5</ele><time>2026-05-01T13:55:48.003Z</time></trkpt><trkpt lat="42.2555455" lon="14.1692395"><ele>345.66666666666663</ele><time>2026-05-01T13:55:51.003Z</time></trkpt><trkpt lat="42.255497" lon="14.1691617"><ele>345.8333333333333</ele><time>2026-05-01T13:55:53.003Z</time></trkpt><trkpt lat="42.2554773" lon="14.1690688"><ele>346.0</ele><time>2026-05-01T13:55:54.003Z</time></trkpt><trkpt lat="42.2554624" lon="14.1689464"><ele>343.4</ele><time>2026-05-01T13:55:55.003Z</time></trkpt><trkpt lat="42.2554408" lon="14.1688203"><ele>340.8</ele><time>2026-05-01T13:55:56.003Z</time></trkpt><trkpt lat="42.2554268" lon="14.1686898"><ele>338.2</ele><time>2026-05-01T13:55:57.003Z</time></trkpt><trkpt lat="42.2554214" lon="14.1685527"><ele>335.59999999999997</ele><time>2026-05-01T13:55:58.003Z</time></trkpt><trkpt lat="42.255416" lon="14.1684153"><ele>333.0</ele><time>2026-05-01T13:55:59.003Z</time></trkpt><trkpt lat="42.255402" lon="14.1682721"><ele>332.75</ele><time>2026-05-01T13:56:00.003Z</time></trkpt><trkpt lat="42.2553797" lon="14.1681166"><ele>332.5</ele><time>2026-05-01T13:56:01.003Z</time></trkpt><trkpt lat="42.255352" lon="14.1679732"><ele>332.25</ele><time>2026-05-01T13:56:02.003Z</time></trkpt><trkpt lat="42.2553321" lon="14.1678281"><ele>332.0</ele><time>2026-05-01T13:56:03.003Z</time></trkpt><trkpt lat="42.2553121" lon="14.1676767"><ele>332.0</ele><time>2026-05-01T13:56:04.003Z</time></trkpt><trkpt lat="42.2552821" lon="14.1675204"><ele>332.0</ele><time>2026-05-01T13:56:05.003Z</time></trkpt><trkpt lat="42.2552417" lon="14.1673657"><ele>332.0</ele><time>2026-05-01T13:56:06.003Z</time></trkpt><trkpt lat="42.2551863" lon="14.1672072"><ele>332.0</ele><time>2026-05-01T13:56:07.003Z</time></trkpt><trkpt lat="42.2551124" lon="14.1670499"><ele>330.25</ele><time>2026-05-01T13:56:08.003Z</time></trkpt><trkpt lat="42.2550303" lon="14.1668892"><ele>328.5</ele><time>2026-05-01T13:56:09.003Z</time></trkpt><trkpt lat="42.2549492" lon="14.1667228"><ele>326.75</ele><time>2026-05-01T13:56:10.003Z</time></trkpt><trkpt lat="42.2548717" lon="14.1665479"><ele>325.0</ele><time>2026-05-01T13:56:11.003Z</time></trkpt><trkpt lat="42.2547939" lon="14.1663833"><ele>323.66666666666663</ele><time>2026-05-01T13:56:12.003Z</time></trkpt><trkpt lat="42.2547106" lon="14.1662168"><ele>322.3333333333333</ele><time>2026-05-01T13:56:13.003Z</time></trkpt><trkpt lat="42.2546185" lon="14.1660489"><ele>321.0</ele><time>2026-05-01T13:56:14.003Z</time></trkpt><trkpt lat="42.254525" lon="14.1658878"><ele>321.0</ele><time>2026-05-01T13:56:15.003Z</time></trkpt><trkpt lat="42.2544344" lon="14.1657219"><ele>321.0</ele><time>2026-05-01T13:56:16.003Z</time></trkpt><trkpt lat="42.2543466" lon="14.1655651"><ele>321.0</ele><time>2026-05-01T13:56:17.003Z</time></trkpt><trkpt lat="42.2542625" lon="14.1654115"><ele>321.0</ele><time>2026-05-01T13:56:18.003Z</time></trkpt><trkpt lat="42.2541819" lon="14.1652462"><ele>319.0</ele><time>2026-05-01T13:56:19.003Z</time></trkpt><trkpt lat="42.2541031" lon="14.1650757"><ele>317.0</ele><time>2026-05-01T13:56:20.003Z</time></trkpt><trkpt lat="42.2540197" lon="14.1648972"><ele>315.0</ele><time>2026-05-01T13:56:21.003Z</time></trkpt><trkpt lat="42.2539311" lon="14.1647367"><ele>313.5</ele><time>2026-05-01T13:56:22.003Z</time></trkpt><trkpt lat="42.2538361" lon="14.1645809"><ele>312.0</ele><time>2026-05-01T13:56:23.003Z</time></trkpt><trkpt lat="42.2537478" lon="14.1644296"><ele>310.5</ele><time>2026-05-01T13:56:24.003Z</time></trkpt><trkpt lat="42.2536696" lon="14.164279"><ele>309.0</ele><time>2026-05-01T13:56:25.003Z</time></trkpt><trkpt lat="42.2535864" lon="14.1641286"><ele>309.0</ele><time>2026-05-01T13:56:26.003Z</time></trkpt><trkpt lat="42.2535024" lon="14.1639807"><ele>309.0</ele><time>2026-05-01T13:56:27.003Z</time></trkpt><trkpt lat="42.2534135" lon="14.163835"><ele>309.0</ele><time>2026-05-01T13:56:28.003Z</time></trkpt><trkpt lat="42.253328" lon="14.1636953"><ele>309.0</ele><time>2026-05-01T13:56:29.003Z</time></trkpt><trkpt lat="42.2532524" lon="14.1635544"><ele>309.0</ele><time>2026-05-01T13:56:30.003Z</time></trkpt><trkpt lat="42.2531916" lon="14.1634125"><ele>309.0</ele><time>2026-05-01T13:56:31.003Z</time></trkpt><trkpt lat="42.253144" lon="14.16326"><ele>309.0</ele><time>2026-05-01T13:56:32.003Z</time></trkpt><trkpt lat="42.2531046" lon="14.1630966"><ele>309.0</ele><time>2026-05-01T13:56:33.003Z</time></trkpt><trkpt lat="42.2530762" lon="14.1629206"><ele>307.25</ele><time>2026-05-01T13:56:34.003Z</time></trkpt><trkpt lat="42.2530513" lon="14.1627413"><ele>305.5</ele><time>2026-05-01T13:56:35.003Z</time></trkpt><trkpt lat="42.2530195" lon="14.162557"><ele>303.75</ele><time>2026-05-01T13:56:36.003Z</time></trkpt><trkpt lat="42.2529783" lon="14.1623666"><ele>302.0</ele><time>2026-05-01T13:56:37.003Z</time></trkpt><trkpt lat="42.2529306" lon="14.1621837"><ele>302.0</ele><time>2026-05-01T13:56:38.003Z</time></trkpt><trkpt lat="42.2528787" lon="14.1620012"><ele>302.0</ele><time>2026-05-01T13:56:39.003Z</time></trkpt><trkpt lat="42.2528262" lon="14.1618204"><ele>302.0</ele><time>2026-05-01T13:56:40.003Z</time></trkpt><trkpt lat="42.2527726" lon="14.1616368"><ele>302.0</ele><time>2026-05-01T13:56:41.003Z</time></trkpt><trkpt lat="42.2527102" lon="14.1614414"><ele>301.0</ele><time>2026-05-01T13:56:42.003Z</time></trkpt><trkpt lat="42.2526571" lon="14.1612526"><ele>300.0</ele><time>2026-05-01T13:56:43.003Z</time></trkpt><trkpt lat="42.2526066" lon="14.1610786"><ele>299.0</ele><time>2026-05-01T13:56:44.003Z</time></trkpt><trkpt lat="42.2525548" lon="14.1609113"><ele>298.0</ele><time>2026-05-01T13:56:45.003Z</time></trkpt><trkpt lat="42.2524968" lon="14.1607502"><ele>295.5</ele><time>2026-05-01T13:56:46.003Z</time></trkpt><trkpt lat="42.2524398" lon="14.1605992"><ele>293.0</ele><time>2026-05-01T13:56:47.003Z</time></trkpt><trkpt lat="42.252395" lon="14.1604312"><ele>290.5</ele><time>2026-05-01T13:56:48.003Z</time></trkpt><trkpt lat="42.252367" lon="14.1602593"><ele>288.0</ele><time>2026-05-01T13:56:49.003Z</time></trkpt><trkpt lat="42.2523375" lon="14.1600888"><ele>288.0</ele><time>2026-05-01T13:56:50.003Z</time></trkpt><trkpt lat="42.2523123" lon="14.1599173"><ele>288.0</ele><time>2026-05-01T13:56:51.003Z</time></trkpt><trkpt lat="42.2522756" lon="14.1597484"><ele>288.0</ele><time>2026-05-01T13:56:52.003Z</time></trkpt><trkpt lat="42.2522167" lon="14.1596001"><ele>288.0</ele><time>2026-05-01T13:56:53.003Z</time></trkpt><trkpt lat="42.2521545" lon="14.1594458"><ele>288.25</ele><time>2026-05-01T13:56:54.003Z</time></trkpt><trkpt lat="42.252095" lon="14.1593012"><ele>288.5</ele><time>2026-05-01T13:56:55.003Z</time></trkpt><trkpt lat="42.2520338" lon="14.1591614"><ele>288.75</ele><time>2026-05-01T13:56:56.003Z</time></trkpt><trkpt lat="42.2519653" lon="14.159047"><ele>289.0</ele><time>2026-05-01T13:56:57.003Z</time></trkpt><trkpt lat="42.2518938" lon="14.1589376"><ele>287.0</ele><time>2026-05-01T13:56:58.004Z</time></trkpt><trkpt lat="42.2518148" lon="14.1588351"><ele>285.0</ele><time>2026-05-01T13:56:59.003Z</time></trkpt><trkpt lat="42.2517396" lon="14.1587599"><ele>283.0</ele><time>2026-05-01T13:57:00.003Z</time></trkpt><trkpt lat="42.2516475" lon="14.1586965"><ele>281.0</ele><time>2026-05-01T13:57:01.003Z</time></trkpt><trkpt lat="42.2515356" lon="14.1586329"><ele>279.0</ele><time>2026-05-01T13:57:02.003Z</time></trkpt><trkpt lat="42.251406" lon="14.1585574"><ele>279.0</ele><time>2026-05-01T13:57:03.003Z</time></trkpt><trkpt lat="42.2512767" lon="14.1584813"><ele>279.0</ele><time>2026-05-01T13:57:04.003Z</time></trkpt><trkpt lat="42.2511539" lon="14.1584099"><ele>279.0</ele><time>2026-05-01T13:57:05.003Z</time></trkpt><trkpt lat="42.2510378" lon="14.1583449"><ele>279.0</ele><time>2026-05-01T13:57:06.003Z</time></trkpt><trkpt lat="42.2509422" lon="14.1583026"><ele>279.0</ele><time>2026-05-01T13:57:07.003Z</time></trkpt><trkpt lat="42.2508567" lon="14.1582642"><ele>279.0</ele><time>2026-05-01T13:57:08.003Z</time></trkpt><trkpt lat="42.2507745" lon="14.1582378"><ele>279.0</ele><time>2026-05-01T13:57:09.003Z</time></trkpt><trkpt lat="42.2506909" lon="14.1582182"><ele>279.0</ele><time>2026-05-01T13:57:10.003Z</time></trkpt><trkpt lat="42.2506084" lon="14.1581989"><ele>279.0</ele><time>2026-05-01T13:57:11.003Z</time></trkpt><trkpt lat="42.2505286" lon="14.1581801"><ele>279.0</ele><time>2026-05-01T13:57:12.003Z</time></trkpt><trkpt lat="42.2504602" lon="14.1581495"><ele>277.8</ele><time>2026-05-01T13:57:13.003Z</time></trkpt><trkpt lat="42.2503872" lon="14.1580913"><ele>276.59999999999997</ele><time>2026-05-01T13:57:14.003Z</time></trkpt><trkpt lat="42.2503163" lon="14.1580131"><ele>275.4</ele><time>2026-05-01T13:57:15.003Z</time></trkpt><trkpt lat="42.2502504" lon="14.157932"><ele>274.2</ele><time>2026-05-01T13:57:16.003Z</time></trkpt><trkpt lat="42.2501894" lon="14.1578776"><ele>273.0</ele><time>2026-05-01T13:57:17.003Z</time></trkpt><trkpt lat="42.2500702" lon="14.1578359"><ele>273.0</ele><time>2026-05-01T13:57:19.003Z</time></trkpt><trkpt lat="42.2499974" lon="14.1578453"><ele>273.0</ele><time>2026-05-01T13:57:20.003Z</time></trkpt><trkpt lat="42.2499108" lon="14.1578605"><ele>273.0</ele><time>2026-05-01T13:57:21.003Z</time></trkpt><trkpt lat="42.2498179" lon="14.1578654"><ele>273.0</ele><time>2026-05-01T13:57:22.003Z</time></trkpt><trkpt lat="42.249721" lon="14.157856"><ele>273.0</ele><time>2026-05-01T13:57:23.003Z</time></trkpt><trkpt lat="42.249622" lon="14.1578292"><ele>276.75</ele><time>2026-05-01T13:57:24.003Z</time></trkpt><trkpt lat="42.24952" lon="14.1577874"><ele>280.5</ele><time>2026-05-01T13:57:25.003Z</time></trkpt><trkpt lat="42.2494159" lon="14.1577286"><ele>284.25</ele><time>2026-05-01T13:57:26.003Z</time></trkpt><trkpt lat="42.2493097" lon="14.1576716"><ele>288.0</ele><time>2026-05-01T13:57:27.003Z</time></trkpt><trkpt lat="42.2491948" lon="14.1576283"><ele>288.0</ele><time>2026-05-01T13:57:28.003Z</time></trkpt><trkpt lat="42.2490639" lon="14.1575909"><ele>288.0</ele><time>2026-05-01T13:57:29.003Z</time></trkpt><trkpt lat="42.2489271" lon="14.1575484"><ele>288.0</ele><time>2026-05-01T13:57:30.003Z</time></trkpt><trkpt lat="42.2487958" lon="14.1575096"><ele>288.0</ele><time>2026-05-01T13:57:31.003Z</time></trkpt><trkpt lat="42.248677" lon="14.1574637"><ele>289.6</ele><time>2026-05-01T13:57:32.003Z</time></trkpt><trkpt lat="42.2485703" lon="14.1574197"><ele>291.20000000000005</ele><time>2026-05-01T13:57:33.003Z</time></trkpt><trkpt lat="42.2484781" lon="14.1573688"><ele>292.8</ele><time>2026-05-01T13:57:34.003Z</time></trkpt><trkpt lat="42.2483818" lon="14.1573038"><ele>294.40000000000003</ele><time>2026-05-01T13:57:35.003Z</time></trkpt><trkpt lat="42.2482862" lon="14.1572349"><ele>296.0</ele><time>2026-05-01T13:57:36.003Z</time></trkpt><trkpt lat="42.2481929" lon="14.1571692"><ele>300.2</ele><time>2026-05-01T13:57:37.003Z</time></trkpt><trkpt lat="42.2481074" lon="14.1570899"><ele>304.40000000000003</ele><time>2026-05-01T13:57:38.003Z</time></trkpt><trkpt lat="42.2480346" lon="14.1569961"><ele>308.6</ele><time>2026-05-01T13:57:39.003Z</time></trkpt><trkpt lat="42.2479679" lon="14.1568806"><ele>312.8</ele><time>2026-05-01T13:57:40.003Z</time></trkpt><trkpt lat="42.2479019" lon="14.1567507"><ele>317.0</ele><time>2026-05-01T13:57:41.003Z</time></trkpt><trkpt lat="42.247834" lon="14.1566147"><ele>315.0</ele><time>2026-05-01T13:57:42.003Z</time></trkpt><trkpt lat="42.2477671" lon="14.156496"><ele>313.0</ele><time>2026-05-01T13:57:43.003Z</time></trkpt><trkpt lat="42.247707" lon="14.1563836"><ele>311.0</ele><time>2026-05-01T13:57:44.003Z</time></trkpt><trkpt lat="42.2476551" lon="14.1562611"><ele>309.0</ele><time>2026-05-01T13:57:45.003Z</time></trkpt><trkpt lat="42.2476057" lon="14.1561269"><ele>307.0</ele><time>2026-05-01T13:57:46.003Z</time></trkpt><trkpt lat="42.2475572" lon="14.1559976"><ele>307.0</ele><time>2026-05-01T13:57:47.003Z</time></trkpt><trkpt lat="42.2475137" lon="14.1558784"><ele>307.0</ele><time>2026-05-01T13:57:48.003Z</time></trkpt><trkpt lat="42.2474766" lon="14.155758"><ele>307.0</ele><time>2026-05-01T13:57:49.003Z</time></trkpt><trkpt lat="42.2474478" lon="14.1556635"><ele>307.0</ele><time>2026-05-01T13:57:50.003Z</time></trkpt><trkpt lat="42.2474059" lon="14.155519"><ele>307.0</ele><time>2026-05-01T13:57:52.003Z</time></trkpt><trkpt lat="42.2474383" lon="14.1553501"><ele>307.5</ele><time>2026-05-01T13:57:54.003Z</time></trkpt><trkpt lat="42.2474757" lon="14.1552638"><ele>308.0</ele><time>2026-05-01T13:57:55.003Z</time></trkpt><trkpt lat="42.2474899" lon="14.1551776"><ele>308.5</ele><time>2026-05-01T13:57:56.003Z</time></trkpt><trkpt lat="42.2474192" lon="14.1550303"><ele>309.0</ele><time>2026-05-01T13:57:58.003Z</time></trkpt><trkpt lat="42.2473632" lon="14.1549659"><ele>309.5</ele><time>2026-05-01T13:57:59.003Z</time></trkpt><trkpt lat="42.2473027" lon="14.1549205"><ele>310.0</ele><time>2026-05-01T13:58:00.003Z</time></trkpt><trkpt lat="42.2471912" lon="14.154841"><ele>310.0</ele><time>2026-05-01T13:58:02.003Z</time></trkpt><trkpt lat="42.2471201" lon="14.154791"><ele>310.0</ele><time>2026-05-01T13:58:03.003Z</time></trkpt><trkpt lat="42.2470535" lon="14.1547444"><ele>310.0</ele><time>2026-05-01T13:58:04.003Z</time></trkpt><trkpt lat="42.2469706" lon="14.1546666"><ele>310.0</ele><time>2026-05-01T13:58:06.003Z</time></trkpt><trkpt lat="42.246968" lon="14.1545477"><ele>310.0</ele><time>2026-05-01T13:58:08.003Z</time></trkpt><trkpt lat="42.2469312" lon="14.1544262"><ele>310.0</ele><time>2026-05-01T13:58:10.003Z</time></trkpt><trkpt lat="42.2468311" lon="14.1543809"><ele>310.0</ele><time>2026-05-01T13:58:12.003Z</time></trkpt><trkpt lat="42.2467684" lon="14.1543932"><ele>310.0</ele><time>2026-05-01T13:58:13.003Z</time></trkpt><trkpt lat="42.2466926" lon="14.1544005"><ele>310.0</ele><time>2026-05-01T13:58:14.003Z</time></trkpt><trkpt lat="42.2466148" lon="14.154388"><ele>310.0</ele><time>2026-05-01T13:58:15.003Z</time></trkpt><trkpt lat="42.2465324" lon="14.1543719"><ele>310.0</ele><time>2026-05-01T13:58:16.003Z</time></trkpt><trkpt lat="42.2464487" lon="14.1543601"><ele>310.0</ele><time>2026-05-01T13:58:17.003Z</time></trkpt><trkpt lat="42.2463779" lon="14.1543807"><ele>312.5</ele><time>2026-05-01T13:58:18.003Z</time></trkpt><trkpt lat="42.2463064" lon="14.1544276"><ele>315.0</ele><time>2026-05-01T13:58:19.003Z</time></trkpt><trkpt lat="42.2462344" lon="14.1544854"><ele>317.5</ele><time>2026-05-01T13:58:20.003Z</time></trkpt><trkpt lat="42.2461664" lon="14.1545299"><ele>320.0</ele><time>2026-05-01T13:58:21.003Z</time></trkpt><trkpt lat="42.2460931" lon="14.1545512"><ele>322.5</ele><time>2026-05-01T13:58:22.003Z</time></trkpt><trkpt lat="42.2460072" lon="14.1545665"><ele>325.0</ele><time>2026-05-01T13:58:23.003Z</time></trkpt><trkpt lat="42.2459399" lon="14.1545801"><ele>325.0</ele><time>2026-05-01T13:58:24.003Z</time></trkpt><trkpt lat="42.2458283" lon="14.1546616"><ele>325.0</ele><time>2026-05-01T13:58:26.003Z</time></trkpt><trkpt lat="42.245756" lon="14.1547213"><ele>325.0</ele><time>2026-05-01T13:58:27.003Z</time></trkpt><trkpt lat="42.2456751" lon="14.1547677"><ele>325.0</ele><time>2026-05-01T13:58:28.003Z</time></trkpt><trkpt lat="42.2455932" lon="14.1548024"><ele>325.0</ele><time>2026-05-01T13:58:29.003Z</time></trkpt><trkpt lat="42.2455238" lon="14.154835"><ele>328.16666666666663</ele><time>2026-05-01T13:58:30.003Z</time></trkpt><trkpt lat="42.2454529" lon="14.1548972"><ele>331.3333333333333</ele><time>2026-05-01T13:58:31.003Z</time></trkpt><trkpt lat="42.2453803" lon="14.1549676"><ele>334.5</ele><time>2026-05-01T13:58:32.003Z</time></trkpt><trkpt lat="42.2453129" lon="14.1550443"><ele>337.6666666666667</ele><time>2026-05-01T13:58:33.003Z</time></trkpt><trkpt lat="42.2452475" lon="14.1551199"><ele>340.83333333333337</ele><time>2026-05-01T13:58:34.003Z</time></trkpt><trkpt lat="42.245182" lon="14.155194"><ele>344.0</ele><time>2026-05-01T13:58:35.003Z</time></trkpt><trkpt lat="42.2451192" lon="14.1552587"><ele>344.0</ele><time>2026-05-01T13:58:36.003Z</time></trkpt><trkpt lat="42.2450531" lon="14.1553145"><ele>344.0</ele><time>2026-05-01T13:58:37.003Z</time></trkpt><trkpt lat="42.2449828" lon="14.1553491"><ele>344.0</ele><time>2026-05-01T13:58:38.003Z</time></trkpt><trkpt lat="42.2449149" lon="14.1553838"><ele>344.0</ele><time>2026-05-01T13:58:39.003Z</time></trkpt><trkpt lat="42.2448403" lon="14.1554152"><ele>344.0</ele><time>2026-05-01T13:58:40.003Z</time></trkpt><trkpt lat="42.2447645" lon="14.1554446"><ele>344.0</ele><time>2026-05-01T13:58:41.003Z</time></trkpt><trkpt lat="42.2446915" lon="14.1554889"><ele>347.79999999999995</ele><time>2026-05-01T13:58:42.003Z</time></trkpt><trkpt lat="42.2446226" lon="14.1555502"><ele>351.59999999999997</ele><time>2026-05-01T13:58:43.003Z</time></trkpt><trkpt lat="42.2445559" lon="14.155631"><ele>355.4</ele><time>2026-05-01T13:58:44.003Z</time></trkpt><trkpt lat="42.2444797" lon="14.1557303"><ele>359.2</ele><time>2026-05-01T13:58:45.003Z</time></trkpt><trkpt lat="42.2444029" lon="14.1558161"><ele>363.0</ele><time>2026-05-01T13:58:46.003Z</time></trkpt><trkpt lat="42.2443332" lon="14.1558806"><ele>363.0</ele><time>2026-05-01T13:58:47.003Z</time></trkpt><trkpt lat="42.2442383" lon="14.1558878"><ele>363.0</ele><time>2026-05-01T13:58:49.003Z</time></trkpt><trkpt lat="42.2441547" lon="14.1557733"><ele>363.0</ele><time>2026-05-01T13:58:51.003Z</time></trkpt><trkpt lat="42.2441076" lon="14.1556955"><ele>363.0</ele><time>2026-05-01T13:58:52.003Z</time></trkpt><trkpt lat="42.2440493" lon="14.1556127"><ele>363.0</ele><time>2026-05-01T13:58:53.003Z</time></trkpt><trkpt lat="42.2439906" lon="14.1555323"><ele>365.4</ele><time>2026-05-01T13:58:54.003Z</time></trkpt><trkpt lat="42.2439448" lon="14.155449"><ele>367.79999999999995</ele><time>2026-05-01T13:58:55.003Z</time></trkpt><trkpt lat="42.2439063" lon="14.1553535"><ele>370.2</ele><time>2026-05-01T13:58:56.003Z</time></trkpt><trkpt lat="42.2438771" lon="14.155225"><ele>372.6</ele><time>2026-05-01T13:58:57.003Z</time></trkpt><trkpt lat="42.2438488" lon="14.1550783"><ele>375.0</ele><time>2026-05-01T13:58:58.003Z</time></trkpt><trkpt lat="42.2438151" lon="14.154913"><ele>375.5</ele><time>2026-05-01T13:58:59.003Z</time></trkpt><trkpt lat="42.2437659" lon="14.1547313"><ele>376.0</ele><time>2026-05-01T13:59:00.003Z</time></trkpt><trkpt lat="42.2437009" lon="14.1545509"><ele>376.5</ele><time>2026-05-01T13:59:01.003Z</time></trkpt><trkpt lat="42.2436313" lon="14.154393"><ele>377.0</ele><time>2026-05-01T13:59:02.003Z</time></trkpt><trkpt lat="42.243559" lon="14.1542569"><ele>377.0</ele><time>2026-05-01T13:59:03.003Z</time></trkpt><trkpt lat="42.2435116" lon="14.1541098"><ele>377.0</ele><time>2026-05-01T13:59:04.003Z</time></trkpt><trkpt lat="42.2434928" lon="14.1539321"><ele>377.0</ele><time>2026-05-01T13:59:05.003Z</time></trkpt><trkpt lat="42.2434848" lon="14.1537311"><ele>377.0</ele><time>2026-05-01T13:59:06.003Z</time></trkpt><trkpt lat="42.2434849" lon="14.1535204"><ele>377.0</ele><time>2026-05-01T13:59:07.003Z</time></trkpt><trkpt lat="42.2434609" lon="14.1533193"><ele>377.0</ele><time>2026-05-01T13:59:08.003Z</time></trkpt><trkpt lat="42.2434075" lon="14.1531311"><ele>377.0</ele><time>2026-05-01T13:59:09.003Z</time></trkpt><trkpt lat="42.2433402" lon="14.15297"><ele>377.0</ele><time>2026-05-01T13:59:10.003Z</time></trkpt><trkpt lat="42.2432651" lon="14.152817"><ele>377.75</ele><time>2026-05-01T13:59:11.003Z</time></trkpt><trkpt lat="42.2432024" lon="14.1526443"><ele>378.5</ele><time>2026-05-01T13:59:12.003Z</time></trkpt><trkpt lat="42.2431768" lon="14.1524668"><ele>379.25</ele><time>2026-05-01T13:59:13.003Z</time></trkpt><trkpt lat="42.2432056" lon="14.152276"><ele>380.0</ele><time>2026-05-01T13:59:14.003Z</time></trkpt><trkpt lat="42.2432504" lon="14.1520939"><ele>380.6666666666667</ele><time>2026-05-01T13:59:15.003Z</time></trkpt><trkpt lat="42.2432739" lon="14.1519031"><ele>381.3333333333333</ele><time>2026-05-01T13:59:16.003Z</time></trkpt><trkpt lat="42.2432923" lon="14.151686"><ele>382.0</ele><time>2026-05-01T13:59:17.003Z</time></trkpt><trkpt lat="42.243289" lon="14.1514778"><ele>382.66666666666663</ele><time>2026-05-01T13:59:18.003Z</time></trkpt><trkpt lat="42.2432748" lon="14.1512737"><ele>383.3333333333333</ele><time>2026-05-01T13:59:19.003Z</time></trkpt><trkpt lat="42.2432562" lon="14.1510703"><ele>384.0</ele><time>2026-05-01T13:59:20.003Z</time></trkpt><trkpt lat="42.243219" lon="14.1508712"><ele>383.6666666666667</ele><time>2026-05-01T13:59:21.003Z</time></trkpt><trkpt lat="42.2431586" lon="14.150687"><ele>383.33333333333337</ele><time>2026-05-01T13:59:22.003Z</time></trkpt><trkpt lat="42.2430806" lon="14.1505133"><ele>383.0</ele><time>2026-05-01T13:59:23.003Z</time></trkpt><trkpt lat="42.2430175" lon="14.1503227"><ele>383.0</ele><time>2026-05-01T13:59:24.003Z</time></trkpt><trkpt lat="42.2429679" lon="14.1501086"><ele>383.0</ele><time>2026-05-01T13:59:25.003Z</time></trkpt><trkpt lat="42.2429328" lon="14.1498819"><ele>383.0</ele><time>2026-05-01T13:59:26.003Z</time></trkpt><trkpt lat="42.2428936" lon="14.1496568"><ele>385.33333333333337</ele><time>2026-05-01T13:59:27.003Z</time></trkpt><trkpt lat="42.2428515" lon="14.1494415"><ele>387.6666666666667</ele><time>2026-05-01T13:59:28.003Z</time></trkpt><trkpt lat="42.2428146" lon="14.1492179"><ele>390.0</ele><time>2026-05-01T13:59:29.003Z</time></trkpt><trkpt lat="42.242781" lon="14.1489908"><ele>391.66666666666663</ele><time>2026-05-01T13:59:30.003Z</time></trkpt><trkpt lat="42.2427748" lon="14.1487591"><ele>393.3333333333333</ele><time>2026-05-01T13:59:31.003Z</time></trkpt><trkpt lat="42.2427763" lon="14.1485168"><ele>395.0</ele><time>2026-05-01T13:59:32.003Z</time></trkpt><trkpt lat="42.2427737" lon="14.1482806"><ele>396.3333333333333</ele><time>2026-05-01T13:59:33.003Z</time></trkpt><trkpt lat="42.2427695" lon="14.1480411"><ele>397.66666666666663</ele><time>2026-05-01T13:59:34.003Z</time></trkpt><trkpt lat="42.2427647" lon="14.1478039"><ele>399.0</ele><time>2026-05-01T13:59:35.003Z</time></trkpt><trkpt lat="42.2427541" lon="14.1475642"><ele>399.66666666666663</ele><time>2026-05-01T13:59:36.003Z</time></trkpt><trkpt lat="42.2427425" lon="14.1473174"><ele>400.3333333333333</ele><time>2026-05-01T13:59:37.003Z</time></trkpt><trkpt lat="42.2427424" lon="14.1470693"><ele>401.0</ele><time>2026-05-01T13:59:38.003Z</time></trkpt><trkpt lat="42.2427544" lon="14.1468201"><ele>401.0</ele><time>2026-05-01T13:59:39.003Z</time></trkpt><trkpt lat="42.2427862" lon="14.1465764"><ele>401.0</ele><time>2026-05-01T13:59:40.003Z</time></trkpt><trkpt lat="42.2428225" lon="14.1463514"><ele>401.0</ele><time>2026-05-01T13:59:41.003Z</time></trkpt><trkpt lat="42.2428561" lon="14.146139"><ele>401.0</ele><time>2026-05-01T13:59:42.003Z</time></trkpt><trkpt lat="42.2428879" lon="14.1459271"><ele>401.0</ele><time>2026-05-01T13:59:43.003Z</time></trkpt><trkpt lat="42.2428996" lon="14.1457144"><ele>401.0</ele><time>2026-05-01T13:59:44.003Z</time></trkpt><trkpt lat="42.2429064" lon="14.145502"><ele>402.66666666666663</ele><time>2026-05-01T13:59:45.003Z</time></trkpt><trkpt lat="42.242908" lon="14.1452905"><ele>404.33333333333337</ele><time>2026-05-01T13:59:46.003Z</time></trkpt><trkpt lat="42.2429007" lon="14.1450838"><ele>406.0</ele><time>2026-05-01T13:59:47.003Z</time></trkpt><trkpt lat="42.2428739" lon="14.1448643"><ele>409.6666666666667</ele><time>2026-05-01T13:59:48.003Z</time></trkpt><trkpt lat="42.2428346" lon="14.1446446"><ele>413.33333333333337</ele><time>2026-05-01T13:59:49.003Z</time></trkpt><trkpt lat="42.2427998" lon="14.1444379"><ele>417.0</ele><time>2026-05-01T13:59:50.003Z</time></trkpt><trkpt lat="42.242779" lon="14.1442345"><ele>414.5</ele><time>2026-05-01T13:59:51.003Z</time></trkpt><trkpt lat="42.2427582" lon="14.1440424"><ele>412.0</ele><time>2026-05-01T13:59:52.003Z</time></trkpt><trkpt lat="42.2427421" lon="14.1438493"><ele>409.5</ele><time>2026-05-01T13:59:53.003Z</time></trkpt><trkpt lat="42.2427445" lon="14.1436617"><ele>407.0</ele><time>2026-05-01T13:59:54.003Z</time></trkpt><trkpt lat="42.2427685" lon="14.1434917"><ele>407.0</ele><time>2026-05-01T13:59:55.003Z</time></trkpt><trkpt lat="42.2428223" lon="14.1433275"><ele>407.0</ele><time>2026-05-01T13:59:56.003Z</time></trkpt><trkpt lat="42.2429148" lon="14.1431875"><ele>407.0</ele><time>2026-05-01T13:59:57.003Z</time></trkpt><trkpt lat="42.2429959" lon="14.143042"><ele>407.0</ele><time>2026-05-01T13:59:58.003Z</time></trkpt><trkpt lat="42.2430748" lon="14.1428856"><ele>405.66666666666663</ele><time>2026-05-01T13:59:59.003Z</time></trkpt><trkpt lat="42.2431291" lon="14.1427112"><ele>404.33333333333337</ele><time>2026-05-01T14:00:00.003Z</time></trkpt><trkpt lat="42.2431498" lon="14.1424934"><ele>403.0</ele><time>2026-05-01T14:00:01.003Z</time></trkpt><trkpt lat="42.2431563" lon="14.142266"><ele>401.33333333333337</ele><time>2026-05-01T14:00:02.003Z</time></trkpt><trkpt lat="42.2431551" lon="14.1420324"><ele>399.66666666666663</ele><time>2026-05-01T14:00:03.003Z</time></trkpt><trkpt lat="42.2431409" lon="14.1417921"><ele>398.0</ele><time>2026-05-01T14:00:04.003Z</time></trkpt><trkpt lat="42.2431084" lon="14.1415523"><ele>399.3333333333333</ele><time>2026-05-01T14:00:05.003Z</time></trkpt><trkpt lat="42.2430672" lon="14.141316"><ele>400.66666666666663</ele><time>2026-05-01T14:00:06.003Z</time></trkpt><trkpt lat="42.2430395" lon="14.1410916"><ele>402.0</ele><time>2026-05-01T14:00:07.003Z</time></trkpt><trkpt lat="42.2430243" lon="14.1408811"><ele>404.25</ele><time>2026-05-01T14:00:08.003Z</time></trkpt><trkpt lat="42.2430134" lon="14.1406797"><ele>406.5</ele><time>2026-05-01T14:00:09.003Z</time></trkpt><trkpt lat="42.2429918" lon="14.1404841"><ele>408.75</ele><time>2026-05-01T14:00:10.003Z</time></trkpt><trkpt lat="42.2429606" lon="14.1402897"><ele>411.0</ele><time>2026-05-01T14:00:11.003Z</time></trkpt><trkpt lat="42.2429096" lon="14.1401008"><ele>411.0</ele><time>2026-05-01T14:00:12.003Z</time></trkpt><trkpt lat="42.2428416" lon="14.1399055"><ele>411.0</ele><time>2026-05-01T14:00:13.003Z</time></trkpt><trkpt lat="42.2427742" lon="14.1397019"><ele>411.0</ele><time>2026-05-01T14:00:14.003Z</time></trkpt><trkpt lat="42.242709" lon="14.1394912"><ele>413.0</ele><time>2026-05-01T14:00:15.003Z</time></trkpt><trkpt lat="42.2426441" lon="14.1392796"><ele>415.0</ele><time>2026-05-01T14:00:16.003Z</time></trkpt><trkpt lat="42.2425883" lon="14.139066"><ele>417.0</ele><time>2026-05-01T14:00:17.003Z</time></trkpt><trkpt lat="42.2425413" lon="14.1388535"><ele>417.66666666666663</ele><time>2026-05-01T14:00:18.003Z</time></trkpt><trkpt lat="42.2425059" lon="14.1386424"><ele>418.3333333333333</ele><time>2026-05-01T14:00:19.003Z</time></trkpt><trkpt lat="42.24248" lon="14.1384243"><ele>419.0</ele><time>2026-05-01T14:00:20.003Z</time></trkpt><trkpt lat="42.2424665" lon="14.1382024"><ele>420.3333333333333</ele><time>2026-05-01T14:00:21.003Z</time></trkpt><trkpt lat="42.2424615" lon="14.1379848"><ele>421.66666666666663</ele><time>2026-05-01T14:00:22.003Z</time></trkpt><trkpt lat="42.2424603" lon="14.1377673"><ele>423.0</ele><time>2026-05-01T14:00:23.003Z</time></trkpt><trkpt lat="42.2424573" lon="14.1375488"><ele>423.66666666666663</ele><time>2026-05-01T14:00:24.003Z</time></trkpt><trkpt lat="42.2424529" lon="14.1373264"><ele>424.3333333333333</ele><time>2026-05-01T14:00:25.003Z</time></trkpt><trkpt lat="42.2424421" lon="14.1371002"><ele>425.0</ele><time>2026-05-01T14:00:26.003Z</time></trkpt><trkpt lat="42.2424102" lon="14.1369013"><ele>425.0</ele><time>2026-05-01T14:00:27.003Z</time></trkpt><trkpt lat="42.2423757" lon="14.136731"><ele>425.0</ele><time>2026-05-01T14:00:28.003Z</time></trkpt><trkpt lat="42.2423615" lon="14.1365737"><ele>425.0</ele><time>2026-05-01T14:00:29.003Z</time></trkpt><trkpt lat="42.2423674" lon="14.1364389"><ele>425.0</ele><time>2026-05-01T14:00:30.003Z</time></trkpt><trkpt lat="42.2423992" lon="14.1363189"><ele>425.0</ele><time>2026-05-01T14:00:31.003Z</time></trkpt><trkpt lat="42.2424399" lon="14.1362313"><ele>425.66666666666663</ele><time>2026-05-01T14:00:32.003Z</time></trkpt><trkpt lat="42.2424815" lon="14.1361398"><ele>426.3333333333333</ele><time>2026-05-01T14:00:33.003Z</time></trkpt><trkpt lat="42.2425188" lon="14.1360321"><ele>427.0</ele><time>2026-05-01T14:00:34.003Z</time></trkpt><trkpt lat="42.2425522" lon="14.1359189"><ele>427.66666666666663</ele><time>2026-05-01T14:00:35.003Z</time></trkpt><trkpt lat="42.2425881" lon="14.1358031"><ele>428.3333333333333</ele><time>2026-05-01T14:00:36.003Z</time></trkpt><trkpt lat="42.2426245" lon="14.1357106"><ele>429.0</ele><time>2026-05-01T14:00:37.003Z</time></trkpt><trkpt lat="42.2426573" lon="14.1356316"><ele>429.0</ele><time>2026-05-01T14:00:38.003Z</time></trkpt><trkpt lat="42.2427212" lon="14.1355024"><ele>429.0</ele><time>2026-05-01T14:00:40.003Z</time></trkpt><trkpt lat="42.242782" lon="14.1354091"><ele>429.0</ele><time>2026-05-01T14:00:42.003Z</time></trkpt><trkpt lat="42.2428406" lon="14.1353167"><ele>429.0</ele><time>2026-05-01T14:00:45.003Z</time></trkpt><trkpt lat="42.2429152" lon="14.1352386"><ele>429.0</ele><time>2026-05-01T14:00:47.003Z</time></trkpt><trkpt lat="42.2429496" lon="14.135141"><ele>429.0</ele><time>2026-05-01T14:00:50.003Z</time></trkpt><trkpt lat="42.2430196" lon="14.1350429"><ele>429.0</ele><time>2026-05-01T14:00:52.003Z</time></trkpt><trkpt lat="42.243111" lon="14.134996"><ele>429.0</ele><time>2026-05-01T14:00:54.003Z</time></trkpt><trkpt lat="42.2432198" lon="14.1350134"><ele>429.0</ele><time>2026-05-01T14:00:56.003Z</time></trkpt><trkpt lat="42.2433246" lon="14.1350009"><ele>429.0</ele><time>2026-05-01T14:00:58.003Z</time></trkpt><trkpt lat="42.2433999" lon="14.1349514"><ele>427.3333333333333</ele><time>2026-05-01T14:01:00.003Z</time></trkpt><trkpt lat="42.2434733" lon="14.134916"><ele>425.66666666666663</ele><time>2026-05-01T14:01:02.003Z</time></trkpt><trkpt lat="42.2435409" lon="14.1348704"><ele>424.0</ele><time>2026-05-01T14:01:04.003Z</time></trkpt><trkpt lat="42.2436076" lon="14.1347994"><ele>422.3333333333333</ele><time>2026-05-01T14:01:06.003Z</time></trkpt><trkpt lat="42.243667" lon="14.1347123"><ele>420.66666666666663</ele><time>2026-05-01T14:01:08.003Z</time></trkpt><trkpt lat="42.2437145" lon="14.134626"><ele>419.0</ele><time>2026-05-01T14:01:10.003Z</time></trkpt><trkpt lat="42.2437571" lon="14.1345556"><ele>418.99999999999994</ele><time>2026-05-01T14:01:12.003Z</time></trkpt><trkpt lat="42.2438109" lon="14.1344871"><ele>419.0</ele><time>2026-05-01T14:01:14.003Z</time></trkpt><trkpt lat="42.2438609" lon="14.1344171"><ele>419.0</ele><time>2026-05-01T14:01:16.003Z</time></trkpt><trkpt lat="42.243905" lon="14.1343518"><ele>419.0</ele><time>2026-05-01T14:01:18.003Z</time></trkpt><trkpt lat="42.2439473" lon="14.1342747"><ele>419.0</ele><time>2026-05-01T14:01:20.003Z</time></trkpt><trkpt lat="42.2439716" lon="14.1341602"><ele>418.99999999999994</ele><time>2026-05-01T14:01:23.003Z</time></trkpt><trkpt lat="42.2439636" lon="14.1340675"><ele>419.0</ele><time>2026-05-01T14:01:26.003Z</time></trkpt><trkpt lat="42.2440294" lon="14.1339353"><ele>418.49999999999994</ele><time>2026-05-01T14:01:56.003Z</time></trkpt><trkpt lat="42.2440721" lon="14.1338336"><ele>418.0</ele><time>2026-05-01T14:01:59.003Z</time></trkpt><trkpt lat="42.2440594" lon="14.1337438"><ele>417.5</ele><time>2026-05-01T14:02:01.003Z</time></trkpt><trkpt lat="42.2440265" lon="14.1336603"><ele>417.0</ele><time>2026-05-01T14:02:03.003Z</time></trkpt><trkpt lat="42.2439594" lon="14.1335144"><ele>416.49999999999994</ele><time>2026-05-01T14:22:17.004Z</time></trkpt><trkpt lat="42.2439756" lon="14.133422"><ele>416.0</ele><time>2026-05-01T14:22:24.004Z</time></trkpt><trkpt lat="42.2439904" lon="14.1333313"><ele>415.99999999999994</ele><time>2026-05-01T14:22:27.004Z</time></trkpt><trkpt lat="42.2440035" lon="14.1332367"><ele>416.0</ele><time>2026-05-01T14:22:30.004Z</time></trkpt><trkpt lat="42.2440232" lon="14.1331366"><ele>416.0</ele><time>2026-05-01T14:22:33.004Z</time></trkpt><trkpt lat="42.2440467" lon="14.1330166"><ele>416.0</ele><time>2026-05-01T14:22:35.004Z</time></trkpt><trkpt lat="42.2440863" lon="14.132927"><ele>415.99999999999994</ele><time>2026-05-01T14:22:37.004Z</time></trkpt><trkpt lat="42.244121" lon="14.132856"><ele>416.0</ele><time>2026-05-01T14:22:39.004Z</time></trkpt><trkpt lat="42.2441574" lon="14.1327705"><ele>418.3333333333333</ele><time>2026-05-01T14:22:41.004Z</time></trkpt><trkpt lat="42.2441916" lon="14.1326761"><ele>420.66666666666663</ele><time>2026-05-01T14:22:43.004Z</time></trkpt><trkpt lat="42.2442378" lon="14.1325785"><ele>423.0</ele><time>2026-05-01T14:22:46.004Z</time></trkpt><trkpt lat="42.2443079" lon="14.1325806"><ele>425.33333333333337</ele><time>2026-05-01T14:22:49.004Z</time></trkpt><trkpt lat="42.2443816" lon="14.1326256"><ele>427.6666666666667</ele><time>2026-05-01T14:22:52.004Z</time></trkpt><trkpt lat="42.2444681" lon="14.1326055"><ele>430.0</ele><time>2026-05-01T14:22:55.004Z</time></trkpt><trkpt lat="42.244526" lon="14.1325646"><ele>430.0</ele><time>2026-05-01T14:22:57.004Z</time></trkpt><trkpt lat="42.2446004" lon="14.1325582"><ele>430.0</ele><time>2026-05-01T14:22:59.004Z</time></trkpt><trkpt lat="42.2446849" lon="14.1325642"><ele>430.0</ele><time>2026-05-01T14:23:01.004Z</time></trkpt><trkpt lat="42.2447573" lon="14.1325532"><ele>430.0</ele><time>2026-05-01T14:23:03.004Z</time></trkpt><trkpt lat="42.2448245" lon="14.132538"><ele>430.0</ele><time>2026-05-01T14:23:06.004Z</time></trkpt><trkpt lat="42.2448766" lon="14.132608"><ele>430.0</ele><time>2026-05-01T14:23:27.004Z</time></trkpt><trkpt lat="42.2449511" lon="14.1326129"><ele>430.0</ele><time>2026-05-01T14:23:31.004Z</time></trkpt><trkpt lat="42.2450534" lon="14.1325968"><ele>428.2</ele><time>2026-05-01T14:23:43.004Z</time></trkpt><trkpt lat="42.2451467" lon="14.1325555"><ele>426.4</ele><time>2026-05-01T14:23:45.004Z</time></trkpt><trkpt lat="42.2452632" lon="14.1325663"><ele>424.6</ele><time>2026-05-01T14:24:13.004Z</time></trkpt><trkpt lat="42.2453499" lon="14.1326791"><ele>422.8</ele><time>2026-05-01T14:24:15.004Z</time></trkpt><trkpt lat="42.2453855" lon="14.1327512"><ele>421.0</ele><time>2026-05-01T14:24:16.004Z</time></trkpt><trkpt lat="42.2454394" lon="14.1328878"><ele>421.00000000000006</ele><time>2026-05-01T14:24:18.004Z</time></trkpt><trkpt lat="42.2455229" lon="14.1330009"><ele>421.0</ele><time>2026-05-01T14:24:20.004Z</time></trkpt><trkpt lat="42.2455796" lon="14.1330387"><ele>421.0</ele><time>2026-05-01T14:24:21.004Z</time></trkpt><trkpt lat="42.245649" lon="14.1330528"><ele>421.0</ele><time>2026-05-01T14:24:22.004Z</time></trkpt><trkpt lat="42.2457233" lon="14.1330625"><ele>421.00000000000006</ele><time>2026-05-01T14:24:23.004Z</time></trkpt><trkpt lat="42.245803" lon="14.1330574"><ele>421.0</ele><time>2026-05-01T14:24:24.004Z</time></trkpt><trkpt lat="42.2458758" lon="14.13307"><ele>418.50000000000006</ele><time>2026-05-01T14:24:25.004Z</time></trkpt><trkpt lat="42.2459444" lon="14.1330952"><ele>416.0</ele><time>2026-05-01T14:24:26.004Z</time></trkpt><trkpt lat="42.2460148" lon="14.1331201"><ele>413.5</ele><time>2026-05-01T14:24:27.004Z</time></trkpt><trkpt lat="42.2460931" lon="14.133135"><ele>411.0</ele><time>2026-05-01T14:24:28.004Z</time></trkpt><trkpt lat="42.2461684" lon="14.1331365"><ele>408.50000000000006</ele><time>2026-05-01T14:24:29.004Z</time></trkpt><trkpt lat="42.2462393" lon="14.1331175"><ele>406.0</ele><time>2026-05-01T14:24:31.004Z</time></trkpt><trkpt lat="42.2463221" lon="14.1331026"><ele>406.00000000000006</ele><time>2026-05-01T14:25:45.004Z</time></trkpt><trkpt lat="42.2463874" lon="14.1330851"><ele>406.0</ele><time>2026-05-01T14:25:46.004Z</time></trkpt><trkpt lat="42.2464509" lon="14.1330311"><ele>406.0</ele><time>2026-05-01T14:25:47.004Z</time></trkpt><trkpt lat="42.2465016" lon="14.1329525"><ele>406.0</ele><time>2026-05-01T14:25:48.004Z</time></trkpt><trkpt lat="42.2465401" lon="14.132844"><ele>406.00000000000006</ele><time>2026-05-01T14:25:49.004Z</time></trkpt><trkpt lat="42.2465758" lon="14.132718"><ele>406.0</ele><time>2026-05-01T14:25:50.004Z</time></trkpt><trkpt lat="42.2466087" lon="14.1325884"><ele>405.00000000000006</ele><time>2026-05-01T14:25:51.004Z</time></trkpt><trkpt lat="42.2466559" lon="14.1324777"><ele>404.0</ele><time>2026-05-01T14:25:52.004Z</time></trkpt><trkpt lat="42.2467156" lon="14.1324003"><ele>403.0</ele><time>2026-05-01T14:25:53.004Z</time></trkpt><trkpt lat="42.2467798" lon="14.1323792"><ele>402.0</ele><time>2026-05-01T14:25:54.004Z</time></trkpt><trkpt lat="42.2468597" lon="14.132398"><ele>401.00000000000006</ele><time>2026-05-01T14:25:55.004Z</time></trkpt><trkpt lat="42.2469212" lon="14.1324642"><ele>400.0</ele><time>2026-05-01T14:25:56.004Z</time></trkpt><trkpt lat="42.2469386" lon="14.132572"><ele>399.50000000000006</ele><time>2026-05-01T14:25:57.004Z</time></trkpt><trkpt lat="42.2469382" lon="14.1326917"><ele>399.0</ele><time>2026-05-01T14:25:58.004Z</time></trkpt><trkpt lat="42.2469269" lon="14.1328144"><ele>398.5</ele><time>2026-05-01T14:25:59.004Z</time></trkpt><trkpt lat="42.2469073" lon="14.1329413"><ele>398.0</ele><time>2026-05-01T14:26:00.004Z</time></trkpt><trkpt lat="42.2468915" lon="14.1330506"><ele>397.50000000000006</ele><time>2026-05-01T14:26:01.004Z</time></trkpt><trkpt lat="42.2468741" lon="14.1331637"><ele>397.0</ele><time>2026-05-01T14:26:03.004Z</time></trkpt><trkpt lat="42.246952" lon="14.1332076"><ele>395.40000000000003</ele><time>2026-05-01T14:26:05.004Z</time></trkpt><trkpt lat="42.2470242" lon="14.1332267"><ele>393.8</ele><time>2026-05-01T14:26:06.004Z</time></trkpt><trkpt lat="42.2471195" lon="14.1332438"><ele>392.2</ele><time>2026-05-01T14:26:07.004Z</time></trkpt><trkpt lat="42.2472184" lon="14.1332713"><ele>390.6</ele><time>2026-05-01T14:26:08.004Z</time></trkpt><trkpt lat="42.2473086" lon="14.1333179"><ele>389.0</ele><time>2026-05-01T14:26:09.004Z</time></trkpt><trkpt lat="42.247394" lon="14.13337"><ele>387.6</ele><time>2026-05-01T14:26:10.004Z</time></trkpt><trkpt lat="42.2474824" lon="14.1334212"><ele>386.2</ele><time>2026-05-01T14:26:11.004Z</time></trkpt><trkpt lat="42.247569" lon="14.13348"><ele>384.8</ele><time>2026-05-01T14:26:12.004Z</time></trkpt><trkpt lat="42.2476495" lon="14.1335397"><ele>383.40000000000003</ele><time>2026-05-01T14:26:13.004Z</time></trkpt><trkpt lat="42.2477319" lon="14.1336012"><ele>382.0</ele><time>2026-05-01T14:26:14.004Z</time></trkpt><trkpt lat="42.247816" lon="14.133663"><ele>382.0</ele><time>2026-05-01T14:26:15.004Z</time></trkpt><trkpt lat="42.2478971" lon="14.1337279"><ele>382.0</ele><time>2026-05-01T14:26:16.004Z</time></trkpt><trkpt lat="42.2479844" lon="14.1337902"><ele>382.0</ele><time>2026-05-01T14:26:17.004Z</time></trkpt><trkpt lat="42.2480627" lon="14.133861"><ele>382.0</ele><time>2026-05-01T14:26:18.004Z</time></trkpt><trkpt lat="42.2481388" lon="14.1339287"><ele>382.0</ele><time>2026-05-01T14:26:19.004Z</time></trkpt><trkpt lat="42.2482127" lon="14.1339953"><ele>380.3333333333333</ele><time>2026-05-01T14:26:20.004Z</time></trkpt><trkpt lat="42.2482908" lon="14.1340536"><ele>378.66666666666663</ele><time>2026-05-01T14:26:21.004Z</time></trkpt><trkpt lat="42.2483727" lon="14.1340832"><ele>377.0</ele><time>2026-05-01T14:26:22.004Z</time></trkpt><trkpt lat="42.2484406" lon="14.1341047"><ele>375.3333333333333</ele><time>2026-05-01T14:26:23.004Z</time></trkpt><trkpt lat="42.248502" lon="14.1341392"><ele>373.6666666666667</ele><time>2026-05-01T14:26:24.004Z</time></trkpt><trkpt lat="42.2485608" lon="14.1341915"><ele>372.0</ele><time>2026-05-01T14:26:25.004Z</time></trkpt><trkpt lat="42.2486225" lon="14.1342897"><ele>371.5</ele><time>2026-05-01T14:26:26.004Z</time></trkpt><trkpt lat="42.2486792" lon="14.1344041"><ele>371.0</ele><time>2026-05-01T14:26:27.004Z</time></trkpt><trkpt lat="42.2487446" lon="14.1345284"><ele>370.5</ele><time>2026-05-01T14:26:28.004Z</time></trkpt><trkpt lat="42.2488047" lon="14.1346684"><ele>370.0</ele><time>2026-05-01T14:26:29.004Z</time></trkpt><trkpt lat="42.2488529" lon="14.1348096"><ele>367.66666666666663</ele><time>2026-05-01T14:26:30.004Z</time></trkpt><trkpt lat="42.2488867" lon="14.1349331"><ele>365.3333333333333</ele><time>2026-05-01T14:26:31.004Z</time></trkpt><trkpt lat="42.2489077" lon="14.1350279"><ele>363.0</ele><time>2026-05-01T14:26:32.004Z</time></trkpt><trkpt lat="42.2489191" lon="14.1351168"><ele>360.6666666666667</ele><time>2026-05-01T14:26:33.004Z</time></trkpt><trkpt lat="42.2489137" lon="14.1352249"><ele>358.33333333333337</ele><time>2026-05-01T14:26:34.004Z</time></trkpt><trkpt lat="42.2489143" lon="14.1353569"><ele>356.0</ele><time>2026-05-01T14:26:35.004Z</time></trkpt><trkpt lat="42.2489204" lon="14.1355091"><ele>356.0</ele><time>2026-05-01T14:26:36.004Z</time></trkpt><trkpt lat="42.2489275" lon="14.1356615"><ele>356.0</ele><time>2026-05-01T14:26:37.004Z</time></trkpt><trkpt lat="42.2489317" lon="14.1358179"><ele>356.0</ele><time>2026-05-01T14:26:38.004Z</time></trkpt><trkpt lat="42.2489405" lon="14.1359759"><ele>356.0</ele><time>2026-05-01T14:26:39.004Z</time></trkpt><trkpt lat="42.2489661" lon="14.1361229"><ele>355.1666666666667</ele><time>2026-05-01T14:26:40.004Z</time></trkpt><trkpt lat="42.2490154" lon="14.1362493"><ele>354.33333333333337</ele><time>2026-05-01T14:26:41.004Z</time></trkpt><trkpt lat="42.2490812" lon="14.1363353"><ele>353.5</ele><time>2026-05-01T14:26:42.004Z</time></trkpt><trkpt lat="42.2491486" lon="14.1363981"><ele>352.6666666666667</ele><time>2026-05-01T14:26:43.004Z</time></trkpt><trkpt lat="42.2492324" lon="14.1364437"><ele>351.8333333333333</ele><time>2026-05-01T14:26:45.004Z</time></trkpt><trkpt lat="42.2492872" lon="14.1364958"><ele>351.0</ele><time>2026-05-01T14:26:47.004Z</time></trkpt><trkpt lat="42.249345" lon="14.1365695"><ele>349.1666666666667</ele><time>2026-05-01T14:26:49.004Z</time></trkpt><trkpt lat="42.2493926" lon="14.1366355"><ele>347.3333333333333</ele><time>2026-05-01T14:26:51.004Z</time></trkpt><trkpt lat="42.2494607" lon="14.1367055"><ele>345.5</ele><time>2026-05-01T14:26:53.004Z</time></trkpt><trkpt lat="42.2495488" lon="14.136763"><ele>343.66666666666663</ele><time>2026-05-01T14:26:55.004Z</time></trkpt><trkpt lat="42.2496534" lon="14.1368361"><ele>341.8333333333333</ele><time>2026-05-01T14:26:57.004Z</time></trkpt><trkpt lat="42.2497158" lon="14.1368815"><ele>340.0</ele><time>2026-05-01T14:26:58.004Z</time></trkpt><trkpt lat="42.249786" lon="14.1369264"><ele>338.5</ele><time>2026-05-01T14:26:59.004Z</time></trkpt><trkpt lat="42.2498616" lon="14.136971"><ele>337.0</ele><time>2026-05-01T14:27:00.004Z</time></trkpt><trkpt lat="42.2499409" lon="14.1370155"><ele>335.5</ele><time>2026-05-01T14:27:01.004Z</time></trkpt><trkpt lat="42.2500124" lon="14.1370546"><ele>334.0</ele><time>2026-05-01T14:27:02.004Z</time></trkpt><trkpt lat="42.2500896" lon="14.1370984"><ele>332.5</ele><time>2026-05-01T14:27:03.004Z</time></trkpt><trkpt lat="42.2501694" lon="14.1371428"><ele>331.0</ele><time>2026-05-01T14:27:04.004Z</time></trkpt><trkpt lat="42.2502469" lon="14.137181"><ele>331.0</ele><time>2026-05-01T14:27:05.004Z</time></trkpt><trkpt lat="42.2503217" lon="14.1372181"><ele>331.0</ele><time>2026-05-01T14:27:06.004Z</time></trkpt><trkpt lat="42.2504021" lon="14.1372549"><ele>331.0</ele><time>2026-05-01T14:27:07.004Z</time></trkpt><trkpt lat="42.2504828" lon="14.1372974"><ele>331.0</ele><time>2026-05-01T14:27:08.004Z</time></trkpt><trkpt lat="42.2505671" lon="14.1373362"><ele>331.0</ele><time>2026-05-01T14:27:09.004Z</time></trkpt><trkpt lat="42.2506526" lon="14.1373804"><ele>331.0</ele><time>2026-05-01T14:27:10.004Z</time></trkpt><trkpt lat="42.2507341" lon="14.1374298"><ele>329.66666666666663</ele><time>2026-05-01T14:27:11.004Z</time></trkpt><trkpt lat="42.2508117" lon="14.137484"><ele>328.3333333333333</ele><time>2026-05-01T14:27:12.004Z</time></trkpt><trkpt lat="42.2508873" lon="14.1375379"><ele>327.0</ele><time>2026-05-01T14:27:13.004Z</time></trkpt><trkpt lat="42.2509588" lon="14.1375892"><ele>325.6666666666667</ele><time>2026-05-01T14:27:14.004Z</time></trkpt><trkpt lat="42.251028" lon="14.1376387"><ele>324.33333333333337</ele><time>2026-05-01T14:27:15.004Z</time></trkpt><trkpt lat="42.251106" lon="14.1376919"><ele>323.0</ele><time>2026-05-01T14:27:16.004Z</time></trkpt><trkpt lat="42.2511814" lon="14.1377444"><ele>323.0</ele><time>2026-05-01T14:27:17.004Z</time></trkpt><trkpt lat="42.2512503" lon="14.1377956"><ele>323.0</ele><time>2026-05-01T14:27:18.004Z</time></trkpt><trkpt lat="42.2513389" lon="14.1378703"><ele>323.0</ele><time>2026-05-01T14:27:20.004Z</time></trkpt><trkpt lat="42.2514079" lon="14.1378516"><ele>323.0</ele><time>2026-05-01T14:27:23.004Z</time></trkpt><trkpt lat="42.251498" lon="14.1378047"><ele>323.0</ele><time>2026-05-01T14:27:25.004Z</time></trkpt><trkpt lat="42.2516027" lon="14.1377951"><ele>321.4</ele><time>2026-05-01T14:27:27.004Z</time></trkpt><trkpt lat="42.2517056" lon="14.13776"><ele>319.79999999999995</ele><time>2026-05-01T14:27:29.004Z</time></trkpt><trkpt lat="42.2518151" lon="14.137733"><ele>318.2</ele><time>2026-05-01T14:27:31.004Z</time></trkpt><trkpt lat="42.2519219" lon="14.1377164"><ele>316.6</ele><time>2026-05-01T14:27:33.004Z</time></trkpt><trkpt lat="42.2519873" lon="14.1376828"><ele>315.0</ele><time>2026-05-01T14:27:35.004Z</time></trkpt><trkpt lat="42.2519952" lon="14.1375609"><ele>315.0</ele><time>2026-05-01T14:27:39.004Z</time></trkpt><trkpt lat="42.2519367" lon="14.1375087"><ele>315.0</ele><time>2026-05-01T14:27:40.004Z</time></trkpt><trkpt lat="42.2518717" lon="14.1374481"><ele>315.0</ele><time>2026-05-01T14:27:41.004Z</time></trkpt><trkpt lat="42.2518039" lon="14.1373707"><ele>315.0</ele><time>2026-05-01T14:27:42.004Z</time></trkpt><trkpt lat="42.2517418" lon="14.1372766"><ele>315.0</ele><time>2026-05-01T14:27:43.004Z</time></trkpt><trkpt lat="42.2516798" lon="14.1371538"><ele>315.0</ele><time>2026-05-01T14:27:44.004Z</time></trkpt><trkpt lat="42.2516291" lon="14.1370129"><ele>315.2</ele><time>2026-05-01T14:27:45.004Z</time></trkpt><trkpt lat="42.2515975" lon="14.1368823"><ele>315.4</ele><time>2026-05-01T14:27:46.004Z</time></trkpt><trkpt lat="42.2515809" lon="14.136771"><ele>315.6</ele><time>2026-05-01T14:27:47.004Z</time></trkpt><trkpt lat="42.2515976" lon="14.1366517"><ele>315.8</ele><time>2026-05-01T14:27:48.004Z</time></trkpt><trkpt lat="42.251652" lon="14.1365555"><ele>316.0</ele><time>2026-05-01T14:27:49.004Z</time></trkpt><trkpt lat="42.2517317" lon="14.1365146"><ele>316.0</ele><time>2026-05-01T14:27:50.004Z</time></trkpt><trkpt lat="42.2518372" lon="14.1364913"><ele>316.0</ele><time>2026-05-01T14:27:51.004Z</time></trkpt><trkpt lat="42.2519733" lon="14.1364717"><ele>316.0</ele><time>2026-05-01T14:27:52.004Z</time></trkpt><trkpt lat="42.2521167" lon="14.1364379"><ele>316.0</ele><time>2026-05-01T14:27:53.004Z</time></trkpt><trkpt lat="42.2522425" lon="14.1363934"><ele>313.5</ele><time>2026-05-01T14:27:54.004Z</time></trkpt><trkpt lat="42.2523599" lon="14.1363042"><ele>311.0</ele><time>2026-05-01T14:27:55.004Z</time></trkpt><trkpt lat="42.2524585" lon="14.1361687"><ele>308.5</ele><time>2026-05-01T14:27:56.004Z</time></trkpt><trkpt lat="42.2525513" lon="14.1360145"><ele>306.0</ele><time>2026-05-01T14:27:57.004Z</time></trkpt><trkpt lat="42.2526396" lon="14.1358499"><ele>306.3333333333333</ele><time>2026-05-01T14:27:58.004Z</time></trkpt><trkpt lat="42.2527338" lon="14.1356832"><ele>306.66666666666663</ele><time>2026-05-01T14:27:59.004Z</time></trkpt><trkpt lat="42.2528323" lon="14.1355296"><ele>307.0</ele><time>2026-05-01T14:28:00.004Z</time></trkpt><trkpt lat="42.2529367" lon="14.1353886"><ele>307.0</ele><time>2026-05-01T14:28:01.004Z</time></trkpt><trkpt lat="42.2530337" lon="14.1352536"><ele>307.0</ele><time>2026-05-01T14:28:02.004Z</time></trkpt><trkpt lat="42.2531256" lon="14.1351265"><ele>307.0</ele><time>2026-05-01T14:28:03.004Z</time></trkpt><trkpt lat="42.253214" lon="14.1350116"><ele>307.0</ele><time>2026-05-01T14:28:04.004Z</time></trkpt><trkpt lat="42.2533083" lon="14.1349548"><ele>304.5</ele><time>2026-05-01T14:28:05.004Z</time></trkpt><trkpt lat="42.2534065" lon="14.1349512"><ele>302.0</ele><time>2026-05-01T14:28:06.004Z</time></trkpt><trkpt lat="42.2535244" lon="14.134993"><ele>299.5</ele><time>2026-05-01T14:28:07.004Z</time></trkpt><trkpt lat="42.2536314" lon="14.1350583"><ele>297.0</ele><time>2026-05-01T14:28:08.004Z</time></trkpt><trkpt lat="42.2537378" lon="14.1351447"><ele>297.0</ele><time>2026-05-01T14:28:09.004Z</time></trkpt><trkpt lat="42.2538429" lon="14.1352425"><ele>297.0</ele><time>2026-05-01T14:28:10.004Z</time></trkpt><trkpt lat="42.2539462" lon="14.1353543"><ele>297.0</ele><time>2026-05-01T14:28:11.004Z</time></trkpt><trkpt lat="42.2540392" lon="14.1354775"><ele>297.0</ele><time>2026-05-01T14:28:12.004Z</time></trkpt><trkpt lat="42.2541226" lon="14.1355986"><ele>295.0</ele><time>2026-05-01T14:28:13.004Z</time></trkpt><trkpt lat="42.254199" lon="14.135719"><ele>293.0</ele><time>2026-05-01T14:28:14.004Z</time></trkpt><trkpt lat="42.2542482" lon="14.1358618"><ele>291.0</ele><time>2026-05-01T14:28:15.004Z</time></trkpt><trkpt lat="42.2542653" lon="14.1360227"><ele>289.0</ele><time>2026-05-01T14:28:16.004Z</time></trkpt><trkpt lat="42.2542863" lon="14.1361799"><ele>289.0</ele><time>2026-05-01T14:28:17.004Z</time></trkpt><trkpt lat="42.2543241" lon="14.1363188"><ele>289.0</ele><time>2026-05-01T14:28:18.004Z</time></trkpt><trkpt lat="42.2543826" lon="14.13644"><ele>289.0</ele><time>2026-05-01T14:28:19.004Z</time></trkpt><trkpt lat="42.2544695" lon="14.1365249"><ele>289.0</ele><time>2026-05-01T14:28:20.004Z</time></trkpt><trkpt lat="42.2545798" lon="14.136568"><ele>289.0</ele><time>2026-05-01T14:28:21.004Z</time></trkpt><trkpt lat="42.254715" lon="14.1365921"><ele>288.0</ele><time>2026-05-01T14:28:22.004Z</time></trkpt><trkpt lat="42.2548535" lon="14.1365886"><ele>287.0</ele><time>2026-05-01T14:28:23.004Z</time></trkpt><trkpt lat="42.2549951" lon="14.1365907"><ele>286.0</ele><time>2026-05-01T14:28:24.004Z</time></trkpt><trkpt lat="42.2551382" lon="14.1365957"><ele>285.0</ele><time>2026-05-01T14:28:25.004Z</time></trkpt><trkpt lat="42.2552753" lon="14.1366066"><ele>285.0</ele><time>2026-05-01T14:28:26.004Z</time></trkpt><trkpt lat="42.2554057" lon="14.1366173"><ele>285.0</ele><time>2026-05-01T14:28:27.004Z</time></trkpt><trkpt lat="42.2555338" lon="14.1366241"><ele>285.0</ele><time>2026-05-01T14:28:28.004Z</time></trkpt><trkpt lat="42.255663" lon="14.1366301"><ele>285.0</ele><time>2026-05-01T14:28:29.004Z</time></trkpt><trkpt lat="42.2557984" lon="14.1366451"><ele>284.0</ele><time>2026-05-01T14:28:30.004Z</time></trkpt><trkpt lat="42.2559331" lon="14.1366755"><ele>283.0</ele><time>2026-05-01T14:28:31.004Z</time></trkpt><trkpt lat="42.2560617" lon="14.1367352"><ele>282.0</ele><time>2026-05-01T14:28:32.004Z</time></trkpt><trkpt lat="42.2561761" lon="14.1368092"><ele>281.0</ele><time>2026-05-01T14:28:33.004Z</time></trkpt><trkpt lat="42.2562903" lon="14.1368705"><ele>281.0</ele><time>2026-05-01T14:28:34.004Z</time></trkpt><trkpt lat="42.256407" lon="14.1368688"><ele>281.0</ele><time>2026-05-01T14:28:35.004Z</time></trkpt><trkpt lat="42.2565208" lon="14.1368195"><ele>281.0</ele><time>2026-05-01T14:28:36.004Z</time></trkpt><trkpt lat="42.2566025" lon="14.136733"><ele>281.0</ele><time>2026-05-01T14:28:37.004Z</time></trkpt><trkpt lat="42.2566553" lon="14.1365761"><ele>278.5</ele><time>2026-05-01T14:28:38.004Z</time></trkpt><trkpt lat="42.2566811" lon="14.1364073"><ele>276.0</ele><time>2026-05-01T14:28:39.004Z</time></trkpt><trkpt lat="42.2566973" lon="14.136221"><ele>273.5</ele><time>2026-05-01T14:28:40.004Z</time></trkpt><trkpt lat="42.2567149" lon="14.136022"><ele>271.0</ele><time>2026-05-01T14:28:41.004Z</time></trkpt><trkpt lat="42.2567369" lon="14.1358275"><ele>271.0</ele><time>2026-05-01T14:28:42.004Z</time></trkpt><trkpt lat="42.2567595" lon="14.1356371"><ele>271.0</ele><time>2026-05-01T14:28:43.004Z</time></trkpt><trkpt lat="42.2567776" lon="14.1354466"><ele>271.0</ele><time>2026-05-01T14:28:44.004Z</time></trkpt><trkpt lat="42.2567944" lon="14.1352889"><ele>271.0</ele><time>2026-05-01T14:28:45.004Z</time></trkpt><trkpt lat="42.2568069" lon="14.1351567"><ele>271.0</ele><time>2026-05-01T14:28:46.004Z</time></trkpt><trkpt lat="42.2568152" lon="14.1350419"><ele>271.0</ele><time>2026-05-01T14:28:47.004Z</time></trkpt><trkpt lat="42.2568448" lon="14.1349203"><ele>271.0</ele><time>2026-05-01T14:28:49.004Z</time></trkpt><trkpt lat="42.2569051" lon="14.134889"><ele>271.0</ele><time>2026-05-01T14:28:51.004Z</time></trkpt><trkpt lat="42.2570229" lon="14.1349155"><ele>271.0</ele><time>2026-05-01T14:28:53.004Z</time></trkpt><trkpt lat="42.2571018" lon="14.1349053"><ele>271.0</ele><time>2026-05-01T14:28:54.004Z</time></trkpt><trkpt lat="42.2571844" lon="14.1348839"><ele>271.2</ele><time>2026-05-01T14:28:55.004Z</time></trkpt><trkpt lat="42.2572624" lon="14.1348625"><ele>271.40000000000003</ele><time>2026-05-01T14:28:56.004Z</time></trkpt><trkpt lat="42.2573472" lon="14.1348574"><ele>271.6</ele><time>2026-05-01T14:28:57.004Z</time></trkpt><trkpt lat="42.2574374" lon="14.1348717"><ele>271.8</ele><time>2026-05-01T14:28:58.004Z</time></trkpt><trkpt lat="42.2575389" lon="14.1348984"><ele>272.0</ele><time>2026-05-01T14:28:59.004Z</time></trkpt><trkpt lat="42.2576465" lon="14.1349254"><ele>272.0</ele><time>2026-05-01T14:29:00.004Z</time></trkpt><trkpt lat="42.257773" lon="14.1349474"><ele>272.0</ele><time>2026-05-01T14:29:01.004Z</time></trkpt><trkpt lat="42.2578835" lon="14.1349704"><ele>272.0</ele><time>2026-05-01T14:29:02.004Z</time></trkpt><trkpt lat="42.2579901" lon="14.1349827"><ele>272.0</ele><time>2026-05-01T14:29:03.004Z</time></trkpt><trkpt lat="42.2580949" lon="14.1349896"><ele>272.8</ele><time>2026-05-01T14:29:04.004Z</time></trkpt><trkpt lat="42.258195" lon="14.1349923"><ele>273.6</ele><time>2026-05-01T14:29:05.004Z</time></trkpt><trkpt lat="42.2582871" lon="14.1349948"><ele>274.40000000000003</ele><time>2026-05-01T14:29:06.004Z</time></trkpt><trkpt lat="42.2583762" lon="14.1350124"><ele>275.2</ele><time>2026-05-01T14:29:07.004Z</time></trkpt><trkpt lat="42.2584593" lon="14.1350374"><ele>276.0</ele><time>2026-05-01T14:29:08.004Z</time></trkpt><trkpt lat="42.2585416" lon="14.1350831"><ele>276.0</ele><time>2026-05-01T14:29:09.004Z</time></trkpt><trkpt lat="42.2586295" lon="14.1351371"><ele>276.0</ele><time>2026-05-01T14:29:10.004Z</time></trkpt><trkpt lat="42.25872" lon="14.1351919"><ele>276.0</ele><time>2026-05-01T14:29:11.005Z</time></trkpt><trkpt lat="42.258817" lon="14.1352288"><ele>276.0</ele><time>2026-05-01T14:29:12.004Z</time></trkpt><trkpt lat="42.2589154" lon="14.13524"><ele>276.0</ele><time>2026-05-01T14:29:13.004Z</time></trkpt><trkpt lat="42.2590124" lon="14.1352492"><ele>277.40000000000003</ele><time>2026-05-01T14:29:14.004Z</time></trkpt><trkpt lat="42.2591011" lon="14.1352647"><ele>278.8</ele><time>2026-05-01T14:29:15.004Z</time></trkpt><trkpt lat="42.2591806" lon="14.1352713"><ele>280.20000000000005</ele><time>2026-05-01T14:29:16.004Z</time></trkpt><trkpt lat="42.2592499" lon="14.1352677"><ele>281.6</ele><time>2026-05-01T14:29:17.004Z</time></trkpt><trkpt lat="42.2593556" lon="14.1352765"><ele>283.0</ele><time>2026-05-01T14:29:19.004Z</time></trkpt><trkpt lat="42.2594821" lon="14.1353202"><ele>283.0</ele><time>2026-05-01T14:29:21.004Z</time></trkpt><trkpt lat="42.2595705" lon="14.1353257"><ele>283.0</ele><time>2026-05-01T14:29:23.004Z</time></trkpt><trkpt lat="42.2596368" lon="14.1352522"><ele>283.0</ele><time>2026-05-01T14:29:25.004Z</time></trkpt><trkpt lat="42.2597136" lon="14.1352338"><ele>283.0</ele><time>2026-05-01T14:29:27.004Z</time></trkpt><trkpt lat="42.2598181" lon="14.1352872"><ele>283.0</ele><time>2026-05-01T14:29:29.004Z</time></trkpt><trkpt lat="42.2598874" lon="14.1353087"><ele>283.0</ele><time>2026-05-01T14:29:30.004Z</time></trkpt><trkpt lat="42.259959" lon="14.1353263"><ele>282.8</ele><time>2026-05-01T14:29:31.004Z</time></trkpt><trkpt lat="42.2600287" lon="14.1353433"><ele>282.6</ele><time>2026-05-01T14:29:32.004Z</time></trkpt><trkpt lat="42.2600942" lon="14.1353521"><ele>282.4</ele><time>2026-05-01T14:29:33.004Z</time></trkpt><trkpt lat="42.2602098" lon="14.1353885"><ele>282.2</ele><time>2026-05-01T14:29:35.004Z</time></trkpt><trkpt lat="42.2603185" lon="14.1354272"><ele>282.0</ele><time>2026-05-01T14:29:37.004Z</time></trkpt><trkpt lat="42.2604253" lon="14.1354589"><ele>282.0</ele><time>2026-05-01T14:29:39.004Z</time></trkpt><trkpt lat="42.2605403" lon="14.1354871"><ele>282.0</ele><time>2026-05-01T14:29:41.004Z</time></trkpt><trkpt lat="42.2606562" lon="14.1355392"><ele>282.0</ele><time>2026-05-01T14:29:43.004Z</time></trkpt><trkpt lat="42.260718" lon="14.1355818"><ele>282.0</ele><time>2026-05-01T14:29:44.004Z</time></trkpt><trkpt lat="42.2607722" lon="14.1356258"><ele>282.0</ele><time>2026-05-01T14:29:45.004Z</time></trkpt><trkpt lat="42.2608288" lon="14.1356874"><ele>282.0</ele><time>2026-05-01T14:29:46.004Z</time></trkpt><trkpt lat="42.2608906" lon="14.1357552"><ele>279.6666666666667</ele><time>2026-05-01T14:29:47.004Z</time></trkpt><trkpt lat="42.2609508" lon="14.1358229"><ele>277.3333333333333</ele><time>2026-05-01T14:29:48.004Z</time></trkpt><trkpt lat="42.2610006" lon="14.1358899"><ele>275.0</ele><time>2026-05-01T14:29:49.004Z</time></trkpt><trkpt lat="42.2610515" lon="14.1359628"><ele>272.66666666666663</ele><time>2026-05-01T14:29:50.004Z</time></trkpt><trkpt lat="42.2611188" lon="14.1360558"><ele>270.3333333333333</ele><time>2026-05-01T14:29:51.004Z</time></trkpt><trkpt lat="42.2611861" lon="14.1361571"><ele>268.0</ele><time>2026-05-01T14:29:52.004Z</time></trkpt><trkpt lat="42.2612465" lon="14.1362558"><ele>268.0</ele><time>2026-05-01T14:29:53.004Z</time></trkpt><trkpt lat="42.2613041" lon="14.1363415"><ele>268.0</ele><time>2026-05-01T14:29:54.004Z</time></trkpt><trkpt lat="42.2613569" lon="14.1364125"><ele>268.0</ele><time>2026-05-01T14:29:55.004Z</time></trkpt><trkpt lat="42.2614092" lon="14.1364686"><ele>268.0</ele><time>2026-05-01T14:29:56.004Z</time></trkpt><trkpt lat="42.2614692" lon="14.1365151"><ele>268.0</ele><time>2026-05-01T14:29:57.004Z</time></trkpt><trkpt lat="42.2615339" lon="14.1365617"><ele>268.0</ele><time>2026-05-01T14:29:58.004Z</time></trkpt><trkpt lat="42.2615953" lon="14.1366142"><ele>268.0</ele><time>2026-05-01T14:29:59.004Z</time></trkpt><trkpt lat="42.2616624" lon="14.1367005"><ele>266.0</ele><time>2026-05-01T14:30:01.004Z</time></trkpt><trkpt lat="42.2617108" lon="14.1367787"><ele>264.0</ele><time>2026-05-01T14:30:03.004Z</time></trkpt><trkpt lat="42.2617635" lon="14.1368835"><ele>262.0</ele><time>2026-05-01T14:30:05.004Z</time></trkpt><trkpt lat="42.2618078" lon="14.1370238"><ele>260.0</ele><time>2026-05-01T14:30:07.004Z</time></trkpt><trkpt lat="42.2618183" lon="14.1371123"><ele>258.0</ele><time>2026-05-01T14:30:08.004Z</time></trkpt><trkpt lat="42.2618135" lon="14.1371986"><ele>256.0</ele><time>2026-05-01T14:30:09.004Z</time></trkpt><trkpt lat="42.2617786" lon="14.137344"><ele>257.2</ele><time>2026-05-01T14:30:11.004Z</time></trkpt><trkpt lat="42.2617407" lon="14.1374997"><ele>258.40000000000003</ele><time>2026-05-01T14:30:13.004Z</time></trkpt><trkpt lat="42.2617427" lon="14.1376292"><ele>259.6</ele><time>2026-05-01T14:30:15.004Z</time></trkpt><trkpt lat="42.2617828" lon="14.1376959"><ele>260.8</ele><time>2026-05-01T14:30:18.004Z</time></trkpt><trkpt lat="42.2617664" lon="14.1378102"><ele>262.0</ele><time>2026-05-01T14:30:21.004Z</time></trkpt><trkpt lat="42.2617075" lon="14.1379372"><ele>262.0</ele><time>2026-05-01T14:30:23.004Z</time></trkpt><trkpt lat="42.261671" lon="14.1380146"><ele>262.0</ele><time>2026-05-01T14:30:24.004Z</time></trkpt><trkpt lat="42.261635" lon="14.1380866"><ele>262.0</ele><time>2026-05-01T14:30:25.004Z</time></trkpt><trkpt lat="42.2615986" lon="14.1381617"><ele>262.0</ele><time>2026-05-01T14:30:26.004Z</time></trkpt><trkpt lat="42.2615664" lon="14.1382393"><ele>262.0</ele><time>2026-05-01T14:30:27.004Z</time></trkpt><trkpt lat="42.2614865" lon="14.1383768"><ele>262.0</ele><time>2026-05-01T14:30:29.004Z</time></trkpt><trkpt lat="42.2614397" lon="14.1384396"><ele>265.0</ele><time>2026-05-01T14:30:30.004Z</time></trkpt><trkpt lat="42.2613817" lon="14.1385039"><ele>268.0</ele><time>2026-05-01T14:30:31.004Z</time></trkpt><trkpt lat="42.2613273" lon="14.1385737"><ele>271.0</ele><time>2026-05-01T14:30:32.004Z</time></trkpt><trkpt lat="42.2612756" lon="14.1386602"><ele>274.0</ele><time>2026-05-01T14:30:33.004Z</time></trkpt><trkpt lat="42.2612231" lon="14.138762"><ele>277.0</ele><time>2026-05-01T14:30:34.004Z</time></trkpt><trkpt lat="42.2611792" lon="14.1388651"><ele>280.0</ele><time>2026-05-01T14:30:35.004Z</time></trkpt><trkpt lat="42.2611509" lon="14.1389442"><ele>280.0</ele><time>2026-05-01T14:30:36.004Z</time></trkpt><trkpt lat="42.2611534" lon="14.1390391"><ele>280.0</ele><time>2026-05-01T14:30:38.004Z</time></trkpt><trkpt lat="42.2611904" lon="14.1391196"><ele>280.0</ele><time>2026-05-01T14:30:40.004Z</time></trkpt><trkpt lat="42.2612268" lon="14.1392489"><ele>280.0</ele><time>2026-05-01T14:30:42.004Z</time></trkpt><trkpt lat="42.261283" lon="14.1394009"><ele>280.0</ele><time>2026-05-01T14:30:44.004Z</time></trkpt><trkpt lat="42.2613542" lon="14.1395289"><ele>280.4</ele><time>2026-05-01T14:30:46.004Z</time></trkpt><trkpt lat="42.2614073" lon="14.1395957"><ele>280.8</ele><time>2026-05-01T14:30:48.004Z</time></trkpt><trkpt lat="42.2614891" lon="14.139629"><ele>281.2</ele><time>2026-05-01T14:30:51.004Z</time></trkpt><trkpt lat="42.2615952" lon="14.1396182"><ele>281.6</ele><time>2026-05-01T14:30:53.004Z</time></trkpt><trkpt lat="42.261705" lon="14.1396483"><ele>282.0</ele><time>2026-05-01T14:30:55.004Z</time></trkpt><trkpt lat="42.2617808" lon="14.139688"><ele>278.5</ele><time>2026-05-01T14:30:56.004Z</time></trkpt><trkpt lat="42.2618535" lon="14.1397358"><ele>275.0</ele><time>2026-05-01T14:30:57.004Z</time></trkpt><trkpt lat="42.261922" lon="14.1397863"><ele>271.5</ele><time>2026-05-01T14:30:58.004Z</time></trkpt><trkpt lat="42.2619843" lon="14.1398411"><ele>268.0</ele><time>2026-05-01T14:30:59.004Z</time></trkpt><trkpt lat="42.262034" lon="14.1398947"><ele>264.5</ele><time>2026-05-01T14:31:00.004Z</time></trkpt><trkpt lat="42.2620915" lon="14.140029"><ele>261.0</ele><time>2026-05-01T14:31:02.004Z</time></trkpt><trkpt lat="42.2621483" lon="14.1401795"><ele>261.0</ele><time>2026-05-01T14:31:04.004Z</time></trkpt><trkpt lat="42.2621834" lon="14.1402624"><ele>261.0</ele><time>2026-05-01T14:31:05.004Z</time></trkpt><trkpt lat="42.2622042" lon="14.1403475"><ele>261.0</ele><time>2026-05-01T14:31:06.004Z</time></trkpt><trkpt lat="42.262224" lon="14.1404287"><ele>261.0</ele><time>2026-05-01T14:31:07.004Z</time></trkpt><trkpt lat="42.2622493" lon="14.1405095"><ele>261.0</ele><time>2026-05-01T14:31:08.004Z</time></trkpt><trkpt lat="42.2622753" lon="14.1405929"><ele>261.0</ele><time>2026-05-01T14:31:09.004Z</time></trkpt><trkpt lat="42.2622969" lon="14.1406822"><ele>261.0</ele><time>2026-05-01T14:31:10.004Z</time></trkpt><trkpt lat="42.2623175" lon="14.1407657"><ele>258.2857142857143</ele><time>2026-05-01T14:31:11.004Z</time></trkpt><trkpt lat="42.262336" lon="14.140857"><ele>255.57142857142856</ele><time>2026-05-01T14:31:12.004Z</time></trkpt><trkpt lat="42.2623496" lon="14.1409529"><ele>252.85714285714283</ele><time>2026-05-01T14:31:13.004Z</time></trkpt><trkpt lat="42.2623637" lon="14.1410507"><ele>250.14285714285714</ele><time>2026-05-01T14:31:14.004Z</time></trkpt><trkpt lat="42.2623879" lon="14.1411427"><ele>247.4285714285714</ele><time>2026-05-01T14:31:15.004Z</time></trkpt><trkpt lat="42.2624187" lon="14.1412243"><ele>244.7142857142857</ele><time>2026-05-01T14:31:16.004Z</time></trkpt><trkpt lat="42.2624703" lon="14.1413137"><ele>242.0</ele><time>2026-05-01T14:31:18.004Z</time></trkpt><trkpt lat="42.2625634" lon="14.1413514"><ele>242.0</ele><time>2026-05-01T14:31:21.004Z</time></trkpt><trkpt lat="42.2626814" lon="14.1413761"><ele>242.0</ele><time>2026-05-01T14:31:23.004Z</time></trkpt><trkpt lat="42.2627911" lon="14.1413904"><ele>242.0</ele><time>2026-05-01T14:31:25.004Z</time></trkpt><trkpt lat="42.2628666" lon="14.1413523"><ele>242.0</ele><time>2026-05-01T14:31:27.004Z</time></trkpt><trkpt lat="42.2629685" lon="14.1412739"><ele>242.0</ele><time>2026-05-01T14:31:29.004Z</time></trkpt><trkpt lat="42.2630359" lon="14.1412307"><ele>242.00000000000003</ele><time>2026-05-01T14:31:30.004Z</time></trkpt><trkpt lat="42.2631035" lon="14.1411968"><ele>242.0</ele><time>2026-05-01T14:31:31.004Z</time></trkpt><trkpt lat="42.2632254" lon="14.1411653"><ele>242.0</ele><time>2026-05-01T14:31:33.004Z</time></trkpt><trkpt lat="42.2632959" lon="14.1411775"><ele>242.0</ele><time>2026-05-01T14:31:34.004Z</time></trkpt><trkpt lat="42.2633739" lon="14.141188"><ele>242.00000000000003</ele><time>2026-05-01T14:31:35.004Z</time></trkpt><trkpt lat="42.2634541" lon="14.1411896"><ele>242.0</ele><time>2026-05-01T14:31:36.004Z</time></trkpt><trkpt lat="42.2635353" lon="14.1411921"><ele>239.14285714285714</ele><time>2026-05-01T14:31:37.004Z</time></trkpt><trkpt lat="42.2636152" lon="14.1411988"><ele>236.28571428571428</ele><time>2026-05-01T14:31:38.004Z</time></trkpt><trkpt lat="42.2636921" lon="14.1412043"><ele>233.42857142857142</ele><time>2026-05-01T14:31:39.004Z</time></trkpt><trkpt lat="42.2637602" lon="14.1412133"><ele>230.57142857142856</ele><time>2026-05-01T14:31:40.004Z</time></trkpt><trkpt lat="42.2638239" lon="14.1412271"><ele>227.71428571428572</ele><time>2026-05-01T14:31:41.004Z</time></trkpt><trkpt lat="42.2638947" lon="14.1412353"><ele>224.85714285714283</ele><time>2026-05-01T14:31:42.004Z</time></trkpt><trkpt lat="42.2639687" lon="14.1412412"><ele>222.0</ele><time>2026-05-01T14:31:43.004Z</time></trkpt><trkpt lat="42.2640383" lon="14.1412468"><ele>218.2</ele><time>2026-05-01T14:31:44.004Z</time></trkpt><trkpt lat="42.264156" lon="14.1412663"><ele>214.39999999999998</ele><time>2026-05-01T14:31:46.004Z</time></trkpt><trkpt lat="42.264238" lon="14.1412332"><ele>210.60000000000002</ele><time>2026-05-01T14:31:48.004Z</time></trkpt><trkpt lat="42.2642559" lon="14.1411182"><ele>206.8</ele><time>2026-05-01T14:31:50.004Z</time></trkpt><trkpt lat="42.2642795" lon="14.1409777"><ele>203.0</ele><time>2026-05-01T14:31:52.004Z</time></trkpt><trkpt lat="42.2643219" lon="14.140847"><ele>203.00000000000003</ele><time>2026-05-01T14:31:54.004Z</time></trkpt><trkpt lat="42.2643716" lon="14.1407688"><ele>203.0</ele><time>2026-05-01T14:31:56.004Z</time></trkpt><trkpt lat="42.2644575" lon="14.1407505"><ele>203.0</ele><time>2026-05-01T14:31:58.004Z</time></trkpt><trkpt lat="42.2645225" lon="14.1407399"><ele>203.0</ele><time>2026-05-01T14:31:59.004Z</time></trkpt><trkpt lat="42.264593" lon="14.1407233"><ele>203.00000000000003</ele><time>2026-05-01T14:32:00.004Z</time></trkpt><trkpt lat="42.2646661" lon="14.1407069"><ele>203.0</ele><time>2026-05-01T14:32:01.004Z</time></trkpt><trkpt lat="42.2647413" lon="14.1406944"><ele>199.66666666666669</ele><time>2026-05-01T14:32:02.004Z</time></trkpt><trkpt lat="42.2648222" lon="14.1406832"><ele>196.33333333333334</ele><time>2026-05-01T14:32:03.004Z</time></trkpt><trkpt lat="42.2649021" lon="14.1406726"><ele>193.0</ele><time>2026-05-01T14:32:04.004Z</time></trkpt><trkpt lat="42.2649826" lon="14.1406626"><ele>189.66666666666669</ele><time>2026-05-01T14:32:05.004Z</time></trkpt><trkpt lat="42.2650694" lon="14.1406627"><ele>186.33333333333334</ele><time>2026-05-01T14:32:06.004Z</time></trkpt><trkpt lat="42.2651615" lon="14.1406602"><ele>183.0</ele><time>2026-05-01T14:32:07.004Z</time></trkpt><trkpt lat="42.2652543" lon="14.1406614"><ele>183.0</ele><time>2026-05-01T14:32:08.004Z</time></trkpt><trkpt lat="42.2653525" lon="14.1406535"><ele>183.0</ele><time>2026-05-01T14:32:09.004Z</time></trkpt><trkpt lat="42.2654443" lon="14.1406372"><ele>183.0</ele><time>2026-05-01T14:32:10.004Z</time></trkpt><trkpt lat="42.2655293" lon="14.140622"><ele>183.0</ele><time>2026-05-01T14:32:11.004Z</time></trkpt><trkpt lat="42.2656018" lon="14.1406047"><ele>183.0</ele><time>2026-05-01T14:32:12.004Z</time></trkpt><trkpt lat="42.265697" lon="14.1406226"><ele>183.0</ele><time>2026-05-01T14:32:14.004Z</time></trkpt><trkpt lat="42.2657736" lon="14.1407108"><ele>182.0</ele><time>2026-05-01T14:32:16.004Z</time></trkpt><trkpt lat="42.2658423" lon="14.1408477"><ele>181.0</ele><time>2026-05-01T14:32:18.004Z</time></trkpt><trkpt lat="42.265894" lon="14.140942"><ele>180.0</ele><time>2026-05-01T14:32:20.004Z</time></trkpt><trkpt lat="42.265927" lon="14.1410287"><ele>179.0</ele><time>2026-05-01T14:32:22.004Z</time></trkpt><trkpt lat="42.2659649" lon="14.1411237"><ele>178.0</ele><time>2026-05-01T14:32:24.004Z</time></trkpt><trkpt lat="42.266004" lon="14.1412295"><ele>177.0</ele><time>2026-05-01T14:32:26.004Z</time></trkpt><trkpt lat="42.2660359" lon="14.1413256"><ele>177.0</ele><time>2026-05-01T14:32:28.004Z</time></trkpt><trkpt lat="42.2660797" lon="14.1414275"><ele>177.0</ele><time>2026-05-01T14:32:31.004Z</time></trkpt><trkpt lat="42.2661207" lon="14.1415215"><ele>177.0</ele><time>2026-05-01T14:32:33.005Z</time></trkpt><trkpt lat="42.2661612" lon="14.1416679"><ele>177.0</ele><time>2026-05-01T14:32:35.004Z</time></trkpt><trkpt lat="42.2661737" lon="14.1417916"><ele>177.0</ele><time>2026-05-01T14:32:37.004Z</time></trkpt><trkpt lat="42.2662547" lon="14.1418339"><ele>177.0</ele><time>2026-05-01T14:32:40.004Z</time></trkpt><trkpt lat="42.2663238" lon="14.1417589"><ele>177.0</ele><time>2026-05-01T14:32:42.004Z</time></trkpt><trkpt lat="42.2663937" lon="14.1415949"><ele>177.0</ele><time>2026-05-01T14:32:44.004Z</time></trkpt><trkpt lat="42.2664319" lon="14.1415027"><ele>177.0</ele><time>2026-05-01T14:32:45.005Z</time></trkpt><trkpt lat="42.2664952" lon="14.1414978"><ele>177.0</ele><time>2026-05-01T14:32:49.004Z</time></trkpt><trkpt lat="42.2664801" lon="14.1416184"><ele>176.83333333333334</ele><time>2026-05-01T14:32:51.004Z</time></trkpt><trkpt lat="42.2664616" lon="14.1417915"><ele>176.66666666666666</ele><time>2026-05-01T14:32:53.004Z</time></trkpt><trkpt lat="42.266456" lon="14.1418808"><ele>176.5</ele><time>2026-05-01T14:32:54.004Z</time></trkpt><trkpt lat="42.2664393" lon="14.1419788"><ele>176.33333333333331</ele><time>2026-05-01T14:32:55.004Z</time></trkpt><trkpt lat="42.2664118" lon="14.1420721"><ele>176.16666666666666</ele><time>2026-05-01T14:32:56.004Z</time></trkpt><trkpt lat="42.2663813" lon="14.1421572"><ele>176.0</ele><time>2026-05-01T14:32:57.004Z</time></trkpt><trkpt lat="42.266324" lon="14.1422956"><ele>176.8</ele><time>2026-05-01T14:32:59.004Z</time></trkpt><trkpt lat="42.2662665" lon="14.142429"><ele>177.60000000000002</ele><time>2026-05-01T14:33:01.004Z</time></trkpt><trkpt lat="42.2662445" lon="14.1425332"><ele>178.4</ele><time>2026-05-01T14:33:03.004Z</time></trkpt><trkpt lat="42.2662592" lon="14.1426856"><ele>179.2</ele><time>2026-05-01T14:33:05.004Z</time></trkpt><trkpt lat="42.266272" lon="14.1427766"><ele>180.0</ele><time>2026-05-01T14:33:06.004Z</time></trkpt><trkpt lat="42.2663088" lon="14.1429397"><ele>180.0</ele><time>2026-05-01T14:33:08.004Z</time></trkpt><trkpt lat="42.2663556" lon="14.1430969"><ele>180.0</ele><time>2026-05-01T14:33:10.004Z</time></trkpt><trkpt lat="42.266393" lon="14.1432495"><ele>180.0</ele><time>2026-05-01T14:33:12.004Z</time></trkpt><trkpt lat="42.2663836" lon="14.1434138"><ele>180.0</ele><time>2026-05-01T14:33:14.004Z</time></trkpt><trkpt lat="42.2663669" lon="14.1435093"><ele>180.0</ele><time>2026-05-01T14:33:15.004Z</time></trkpt><trkpt lat="42.2663463" lon="14.1435999"><ele>181.83333333333334</ele><time>2026-05-01T14:33:16.004Z</time></trkpt><trkpt lat="42.266336" lon="14.1436896"><ele>183.66666666666666</ele><time>2026-05-01T14:33:17.004Z</time></trkpt><trkpt lat="42.2663301" lon="14.1438583"><ele>185.5</ele><time>2026-05-01T14:33:19.004Z</time></trkpt><trkpt lat="42.2663359" lon="14.1439484"><ele>187.33333333333331</ele><time>2026-05-01T14:33:20.004Z</time></trkpt><trkpt lat="42.266346" lon="14.1440443"><ele>189.16666666666666</ele><time>2026-05-01T14:33:21.004Z</time></trkpt><trkpt lat="42.2663601" lon="14.1441412"><ele>191.0</ele><time>2026-05-01T14:33:22.004Z</time></trkpt><trkpt lat="42.2663774" lon="14.1442334"><ele>192.66666666666666</ele><time>2026-05-01T14:33:23.004Z</time></trkpt><trkpt lat="42.2663969" lon="14.144329"><ele>194.33333333333331</ele><time>2026-05-01T14:33:24.004Z</time></trkpt><trkpt lat="42.2664096" lon="14.1444268"><ele>196.0</ele><time>2026-05-01T14:33:25.004Z</time></trkpt><trkpt lat="42.2664088" lon="14.144529"><ele>197.66666666666666</ele><time>2026-05-01T14:33:26.004Z</time></trkpt><trkpt lat="42.2664027" lon="14.1446429"><ele>199.33333333333334</ele><time>2026-05-01T14:33:27.004Z</time></trkpt><trkpt lat="42.2663976" lon="14.1447554"><ele>201.0</ele><time>2026-05-01T14:33:28.004Z</time></trkpt><trkpt lat="42.2664079" lon="14.1448653"><ele>203.0</ele><time>2026-05-01T14:33:29.004Z</time></trkpt><trkpt lat="42.2664266" lon="14.1449729"><ele>205.0</ele><time>2026-05-01T14:33:30.004Z</time></trkpt><trkpt lat="42.2664511" lon="14.1450681"><ele>207.0</ele><time>2026-05-01T14:33:31.004Z</time></trkpt><trkpt lat="42.2664579" lon="14.1451601"><ele>209.0</ele><time>2026-05-01T14:33:32.004Z</time></trkpt><trkpt lat="42.2664465" lon="14.1452694"><ele>211.0</ele><time>2026-05-01T14:33:33.004Z</time></trkpt><trkpt lat="42.266425" lon="14.1453912"><ele>213.0</ele><time>2026-05-01T14:33:34.004Z</time></trkpt><trkpt lat="42.2664015" lon="14.145515"><ele>213.0</ele><time>2026-05-01T14:33:35.004Z</time></trkpt><trkpt lat="42.2663822" lon="14.1456383"><ele>213.0</ele><time>2026-05-01T14:33:36.004Z</time></trkpt><trkpt lat="42.2663847" lon="14.145762"><ele>213.0</ele><time>2026-05-01T14:33:37.004Z</time></trkpt><trkpt lat="42.2663855" lon="14.1459098"><ele>213.0</ele><time>2026-05-01T14:33:38.004Z</time></trkpt><trkpt lat="42.2663846" lon="14.1460625"><ele>213.0</ele><time>2026-05-01T14:33:39.004Z</time></trkpt><trkpt lat="42.2663826" lon="14.1461968"><ele>217.5</ele><time>2026-05-01T14:33:40.004Z</time></trkpt><trkpt lat="42.2663756" lon="14.1462925"><ele>222.0</ele><time>2026-05-01T14:33:41.004Z</time></trkpt><trkpt lat="42.2663513" lon="14.1463893"><ele>226.5</ele><time>2026-05-01T14:33:42.004Z</time></trkpt><trkpt lat="42.2663173" lon="14.1464776"><ele>231.0</ele><time>2026-05-01T14:33:43.004Z</time></trkpt><trkpt lat="42.2662718" lon="14.1465608"><ele>235.5</ele><time>2026-05-01T14:33:44.004Z</time></trkpt><trkpt lat="42.2662245" lon="14.1466445"><ele>240.0</ele><time>2026-05-01T14:33:45.004Z</time></trkpt><trkpt lat="42.2661847" lon="14.1467323"><ele>242.33333333333334</ele><time>2026-05-01T14:33:46.004Z</time></trkpt><trkpt lat="42.2661577" lon="14.1468092"><ele>244.66666666666669</ele><time>2026-05-01T14:33:47.004Z</time></trkpt><trkpt lat="42.2661569" lon="14.1468971"><ele>247.0</ele><time>2026-05-01T14:33:48.004Z</time></trkpt><trkpt lat="42.2661788" lon="14.1470042"><ele>249.33333333333334</ele><time>2026-05-01T14:33:49.004Z</time></trkpt><trkpt lat="42.2662104" lon="14.1471177"><ele>251.66666666666669</ele><time>2026-05-01T14:33:50.004Z</time></trkpt><trkpt lat="42.2662366" lon="14.1472463"><ele>254.0</ele><time>2026-05-01T14:33:51.004Z</time></trkpt><trkpt lat="42.2662549" lon="14.1473723"><ele>254.0</ele><time>2026-05-01T14:33:52.004Z</time></trkpt><trkpt lat="42.2662666" lon="14.1474971"><ele>253.99999999999997</ele><time>2026-05-01T14:33:53.004Z</time></trkpt><trkpt lat="42.266287" lon="14.1476297"><ele>253.99999999999997</ele><time>2026-05-01T14:33:54.004Z</time></trkpt><trkpt lat="42.2663059" lon="14.1477631"><ele>254.0</ele><time>2026-05-01T14:33:55.004Z</time></trkpt><trkpt lat="42.2663203" lon="14.1478993"><ele>254.0</ele><time>2026-05-01T14:33:56.004Z</time></trkpt><trkpt lat="42.2663369" lon="14.1480354"><ele>254.0</ele><time>2026-05-01T14:33:57.004Z</time></trkpt><trkpt lat="42.2663555" lon="14.148171"><ele>253.99999999999997</ele><time>2026-05-01T14:33:58.004Z</time></trkpt><trkpt lat="42.2663728" lon="14.1483071"><ele>253.99999999999997</ele><time>2026-05-01T14:33:59.004Z</time></trkpt><trkpt lat="42.2663825" lon="14.148451"><ele>254.0</ele><time>2026-05-01T14:34:00.004Z</time></trkpt><trkpt lat="42.2663925" lon="14.1485909"><ele>254.0</ele><time>2026-05-01T14:34:01.004Z</time></trkpt><trkpt lat="42.2664004" lon="14.1487321"><ele>254.33333333333334</ele><time>2026-05-01T14:34:02.004Z</time></trkpt><trkpt lat="42.2664085" lon="14.1488711"><ele>254.66666666666669</ele><time>2026-05-01T14:34:03.004Z</time></trkpt><trkpt lat="42.2664162" lon="14.1489965"><ele>255.0</ele><time>2026-05-01T14:34:04.004Z</time></trkpt><trkpt lat="42.2664212" lon="14.149125"><ele>255.33333333333331</ele><time>2026-05-01T14:34:05.004Z</time></trkpt><trkpt lat="42.2664233" lon="14.1492489"><ele>255.66666666666666</ele><time>2026-05-01T14:34:06.004Z</time></trkpt><trkpt lat="42.2664302" lon="14.1493348"><ele>256.0</ele><time>2026-05-01T14:34:07.004Z</time></trkpt><trkpt lat="42.2664997" lon="14.149291"><ele>262.8</ele><time>2026-05-01T14:34:13.004Z</time></trkpt><trkpt lat="42.2666224" lon="14.1492681"><ele>269.6</ele><time>2026-05-01T14:34:15.004Z</time></trkpt><trkpt lat="42.2667088" lon="14.1492934"><ele>276.4</ele><time>2026-05-01T14:34:16.004Z</time></trkpt><trkpt lat="42.266799" lon="14.1493139"><ele>283.2</ele><time>2026-05-01T14:34:17.004Z</time></trkpt><trkpt lat="42.2668822" lon="14.1493358"><ele>290.0</ele><time>2026-05-01T14:34:18.004Z</time></trkpt><trkpt lat="42.2669658" lon="14.1493585"><ele>290.0</ele><time>2026-05-01T14:34:19.004Z</time></trkpt><trkpt lat="42.2670491" lon="14.1493819"><ele>290.0</ele><time>2026-05-01T14:34:20.004Z</time></trkpt><trkpt lat="42.2671287" lon="14.1494079"><ele>290.0</ele><time>2026-05-01T14:34:21.004Z</time></trkpt><trkpt lat="42.2672103" lon="14.1494368"><ele>290.0</ele><time>2026-05-01T14:34:22.004Z</time></trkpt><trkpt lat="42.2672947" lon="14.1494692"><ele>290.0</ele><time>2026-05-01T14:34:23.004Z</time></trkpt><trkpt lat="42.2673847" lon="14.1494976"><ele>290.0</ele><time>2026-05-01T14:34:24.004Z</time></trkpt><trkpt lat="42.2674743" lon="14.1495218"><ele>288.1666666666667</ele><time>2026-05-01T14:34:25.004Z</time></trkpt><trkpt lat="42.2675657" lon="14.1495521"><ele>286.33333333333337</ele><time>2026-05-01T14:34:26.004Z</time></trkpt><trkpt lat="42.2676565" lon="14.1495798"><ele>284.5</ele><time>2026-05-01T14:34:27.004Z</time></trkpt><trkpt lat="42.2677437" lon="14.1496114"><ele>282.6666666666667</ele><time>2026-05-01T14:34:28.004Z</time></trkpt><trkpt lat="42.2678237" lon="14.1496506"><ele>280.8333333333333</ele><time>2026-05-01T14:34:29.004Z</time></trkpt><trkpt lat="42.2679034" lon="14.149697"><ele>279.0</ele><time>2026-05-01T14:34:30.004Z</time></trkpt><trkpt lat="42.2679861" lon="14.1497302"><ele>278.99999999999994</ele><time>2026-05-01T14:34:31.004Z</time></trkpt><trkpt lat="42.2680669" lon="14.1497555"><ele>279.0</ele><time>2026-05-01T14:34:32.004Z</time></trkpt><trkpt lat="42.2681454" lon="14.1497754"><ele>279.0</ele><time>2026-05-01T14:34:33.004Z</time></trkpt><trkpt lat="42.2682154" lon="14.1497928"><ele>279.0</ele><time>2026-05-01T14:34:34.004Z</time></trkpt><trkpt lat="42.2682867" lon="14.1498103"><ele>279.0</ele><time>2026-05-01T14:34:35.004Z</time></trkpt><trkpt lat="42.2683578" lon="14.1498259"><ele>278.99999999999994</ele><time>2026-05-01T14:34:36.004Z</time></trkpt><trkpt lat="42.2684265" lon="14.1498423"><ele>279.0</ele><time>2026-05-01T14:34:37.004Z</time></trkpt><trkpt lat="42.2684901" lon="14.1498564"><ele>278.85714285714283</ele><time>2026-05-01T14:34:38.004Z</time></trkpt><trkpt lat="42.2685543" lon="14.1498713"><ele>278.7142857142857</ele><time>2026-05-01T14:34:39.004Z</time></trkpt><trkpt lat="42.2686172" lon="14.1498964"><ele>278.57142857142856</ele><time>2026-05-01T14:34:40.004Z</time></trkpt><trkpt lat="42.2686783" lon="14.1499291"><ele>278.42857142857144</ele><time>2026-05-01T14:34:41.004Z</time></trkpt><trkpt lat="42.2687442" lon="14.1499439"><ele>278.2857142857143</ele><time>2026-05-01T14:34:42.004Z</time></trkpt><trkpt lat="42.2688111" lon="14.1499377"><ele>278.1428571428571</ele><time>2026-05-01T14:34:43.004Z</time></trkpt><trkpt lat="42.2688785" lon="14.1499287"><ele>278.0</ele><time>2026-05-01T14:34:44.004Z</time></trkpt><trkpt lat="42.2689475" lon="14.1499402"><ele>277.33333333333337</ele><time>2026-05-01T14:34:45.004Z</time></trkpt><trkpt lat="42.2690262" lon="14.1499679"><ele>276.6666666666667</ele><time>2026-05-01T14:34:46.004Z</time></trkpt><trkpt lat="42.2691072" lon="14.1500162"><ele>276.0</ele><time>2026-05-01T14:34:47.004Z</time></trkpt><trkpt lat="42.2691897" lon="14.1500469"><ele>275.3333333333333</ele><time>2026-05-01T14:34:48.004Z</time></trkpt><trkpt lat="42.2692637" lon="14.1500854"><ele>274.66666666666663</ele><time>2026-05-01T14:34:49.004Z</time></trkpt><trkpt lat="42.2693223" lon="14.1501276"><ele>274.0</ele><time>2026-05-01T14:34:50.004Z</time></trkpt><trkpt lat="42.2693945" lon="14.1501611"><ele>274.0</ele><time>2026-05-01T14:34:52.004Z</time></trkpt><trkpt lat="42.2694864" lon="14.1501056"><ele>274.0</ele><time>2026-05-01T14:34:55.004Z</time></trkpt><trkpt lat="42.2695798" lon="14.1500253"><ele>274.0</ele><time>2026-05-01T14:34:57.004Z</time></trkpt><trkpt lat="42.2696873" lon="14.149944"><ele>274.0</ele><time>2026-05-01T14:34:59.004Z</time></trkpt><trkpt lat="42.2697508" lon="14.149908"><ele>274.0</ele><time>2026-05-01T14:35:00.005Z</time></trkpt><trkpt lat="42.2698278" lon="14.1498732"><ele>274.8</ele><time>2026-05-01T14:35:01.004Z</time></trkpt><trkpt lat="42.2699002" lon="14.1498382"><ele>275.59999999999997</ele><time>2026-05-01T14:35:02.004Z</time></trkpt><trkpt lat="42.2699711" lon="14.149824"><ele>276.4</ele><time>2026-05-01T14:35:03.004Z</time></trkpt><trkpt lat="42.2700689" lon="14.1498099"><ele>277.2</ele><time>2026-05-01T14:35:05.004Z</time></trkpt><trkpt lat="42.2701565" lon="14.1498487"><ele>278.0</ele><time>2026-05-01T14:35:07.004Z</time></trkpt><trkpt lat="42.270239" lon="14.1499691"><ele>278.6</ele><time>2026-05-01T14:35:09.004Z</time></trkpt><trkpt lat="42.2702709" lon="14.1500761"><ele>279.20000000000005</ele><time>2026-05-01T14:35:10.004Z</time></trkpt><trkpt lat="42.2702902" lon="14.1502104"><ele>279.8</ele><time>2026-05-01T14:35:11.004Z</time></trkpt><trkpt lat="42.2703057" lon="14.1503667"><ele>280.40000000000003</ele><time>2026-05-01T14:35:12.004Z</time></trkpt><trkpt lat="42.2703179" lon="14.1505339"><ele>281.0</ele><time>2026-05-01T14:35:13.004Z</time></trkpt><trkpt lat="42.2703454" lon="14.1506863"><ele>281.25</ele><time>2026-05-01T14:35:14.004Z</time></trkpt><trkpt lat="42.2703859" lon="14.1508579"><ele>281.5</ele><time>2026-05-01T14:35:15.004Z</time></trkpt><trkpt lat="42.2704243" lon="14.1510322"><ele>281.75</ele><time>2026-05-01T14:35:16.004Z</time></trkpt><trkpt lat="42.2704513" lon="14.151187"><ele>282.0</ele><time>2026-05-01T14:35:17.004Z</time></trkpt><trkpt lat="42.2704684" lon="14.1513248"><ele>282.0</ele><time>2026-05-01T14:35:18.004Z</time></trkpt><trkpt lat="42.2704636" lon="14.1514529"><ele>282.0</ele><time>2026-05-01T14:35:19.004Z</time></trkpt><trkpt lat="42.2704471" lon="14.1515862"><ele>282.0</ele><time>2026-05-01T14:35:20.004Z</time></trkpt><trkpt lat="42.2704259" lon="14.1517442"><ele>282.0</ele><time>2026-05-01T14:35:21.004Z</time></trkpt><trkpt lat="42.2704109" lon="14.1519098"><ele>282.0</ele><time>2026-05-01T14:35:22.004Z</time></trkpt><trkpt lat="42.2704052" lon="14.152069"><ele>282.1666666666667</ele><time>2026-05-01T14:35:23.004Z</time></trkpt><trkpt lat="42.2703983" lon="14.1522095"><ele>282.3333333333333</ele><time>2026-05-01T14:35:24.004Z</time></trkpt><trkpt lat="42.2704039" lon="14.1523253"><ele>282.5</ele><time>2026-05-01T14:35:25.004Z</time></trkpt><trkpt lat="42.270412" lon="14.1524412"><ele>282.66666666666663</ele><time>2026-05-01T14:35:26.004Z</time></trkpt><trkpt lat="42.2704135" lon="14.1525428"><ele>282.8333333333333</ele><time>2026-05-01T14:35:27.004Z</time></trkpt><trkpt lat="42.2704077" lon="14.1526343"><ele>283.0</ele><time>2026-05-01T14:35:28.004Z</time></trkpt><trkpt lat="42.2703777" lon="14.1527126"><ele>283.0</ele><time>2026-05-01T14:35:29.004Z</time></trkpt><trkpt lat="42.2702872" lon="14.1528179"><ele>283.0</ele><time>2026-05-01T14:35:31.004Z</time></trkpt><trkpt lat="42.2701806" lon="14.1528562"><ele>283.0</ele><time>2026-05-01T14:35:33.004Z</time></trkpt><trkpt lat="42.2701534" lon="14.1529449"><ele>283.0</ele><time>2026-05-01T14:35:36.004Z</time></trkpt><trkpt lat="42.270263" lon="14.1529942"><ele>283.0</ele><time>2026-05-01T14:35:38.004Z</time></trkpt><trkpt lat="42.2703497" lon="14.1529903"><ele>283.0</ele><time>2026-05-01T14:35:39.004Z</time></trkpt><trkpt lat="42.2704537" lon="14.152959"><ele>283.0</ele><time>2026-05-01T14:35:40.004Z</time></trkpt><trkpt lat="42.270569" lon="14.1529176"><ele>283.0</ele><time>2026-05-01T14:35:41.004Z</time></trkpt><trkpt lat="42.2706903" lon="14.152849"><ele>283.0</ele><time>2026-05-01T14:35:42.004Z</time></trkpt><trkpt lat="42.2708162" lon="14.1527801"><ele>282.0</ele><time>2026-05-01T14:35:43.004Z</time></trkpt><trkpt lat="42.2709387" lon="14.1527112"><ele>281.0</ele><time>2026-05-01T14:35:44.004Z</time></trkpt><trkpt lat="42.2710616" lon="14.1526558"><ele>280.0</ele><time>2026-05-01T14:35:45.004Z</time></trkpt><trkpt lat="42.2711783" lon="14.1526034"><ele>279.0</ele><time>2026-05-01T14:35:46.004Z</time></trkpt><trkpt lat="42.2712985" lon="14.1525561"><ele>279.0</ele><time>2026-05-01T14:35:47.004Z</time></trkpt><trkpt lat="42.2714109" lon="14.152507"><ele>279.0</ele><time>2026-05-01T14:35:48.004Z</time></trkpt><trkpt lat="42.2715178" lon="14.1524599"><ele>279.0</ele><time>2026-05-01T14:35:49.004Z</time></trkpt><trkpt lat="42.2716168" lon="14.1524191"><ele>279.0</ele><time>2026-05-01T14:35:50.004Z</time></trkpt><trkpt lat="42.2717007" lon="14.1523915"><ele>279.0</ele><time>2026-05-01T14:35:51.004Z</time></trkpt><trkpt lat="42.2717974" lon="14.1523762"><ele>276.6666666666667</ele><time>2026-05-01T14:35:53.004Z</time></trkpt><trkpt lat="42.2718338" lon="14.1524472"><ele>274.3333333333333</ele><time>2026-05-01T14:35:55.004Z</time></trkpt><trkpt lat="42.2717921" lon="14.1525564"><ele>272.0</ele><time>2026-05-01T14:35:58.004Z</time></trkpt><trkpt lat="42.2717937" lon="14.1526562"><ele>269.66666666666663</ele><time>2026-05-01T14:36:00.004Z</time></trkpt><trkpt lat="42.2718682" lon="14.1527344"><ele>267.3333333333333</ele><time>2026-05-01T14:36:02.004Z</time></trkpt><trkpt lat="42.2719633" lon="14.1528267"><ele>265.0</ele><time>2026-05-01T14:36:04.004Z</time></trkpt><trkpt lat="42.2720416" lon="14.1529476"><ele>265.0</ele><time>2026-05-01T14:36:06.004Z</time></trkpt><trkpt lat="42.2721136" lon="14.153066"><ele>265.0</ele><time>2026-05-01T14:36:08.004Z</time></trkpt><trkpt lat="42.2721506" lon="14.1531417"><ele>265.0</ele><time>2026-05-01T14:36:09.004Z</time></trkpt><trkpt lat="42.2721853" lon="14.1532209"><ele>265.0</ele><time>2026-05-01T14:36:10.004Z</time></trkpt><trkpt lat="42.272265" lon="14.1533416"><ele>265.0</ele><time>2026-05-01T14:36:12.004Z</time></trkpt><trkpt lat="42.2723142" lon="14.1534063"><ele>265.0</ele><time>2026-05-01T14:36:13.004Z</time></trkpt><trkpt lat="42.2724068" lon="14.153522"><ele>260.4</ele><time>2026-05-01T14:36:15.004Z</time></trkpt><trkpt lat="42.2724889" lon="14.1536529"><ele>255.8</ele><time>2026-05-01T14:36:17.004Z</time></trkpt><trkpt lat="42.2725318" lon="14.1537224"><ele>251.2</ele><time>2026-05-01T14:36:18.004Z</time></trkpt><trkpt lat="42.2725915" lon="14.15385"><ele>246.6</ele><time>2026-05-01T14:36:20.004Z</time></trkpt><trkpt lat="42.2726728" lon="14.1539351"><ele>242.0</ele><time>2026-05-01T14:36:22.004Z</time></trkpt><trkpt lat="42.2727765" lon="14.1540095"><ele>239.39999999999998</ele><time>2026-05-01T14:36:24.004Z</time></trkpt><trkpt lat="42.2728599" lon="14.1541064"><ele>236.79999999999998</ele><time>2026-05-01T14:36:26.004Z</time></trkpt><trkpt lat="42.272981" lon="14.154183"><ele>234.2</ele><time>2026-05-01T14:36:28.004Z</time></trkpt><trkpt lat="42.2730443" lon="14.1542178"><ele>231.6</ele><time>2026-05-01T14:36:29.004Z</time></trkpt><trkpt lat="42.2731038" lon="14.1542569"><ele>229.0</ele><time>2026-05-01T14:36:30.004Z</time></trkpt><trkpt lat="42.2732006" lon="14.1543209"><ele>226.49999999999997</ele><time>2026-05-01T14:36:32.004Z</time></trkpt><trkpt lat="42.2732828" lon="14.154391"><ele>224.0</ele><time>2026-05-01T14:36:34.004Z</time></trkpt><trkpt lat="42.2733473" lon="14.1544869"><ele>221.5</ele><time>2026-05-01T14:36:36.004Z</time></trkpt><trkpt lat="42.2733857" lon="14.1545998"><ele>219.0</ele><time>2026-05-01T14:36:38.004Z</time></trkpt><trkpt lat="42.2734091" lon="14.1546988"><ele>216.49999999999997</ele><time>2026-05-01T14:36:40.004Z</time></trkpt><trkpt lat="42.2734274" lon="14.1547908"><ele>214.0</ele><time>2026-05-01T14:36:42.004Z</time></trkpt><trkpt lat="42.2734447" lon="14.1548948"><ele>211.49999999999997</ele><time>2026-05-01T14:36:44.004Z</time></trkpt><trkpt lat="42.2734765" lon="14.1549816"><ele>209.0</ele><time>2026-05-01T14:36:46.004Z</time></trkpt><trkpt lat="42.2735292" lon="14.1550629"><ele>206.5</ele><time>2026-05-01T14:36:48.004Z</time></trkpt><trkpt lat="42.2736052" lon="14.1551266"><ele>204.0</ele><time>2026-05-01T14:36:50.004Z</time></trkpt><trkpt lat="42.2736631" lon="14.1551686"><ele>201.49999999999997</ele><time>2026-05-01T14:36:51.004Z</time></trkpt><trkpt lat="42.2737227" lon="14.155201"><ele>199.0</ele><time>2026-05-01T14:36:52.004Z</time></trkpt><trkpt lat="42.2738213" lon="14.1552822"><ele>199.0</ele><time>2026-05-01T14:36:54.004Z</time></trkpt><trkpt lat="42.2738956" lon="14.1554061"><ele>199.0</ele><time>2026-05-01T14:36:56.004Z</time></trkpt><trkpt lat="42.273967" lon="14.1555374"><ele>199.0</ele><time>2026-05-01T14:36:58.004Z</time></trkpt><trkpt lat="42.2740552" lon="14.1556131"><ele>199.0</ele><time>2026-05-01T14:37:00.004Z</time></trkpt><trkpt lat="42.2741574" lon="14.1556631"><ele>196.83333333333331</ele><time>2026-05-01T14:37:02.004Z</time></trkpt><trkpt lat="42.274211" lon="14.1557594"><ele>194.66666666666666</ele><time>2026-05-01T14:37:04.004Z</time></trkpt><trkpt lat="42.2742361" lon="14.15584"><ele>192.5</ele><time>2026-05-01T14:37:05.004Z</time></trkpt><trkpt lat="42.2742497" lon="14.1559328"><ele>190.33333333333331</ele><time>2026-05-01T14:37:06.004Z</time></trkpt><trkpt lat="42.2742695" lon="14.1560173"><ele>188.16666666666666</ele><time>2026-05-01T14:37:07.004Z</time></trkpt><trkpt lat="42.2742914" lon="14.156101"><ele>186.0</ele><time>2026-05-01T14:37:08.004Z</time></trkpt><trkpt lat="42.2743403" lon="14.1562184"><ele>186.0</ele><time>2026-05-01T14:37:10.004Z</time></trkpt><trkpt lat="42.2743842" lon="14.1563043"><ele>186.0</ele><time>2026-05-01T14:37:12.004Z</time></trkpt><trkpt lat="42.2744103" lon="14.1564162"><ele>186.0</ele><time>2026-05-01T14:37:15.004Z</time></trkpt><trkpt lat="42.2744355" lon="14.1565071"><ele>186.0</ele><time>2026-05-01T14:37:17.004Z</time></trkpt><trkpt lat="42.2745019" lon="14.1565715"><ele>186.0</ele><time>2026-05-01T14:37:20.004Z</time></trkpt><trkpt lat="42.2745799" lon="14.1566367"><ele>186.0</ele><time>2026-05-01T14:37:23.004Z</time></trkpt><trkpt lat="42.2746643" lon="14.1566773"><ele>183.16666666666666</ele><time>2026-05-01T14:37:26.004Z</time></trkpt><trkpt lat="42.2747344" lon="14.1566673"><ele>180.33333333333334</ele><time>2026-05-01T14:37:28.004Z</time></trkpt><trkpt lat="42.2748173" lon="14.1566331"><ele>177.5</ele><time>2026-05-01T14:37:31.004Z</time></trkpt><trkpt lat="42.2748985" lon="14.1566164"><ele>174.66666666666669</ele><time>2026-05-01T14:37:34.004Z</time></trkpt><trkpt lat="42.2749757" lon="14.1566193"><ele>171.83333333333334</ele><time>2026-05-01T14:37:37.004Z</time></trkpt><trkpt lat="42.2750636" lon="14.1566017"><ele>169.0</ele><time>2026-05-01T14:37:40.004Z</time></trkpt><trkpt lat="42.2751457" lon="14.1565752"><ele>169.83333333333334</ele><time>2026-05-01T14:37:43.004Z</time></trkpt><trkpt lat="42.2752059" lon="14.1565411"><ele>170.66666666666669</ele><time>2026-05-01T14:37:45.004Z</time></trkpt><trkpt lat="42.2752806" lon="14.1564936"><ele>171.5</ele><time>2026-05-01T14:37:48.004Z</time></trkpt><trkpt lat="42.2753466" lon="14.1564343"><ele>172.33333333333334</ele><time>2026-05-01T14:37:52.004Z</time></trkpt><trkpt lat="42.2754434" lon="14.1564419"><ele>173.16666666666666</ele><time>2026-05-01T14:37:55.004Z</time></trkpt><trkpt lat="42.2755032" lon="14.1565377"><ele>174.0</ele><time>2026-05-01T14:37:57.004Z</time></trkpt><trkpt lat="42.2755314" lon="14.1566168"><ele>172.28571428571428</ele><time>2026-05-01T14:37:58.004Z</time></trkpt><trkpt lat="42.2755582" lon="14.1567087"><ele>170.57142857142858</ele><time>2026-05-01T14:37:59.004Z</time></trkpt><trkpt lat="42.2755897" lon="14.1567933"><ele>168.85714285714286</ele><time>2026-05-01T14:38:00.004Z</time></trkpt><trkpt lat="42.2756467" lon="14.1568472"><ele>167.14285714285714</ele><time>2026-05-01T14:38:02.004Z</time></trkpt><trkpt lat="42.2757285" lon="14.1567971"><ele>165.42857142857142</ele><time>2026-05-01T14:38:04.004Z</time></trkpt><trkpt lat="42.2757814" lon="14.156747"><ele>163.71428571428572</ele><time>2026-05-01T14:38:05.004Z</time></trkpt><trkpt lat="42.275837" lon="14.1566835"><ele>162.0</ele><time>2026-05-01T14:38:06.004Z</time></trkpt><trkpt lat="42.2758923" lon="14.156617"><ele>162.8</ele><time>2026-05-01T14:38:07.004Z</time></trkpt><trkpt lat="42.2759608" lon="14.1565438"><ele>163.6</ele><time>2026-05-01T14:38:08.004Z</time></trkpt><trkpt lat="42.2760454" lon="14.1564771"><ele>164.4</ele><time>2026-05-01T14:38:09.004Z</time></trkpt><trkpt lat="42.2761348" lon="14.1564211"><ele>165.20000000000002</ele><time>2026-05-01T14:38:10.004Z</time></trkpt><trkpt lat="42.2762265" lon="14.1563649"><ele>166.0</ele><time>2026-05-01T14:38:11.004Z</time></trkpt><trkpt lat="42.2763122" lon="14.1563081"><ele>166.0</ele><time>2026-05-01T14:38:12.004Z</time></trkpt><trkpt lat="42.2763938" lon="14.1562415"><ele>166.0</ele><time>2026-05-01T14:38:13.004Z</time></trkpt><trkpt lat="42.2764744" lon="14.1561726"><ele>166.0</ele><time>2026-05-01T14:38:14.004Z</time></trkpt><trkpt lat="42.276561" lon="14.1561229"><ele>166.0</ele><time>2026-05-01T14:38:15.004Z</time></trkpt><trkpt lat="42.2766506" lon="14.1560725"><ele>166.0</ele><time>2026-05-01T14:38:16.004Z</time></trkpt><trkpt lat="42.276743" lon="14.1560246"><ele>163.5</ele><time>2026-05-01T14:38:17.004Z</time></trkpt><trkpt lat="42.2768465" lon="14.1559747"><ele>161.0</ele><time>2026-05-01T14:38:18.004Z</time></trkpt><trkpt lat="42.2769564" lon="14.1559173"><ele>158.5</ele><time>2026-05-01T14:38:19.004Z</time></trkpt><trkpt lat="42.2770657" lon="14.1558541"><ele>156.0</ele><time>2026-05-01T14:38:20.004Z</time></trkpt><trkpt lat="42.2771668" lon="14.155798"><ele>156.0</ele><time>2026-05-01T14:38:21.004Z</time></trkpt><trkpt lat="42.2772479" lon="14.1557494"><ele>156.0</ele><time>2026-05-01T14:38:22.004Z</time></trkpt><trkpt lat="42.2773156" lon="14.1557284"><ele>156.0</ele><time>2026-05-01T14:38:23.004Z</time></trkpt><trkpt lat="42.2773786" lon="14.1556918"><ele>156.0</ele><time>2026-05-01T14:38:24.004Z</time></trkpt><trkpt lat="42.2774393" lon="14.1556456"><ele>156.0</ele><time>2026-05-01T14:38:25.004Z</time></trkpt><trkpt lat="42.2775063" lon="14.1556126"><ele>156.0</ele><time>2026-05-01T14:38:26.004Z</time></trkpt><trkpt lat="42.2775786" lon="14.1555719"><ele>156.0</ele><time>2026-05-01T14:38:27.004Z</time></trkpt><trkpt lat="42.2776591" lon="14.1555194"><ele>156.0</ele><time>2026-05-01T14:38:28.004Z</time></trkpt><trkpt lat="42.2777443" lon="14.1554608"><ele>156.0</ele><time>2026-05-01T14:38:29.004Z</time></trkpt><trkpt lat="42.2778272" lon="14.1554031"><ele>156.0</ele><time>2026-05-01T14:38:30.004Z</time></trkpt><trkpt lat="42.277911" lon="14.1553484"><ele>156.0</ele><time>2026-05-01T14:38:31.004Z</time></trkpt><trkpt lat="42.2779953" lon="14.1552997"><ele>156.0</ele><time>2026-05-01T14:38:32.004Z</time></trkpt><trkpt lat="42.2780776" lon="14.1552501"><ele>153.66666666666666</ele><time>2026-05-01T14:38:33.004Z</time></trkpt><trkpt lat="42.2781588" lon="14.155202"><ele>151.33333333333334</ele><time>2026-05-01T14:38:34.004Z</time></trkpt><trkpt lat="42.2782463" lon="14.155163"><ele>149.0</ele><time>2026-05-01T14:38:35.004Z</time></trkpt><trkpt lat="42.2783299" lon="14.1551239"><ele>146.66666666666669</ele><time>2026-05-01T14:38:36.004Z</time></trkpt><trkpt lat="42.2784107" lon="14.1550857"><ele>144.33333333333334</ele><time>2026-05-01T14:38:37.004Z</time></trkpt><trkpt lat="42.2784838" lon="14.1550448"><ele>142.0</ele><time>2026-05-01T14:38:38.004Z</time></trkpt><trkpt lat="42.2785474" lon="14.1550062"><ele>142.0</ele><time>2026-05-01T14:38:39.004Z</time></trkpt><trkpt lat="42.2786105" lon="14.1549611"><ele>142.0</ele><time>2026-05-01T14:38:40.004Z</time></trkpt><trkpt lat="42.278677" lon="14.1549146"><ele>142.0</ele><time>2026-05-01T14:38:41.004Z</time></trkpt><trkpt lat="42.278744" lon="14.1548692"><ele>142.0</ele><time>2026-05-01T14:38:42.004Z</time></trkpt><trkpt lat="42.2788125" lon="14.1548159"><ele>142.0</ele><time>2026-05-01T14:38:43.004Z</time></trkpt><trkpt lat="42.2788919" lon="14.1547587"><ele>142.0</ele><time>2026-05-01T14:38:44.004Z</time></trkpt><trkpt lat="42.2789866" lon="14.1546947"><ele>141.75</ele><time>2026-05-01T14:38:45.004Z</time></trkpt><trkpt lat="42.2790854" lon="14.1546274"><ele>141.5</ele><time>2026-05-01T14:38:46.004Z</time></trkpt><trkpt lat="42.2791901" lon="14.154561"><ele>141.25</ele><time>2026-05-01T14:38:47.004Z</time></trkpt><trkpt lat="42.2793021" lon="14.1544915"><ele>141.0</ele><time>2026-05-01T14:38:48.004Z</time></trkpt><trkpt lat="42.279405" lon="14.1544248"><ele>141.0</ele><time>2026-05-01T14:38:49.004Z</time></trkpt><trkpt lat="42.2794979" lon="14.1543705"><ele>141.0</ele><time>2026-05-01T14:38:50.004Z</time></trkpt><trkpt lat="42.2795758" lon="14.154319"><ele>141.0</ele><time>2026-05-01T14:38:51.004Z</time></trkpt><trkpt lat="42.2796628" lon="14.1542786"><ele>141.0</ele><time>2026-05-01T14:38:52.004Z</time></trkpt><trkpt lat="42.279753" lon="14.1542337"><ele>141.0</ele><time>2026-05-01T14:38:53.004Z</time></trkpt><trkpt lat="42.2798526" lon="14.1541784"><ele>141.4</ele><time>2026-05-01T14:38:54.004Z</time></trkpt><trkpt lat="42.2799492" lon="14.154129"><ele>141.8</ele><time>2026-05-01T14:38:55.004Z</time></trkpt><trkpt lat="42.2800439" lon="14.1540714"><ele>142.20000000000002</ele><time>2026-05-01T14:38:56.004Z</time></trkpt><trkpt lat="42.2801341" lon="14.1540181"><ele>142.6</ele><time>2026-05-01T14:38:57.004Z</time></trkpt><trkpt lat="42.2802239" lon="14.1539645"><ele>143.0</ele><time>2026-05-01T14:38:58.004Z</time></trkpt><trkpt lat="42.2803019" lon="14.1539113"><ele>143.0</ele><time>2026-05-01T14:38:59.004Z</time></trkpt><trkpt lat="42.2803774" lon="14.1538601"><ele>143.0</ele><time>2026-05-01T14:39:00.004Z</time></trkpt><trkpt lat="42.2804545" lon="14.1538129"><ele>143.0</ele><time>2026-05-01T14:39:01.004Z</time></trkpt><trkpt lat="42.2805436" lon="14.1537709"><ele>143.0</ele><time>2026-05-01T14:39:02.004Z</time></trkpt><trkpt lat="42.2806409" lon="14.1537322"><ele>143.0</ele><time>2026-05-01T14:39:03.005Z</time></trkpt><trkpt lat="42.2807394" lon="14.1536972"><ele>141.33333333333331</ele><time>2026-05-01T14:39:04.004Z</time></trkpt><trkpt lat="42.2808257" lon="14.1536638"><ele>139.66666666666666</ele><time>2026-05-01T14:39:05.004Z</time></trkpt><trkpt lat="42.2808947" lon="14.1536312"><ele>138.0</ele><time>2026-05-01T14:39:06.004Z</time></trkpt><trkpt lat="42.2809578" lon="14.1536008"><ele>136.33333333333334</ele><time>2026-05-01T14:39:07.004Z</time></trkpt><trkpt lat="42.2810685" lon="14.1535647"><ele>134.66666666666669</ele><time>2026-05-01T14:39:09.004Z</time></trkpt><trkpt lat="42.2811731" lon="14.1535537"><ele>133.0</ele><time>2026-05-01T14:39:11.004Z</time></trkpt><trkpt lat="42.2812822" lon="14.1535242"><ele>133.0</ele><time>2026-05-01T14:39:13.004Z</time></trkpt><trkpt lat="42.2813906" lon="14.1534718"><ele>133.0</ele><time>2026-05-01T14:39:15.004Z</time></trkpt><trkpt lat="42.2814823" lon="14.1533751"><ele>133.0</ele><time>2026-05-01T14:39:17.004Z</time></trkpt><trkpt lat="42.281527" lon="14.1533069"><ele>133.0</ele><time>2026-05-01T14:39:18.004Z</time></trkpt><trkpt lat="42.2815809" lon="14.1532489"><ele>133.0</ele><time>2026-05-01T14:39:19.004Z</time></trkpt><trkpt lat="42.2816472" lon="14.1531946"><ele>133.0</ele><time>2026-05-01T14:39:20.004Z</time></trkpt><trkpt lat="42.2817275" lon="14.1531497"><ele>130.83333333333334</ele><time>2026-05-01T14:39:21.004Z</time></trkpt><trkpt lat="42.281813" lon="14.1531139"><ele>128.66666666666669</ele><time>2026-05-01T14:39:22.004Z</time></trkpt><trkpt lat="42.2818954" lon="14.1530908"><ele>126.5</ele><time>2026-05-01T14:39:23.004Z</time></trkpt><trkpt lat="42.2819746" lon="14.1530686"><ele>124.33333333333334</ele><time>2026-05-01T14:39:24.004Z</time></trkpt><trkpt lat="42.2820556" lon="14.1530463"><ele>122.16666666666667</ele><time>2026-05-01T14:39:25.004Z</time></trkpt><trkpt lat="42.2821337" lon="14.1530224"><ele>120.0</ele><time>2026-05-01T14:39:26.004Z</time></trkpt><trkpt lat="42.282216" lon="14.1530016"><ele>119.5</ele><time>2026-05-01T14:39:27.004Z</time></trkpt><trkpt lat="42.282279" lon="14.152991"><ele>119.0</ele><time>2026-05-01T14:39:28.004Z</time></trkpt><trkpt lat="42.2823647" lon="14.1529924"><ele>118.5</ele><time>2026-05-01T14:39:30.004Z</time></trkpt><trkpt lat="42.2824622" lon="14.1529696"><ele>118.0</ele><time>2026-05-01T14:39:37.004Z</time></trkpt><trkpt lat="42.2824792" lon="14.1528251"><ele>117.5</ele><time>2026-05-01T14:39:40.004Z</time></trkpt><trkpt lat="42.2824676" lon="14.1527175"><ele>117.0</ele><time>2026-05-01T14:39:41.004Z</time></trkpt><trkpt lat="42.2824516" lon="14.1526191"><ele>117.0</ele><time>2026-05-01T14:39:42.004Z</time></trkpt><trkpt lat="42.2824346" lon="14.1525123"><ele>117.0</ele><time>2026-05-01T14:39:43.004Z</time></trkpt><trkpt lat="42.2824051" lon="14.1523977"><ele>117.0</ele><time>2026-05-01T14:39:44.004Z</time></trkpt><trkpt lat="42.2823674" lon="14.1522929"><ele>117.0</ele><time>2026-05-01T14:39:45.004Z</time></trkpt><trkpt lat="42.2823264" lon="14.1522159"><ele>117.0</ele><time>2026-05-01T14:39:46.004Z</time></trkpt><trkpt lat="42.2822934" lon="14.1521315"><ele>117.0</ele><time>2026-05-01T14:39:49.004Z</time></trkpt><trkpt lat="42.2823842" lon="14.1521236"><ele>117.39999999999999</ele><time>2026-05-01T14:39:51.004Z</time></trkpt><trkpt lat="42.2824572" lon="14.1521408"><ele>117.79999999999998</ele><time>2026-05-01T14:39:52.004Z</time></trkpt><trkpt lat="42.2825423" lon="14.1521504"><ele>118.2</ele><time>2026-05-01T14:39:53.004Z</time></trkpt><trkpt lat="42.2826372" lon="14.1521516"><ele>118.6</ele><time>2026-05-01T14:39:54.004Z</time></trkpt><trkpt lat="42.2827406" lon="14.1521553"><ele>119.0</ele><time>2026-05-01T14:39:55.004Z</time></trkpt><trkpt lat="42.2828446" lon="14.1521409"><ele>119.0</ele><time>2026-05-01T14:39:56.004Z</time></trkpt><trkpt lat="42.2829321" lon="14.1521083"><ele>119.0</ele><time>2026-05-01T14:39:57.004Z</time></trkpt><trkpt lat="42.2829909" lon="14.1520427"><ele>119.0</ele><time>2026-05-01T14:39:58.004Z</time></trkpt><trkpt lat="42.2830407" lon="14.1519375"><ele>119.0</ele><time>2026-05-01T14:39:59.004Z</time></trkpt><trkpt lat="42.2830726" lon="14.1518074"><ele>119.0</ele><time>2026-05-01T14:40:00.005Z</time></trkpt><trkpt lat="42.2830931" lon="14.1516547"><ele>121.99999999999999</ele><time>2026-05-01T14:40:01.004Z</time></trkpt><trkpt lat="42.2831064" lon="14.1514923"><ele>125.0</ele><time>2026-05-01T14:40:02.004Z</time></trkpt><trkpt lat="42.2831261" lon="14.1513641"><ele>128.0</ele><time>2026-05-01T14:40:03.004Z</time></trkpt><trkpt lat="42.283159" lon="14.151269"><ele>131.0</ele><time>2026-05-01T14:40:04.004Z</time></trkpt><trkpt lat="42.2831841" lon="14.1511795"><ele>134.0</ele><time>2026-05-01T14:40:06.004Z</time></trkpt><trkpt lat="42.2831676" lon="14.1510722"><ele>137.0</ele><time>2026-05-01T14:40:09.004Z</time></trkpt><trkpt lat="42.283122" lon="14.1510095"><ele>136.0</ele><time>2026-05-01T14:40:10.004Z</time></trkpt><trkpt lat="42.2830592" lon="14.1509621"><ele>135.0</ele><time>2026-05-01T14:40:11.004Z</time></trkpt><trkpt lat="42.2829747" lon="14.1509106"><ele>134.0</ele><time>2026-05-01T14:40:12.004Z</time></trkpt><trkpt lat="42.2828782" lon="14.1508556"><ele>133.0</ele><time>2026-05-01T14:40:13.004Z</time></trkpt><trkpt lat="42.2827783" lon="14.1507747"><ele>132.0</ele><time>2026-05-01T14:40:14.004Z</time></trkpt><trkpt lat="42.2826797" lon="14.150665"><ele>132.0</ele><time>2026-05-01T14:40:15.004Z</time></trkpt><trkpt lat="42.2825759" lon="14.1505364"><ele>132.0</ele><time>2026-05-01T14:40:16.004Z</time></trkpt><trkpt lat="42.2824799" lon="14.1503797"><ele>132.0</ele><time>2026-05-01T14:40:17.004Z</time></trkpt><trkpt lat="42.2823925" lon="14.1502079"><ele>132.0</ele><time>2026-05-01T14:40:18.004Z</time></trkpt><trkpt lat="42.2823111" lon="14.1500338"><ele>129.33333333333334</ele><time>2026-05-01T14:40:19.004Z</time></trkpt><trkpt lat="42.2822253" lon="14.1498607"><ele>126.66666666666667</ele><time>2026-05-01T14:40:20.004Z</time></trkpt><trkpt lat="42.2821374" lon="14.1496927"><ele>124.0</ele><time>2026-05-01T14:40:21.004Z</time></trkpt><trkpt lat="42.2820453" lon="14.1495278"><ele>124.0</ele><time>2026-05-01T14:40:22.004Z</time></trkpt><trkpt lat="42.2819573" lon="14.1493607"><ele>124.0</ele><time>2026-05-01T14:40:23.004Z</time></trkpt><trkpt lat="42.2818661" lon="14.149188"><ele>124.0</ele><time>2026-05-01T14:40:24.004Z</time></trkpt><trkpt lat="42.2817754" lon="14.149007"><ele>125.33333333333334</ele><time>2026-05-01T14:40:25.004Z</time></trkpt><trkpt lat="42.2816842" lon="14.1488237"><ele>126.66666666666666</ele><time>2026-05-01T14:40:26.004Z</time></trkpt><trkpt lat="42.2815919" lon="14.1486369"><ele>128.0</ele><time>2026-05-01T14:40:27.004Z</time></trkpt><trkpt lat="42.2815002" lon="14.148448"><ele>127.0</ele><time>2026-05-01T14:40:28.004Z</time></trkpt><trkpt lat="42.2814098" lon="14.1482606"><ele>126.0</ele><time>2026-05-01T14:40:29.004Z</time></trkpt><trkpt lat="42.2813357" lon="14.148095"><ele>125.0</ele><time>2026-05-01T14:40:30.004Z</time></trkpt><trkpt lat="42.281272" lon="14.147959"><ele>124.0</ele><time>2026-05-01T14:40:31.004Z</time></trkpt><trkpt lat="42.2812243" lon="14.1478475"><ele>123.66666666666667</ele><time>2026-05-01T14:40:32.004Z</time></trkpt><trkpt lat="42.2811861" lon="14.14777"><ele>123.33333333333334</ele><time>2026-05-01T14:40:33.004Z</time></trkpt><trkpt lat="42.2811701" lon="14.147687"><ele>123.0</ele><time>2026-05-01T14:40:35.004Z</time></trkpt><trkpt lat="42.2812108" lon="14.147618"><ele>122.66666666666666</ele><time>2026-05-01T14:40:37.004Z</time></trkpt><trkpt lat="42.2812902" lon="14.1475264"><ele>122.33333333333333</ele><time>2026-05-01T14:40:39.004Z</time></trkpt><trkpt lat="42.2813927" lon="14.1474213"><ele>122.0</ele><time>2026-05-01T14:40:41.004Z</time></trkpt><trkpt lat="42.281438" lon="14.147355"><ele>123.28571428571428</ele><time>2026-05-01T14:40:42.004Z</time></trkpt><trkpt lat="42.2814784" lon="14.1472832"><ele>124.57142857142857</ele><time>2026-05-01T14:40:43.004Z</time></trkpt><trkpt lat="42.2815137" lon="14.1472038"><ele>125.85714285714286</ele><time>2026-05-01T14:40:44.004Z</time></trkpt><trkpt lat="42.2815553" lon="14.1471033"><ele>127.14285714285714</ele><time>2026-05-01T14:40:45.004Z</time></trkpt><trkpt lat="42.2815806" lon="14.1469975"><ele>128.42857142857144</ele><time>2026-05-01T14:40:46.004Z</time></trkpt><trkpt lat="42.2815861" lon="14.1469026"><ele>129.71428571428572</ele><time>2026-05-01T14:40:47.004Z</time></trkpt><trkpt lat="42.2815753" lon="14.146817"><ele>131.0</ele><time>2026-05-01T14:40:48.004Z</time></trkpt><trkpt lat="42.2815605" lon="14.1466951"><ele>131.0</ele><time>2026-05-01T14:40:50.004Z</time></trkpt><trkpt lat="42.2815416" lon="14.1465781"><ele>131.0</ele><time>2026-05-01T14:41:07.004Z</time></trkpt><trkpt lat="42.2815036" lon="14.1464019"><ele>131.0</ele><time>2026-05-01T14:41:09.004Z</time></trkpt><trkpt lat="42.28148" lon="14.1463045"><ele>131.0</ele><time>2026-05-01T14:41:10.004Z</time></trkpt><trkpt lat="42.2814621" lon="14.1462067"><ele>131.0</ele><time>2026-05-01T14:41:11.004Z</time></trkpt><trkpt lat="42.2814394" lon="14.146104"><ele>131.16666666666666</ele><time>2026-05-01T14:41:12.004Z</time></trkpt><trkpt lat="42.2814186" lon="14.1460111"><ele>131.33333333333331</ele><time>2026-05-01T14:41:13.004Z</time></trkpt><trkpt lat="42.2813838" lon="14.1458639"><ele>131.5</ele><time>2026-05-01T14:41:15.004Z</time></trkpt><trkpt lat="42.2813572" lon="14.1457816"><ele>131.66666666666666</ele><time>2026-05-01T14:41:16.004Z</time></trkpt><trkpt lat="42.2813258" lon="14.1456918"><ele>131.83333333333334</ele><time>2026-05-01T14:41:17.004Z</time></trkpt><trkpt lat="42.2812837" lon="14.1456033"><ele>132.0</ele><time>2026-05-01T14:41:18.004Z</time></trkpt><trkpt lat="42.2812369" lon="14.1455228"><ele>133.66666666666666</ele><time>2026-05-01T14:41:19.004Z</time></trkpt><trkpt lat="42.281201" lon="14.1454375"><ele>135.33333333333334</ele><time>2026-05-01T14:41:20.004Z</time></trkpt><trkpt lat="42.2811792" lon="14.1453533"><ele>137.0</ele><time>2026-05-01T14:41:21.004Z</time></trkpt><trkpt lat="42.2811777" lon="14.1452564"><ele>138.66666666666669</ele><time>2026-05-01T14:41:22.004Z</time></trkpt><trkpt lat="42.2811827" lon="14.1451461"><ele>140.33333333333334</ele><time>2026-05-01T14:41:23.004Z</time></trkpt><trkpt lat="42.2811867" lon="14.1450237"><ele>142.0</ele><time>2026-05-01T14:41:24.004Z</time></trkpt><trkpt lat="42.281197" lon="14.1448958"><ele>143.6</ele><time>2026-05-01T14:41:25.004Z</time></trkpt><trkpt lat="42.2812104" lon="14.1447678"><ele>145.2</ele><time>2026-05-01T14:41:26.004Z</time></trkpt><trkpt lat="42.2812239" lon="14.1446359"><ele>146.8</ele><time>2026-05-01T14:41:27.004Z</time></trkpt><trkpt lat="42.2812402" lon="14.1445047"><ele>148.4</ele><time>2026-05-01T14:41:28.004Z</time></trkpt><trkpt lat="42.2812505" lon="14.1443815"><ele>150.0</ele><time>2026-05-01T14:41:29.005Z</time></trkpt><trkpt lat="42.2812603" lon="14.1442607"><ele>150.0</ele><time>2026-05-01T14:41:30.004Z</time></trkpt><trkpt lat="42.2812738" lon="14.1441467"><ele>150.0</ele><time>2026-05-01T14:41:31.004Z</time></trkpt><trkpt lat="42.2812872" lon="14.1440306"><ele>150.0</ele><time>2026-05-01T14:41:32.004Z</time></trkpt><trkpt lat="42.2813004" lon="14.143921"><ele>150.0</ele><time>2026-05-01T14:41:33.004Z</time></trkpt><trkpt lat="42.2813193" lon="14.1437731"><ele>150.0</ele><time>2026-05-01T14:41:35.004Z</time></trkpt><trkpt lat="42.2813312" lon="14.1436654"><ele>150.0</ele><time>2026-05-01T14:41:37.004Z</time></trkpt><trkpt lat="42.2813357" lon="14.1435693"><ele>152.2</ele><time>2026-05-01T14:41:39.004Z</time></trkpt><trkpt lat="42.2813269" lon="14.1434495"><ele>154.4</ele><time>2026-05-01T14:41:41.004Z</time></trkpt><trkpt lat="42.2812936" lon="14.1433295"><ele>156.60000000000002</ele><time>2026-05-01T14:41:43.004Z</time></trkpt><trkpt lat="42.2812525" lon="14.1431928"><ele>158.8</ele><time>2026-05-01T14:41:45.004Z</time></trkpt><trkpt lat="42.2812122" lon="14.1430669"><ele>161.0</ele><time>2026-05-01T14:41:47.004Z</time></trkpt><trkpt lat="42.2812247" lon="14.1429529"><ele>162.8</ele><time>2026-05-01T14:41:49.004Z</time></trkpt><trkpt lat="42.281298" lon="14.1428585"><ele>164.60000000000002</ele><time>2026-05-01T14:41:51.004Z</time></trkpt><trkpt lat="42.2813825" lon="14.1427466"><ele>166.4</ele><time>2026-05-01T14:41:53.004Z</time></trkpt><trkpt lat="42.2814346" lon="14.1426774"><ele>168.2</ele><time>2026-05-01T14:41:54.004Z</time></trkpt><trkpt lat="42.2814866" lon="14.142606"><ele>170.0</ele><time>2026-05-01T14:41:55.004Z</time></trkpt><trkpt lat="42.281544" lon="14.1425038"><ele>170.0</ele><time>2026-05-01T14:41:57.004Z</time></trkpt><trkpt lat="42.2815446" lon="14.1424117"><ele>170.0</ele><time>2026-05-01T14:41:59.004Z</time></trkpt><trkpt lat="42.2814638" lon="14.1423903"><ele>170.0</ele><time>2026-05-01T14:42:01.004Z</time></trkpt><trkpt lat="42.2813388" lon="14.1423593"><ele>170.0</ele><time>2026-05-01T14:42:03.004Z</time></trkpt><trkpt lat="42.2812724" lon="14.1423365"><ele>170.0</ele><time>2026-05-01T14:42:04.004Z</time></trkpt><trkpt lat="42.2811565" lon="14.1423008"><ele>175.5</ele><time>2026-05-01T14:42:06.004Z</time></trkpt><trkpt lat="42.2810448" lon="14.1422244"><ele>181.0</ele><time>2026-05-01T14:42:08.004Z</time></trkpt><trkpt lat="42.2809565" lon="14.1421167"><ele>186.5</ele><time>2026-05-01T14:42:10.004Z</time></trkpt><trkpt lat="42.2809209" lon="14.141984"><ele>192.0</ele><time>2026-05-01T14:42:12.004Z</time></trkpt><trkpt lat="42.2808887" lon="14.1418177"><ele>191.99999999999997</ele><time>2026-05-01T14:42:14.004Z</time></trkpt><trkpt lat="42.2808739" lon="14.1417256"><ele>192.0</ele><time>2026-05-01T14:42:15.004Z</time></trkpt><trkpt lat="42.2808539" lon="14.1416399"><ele>192.0</ele><time>2026-05-01T14:42:16.004Z</time></trkpt><trkpt lat="42.2808339" lon="14.141541"><ele>192.0</ele><time>2026-05-01T14:42:17.004Z</time></trkpt><trkpt lat="42.2808157" lon="14.1414398"><ele>192.0</ele><time>2026-05-01T14:42:18.004Z</time></trkpt><trkpt lat="42.2808016" lon="14.1413367"><ele>191.99999999999997</ele><time>2026-05-01T14:42:19.004Z</time></trkpt><trkpt lat="42.2807855" lon="14.1412393"><ele>192.0</ele><time>2026-05-01T14:42:20.004Z</time></trkpt><trkpt lat="42.280768" lon="14.1411355"><ele>192.0</ele><time>2026-05-01T14:42:21.004Z</time></trkpt><trkpt lat="42.2807566" lon="14.1410414"><ele>192.0</ele><time>2026-05-01T14:42:22.004Z</time></trkpt><trkpt lat="42.2807902" lon="14.1409464"><ele>192.0</ele><time>2026-05-01T14:42:24.004Z</time></trkpt><trkpt lat="42.2808728" lon="14.1409037"><ele>192.0</ele><time>2026-05-01T14:42:26.004Z</time></trkpt><trkpt lat="42.2809409" lon="14.1408612"><ele>192.0</ele><time>2026-05-01T14:42:27.004Z</time></trkpt><trkpt lat="42.2810125" lon="14.1408173"><ele>192.0</ele><time>2026-05-01T14:42:28.004Z</time></trkpt><trkpt lat="42.2810867" lon="14.140778"><ele>192.0</ele><time>2026-05-01T14:42:29.004Z</time></trkpt><trkpt lat="42.2811705" lon="14.1407381"><ele>192.0</ele><time>2026-05-01T14:42:30.004Z</time></trkpt><trkpt lat="42.2812576" lon="14.1406962"><ele>192.0</ele><time>2026-05-01T14:42:31.004Z</time></trkpt><trkpt lat="42.2813456" lon="14.1406552"><ele>192.0</ele><time>2026-05-01T14:42:32.004Z</time></trkpt><trkpt lat="42.2814269" lon="14.1406167"><ele>192.0</ele><time>2026-05-01T14:42:33.004Z</time></trkpt><trkpt lat="42.2814976" lon="14.1405783"><ele>192.0</ele><time>2026-05-01T14:42:34.004Z</time></trkpt><trkpt lat="42.2815672" lon="14.1405348"><ele>194.83333333333334</ele><time>2026-05-01T14:42:35.004Z</time></trkpt><trkpt lat="42.2816228" lon="14.1404787"><ele>197.66666666666669</ele><time>2026-05-01T14:42:36.004Z</time></trkpt><trkpt lat="42.2816817" lon="14.1404182"><ele>200.5</ele><time>2026-05-01T14:42:37.004Z</time></trkpt><trkpt lat="42.2817454" lon="14.1403427"><ele>203.33333333333334</ele><time>2026-05-01T14:42:38.004Z</time></trkpt><trkpt lat="42.281809" lon="14.1402548"><ele>206.16666666666669</ele><time>2026-05-01T14:42:39.004Z</time></trkpt><trkpt lat="42.2818737" lon="14.1401668"><ele>209.0</ele><time>2026-05-01T14:42:40.004Z</time></trkpt><trkpt lat="42.2819207" lon="14.1400933"><ele>209.0</ele><time>2026-05-01T14:42:41.004Z</time></trkpt><trkpt lat="42.2819934" lon="14.1399808"><ele>209.0</ele><time>2026-05-01T14:42:43.004Z</time></trkpt><trkpt lat="42.2820492" lon="14.1399143"><ele>209.0</ele><time>2026-05-01T14:42:44.004Z</time></trkpt><trkpt lat="42.2821223" lon="14.1398329"><ele>209.0</ele><time>2026-05-01T14:42:45.004Z</time></trkpt><trkpt lat="42.2822034" lon="14.1397537"><ele>209.0</ele><time>2026-05-01T14:42:46.004Z</time></trkpt><trkpt lat="42.2822844" lon="14.1396692"><ele>209.79999999999998</ele><time>2026-05-01T14:42:47.004Z</time></trkpt><trkpt lat="42.2823623" lon="14.1395809"><ele>210.6</ele><time>2026-05-01T14:42:48.004Z</time></trkpt><trkpt lat="42.2824463" lon="14.1394793"><ele>211.4</ele><time>2026-05-01T14:42:49.004Z</time></trkpt><trkpt lat="42.2825271" lon="14.1393695"><ele>212.2</ele><time>2026-05-01T14:42:50.004Z</time></trkpt><trkpt lat="42.2826063" lon="14.139261"><ele>213.0</ele><time>2026-05-01T14:42:51.004Z</time></trkpt><trkpt lat="42.282681" lon="14.1391608"><ele>213.0</ele><time>2026-05-01T14:42:52.004Z</time></trkpt><trkpt lat="42.2827571" lon="14.1390601"><ele>213.0</ele><time>2026-05-01T14:42:53.004Z</time></trkpt><trkpt lat="42.2828299" lon="14.1389368"><ele>213.0</ele><time>2026-05-01T14:42:54.004Z</time></trkpt><trkpt lat="42.28291" lon="14.1388108"><ele>213.0</ele><time>2026-05-01T14:42:55.004Z</time></trkpt><trkpt lat="42.2829914" lon="14.1386903"><ele>213.8</ele><time>2026-05-01T14:42:56.004Z</time></trkpt><trkpt lat="42.2830686" lon="14.1385897"><ele>214.60000000000002</ele><time>2026-05-01T14:42:57.004Z</time></trkpt><trkpt lat="42.283147" lon="14.1384958"><ele>215.39999999999998</ele><time>2026-05-01T14:42:58.004Z</time></trkpt><trkpt lat="42.2832195" lon="14.1384224"><ele>216.2</ele><time>2026-05-01T14:42:59.004Z</time></trkpt><trkpt lat="42.2832794" lon="14.1383628"><ele>217.0</ele><time>2026-05-01T14:43:00.004Z</time></trkpt><trkpt lat="42.283325" lon="14.1382768"><ele>216.99999999999997</ele><time>2026-05-01T14:43:02.004Z</time></trkpt><trkpt lat="42.2832286" lon="14.1382196"><ele>217.0</ele><time>2026-05-01T14:43:05.004Z</time></trkpt><trkpt lat="42.2831549" lon="14.1381988"><ele>217.0</ele><time>2026-05-01T14:43:06.004Z</time></trkpt><trkpt lat="42.2830691" lon="14.1381649"><ele>217.0</ele><time>2026-05-01T14:43:07.004Z</time></trkpt><trkpt lat="42.2829772" lon="14.1381343"><ele>216.99999999999997</ele><time>2026-05-01T14:43:08.004Z</time></trkpt><trkpt lat="42.2828976" lon="14.1381289"><ele>217.0</ele><time>2026-05-01T14:43:09.004Z</time></trkpt><trkpt lat="42.2828032" lon="14.1381157"><ele>214.33333333333331</ele><time>2026-05-01T14:43:11.004Z</time></trkpt><trkpt lat="42.2827364" lon="14.1380984"><ele>211.66666666666666</ele><time>2026-05-01T14:43:13.004Z</time></trkpt><trkpt lat="42.2826926" lon="14.1380321"><ele>209.0</ele><time>2026-05-01T14:43:15.004Z</time></trkpt><trkpt lat="42.2827145" lon="14.137952"><ele>206.33333333333331</ele><time>2026-05-01T14:43:17.004Z</time></trkpt><trkpt lat="42.2827917" lon="14.1378567"><ele>203.66666666666666</ele><time>2026-05-01T14:43:19.004Z</time></trkpt><trkpt lat="42.2828705" lon="14.1377527"><ele>201.0</ele><time>2026-05-01T14:43:21.004Z</time></trkpt><trkpt lat="42.2829098" lon="14.1376231"><ele>201.0</ele><time>2026-05-01T14:43:23.004Z</time></trkpt><trkpt lat="42.2829069" lon="14.1375315"><ele>201.0</ele><time>2026-05-01T14:43:24.004Z</time></trkpt><trkpt lat="42.2828825" lon="14.1374297"><ele>201.0</ele><time>2026-05-01T14:43:25.004Z</time></trkpt><trkpt lat="42.2828361" lon="14.1373351"><ele>201.0</ele><time>2026-05-01T14:43:26.004Z</time></trkpt><trkpt lat="42.2827956" lon="14.1372557"><ele>201.0</ele><time>2026-05-01T14:43:27.004Z</time></trkpt><trkpt lat="42.2827708" lon="14.1371683"><ele>201.0</ele><time>2026-05-01T14:43:28.004Z</time></trkpt><trkpt lat="42.2827622" lon="14.1370634"><ele>202.0</ele><time>2026-05-01T14:43:29.004Z</time></trkpt><trkpt lat="42.2827618" lon="14.1369598"><ele>203.0</ele><time>2026-05-01T14:43:30.004Z</time></trkpt><trkpt lat="42.2827558" lon="14.1368533"><ele>204.0</ele><time>2026-05-01T14:43:31.004Z</time></trkpt><trkpt lat="42.282752" lon="14.1367541"><ele>205.0</ele><time>2026-05-01T14:43:32.004Z</time></trkpt><trkpt lat="42.2827443" lon="14.1366521"><ele>206.0</ele><time>2026-05-01T14:43:33.004Z</time></trkpt><trkpt lat="42.2827248" lon="14.1365451"><ele>207.0</ele><time>2026-05-01T14:43:34.004Z</time></trkpt><trkpt lat="42.2826931" lon="14.1364378"><ele>208.16666666666666</ele><time>2026-05-01T14:43:35.004Z</time></trkpt><trkpt lat="42.2826642" lon="14.1363304"><ele>209.33333333333331</ele><time>2026-05-01T14:43:36.004Z</time></trkpt><trkpt lat="42.2826343" lon="14.1362323"><ele>210.5</ele><time>2026-05-01T14:43:37.004Z</time></trkpt><trkpt lat="42.2825882" lon="14.1361402"><ele>211.66666666666666</ele><time>2026-05-01T14:43:38.004Z</time></trkpt><trkpt lat="42.2825281" lon="14.1360572"><ele>212.83333333333331</ele><time>2026-05-01T14:43:39.004Z</time></trkpt><trkpt lat="42.2824681" lon="14.1359919"><ele>214.0</ele><time>2026-05-01T14:43:40.004Z</time></trkpt><trkpt lat="42.2824173" lon="14.1359173"><ele>213.99999999999997</ele><time>2026-05-01T14:43:41.004Z</time></trkpt><trkpt lat="42.2823715" lon="14.1358296"><ele>214.0</ele><time>2026-05-01T14:43:42.004Z</time></trkpt><trkpt lat="42.2823285" lon="14.1357343"><ele>214.0</ele><time>2026-05-01T14:43:43.004Z</time></trkpt><trkpt lat="42.2822884" lon="14.1356371"><ele>214.0</ele><time>2026-05-01T14:43:44.004Z</time></trkpt><trkpt lat="42.2822556" lon="14.1355531"><ele>213.99999999999997</ele><time>2026-05-01T14:43:45.004Z</time></trkpt><trkpt lat="42.282245" lon="14.1354658"><ele>214.0</ele><time>2026-05-01T14:43:46.004Z</time></trkpt><trkpt lat="42.2822407" lon="14.1353709"><ele>214.16666666666666</ele><time>2026-05-01T14:43:47.004Z</time></trkpt><trkpt lat="42.2822316" lon="14.1352668"><ele>214.33333333333331</ele><time>2026-05-01T14:43:48.004Z</time></trkpt><trkpt lat="42.2822222" lon="14.1351636"><ele>214.5</ele><time>2026-05-01T14:43:49.004Z</time></trkpt><trkpt lat="42.28221" lon="14.1350584"><ele>214.66666666666669</ele><time>2026-05-01T14:43:50.004Z</time></trkpt><trkpt lat="42.2821983" lon="14.1349471"><ele>214.83333333333334</ele><time>2026-05-01T14:43:51.004Z</time></trkpt><trkpt lat="42.282181" lon="14.1348363"><ele>215.0</ele><time>2026-05-01T14:43:52.004Z</time></trkpt><trkpt lat="42.2821649" lon="14.1347207"><ele>215.0</ele><time>2026-05-01T14:43:53.004Z</time></trkpt><trkpt lat="42.2821514" lon="14.1345981"><ele>215.0</ele><time>2026-05-01T14:43:54.004Z</time></trkpt><trkpt lat="42.2821364" lon="14.1344788"><ele>215.0</ele><time>2026-05-01T14:43:55.004Z</time></trkpt><trkpt lat="42.2821106" lon="14.1343592"><ele>215.0</ele><time>2026-05-01T14:43:56.004Z</time></trkpt><trkpt lat="42.2820867" lon="14.1342339"><ele>215.0</ele><time>2026-05-01T14:43:57.004Z</time></trkpt><trkpt lat="42.2820655" lon="14.1341063"><ele>216.0</ele><time>2026-05-01T14:43:58.004Z</time></trkpt><trkpt lat="42.2820437" lon="14.1339734"><ele>217.0</ele><time>2026-05-01T14:43:59.004Z</time></trkpt><trkpt lat="42.2820245" lon="14.1338328"><ele>218.0</ele><time>2026-05-01T14:44:00.004Z</time></trkpt><trkpt lat="42.2820084" lon="14.1336969"><ele>219.0</ele><time>2026-05-01T14:44:01.004Z</time></trkpt><trkpt lat="42.2819959" lon="14.1335612"><ele>220.0</ele><time>2026-05-01T14:44:02.004Z</time></trkpt><trkpt lat="42.2819855" lon="14.1334321"><ele>219.99999999999997</ele><time>2026-05-01T14:44:03.004Z</time></trkpt><trkpt lat="42.2819718" lon="14.1333383"><ele>220.0</ele><time>2026-05-01T14:44:04.004Z</time></trkpt><trkpt lat="42.2819052" lon="14.1332148"><ele>220.0</ele><time>2026-05-01T14:44:06.004Z</time></trkpt><trkpt lat="42.2818415" lon="14.1331853"><ele>220.0</ele><time>2026-05-01T14:44:07.004Z</time></trkpt><trkpt lat="42.2817768" lon="14.1331553"><ele>219.99999999999997</ele><time>2026-05-01T14:44:08.004Z</time></trkpt><trkpt lat="42.2817149" lon="14.133112"><ele>220.0</ele><time>2026-05-01T14:44:09.004Z</time></trkpt><trkpt lat="42.2816667" lon="14.1330501"><ele>220.8</ele><time>2026-05-01T14:44:10.004Z</time></trkpt><trkpt lat="42.2816128" lon="14.1330009"><ele>221.6</ele><time>2026-05-01T14:44:11.004Z</time></trkpt><trkpt lat="42.2814967" lon="14.1329885"><ele>222.39999999999998</ele><time>2026-05-01T14:44:13.004Z</time></trkpt><trkpt lat="42.2814154" lon="14.1330231"><ele>223.2</ele><time>2026-05-01T14:44:14.004Z</time></trkpt><trkpt lat="42.2813205" lon="14.1330517"><ele>224.0</ele><time>2026-05-01T14:44:15.004Z</time></trkpt><trkpt lat="42.2812209" lon="14.1330736"><ele>224.00000000000003</ele><time>2026-05-01T14:44:16.004Z</time></trkpt><trkpt lat="42.2811328" lon="14.1331092"><ele>224.0</ele><time>2026-05-01T14:44:17.004Z</time></trkpt><trkpt lat="42.2810568" lon="14.1331433"><ele>224.0</ele><time>2026-05-01T14:44:18.004Z</time></trkpt><trkpt lat="42.2809908" lon="14.1331541"><ele>224.0</ele><time>2026-05-01T14:44:19.004Z</time></trkpt><trkpt lat="42.2808736" lon="14.1330924"><ele>224.00000000000003</ele><time>2026-05-01T14:44:21.004Z</time></trkpt><trkpt lat="42.2808106" lon="14.1330195"><ele>224.0</ele><time>2026-05-01T14:44:22.004Z</time></trkpt><trkpt lat="42.2807363" lon="14.1329378"><ele>224.00000000000003</ele><time>2026-05-01T14:44:23.004Z</time></trkpt><trkpt lat="42.2806651" lon="14.1328559"><ele>224.0</ele><time>2026-05-01T14:44:24.004Z</time></trkpt><trkpt lat="42.2805903" lon="14.1327967"><ele>224.0</ele><time>2026-05-01T14:44:25.004Z</time></trkpt><trkpt lat="42.2805095" lon="14.1327489"><ele>224.0</ele><time>2026-05-01T14:44:26.004Z</time></trkpt><trkpt lat="42.2804362" lon="14.1327111"><ele>224.00000000000003</ele><time>2026-05-01T14:44:27.004Z</time></trkpt><trkpt lat="42.2803737" lon="14.1326682"><ele>224.0</ele><time>2026-05-01T14:44:28.004Z</time></trkpt><trkpt lat="42.2803151" lon="14.1326316"><ele>224.83333333333334</ele><time>2026-05-01T14:44:29.004Z</time></trkpt><trkpt lat="42.2802451" lon="14.132597"><ele>225.66666666666669</ele><time>2026-05-01T14:44:30.004Z</time></trkpt><trkpt lat="42.2801655" lon="14.1325547"><ele>226.5</ele><time>2026-05-01T14:44:31.004Z</time></trkpt><trkpt lat="42.2800814" lon="14.1325084"><ele>227.33333333333331</ele><time>2026-05-01T14:44:32.004Z</time></trkpt><trkpt lat="42.2800069" lon="14.1324581"><ele>228.16666666666666</ele><time>2026-05-01T14:44:33.004Z</time></trkpt><trkpt lat="42.2799397" lon="14.1324083"><ele>229.0</ele><time>2026-05-01T14:44:34.004Z</time></trkpt><trkpt lat="42.2798607" lon="14.1323319"><ele>229.0</ele><time>2026-05-01T14:44:36.004Z</time></trkpt><trkpt lat="42.2798309" lon="14.1321616"><ele>229.0</ele><time>2026-05-01T14:44:38.004Z</time></trkpt><trkpt lat="42.2798082" lon="14.1320369"><ele>229.0</ele><time>2026-05-01T14:44:39.004Z</time></trkpt><trkpt lat="42.279762" lon="14.1318886"><ele>229.0</ele><time>2026-05-01T14:44:40.004Z</time></trkpt><trkpt lat="42.2797163" lon="14.1317312"><ele>227.99999999999997</ele><time>2026-05-01T14:44:41.004Z</time></trkpt><trkpt lat="42.2796918" lon="14.1316152"><ele>227.0</ele><time>2026-05-01T14:44:42.004Z</time></trkpt><trkpt lat="42.2796786" lon="14.1315071"><ele>226.0</ele><time>2026-05-01T14:44:44.004Z</time></trkpt><trkpt lat="42.2797633" lon="14.1314831"><ele>225.0</ele><time>2026-05-01T14:44:46.004Z</time></trkpt><trkpt lat="42.2798369" lon="14.1314925"><ele>223.99999999999997</ele><time>2026-05-01T14:44:47.004Z</time></trkpt><trkpt lat="42.2799347" lon="14.131507"><ele>223.0</ele><time>2026-05-01T14:44:48.004Z</time></trkpt><trkpt lat="42.2800515" lon="14.1315178"><ele>227.75</ele><time>2026-05-01T14:44:49.004Z</time></trkpt><trkpt lat="42.2801828" lon="14.1315199"><ele>232.5</ele><time>2026-05-01T14:44:50.004Z</time></trkpt><trkpt lat="42.2803256" lon="14.1315119"><ele>237.25</ele><time>2026-05-01T14:44:51.004Z</time></trkpt><trkpt lat="42.2804679" lon="14.1314736"><ele>242.0</ele><time>2026-05-01T14:44:52.004Z</time></trkpt><trkpt lat="42.2806002" lon="14.1314192"><ele>242.0</ele><time>2026-05-01T14:44:53.004Z</time></trkpt><trkpt lat="42.2807041" lon="14.1313526"><ele>242.0</ele><time>2026-05-01T14:44:54.004Z</time></trkpt><trkpt lat="42.2807869" lon="14.1312576"><ele>242.0</ele><time>2026-05-01T14:44:55.004Z</time></trkpt><trkpt lat="42.2808412" lon="14.1311159"><ele>242.0</ele><time>2026-05-01T14:44:56.004Z</time></trkpt><trkpt lat="42.2808814" lon="14.1309615"><ele>242.0</ele><time>2026-05-01T14:44:57.004Z</time></trkpt><trkpt lat="42.2809288" lon="14.1308092"><ele>242.0</ele><time>2026-05-01T14:44:58.004Z</time></trkpt><trkpt lat="42.280972" lon="14.1306456"><ele>242.0</ele><time>2026-05-01T14:44:59.004Z</time></trkpt><trkpt lat="42.2810091" lon="14.1304746"><ele>242.0</ele><time>2026-05-01T14:45:00.004Z</time></trkpt><trkpt lat="42.2810365" lon="14.1303181"><ele>243.2</ele><time>2026-05-01T14:45:01.004Z</time></trkpt><trkpt lat="42.2810523" lon="14.1301783"><ele>244.39999999999998</ele><time>2026-05-01T14:45:02.004Z</time></trkpt><trkpt lat="42.2810322" lon="14.1300537"><ele>245.60000000000002</ele><time>2026-05-01T14:45:03.004Z</time></trkpt><trkpt lat="42.280979" lon="14.1299497"><ele>246.8</ele><time>2026-05-01T14:45:04.004Z</time></trkpt><trkpt lat="42.2808988" lon="14.1298797"><ele>248.0</ele><time>2026-05-01T14:45:05.004Z</time></trkpt><trkpt lat="42.2808175" lon="14.1298821"><ele>248.0</ele><time>2026-05-01T14:45:06.004Z</time></trkpt><trkpt lat="42.2807255" lon="14.1299271"><ele>248.0</ele><time>2026-05-01T14:45:07.004Z</time></trkpt><trkpt lat="42.2806347" lon="14.1300301"><ele>248.0</ele><time>2026-05-01T14:45:08.004Z</time></trkpt><trkpt lat="42.280538" lon="14.1301508"><ele>248.0</ele><time>2026-05-01T14:45:09.004Z</time></trkpt><trkpt lat="42.2804341" lon="14.1302724"><ele>249.5</ele><time>2026-05-01T14:45:10.004Z</time></trkpt><trkpt lat="42.2803331" lon="14.1303824"><ele>251.0</ele><time>2026-05-01T14:45:11.004Z</time></trkpt><trkpt lat="42.2802298" lon="14.1304642"><ele>252.5</ele><time>2026-05-01T14:45:12.004Z</time></trkpt><trkpt lat="42.2801294" lon="14.1305063"><ele>254.0</ele><time>2026-05-01T14:45:13.004Z</time></trkpt><trkpt lat="42.2800207" lon="14.1304813"><ele>254.0</ele><time>2026-05-01T14:45:14.004Z</time></trkpt><trkpt lat="42.2799182" lon="14.1304159"><ele>254.0</ele><time>2026-05-01T14:45:15.004Z</time></trkpt><trkpt lat="42.2797999" lon="14.1303433"><ele>254.0</ele><time>2026-05-01T14:45:16.004Z</time></trkpt><trkpt lat="42.2796831" lon="14.1302755"><ele>254.0</ele><time>2026-05-01T14:45:17.004Z</time></trkpt><trkpt lat="42.2795694" lon="14.1302125"><ele>253.6</ele><time>2026-05-01T14:45:18.004Z</time></trkpt><trkpt lat="42.2794649" lon="14.1301446"><ele>253.2</ele><time>2026-05-01T14:45:19.004Z</time></trkpt><trkpt lat="42.2793774" lon="14.1300655"><ele>252.79999999999998</ele><time>2026-05-01T14:45:20.004Z</time></trkpt><trkpt lat="42.2793147" lon="14.1299598"><ele>252.39999999999998</ele><time>2026-05-01T14:45:21.004Z</time></trkpt><trkpt lat="42.2792964" lon="14.1298306"><ele>252.0</ele><time>2026-05-01T14:45:22.004Z</time></trkpt><trkpt lat="42.2793242" lon="14.1297271"><ele>254.6</ele><time>2026-05-01T14:45:23.004Z</time></trkpt><trkpt lat="42.2793827" lon="14.129647"><ele>257.2</ele><time>2026-05-01T14:45:24.004Z</time></trkpt><trkpt lat="42.2794661" lon="14.1296013"><ele>259.8</ele><time>2026-05-01T14:45:25.004Z</time></trkpt><trkpt lat="42.2795677" lon="14.1296"><ele>262.4</ele><time>2026-05-01T14:45:26.004Z</time></trkpt><trkpt lat="42.2796741" lon="14.1295894"><ele>265.0</ele><time>2026-05-01T14:45:27.004Z</time></trkpt><trkpt lat="42.2797657" lon="14.1295466"><ele>263.75</ele><time>2026-05-01T14:45:28.004Z</time></trkpt><trkpt lat="42.2798431" lon="14.1294589"><ele>262.5</ele><time>2026-05-01T14:45:29.004Z</time></trkpt><trkpt lat="42.2799135" lon="14.1293469"><ele>261.25</ele><time>2026-05-01T14:45:30.004Z</time></trkpt><trkpt lat="42.279976" lon="14.1291959"><ele>260.0</ele><time>2026-05-01T14:45:31.004Z</time></trkpt><trkpt lat="42.2800366" lon="14.1290371"><ele>263.6666666666667</ele><time>2026-05-01T14:45:32.004Z</time></trkpt><trkpt lat="42.2801034" lon="14.1288612"><ele>267.3333333333333</ele><time>2026-05-01T14:45:33.004Z</time></trkpt><trkpt lat="42.2801733" lon="14.1286785"><ele>271.0</ele><time>2026-05-01T14:45:34.004Z</time></trkpt><trkpt lat="42.280249" lon="14.1284967"><ele>271.0</ele><time>2026-05-01T14:45:35.004Z</time></trkpt><trkpt lat="42.280341" lon="14.1283377"><ele>271.0</ele><time>2026-05-01T14:45:36.004Z</time></trkpt><trkpt lat="42.2804589" lon="14.1282319"><ele>271.0</ele><time>2026-05-01T14:45:37.004Z</time></trkpt><trkpt lat="42.2806035" lon="14.1281445"><ele>271.0</ele><time>2026-05-01T14:45:38.004Z</time></trkpt><trkpt lat="42.2807507" lon="14.1280606"><ele>272.5</ele><time>2026-05-01T14:45:39.004Z</time></trkpt><trkpt lat="42.280884" lon="14.127986"><ele>274.0</ele><time>2026-05-01T14:45:40.004Z</time></trkpt><trkpt lat="42.2809884" lon="14.1279148"><ele>275.5</ele><time>2026-05-01T14:45:41.004Z</time></trkpt><trkpt lat="42.2810508" lon="14.1278065"><ele>277.0</ele><time>2026-05-01T14:45:42.004Z</time></trkpt><trkpt lat="42.2810741" lon="14.127654"><ele>277.0</ele><time>2026-05-01T14:45:43.004Z</time></trkpt><trkpt lat="42.2810684" lon="14.1275112"><ele>277.0</ele><time>2026-05-01T14:45:44.004Z</time></trkpt><trkpt lat="42.2810102" lon="14.1273916"><ele>277.0</ele><time>2026-05-01T14:45:45.004Z</time></trkpt><trkpt lat="42.2809121" lon="14.1273231"><ele>277.0</ele><time>2026-05-01T14:45:46.004Z</time></trkpt><trkpt lat="42.2807961" lon="14.127303"><ele>277.0</ele><time>2026-05-01T14:45:47.004Z</time></trkpt><trkpt lat="42.2806561" lon="14.1273055"><ele>279.75</ele><time>2026-05-01T14:45:48.004Z</time></trkpt><trkpt lat="42.2805308" lon="14.1273279"><ele>282.5</ele><time>2026-05-01T14:45:49.004Z</time></trkpt><trkpt lat="42.2804166" lon="14.1273453"><ele>285.25</ele><time>2026-05-01T14:45:50.004Z</time></trkpt><trkpt lat="42.2803056" lon="14.1273596"><ele>288.0</ele><time>2026-05-01T14:45:51.004Z</time></trkpt><trkpt lat="42.280181" lon="14.1273665"><ele>288.0</ele><time>2026-05-01T14:45:52.004Z</time></trkpt><trkpt lat="42.2800513" lon="14.1273718"><ele>288.0</ele><time>2026-05-01T14:45:53.004Z</time></trkpt><trkpt lat="42.2799326" lon="14.1273846"><ele>288.0</ele><time>2026-05-01T14:45:54.004Z</time></trkpt><trkpt lat="42.2798153" lon="14.127394"><ele>288.0</ele><time>2026-05-01T14:45:55.004Z</time></trkpt><trkpt lat="42.2797032" lon="14.1274069"><ele>287.0</ele><time>2026-05-01T14:45:56.004Z</time></trkpt><trkpt lat="42.2795954" lon="14.1274198"><ele>286.0</ele><time>2026-05-01T14:45:57.004Z</time></trkpt><trkpt lat="42.2795092" lon="14.1274478"><ele>285.0</ele><time>2026-05-01T14:45:58.004Z</time></trkpt><trkpt lat="42.279438" lon="14.1274798"><ele>284.0</ele><time>2026-05-01T14:45:59.004Z</time></trkpt><trkpt lat="42.2793691" lon="14.1275278"><ele>283.0</ele><time>2026-05-01T14:46:00.004Z</time></trkpt><trkpt lat="42.2792981" lon="14.1275805"><ele>282.0</ele><time>2026-05-01T14:46:01.004Z</time></trkpt><trkpt lat="42.2791997" lon="14.1276214"><ele>282.0</ele><time>2026-05-01T14:46:02.004Z</time></trkpt><trkpt lat="42.279093" lon="14.1276443"><ele>282.0</ele><time>2026-05-01T14:46:03.004Z</time></trkpt><trkpt lat="42.2789996" lon="14.1276462"><ele>282.0</ele><time>2026-05-01T14:46:04.004Z</time></trkpt><trkpt lat="42.2789084" lon="14.1276369"><ele>282.0</ele><time>2026-05-01T14:46:05.004Z</time></trkpt><trkpt lat="42.2788046" lon="14.1276313"><ele>282.0</ele><time>2026-05-01T14:46:06.004Z</time></trkpt><trkpt lat="42.2786971" lon="14.1276295"><ele>282.5</ele><time>2026-05-01T14:46:07.004Z</time></trkpt><trkpt lat="42.2785816" lon="14.1276237"><ele>283.0</ele><time>2026-05-01T14:46:08.004Z</time></trkpt><trkpt lat="42.2784573" lon="14.1276131"><ele>283.5</ele><time>2026-05-01T14:46:09.004Z</time></trkpt><trkpt lat="42.2783364" lon="14.1276079"><ele>284.0</ele><time>2026-05-01T14:46:10.004Z</time></trkpt><trkpt lat="42.278231" lon="14.1276006"><ele>284.0</ele><time>2026-05-01T14:46:11.004Z</time></trkpt><trkpt lat="42.2781199" lon="14.1275758"><ele>284.0</ele><time>2026-05-01T14:46:12.004Z</time></trkpt><trkpt lat="42.2780065" lon="14.1275451"><ele>284.0</ele><time>2026-05-01T14:46:13.004Z</time></trkpt><trkpt lat="42.2778885" lon="14.1275056"><ele>284.0</ele><time>2026-05-01T14:46:14.004Z</time></trkpt><trkpt lat="42.2777704" lon="14.1274568"><ele>284.5</ele><time>2026-05-01T14:46:15.004Z</time></trkpt><trkpt lat="42.2776483" lon="14.1274119"><ele>285.0</ele><time>2026-05-01T14:46:16.004Z</time></trkpt><trkpt lat="42.2775229" lon="14.1273817"><ele>285.5</ele><time>2026-05-01T14:46:17.004Z</time></trkpt><trkpt lat="42.2773977" lon="14.1273785"><ele>286.0</ele><time>2026-05-01T14:46:18.004Z</time></trkpt><trkpt lat="42.2772818" lon="14.1273882"><ele>287.5</ele><time>2026-05-01T14:46:19.004Z</time></trkpt><trkpt lat="42.2771768" lon="14.127395"><ele>289.0</ele><time>2026-05-01T14:46:20.004Z</time></trkpt><trkpt lat="42.2770688" lon="14.1273848"><ele>290.5</ele><time>2026-05-01T14:46:21.004Z</time></trkpt><trkpt lat="42.276951" lon="14.1273501"><ele>292.0</ele><time>2026-05-01T14:46:22.004Z</time></trkpt><trkpt lat="42.2768296" lon="14.1272966"><ele>292.66666666666663</ele><time>2026-05-01T14:46:23.004Z</time></trkpt><trkpt lat="42.2767275" lon="14.1272397"><ele>293.3333333333333</ele><time>2026-05-01T14:46:24.004Z</time></trkpt><trkpt lat="42.2766424" lon="14.1272168"><ele>294.0</ele><time>2026-05-01T14:46:25.004Z</time></trkpt><trkpt lat="42.2765761" lon="14.127223"><ele>294.6666666666667</ele><time>2026-05-01T14:46:26.004Z</time></trkpt><trkpt lat="42.2765123" lon="14.1272596"><ele>295.33333333333337</ele><time>2026-05-01T14:46:27.004Z</time></trkpt><trkpt lat="42.2764353" lon="14.1273415"><ele>296.0</ele><time>2026-05-01T14:46:28.004Z</time></trkpt><trkpt lat="42.276366" lon="14.127455"><ele>296.0</ele><time>2026-05-01T14:46:29.004Z</time></trkpt><trkpt lat="42.2762938" lon="14.127567"><ele>296.0</ele><time>2026-05-01T14:46:30.004Z</time></trkpt><trkpt lat="42.2762335" lon="14.1276706"><ele>296.0</ele><time>2026-05-01T14:46:31.004Z</time></trkpt><trkpt lat="42.2761711" lon="14.1277548"><ele>296.0</ele><time>2026-05-01T14:46:32.004Z</time></trkpt><trkpt lat="42.2761007" lon="14.1278369"><ele>296.0</ele><time>2026-05-01T14:46:33.005Z</time></trkpt><trkpt lat="42.2760188" lon="14.1279049"><ele>296.0</ele><time>2026-05-01T14:46:34.004Z</time></trkpt><trkpt lat="42.2759325" lon="14.1279506"><ele>296.0</ele><time>2026-05-01T14:46:35.004Z</time></trkpt><trkpt lat="42.2758276" lon="14.1279881"><ele>296.0</ele><time>2026-05-01T14:46:36.004Z</time></trkpt><trkpt lat="42.2757108" lon="14.1280148"><ele>296.0</ele><time>2026-05-01T14:46:37.004Z</time></trkpt><trkpt lat="42.2755877" lon="14.1280529"><ele>296.0</ele><time>2026-05-01T14:46:38.004Z</time></trkpt><trkpt lat="42.2754617" lon="14.128114"><ele>296.8</ele><time>2026-05-01T14:46:39.004Z</time></trkpt><trkpt lat="42.2753492" lon="14.1281986"><ele>297.6</ele><time>2026-05-01T14:46:40.004Z</time></trkpt><trkpt lat="42.2752726" lon="14.1282685"><ele>298.4</ele><time>2026-05-01T14:46:41.004Z</time></trkpt><trkpt lat="42.2752112" lon="14.1283072"><ele>299.2</ele><time>2026-05-01T14:46:43.004Z</time></trkpt><trkpt lat="42.2751392" lon="14.1282007"><ele>300.0</ele><time>2026-05-01T14:46:45.004Z</time></trkpt><trkpt lat="42.2751054" lon="14.1280832"><ele>300.75</ele><time>2026-05-01T14:46:46.004Z</time></trkpt><trkpt lat="42.2750625" lon="14.1279472"><ele>301.5</ele><time>2026-05-01T14:46:47.004Z</time></trkpt><trkpt lat="42.2750128" lon="14.1277967"><ele>302.25</ele><time>2026-05-01T14:46:48.004Z</time></trkpt><trkpt lat="42.2749552" lon="14.12764"><ele>303.0</ele><time>2026-05-01T14:46:49.004Z</time></trkpt><trkpt lat="42.2748994" lon="14.127482"><ele>303.5</ele><time>2026-05-01T14:46:50.004Z</time></trkpt><trkpt lat="42.2748455" lon="14.1273116"><ele>304.0</ele><time>2026-05-01T14:46:51.004Z</time></trkpt><trkpt lat="42.2747893" lon="14.127141"><ele>304.5</ele><time>2026-05-01T14:46:52.004Z</time></trkpt><trkpt lat="42.2747325" lon="14.1269543"><ele>305.0</ele><time>2026-05-01T14:46:53.004Z</time></trkpt><trkpt lat="42.2746803" lon="14.1267601"><ele>303.5</ele><time>2026-05-01T14:46:54.004Z</time></trkpt><trkpt lat="42.2746383" lon="14.1265687"><ele>302.0</ele><time>2026-05-01T14:46:55.004Z</time></trkpt><trkpt lat="42.2746092" lon="14.1263846"><ele>300.5</ele><time>2026-05-01T14:46:56.004Z</time></trkpt><trkpt lat="42.2745931" lon="14.1262203"><ele>299.0</ele><time>2026-05-01T14:46:57.004Z</time></trkpt><trkpt lat="42.2746167" lon="14.1260565"><ele>297.25</ele><time>2026-05-01T14:46:58.004Z</time></trkpt><trkpt lat="42.2746515" lon="14.1258783"><ele>295.5</ele><time>2026-05-01T14:46:59.004Z</time></trkpt><trkpt lat="42.2747002" lon="14.1256897"><ele>293.75</ele><time>2026-05-01T14:47:00.004Z</time></trkpt><trkpt lat="42.2747535" lon="14.1254988"><ele>292.0</ele><time>2026-05-01T14:47:01.004Z</time></trkpt><trkpt lat="42.274806" lon="14.1253132"><ele>298.75</ele><time>2026-05-01T14:47:02.004Z</time></trkpt><trkpt lat="42.2748588" lon="14.1251369"><ele>305.5</ele><time>2026-05-01T14:47:03.004Z</time></trkpt><trkpt lat="42.2749088" lon="14.1249726"><ele>312.25</ele><time>2026-05-01T14:47:04.004Z</time></trkpt><trkpt lat="42.2749651" lon="14.1248121"><ele>319.0</ele><time>2026-05-01T14:47:05.004Z</time></trkpt><trkpt lat="42.27503" lon="14.1246609"><ele>320.6</ele><time>2026-05-01T14:47:06.004Z</time></trkpt><trkpt lat="42.2751003" lon="14.1245177"><ele>322.2</ele><time>2026-05-01T14:47:07.004Z</time></trkpt><trkpt lat="42.2751711" lon="14.124387"><ele>323.8</ele><time>2026-05-01T14:47:08.004Z</time></trkpt><trkpt lat="42.2752451" lon="14.1242917"><ele>325.40000000000003</ele><time>2026-05-01T14:47:09.004Z</time></trkpt><trkpt lat="42.2753304" lon="14.1242606"><ele>327.0</ele><time>2026-05-01T14:47:10.004Z</time></trkpt><trkpt lat="42.2754518" lon="14.1242559"><ele>327.0</ele><time>2026-05-01T14:47:11.004Z</time></trkpt><trkpt lat="42.2755886" lon="14.124247"><ele>327.0</ele><time>2026-05-01T14:47:12.004Z</time></trkpt><trkpt lat="42.275725" lon="14.1242289"><ele>327.0</ele><time>2026-05-01T14:47:13.004Z</time></trkpt><trkpt lat="42.2758584" lon="14.124215"><ele>327.0</ele><time>2026-05-01T14:47:14.004Z</time></trkpt><trkpt lat="42.275978" lon="14.1241982"><ele>325.5</ele><time>2026-05-01T14:47:15.004Z</time></trkpt><trkpt lat="42.2760932" lon="14.1241542"><ele>324.0</ele><time>2026-05-01T14:47:16.004Z</time></trkpt><trkpt lat="42.2762057" lon="14.124126"><ele>322.5</ele><time>2026-05-01T14:47:17.004Z</time></trkpt><trkpt lat="42.276322" lon="14.1241231"><ele>321.0</ele><time>2026-05-01T14:47:18.004Z</time></trkpt><trkpt lat="42.2764219" lon="14.1241171"><ele>320.3333333333333</ele><time>2026-05-01T14:47:19.004Z</time></trkpt><trkpt lat="42.2765176" lon="14.1241256"><ele>319.6666666666667</ele><time>2026-05-01T14:47:21.004Z</time></trkpt><trkpt lat="42.2764816" lon="14.1240346"><ele>319.0</ele><time>2026-05-01T14:47:26.004Z</time></trkpt><trkpt lat="42.2764188" lon="14.124003"><ele>318.33333333333337</ele><time>2026-05-01T14:47:27.004Z</time></trkpt><trkpt lat="42.2763508" lon="14.1239387"><ele>317.6666666666667</ele><time>2026-05-01T14:47:28.004Z</time></trkpt><trkpt lat="42.276289" lon="14.1238513"><ele>317.0</ele><time>2026-05-01T14:47:29.004Z</time></trkpt><trkpt lat="42.2762365" lon="14.1237498"><ele>317.0</ele><time>2026-05-01T14:47:30.004Z</time></trkpt><trkpt lat="42.2761809" lon="14.1236492"><ele>317.0</ele><time>2026-05-01T14:47:31.004Z</time></trkpt><trkpt lat="42.2761294" lon="14.1235438"><ele>317.0</ele><time>2026-05-01T14:47:32.004Z</time></trkpt><trkpt lat="42.2760794" lon="14.1234571"><ele>317.0</ele><time>2026-05-01T14:47:33.004Z</time></trkpt><trkpt lat="42.2760136" lon="14.1234123"><ele>317.0</ele><time>2026-05-01T14:47:34.004Z</time></trkpt><trkpt lat="42.2759253" lon="14.1233852"><ele>317.0</ele><time>2026-05-01T14:47:35.004Z</time></trkpt><trkpt lat="42.275836" lon="14.1233627"><ele>317.0</ele><time>2026-05-01T14:47:36.004Z</time></trkpt><trkpt lat="42.2757306" lon="14.123331"><ele>317.0</ele><time>2026-05-01T14:47:37.004Z</time></trkpt><trkpt lat="42.2756249" lon="14.1232883"><ele>317.0</ele><time>2026-05-01T14:47:38.004Z</time></trkpt><trkpt lat="42.2755142" lon="14.1232551"><ele>317.0</ele><time>2026-05-01T14:47:39.004Z</time></trkpt><trkpt lat="42.2753951" lon="14.1232224"><ele>316.4</ele><time>2026-05-01T14:47:40.004Z</time></trkpt><trkpt lat="42.2752724" lon="14.123191"><ele>315.79999999999995</ele><time>2026-05-01T14:47:41.004Z</time></trkpt><trkpt lat="42.275153" lon="14.1231648"><ele>315.2</ele><time>2026-05-01T14:47:42.004Z</time></trkpt><trkpt lat="42.2750501" lon="14.1231494"><ele>314.59999999999997</ele><time>2026-05-01T14:47:43.004Z</time></trkpt><trkpt lat="42.2749541" lon="14.1231354"><ele>314.0</ele><time>2026-05-01T14:47:44.004Z</time></trkpt><trkpt lat="42.2748559" lon="14.1231298"><ele>315.0</ele><time>2026-05-01T14:47:45.004Z</time></trkpt><trkpt lat="42.274763" lon="14.1231142"><ele>316.0</ele><time>2026-05-01T14:47:46.004Z</time></trkpt><trkpt lat="42.2746772" lon="14.1231014"><ele>317.0</ele><time>2026-05-01T14:47:47.004Z</time></trkpt><trkpt lat="42.2745983" lon="14.1230898"><ele>318.0</ele><time>2026-05-01T14:47:48.004Z</time></trkpt><trkpt lat="42.2745252" lon="14.12308"><ele>319.0</ele><time>2026-05-01T14:47:49.004Z</time></trkpt><trkpt lat="42.274456" lon="14.1230593"><ele>320.0</ele><time>2026-05-01T14:47:50.004Z</time></trkpt><trkpt lat="42.2743865" lon="14.1230214"><ele>320.0</ele><time>2026-05-01T14:47:51.004Z</time></trkpt><trkpt lat="42.2743092" lon="14.1229593"><ele>320.0</ele><time>2026-05-01T14:47:52.004Z</time></trkpt><trkpt lat="42.2742359" lon="14.1229033"><ele>320.0</ele><time>2026-05-01T14:47:53.004Z</time></trkpt><trkpt lat="42.2741652" lon="14.1228526"><ele>320.0</ele><time>2026-05-01T14:47:54.004Z</time></trkpt><trkpt lat="42.2741064" lon="14.122797"><ele>320.0</ele><time>2026-05-01T14:47:55.004Z</time></trkpt><trkpt lat="42.2740545" lon="14.1227285"><ele>320.0</ele><time>2026-05-01T14:47:56.004Z</time></trkpt><trkpt lat="42.2740217" lon="14.1226543"><ele>320.0</ele><time>2026-05-01T14:47:57.004Z</time></trkpt><trkpt lat="42.2739906" lon="14.1225343"><ele>320.0</ele><time>2026-05-01T14:47:59.004Z</time></trkpt><trkpt lat="42.2739225" lon="14.1224296"><ele>320.0</ele><time>2026-05-01T14:49:00.004Z</time></trkpt><trkpt lat="42.2738664" lon="14.1223387"><ele>320.0</ele><time>2026-05-01T14:49:02.004Z</time></trkpt><trkpt lat="42.2737815" lon="14.122249"><ele>320.0</ele><time>2026-05-01T14:49:04.004Z</time></trkpt><trkpt lat="42.2737095" lon="14.1221622"><ele>316.83333333333337</ele><time>2026-05-01T14:49:06.004Z</time></trkpt><trkpt lat="42.273669" lon="14.1220236"><ele>313.6666666666667</ele><time>2026-05-01T14:49:08.004Z</time></trkpt><trkpt lat="42.2736502" lon="14.1219307"><ele>310.5</ele><time>2026-05-01T14:49:09.004Z</time></trkpt><trkpt lat="42.2736297" lon="14.1218269"><ele>307.3333333333333</ele><time>2026-05-01T14:49:10.004Z</time></trkpt><trkpt lat="42.2735963" lon="14.1217351"><ele>304.16666666666663</ele><time>2026-05-01T14:49:11.004Z</time></trkpt><trkpt lat="42.2735559" lon="14.1216572"><ele>301.0</ele><time>2026-05-01T14:49:12.004Z</time></trkpt><trkpt lat="42.2734952" lon="14.1215772"><ele>300.40000000000003</ele><time>2026-05-01T14:49:13.004Z</time></trkpt><trkpt lat="42.2734365" lon="14.1215135"><ele>299.8</ele><time>2026-05-01T14:49:14.004Z</time></trkpt><trkpt lat="42.2733818" lon="14.1214595"><ele>299.20000000000005</ele><time>2026-05-01T14:49:15.004Z</time></trkpt><trkpt lat="42.2732994" lon="14.1213743"><ele>298.6</ele><time>2026-05-01T14:49:17.004Z</time></trkpt><trkpt lat="42.2732473" lon="14.1212469"><ele>298.0</ele><time>2026-05-01T14:49:19.004Z</time></trkpt><trkpt lat="42.2732005" lon="14.1211225"><ele>298.0</ele><time>2026-05-01T14:49:21.004Z</time></trkpt><trkpt lat="42.273113" lon="14.1210315"><ele>298.0</ele><time>2026-05-01T14:49:23.004Z</time></trkpt><trkpt lat="42.2730449" lon="14.120995"><ele>298.0</ele><time>2026-05-01T14:49:24.004Z</time></trkpt><trkpt lat="42.272975" lon="14.1209574"><ele>298.0</ele><time>2026-05-01T14:49:25.004Z</time></trkpt><trkpt lat="42.2729129" lon="14.1209064"><ele>298.0</ele><time>2026-05-01T14:49:26.004Z</time></trkpt><trkpt lat="42.2728557" lon="14.1208575"><ele>298.0</ele><time>2026-05-01T14:49:27.004Z</time></trkpt><trkpt lat="42.272749" lon="14.1207899"><ele>295.5</ele><time>2026-05-01T14:49:29.004Z</time></trkpt><trkpt lat="42.27264" lon="14.1207313"><ele>293.0</ele><time>2026-05-01T14:49:31.004Z</time></trkpt><trkpt lat="42.2725369" lon="14.1206629"><ele>290.5</ele><time>2026-05-01T14:49:33.004Z</time></trkpt><trkpt lat="42.2724786" lon="14.1206139"><ele>288.0</ele><time>2026-05-01T14:49:34.004Z</time></trkpt><trkpt lat="42.2724202" lon="14.1205609"><ele>285.5</ele><time>2026-05-01T14:49:35.004Z</time></trkpt><trkpt lat="42.2723633" lon="14.1205101"><ele>283.0</ele><time>2026-05-01T14:49:36.004Z</time></trkpt><trkpt lat="42.2723084" lon="14.1204574"><ele>282.6</ele><time>2026-05-01T14:49:37.004Z</time></trkpt><trkpt lat="42.2722142" lon="14.1203774"><ele>282.20000000000005</ele><time>2026-05-01T14:49:39.004Z</time></trkpt><trkpt lat="42.2721143" lon="14.1202889"><ele>281.8</ele><time>2026-05-01T14:49:41.004Z</time></trkpt><trkpt lat="42.2720191" lon="14.1202098"><ele>281.40000000000003</ele><time>2026-05-01T14:49:43.004Z</time></trkpt><trkpt lat="42.2719632" lon="14.1201682"><ele>281.0</ele><time>2026-05-01T14:49:44.004Z</time></trkpt><trkpt lat="42.2719092" lon="14.1201195"><ele>281.0</ele><time>2026-05-01T14:49:45.004Z</time></trkpt><trkpt lat="42.271855" lon="14.1200701"><ele>281.0</ele><time>2026-05-01T14:49:46.004Z</time></trkpt><trkpt lat="42.2717966" lon="14.1200227"><ele>281.0</ele><time>2026-05-01T14:49:47.004Z</time></trkpt><trkpt lat="42.2717342" lon="14.1199778"><ele>281.0</ele><time>2026-05-01T14:49:48.004Z</time></trkpt><trkpt lat="42.2716702" lon="14.1199317"><ele>281.0</ele><time>2026-05-01T14:49:49.004Z</time></trkpt><trkpt lat="42.2716105" lon="14.1198942"><ele>281.0</ele><time>2026-05-01T14:49:50.004Z</time></trkpt><trkpt lat="42.2715123" lon="14.1197943"><ele>280.5</ele><time>2026-05-01T14:49:52.004Z</time></trkpt><trkpt lat="42.2714711" lon="14.1197183"><ele>280.0</ele><time>2026-05-01T14:49:53.004Z</time></trkpt><trkpt lat="42.2714308" lon="14.1196245"><ele>279.5</ele><time>2026-05-01T14:49:54.004Z</time></trkpt><trkpt lat="42.2713948" lon="14.1195125"><ele>279.0</ele><time>2026-05-01T14:49:55.004Z</time></trkpt><trkpt lat="42.2713618" lon="14.1193961"><ele>278.5</ele><time>2026-05-01T14:49:56.004Z</time></trkpt><trkpt lat="42.2713231" lon="14.1192796"><ele>278.0</ele><time>2026-05-01T14:49:57.004Z</time></trkpt><trkpt lat="42.2712847" lon="14.1191742"><ele>278.0</ele><time>2026-05-01T14:49:58.004Z</time></trkpt><trkpt lat="42.2712429" lon="14.1190789"><ele>278.0</ele><time>2026-05-01T14:49:59.004Z</time></trkpt><trkpt lat="42.2711963" lon="14.1189911"><ele>278.0</ele><time>2026-05-01T14:50:00.004Z</time></trkpt><trkpt lat="42.2711528" lon="14.1189148"><ele>278.0</ele><time>2026-05-01T14:50:01.004Z</time></trkpt><trkpt lat="42.2711034" lon="14.1188597"><ele>278.0</ele><time>2026-05-01T14:50:02.004Z</time></trkpt><trkpt lat="42.2710426" lon="14.1188111"><ele>278.0</ele><time>2026-05-01T14:50:03.004Z</time></trkpt><trkpt lat="42.2709508" lon="14.1187907"><ele>277.2</ele><time>2026-05-01T14:50:05.004Z</time></trkpt><trkpt lat="42.2708443" lon="14.1187885"><ele>276.4</ele><time>2026-05-01T14:50:07.004Z</time></trkpt><trkpt lat="42.2707639" lon="14.1187714"><ele>275.59999999999997</ele><time>2026-05-01T14:50:08.004Z</time></trkpt><trkpt lat="42.2706719" lon="14.1187573"><ele>274.8</ele><time>2026-05-01T14:50:09.004Z</time></trkpt><trkpt lat="42.2705688" lon="14.1187453"><ele>274.0</ele><time>2026-05-01T14:50:10.004Z</time></trkpt><trkpt lat="42.2704718" lon="14.1187297"><ele>275.59999999999997</ele><time>2026-05-01T14:50:11.004Z</time></trkpt><trkpt lat="42.2703837" lon="14.1187155"><ele>277.2</ele><time>2026-05-01T14:50:12.004Z</time></trkpt><trkpt lat="42.2702932" lon="14.1186817"><ele>278.79999999999995</ele><time>2026-05-01T14:50:13.004Z</time></trkpt><trkpt lat="42.2702082" lon="14.1186307"><ele>280.4</ele><time>2026-05-01T14:50:14.004Z</time></trkpt><trkpt lat="42.2701207" lon="14.1185769"><ele>282.0</ele><time>2026-05-01T14:50:15.004Z</time></trkpt><trkpt lat="42.2700251" lon="14.1185286"><ele>282.0</ele><time>2026-05-01T14:50:16.004Z</time></trkpt><trkpt lat="42.2699375" lon="14.1184865"><ele>282.0</ele><time>2026-05-01T14:50:17.004Z</time></trkpt><trkpt lat="42.2698699" lon="14.1184459"><ele>282.0</ele><time>2026-05-01T14:50:18.004Z</time></trkpt><trkpt lat="42.2698108" lon="14.1183993"><ele>282.0</ele><time>2026-05-01T14:50:19.004Z</time></trkpt><trkpt lat="42.2697578" lon="14.1183424"><ele>282.0</ele><time>2026-05-01T14:50:20.004Z</time></trkpt><trkpt lat="42.2697024" lon="14.1182934"><ele>282.0</ele><time>2026-05-01T14:50:21.004Z</time></trkpt><trkpt lat="42.2696483" lon="14.1182441"><ele>282.0</ele><time>2026-05-01T14:50:22.004Z</time></trkpt><trkpt lat="42.2695531" lon="14.1181356"><ele>279.8333333333333</ele><time>2026-05-01T14:50:24.004Z</time></trkpt><trkpt lat="42.2695063" lon="14.1180612"><ele>277.6666666666667</ele><time>2026-05-01T14:50:25.004Z</time></trkpt><trkpt lat="42.2694568" lon="14.1179812"><ele>275.5</ele><time>2026-05-01T14:50:26.004Z</time></trkpt><trkpt lat="42.2694159" lon="14.117891"><ele>273.33333333333337</ele><time>2026-05-01T14:50:27.004Z</time></trkpt><trkpt lat="42.2693878" lon="14.1177959"><ele>271.1666666666667</ele><time>2026-05-01T14:50:28.004Z</time></trkpt><trkpt lat="42.2693754" lon="14.1176942"><ele>269.0</ele><time>2026-05-01T14:50:29.004Z</time></trkpt><trkpt lat="42.2693763" lon="14.117584"><ele>269.0</ele><time>2026-05-01T14:50:30.004Z</time></trkpt><trkpt lat="42.2693883" lon="14.1174756"><ele>269.0</ele><time>2026-05-01T14:50:31.004Z</time></trkpt><trkpt lat="42.2694218" lon="14.1173692"><ele>269.0</ele><time>2026-05-01T14:50:32.004Z</time></trkpt><trkpt lat="42.2694605" lon="14.1172684"><ele>269.0</ele><time>2026-05-01T14:50:33.004Z</time></trkpt><trkpt lat="42.2695071" lon="14.117173"><ele>269.0</ele><time>2026-05-01T14:50:34.004Z</time></trkpt><trkpt lat="42.2695458" lon="14.1170889"><ele>269.0</ele><time>2026-05-01T14:50:35.004Z</time></trkpt><trkpt lat="42.2695671" lon="14.116997"><ele>267.33333333333337</ele><time>2026-05-01T14:50:36.004Z</time></trkpt><trkpt lat="42.2695718" lon="14.1168882"><ele>265.6666666666667</ele><time>2026-05-01T14:50:37.004Z</time></trkpt><trkpt lat="42.2695714" lon="14.1167734"><ele>264.0</ele><time>2026-05-01T14:50:38.004Z</time></trkpt><trkpt lat="42.2695648" lon="14.1166655"><ele>262.3333333333333</ele><time>2026-05-01T14:50:39.004Z</time></trkpt><trkpt lat="42.2695646" lon="14.1165494"><ele>260.66666666666663</ele><time>2026-05-01T14:50:40.004Z</time></trkpt><trkpt lat="42.2695662" lon="14.1164293"><ele>259.0</ele><time>2026-05-01T14:50:41.004Z</time></trkpt><trkpt lat="42.2695697" lon="14.1163137"><ele>258.0</ele><time>2026-05-01T14:50:42.004Z</time></trkpt><trkpt lat="42.2695698" lon="14.1162009"><ele>257.0</ele><time>2026-05-01T14:50:43.004Z</time></trkpt><trkpt lat="42.26956" lon="14.1160954"><ele>256.0</ele><time>2026-05-01T14:50:44.004Z</time></trkpt><trkpt lat="42.26954" lon="14.1159992"><ele>255.0</ele><time>2026-05-01T14:50:45.004Z</time></trkpt><trkpt lat="42.2695108" lon="14.1159123"><ele>253.99999999999997</ele><time>2026-05-01T14:50:46.004Z</time></trkpt><trkpt lat="42.2694698" lon="14.1158318"><ele>253.0</ele><time>2026-05-01T14:50:47.004Z</time></trkpt><trkpt lat="42.2694172" lon="14.1157633"><ele>252.14285714285717</ele><time>2026-05-01T14:50:48.004Z</time></trkpt><trkpt lat="42.2693563" lon="14.1157096"><ele>251.28571428571428</ele><time>2026-05-01T14:50:49.004Z</time></trkpt><trkpt lat="42.2692954" lon="14.1156623"><ele>250.42857142857144</ele><time>2026-05-01T14:50:50.004Z</time></trkpt><trkpt lat="42.2692373" lon="14.115617"><ele>249.57142857142858</ele><time>2026-05-01T14:50:51.004Z</time></trkpt><trkpt lat="42.2691816" lon="14.115562"><ele>248.71428571428572</ele><time>2026-05-01T14:50:52.004Z</time></trkpt><trkpt lat="42.2691319" lon="14.1154845"><ele>247.85714285714286</ele><time>2026-05-01T14:50:53.004Z</time></trkpt><trkpt lat="42.26909" lon="14.1154067"><ele>247.0</ele><time>2026-05-01T14:50:54.004Z</time></trkpt><trkpt lat="42.2690521" lon="14.1153154"><ele>246.99999999999997</ele><time>2026-05-01T14:50:55.004Z</time></trkpt><trkpt lat="42.2690202" lon="14.1152397"><ele>247.0</ele><time>2026-05-01T14:50:56.004Z</time></trkpt><trkpt lat="42.2689699" lon="14.1151223"><ele>247.0</ele><time>2026-05-01T14:50:58.004Z</time></trkpt><trkpt lat="42.2689478" lon="14.1149987"><ele>247.0</ele><time>2026-05-01T14:51:01.004Z</time></trkpt><trkpt lat="42.268911" lon="14.1148999"><ele>246.99999999999997</ele><time>2026-05-01T14:51:03.004Z</time></trkpt><trkpt lat="42.2688662" lon="14.1147986"><ele>247.0</ele><time>2026-05-01T14:51:05.004Z</time></trkpt><trkpt lat="42.2688154" lon="14.114682"><ele>243.39999999999998</ele><time>2026-05-01T14:51:07.004Z</time></trkpt><trkpt lat="42.2687989" lon="14.1145445"><ele>239.79999999999998</ele><time>2026-05-01T14:51:09.004Z</time></trkpt><trkpt lat="42.2687693" lon="14.1144069"><ele>236.2</ele><time>2026-05-01T14:51:11.004Z</time></trkpt><trkpt lat="42.2687447" lon="14.1143161"><ele>232.6</ele><time>2026-05-01T14:51:12.004Z</time></trkpt><trkpt lat="42.2687248" lon="14.1142037"><ele>229.0</ele><time>2026-05-01T14:51:13.004Z</time></trkpt><trkpt lat="42.2687063" lon="14.1140901"><ele>228.99999999999997</ele><time>2026-05-01T14:51:14.004Z</time></trkpt><trkpt lat="42.2686724" lon="14.1139975"><ele>229.0</ele><time>2026-05-01T14:51:15.004Z</time></trkpt><trkpt lat="42.2686156" lon="14.1139252"><ele>229.0</ele><time>2026-05-01T14:51:16.004Z</time></trkpt><trkpt lat="42.2685462" lon="14.1138648"><ele>229.0</ele><time>2026-05-01T14:51:17.004Z</time></trkpt><trkpt lat="42.2684621" lon="14.1138071"><ele>228.99999999999997</ele><time>2026-05-01T14:51:18.004Z</time></trkpt><trkpt lat="42.2683793" lon="14.1137412"><ele>229.0</ele><time>2026-05-01T14:51:19.004Z</time></trkpt><trkpt lat="42.2683061" lon="14.1136737"><ele>228.99999999999997</ele><time>2026-05-01T14:51:20.004Z</time></trkpt><trkpt lat="42.2682358" lon="14.1136248"><ele>229.0</ele><time>2026-05-01T14:51:21.004Z</time></trkpt><trkpt lat="42.2681623" lon="14.1135847"><ele>229.0</ele><time>2026-05-01T14:51:22.004Z</time></trkpt><trkpt lat="42.268094" lon="14.1135291"><ele>229.0</ele><time>2026-05-01T14:51:23.004Z</time></trkpt><trkpt lat="42.2680275" lon="14.1134364"><ele>228.99999999999997</ele><time>2026-05-01T14:51:24.004Z</time></trkpt><trkpt lat="42.2679615" lon="14.1133322"><ele>229.0</ele><time>2026-05-01T14:51:25.004Z</time></trkpt><trkpt lat="42.2678876" lon="14.1132172"><ele>229.79999999999998</ele><time>2026-05-01T14:51:26.004Z</time></trkpt><trkpt lat="42.2678309" lon="14.1131139"><ele>230.59999999999997</ele><time>2026-05-01T14:51:27.004Z</time></trkpt><trkpt lat="42.2677854" lon="14.1130093"><ele>231.4</ele><time>2026-05-01T14:51:28.004Z</time></trkpt><trkpt lat="42.2677378" lon="14.112907"><ele>232.2</ele><time>2026-05-01T14:51:29.004Z</time></trkpt><trkpt lat="42.2676636" lon="14.1128153"><ele>233.0</ele><time>2026-05-01T14:51:30.004Z</time></trkpt><trkpt lat="42.2675825" lon="14.1127173"><ele>233.0</ele><time>2026-05-01T14:51:31.004Z</time></trkpt><trkpt lat="42.2675075" lon="14.112628"><ele>233.0</ele><time>2026-05-01T14:51:32.004Z</time></trkpt><trkpt lat="42.2674512" lon="14.112539"><ele>233.0</ele><time>2026-05-01T14:51:33.004Z</time></trkpt><trkpt lat="42.2674128" lon="14.1124496"><ele>233.0</ele><time>2026-05-01T14:51:34.004Z</time></trkpt><trkpt lat="42.2673776" lon="14.1123271"><ele>233.0</ele><time>2026-05-01T14:51:35.004Z</time></trkpt><trkpt lat="42.2673478" lon="14.1121923"><ele>232.2</ele><time>2026-05-01T14:51:36.004Z</time></trkpt><trkpt lat="42.2673123" lon="14.112055"><ele>231.4</ele><time>2026-05-01T14:51:37.004Z</time></trkpt><trkpt lat="42.2672823" lon="14.1119259"><ele>230.59999999999997</ele><time>2026-05-01T14:51:38.004Z</time></trkpt><trkpt lat="42.2672514" lon="14.1117956"><ele>229.79999999999998</ele><time>2026-05-01T14:51:39.004Z</time></trkpt><trkpt lat="42.2672147" lon="14.1116759"><ele>229.0</ele><time>2026-05-01T14:51:40.004Z</time></trkpt><trkpt lat="42.2671791" lon="14.1115616"><ele>232.0</ele><time>2026-05-01T14:51:41.004Z</time></trkpt><trkpt lat="42.2671477" lon="14.111455"><ele>234.99999999999997</ele><time>2026-05-01T14:51:42.004Z</time></trkpt><trkpt lat="42.2671161" lon="14.1113543"><ele>237.99999999999997</ele><time>2026-05-01T14:51:43.004Z</time></trkpt><trkpt lat="42.2670806" lon="14.1112473"><ele>241.0</ele><time>2026-05-01T14:51:44.004Z</time></trkpt><trkpt lat="42.2670427" lon="14.1111271"><ele>244.0</ele><time>2026-05-01T14:51:45.004Z</time></trkpt><trkpt lat="42.2669992" lon="14.111"><ele>243.99999999999997</ele><time>2026-05-01T14:51:46.004Z</time></trkpt><trkpt lat="42.2669552" lon="14.1108807"><ele>244.0</ele><time>2026-05-01T14:51:47.004Z</time></trkpt><trkpt lat="42.2669206" lon="14.1107708"><ele>244.0</ele><time>2026-05-01T14:51:48.004Z</time></trkpt><trkpt lat="42.2668847" lon="14.1106716"><ele>244.0</ele><time>2026-05-01T14:51:49.004Z</time></trkpt><trkpt lat="42.266861" lon="14.1105714"><ele>243.99999999999997</ele><time>2026-05-01T14:51:50.004Z</time></trkpt><trkpt lat="42.2668387" lon="14.1104496"><ele>244.0</ele><time>2026-05-01T14:51:51.004Z</time></trkpt><trkpt lat="42.266818" lon="14.1103307"><ele>244.6</ele><time>2026-05-01T14:51:52.004Z</time></trkpt><trkpt lat="42.2668014" lon="14.1102007"><ele>245.2</ele><time>2026-05-01T14:51:53.004Z</time></trkpt><trkpt lat="42.2667877" lon="14.1100715"><ele>245.79999999999998</ele><time>2026-05-01T14:51:54.004Z</time></trkpt><trkpt lat="42.2667711" lon="14.1099443"><ele>246.39999999999998</ele><time>2026-05-01T14:51:55.004Z</time></trkpt><trkpt lat="42.2667389" lon="14.1098318"><ele>247.0</ele><time>2026-05-01T14:51:56.004Z</time></trkpt><trkpt lat="42.2667019" lon="14.1097487"><ele>248.66666666666666</ele><time>2026-05-01T14:51:57.004Z</time></trkpt><trkpt lat="42.2666621" lon="14.109662"><ele>250.33333333333331</ele><time>2026-05-01T14:51:58.004Z</time></trkpt><trkpt lat="42.2666251" lon="14.1095746"><ele>252.0</ele><time>2026-05-01T14:51:59.004Z</time></trkpt><trkpt lat="42.2665867" lon="14.1094897"><ele>253.66666666666669</ele><time>2026-05-01T14:52:00.004Z</time></trkpt><trkpt lat="42.2665432" lon="14.1093895"><ele>255.33333333333334</ele><time>2026-05-01T14:52:01.004Z</time></trkpt><trkpt lat="42.2664942" lon="14.1092874"><ele>257.0</ele><time>2026-05-01T14:52:02.004Z</time></trkpt><trkpt lat="42.2664473" lon="14.1091931"><ele>256.1666666666667</ele><time>2026-05-01T14:52:03.004Z</time></trkpt><trkpt lat="42.2664082" lon="14.1090999"><ele>255.33333333333334</ele><time>2026-05-01T14:52:04.004Z</time></trkpt><trkpt lat="42.2663642" lon="14.109017"><ele>254.5</ele><time>2026-05-01T14:52:05.004Z</time></trkpt><trkpt lat="42.2663168" lon="14.1089394"><ele>253.66666666666669</ele><time>2026-05-01T14:52:06.004Z</time></trkpt><trkpt lat="42.2662692" lon="14.1088596"><ele>252.83333333333334</ele><time>2026-05-01T14:52:07.004Z</time></trkpt><trkpt lat="42.2662153" lon="14.1087777"><ele>252.0</ele><time>2026-05-01T14:52:08.004Z</time></trkpt><trkpt lat="42.2661525" lon="14.1086893"><ele>254.5</ele><time>2026-05-01T14:52:09.004Z</time></trkpt><trkpt lat="42.2660926" lon="14.1086043"><ele>257.0</ele><time>2026-05-01T14:52:10.004Z</time></trkpt><trkpt lat="42.2660374" lon="14.108522"><ele>259.5</ele><time>2026-05-01T14:52:11.004Z</time></trkpt><trkpt lat="42.2659796" lon="14.1084348"><ele>262.0</ele><time>2026-05-01T14:52:12.004Z</time></trkpt><trkpt lat="42.265921" lon="14.108339"><ele>264.5</ele><time>2026-05-01T14:52:13.004Z</time></trkpt><trkpt lat="42.2658646" lon="14.1082384"><ele>267.0</ele><time>2026-05-01T14:52:14.004Z</time></trkpt><trkpt lat="42.265816" lon="14.1081326"><ele>267.4</ele><time>2026-05-01T14:52:15.004Z</time></trkpt><trkpt lat="42.2657745" lon="14.1080292"><ele>267.79999999999995</ele><time>2026-05-01T14:52:16.004Z</time></trkpt><trkpt lat="42.2657327" lon="14.1079213"><ele>268.2</ele><time>2026-05-01T14:52:17.004Z</time></trkpt><trkpt lat="42.2656905" lon="14.107807"><ele>268.59999999999997</ele><time>2026-05-01T14:52:18.004Z</time></trkpt><trkpt lat="42.2656452" lon="14.107687"><ele>269.0</ele><time>2026-05-01T14:52:19.004Z</time></trkpt><trkpt lat="42.2655986" lon="14.1075693"><ele>269.1666666666667</ele><time>2026-05-01T14:52:20.004Z</time></trkpt><trkpt lat="42.26554" lon="14.1074578"><ele>269.33333333333337</ele><time>2026-05-01T14:52:21.004Z</time></trkpt><trkpt lat="42.2654838" lon="14.1073634"><ele>269.5</ele><time>2026-05-01T14:52:22.004Z</time></trkpt><trkpt lat="42.265439" lon="14.1072736"><ele>269.6666666666667</ele><time>2026-05-01T14:52:23.004Z</time></trkpt><trkpt lat="42.2654035" lon="14.1071897"><ele>269.8333333333333</ele><time>2026-05-01T14:52:24.004Z</time></trkpt><trkpt lat="42.265357" lon="14.1070829"><ele>270.0</ele><time>2026-05-01T14:52:26.004Z</time></trkpt><trkpt lat="42.265349" lon="14.1069575"><ele>270.0</ele><time>2026-05-01T14:52:44.004Z</time></trkpt><trkpt lat="42.2654091" lon="14.1068751"><ele>270.0</ele><time>2026-05-01T14:52:46.004Z</time></trkpt><trkpt lat="42.2654597" lon="14.1067752"><ele>270.0</ele><time>2026-05-01T14:52:48.004Z</time></trkpt><trkpt lat="42.2655083" lon="14.1066709"><ele>270.0</ele><time>2026-05-01T14:52:50.004Z</time></trkpt><trkpt lat="42.2655539" lon="14.1065733"><ele>270.0</ele><time>2026-05-01T14:52:52.004Z</time></trkpt><trkpt lat="42.2656045" lon="14.1064947"><ele>270.0</ele><time>2026-05-01T14:52:54.004Z</time></trkpt><trkpt lat="42.2656673" lon="14.1064436"><ele>265.8333333333333</ele><time>2026-05-01T14:52:56.004Z</time></trkpt><trkpt lat="42.2657472" lon="14.1063873"><ele>261.6666666666667</ele><time>2026-05-01T14:52:59.004Z</time></trkpt><trkpt lat="42.2658131" lon="14.1063477"><ele>257.5</ele><time>2026-05-01T14:53:01.004Z</time></trkpt><trkpt lat="42.2658853" lon="14.1063058"><ele>253.33333333333334</ele><time>2026-05-01T14:53:03.004Z</time></trkpt><trkpt lat="42.2659423" lon="14.1062478"><ele>249.16666666666669</ele><time>2026-05-01T14:53:05.004Z</time></trkpt><trkpt lat="42.2659942" lon="14.1061893"><ele>245.0</ele><time>2026-05-01T14:53:07.004Z</time></trkpt><trkpt lat="42.2660473" lon="14.1061121"><ele>245.00000000000003</ele><time>2026-05-01T14:53:10.004Z</time></trkpt><trkpt lat="42.2660865" lon="14.1060326"><ele>245.0</ele><time>2026-05-01T14:53:18.004Z</time></trkpt><trkpt lat="42.2661251" lon="14.1059432"><ele>245.0</ele><time>2026-05-01T14:53:24.004Z</time></trkpt><trkpt lat="42.2661634" lon="14.1058598"><ele>245.0</ele><time>2026-05-01T14:53:34.004Z</time></trkpt><trkpt lat="42.2661846" lon="14.105741"><ele>245.00000000000003</ele><time>2026-05-01T14:53:43.004Z</time></trkpt><trkpt lat="42.2662158" lon="14.1056466"><ele>245.0</ele><time>2026-05-01T14:53:46.004Z</time></trkpt><trkpt lat="42.2662339" lon="14.1055594"><ele>240.4</ele><time>2026-05-01T14:53:51.004Z</time></trkpt><trkpt lat="42.2662926" lon="14.1054546"><ele>235.8</ele><time>2026-05-01T14:53:56.004Z</time></trkpt><trkpt lat="42.2663061" lon="14.1053511"><ele>231.2</ele><time>2026-05-01T14:53:58.004Z</time></trkpt><trkpt lat="42.2663287" lon="14.1052072"><ele>226.6</ele><time>2026-05-01T14:54:00.004Z</time></trkpt><trkpt lat="42.2663516" lon="14.1050813"><ele>222.0</ele><time>2026-05-01T14:54:02.004Z</time></trkpt><trkpt lat="42.266406" lon="14.1049999"><ele>219.33333333333334</ele><time>2026-05-01T14:54:04.004Z</time></trkpt><trkpt lat="42.2664891" lon="14.1049082"><ele>216.66666666666669</ele><time>2026-05-01T14:54:06.004Z</time></trkpt><trkpt lat="42.2665449" lon="14.104856"><ele>214.0</ele><time>2026-05-01T14:54:07.004Z</time></trkpt><trkpt lat="42.2666084" lon="14.1048104"><ele>211.33333333333334</ele><time>2026-05-01T14:54:08.004Z</time></trkpt><trkpt lat="42.2666753" lon="14.1047768"><ele>208.66666666666669</ele><time>2026-05-01T14:54:09.004Z</time></trkpt><trkpt lat="42.2667484" lon="14.1047538"><ele>206.0</ele><time>2026-05-01T14:54:10.004Z</time></trkpt><trkpt lat="42.2668224" lon="14.1047388"><ele>206.00000000000003</ele><time>2026-05-01T14:54:11.004Z</time></trkpt><trkpt lat="42.2669008" lon="14.1047328"><ele>206.0</ele><time>2026-05-01T14:54:12.004Z</time></trkpt><trkpt lat="42.266985" lon="14.1047187"><ele>206.0</ele><time>2026-05-01T14:54:13.004Z</time></trkpt><trkpt lat="42.2670638" lon="14.1047087"><ele>206.0</ele><time>2026-05-01T14:54:14.004Z</time></trkpt><trkpt lat="42.2671461" lon="14.1046897"><ele>206.00000000000003</ele><time>2026-05-01T14:54:15.004Z</time></trkpt><trkpt lat="42.2672272" lon="14.1046714"><ele>206.0</ele><time>2026-05-01T14:54:16.004Z</time></trkpt><trkpt lat="42.2673079" lon="14.1046516"><ele>206.60000000000002</ele><time>2026-05-01T14:54:17.004Z</time></trkpt><trkpt lat="42.2673853" lon="14.1046301"><ele>207.2</ele><time>2026-05-01T14:54:18.004Z</time></trkpt><trkpt lat="42.2674704" lon="14.1046093"><ele>207.8</ele><time>2026-05-01T14:54:19.004Z</time></trkpt><trkpt lat="42.26757" lon="14.1045952"><ele>208.39999999999998</ele><time>2026-05-01T14:54:20.004Z</time></trkpt><trkpt lat="42.2676677" lon="14.1045872"><ele>209.0</ele><time>2026-05-01T14:54:21.004Z</time></trkpt><trkpt lat="42.2677709" lon="14.1045762"><ele>209.0</ele><time>2026-05-01T14:54:22.004Z</time></trkpt><trkpt lat="42.2678742" lon="14.104559"><ele>209.0</ele><time>2026-05-01T14:54:23.004Z</time></trkpt><trkpt lat="42.2679789" lon="14.1045409"><ele>209.0</ele><time>2026-05-01T14:54:24.004Z</time></trkpt><trkpt lat="42.2680897" lon="14.1045214"><ele>209.0</ele><time>2026-05-01T14:54:25.004Z</time></trkpt><trkpt lat="42.2681934" lon="14.1044893"><ele>209.0</ele><time>2026-05-01T14:54:26.004Z</time></trkpt><trkpt lat="42.2683023" lon="14.1044622"><ele>209.83333333333334</ele><time>2026-05-01T14:54:27.004Z</time></trkpt><trkpt lat="42.2684067" lon="14.1044324"><ele>210.66666666666669</ele><time>2026-05-01T14:54:28.004Z</time></trkpt><trkpt lat="42.2684928" lon="14.1044078"><ele>211.5</ele><time>2026-05-01T14:54:29.004Z</time></trkpt><trkpt lat="42.2685655" lon="14.1043949"><ele>212.33333333333331</ele><time>2026-05-01T14:54:30.004Z</time></trkpt><trkpt lat="42.2686305" lon="14.104399"><ele>213.16666666666666</ele><time>2026-05-01T14:54:31.004Z</time></trkpt><trkpt lat="42.2686943" lon="14.1044173"><ele>214.0</ele><time>2026-05-01T14:54:32.004Z</time></trkpt><trkpt lat="42.2687693" lon="14.1044328"><ele>213.99999999999997</ele><time>2026-05-01T14:54:33.004Z</time></trkpt><trkpt lat="42.2688433" lon="14.1044436"><ele>214.0</ele><time>2026-05-01T14:54:34.004Z</time></trkpt><trkpt lat="42.2689227" lon="14.1044586"><ele>214.0</ele><time>2026-05-01T14:54:35.004Z</time></trkpt><trkpt lat="42.2690033" lon="14.1044898"><ele>214.0</ele><time>2026-05-01T14:54:36.004Z</time></trkpt><trkpt lat="42.2690862" lon="14.1045203"><ele>213.99999999999997</ele><time>2026-05-01T14:54:37.004Z</time></trkpt><trkpt lat="42.2691547" lon="14.1045359"><ele>214.0</ele><time>2026-05-01T14:54:38.004Z</time></trkpt><trkpt lat="42.2692616" lon="14.1045666"><ele>213.79999999999998</ele><time>2026-05-01T14:54:40.004Z</time></trkpt><trkpt lat="42.2693691" lon="14.104611"><ele>213.59999999999997</ele><time>2026-05-01T14:54:42.004Z</time></trkpt><trkpt lat="42.269487" lon="14.1046297"><ele>213.4</ele><time>2026-05-01T14:54:44.004Z</time></trkpt><trkpt lat="42.2695852" lon="14.1046035"><ele>213.2</ele><time>2026-05-01T14:54:46.004Z</time></trkpt><trkpt lat="42.2696773" lon="14.1045932"><ele>213.0</ele><time>2026-05-01T14:54:48.004Z</time></trkpt><trkpt lat="42.2698018" lon="14.1045766"><ele>213.83333333333334</ele><time>2026-05-01T14:54:50.004Z</time></trkpt><trkpt lat="42.2698724" lon="14.1045775"><ele>214.66666666666669</ele><time>2026-05-01T14:54:51.004Z</time></trkpt><trkpt lat="42.2699435" lon="14.1045899"><ele>215.5</ele><time>2026-05-01T14:54:52.004Z</time></trkpt><trkpt lat="42.2700131" lon="14.1046034"><ele>216.33333333333334</ele><time>2026-05-01T14:54:53.004Z</time></trkpt><trkpt lat="42.2700902" lon="14.1046128"><ele>217.16666666666669</ele><time>2026-05-01T14:54:54.004Z</time></trkpt><trkpt lat="42.2701767" lon="14.1046219"><ele>218.0</ele><time>2026-05-01T14:54:55.004Z</time></trkpt><trkpt lat="42.2702727" lon="14.1046285"><ele>218.00000000000003</ele><time>2026-05-01T14:54:56.004Z</time></trkpt><trkpt lat="42.2703677" lon="14.1046285"><ele>218.0</ele><time>2026-05-01T14:54:57.004Z</time></trkpt><trkpt lat="42.2704559" lon="14.1046249"><ele>218.0</ele><time>2026-05-01T14:54:58.004Z</time></trkpt><trkpt lat="42.270539" lon="14.1046221"><ele>218.0</ele><time>2026-05-01T14:54:59.004Z</time></trkpt><trkpt lat="42.2706117" lon="14.1046133"><ele>218.00000000000003</ele><time>2026-05-01T14:55:00.004Z</time></trkpt><trkpt lat="42.2706908" lon="14.1045975"><ele>218.0</ele><time>2026-05-01T14:55:01.004Z</time></trkpt><trkpt lat="42.2707736" lon="14.1045797"><ele>217.60000000000002</ele><time>2026-05-01T14:55:02.004Z</time></trkpt><trkpt lat="42.2708633" lon="14.1045638"><ele>217.20000000000002</ele><time>2026-05-01T14:55:03.004Z</time></trkpt><trkpt lat="42.2709558" lon="14.1045375"><ele>216.8</ele><time>2026-05-01T14:55:04.004Z</time></trkpt><trkpt lat="42.2710549" lon="14.1045104"><ele>216.4</ele><time>2026-05-01T14:55:05.004Z</time></trkpt><trkpt lat="42.2711516" lon="14.1044793"><ele>216.0</ele><time>2026-05-01T14:55:06.004Z</time></trkpt><trkpt lat="42.2712469" lon="14.1044582"><ele>216.0</ele><time>2026-05-01T14:55:07.004Z</time></trkpt><trkpt lat="42.2713432" lon="14.1044503"><ele>216.0</ele><time>2026-05-01T14:55:08.004Z</time></trkpt><trkpt lat="42.2714363" lon="14.1044496"><ele>216.0</ele><time>2026-05-01T14:55:09.004Z</time></trkpt><trkpt lat="42.2715224" lon="14.1044466"><ele>216.0</ele><time>2026-05-01T14:55:10.004Z</time></trkpt><trkpt lat="42.2715992" lon="14.1044283"><ele>216.0</ele><time>2026-05-01T14:55:11.004Z</time></trkpt><trkpt lat="42.2716825" lon="14.1043706"><ele>216.0</ele><time>2026-05-01T14:55:12.004Z</time></trkpt><trkpt lat="42.2717538" lon="14.1043057"><ele>214.83333333333334</ele><time>2026-05-01T14:55:13.004Z</time></trkpt><trkpt lat="42.2718263" lon="14.1042291"><ele>213.66666666666669</ele><time>2026-05-01T14:55:14.004Z</time></trkpt><trkpt lat="42.2718991" lon="14.1041436"><ele>212.5</ele><time>2026-05-01T14:55:15.004Z</time></trkpt><trkpt lat="42.2719611" lon="14.1040514"><ele>211.33333333333334</ele><time>2026-05-01T14:55:16.004Z</time></trkpt><trkpt lat="42.2720075" lon="14.1039655"><ele>210.16666666666669</ele><time>2026-05-01T14:55:17.004Z</time></trkpt><trkpt lat="42.2720442" lon="14.1038692"><ele>209.0</ele><time>2026-05-01T14:55:18.005Z</time></trkpt><trkpt lat="42.2720732" lon="14.1037604"><ele>206.2</ele><time>2026-05-01T14:55:19.004Z</time></trkpt><trkpt lat="42.2721006" lon="14.1036418"><ele>203.39999999999998</ele><time>2026-05-01T14:55:20.004Z</time></trkpt><trkpt lat="42.2721349" lon="14.1035129"><ele>200.6</ele><time>2026-05-01T14:55:21.004Z</time></trkpt><trkpt lat="42.2721693" lon="14.1033804"><ele>197.8</ele><time>2026-05-01T14:55:22.004Z</time></trkpt><trkpt lat="42.2721859" lon="14.1032423"><ele>195.0</ele><time>2026-05-01T14:55:23.004Z</time></trkpt><trkpt lat="42.2721931" lon="14.1030961"><ele>192.8</ele><time>2026-05-01T14:55:24.004Z</time></trkpt><trkpt lat="42.2722068" lon="14.1029597"><ele>190.6</ele><time>2026-05-01T14:55:25.004Z</time></trkpt><trkpt lat="42.2722223" lon="14.1028394"><ele>188.39999999999998</ele><time>2026-05-01T14:55:26.004Z</time></trkpt><trkpt lat="42.2722595" lon="14.102737"><ele>186.2</ele><time>2026-05-01T14:55:27.004Z</time></trkpt><trkpt lat="42.2723317" lon="14.1026581"><ele>184.0</ele><time>2026-05-01T14:55:28.004Z</time></trkpt><trkpt lat="42.2724296" lon="14.1025762"><ele>186.0</ele><time>2026-05-01T14:55:29.004Z</time></trkpt><trkpt lat="42.2725369" lon="14.1024803"><ele>188.0</ele><time>2026-05-01T14:55:30.004Z</time></trkpt><trkpt lat="42.2726388" lon="14.102381"><ele>190.0</ele><time>2026-05-01T14:55:31.004Z</time></trkpt><trkpt lat="42.2727246" lon="14.1022755"><ele>192.0</ele><time>2026-05-01T14:55:32.004Z</time></trkpt><trkpt lat="42.2727911" lon="14.1021674"><ele>192.0</ele><time>2026-05-01T14:55:33.004Z</time></trkpt><trkpt lat="42.2728359" lon="14.1020286"><ele>192.0</ele><time>2026-05-01T14:55:34.004Z</time></trkpt><trkpt lat="42.2728652" lon="14.1018877"><ele>192.0</ele><time>2026-05-01T14:55:35.004Z</time></trkpt><trkpt lat="42.2729136" lon="14.1017519"><ele>192.0</ele><time>2026-05-01T14:55:36.004Z</time></trkpt><trkpt lat="42.2729761" lon="14.101627"><ele>192.0</ele><time>2026-05-01T14:55:37.004Z</time></trkpt><trkpt lat="42.2730522" lon="14.1015186"><ele>191.8</ele><time>2026-05-01T14:55:38.004Z</time></trkpt><trkpt lat="42.2731328" lon="14.1014603"><ele>191.6</ele><time>2026-05-01T14:55:39.004Z</time></trkpt><trkpt lat="42.2732218" lon="14.1014442"><ele>191.4</ele><time>2026-05-01T14:55:40.004Z</time></trkpt><trkpt lat="42.2733171" lon="14.1014758"><ele>191.20000000000002</ele><time>2026-05-01T14:55:41.004Z</time></trkpt><trkpt lat="42.2734428" lon="14.1015217"><ele>191.0</ele><time>2026-05-01T14:55:42.004Z</time></trkpt><trkpt lat="42.2735883" lon="14.101577"><ele>189.0</ele><time>2026-05-01T14:55:43.004Z</time></trkpt><trkpt lat="42.2737384" lon="14.1016333"><ele>187.0</ele><time>2026-05-01T14:55:44.004Z</time></trkpt><trkpt lat="42.2738843" lon="14.1016928"><ele>185.0</ele><time>2026-05-01T14:55:45.004Z</time></trkpt><trkpt lat="42.2740233" lon="14.1017429"><ele>185.0</ele><time>2026-05-01T14:55:46.004Z</time></trkpt><trkpt lat="42.2741535" lon="14.1017737"><ele>185.0</ele><time>2026-05-01T14:55:47.004Z</time></trkpt><trkpt lat="42.2742781" lon="14.1017722"><ele>185.0</ele><time>2026-05-01T14:55:48.004Z</time></trkpt><trkpt lat="42.2743933" lon="14.1017515"><ele>185.0</ele><time>2026-05-01T14:55:49.004Z</time></trkpt><trkpt lat="42.2744941" lon="14.101712"><ele>185.0</ele><time>2026-05-01T14:55:50.004Z</time></trkpt><trkpt lat="42.2745762" lon="14.1016525"><ele>185.0</ele><time>2026-05-01T14:55:51.004Z</time></trkpt><trkpt lat="42.274644" lon="14.1015924"><ele>185.0</ele><time>2026-05-01T14:55:52.004Z</time></trkpt><trkpt lat="42.2747014" lon="14.101533"><ele>185.0</ele><time>2026-05-01T14:55:53.004Z</time></trkpt><trkpt lat="42.2747532" lon="14.1014668"><ele>185.0</ele><time>2026-05-01T14:55:54.004Z</time></trkpt><trkpt lat="42.2748048" lon="14.101398"><ele>185.0</ele><time>2026-05-01T14:55:55.004Z</time></trkpt><trkpt lat="42.274849" lon="14.1013235"><ele>184.0</ele><time>2026-05-01T14:55:56.004Z</time></trkpt><trkpt lat="42.27489" lon="14.1012484"><ele>183.0</ele><time>2026-05-01T14:55:57.004Z</time></trkpt><trkpt lat="42.2749259" lon="14.1011562"><ele>182.0</ele><time>2026-05-01T14:55:58.004Z</time></trkpt><trkpt lat="42.2749654" lon="14.1010506"><ele>181.0</ele><time>2026-05-01T14:55:59.004Z</time></trkpt><trkpt lat="42.2750073" lon="14.1009326"><ele>180.0</ele><time>2026-05-01T14:56:00.004Z</time></trkpt><trkpt lat="42.2750533" lon="14.1008106"><ele>179.0</ele><time>2026-05-01T14:56:01.004Z</time></trkpt><trkpt lat="42.2751006" lon="14.1006805"><ele>177.75</ele><time>2026-05-01T14:56:02.004Z</time></trkpt><trkpt lat="42.2751494" lon="14.1005558"><ele>176.5</ele><time>2026-05-01T14:56:03.004Z</time></trkpt><trkpt lat="42.2752019" lon="14.1004222"><ele>175.25</ele><time>2026-05-01T14:56:04.004Z</time></trkpt><trkpt lat="42.2752599" lon="14.1002866"><ele>174.0</ele><time>2026-05-01T14:56:05.004Z</time></trkpt><trkpt lat="42.2753161" lon="14.1001442"><ele>174.0</ele><time>2026-05-01T14:56:06.004Z</time></trkpt><trkpt lat="42.2753724" lon="14.0999931"><ele>174.0</ele><time>2026-05-01T14:56:07.004Z</time></trkpt><trkpt lat="42.2754288" lon="14.0998526"><ele>174.0</ele><time>2026-05-01T14:56:08.004Z</time></trkpt><trkpt lat="42.2754714" lon="14.0996968"><ele>174.0</ele><time>2026-05-01T14:56:09.004Z</time></trkpt><trkpt lat="42.2754871" lon="14.0995279"><ele>174.25</ele><time>2026-05-01T14:56:10.004Z</time></trkpt><trkpt lat="42.275483" lon="14.0993433"><ele>174.5</ele><time>2026-05-01T14:56:11.004Z</time></trkpt><trkpt lat="42.2754635" lon="14.0991425"><ele>174.75</ele><time>2026-05-01T14:56:12.004Z</time></trkpt><trkpt lat="42.2754245" lon="14.0989329"><ele>175.0</ele><time>2026-05-01T14:56:13.004Z</time></trkpt><trkpt lat="42.2753848" lon="14.098717"><ele>176.25</ele><time>2026-05-01T14:56:14.004Z</time></trkpt><trkpt lat="42.2753528" lon="14.0985185"><ele>177.5</ele><time>2026-05-01T14:56:15.004Z</time></trkpt><trkpt lat="42.2753306" lon="14.0983238"><ele>178.75</ele><time>2026-05-01T14:56:16.004Z</time></trkpt><trkpt lat="42.2753146" lon="14.0981412"><ele>180.0</ele><time>2026-05-01T14:56:17.004Z</time></trkpt><trkpt lat="42.275307" lon="14.0979501"><ele>180.0</ele><time>2026-05-01T14:56:18.004Z</time></trkpt><trkpt lat="42.2753116" lon="14.0977473"><ele>180.0</ele><time>2026-05-01T14:56:19.004Z</time></trkpt><trkpt lat="42.2753265" lon="14.097548"><ele>180.0</ele><time>2026-05-01T14:56:20.004Z</time></trkpt><trkpt lat="42.2753412" lon="14.0973474"><ele>180.0</ele><time>2026-05-01T14:56:21.004Z</time></trkpt><trkpt lat="42.2753629" lon="14.0971424"><ele>178.33333333333334</ele><time>2026-05-01T14:56:22.004Z</time></trkpt><trkpt lat="42.2753848" lon="14.0969402"><ele>176.66666666666669</ele><time>2026-05-01T14:56:23.004Z</time></trkpt><trkpt lat="42.2754027" lon="14.0967344"><ele>175.0</ele><time>2026-05-01T14:56:24.004Z</time></trkpt><trkpt lat="42.2754246" lon="14.0965292"><ele>173.25</ele><time>2026-05-01T14:56:25.004Z</time></trkpt><trkpt lat="42.2754441" lon="14.0963314"><ele>171.5</ele><time>2026-05-01T14:56:26.004Z</time></trkpt><trkpt lat="42.2754677" lon="14.0961292"><ele>169.75</ele><time>2026-05-01T14:56:27.004Z</time></trkpt><trkpt lat="42.2754999" lon="14.0959446"><ele>168.0</ele><time>2026-05-01T14:56:28.004Z</time></trkpt><trkpt lat="42.2755347" lon="14.0957692"><ele>167.5</ele><time>2026-05-01T14:56:29.004Z</time></trkpt><trkpt lat="42.2755605" lon="14.0956182"><ele>167.0</ele><time>2026-05-01T14:56:30.004Z</time></trkpt><trkpt lat="42.2755722" lon="14.0954861"><ele>166.5</ele><time>2026-05-01T14:56:31.004Z</time></trkpt><trkpt lat="42.275584" lon="14.0953735"><ele>166.0</ele><time>2026-05-01T14:56:32.004Z</time></trkpt><trkpt lat="42.2756006" lon="14.0952708"><ele>165.5</ele><time>2026-05-01T14:56:33.004Z</time></trkpt><trkpt lat="42.2756405" lon="14.0951914"><ele>165.0</ele><time>2026-05-01T14:56:34.004Z</time></trkpt><trkpt lat="42.275711" lon="14.095144"><ele>165.0</ele><time>2026-05-01T14:56:35.004Z</time></trkpt><trkpt lat="42.2758117" lon="14.0950875"><ele>165.0</ele><time>2026-05-01T14:56:36.004Z</time></trkpt><trkpt lat="42.2759375" lon="14.0950207"><ele>165.0</ele><time>2026-05-01T14:56:37.004Z</time></trkpt><trkpt lat="42.2760837" lon="14.0949393"><ele>165.0</ele><time>2026-05-01T14:56:38.004Z</time></trkpt><trkpt lat="42.2762349" lon="14.0948533"><ele>162.25</ele><time>2026-05-01T14:56:39.004Z</time></trkpt><trkpt lat="42.2763809" lon="14.0947738"><ele>159.5</ele><time>2026-05-01T14:56:40.004Z</time></trkpt><trkpt lat="42.2765163" lon="14.0946889"><ele>156.75</ele><time>2026-05-01T14:56:41.004Z</time></trkpt><trkpt lat="42.2766343" lon="14.0945905"><ele>154.0</ele><time>2026-05-01T14:56:42.004Z</time></trkpt><trkpt lat="42.2767305" lon="14.0944661"><ele>154.0</ele><time>2026-05-01T14:56:43.004Z</time></trkpt><trkpt lat="42.2768093" lon="14.0943166"><ele>154.0</ele><time>2026-05-01T14:56:44.004Z</time></trkpt><trkpt lat="42.2768585" lon="14.0941519"><ele>154.0</ele><time>2026-05-01T14:56:45.004Z</time></trkpt><trkpt lat="42.276895" lon="14.0939618"><ele>154.0</ele><time>2026-05-01T14:56:46.004Z</time></trkpt><trkpt lat="42.27693" lon="14.0937554"><ele>151.0</ele><time>2026-05-01T14:56:47.004Z</time></trkpt><trkpt lat="42.2769741" lon="14.0935368"><ele>148.0</ele><time>2026-05-01T14:56:48.004Z</time></trkpt><trkpt lat="42.27702" lon="14.0933174"><ele>145.0</ele><time>2026-05-01T14:56:49.004Z</time></trkpt><trkpt lat="42.2770601" lon="14.0931078"><ele>142.0</ele><time>2026-05-01T14:56:50.004Z</time></trkpt><trkpt lat="42.2770941" lon="14.0929082"><ele>139.0</ele><time>2026-05-01T14:56:51.004Z</time></trkpt><trkpt lat="42.277115" lon="14.0927052"><ele>136.0</ele><time>2026-05-01T14:56:52.004Z</time></trkpt><trkpt lat="42.2771294" lon="14.0924945"><ele>133.75</ele><time>2026-05-01T14:56:53.004Z</time></trkpt><trkpt lat="42.2771329" lon="14.0922853"><ele>131.5</ele><time>2026-05-01T14:56:54.004Z</time></trkpt><trkpt lat="42.2771349" lon="14.0920838"><ele>129.25</ele><time>2026-05-01T14:56:55.004Z</time></trkpt><trkpt lat="42.2771384" lon="14.0918944"><ele>127.0</ele><time>2026-05-01T14:56:56.004Z</time></trkpt><trkpt lat="42.2771464" lon="14.0917201"><ele>128.2</ele><time>2026-05-01T14:56:57.004Z</time></trkpt><trkpt lat="42.2771595" lon="14.0915609"><ele>129.39999999999998</ele><time>2026-05-01T14:56:58.004Z</time></trkpt><trkpt lat="42.27719" lon="14.0914069"><ele>130.60000000000002</ele><time>2026-05-01T14:56:59.004Z</time></trkpt><trkpt lat="42.2772304" lon="14.0912707"><ele>131.8</ele><time>2026-05-01T14:57:00.004Z</time></trkpt><trkpt lat="42.2772744" lon="14.0911575"><ele>133.0</ele><time>2026-05-01T14:57:01.004Z</time></trkpt><trkpt lat="42.2773275" lon="14.0910782"><ele>133.0</ele><time>2026-05-01T14:57:02.004Z</time></trkpt><trkpt lat="42.2773991" lon="14.0910388"><ele>133.0</ele><time>2026-05-01T14:57:03.004Z</time></trkpt><trkpt lat="42.2774845" lon="14.0910416"><ele>133.0</ele><time>2026-05-01T14:57:04.004Z</time></trkpt><trkpt lat="42.2775913" lon="14.0910893"><ele>133.0</ele><time>2026-05-01T14:57:05.004Z</time></trkpt><trkpt lat="42.2777086" lon="14.0911652"><ele>133.0</ele><time>2026-05-01T14:57:06.004Z</time></trkpt><trkpt lat="42.2778027" lon="14.0912272"><ele>133.0</ele><time>2026-05-01T14:57:07.004Z</time></trkpt><trkpt lat="42.2778871" lon="14.091246"><ele>133.0</ele><time>2026-05-01T14:57:08.004Z</time></trkpt><trkpt lat="42.27796" lon="14.0912311"><ele>133.0</ele><time>2026-05-01T14:57:09.005Z</time></trkpt><trkpt lat="42.2780026" lon="14.0911656"><ele>133.0</ele><time>2026-05-01T14:57:10.004Z</time></trkpt><trkpt lat="42.2780251" lon="14.091053"><ele>133.0</ele><time>2026-05-01T14:57:11.004Z</time></trkpt><trkpt lat="42.2780235" lon="14.0909273"><ele>133.0</ele><time>2026-05-01T14:57:12.004Z</time></trkpt><trkpt lat="42.2780079" lon="14.0907962"><ele>131.0</ele><time>2026-05-01T14:57:13.004Z</time></trkpt><trkpt lat="42.2779965" lon="14.090708"><ele>129.0</ele><time>2026-05-01T14:57:14.004Z</time></trkpt><trkpt lat="42.2780112" lon="14.0906085"><ele>127.0</ele><time>2026-05-01T14:57:17.004Z</time></trkpt><trkpt lat="42.2780886" lon="14.0906778"><ele>125.0</ele><time>2026-05-01T14:57:20.004Z</time></trkpt><trkpt lat="42.2781202" lon="14.0907747"><ele>123.00000000000001</ele><time>2026-05-01T14:57:21.004Z</time></trkpt><trkpt lat="42.278165" lon="14.0908904"><ele>121.0</ele><time>2026-05-01T14:57:22.004Z</time></trkpt><trkpt lat="42.2782313" lon="14.0910309"><ele>120.75</ele><time>2026-05-01T14:57:23.004Z</time></trkpt><trkpt lat="42.2782924" lon="14.091179"><ele>120.5</ele><time>2026-05-01T14:57:24.004Z</time></trkpt><trkpt lat="42.2783451" lon="14.0913462"><ele>120.25</ele><time>2026-05-01T14:57:25.004Z</time></trkpt><trkpt lat="42.2783797" lon="14.0915303"><ele>120.0</ele><time>2026-05-01T14:57:26.004Z</time></trkpt><trkpt lat="42.2784141" lon="14.0917192"><ele>121.0</ele><time>2026-05-01T14:57:27.004Z</time></trkpt><trkpt lat="42.2784526" lon="14.0919122"><ele>122.0</ele><time>2026-05-01T14:57:28.004Z</time></trkpt><trkpt lat="42.2784813" lon="14.0921066"><ele>123.0</ele><time>2026-05-01T14:57:29.004Z</time></trkpt><trkpt lat="42.2785082" lon="14.0923007"><ele>124.0</ele><time>2026-05-01T14:57:30.004Z</time></trkpt><trkpt lat="42.2785267" lon="14.0924894"><ele>124.25</ele><time>2026-05-01T14:57:31.004Z</time></trkpt><trkpt lat="42.2785565" lon="14.092668"><ele>124.5</ele><time>2026-05-01T14:57:32.004Z</time></trkpt><trkpt lat="42.2786035" lon="14.092835"><ele>124.75</ele><time>2026-05-01T14:57:33.004Z</time></trkpt><trkpt lat="42.27867" lon="14.0929914"><ele>125.0</ele><time>2026-05-01T14:57:34.004Z</time></trkpt><trkpt lat="42.278756" lon="14.0931095"><ele>125.0</ele><time>2026-05-01T14:57:35.004Z</time></trkpt><trkpt lat="42.2788443" lon="14.0931852"><ele>125.0</ele><time>2026-05-01T14:57:36.004Z</time></trkpt><trkpt lat="42.2789548" lon="14.0932032"><ele>125.0</ele><time>2026-05-01T14:57:37.004Z</time></trkpt><trkpt lat="42.2790695" lon="14.0931832"><ele>125.0</ele><time>2026-05-01T14:57:38.004Z</time></trkpt><trkpt lat="42.2791935" lon="14.0931401"><ele>123.2</ele><time>2026-05-01T14:57:39.004Z</time></trkpt><trkpt lat="42.2793077" lon="14.0931409"><ele>121.4</ele><time>2026-05-01T14:57:40.004Z</time></trkpt><trkpt lat="42.2794026" lon="14.0931704"><ele>119.6</ele><time>2026-05-01T14:57:41.004Z</time></trkpt><trkpt lat="42.2794995" lon="14.0932444"><ele>117.8</ele><time>2026-05-01T14:57:42.004Z</time></trkpt><trkpt lat="42.2795925" lon="14.0933552"><ele>116.0</ele><time>2026-05-01T14:57:43.004Z</time></trkpt><trkpt lat="42.279679" lon="14.0934825"><ele>112.25</ele><time>2026-05-01T14:57:44.004Z</time></trkpt><trkpt lat="42.2797711" lon="14.0936073"><ele>108.5</ele><time>2026-05-01T14:57:45.004Z</time></trkpt><trkpt lat="42.2798686" lon="14.093713"><ele>104.75</ele><time>2026-05-01T14:57:46.004Z</time></trkpt><trkpt lat="42.279957" lon="14.0938053"><ele>101.0</ele><time>2026-05-01T14:57:47.004Z</time></trkpt><trkpt lat="42.2800336" lon="14.0938811"><ele>101.0</ele><time>2026-05-01T14:57:48.004Z</time></trkpt><trkpt lat="42.2800892" lon="14.0939698"><ele>101.0</ele><time>2026-05-01T14:57:49.004Z</time></trkpt><trkpt lat="42.2801187" lon="14.0940848"><ele>101.0</ele><time>2026-05-01T14:57:50.004Z</time></trkpt><trkpt lat="42.2801274" lon="14.094225"><ele>101.0</ele><time>2026-05-01T14:57:51.004Z</time></trkpt><trkpt lat="42.280124" lon="14.0944088"><ele>101.0</ele><time>2026-05-01T14:57:52.004Z</time></trkpt><trkpt lat="42.2801354" lon="14.0946031"><ele>100.66666666666666</ele><time>2026-05-01T14:57:53.004Z</time></trkpt><trkpt lat="42.280144" lon="14.0948173"><ele>100.33333333333334</ele><time>2026-05-01T14:57:54.004Z</time></trkpt><trkpt lat="42.2801618" lon="14.0950455"><ele>100.0</ele><time>2026-05-01T14:57:55.004Z</time></trkpt><trkpt lat="42.2801739" lon="14.0952595"><ele>100.0</ele><time>2026-05-01T14:57:56.004Z</time></trkpt><trkpt lat="42.2801887" lon="14.0954445"><ele>100.0</ele><time>2026-05-01T14:57:57.004Z</time></trkpt><trkpt lat="42.2802026" lon="14.0956346"><ele>100.0</ele><time>2026-05-01T14:57:58.004Z</time></trkpt><trkpt lat="42.2802144" lon="14.0958222"><ele>100.0</ele><time>2026-05-01T14:57:59.004Z</time></trkpt><trkpt lat="42.280232" lon="14.0960195"><ele>100.0</ele><time>2026-05-01T14:58:00.004Z</time></trkpt><trkpt lat="42.2802594" lon="14.0962312"><ele>100.0</ele><time>2026-05-01T14:58:01.004Z</time></trkpt><trkpt lat="42.2802957" lon="14.0964452"><ele>100.0</ele><time>2026-05-01T14:58:02.004Z</time></trkpt><trkpt lat="42.2803483" lon="14.0966595"><ele>100.75</ele><time>2026-05-01T14:58:03.004Z</time></trkpt><trkpt lat="42.2803984" lon="14.0968589"><ele>101.5</ele><time>2026-05-01T14:58:04.004Z</time></trkpt><trkpt lat="42.2804234" lon="14.0970457"><ele>102.25</ele><time>2026-05-01T14:58:05.004Z</time></trkpt><trkpt lat="42.2804302" lon="14.09725"><ele>103.0</ele><time>2026-05-01T14:58:06.004Z</time></trkpt><trkpt lat="42.280439" lon="14.0974653"><ele>103.0</ele><time>2026-05-01T14:58:07.004Z</time></trkpt><trkpt lat="42.2804741" lon="14.097685"><ele>103.0</ele><time>2026-05-01T14:58:08.004Z</time></trkpt><trkpt lat="42.2805121" lon="14.0978943"><ele>103.0</ele><time>2026-05-01T14:58:09.004Z</time></trkpt><trkpt lat="42.2805537" lon="14.0981119"><ele>103.66666666666667</ele><time>2026-05-01T14:58:10.004Z</time></trkpt><trkpt lat="42.2805984" lon="14.0983326"><ele>104.33333333333334</ele><time>2026-05-01T14:58:11.004Z</time></trkpt><trkpt lat="42.2806464" lon="14.0985494"><ele>105.0</ele><time>2026-05-01T14:58:12.004Z</time></trkpt><trkpt lat="42.2806905" lon="14.0987513"><ele>106.25</ele><time>2026-05-01T14:58:13.004Z</time></trkpt><trkpt lat="42.2807286" lon="14.0989299"><ele>107.5</ele><time>2026-05-01T14:58:14.004Z</time></trkpt><trkpt lat="42.280763" lon="14.0990972"><ele>108.75</ele><time>2026-05-01T14:58:15.004Z</time></trkpt><trkpt lat="42.2807928" lon="14.099257"><ele>110.0</ele><time>2026-05-01T14:58:16.004Z</time></trkpt><trkpt lat="42.280827" lon="14.0994169"><ele>111.16666666666666</ele><time>2026-05-01T14:58:17.004Z</time></trkpt><trkpt lat="42.2808619" lon="14.0995487"><ele>112.33333333333333</ele><time>2026-05-01T14:58:18.004Z</time></trkpt><trkpt lat="42.2808907" lon="14.0996586"><ele>113.5</ele><time>2026-05-01T14:58:19.004Z</time></trkpt><trkpt lat="42.2809101" lon="14.0997437"><ele>114.66666666666666</ele><time>2026-05-01T14:58:20.004Z</time></trkpt><trkpt lat="42.2809281" lon="14.099859"><ele>115.83333333333333</ele><time>2026-05-01T14:58:22.004Z</time></trkpt><trkpt lat="42.2809506" lon="14.0999491"><ele>117.0</ele><time>2026-05-01T14:58:24.004Z</time></trkpt><trkpt lat="42.2809915" lon="14.1000521"><ele>118.16666666666667</ele><time>2026-05-01T14:58:26.004Z</time></trkpt><trkpt lat="42.2810418" lon="14.1001319"><ele>119.33333333333334</ele><time>2026-05-01T14:58:40.004Z</time></trkpt><trkpt lat="42.2811237" lon="14.1002585"><ele>120.5</ele><time>2026-05-01T14:58:42.004Z</time></trkpt><trkpt lat="42.2811643" lon="14.1003424"><ele>121.66666666666667</ele><time>2026-05-01T14:58:43.004Z</time></trkpt><trkpt lat="42.2812109" lon="14.1004305"><ele>122.83333333333334</ele><time>2026-05-01T14:58:44.004Z</time></trkpt><trkpt lat="42.2812654" lon="14.1005156"><ele>124.0</ele><time>2026-05-01T14:58:45.004Z</time></trkpt><trkpt lat="42.2813165" lon="14.1006096"><ele>124.00000000000001</ele><time>2026-05-01T14:58:46.004Z</time></trkpt><trkpt lat="42.2813628" lon="14.1007016"><ele>124.0</ele><time>2026-05-01T14:58:47.004Z</time></trkpt><trkpt lat="42.2814129" lon="14.1007963"><ele>124.0</ele><time>2026-05-01T14:58:48.004Z</time></trkpt><trkpt lat="42.2814603" lon="14.1008961"><ele>124.0</ele><time>2026-05-01T14:58:49.004Z</time></trkpt><trkpt lat="42.2815054" lon="14.1009936"><ele>124.00000000000001</ele><time>2026-05-01T14:58:50.004Z</time></trkpt><trkpt lat="42.2815542" lon="14.1011004"><ele>124.0</ele><time>2026-05-01T14:58:51.004Z</time></trkpt><trkpt lat="42.2815991" lon="14.1012075"><ele>124.00000000000001</ele><time>2026-05-01T14:58:52.004Z</time></trkpt><trkpt lat="42.2816433" lon="14.1013124"><ele>124.0</ele><time>2026-05-01T14:58:53.004Z</time></trkpt><trkpt lat="42.2816906" lon="14.1014227"><ele>124.0</ele><time>2026-05-01T14:58:54.004Z</time></trkpt><trkpt lat="42.2817396" lon="14.1015262"><ele>124.0</ele><time>2026-05-01T14:58:55.004Z</time></trkpt><trkpt lat="42.2817876" lon="14.1016261"><ele>124.00000000000001</ele><time>2026-05-01T14:58:56.004Z</time></trkpt><trkpt lat="42.2818299" lon="14.1017277"><ele>124.0</ele><time>2026-05-01T14:58:57.004Z</time></trkpt><trkpt lat="42.2818733" lon="14.101822"><ele>125.50000000000001</ele><time>2026-05-01T14:58:58.004Z</time></trkpt><trkpt lat="42.281916" lon="14.1019199"><ele>127.0</ele><time>2026-05-01T14:58:59.004Z</time></trkpt><trkpt lat="42.2819554" lon="14.1020216"><ele>128.5</ele><time>2026-05-01T14:59:00.004Z</time></trkpt><trkpt lat="42.2819947" lon="14.102123"><ele>130.0</ele><time>2026-05-01T14:59:01.004Z</time></trkpt><trkpt lat="42.2820374" lon="14.1022192"><ele>131.5</ele><time>2026-05-01T14:59:02.004Z</time></trkpt><trkpt lat="42.2820753" lon="14.1023087"><ele>133.0</ele><time>2026-05-01T14:59:03.004Z</time></trkpt><trkpt lat="42.2821102" lon="14.1023947"><ele>134.28571428571428</ele><time>2026-05-01T14:59:04.004Z</time></trkpt><trkpt lat="42.2821448" lon="14.1024733"><ele>135.57142857142856</ele><time>2026-05-01T14:59:05.004Z</time></trkpt><trkpt lat="42.28218" lon="14.1025502"><ele>136.85714285714286</ele><time>2026-05-01T14:59:06.004Z</time></trkpt><trkpt lat="42.2822146" lon="14.102637"><ele>138.14285714285714</ele><time>2026-05-01T14:59:07.004Z</time></trkpt><trkpt lat="42.282256" lon="14.1027251"><ele>139.42857142857142</ele><time>2026-05-01T14:59:08.004Z</time></trkpt><trkpt lat="42.2822957" lon="14.1028051"><ele>140.71428571428572</ele><time>2026-05-01T14:59:09.004Z</time></trkpt><trkpt lat="42.2823341" lon="14.1028836"><ele>142.0</ele><time>2026-05-01T14:59:10.004Z</time></trkpt><trkpt lat="42.2823681" lon="14.1029564"><ele>139.83333333333334</ele><time>2026-05-01T14:59:11.004Z</time></trkpt><trkpt lat="42.282409" lon="14.1030563"><ele>137.66666666666669</ele><time>2026-05-01T14:59:13.004Z</time></trkpt><trkpt lat="42.2824464" lon="14.103145"><ele>135.5</ele><time>2026-05-01T14:59:16.004Z</time></trkpt><trkpt lat="42.2824857" lon="14.1032302"><ele>133.33333333333334</ele><time>2026-05-01T14:59:18.004Z</time></trkpt><trkpt lat="42.2825341" lon="14.1033533"><ele>131.16666666666666</ele><time>2026-05-01T14:59:20.004Z</time></trkpt><trkpt lat="42.2825865" lon="14.1034734"><ele>129.0</ele><time>2026-05-01T14:59:22.004Z</time></trkpt><trkpt lat="42.282639" lon="14.103593"><ele>129.0</ele><time>2026-05-01T14:59:24.004Z</time></trkpt><trkpt lat="42.2826937" lon="14.1037291"><ele>129.0</ele><time>2026-05-01T14:59:26.004Z</time></trkpt><trkpt lat="42.2827209" lon="14.1038108"><ele>129.0</ele><time>2026-05-01T14:59:27.004Z</time></trkpt><trkpt lat="42.282755" lon="14.103898"><ele>129.0</ele><time>2026-05-01T14:59:28.004Z</time></trkpt><trkpt lat="42.2827863" lon="14.1039841"><ele>129.0</ele><time>2026-05-01T14:59:29.004Z</time></trkpt><trkpt lat="42.2828178" lon="14.1040636"><ele>129.0</ele><time>2026-05-01T14:59:30.004Z</time></trkpt><trkpt lat="42.2828636" lon="14.1041923"><ele>130.4</ele><time>2026-05-01T14:59:32.004Z</time></trkpt><trkpt lat="42.2829063" lon="14.1043161"><ele>131.8</ele><time>2026-05-01T14:59:34.004Z</time></trkpt><trkpt lat="42.2829506" lon="14.1044501"><ele>133.2</ele><time>2026-05-01T14:59:36.004Z</time></trkpt><trkpt lat="42.2830035" lon="14.1046101"><ele>134.6</ele><time>2026-05-01T14:59:38.004Z</time></trkpt><trkpt lat="42.2830316" lon="14.1046932"><ele>136.0</ele><time>2026-05-01T14:59:39.004Z</time></trkpt><trkpt lat="42.2830586" lon="14.1047712"><ele>136.0</ele><time>2026-05-01T14:59:40.004Z</time></trkpt><trkpt lat="42.2830947" lon="14.104861"><ele>136.0</ele><time>2026-05-01T14:59:41.004Z</time></trkpt><trkpt lat="42.2831307" lon="14.1049464"><ele>136.0</ele><time>2026-05-01T14:59:42.004Z</time></trkpt><trkpt lat="42.2831713" lon="14.1050363"><ele>136.0</ele><time>2026-05-01T14:59:43.004Z</time></trkpt><trkpt lat="42.283214" lon="14.1051399"><ele>136.0</ele><time>2026-05-01T14:59:44.004Z</time></trkpt><trkpt lat="42.2832552" lon="14.1052572"><ele>136.0</ele><time>2026-05-01T14:59:45.004Z</time></trkpt><trkpt lat="42.2832953" lon="14.1053745"><ele>134.66666666666669</ele><time>2026-05-01T14:59:46.004Z</time></trkpt><trkpt lat="42.283334" lon="14.1054862"><ele>133.33333333333334</ele><time>2026-05-01T14:59:47.004Z</time></trkpt><trkpt lat="42.2833687" lon="14.1055892"><ele>132.0</ele><time>2026-05-01T14:59:48.004Z</time></trkpt><trkpt lat="42.2833976" lon="14.1056763"><ele>130.66666666666666</ele><time>2026-05-01T14:59:49.004Z</time></trkpt><trkpt lat="42.2834268" lon="14.1057684"><ele>129.33333333333331</ele><time>2026-05-01T14:59:50.004Z</time></trkpt><trkpt lat="42.2834603" lon="14.1058665"><ele>128.0</ele><time>2026-05-01T14:59:51.004Z</time></trkpt><trkpt lat="42.2834984" lon="14.1059603"><ele>127.99999999999999</ele><time>2026-05-01T14:59:52.004Z</time></trkpt><trkpt lat="42.2835354" lon="14.1060542"><ele>128.0</ele><time>2026-05-01T14:59:53.004Z</time></trkpt><trkpt lat="42.2835725" lon="14.106148"><ele>128.0</ele><time>2026-05-01T14:59:54.004Z</time></trkpt><trkpt lat="42.2836069" lon="14.1062443"><ele>128.0</ele><time>2026-05-01T14:59:55.004Z</time></trkpt><trkpt lat="42.2836412" lon="14.1063461"><ele>127.99999999999999</ele><time>2026-05-01T14:59:56.004Z</time></trkpt><trkpt lat="42.2836776" lon="14.1064508"><ele>128.0</ele><time>2026-05-01T14:59:57.004Z</time></trkpt><trkpt lat="42.2837092" lon="14.1065611"><ele>129.33333333333331</ele><time>2026-05-01T14:59:58.004Z</time></trkpt><trkpt lat="42.2837451" lon="14.1066711"><ele>130.66666666666666</ele><time>2026-05-01T14:59:59.004Z</time></trkpt><trkpt lat="42.2837782" lon="14.1067792"><ele>132.0</ele><time>2026-05-01T15:00:00.004Z</time></trkpt><trkpt lat="42.2838138" lon="14.1068855"><ele>133.33333333333334</ele><time>2026-05-01T15:00:01.004Z</time></trkpt><trkpt lat="42.2838502" lon="14.106986"><ele>134.66666666666669</ele><time>2026-05-01T15:00:02.004Z</time></trkpt><trkpt lat="42.2838831" lon="14.1070855"><ele>136.0</ele><time>2026-05-01T15:00:03.004Z</time></trkpt><trkpt lat="42.2839182" lon="14.1071848"><ele>134.99999999999997</ele><time>2026-05-01T15:00:04.004Z</time></trkpt><trkpt lat="42.2839479" lon="14.107279"><ele>134.0</ele><time>2026-05-01T15:00:05.004Z</time></trkpt><trkpt lat="42.2839761" lon="14.1073724"><ele>133.0</ele><time>2026-05-01T15:00:06.004Z</time></trkpt><trkpt lat="42.2840034" lon="14.1074609"><ele>132.0</ele><time>2026-05-01T15:00:07.004Z</time></trkpt><trkpt lat="42.284028" lon="14.1075464"><ele>131.0</ele><time>2026-05-01T15:00:08.004Z</time></trkpt><trkpt lat="42.2840528" lon="14.1076292"><ele>129.99999999999997</ele><time>2026-05-01T15:00:09.004Z</time></trkpt><trkpt lat="42.2840777" lon="14.1077225"><ele>129.0</ele><time>2026-05-01T15:00:10.004Z</time></trkpt><trkpt lat="42.2841043" lon="14.1078149"><ele>129.0</ele><time>2026-05-01T15:00:11.004Z</time></trkpt><trkpt lat="42.284138" lon="14.1079124"><ele>129.0</ele><time>2026-05-01T15:00:12.004Z</time></trkpt><trkpt lat="42.2841729" lon="14.1080086"><ele>129.0</ele><time>2026-05-01T15:00:13.004Z</time></trkpt><trkpt lat="42.2842056" lon="14.1081131"><ele>129.0</ele><time>2026-05-01T15:00:14.004Z</time></trkpt><trkpt lat="42.2842356" lon="14.1082136"><ele>129.0</ele><time>2026-05-01T15:00:15.004Z</time></trkpt><trkpt lat="42.2842651" lon="14.1082996"><ele>129.0</ele><time>2026-05-01T15:00:16.004Z</time></trkpt><trkpt lat="42.2843024" lon="14.1084193"><ele>129.6</ele><time>2026-05-01T15:00:18.004Z</time></trkpt><trkpt lat="42.284333" lon="14.1085275"><ele>130.2</ele><time>2026-05-01T15:00:21.004Z</time></trkpt><trkpt lat="42.2843831" lon="14.1086456"><ele>130.79999999999998</ele><time>2026-05-01T15:00:24.004Z</time></trkpt><trkpt lat="42.2844291" lon="14.1087756"><ele>131.4</ele><time>2026-05-01T15:00:26.004Z</time></trkpt><trkpt lat="42.2844655" lon="14.1088852"><ele>132.0</ele><time>2026-05-01T15:00:28.004Z</time></trkpt><trkpt lat="42.2844918" lon="14.1089819"><ele>133.0</ele><time>2026-05-01T15:00:31.004Z</time></trkpt><trkpt lat="42.2845334" lon="14.1090911"><ele>134.0</ele><time>2026-05-01T15:00:34.004Z</time></trkpt><trkpt lat="42.2845798" lon="14.1092044"><ele>135.0</ele><time>2026-05-01T15:00:36.004Z</time></trkpt><trkpt lat="42.2846282" lon="14.1093415"><ele>136.0</ele><time>2026-05-01T15:00:38.004Z</time></trkpt><trkpt lat="42.2846767" lon="14.1094875"><ele>137.0</ele><time>2026-05-01T15:00:40.004Z</time></trkpt><trkpt lat="42.2847059" lon="14.1095635"><ele>137.00000000000003</ele><time>2026-05-01T15:00:41.004Z</time></trkpt><trkpt lat="42.2847406" lon="14.1096403"><ele>137.0</ele><time>2026-05-01T15:00:42.004Z</time></trkpt><trkpt lat="42.2847743" lon="14.1097163"><ele>137.0</ele><time>2026-05-01T15:00:43.004Z</time></trkpt><trkpt lat="42.2848102" lon="14.1097946"><ele>137.0</ele><time>2026-05-01T15:00:44.004Z</time></trkpt><trkpt lat="42.2848432" lon="14.1098815"><ele>137.0</ele><time>2026-05-01T15:00:45.004Z</time></trkpt><trkpt lat="42.2848767" lon="14.1099821"><ele>137.00000000000003</ele><time>2026-05-01T15:00:46.004Z</time></trkpt><trkpt lat="42.2849125" lon="14.1100821"><ele>137.0</ele><time>2026-05-01T15:00:47.004Z</time></trkpt><trkpt lat="42.2849455" lon="14.1101836"><ele>136.66666666666666</ele><time>2026-05-01T15:00:48.004Z</time></trkpt><trkpt lat="42.2849752" lon="14.110288"><ele>136.33333333333331</ele><time>2026-05-01T15:00:49.004Z</time></trkpt><trkpt lat="42.2850083" lon="14.1103918"><ele>136.0</ele><time>2026-05-01T15:00:50.004Z</time></trkpt><trkpt lat="42.2850384" lon="14.1104881"><ele>135.66666666666666</ele><time>2026-05-01T15:00:51.004Z</time></trkpt><trkpt lat="42.2850685" lon="14.1105837"><ele>135.33333333333334</ele><time>2026-05-01T15:00:52.004Z</time></trkpt><trkpt lat="42.2850962" lon="14.1106836"><ele>135.0</ele><time>2026-05-01T15:00:53.004Z</time></trkpt><trkpt lat="42.2851223" lon="14.1107817"><ele>135.0</ele><time>2026-05-01T15:00:54.004Z</time></trkpt><trkpt lat="42.2851486" lon="14.1108821"><ele>135.0</ele><time>2026-05-01T15:00:55.004Z</time></trkpt><trkpt lat="42.2851772" lon="14.1109885"><ele>135.0</ele><time>2026-05-01T15:00:56.004Z</time></trkpt><trkpt lat="42.2852029" lon="14.1111"><ele>135.0</ele><time>2026-05-01T15:00:57.004Z</time></trkpt><trkpt lat="42.2852319" lon="14.1112129"><ele>135.0</ele><time>2026-05-01T15:00:58.004Z</time></trkpt><trkpt lat="42.2852613" lon="14.11133"><ele>135.0</ele><time>2026-05-01T15:00:59.004Z</time></trkpt><trkpt lat="42.2852856" lon="14.111444"><ele>135.0</ele><time>2026-05-01T15:01:00.004Z</time></trkpt><trkpt lat="42.2853132" lon="14.1115446"><ele>135.0</ele><time>2026-05-01T15:01:01.004Z</time></trkpt><trkpt lat="42.2853363" lon="14.1116303"><ele>135.0</ele><time>2026-05-01T15:01:02.004Z</time></trkpt><trkpt lat="42.2853784" lon="14.1117623"><ele>135.0</ele><time>2026-05-01T15:01:04.004Z</time></trkpt><trkpt lat="42.2853966" lon="14.1118741"><ele>135.0</ele><time>2026-05-01T15:01:06.004Z</time></trkpt><trkpt lat="42.2854459" lon="14.1120091"><ele>135.0</ele><time>2026-05-01T15:01:08.004Z</time></trkpt><trkpt lat="42.2855202" lon="14.1121329"><ele>135.66666666666666</ele><time>2026-05-01T15:01:10.004Z</time></trkpt><trkpt lat="42.2855615" lon="14.1122045"><ele>136.33333333333334</ele><time>2026-05-01T15:01:11.004Z</time></trkpt><trkpt lat="42.2856073" lon="14.1122817"><ele>137.0</ele><time>2026-05-01T15:01:12.004Z</time></trkpt><trkpt lat="42.285654" lon="14.1123592"><ele>137.66666666666669</ele><time>2026-05-01T15:01:13.004Z</time></trkpt><trkpt lat="42.2857029" lon="14.1124338"><ele>138.33333333333334</ele><time>2026-05-01T15:01:14.004Z</time></trkpt><trkpt lat="42.2857566" lon="14.1125138"><ele>139.0</ele><time>2026-05-01T15:01:15.004Z</time></trkpt><trkpt lat="42.2858162" lon="14.1126083"><ele>137.2</ele><time>2026-05-01T15:01:16.004Z</time></trkpt><trkpt lat="42.2858789" lon="14.1127031"><ele>135.4</ele><time>2026-05-01T15:01:17.004Z</time></trkpt><trkpt lat="42.2859432" lon="14.1127984"><ele>133.6</ele><time>2026-05-01T15:01:18.004Z</time></trkpt><trkpt lat="42.2860068" lon="14.1128991"><ele>131.8</ele><time>2026-05-01T15:01:19.004Z</time></trkpt><trkpt lat="42.2860711" lon="14.1129969"><ele>130.0</ele><time>2026-05-01T15:01:20.004Z</time></trkpt><trkpt lat="42.2861206" lon="14.1130905"><ele>130.0</ele><time>2026-05-01T15:01:21.004Z</time></trkpt><trkpt lat="42.2861558" lon="14.1131779"><ele>130.0</ele><time>2026-05-01T15:01:22.004Z</time></trkpt><trkpt lat="42.2861891" lon="14.11326"><ele>130.0</ele><time>2026-05-01T15:01:23.004Z</time></trkpt><trkpt lat="42.286216" lon="14.1133454"><ele>130.0</ele><time>2026-05-01T15:01:24.004Z</time></trkpt><trkpt lat="42.2862345" lon="14.1134445"><ele>130.0</ele><time>2026-05-01T15:01:25.004Z</time></trkpt><trkpt lat="42.2862454" lon="14.113553"><ele>130.0</ele><time>2026-05-01T15:01:26.004Z</time></trkpt><trkpt lat="42.2862544" lon="14.1136638"><ele>131.5</ele><time>2026-05-01T15:01:27.004Z</time></trkpt><trkpt lat="42.2862618" lon="14.113773"><ele>133.0</ele><time>2026-05-01T15:01:28.004Z</time></trkpt><trkpt lat="42.2862688" lon="14.1138795"><ele>134.5</ele><time>2026-05-01T15:01:29.004Z</time></trkpt><trkpt lat="42.2862805" lon="14.1139801"><ele>136.0</ele><time>2026-05-01T15:01:30.004Z</time></trkpt><trkpt lat="42.2862911" lon="14.1140782"><ele>137.5</ele><time>2026-05-01T15:01:31.004Z</time></trkpt><trkpt lat="42.2863" lon="14.114179"><ele>139.0</ele><time>2026-05-01T15:01:32.004Z</time></trkpt><trkpt lat="42.2863051" lon="14.1142773"><ele>139.83333333333334</ele><time>2026-05-01T15:01:33.004Z</time></trkpt><trkpt lat="42.2863161" lon="14.1143787"><ele>140.66666666666669</ele><time>2026-05-01T15:01:34.004Z</time></trkpt><trkpt lat="42.2863293" lon="14.1144789"><ele>141.5</ele><time>2026-05-01T15:01:35.004Z</time></trkpt><trkpt lat="42.2863391" lon="14.1145927"><ele>142.33333333333334</ele><time>2026-05-01T15:01:36.004Z</time></trkpt><trkpt lat="42.2863506" lon="14.1147105"><ele>143.16666666666666</ele><time>2026-05-01T15:01:37.004Z</time></trkpt><trkpt lat="42.2863622" lon="14.1148278"><ele>144.0</ele><time>2026-05-01T15:01:38.004Z</time></trkpt><trkpt lat="42.2863752" lon="14.1149301"><ele>145.16666666666666</ele><time>2026-05-01T15:01:39.004Z</time></trkpt><trkpt lat="42.2863951" lon="14.1150255"><ele>146.33333333333334</ele><time>2026-05-01T15:01:40.004Z</time></trkpt><trkpt lat="42.2864185" lon="14.1151285"><ele>147.5</ele><time>2026-05-01T15:01:41.004Z</time></trkpt><trkpt lat="42.2864411" lon="14.1152355"><ele>148.66666666666669</ele><time>2026-05-01T15:01:42.004Z</time></trkpt><trkpt lat="42.2864668" lon="14.115343"><ele>149.83333333333334</ele><time>2026-05-01T15:01:43.004Z</time></trkpt><trkpt lat="42.2864978" lon="14.1154486"><ele>151.0</ele><time>2026-05-01T15:01:44.004Z</time></trkpt><trkpt lat="42.2865262" lon="14.1155481"><ele>151.2857142857143</ele><time>2026-05-01T15:01:45.004Z</time></trkpt><trkpt lat="42.2865437" lon="14.1156409"><ele>151.57142857142858</ele><time>2026-05-01T15:01:46.004Z</time></trkpt><trkpt lat="42.2865467" lon="14.1157334"><ele>151.85714285714286</ele><time>2026-05-01T15:01:47.004Z</time></trkpt><trkpt lat="42.2865347" lon="14.1158192"><ele>152.14285714285717</ele><time>2026-05-01T15:01:48.004Z</time></trkpt><trkpt lat="42.2865163" lon="14.1159036"><ele>152.42857142857144</ele><time>2026-05-01T15:01:49.004Z</time></trkpt><trkpt lat="42.2864956" lon="14.1159968"><ele>152.71428571428572</ele><time>2026-05-01T15:01:50.004Z</time></trkpt><trkpt lat="42.2864619" lon="14.1160905"><ele>153.0</ele><time>2026-05-01T15:01:51.004Z</time></trkpt><trkpt lat="42.2864073" lon="14.1161952"><ele>153.0</ele><time>2026-05-01T15:01:52.004Z</time></trkpt><trkpt lat="42.2863493" lon="14.1163055"><ele>153.0</ele><time>2026-05-01T15:01:53.004Z</time></trkpt><trkpt lat="42.2862853" lon="14.1164102"><ele>153.0</ele><time>2026-05-01T15:01:54.004Z</time></trkpt><trkpt lat="42.2862363" lon="14.116492"><ele>153.0</ele><time>2026-05-01T15:01:55.004Z</time></trkpt><trkpt lat="42.2862006" lon="14.1165779"><ele>153.0</ele><time>2026-05-01T15:01:56.004Z</time></trkpt><trkpt lat="42.2861779" lon="14.1166598"><ele>153.0</ele><time>2026-05-01T15:01:57.004Z</time></trkpt><trkpt lat="42.2861432" lon="14.1167996"><ele>152.66666666666666</ele><time>2026-05-01T15:01:59.004Z</time></trkpt><trkpt lat="42.2861367" lon="14.1169666"><ele>152.33333333333334</ele><time>2026-05-01T15:02:01.004Z</time></trkpt><trkpt lat="42.2861294" lon="14.117067"><ele>152.0</ele><time>2026-05-01T15:02:02.004Z</time></trkpt><trkpt lat="42.2861262" lon="14.1171727"><ele>151.66666666666669</ele><time>2026-05-01T15:02:03.004Z</time></trkpt><trkpt lat="42.2861166" lon="14.1172778"><ele>151.33333333333334</ele><time>2026-05-01T15:02:04.004Z</time></trkpt><trkpt lat="42.2861068" lon="14.1173926"><ele>151.0</ele><time>2026-05-01T15:02:05.004Z</time></trkpt><trkpt lat="42.286103" lon="14.11751"><ele>151.0</ele><time>2026-05-01T15:02:06.004Z</time></trkpt><trkpt lat="42.2860944" lon="14.1176342"><ele>151.0</ele><time>2026-05-01T15:02:07.004Z</time></trkpt><trkpt lat="42.2860804" lon="14.117761"><ele>151.0</ele><time>2026-05-01T15:02:08.004Z</time></trkpt><trkpt lat="42.2860618" lon="14.1178823"><ele>151.0</ele><time>2026-05-01T15:02:09.004Z</time></trkpt><trkpt lat="42.2860353" lon="14.1179962"><ele>151.0</ele><time>2026-05-01T15:02:10.004Z</time></trkpt><trkpt lat="42.2860028" lon="14.1181038"><ele>151.0</ele><time>2026-05-01T15:02:11.004Z</time></trkpt><trkpt lat="42.2859671" lon="14.1182147"><ele>151.0</ele><time>2026-05-01T15:02:12.004Z</time></trkpt><trkpt lat="42.2859341" lon="14.1183283"><ele>151.0</ele><time>2026-05-01T15:02:13.004Z</time></trkpt><trkpt lat="42.2859099" lon="14.1184398"><ele>151.0</ele><time>2026-05-01T15:02:14.004Z</time></trkpt><trkpt lat="42.2858803" lon="14.1185451"><ele>151.0</ele><time>2026-05-01T15:02:15.004Z</time></trkpt><trkpt lat="42.2858543" lon="14.118633"><ele>151.0</ele><time>2026-05-01T15:02:16.004Z</time></trkpt><trkpt lat="42.2858413" lon="14.1187221"><ele>151.57142857142858</ele><time>2026-05-01T15:02:17.004Z</time></trkpt><trkpt lat="42.2858421" lon="14.1188074"><ele>152.14285714285714</ele><time>2026-05-01T15:02:18.004Z</time></trkpt><trkpt lat="42.2858383" lon="14.118895"><ele>152.71428571428572</ele><time>2026-05-01T15:02:19.004Z</time></trkpt><trkpt lat="42.2858188" lon="14.1189936"><ele>153.28571428571428</ele><time>2026-05-01T15:02:20.004Z</time></trkpt><trkpt lat="42.2857847" lon="14.1190964"><ele>153.85714285714286</ele><time>2026-05-01T15:02:21.004Z</time></trkpt><trkpt lat="42.2857431" lon="14.1191871"><ele>154.42857142857144</ele><time>2026-05-01T15:02:22.004Z</time></trkpt><trkpt lat="42.2857018" lon="14.1192586"><ele>155.0</ele><time>2026-05-01T15:02:23.004Z</time></trkpt><trkpt lat="42.2856369" lon="14.1193617"><ele>157.83333333333331</ele><time>2026-05-01T15:02:25.004Z</time></trkpt><trkpt lat="42.2855438" lon="14.1194804"><ele>160.66666666666666</ele><time>2026-05-01T15:02:27.004Z</time></trkpt><trkpt lat="42.2854815" lon="14.1195423"><ele>163.5</ele><time>2026-05-01T15:02:28.004Z</time></trkpt><trkpt lat="42.2854253" lon="14.1196049"><ele>166.33333333333334</ele><time>2026-05-01T15:02:29.004Z</time></trkpt><trkpt lat="42.2853662" lon="14.1196565"><ele>169.16666666666669</ele><time>2026-05-01T15:02:30.004Z</time></trkpt><trkpt lat="42.2853064" lon="14.1197127"><ele>172.0</ele><time>2026-05-01T15:02:31.004Z</time></trkpt><trkpt lat="42.2852475" lon="14.1197685"><ele>172.00000000000003</ele><time>2026-05-01T15:02:32.004Z</time></trkpt><trkpt lat="42.2851949" lon="14.1198236"><ele>172.0</ele><time>2026-05-01T15:02:33.004Z</time></trkpt><trkpt lat="42.2851326" lon="14.1198745"><ele>172.0</ele><time>2026-05-01T15:02:34.004Z</time></trkpt><trkpt lat="42.285072" lon="14.119914"><ele>172.0</ele><time>2026-05-01T15:02:35.004Z</time></trkpt><trkpt lat="42.2850098" lon="14.1199631"><ele>172.0</ele><time>2026-05-01T15:02:36.004Z</time></trkpt><trkpt lat="42.2849503" lon="14.1200147"><ele>172.00000000000003</ele><time>2026-05-01T15:02:37.004Z</time></trkpt><trkpt lat="42.2848887" lon="14.1200617"><ele>172.0</ele><time>2026-05-01T15:02:38.004Z</time></trkpt><trkpt lat="42.2848267" lon="14.1201157"><ele>172.0</ele><time>2026-05-01T15:02:39.004Z</time></trkpt><trkpt lat="42.2847721" lon="14.1201646"><ele>172.0</ele><time>2026-05-01T15:02:40.004Z</time></trkpt><trkpt lat="42.2846869" lon="14.1202474"><ele>172.0</ele><time>2026-05-01T15:02:42.004Z</time></trkpt><trkpt lat="42.2846142" lon="14.1203443"><ele>172.0</ele><time>2026-05-01T15:02:44.004Z</time></trkpt><trkpt lat="42.2845517" lon="14.1204659"><ele>172.0</ele><time>2026-05-01T15:02:46.004Z</time></trkpt><trkpt lat="42.2845073" lon="14.1206025"><ele>175.2</ele><time>2026-05-01T15:02:48.004Z</time></trkpt><trkpt lat="42.2844689" lon="14.1207393"><ele>178.39999999999998</ele><time>2026-05-01T15:02:50.004Z</time></trkpt><trkpt lat="42.2844365" lon="14.1208789"><ele>181.60000000000002</ele><time>2026-05-01T15:02:52.004Z</time></trkpt><trkpt lat="42.2844143" lon="14.1210245"><ele>184.8</ele><time>2026-05-01T15:02:54.004Z</time></trkpt><trkpt lat="42.2844022" lon="14.1211761"><ele>188.0</ele><time>2026-05-01T15:02:56.004Z</time></trkpt><trkpt lat="42.2843947" lon="14.1212675"><ele>188.0</ele><time>2026-05-01T15:02:57.004Z</time></trkpt><trkpt lat="42.2843891" lon="14.1213627"><ele>188.0</ele><time>2026-05-01T15:02:58.004Z</time></trkpt><trkpt lat="42.284382" lon="14.1214532"><ele>188.0</ele><time>2026-05-01T15:02:59.004Z</time></trkpt><trkpt lat="42.284366" lon="14.1216152"><ele>188.0</ele><time>2026-05-01T15:03:01.004Z</time></trkpt><trkpt lat="42.2843501" lon="14.1217097"><ele>188.0</ele><time>2026-05-01T15:03:02.004Z</time></trkpt><trkpt lat="42.2843321" lon="14.1218054"><ele>188.0</ele><time>2026-05-01T15:03:03.004Z</time></trkpt><trkpt lat="42.2843062" lon="14.1218993"><ele>188.16666666666666</ele><time>2026-05-01T15:03:04.004Z</time></trkpt><trkpt lat="42.2842667" lon="14.1219808"><ele>188.33333333333331</ele><time>2026-05-01T15:03:05.004Z</time></trkpt><trkpt lat="42.2842201" lon="14.1220515"><ele>188.5</ele><time>2026-05-01T15:03:06.004Z</time></trkpt><trkpt lat="42.2841017" lon="14.1221225"><ele>188.66666666666666</ele><time>2026-05-01T15:03:08.004Z</time></trkpt><trkpt lat="42.2840236" lon="14.1221455"><ele>188.83333333333334</ele><time>2026-05-01T15:03:09.004Z</time></trkpt><trkpt lat="42.2839411" lon="14.1221508"><ele>189.0</ele><time>2026-05-01T15:03:10.004Z</time></trkpt><trkpt lat="42.2838735" lon="14.1221167"><ele>193.33333333333334</ele><time>2026-05-01T15:03:11.004Z</time></trkpt><trkpt lat="42.283819" lon="14.1220643"><ele>197.66666666666669</ele><time>2026-05-01T15:03:12.004Z</time></trkpt><trkpt lat="42.2837591" lon="14.1219743"><ele>202.0</ele><time>2026-05-01T15:03:14.004Z</time></trkpt><trkpt lat="42.283712" lon="14.1218984"><ele>206.33333333333334</ele><time>2026-05-01T15:03:16.004Z</time></trkpt><trkpt lat="42.2836541" lon="14.121802"><ele>210.66666666666669</ele><time>2026-05-01T15:03:18.004Z</time></trkpt><trkpt lat="42.2835834" lon="14.1216753"><ele>215.0</ele><time>2026-05-01T15:03:20.004Z</time></trkpt><trkpt lat="42.2835418" lon="14.121604"><ele>215.0</ele><time>2026-05-01T15:03:21.004Z</time></trkpt><trkpt lat="42.2834992" lon="14.121539"><ele>215.0</ele><time>2026-05-01T15:03:22.004Z</time></trkpt><trkpt lat="42.2834554" lon="14.1214752"><ele>215.0</ele><time>2026-05-01T15:03:23.004Z</time></trkpt><trkpt lat="42.2834177" lon="14.1214021"><ele>215.0</ele><time>2026-05-01T15:03:24.004Z</time></trkpt><trkpt lat="42.2833819" lon="14.12133"><ele>215.0</ele><time>2026-05-01T15:03:25.004Z</time></trkpt><trkpt lat="42.283347" lon="14.1212545"><ele>215.0</ele><time>2026-05-01T15:03:26.004Z</time></trkpt><trkpt lat="42.2833073" lon="14.1211749"><ele>215.0</ele><time>2026-05-01T15:03:27.004Z</time></trkpt><trkpt lat="42.2832712" lon="14.1211027"><ele>215.00000000000003</ele><time>2026-05-01T15:03:28.004Z</time></trkpt><trkpt lat="42.2832387" lon="14.1210254"><ele>215.0</ele><time>2026-05-01T15:03:29.004Z</time></trkpt><trkpt lat="42.2831918" lon="14.1208645"><ele>215.0</ele><time>2026-05-01T15:03:31.004Z</time></trkpt><trkpt lat="42.2831693" lon="14.1207658"><ele>215.0</ele><time>2026-05-01T15:03:32.004Z</time></trkpt><trkpt lat="42.2831368" lon="14.1206578"><ele>215.00000000000003</ele><time>2026-05-01T15:03:33.004Z</time></trkpt><trkpt lat="42.2831018" lon="14.1205658"><ele>215.0</ele><time>2026-05-01T15:03:34.004Z</time></trkpt><trkpt lat="42.2830705" lon="14.1204682"><ele>218.0</ele><time>2026-05-01T15:03:35.004Z</time></trkpt><trkpt lat="42.2830413" lon="14.1203563"><ele>221.0</ele><time>2026-05-01T15:03:36.004Z</time></trkpt><trkpt lat="42.2830087" lon="14.1202382"><ele>224.0</ele><time>2026-05-01T15:03:37.004Z</time></trkpt><trkpt lat="42.282973" lon="14.1201167"><ele>227.0</ele><time>2026-05-01T15:03:38.004Z</time></trkpt><trkpt lat="42.2829393" lon="14.1199923"><ele>230.0</ele><time>2026-05-01T15:03:39.004Z</time></trkpt><trkpt lat="42.2829056" lon="14.1198753"><ele>230.00000000000003</ele><time>2026-05-01T15:03:40.004Z</time></trkpt><trkpt lat="42.2828758" lon="14.1197634"><ele>230.0</ele><time>2026-05-01T15:03:41.004Z</time></trkpt><trkpt lat="42.282847" lon="14.1196519"><ele>230.0</ele><time>2026-05-01T15:03:42.004Z</time></trkpt><trkpt lat="42.2828182" lon="14.1195484"><ele>230.0</ele><time>2026-05-01T15:03:43.004Z</time></trkpt><trkpt lat="42.2827897" lon="14.1194428"><ele>230.00000000000003</ele><time>2026-05-01T15:03:44.004Z</time></trkpt><trkpt lat="42.282759" lon="14.1193461"><ele>230.0</ele><time>2026-05-01T15:03:45.004Z</time></trkpt><trkpt lat="42.2827333" lon="14.119244"><ele>230.0</ele><time>2026-05-01T15:03:46.004Z</time></trkpt><trkpt lat="42.2827054" lon="14.119144"><ele>230.0</ele><time>2026-05-01T15:03:47.004Z</time></trkpt><trkpt lat="42.2826774" lon="14.1190423"><ele>230.0</ele><time>2026-05-01T15:03:48.004Z</time></trkpt><trkpt lat="42.2826461" lon="14.1189338"><ele>230.0</ele><time>2026-05-01T15:03:49.004Z</time></trkpt><trkpt lat="42.282611" lon="14.1188064"><ele>230.0</ele><time>2026-05-01T15:03:50.004Z</time></trkpt><trkpt lat="42.2825706" lon="14.1186724"><ele>229.33333333333334</ele><time>2026-05-01T15:03:51.004Z</time></trkpt><trkpt lat="42.2825307" lon="14.1185486"><ele>228.66666666666669</ele><time>2026-05-01T15:03:52.004Z</time></trkpt><trkpt lat="42.2824938" lon="14.1184379"><ele>228.0</ele><time>2026-05-01T15:03:53.004Z</time></trkpt><trkpt lat="42.2824629" lon="14.1183367"><ele>227.33333333333331</ele><time>2026-05-01T15:03:54.004Z</time></trkpt><trkpt lat="42.2824237" lon="14.1182327"><ele>226.66666666666666</ele><time>2026-05-01T15:03:55.004Z</time></trkpt><trkpt lat="42.2823818" lon="14.1181242"><ele>226.0</ele><time>2026-05-01T15:03:56.004Z</time></trkpt><trkpt lat="42.2823344" lon="14.1180134"><ele>225.4</ele><time>2026-05-01T15:03:57.004Z</time></trkpt><trkpt lat="42.2822861" lon="14.1179045"><ele>224.8</ele><time>2026-05-01T15:03:58.004Z</time></trkpt><trkpt lat="42.2822347" lon="14.1178053"><ele>224.20000000000002</ele><time>2026-05-01T15:03:59.004Z</time></trkpt><trkpt lat="42.2821861" lon="14.1177217"><ele>223.60000000000002</ele><time>2026-05-01T15:04:00.004Z</time></trkpt><trkpt lat="42.2821182" lon="14.1176199"><ele>223.0</ele><time>2026-05-01T15:04:02.004Z</time></trkpt><trkpt lat="42.282019" lon="14.1176115"><ele>223.0</ele><time>2026-05-01T15:04:12.004Z</time></trkpt><trkpt lat="42.2820164" lon="14.1177789"><ele>223.0</ele><time>2026-05-01T15:04:14.004Z</time></trkpt><trkpt lat="42.2820254" lon="14.1178901"><ele>223.0</ele><time>2026-05-01T15:04:15.004Z</time></trkpt><trkpt lat="42.2820268" lon="14.1180186"><ele>223.0</ele><time>2026-05-01T15:04:16.004Z</time></trkpt><trkpt lat="42.2820204" lon="14.1181589"><ele>223.0</ele><time>2026-05-01T15:04:17.004Z</time></trkpt><trkpt lat="42.282012" lon="14.1183049"><ele>224.25</ele><time>2026-05-01T15:04:18.004Z</time></trkpt><trkpt lat="42.2819968" lon="14.1184724"><ele>225.5</ele><time>2026-05-01T15:04:19.004Z</time></trkpt><trkpt lat="42.2819817" lon="14.1186463"><ele>226.75</ele><time>2026-05-01T15:04:20.004Z</time></trkpt><trkpt lat="42.281959" lon="14.1188211"><ele>228.0</ele><time>2026-05-01T15:04:21.004Z</time></trkpt><trkpt lat="42.2819364" lon="14.1189813"><ele>230.0</ele><time>2026-05-01T15:04:22.004Z</time></trkpt><trkpt lat="42.2819127" lon="14.1191415"><ele>232.0</ele><time>2026-05-01T15:04:23.004Z</time></trkpt><trkpt lat="42.2818982" lon="14.1193055"><ele>234.0</ele><time>2026-05-01T15:04:24.004Z</time></trkpt><trkpt lat="42.2818882" lon="14.1194837"><ele>236.0</ele><time>2026-05-01T15:04:25.004Z</time></trkpt><trkpt lat="42.2818876" lon="14.1196642"><ele>236.0</ele><time>2026-05-01T15:04:26.004Z</time></trkpt><trkpt lat="42.2819101" lon="14.1198585"><ele>236.0</ele><time>2026-05-01T15:04:27.004Z</time></trkpt><trkpt lat="42.2819487" lon="14.1200577"><ele>236.0</ele><time>2026-05-01T15:04:28.004Z</time></trkpt><trkpt lat="42.2819972" lon="14.1202687"><ele>237.5</ele><time>2026-05-01T15:04:29.004Z</time></trkpt><trkpt lat="42.2820398" lon="14.1204633"><ele>239.0</ele><time>2026-05-01T15:04:30.004Z</time></trkpt><trkpt lat="42.2820689" lon="14.1206515"><ele>240.5</ele><time>2026-05-01T15:04:31.004Z</time></trkpt><trkpt lat="42.2820782" lon="14.120844"><ele>242.0</ele><time>2026-05-01T15:04:32.004Z</time></trkpt><trkpt lat="42.2820723" lon="14.1210344"><ele>243.5</ele><time>2026-05-01T15:04:33.004Z</time></trkpt><trkpt lat="42.2820557" lon="14.1212131"><ele>245.0</ele><time>2026-05-01T15:04:34.004Z</time></trkpt><trkpt lat="42.282022" lon="14.1213915"><ele>246.5</ele><time>2026-05-01T15:04:35.004Z</time></trkpt><trkpt lat="42.2819922" lon="14.1215778"><ele>248.0</ele><time>2026-05-01T15:04:36.004Z</time></trkpt><trkpt lat="42.2819763" lon="14.1217699"><ele>249.33333333333334</ele><time>2026-05-01T15:04:37.004Z</time></trkpt><trkpt lat="42.2819776" lon="14.1219825"><ele>250.66666666666669</ele><time>2026-05-01T15:04:38.004Z</time></trkpt><trkpt lat="42.2820032" lon="14.1221793"><ele>252.0</ele><time>2026-05-01T15:04:39.004Z</time></trkpt><trkpt lat="42.2820395" lon="14.1223843"><ele>254.33333333333331</ele><time>2026-05-01T15:04:40.004Z</time></trkpt><trkpt lat="42.282074" lon="14.1225808"><ele>256.66666666666663</ele><time>2026-05-01T15:04:41.004Z</time></trkpt><trkpt lat="42.2820969" lon="14.1227875"><ele>259.0</ele><time>2026-05-01T15:04:42.004Z</time></trkpt><trkpt lat="42.2821117" lon="14.1229978"><ele>259.0</ele><time>2026-05-01T15:04:43.004Z</time></trkpt><trkpt lat="42.2821224" lon="14.1232065"><ele>259.0</ele><time>2026-05-01T15:04:44.004Z</time></trkpt><trkpt lat="42.2821292" lon="14.1234164"><ele>259.0</ele><time>2026-05-01T15:04:45.004Z</time></trkpt><trkpt lat="42.2821324" lon="14.12363"><ele>263.0</ele><time>2026-05-01T15:04:46.004Z</time></trkpt><trkpt lat="42.282136" lon="14.1238395"><ele>267.0</ele><time>2026-05-01T15:04:47.004Z</time></trkpt><trkpt lat="42.2821399" lon="14.1240507"><ele>271.0</ele><time>2026-05-01T15:04:48.004Z</time></trkpt><trkpt lat="42.2821481" lon="14.1242617"><ele>273.66666666666663</ele><time>2026-05-01T15:04:49.004Z</time></trkpt><trkpt lat="42.2821611" lon="14.1244698"><ele>276.3333333333333</ele><time>2026-05-01T15:04:50.004Z</time></trkpt><trkpt lat="42.2821815" lon="14.1246753"><ele>279.0</ele><time>2026-05-01T15:04:51.004Z</time></trkpt><trkpt lat="42.2822013" lon="14.124875"><ele>282.6666666666667</ele><time>2026-05-01T15:04:52.004Z</time></trkpt><trkpt lat="42.2822196" lon="14.1250733"><ele>286.33333333333337</ele><time>2026-05-01T15:04:53.004Z</time></trkpt><trkpt lat="42.2822414" lon="14.1252767"><ele>290.0</ele><time>2026-05-01T15:04:54.004Z</time></trkpt><trkpt lat="42.2822611" lon="14.1254887"><ele>289.6666666666667</ele><time>2026-05-01T15:04:55.004Z</time></trkpt><trkpt lat="42.2822788" lon="14.1257038"><ele>289.3333333333333</ele><time>2026-05-01T15:04:56.004Z</time></trkpt><trkpt lat="42.2823019" lon="14.1259128"><ele>289.0</ele><time>2026-05-01T15:04:57.004Z</time></trkpt><trkpt lat="42.2823278" lon="14.1261202"><ele>289.0</ele><time>2026-05-01T15:04:58.004Z</time></trkpt><trkpt lat="42.2823692" lon="14.1263165"><ele>289.0</ele><time>2026-05-01T15:04:59.004Z</time></trkpt><trkpt lat="42.2824282" lon="14.1264885"><ele>289.0</ele><time>2026-05-01T15:05:00.004Z</time></trkpt><trkpt lat="42.2824903" lon="14.1266418"><ele>289.0</ele><time>2026-05-01T15:05:01.004Z</time></trkpt><trkpt lat="42.2825527" lon="14.1267819"><ele>291.2</ele><time>2026-05-01T15:05:02.004Z</time></trkpt><trkpt lat="42.2825999" lon="14.1268845"><ele>293.4</ele><time>2026-05-01T15:05:03.004Z</time></trkpt><trkpt lat="42.2826418" lon="14.1270132"><ele>295.6</ele><time>2026-05-01T15:05:05.004Z</time></trkpt><trkpt lat="42.2827097" lon="14.1271558"><ele>297.8</ele><time>2026-05-01T15:05:07.004Z</time></trkpt><trkpt lat="42.2827609" lon="14.1272643"><ele>300.0</ele><time>2026-05-01T15:05:08.004Z</time></trkpt><trkpt lat="42.2828285" lon="14.1273898"><ele>300.25</ele><time>2026-05-01T15:05:09.004Z</time></trkpt><trkpt lat="42.2829117" lon="14.1275364"><ele>300.5</ele><time>2026-05-01T15:05:10.004Z</time></trkpt><trkpt lat="42.2829954" lon="14.1277017"><ele>300.75</ele><time>2026-05-01T15:05:11.004Z</time></trkpt><trkpt lat="42.2830879" lon="14.1278581"><ele>301.0</ele><time>2026-05-01T15:05:12.004Z</time></trkpt><trkpt lat="42.283168" lon="14.1280016"><ele>301.25</ele><time>2026-05-01T15:05:13.004Z</time></trkpt><trkpt lat="42.2832508" lon="14.1281443"><ele>301.5</ele><time>2026-05-01T15:05:14.004Z</time></trkpt><trkpt lat="42.2833272" lon="14.1282866"><ele>301.75</ele><time>2026-05-01T15:05:15.004Z</time></trkpt><trkpt lat="42.2834102" lon="14.128417"><ele>302.0</ele><time>2026-05-01T15:05:16.004Z</time></trkpt><trkpt lat="42.2834995" lon="14.128542"><ele>302.0</ele><time>2026-05-01T15:05:17.004Z</time></trkpt><trkpt lat="42.2835979" lon="14.1286405"><ele>302.0</ele><time>2026-05-01T15:05:18.004Z</time></trkpt><trkpt lat="42.2837291" lon="14.1286912"><ele>302.0</ele><time>2026-05-01T15:05:19.004Z</time></trkpt><trkpt lat="42.2838582" lon="14.1287087"><ele>302.0</ele><time>2026-05-01T15:05:20.004Z</time></trkpt><trkpt lat="42.2840042" lon="14.1287116"><ele>302.5</ele><time>2026-05-01T15:05:21.004Z</time></trkpt><trkpt lat="42.2841443" lon="14.1287387"><ele>303.0</ele><time>2026-05-01T15:05:22.004Z</time></trkpt><trkpt lat="42.2842829" lon="14.1288168"><ele>303.5</ele><time>2026-05-01T15:05:23.004Z</time></trkpt><trkpt lat="42.2844078" lon="14.1289195"><ele>304.0</ele><time>2026-05-01T15:05:24.004Z</time></trkpt><trkpt lat="42.2845302" lon="14.1290397"><ele>303.3333333333333</ele><time>2026-05-01T15:05:25.004Z</time></trkpt><trkpt lat="42.2846594" lon="14.1291641"><ele>302.6666666666667</ele><time>2026-05-01T15:05:26.004Z</time></trkpt><trkpt lat="42.2847737" lon="14.1292897"><ele>302.0</ele><time>2026-05-01T15:05:27.004Z</time></trkpt><trkpt lat="42.2848931" lon="14.1294143"><ele>302.0</ele><time>2026-05-01T15:05:28.004Z</time></trkpt><trkpt lat="42.2850048" lon="14.1295391"><ele>302.0</ele><time>2026-05-01T15:05:29.004Z</time></trkpt><trkpt lat="42.2851125" lon="14.1296723"><ele>302.0</ele><time>2026-05-01T15:05:30.004Z</time></trkpt><trkpt lat="42.2852198" lon="14.1298178"><ele>302.0</ele><time>2026-05-01T15:05:31.004Z</time></trkpt><trkpt lat="42.2853252" lon="14.1299651"><ele>303.6666666666667</ele><time>2026-05-01T15:05:32.004Z</time></trkpt><trkpt lat="42.2854339" lon="14.1301146"><ele>305.3333333333333</ele><time>2026-05-01T15:05:33.004Z</time></trkpt><trkpt lat="42.2855349" lon="14.1302711"><ele>307.0</ele><time>2026-05-01T15:05:34.004Z</time></trkpt><trkpt lat="42.2856293" lon="14.1304404"><ele>304.0</ele><time>2026-05-01T15:05:35.004Z</time></trkpt><trkpt lat="42.2857129" lon="14.1306252"><ele>301.0</ele><time>2026-05-01T15:05:36.004Z</time></trkpt><trkpt lat="42.2857962" lon="14.1308128"><ele>298.0</ele><time>2026-05-01T15:05:37.004Z</time></trkpt><trkpt lat="42.2858775" lon="14.130985"><ele>298.0</ele><time>2026-05-01T15:05:38.004Z</time></trkpt><trkpt lat="42.2859719" lon="14.1311427"><ele>298.0</ele><time>2026-05-01T15:05:39.004Z</time></trkpt><trkpt lat="42.2860695" lon="14.1312922"><ele>298.0</ele><time>2026-05-01T15:05:40.004Z</time></trkpt><trkpt lat="42.2861667" lon="14.1314407"><ele>298.0</ele><time>2026-05-01T15:05:41.004Z</time></trkpt><trkpt lat="42.2862583" lon="14.1315881"><ele>299.0</ele><time>2026-05-01T15:05:42.004Z</time></trkpt><trkpt lat="42.2863459" lon="14.1317373"><ele>300.0</ele><time>2026-05-01T15:05:43.004Z</time></trkpt><trkpt lat="42.286435" lon="14.1318828"><ele>301.0</ele><time>2026-05-01T15:05:44.004Z</time></trkpt><trkpt lat="42.2865124" lon="14.1320254"><ele>302.0</ele><time>2026-05-01T15:05:45.004Z</time></trkpt><trkpt lat="42.286585" lon="14.1321595"><ele>299.5</ele><time>2026-05-01T15:05:46.004Z</time></trkpt><trkpt lat="42.2866457" lon="14.1323013"><ele>297.0</ele><time>2026-05-01T15:05:47.004Z</time></trkpt><trkpt lat="42.2866928" lon="14.1324482"><ele>294.5</ele><time>2026-05-01T15:05:48.004Z</time></trkpt><trkpt lat="42.2867322" lon="14.1326029"><ele>292.0</ele><time>2026-05-01T15:05:49.004Z</time></trkpt><trkpt lat="42.2867565" lon="14.1327628"><ele>292.0</ele><time>2026-05-01T15:05:50.004Z</time></trkpt><trkpt lat="42.2867855" lon="14.1329092"><ele>292.0</ele><time>2026-05-01T15:05:51.004Z</time></trkpt><trkpt lat="42.2868146" lon="14.1330509"><ele>292.0</ele><time>2026-05-01T15:05:52.004Z</time></trkpt><trkpt lat="42.2868506" lon="14.1331791"><ele>292.0</ele><time>2026-05-01T15:05:53.004Z</time></trkpt><trkpt lat="42.286911" lon="14.133282"><ele>292.0</ele><time>2026-05-01T15:05:54.004Z</time></trkpt><trkpt lat="42.2869898" lon="14.1333609"><ele>291.25</ele><time>2026-05-01T15:05:55.004Z</time></trkpt><trkpt lat="42.2871008" lon="14.1334179"><ele>290.5</ele><time>2026-05-01T15:05:56.004Z</time></trkpt><trkpt lat="42.2872196" lon="14.1334749"><ele>289.75</ele><time>2026-05-01T15:05:57.004Z</time></trkpt><trkpt lat="42.2873507" lon="14.133532"><ele>289.0</ele><time>2026-05-01T15:05:58.004Z</time></trkpt><trkpt lat="42.2874819" lon="14.1335863"><ele>289.0</ele><time>2026-05-01T15:05:59.004Z</time></trkpt><trkpt lat="42.2876179" lon="14.13364"><ele>289.0</ele><time>2026-05-01T15:06:00.004Z</time></trkpt><trkpt lat="42.2877408" lon="14.1336903"><ele>289.0</ele><time>2026-05-01T15:06:01.004Z</time></trkpt><trkpt lat="42.2878516" lon="14.1337426"><ele>289.0</ele><time>2026-05-01T15:06:02.004Z</time></trkpt><trkpt lat="42.2879483" lon="14.1338089"><ele>289.0</ele><time>2026-05-01T15:06:03.004Z</time></trkpt><trkpt lat="42.2880285" lon="14.1338953"><ele>289.0</ele><time>2026-05-01T15:06:04.004Z</time></trkpt><trkpt lat="42.288086" lon="14.133997"><ele>289.0</ele><time>2026-05-01T15:06:05.004Z</time></trkpt><trkpt lat="42.2881336" lon="14.134111"><ele>289.0</ele><time>2026-05-01T15:06:06.004Z</time></trkpt><trkpt lat="42.288193" lon="14.1342247"><ele>289.0</ele><time>2026-05-01T15:06:07.004Z</time></trkpt><trkpt lat="42.2882719" lon="14.1343404"><ele>291.25</ele><time>2026-05-01T15:06:08.004Z</time></trkpt><trkpt lat="42.2883629" lon="14.1344674"><ele>293.5</ele><time>2026-05-01T15:06:09.004Z</time></trkpt><trkpt lat="42.2884618" lon="14.1346137"><ele>295.75</ele><time>2026-05-01T15:06:10.004Z</time></trkpt><trkpt lat="42.2885584" lon="14.1347381"><ele>298.0</ele><time>2026-05-01T15:06:11.004Z</time></trkpt><trkpt lat="42.2886609" lon="14.134826"><ele>297.5</ele><time>2026-05-01T15:06:12.004Z</time></trkpt><trkpt lat="42.2887733" lon="14.1349012"><ele>297.0</ele><time>2026-05-01T15:06:13.004Z</time></trkpt><trkpt lat="42.2888905" lon="14.1349968"><ele>296.5</ele><time>2026-05-01T15:06:14.004Z</time></trkpt><trkpt lat="42.2889892" lon="14.1351014"><ele>296.0</ele><time>2026-05-01T15:06:15.004Z</time></trkpt><trkpt lat="42.2890921" lon="14.135216"><ele>299.5</ele><time>2026-05-01T15:06:16.004Z</time></trkpt><trkpt lat="42.2891954" lon="14.135331"><ele>303.0</ele><time>2026-05-01T15:06:17.004Z</time></trkpt><trkpt lat="42.2893087" lon="14.1354457"><ele>306.5</ele><time>2026-05-01T15:06:18.004Z</time></trkpt><trkpt lat="42.2894255" lon="14.1355604"><ele>310.0</ele><time>2026-05-01T15:06:19.004Z</time></trkpt><trkpt lat="42.2895423" lon="14.1356663"><ele>310.25</ele><time>2026-05-01T15:06:20.004Z</time></trkpt><trkpt lat="42.2896726" lon="14.1357421"><ele>310.5</ele><time>2026-05-01T15:06:21.004Z</time></trkpt><trkpt lat="42.2898122" lon="14.1357863"><ele>310.75</ele><time>2026-05-01T15:06:22.004Z</time></trkpt><trkpt lat="42.2899603" lon="14.1358168"><ele>311.0</ele><time>2026-05-01T15:06:23.004Z</time></trkpt><trkpt lat="42.2901032" lon="14.135852"><ele>311.0</ele><time>2026-05-01T15:06:24.004Z</time></trkpt><trkpt lat="42.2902439" lon="14.1359016"><ele>311.0</ele><time>2026-05-01T15:06:25.004Z</time></trkpt><trkpt lat="42.2903708" lon="14.1359472"><ele>311.0</ele><time>2026-05-01T15:06:26.004Z</time></trkpt><trkpt lat="42.2904955" lon="14.1359885"><ele>311.0</ele><time>2026-05-01T15:06:27.004Z</time></trkpt><trkpt lat="42.2906143" lon="14.1360266"><ele>312.2</ele><time>2026-05-01T15:06:28.004Z</time></trkpt><trkpt lat="42.2907306" lon="14.136068"><ele>313.40000000000003</ele><time>2026-05-01T15:06:29.004Z</time></trkpt><trkpt lat="42.290844" lon="14.1361084"><ele>314.6</ele><time>2026-05-01T15:06:30.004Z</time></trkpt><trkpt lat="42.29095" lon="14.1361286"><ele>315.8</ele><time>2026-05-01T15:06:31.004Z</time></trkpt><trkpt lat="42.2910481" lon="14.1361181"><ele>317.0</ele><time>2026-05-01T15:06:32.004Z</time></trkpt><trkpt lat="42.2911443" lon="14.1360928"><ele>317.0</ele><time>2026-05-01T15:06:33.004Z</time></trkpt><trkpt lat="42.2912251" lon="14.1360659"><ele>317.0</ele><time>2026-05-01T15:06:34.004Z</time></trkpt><trkpt lat="42.2913018" lon="14.1360421"><ele>317.0</ele><time>2026-05-01T15:06:35.004Z</time></trkpt><trkpt lat="42.2913691" lon="14.1360404"><ele>317.0</ele><time>2026-05-01T15:06:36.004Z</time></trkpt><trkpt lat="42.2914374" lon="14.1359692"><ele>317.0</ele><time>2026-05-01T15:06:38.004Z</time></trkpt><trkpt lat="42.2914275" lon="14.1358525"><ele>317.0</ele><time>2026-05-01T15:06:40.004Z</time></trkpt><trkpt lat="42.2913602" lon="14.1357437"><ele>319.2</ele><time>2026-05-01T15:06:42.004Z</time></trkpt><trkpt lat="42.2913016" lon="14.13567"><ele>321.4</ele><time>2026-05-01T15:06:44.004Z</time></trkpt><trkpt lat="42.2912849" lon="14.1355113"><ele>323.59999999999997</ele><time>2026-05-01T15:06:48.004Z</time></trkpt><trkpt lat="42.29127" lon="14.1353465"><ele>325.79999999999995</ele><time>2026-05-01T15:06:50.004Z</time></trkpt><trkpt lat="42.2912482" lon="14.1352522"><ele>328.0</ele><time>2026-05-01T15:06:51.004Z</time></trkpt><trkpt lat="42.291238" lon="14.1351563"><ele>328.0</ele><time>2026-05-01T15:06:52.004Z</time></trkpt><trkpt lat="42.2912152" lon="14.1350596"><ele>328.0</ele><time>2026-05-01T15:06:53.004Z</time></trkpt><trkpt lat="42.2911862" lon="14.1349608"><ele>328.0</ele><time>2026-05-01T15:06:54.004Z</time></trkpt><trkpt lat="42.2911616" lon="14.1348583"><ele>328.0</ele><time>2026-05-01T15:06:55.004Z</time></trkpt><trkpt lat="42.2911282" lon="14.134758"><ele>328.0</ele><time>2026-05-01T15:06:56.004Z</time></trkpt><trkpt lat="42.2910818" lon="14.1346669"><ele>328.0</ele><time>2026-05-01T15:06:57.004Z</time></trkpt><trkpt lat="42.2910365" lon="14.1345707"><ele>326.8333333333333</ele><time>2026-05-01T15:06:58.004Z</time></trkpt><trkpt lat="42.2909868" lon="14.1344753"><ele>325.66666666666663</ele><time>2026-05-01T15:06:59.004Z</time></trkpt><trkpt lat="42.2909443" lon="14.1343946"><ele>324.5</ele><time>2026-05-01T15:07:00.004Z</time></trkpt><trkpt lat="42.2908995" lon="14.1343131"><ele>323.3333333333333</ele><time>2026-05-01T15:07:01.004Z</time></trkpt><trkpt lat="42.2908477" lon="14.1342053"><ele>322.1666666666667</ele><time>2026-05-01T15:07:03.004Z</time></trkpt><trkpt lat="42.2907956" lon="14.1341345"><ele>321.0</ele><time>2026-05-01T15:07:07.004Z</time></trkpt><trkpt lat="42.2907017" lon="14.1340644"><ele>320.6</ele><time>2026-05-01T15:07:10.004Z</time></trkpt><trkpt lat="42.290594" lon="14.1339877"><ele>320.20000000000005</ele><time>2026-05-01T15:07:12.004Z</time></trkpt><trkpt lat="42.2905216" lon="14.1339429"><ele>319.79999999999995</ele><time>2026-05-01T15:07:13.004Z</time></trkpt><trkpt lat="42.2904384" lon="14.1339184"><ele>319.4</ele><time>2026-05-01T15:07:14.004Z</time></trkpt><trkpt lat="42.2903484" lon="14.1338794"><ele>319.0</ele><time>2026-05-01T15:07:15.004Z</time></trkpt><trkpt lat="42.2902614" lon="14.1338407"><ele>319.0</ele><time>2026-05-01T15:07:16.004Z</time></trkpt><trkpt lat="42.2901768" lon="14.1337855"><ele>319.0</ele><time>2026-05-01T15:07:17.004Z</time></trkpt><trkpt lat="42.2900952" lon="14.1337229"><ele>319.0</ele><time>2026-05-01T15:07:18.004Z</time></trkpt><trkpt lat="42.29003" lon="14.1336403"><ele>319.0</ele><time>2026-05-01T15:07:19.004Z</time></trkpt><trkpt lat="42.2899752" lon="14.1335434"><ele>319.0</ele><time>2026-05-01T15:07:20.004Z</time></trkpt><trkpt lat="42.2899354" lon="14.1334491"><ele>319.0</ele><time>2026-05-01T15:07:21.004Z</time></trkpt><trkpt lat="42.2898953" lon="14.1333611"><ele>319.0</ele><time>2026-05-01T15:07:22.004Z</time></trkpt><trkpt lat="42.2898484" lon="14.1332726"><ele>319.0</ele><time>2026-05-01T15:07:23.004Z</time></trkpt><trkpt lat="42.2897964" lon="14.1331976"><ele>319.0</ele><time>2026-05-01T15:07:24.004Z</time></trkpt><trkpt lat="42.2897471" lon="14.1331315"><ele>319.0</ele><time>2026-05-01T15:07:25.004Z</time></trkpt><trkpt lat="42.2896592" lon="14.133036"><ele>319.0</ele><time>2026-05-01T15:07:27.004Z</time></trkpt><trkpt lat="42.2896161" lon="14.1329277"><ele>319.0</ele><time>2026-05-01T15:07:29.004Z</time></trkpt><trkpt lat="42.2896205" lon="14.1327831"><ele>318.16666666666663</ele><time>2026-05-01T15:07:31.004Z</time></trkpt><trkpt lat="42.2896187" lon="14.1326828"><ele>317.3333333333333</ele><time>2026-05-01T15:07:32.004Z</time></trkpt><trkpt lat="42.2896296" lon="14.1325811"><ele>316.5</ele><time>2026-05-01T15:07:33.004Z</time></trkpt><trkpt lat="42.2896511" lon="14.1324622"><ele>315.6666666666667</ele><time>2026-05-01T15:07:34.004Z</time></trkpt><trkpt lat="42.289677" lon="14.132328"><ele>314.83333333333337</ele><time>2026-05-01T15:07:35.004Z</time></trkpt><trkpt lat="42.289706" lon="14.1322073"><ele>314.0</ele><time>2026-05-01T15:07:36.004Z</time></trkpt><trkpt lat="42.2897386" lon="14.1320881"><ele>313.1666666666667</ele><time>2026-05-01T15:07:37.004Z</time></trkpt><trkpt lat="42.2897794" lon="14.1319738"><ele>312.33333333333337</ele><time>2026-05-01T15:07:38.004Z</time></trkpt><trkpt lat="42.2898197" lon="14.1318716"><ele>311.5</ele><time>2026-05-01T15:07:39.004Z</time></trkpt><trkpt lat="42.2898593" lon="14.1317896"><ele>310.6666666666667</ele><time>2026-05-01T15:07:40.004Z</time></trkpt><trkpt lat="42.289899" lon="14.1317186"><ele>309.8333333333333</ele><time>2026-05-01T15:07:41.004Z</time></trkpt><trkpt lat="42.2899513" lon="14.1315947"><ele>309.0</ele><time>2026-05-01T15:07:43.004Z</time></trkpt><trkpt lat="42.2899864" lon="14.1315228"><ele>306.3333333333333</ele><time>2026-05-01T15:07:45.004Z</time></trkpt><trkpt lat="42.2900333" lon="14.1314587"><ele>303.6666666666667</ele><time>2026-05-01T15:07:48.004Z</time></trkpt><trkpt lat="42.2900838" lon="14.1313524"><ele>301.0</ele><time>2026-05-01T15:07:51.004Z</time></trkpt><trkpt lat="42.2901191" lon="14.1312683"><ele>298.33333333333337</ele><time>2026-05-01T15:07:54.004Z</time></trkpt><trkpt lat="42.2901466" lon="14.1311739"><ele>295.6666666666667</ele><time>2026-05-01T15:07:57.004Z</time></trkpt><trkpt lat="42.2901725" lon="14.1310846"><ele>293.0</ele><time>2026-05-01T15:07:59.004Z</time></trkpt><trkpt lat="42.2901981" lon="14.1309837"><ele>293.0</ele><time>2026-05-01T15:08:01.004Z</time></trkpt><trkpt lat="42.2902253" lon="14.1308734"><ele>293.0</ele><time>2026-05-01T15:08:03.004Z</time></trkpt><trkpt lat="42.2902496" lon="14.1307497"><ele>293.0</ele><time>2026-05-01T15:08:05.004Z</time></trkpt><trkpt lat="42.2902833" lon="14.1306065"><ele>293.0</ele><time>2026-05-01T15:08:07.004Z</time></trkpt><trkpt lat="42.2903043" lon="14.1305193"><ele>293.0</ele><time>2026-05-01T15:08:08.004Z</time></trkpt><trkpt lat="42.2903234" lon="14.1304263"><ele>293.0</ele><time>2026-05-01T15:08:09.004Z</time></trkpt><trkpt lat="42.2903447" lon="14.1303365"><ele>290.33333333333337</ele><time>2026-05-01T15:08:10.004Z</time></trkpt><trkpt lat="42.2903579" lon="14.1302405"><ele>287.6666666666667</ele><time>2026-05-01T15:08:11.004Z</time></trkpt><trkpt lat="42.2903705" lon="14.1301415"><ele>285.0</ele><time>2026-05-01T15:08:12.004Z</time></trkpt><trkpt lat="42.2903791" lon="14.1300363"><ele>282.3333333333333</ele><time>2026-05-01T15:08:13.004Z</time></trkpt><trkpt lat="42.2903795" lon="14.1299358"><ele>279.66666666666663</ele><time>2026-05-01T15:08:14.004Z</time></trkpt><trkpt lat="42.2903734" lon="14.129832"><ele>277.0</ele><time>2026-05-01T15:08:15.004Z</time></trkpt><trkpt lat="42.2903669" lon="14.1297281"><ele>275.85714285714283</ele><time>2026-05-01T15:08:16.004Z</time></trkpt><trkpt lat="42.290359" lon="14.1296302"><ele>274.71428571428567</ele><time>2026-05-01T15:08:17.004Z</time></trkpt><trkpt lat="42.2903515" lon="14.12953"><ele>273.57142857142856</ele><time>2026-05-01T15:08:18.004Z</time></trkpt><trkpt lat="42.2903381" lon="14.1294364"><ele>272.42857142857144</ele><time>2026-05-01T15:08:19.004Z</time></trkpt><trkpt lat="42.2903351" lon="14.1293401"><ele>271.28571428571433</ele><time>2026-05-01T15:08:20.004Z</time></trkpt><trkpt lat="42.2903333" lon="14.1292457"><ele>270.14285714285717</ele><time>2026-05-01T15:08:21.004Z</time></trkpt><trkpt lat="42.2903368" lon="14.1291559"><ele>269.0</ele><time>2026-05-01T15:08:22.004Z</time></trkpt><trkpt lat="42.2903409" lon="14.1290614"><ele>266.14285714285717</ele><time>2026-05-01T15:08:23.004Z</time></trkpt><trkpt lat="42.2903431" lon="14.1289682"><ele>263.28571428571433</ele><time>2026-05-01T15:08:24.004Z</time></trkpt><trkpt lat="42.2903527" lon="14.1288734"><ele>260.42857142857144</ele><time>2026-05-01T15:08:25.004Z</time></trkpt><trkpt lat="42.2903669" lon="14.1287813"><ele>257.57142857142856</ele><time>2026-05-01T15:08:26.004Z</time></trkpt><trkpt lat="42.2903784" lon="14.1286909"><ele>254.7142857142857</ele><time>2026-05-01T15:08:27.004Z</time></trkpt><trkpt lat="42.290394" lon="14.1285945"><ele>251.85714285714283</ele><time>2026-05-01T15:08:28.004Z</time></trkpt><trkpt lat="42.290406" lon="14.1285046"><ele>249.0</ele><time>2026-05-01T15:08:29.004Z</time></trkpt><trkpt lat="42.2904226" lon="14.1284071"><ele>249.0</ele><time>2026-05-01T15:08:30.004Z</time></trkpt><trkpt lat="42.2904319" lon="14.1283094"><ele>249.0</ele><time>2026-05-01T15:08:31.004Z</time></trkpt><trkpt lat="42.2904421" lon="14.1282163"><ele>249.0</ele><time>2026-05-01T15:08:32.004Z</time></trkpt><trkpt lat="42.290452" lon="14.1281268"><ele>249.0</ele><time>2026-05-01T15:08:33.004Z</time></trkpt><trkpt lat="42.2904629" lon="14.1280424"><ele>249.0</ele><time>2026-05-01T15:08:34.004Z</time></trkpt><trkpt lat="42.2904845" lon="14.1279009"><ele>249.0</ele><time>2026-05-01T15:08:36.004Z</time></trkpt><trkpt lat="42.2905026" lon="14.1277744"><ele>244.79999999999998</ele><time>2026-05-01T15:08:38.004Z</time></trkpt><trkpt lat="42.2905159" lon="14.1276399"><ele>240.59999999999997</ele><time>2026-05-01T15:08:40.004Z</time></trkpt><trkpt lat="42.2905423" lon="14.127497"><ele>236.4</ele><time>2026-05-01T15:08:42.004Z</time></trkpt><trkpt lat="42.2905655" lon="14.127349"><ele>232.2</ele><time>2026-05-01T15:08:44.004Z</time></trkpt><trkpt lat="42.2905925" lon="14.1271826"><ele>228.0</ele><time>2026-05-01T15:08:46.004Z</time></trkpt><trkpt lat="42.2906048" lon="14.1270904"><ele>227.42857142857142</ele><time>2026-05-01T15:08:47.004Z</time></trkpt><trkpt lat="42.2906171" lon="14.1269936"><ele>226.85714285714283</ele><time>2026-05-01T15:08:48.004Z</time></trkpt><trkpt lat="42.2906281" lon="14.1268918"><ele>226.28571428571428</ele><time>2026-05-01T15:08:49.004Z</time></trkpt><trkpt lat="42.2906302" lon="14.1267881"><ele>225.71428571428572</ele><time>2026-05-01T15:08:50.004Z</time></trkpt><trkpt lat="42.2906249" lon="14.1266892"><ele>225.14285714285714</ele><time>2026-05-01T15:08:51.004Z</time></trkpt><trkpt lat="42.2906134" lon="14.1265882"><ele>224.57142857142856</ele><time>2026-05-01T15:08:52.004Z</time></trkpt><trkpt lat="42.2906059" lon="14.1264905"><ele>224.0</ele><time>2026-05-01T15:08:53.004Z</time></trkpt><trkpt lat="42.2905918" lon="14.1263907"><ele>220.33333333333334</ele><time>2026-05-01T15:08:54.004Z</time></trkpt><trkpt lat="42.290576" lon="14.1262934"><ele>216.66666666666669</ele><time>2026-05-01T15:08:55.004Z</time></trkpt><trkpt lat="42.2905605" lon="14.1261948"><ele>213.0</ele><time>2026-05-01T15:08:56.004Z</time></trkpt><trkpt lat="42.2905491" lon="14.1260983"><ele>209.33333333333331</ele><time>2026-05-01T15:08:57.004Z</time></trkpt><trkpt lat="42.2905403" lon="14.1260069"><ele>205.66666666666666</ele><time>2026-05-01T15:08:58.004Z</time></trkpt><trkpt lat="42.2905379" lon="14.1259211"><ele>202.0</ele><time>2026-05-01T15:08:59.004Z</time></trkpt><trkpt lat="42.2905252" lon="14.1257638"><ele>201.39999999999998</ele><time>2026-05-01T15:09:01.004Z</time></trkpt><trkpt lat="42.2905133" lon="14.1256253"><ele>200.79999999999998</ele><time>2026-05-01T15:09:03.004Z</time></trkpt><trkpt lat="42.2904953" lon="14.1254902"><ele>200.2</ele><time>2026-05-01T15:09:05.004Z</time></trkpt><trkpt lat="42.2904901" lon="14.1253606"><ele>199.6</ele><time>2026-05-01T15:09:07.004Z</time></trkpt><trkpt lat="42.2904922" lon="14.1252449"><ele>199.0</ele><time>2026-05-01T15:09:09.004Z</time></trkpt><trkpt lat="42.2904933" lon="14.1251323"><ele>198.99999999999997</ele><time>2026-05-01T15:09:11.004Z</time></trkpt><trkpt lat="42.2905069" lon="14.1250112"><ele>199.0</ele><time>2026-05-01T15:09:13.004Z</time></trkpt><trkpt lat="42.2905275" lon="14.1249211"><ele>199.0</ele><time>2026-05-01T15:09:15.004Z</time></trkpt><trkpt lat="42.2905733" lon="14.1248332"><ele>199.0</ele><time>2026-05-01T15:09:17.004Z</time></trkpt><trkpt lat="42.2906188" lon="14.1247518"><ele>198.99999999999997</ele><time>2026-05-01T15:09:19.004Z</time></trkpt><trkpt lat="42.2906632" lon="14.1246608"><ele>199.0</ele><time>2026-05-01T15:09:21.004Z</time></trkpt><trkpt lat="42.2907081" lon="14.1245572"><ele>198.0</ele><time>2026-05-01T15:09:23.004Z</time></trkpt><trkpt lat="42.2907503" lon="14.1244681"><ele>197.0</ele><time>2026-05-01T15:09:25.004Z</time></trkpt><trkpt lat="42.2907989" lon="14.1243734"><ele>196.0</ele><time>2026-05-01T15:09:27.004Z</time></trkpt><trkpt lat="42.2908391" lon="14.1242745"><ele>195.0</ele><time>2026-05-01T15:09:29.004Z</time></trkpt><trkpt lat="42.2908763" lon="14.1241603"><ele>194.0</ele><time>2026-05-01T15:09:31.004Z</time></trkpt><trkpt lat="42.2909134" lon="14.1240122"><ele>189.5</ele><time>2026-05-01T15:09:33.004Z</time></trkpt><trkpt lat="42.2909512" lon="14.123869"><ele>185.0</ele><time>2026-05-01T15:09:35.004Z</time></trkpt><trkpt lat="42.2909777" lon="14.1237254"><ele>180.5</ele><time>2026-05-01T15:09:37.004Z</time></trkpt><trkpt lat="42.2909772" lon="14.123579"><ele>176.0</ele><time>2026-05-01T15:09:39.004Z</time></trkpt><trkpt lat="42.2909278" lon="14.123417"><ele>176.0</ele><time>2026-05-01T15:09:41.004Z</time></trkpt><trkpt lat="42.2908956" lon="14.1233317"><ele>176.0</ele><time>2026-05-01T15:09:42.004Z</time></trkpt><trkpt lat="42.2908617" lon="14.1232409"><ele>176.0</ele><time>2026-05-01T15:09:43.004Z</time></trkpt><trkpt lat="42.290815" lon="14.1230911"><ele>176.0</ele><time>2026-05-01T15:09:45.004Z</time></trkpt><trkpt lat="42.2907775" lon="14.122952"><ele>176.0</ele><time>2026-05-01T15:09:47.004Z</time></trkpt><trkpt lat="42.2907418" lon="14.1228358"><ele>173.5</ele><time>2026-05-01T15:09:49.004Z</time></trkpt><trkpt lat="42.290713" lon="14.1227499"><ele>171.0</ele><time>2026-05-01T15:09:51.004Z</time></trkpt><trkpt lat="42.2906838" lon="14.1226204"><ele>168.5</ele><time>2026-05-01T15:09:54.004Z</time></trkpt><trkpt lat="42.2906989" lon="14.1225217"><ele>166.0</ele><time>2026-05-01T15:09:56.004Z</time></trkpt><trkpt lat="42.290758" lon="14.1224464"><ele>163.5</ele><time>2026-05-01T15:09:58.004Z</time></trkpt><trkpt lat="42.2908417" lon="14.1223686"><ele>161.0</ele><time>2026-05-01T15:10:00.004Z</time></trkpt><trkpt lat="42.290927" lon="14.1222833"><ele>161.0</ele><time>2026-05-01T15:10:02.004Z</time></trkpt><trkpt lat="42.2909885" lon="14.1222101"><ele>161.0</ele><time>2026-05-01T15:10:04.004Z</time></trkpt><trkpt lat="42.2909808" lon="14.1221018"><ele>161.0</ele><time>2026-05-01T15:10:06.004Z</time></trkpt><trkpt lat="42.290973" lon="14.1219797"><ele>161.0</ele><time>2026-05-01T15:10:08.004Z</time></trkpt><trkpt lat="42.2909777" lon="14.1218671"><ele>161.0</ele><time>2026-05-01T15:10:10.004Z</time></trkpt><trkpt lat="42.2910399" lon="14.1217611"><ele>161.0</ele><time>2026-05-01T15:10:12.004Z</time></trkpt><trkpt lat="42.2910758" lon="14.1216782"><ele>161.0</ele><time>2026-05-01T15:10:14.004Z</time></trkpt><trkpt lat="42.290927" lon="14.1222833"><ele>161.0</ele><time>2026-05-01T15:10:02.004Z</time></trkpt><trkpt lat="42.2909885" lon="14.1222101"><ele>161.0</ele><time>2026-05-01T15:10:04.004Z</time></trkpt><trkpt lat="42.2909808" lon="14.1221018"><ele>161.0</ele><time>2026-05-01T15:10:06.004Z</time></trkpt><trkpt lat="42.290973" lon="14.1219797"><ele>161.0</ele><time>2026-05-01T15:10:08.004Z</time></trkpt><trkpt lat="42.2909777" lon="14.1218671"><ele>161.0</ele><time>2026-05-01T15:10:10.004Z</time></trkpt><trkpt lat="42.2910399" lon="14.1217611"><ele>161.0</ele><time>2026-05-01T15:10:12.004Z</time></trkpt><trkpt lat="42.2910758" lon="14.1216782"><ele>161.0</ele><time>2026-05-01T15:10:14.004Z</time></trkpt><trkpt lat="42.2911299" lon="14.1216103"><ele>161.0</ele><time>2026-05-01T15:10:56.004Z</time></trkpt><trkpt lat="42.2911825" lon="14.1215006"><ele>161.0</ele><time>2026-05-01T15:10:59.004Z</time></trkpt><trkpt lat="42.2912179" lon="14.1214295"><ele>161.0</ele><time>2026-05-01T15:11:01.004Z</time></trkpt><trkpt lat="42.2912563" lon="14.1213519"><ele>161.0</ele><time>2026-05-01T15:11:04.004Z</time></trkpt><trkpt lat="42.2912851" lon="14.1212645"><ele>161.0</ele><time>2026-05-01T15:11:07.004Z</time></trkpt><trkpt lat="42.2913255" lon="14.121189"><ele>161.0</ele><time>2026-05-01T15:11:09Z</time></trkpt><trkpt lat="42.2913835" lon="14.1210587"><ele>163.0</ele><time>2026-05-01T15:11:11.004Z</time></trkpt><trkpt lat="42.2914174" lon="14.1209826"><ele>165.0</ele><time>2026-05-01T15:11:12.004Z</time></trkpt><trkpt lat="42.2914762" lon="14.1208422"><ele>167.0</ele><time>2026-05-01T15:11:14.004Z</time></trkpt><trkpt lat="42.2915456" lon="14.1207097"><ele>169.0</ele><time>2026-05-01T15:11:16.004Z</time></trkpt><trkpt lat="42.2916115" lon="14.1205795"><ele>171.0</ele><time>2026-05-01T15:11:18.004Z</time></trkpt><trkpt lat="42.2916674" lon="14.1204631"><ele>175.33333333333334</ele><time>2026-05-01T15:11:20.004Z</time></trkpt><trkpt lat="42.2917166" lon="14.1203577"><ele>179.66666666666669</ele><time>2026-05-01T15:11:22.004Z</time></trkpt><trkpt lat="42.2917684" lon="14.1202572"><ele>184.0</ele><time>2026-05-01T15:11:24.004Z</time></trkpt><trkpt lat="42.2918047" lon="14.1201553"><ele>188.33333333333334</ele><time>2026-05-01T15:11:26.004Z</time></trkpt><trkpt lat="42.2918091" lon="14.1200424"><ele>192.66666666666669</ele><time>2026-05-01T15:11:29.004Z</time></trkpt><trkpt lat="42.2918023" lon="14.1199367"><ele>197.0</ele><time>2026-05-01T15:12:30.004Z</time></trkpt><trkpt lat="42.2917777" lon="14.11984"><ele>200.6</ele><time>2026-05-01T15:12:39.004Z</time></trkpt><trkpt lat="42.2917651" lon="14.1197044"><ele>204.2</ele><time>2026-05-01T15:12:41.004Z</time></trkpt><trkpt lat="42.2917315" lon="14.1195647"><ele>207.8</ele><time>2026-05-01T15:12:43.004Z</time></trkpt><trkpt lat="42.2917117" lon="14.1194633"><ele>211.4</ele><time>2026-05-01T15:12:46.004Z</time></trkpt><trkpt lat="42.2918136" lon="14.1194634"><ele>215.0</ele><time>2026-05-01T15:12:49.004Z</time></trkpt><trkpt lat="42.2918826" lon="14.119516"><ele>215.00000000000003</ele><time>2026-05-01T15:12:51.004Z</time></trkpt><trkpt lat="42.291966" lon="14.1195239"><ele>215.0</ele><time>2026-05-01T15:12:53.004Z</time></trkpt><trkpt lat="42.2920493" lon="14.1194983"><ele>215.0</ele><time>2026-05-01T15:12:55.004Z</time></trkpt><trkpt lat="42.2921379" lon="14.1194528"><ele>215.0</ele><time>2026-05-01T15:12:57.004Z</time></trkpt><trkpt lat="42.2922427" lon="14.1193904"><ele>215.00000000000003</ele><time>2026-05-01T15:12:59.004Z</time></trkpt><trkpt lat="42.2923006" lon="14.1193535"><ele>215.0</ele><time>2026-05-01T15:13:00.004Z</time></trkpt><trkpt lat="42.2924092" lon="14.1192866"><ele>218.0</ele><time>2026-05-01T15:13:02.004Z</time></trkpt><trkpt lat="42.2924976" lon="14.1192246"><ele>221.0</ele><time>2026-05-01T15:13:04.004Z</time></trkpt><trkpt lat="42.2925736" lon="14.1191573"><ele>224.0</ele><time>2026-05-01T15:13:06.004Z</time></trkpt><trkpt lat="42.2926527" lon="14.1190654"><ele>227.0</ele><time>2026-05-01T15:13:08.004Z</time></trkpt><trkpt lat="42.2927221" lon="14.1189718"><ele>230.0</ele><time>2026-05-01T15:13:10.004Z</time></trkpt><trkpt lat="42.2927958" lon="14.1188904"><ele>233.4</ele><time>2026-05-01T15:13:12.004Z</time></trkpt><trkpt lat="42.2928686" lon="14.1188124"><ele>236.8</ele><time>2026-05-01T15:13:14.004Z</time></trkpt><trkpt lat="42.2929392" lon="14.1187444"><ele>240.2</ele><time>2026-05-01T15:13:16.004Z</time></trkpt><trkpt lat="42.2930148" lon="14.1186852"><ele>243.6</ele><time>2026-05-01T15:13:18.004Z</time></trkpt><trkpt lat="42.2930572" lon="14.1185802"><ele>247.0</ele><time>2026-05-01T15:13:21.004Z</time></trkpt><trkpt lat="42.293027" lon="14.1184526"><ele>246.99999999999997</ele><time>2026-05-01T15:13:23.004Z</time></trkpt><trkpt lat="42.2929992" lon="14.1183292"><ele>247.0</ele><time>2026-05-01T15:13:25.004Z</time></trkpt><trkpt lat="42.2929961" lon="14.1182256"><ele>247.0</ele><time>2026-05-01T15:13:28.004Z</time></trkpt><trkpt lat="42.2929515" lon="14.1181484"><ele>247.0</ele><time>2026-05-01T15:16:08.004Z</time></trkpt><trkpt lat="42.2928941" lon="14.118105"><ele>246.99999999999997</ele><time>2026-05-01T15:19:17.004Z</time></trkpt><trkpt lat="42.2928158" lon="14.1180696"><ele>247.0</ele><time>2026-05-01T15:19:21.004Z</time></trkpt><trkpt lat="42.2927103" lon="14.1180467"><ele>246.16666666666666</ele><time>2026-05-01T15:19:23.004Z</time></trkpt><trkpt lat="42.2925867" lon="14.1180041"><ele>245.33333333333331</ele><time>2026-05-01T15:19:25.004Z</time></trkpt><trkpt lat="42.2925213" lon="14.1179748"><ele>244.5</ele><time>2026-05-01T15:19:26.004Z</time></trkpt><trkpt lat="42.292467" lon="14.1179309"><ele>243.66666666666669</ele><time>2026-05-01T15:19:27.004Z</time></trkpt><trkpt lat="42.2924141" lon="14.1178712"><ele>242.83333333333334</ele><time>2026-05-01T15:19:28.004Z</time></trkpt><trkpt lat="42.2923807" lon="14.1177984"><ele>242.0</ele><time>2026-05-01T15:19:29.004Z</time></trkpt><trkpt lat="42.2923836" lon="14.1176431"><ele>242.00000000000003</ele><time>2026-05-01T15:19:31.004Z</time></trkpt><trkpt lat="42.292471" lon="14.1175596"><ele>242.0</ele><time>2026-05-01T15:19:33.004Z</time></trkpt><trkpt lat="42.2925405" lon="14.1175596"><ele>242.0</ele><time>2026-05-01T15:19:34.004Z</time></trkpt><trkpt lat="42.2926168" lon="14.1175924"><ele>242.0</ele><time>2026-05-01T15:19:35.004Z</time></trkpt><trkpt lat="42.2927031" lon="14.1176478"><ele>242.00000000000003</ele><time>2026-05-01T15:19:36.004Z</time></trkpt><trkpt lat="42.2927805" lon="14.1177136"><ele>242.0</ele><time>2026-05-01T15:19:37.004Z</time></trkpt><trkpt lat="42.2928566" lon="14.117767"><ele>242.0</ele><time>2026-05-01T15:19:38.004Z</time></trkpt><trkpt lat="42.292929" lon="14.1178035"><ele>242.0</ele><time>2026-05-01T15:19:39.004Z</time></trkpt><trkpt lat="42.2930305" lon="14.1178232"><ele>242.0</ele><time>2026-05-01T15:19:41.004Z</time></trkpt><trkpt lat="42.2931111" lon="14.1177458"><ele>242.0</ele><time>2026-05-01T15:19:43.004Z</time></trkpt><trkpt lat="42.2931181" lon="14.1175989"><ele>242.0</ele><time>2026-05-01T15:19:45.004Z</time></trkpt><trkpt lat="42.2930342" lon="14.1174865"><ele>242.0</ele><time>2026-05-01T15:19:47.004Z</time></trkpt><trkpt lat="42.2929647" lon="14.1174205"><ele>242.0</ele><time>2026-05-01T15:19:48.004Z</time></trkpt><trkpt lat="42.2928901" lon="14.1173487"><ele>242.0</ele><time>2026-05-01T15:19:49.004Z</time></trkpt><trkpt lat="42.2928155" lon="14.1172691"><ele>242.0</ele><time>2026-05-01T15:19:50.004Z</time></trkpt><trkpt lat="42.2927499" lon="14.117168"><ele>242.0</ele><time>2026-05-01T15:19:51.004Z</time></trkpt><trkpt lat="42.2926805" lon="14.1170428"><ele>238.75</ele><time>2026-05-01T15:19:52.004Z</time></trkpt><trkpt lat="42.2926079" lon="14.1169035"><ele>235.5</ele><time>2026-05-01T15:19:53.004Z</time></trkpt><trkpt lat="42.2925394" lon="14.1167658"><ele>232.25</ele><time>2026-05-01T15:19:54.004Z</time></trkpt><trkpt lat="42.2924643" lon="14.116631"><ele>229.0</ele><time>2026-05-01T15:19:55.004Z</time></trkpt><trkpt lat="42.2923918" lon="14.1164943"><ele>224.33333333333331</ele><time>2026-05-01T15:19:56.004Z</time></trkpt><trkpt lat="42.2922961" lon="14.1163535"><ele>219.66666666666669</ele><time>2026-05-01T15:19:57.004Z</time></trkpt><trkpt lat="42.2921828" lon="14.1162102"><ele>215.0</ele><time>2026-05-01T15:19:58.004Z</time></trkpt><trkpt lat="42.2920606" lon="14.1160764"><ele>215.0</ele><time>2026-05-01T15:19:59.004Z</time></trkpt><trkpt lat="42.2919383" lon="14.1159257"><ele>215.0</ele><time>2026-05-01T15:20:00.004Z</time></trkpt><trkpt lat="42.2918208" lon="14.1157632"><ele>215.0</ele><time>2026-05-01T15:20:01.004Z</time></trkpt><trkpt lat="42.2917106" lon="14.1155914"><ele>214.0</ele><time>2026-05-01T15:20:02.004Z</time></trkpt><trkpt lat="42.2916019" lon="14.1154265"><ele>213.0</ele><time>2026-05-01T15:20:03.004Z</time></trkpt><trkpt lat="42.2914978" lon="14.115254"><ele>212.0</ele><time>2026-05-01T15:20:04.004Z</time></trkpt><trkpt lat="42.2913949" lon="14.1150817"><ele>214.0</ele><time>2026-05-01T15:20:05.004Z</time></trkpt><trkpt lat="42.2913029" lon="14.1149036"><ele>216.0</ele><time>2026-05-01T15:20:06.004Z</time></trkpt><trkpt lat="42.2912113" lon="14.1147141"><ele>218.0</ele><time>2026-05-01T15:20:07.004Z</time></trkpt><trkpt lat="42.2911189" lon="14.1145244"><ele>218.0</ele><time>2026-05-01T15:20:08.004Z</time></trkpt><trkpt lat="42.291027" lon="14.1143208"><ele>218.0</ele><time>2026-05-01T15:20:09.004Z</time></trkpt><trkpt lat="42.2909354" lon="14.1141233"><ele>218.0</ele><time>2026-05-01T15:20:10.004Z</time></trkpt><trkpt lat="42.2908457" lon="14.1139217"><ele>216.66666666666669</ele><time>2026-05-01T15:20:11.004Z</time></trkpt><trkpt lat="42.2907584" lon="14.1137239"><ele>215.33333333333331</ele><time>2026-05-01T15:20:12.004Z</time></trkpt><trkpt lat="42.2906765" lon="14.1135353"><ele>214.0</ele><time>2026-05-01T15:20:13.004Z</time></trkpt><trkpt lat="42.290605" lon="14.1133468"><ele>217.33333333333331</ele><time>2026-05-01T15:20:14.004Z</time></trkpt><trkpt lat="42.290538" lon="14.1131591"><ele>220.66666666666669</ele><time>2026-05-01T15:20:15.004Z</time></trkpt><trkpt lat="42.2904788" lon="14.1129566"><ele>224.0</ele><time>2026-05-01T15:20:16.004Z</time></trkpt><trkpt lat="42.290423" lon="14.1127484"><ele>224.0</ele><time>2026-05-01T15:20:17.004Z</time></trkpt><trkpt lat="42.2903653" lon="14.1125357"><ele>224.0</ele><time>2026-05-01T15:20:18.004Z</time></trkpt><trkpt lat="42.2903128" lon="14.1123157"><ele>224.0</ele><time>2026-05-01T15:20:19.004Z</time></trkpt><trkpt lat="42.2902656" lon="14.1120963"><ele>222.33333333333334</ele><time>2026-05-01T15:20:20.004Z</time></trkpt><trkpt lat="42.2902143" lon="14.1118862"><ele>220.66666666666669</ele><time>2026-05-01T15:20:21.004Z</time></trkpt><trkpt lat="42.2901745" lon="14.1116854"><ele>219.0</ele><time>2026-05-01T15:20:22.004Z</time></trkpt><trkpt lat="42.2901401" lon="14.1114905"><ele>217.25</ele><time>2026-05-01T15:20:23.004Z</time></trkpt><trkpt lat="42.2901281" lon="14.1112989"><ele>215.5</ele><time>2026-05-01T15:20:24.004Z</time></trkpt><trkpt lat="42.2901336" lon="14.1111264"><ele>213.75</ele><time>2026-05-01T15:20:25.004Z</time></trkpt><trkpt lat="42.2901633" lon="14.1109539"><ele>212.0</ele><time>2026-05-01T15:20:26.004Z</time></trkpt><trkpt lat="42.290212" lon="14.1107926"><ele>209.25</ele><time>2026-05-01T15:20:27.004Z</time></trkpt><trkpt lat="42.2902647" lon="14.110642"><ele>206.5</ele><time>2026-05-01T15:20:28.004Z</time></trkpt><trkpt lat="42.2903216" lon="14.1105034"><ele>203.75</ele><time>2026-05-01T15:20:29.004Z</time></trkpt><trkpt lat="42.2903991" lon="14.1103832"><ele>201.0</ele><time>2026-05-01T15:20:30.004Z</time></trkpt><trkpt lat="42.29049" lon="14.1102873"><ele>202.5</ele><time>2026-05-01T15:20:31.004Z</time></trkpt><trkpt lat="42.2906056" lon="14.1101921"><ele>204.0</ele><time>2026-05-01T15:20:32.004Z</time></trkpt><trkpt lat="42.2907333" lon="14.110074"><ele>205.5</ele><time>2026-05-01T15:20:33.004Z</time></trkpt><trkpt lat="42.2908628" lon="14.109955"><ele>207.0</ele><time>2026-05-01T15:20:34.004Z</time></trkpt><trkpt lat="42.2909904" lon="14.109823"><ele>207.0</ele><time>2026-05-01T15:20:35.004Z</time></trkpt><trkpt lat="42.2911119" lon="14.1096818"><ele>207.0</ele><time>2026-05-01T15:20:36.004Z</time></trkpt><trkpt lat="42.2912204" lon="14.1095432"><ele>207.0</ele><time>2026-05-01T15:20:37.004Z</time></trkpt><trkpt lat="42.2913271" lon="14.109427"><ele>207.0</ele><time>2026-05-01T15:20:38.004Z</time></trkpt><trkpt lat="42.2914424" lon="14.1093273"><ele>212.66666666666669</ele><time>2026-05-01T15:20:39.004Z</time></trkpt><trkpt lat="42.2915736" lon="14.1092372"><ele>218.33333333333334</ele><time>2026-05-01T15:20:40.004Z</time></trkpt><trkpt lat="42.2917138" lon="14.1091508"><ele>224.0</ele><time>2026-05-01T15:20:41.004Z</time></trkpt><trkpt lat="42.2918486" lon="14.1090572"><ele>223.5</ele><time>2026-05-01T15:20:42.004Z</time></trkpt><trkpt lat="42.2919697" lon="14.1089538"><ele>223.0</ele><time>2026-05-01T15:20:43.004Z</time></trkpt><trkpt lat="42.2920858" lon="14.1088499"><ele>222.5</ele><time>2026-05-01T15:20:44.004Z</time></trkpt><trkpt lat="42.2921919" lon="14.1087331"><ele>222.0</ele><time>2026-05-01T15:20:45.004Z</time></trkpt><trkpt lat="42.2922869" lon="14.1086078"><ele>222.0</ele><time>2026-05-01T15:20:46.004Z</time></trkpt><trkpt lat="42.2923666" lon="14.1084591"><ele>222.0</ele><time>2026-05-01T15:20:47.004Z</time></trkpt><trkpt lat="42.2924502" lon="14.1082823"><ele>222.0</ele><time>2026-05-01T15:20:48.004Z</time></trkpt><trkpt lat="42.2925368" lon="14.1080894"><ele>223.66666666666669</ele><time>2026-05-01T15:20:49.004Z</time></trkpt><trkpt lat="42.2926239" lon="14.1078862"><ele>225.33333333333334</ele><time>2026-05-01T15:20:50.004Z</time></trkpt><trkpt lat="42.2927037" lon="14.1076799"><ele>227.0</ele><time>2026-05-01T15:20:51.004Z</time></trkpt><trkpt lat="42.2927852" lon="14.1074642"><ele>228.0</ele><time>2026-05-01T15:20:52.004Z</time></trkpt><trkpt lat="42.2928643" lon="14.1072397"><ele>229.0</ele><time>2026-05-01T15:20:53.004Z</time></trkpt><trkpt lat="42.292945" lon="14.1070117"><ele>230.0</ele><time>2026-05-01T15:20:54.004Z</time></trkpt><trkpt lat="42.2930257" lon="14.1067985"><ele>225.66666666666669</ele><time>2026-05-01T15:20:55.004Z</time></trkpt><trkpt lat="42.2931084" lon="14.1065914"><ele>221.33333333333331</ele><time>2026-05-01T15:20:56.005Z</time></trkpt><trkpt lat="42.2931923" lon="14.106389"><ele>217.0</ele><time>2026-05-01T15:20:57.004Z</time></trkpt><trkpt lat="42.293283" lon="14.106184"><ele>217.0</ele><time>2026-05-01T15:20:58.004Z</time></trkpt><trkpt lat="42.2933914" lon="14.1059905"><ele>217.0</ele><time>2026-05-01T15:20:59.004Z</time></trkpt><trkpt lat="42.2935092" lon="14.1058054"><ele>217.0</ele><time>2026-05-01T15:21:00.004Z</time></trkpt><trkpt lat="42.2936365" lon="14.1056385"><ele>218.0</ele><time>2026-05-01T15:21:01.004Z</time></trkpt><trkpt lat="42.2937645" lon="14.1054715"><ele>219.0</ele><time>2026-05-01T15:21:02.004Z</time></trkpt><trkpt lat="42.2938779" lon="14.1052765"><ele>220.0</ele><time>2026-05-01T15:21:03.004Z</time></trkpt><trkpt lat="42.2939819" lon="14.1050662"><ele>216.33333333333331</ele><time>2026-05-01T15:21:04.004Z</time></trkpt><trkpt lat="42.2940901" lon="14.1048546"><ele>212.66666666666669</ele><time>2026-05-01T15:21:05.004Z</time></trkpt><trkpt lat="42.2941968" lon="14.1046417"><ele>209.0</ele><time>2026-05-01T15:21:06.004Z</time></trkpt><trkpt lat="42.2943041" lon="14.1044347"><ele>209.0</ele><time>2026-05-01T15:21:07.004Z</time></trkpt><trkpt lat="42.2944097" lon="14.104218"><ele>209.0</ele><time>2026-05-01T15:21:08.004Z</time></trkpt><trkpt lat="42.2945124" lon="14.1040049"><ele>209.0</ele><time>2026-05-01T15:21:09.004Z</time></trkpt><trkpt lat="42.2946203" lon="14.1037892"><ele>209.0</ele><time>2026-05-01T15:21:10.004Z</time></trkpt><trkpt lat="42.2947256" lon="14.1035743"><ele>209.0</ele><time>2026-05-01T15:21:11.004Z</time></trkpt><trkpt lat="42.2948275" lon="14.1033573"><ele>209.0</ele><time>2026-05-01T15:21:12.004Z</time></trkpt><trkpt lat="42.2949257" lon="14.1031379"><ele>207.33333333333334</ele><time>2026-05-01T15:21:13.004Z</time></trkpt><trkpt lat="42.2950273" lon="14.1029287"><ele>205.66666666666669</ele><time>2026-05-01T15:21:14.004Z</time></trkpt><trkpt lat="42.2951325" lon="14.1027343"><ele>204.0</ele><time>2026-05-01T15:21:15.004Z</time></trkpt><trkpt lat="42.2952446" lon="14.1025464"><ele>203.66666666666669</ele><time>2026-05-01T15:21:16.004Z</time></trkpt><trkpt lat="42.2953541" lon="14.1023722"><ele>203.33333333333334</ele><time>2026-05-01T15:21:17.004Z</time></trkpt><trkpt lat="42.2954665" lon="14.102213"><ele>203.0</ele><time>2026-05-01T15:21:18.004Z</time></trkpt><trkpt lat="42.2955856" lon="14.102061"><ele>202.66666666666669</ele><time>2026-05-01T15:21:19.004Z</time></trkpt><trkpt lat="42.2957034" lon="14.1019128"><ele>202.33333333333331</ele><time>2026-05-01T15:21:20.004Z</time></trkpt><trkpt lat="42.2958265" lon="14.1017679"><ele>202.0</ele><time>2026-05-01T15:21:21.004Z</time></trkpt><trkpt lat="42.2959443" lon="14.1016131"><ele>203.0</ele><time>2026-05-01T15:21:22.004Z</time></trkpt><trkpt lat="42.2960601" lon="14.1014494"><ele>204.0</ele><time>2026-05-01T15:21:23.004Z</time></trkpt><trkpt lat="42.296178" lon="14.1012894"><ele>205.0</ele><time>2026-05-01T15:21:24.004Z</time></trkpt><trkpt lat="42.2962844" lon="14.1011329"><ele>205.0</ele><time>2026-05-01T15:21:25.004Z</time></trkpt><trkpt lat="42.2963863" lon="14.1009885"><ele>205.0</ele><time>2026-05-01T15:21:26.004Z</time></trkpt><trkpt lat="42.2964896" lon="14.1008573"><ele>205.0</ele><time>2026-05-01T15:21:27.004Z</time></trkpt><trkpt lat="42.2965998" lon="14.1007416"><ele>205.0</ele><time>2026-05-01T15:21:28.004Z</time></trkpt><trkpt lat="42.2967139" lon="14.1006332"><ele>203.33333333333331</ele><time>2026-05-01T15:21:29.004Z</time></trkpt><trkpt lat="42.2968372" lon="14.1005194"><ele>201.66666666666669</ele><time>2026-05-01T15:21:30.004Z</time></trkpt><trkpt lat="42.2969624" lon="14.1004043"><ele>200.0</ele><time>2026-05-01T15:21:31.004Z</time></trkpt><trkpt lat="42.2970775" lon="14.1002764"><ele>200.0</ele><time>2026-05-01T15:21:32.004Z</time></trkpt><trkpt lat="42.2971871" lon="14.1001372"><ele>200.0</ele><time>2026-05-01T15:21:33.004Z</time></trkpt><trkpt lat="42.2972837" lon="14.099991"><ele>200.0</ele><time>2026-05-01T15:21:34.004Z</time></trkpt><trkpt lat="42.2973756" lon="14.0998398"><ele>200.0</ele><time>2026-05-01T15:21:35.004Z</time></trkpt><trkpt lat="42.2974527" lon="14.0996749"><ele>196.0</ele><time>2026-05-01T15:21:36.004Z</time></trkpt><trkpt lat="42.2975167" lon="14.099507"><ele>192.0</ele><time>2026-05-01T15:21:37.004Z</time></trkpt><trkpt lat="42.2975599" lon="14.0993313"><ele>188.0</ele><time>2026-05-01T15:21:38.004Z</time></trkpt><trkpt lat="42.2975885" lon="14.0991555"><ele>184.0</ele><time>2026-05-01T15:21:39.004Z</time></trkpt><trkpt lat="42.2976038" lon="14.0989735"><ele>182.75</ele><time>2026-05-01T15:21:40.004Z</time></trkpt><trkpt lat="42.2976135" lon="14.0987951"><ele>181.5</ele><time>2026-05-01T15:21:41.004Z</time></trkpt><trkpt lat="42.2976166" lon="14.0986213"><ele>180.25</ele><time>2026-05-01T15:21:42.004Z</time></trkpt><trkpt lat="42.2976158" lon="14.0984545"><ele>179.0</ele><time>2026-05-01T15:21:43.004Z</time></trkpt><trkpt lat="42.2976212" lon="14.0982987"><ele>179.2</ele><time>2026-05-01T15:21:44.004Z</time></trkpt><trkpt lat="42.2976271" lon="14.0981501"><ele>179.39999999999998</ele><time>2026-05-01T15:21:45.004Z</time></trkpt><trkpt lat="42.2976389" lon="14.0980263"><ele>179.6</ele><time>2026-05-01T15:21:46.004Z</time></trkpt><trkpt lat="42.2976507" lon="14.0979304"><ele>179.8</ele><time>2026-05-01T15:21:47.004Z</time></trkpt><trkpt lat="42.2976732" lon="14.0978307"><ele>180.0</ele><time>2026-05-01T15:21:48.004Z</time></trkpt><trkpt lat="42.2977149" lon="14.0977078"><ele>180.0</ele><time>2026-05-01T15:21:50.004Z</time></trkpt><trkpt lat="42.2977785" lon="14.0977044"><ele>180.0</ele><time>2026-05-01T15:21:54.004Z</time></trkpt><trkpt lat="42.2977857" lon="14.0978155"><ele>180.0</ele><time>2026-05-01T15:21:56.004Z</time></trkpt><trkpt lat="42.2977922" lon="14.0979084"><ele>180.0</ele><time>2026-05-01T15:21:57.004Z</time></trkpt><trkpt lat="42.2978273" lon="14.0979818"><ele>180.0</ele><time>2026-05-01T15:21:58.004Z</time></trkpt><trkpt lat="42.2979021" lon="14.0980492"><ele>180.0</ele><time>2026-05-01T15:21:59.004Z</time></trkpt><trkpt lat="42.2979937" lon="14.0980991"><ele>176.0</ele><time>2026-05-01T15:22:00.004Z</time></trkpt><trkpt lat="42.2980895" lon="14.0981676"><ele>172.0</ele><time>2026-05-01T15:22:01.004Z</time></trkpt><trkpt lat="42.2981778" lon="14.0982529"><ele>168.0</ele><time>2026-05-01T15:22:02.004Z</time></trkpt><trkpt lat="42.2982559" lon="14.098351"><ele>164.0</ele><time>2026-05-01T15:22:03.004Z</time></trkpt><trkpt lat="42.2983399" lon="14.098433"><ele>160.0</ele><time>2026-05-01T15:22:04.004Z</time></trkpt><trkpt lat="42.2984378" lon="14.0985012"><ele>160.0</ele><time>2026-05-01T15:22:05.004Z</time></trkpt><trkpt lat="42.2985432" lon="14.098566"><ele>160.0</ele><time>2026-05-01T15:22:06.004Z</time></trkpt><trkpt lat="42.2986515" lon="14.0986161"><ele>160.0</ele><time>2026-05-01T15:22:07.004Z</time></trkpt><trkpt lat="42.2987678" lon="14.0986437"><ele>160.0</ele><time>2026-05-01T15:22:08.004Z</time></trkpt><trkpt lat="42.2988887" lon="14.0986684"><ele>154.75</ele><time>2026-05-01T15:22:09.004Z</time></trkpt><trkpt lat="42.2990018" lon="14.0986952"><ele>149.5</ele><time>2026-05-01T15:22:10.004Z</time></trkpt><trkpt lat="42.2991143" lon="14.0987296"><ele>144.25</ele><time>2026-05-01T15:22:11.004Z</time></trkpt><trkpt lat="42.2992306" lon="14.0987537"><ele>139.0</ele><time>2026-05-01T15:22:12.004Z</time></trkpt><trkpt lat="42.2993497" lon="14.0987764"><ele>139.0</ele><time>2026-05-01T15:22:13.004Z</time></trkpt><trkpt lat="42.2994656" lon="14.098784"><ele>139.0</ele><time>2026-05-01T15:22:14.004Z</time></trkpt><trkpt lat="42.2995826" lon="14.0987791"><ele>139.0</ele><time>2026-05-01T15:22:15.004Z</time></trkpt><trkpt lat="42.2996932" lon="14.0987612"><ele>139.0</ele><time>2026-05-01T15:22:16.004Z</time></trkpt><trkpt lat="42.2998034" lon="14.0987377"><ele>136.4</ele><time>2026-05-01T15:22:17.004Z</time></trkpt><trkpt lat="42.2999053" lon="14.0987093"><ele>133.8</ele><time>2026-05-01T15:22:18.004Z</time></trkpt><trkpt lat="42.3000122" lon="14.0986823"><ele>131.2</ele><time>2026-05-01T15:22:19.004Z</time></trkpt><trkpt lat="42.300111" lon="14.0986495"><ele>128.6</ele><time>2026-05-01T15:22:20.004Z</time></trkpt><trkpt lat="42.3002129" lon="14.0985977"><ele>126.0</ele><time>2026-05-01T15:22:21.004Z</time></trkpt><trkpt lat="42.3003086" lon="14.0985375"><ele>126.0</ele><time>2026-05-01T15:22:22.004Z</time></trkpt><trkpt lat="42.3004009" lon="14.0984738"><ele>126.0</ele><time>2026-05-01T15:22:23.004Z</time></trkpt><trkpt lat="42.3004911" lon="14.0983899"><ele>126.0</ele><time>2026-05-01T15:22:24.004Z</time></trkpt><trkpt lat="42.3005677" lon="14.0983037"><ele>126.0</ele><time>2026-05-01T15:22:25.004Z</time></trkpt><trkpt lat="42.3006441" lon="14.0982106"><ele>126.0</ele><time>2026-05-01T15:22:26.004Z</time></trkpt><trkpt lat="42.300708" lon="14.0981228"><ele>123.0</ele><time>2026-05-01T15:22:27.004Z</time></trkpt><trkpt lat="42.3007778" lon="14.0980546"><ele>120.0</ele><time>2026-05-01T15:22:28.004Z</time></trkpt><trkpt lat="42.3008604" lon="14.0979938"><ele>117.0</ele><time>2026-05-01T15:22:29.004Z</time></trkpt><trkpt lat="42.3009538" lon="14.0979407"><ele>114.0</ele><time>2026-05-01T15:22:30.004Z</time></trkpt><trkpt lat="42.3010545" lon="14.0978941"><ele>111.0</ele><time>2026-05-01T15:22:31.004Z</time></trkpt><trkpt lat="42.3011543" lon="14.0978588"><ele>111.0</ele><time>2026-05-01T15:22:32.004Z</time></trkpt><trkpt lat="42.3012517" lon="14.097833"><ele>111.0</ele><time>2026-05-01T15:22:33.004Z</time></trkpt><trkpt lat="42.3013391" lon="14.0978262"><ele>111.0</ele><time>2026-05-01T15:22:34.004Z</time></trkpt><trkpt lat="42.301417" lon="14.0978254"><ele>111.0</ele><time>2026-05-01T15:22:35.004Z</time></trkpt><trkpt lat="42.3014904" lon="14.0978279"><ele>111.0</ele><time>2026-05-01T15:22:36.004Z</time></trkpt><trkpt lat="42.3015821" lon="14.0978399"><ele>111.0</ele><time>2026-05-01T15:22:38.004Z</time></trkpt><trkpt lat="42.301637" lon="14.0977533"><ele>110.0</ele><time>2026-05-01T15:22:40.004Z</time></trkpt><trkpt lat="42.3016573" lon="14.0976691"><ele>109.0</ele><time>2026-05-01T15:22:41.004Z</time></trkpt><trkpt lat="42.3016725" lon="14.0975568"><ele>108.0</ele><time>2026-05-01T15:22:42.004Z</time></trkpt><trkpt lat="42.3016946" lon="14.0974282"><ele>107.0</ele><time>2026-05-01T15:22:43.004Z</time></trkpt><trkpt lat="42.3017194" lon="14.0972967"><ele>106.0</ele><time>2026-05-01T15:22:44.004Z</time></trkpt><trkpt lat="42.3017409" lon="14.0971515"><ele>105.75</ele><time>2026-05-01T15:22:45.004Z</time></trkpt><trkpt lat="42.3017638" lon="14.09701"><ele>105.5</ele><time>2026-05-01T15:22:46.004Z</time></trkpt><trkpt lat="42.3017868" lon="14.096863"><ele>105.25</ele><time>2026-05-01T15:22:47.004Z</time></trkpt><trkpt lat="42.3018098" lon="14.0967027"><ele>105.0</ele><time>2026-05-01T15:22:48.004Z</time></trkpt><trkpt lat="42.3018373" lon="14.0965423"><ele>105.75</ele><time>2026-05-01T15:22:49.004Z</time></trkpt><trkpt lat="42.3018621" lon="14.0963753"><ele>106.5</ele><time>2026-05-01T15:22:50.004Z</time></trkpt><trkpt lat="42.3018883" lon="14.0961964"><ele>107.25</ele><time>2026-05-01T15:22:51.004Z</time></trkpt><trkpt lat="42.301916" lon="14.0960129"><ele>108.0</ele><time>2026-05-01T15:22:52.004Z</time></trkpt><trkpt lat="42.301939" lon="14.0958283"><ele>107.5</ele><time>2026-05-01T15:22:53.004Z</time></trkpt><trkpt lat="42.3019621" lon="14.0956433"><ele>107.0</ele><time>2026-05-01T15:22:54.004Z</time></trkpt><trkpt lat="42.3019834" lon="14.0954647"><ele>106.5</ele><time>2026-05-01T15:22:55.004Z</time></trkpt><trkpt lat="42.3020033" lon="14.095285"><ele>106.0</ele><time>2026-05-01T15:22:56.004Z</time></trkpt><trkpt lat="42.3020273" lon="14.095116"><ele>106.0</ele><time>2026-05-01T15:22:57.004Z</time></trkpt><trkpt lat="42.3020475" lon="14.0949606"><ele>106.0</ele><time>2026-05-01T15:22:58.004Z</time></trkpt><trkpt lat="42.3020619" lon="14.0948208"><ele>106.0</ele><time>2026-05-01T15:22:59.005Z</time></trkpt><trkpt lat="42.3020678" lon="14.0946924"><ele>106.0</ele><time>2026-05-01T15:23:00.004Z</time></trkpt><trkpt lat="42.3020468" lon="14.0945836"><ele>106.0</ele><time>2026-05-01T15:23:01.004Z</time></trkpt><trkpt lat="42.3020078" lon="14.0944698"><ele>106.0</ele><time>2026-05-01T15:23:02.004Z</time></trkpt><trkpt lat="42.3019739" lon="14.0943599"><ele>106.0</ele><time>2026-05-01T15:23:03.004Z</time></trkpt><trkpt lat="42.301962" lon="14.094229"><ele>106.0</ele><time>2026-05-01T15:23:04.004Z</time></trkpt><trkpt lat="42.3019377" lon="14.0940838"><ele>106.0</ele><time>2026-05-01T15:23:05.004Z</time></trkpt><trkpt lat="42.3019048" lon="14.0939578"><ele>106.0</ele><time>2026-05-01T15:23:06.004Z</time></trkpt><trkpt lat="42.301837" lon="14.093851"><ele>106.0</ele><time>2026-05-01T15:23:07.004Z</time></trkpt><trkpt lat="42.3017634" lon="14.0937455"><ele>106.0</ele><time>2026-05-01T15:23:08.004Z</time></trkpt><trkpt lat="42.3017034" lon="14.0936498"><ele>106.0</ele><time>2026-05-01T15:23:09.004Z</time></trkpt><trkpt lat="42.3016668" lon="14.0935562"><ele>106.0</ele><time>2026-05-01T15:23:10.004Z</time></trkpt><trkpt lat="42.3016598" lon="14.0934639"><ele>106.0</ele><time>2026-05-01T15:23:11.004Z</time></trkpt><trkpt lat="42.3017484" lon="14.0933503"><ele>106.0</ele><time>2026-05-01T15:23:13.004Z</time></trkpt><trkpt lat="42.3018235" lon="14.0933094"><ele>106.0</ele><time>2026-05-01T15:23:14.004Z</time></trkpt><trkpt lat="42.3019079" lon="14.0932615"><ele>106.0</ele><time>2026-05-01T15:23:15.004Z</time></trkpt><trkpt lat="42.3020022" lon="14.0932063"><ele>106.0</ele><time>2026-05-01T15:23:16.004Z</time></trkpt><trkpt lat="42.3021103" lon="14.0931456"><ele>106.0</ele><time>2026-05-01T15:23:17.004Z</time></trkpt><trkpt lat="42.302223" lon="14.093091"><ele>108.25</ele><time>2026-05-01T15:23:18.004Z</time></trkpt><trkpt lat="42.3023441" lon="14.0930261"><ele>110.5</ele><time>2026-05-01T15:23:19.004Z</time></trkpt><trkpt lat="42.3024587" lon="14.0929668"><ele>112.75</ele><time>2026-05-01T15:23:20.004Z</time></trkpt><trkpt lat="42.3025604" lon="14.0929152"><ele>115.0</ele><time>2026-05-01T15:23:21.004Z</time></trkpt><trkpt lat="42.3026599" lon="14.0928646"><ele>115.0</ele><time>2026-05-01T15:23:22.004Z</time></trkpt><trkpt lat="42.3027562" lon="14.0928054"><ele>115.0</ele><time>2026-05-01T15:23:23.004Z</time></trkpt><trkpt lat="42.3028433" lon="14.0927334"><ele>115.0</ele><time>2026-05-01T15:23:24.004Z</time></trkpt><trkpt lat="42.3029264" lon="14.0926493"><ele>115.0</ele><time>2026-05-01T15:23:25.004Z</time></trkpt><trkpt lat="42.3030089" lon="14.0925407"><ele>115.0</ele><time>2026-05-01T15:23:26.004Z</time></trkpt><trkpt lat="42.3030903" lon="14.092419"><ele>114.0</ele><time>2026-05-01T15:23:27.004Z</time></trkpt><trkpt lat="42.3031756" lon="14.092298"><ele>113.0</ele><time>2026-05-01T15:23:28.004Z</time></trkpt><trkpt lat="42.3032706" lon="14.0921732"><ele>112.0</ele><time>2026-05-01T15:23:29.004Z</time></trkpt><trkpt lat="42.3033648" lon="14.0920544"><ele>111.0</ele><time>2026-05-01T15:23:30.004Z</time></trkpt><trkpt lat="42.3034711" lon="14.0919443"><ele>111.0</ele><time>2026-05-01T15:23:31.004Z</time></trkpt><trkpt lat="42.3035867" lon="14.0918471"><ele>111.0</ele><time>2026-05-01T15:23:32.004Z</time></trkpt><trkpt lat="42.3037106" lon="14.0917702"><ele>111.0</ele><time>2026-05-01T15:23:33.004Z</time></trkpt><trkpt lat="42.3038329" lon="14.0917004"><ele>111.0</ele><time>2026-05-01T15:23:34.004Z</time></trkpt><trkpt lat="42.3039529" lon="14.0916318"><ele>111.25</ele><time>2026-05-01T15:23:35.004Z</time></trkpt><trkpt lat="42.3040823" lon="14.0915586"><ele>111.5</ele><time>2026-05-01T15:23:36.004Z</time></trkpt><trkpt lat="42.3042146" lon="14.0914942"><ele>111.75</ele><time>2026-05-01T15:23:37.004Z</time></trkpt><trkpt lat="42.3043498" lon="14.0914244"><ele>112.0</ele><time>2026-05-01T15:23:38.004Z</time></trkpt><trkpt lat="42.3044845" lon="14.0913513"><ele>112.0</ele><time>2026-05-01T15:23:39.004Z</time></trkpt><trkpt lat="42.304612" lon="14.0912717"><ele>112.0</ele><time>2026-05-01T15:23:40.004Z</time></trkpt><trkpt lat="42.3047435" lon="14.0911933"><ele>112.0</ele><time>2026-05-01T15:23:41.004Z</time></trkpt><trkpt lat="42.3048653" lon="14.0911177"><ele>112.0</ele><time>2026-05-01T15:23:42.004Z</time></trkpt><trkpt lat="42.3049873" lon="14.0910436"><ele>111.0</ele><time>2026-05-01T15:23:43.004Z</time></trkpt><trkpt lat="42.3051102" lon="14.0909623"><ele>110.0</ele><time>2026-05-01T15:23:44.004Z</time></trkpt><trkpt lat="42.3052353" lon="14.0908799"><ele>109.0</ele><time>2026-05-01T15:23:45.004Z</time></trkpt><trkpt lat="42.3053562" lon="14.0907965"><ele>108.0</ele><time>2026-05-01T15:23:46.004Z</time></trkpt><trkpt lat="42.3054772" lon="14.0907219"><ele>105.0</ele><time>2026-05-01T15:23:47.004Z</time></trkpt><trkpt lat="42.3056031" lon="14.0906468"><ele>102.0</ele><time>2026-05-01T15:23:48.004Z</time></trkpt><trkpt lat="42.3057241" lon="14.0905716"><ele>99.0</ele><time>2026-05-01T15:23:49.004Z</time></trkpt><trkpt lat="42.3058419" lon="14.0904914"><ele>96.0</ele><time>2026-05-01T15:23:50.004Z</time></trkpt><trkpt lat="42.305952" lon="14.0904013"><ele>96.0</ele><time>2026-05-01T15:23:51.004Z</time></trkpt><trkpt lat="42.30606" lon="14.0903074"><ele>96.0</ele><time>2026-05-01T15:23:52.004Z</time></trkpt><trkpt lat="42.3061648" lon="14.0902083"><ele>96.0</ele><time>2026-05-01T15:23:53.004Z</time></trkpt><trkpt lat="42.306263" lon="14.0900874"><ele>96.0</ele><time>2026-05-01T15:23:54.004Z</time></trkpt><trkpt lat="42.306346" lon="14.0899477"><ele>95.25</ele><time>2026-05-01T15:23:55.004Z</time></trkpt><trkpt lat="42.306414" lon="14.0897944"><ele>94.5</ele><time>2026-05-01T15:23:56.004Z</time></trkpt><trkpt lat="42.3064755" lon="14.08965"><ele>93.75</ele><time>2026-05-01T15:23:57.004Z</time></trkpt><trkpt lat="42.3065423" lon="14.0895246"><ele>93.0</ele><time>2026-05-01T15:23:58.004Z</time></trkpt><trkpt lat="42.3066161" lon="14.0894511"><ele>93.0</ele><time>2026-05-01T15:23:59.004Z</time></trkpt><trkpt lat="42.3066949" lon="14.0894017"><ele>93.0</ele><time>2026-05-01T15:24:00.004Z</time></trkpt><trkpt lat="42.3067893" lon="14.0894044"><ele>93.0</ele><time>2026-05-01T15:24:01.004Z</time></trkpt><trkpt lat="42.306875" lon="14.089432"><ele>93.0</ele><time>2026-05-01T15:24:02.004Z</time></trkpt><trkpt lat="42.3069638" lon="14.089473"><ele>93.0</ele><time>2026-05-01T15:24:03.004Z</time></trkpt><trkpt lat="42.3070515" lon="14.0895174"><ele>93.0</ele><time>2026-05-01T15:24:04.004Z</time></trkpt><trkpt lat="42.3071329" lon="14.089553"><ele>93.0</ele><time>2026-05-01T15:24:05.004Z</time></trkpt><trkpt lat="42.3072002" lon="14.0895817"><ele>93.0</ele><time>2026-05-01T15:24:06.004Z</time></trkpt><trkpt lat="42.3073012" lon="14.0896217"><ele>93.0</ele><time>2026-05-01T15:24:08.004Z</time></trkpt><trkpt lat="42.3073777" lon="14.0896134"><ele>93.0</ele><time>2026-05-01T15:24:10.004Z</time></trkpt><trkpt lat="42.3075154" lon="14.0896622"><ele>92.80000000000001</ele><time>2026-05-01T15:24:21.004Z</time></trkpt><trkpt lat="42.3076519" lon="14.0897092"><ele>92.6</ele><time>2026-05-01T15:24:23.004Z</time></trkpt><trkpt lat="42.3077387" lon="14.0897492"><ele>92.4</ele><time>2026-05-01T15:24:24.004Z</time></trkpt><trkpt lat="42.3078336" lon="14.0897883"><ele>92.19999999999999</ele><time>2026-05-01T15:24:25.004Z</time></trkpt><trkpt lat="42.3079421" lon="14.0898303"><ele>92.0</ele><time>2026-05-01T15:24:26.004Z</time></trkpt><trkpt lat="42.3080595" lon="14.0898684"><ele>90.75</ele><time>2026-05-01T15:24:27.004Z</time></trkpt><trkpt lat="42.3081769" lon="14.0899039"><ele>89.5</ele><time>2026-05-01T15:24:28.004Z</time></trkpt><trkpt lat="42.3082948" lon="14.0899332"><ele>88.25</ele><time>2026-05-01T15:24:29.004Z</time></trkpt><trkpt lat="42.30841" lon="14.0899616"><ele>87.0</ele><time>2026-05-01T15:24:30.004Z</time></trkpt><trkpt lat="42.3085247" lon="14.0899968"><ele>86.16666666666667</ele><time>2026-05-01T15:24:31.004Z</time></trkpt><trkpt lat="42.308628" lon="14.0900385"><ele>85.33333333333333</ele><time>2026-05-01T15:24:32.004Z</time></trkpt><trkpt lat="42.3087252" lon="14.0900705"><ele>84.5</ele><time>2026-05-01T15:24:33.004Z</time></trkpt><trkpt lat="42.3088084" lon="14.0901005"><ele>83.66666666666666</ele><time>2026-05-01T15:24:34.004Z</time></trkpt><trkpt lat="42.3088716" lon="14.0901152"><ele>82.83333333333333</ele><time>2026-05-01T15:24:35.004Z</time></trkpt><trkpt lat="42.3089408" lon="14.0901342"><ele>82.0</ele><time>2026-05-01T15:24:39.004Z</time></trkpt><trkpt lat="42.3090097" lon="14.0901233"><ele>81.33333333333333</ele><time>2026-05-01T15:24:45.004Z</time></trkpt><trkpt lat="42.3090709" lon="14.0901568"><ele>80.66666666666666</ele><time>2026-05-01T15:24:47.004Z</time></trkpt><trkpt lat="42.3091497" lon="14.090235"><ele>80.0</ele><time>2026-05-01T15:24:49.004Z</time></trkpt><trkpt lat="42.3092089" lon="14.090341"><ele>79.33333333333333</ele><time>2026-05-01T15:24:51.004Z</time></trkpt><trkpt lat="42.3092311" lon="14.0904278"><ele>78.66666666666667</ele><time>2026-05-01T15:24:52.004Z</time></trkpt><trkpt lat="42.3092453" lon="14.0905169"><ele>78.0</ele><time>2026-05-01T15:24:53.004Z</time></trkpt><trkpt lat="42.3092687" lon="14.0906747"><ele>77.66666666666667</ele><time>2026-05-01T15:24:55.004Z</time></trkpt><trkpt lat="42.3092864" lon="14.0907597"><ele>77.33333333333333</ele><time>2026-05-01T15:24:56.004Z</time></trkpt><trkpt lat="42.3093217" lon="14.0908335"><ele>77.0</ele><time>2026-05-01T15:24:57.004Z</time></trkpt><trkpt lat="42.3094214" lon="14.0909452"><ele>76.66666666666666</ele><time>2026-05-01T15:24:59.004Z</time></trkpt><trkpt lat="42.3094802" lon="14.0909927"><ele>76.33333333333333</ele><time>2026-05-01T15:25:00.004Z</time></trkpt><trkpt lat="42.3095333" lon="14.0910425"><ele>76.0</ele><time>2026-05-01T15:25:01.004Z</time></trkpt><trkpt lat="42.3096331" lon="14.0911619"><ele>76.0</ele><time>2026-05-01T15:25:03.004Z</time></trkpt><trkpt lat="42.3096844" lon="14.0912405"><ele>76.0</ele><time>2026-05-01T15:25:04.004Z</time></trkpt><trkpt lat="42.3097501" lon="14.091327"><ele>76.0</ele><time>2026-05-01T15:25:05.004Z</time></trkpt><trkpt lat="42.3098171" lon="14.0914199"><ele>76.0</ele><time>2026-05-01T15:25:06.004Z</time></trkpt><trkpt lat="42.3098746" lon="14.0915082"><ele>76.0</ele><time>2026-05-01T15:25:07.004Z</time></trkpt><trkpt lat="42.3099336" lon="14.091607"><ele>76.0</ele><time>2026-05-01T15:25:08.004Z</time></trkpt><trkpt lat="42.3099956" lon="14.0917213"><ele>78.0</ele><time>2026-05-01T15:25:09.004Z</time></trkpt><trkpt lat="42.3100606" lon="14.0918417"><ele>80.0</ele><time>2026-05-01T15:25:10.004Z</time></trkpt><trkpt lat="42.3101236" lon="14.0919494"><ele>82.0</ele><time>2026-05-01T15:25:11.004Z</time></trkpt><trkpt lat="42.310192" lon="14.0920556"><ele>84.0</ele><time>2026-05-01T15:25:12.004Z</time></trkpt><trkpt lat="42.3102644" lon="14.0921553"><ele>86.0</ele><time>2026-05-01T15:25:13.004Z</time></trkpt><trkpt lat="42.3103379" lon="14.0922502"><ele>86.0</ele><time>2026-05-01T15:25:14.004Z</time></trkpt><trkpt lat="42.3104" lon="14.092348"><ele>86.0</ele><time>2026-05-01T15:25:15.004Z</time></trkpt><trkpt lat="42.3104544" lon="14.0924566"><ele>86.0</ele><time>2026-05-01T15:25:16.004Z</time></trkpt><trkpt lat="42.3105134" lon="14.0925676"><ele>86.0</ele><time>2026-05-01T15:25:17.004Z</time></trkpt><trkpt lat="42.3105791" lon="14.092681"><ele>86.0</ele><time>2026-05-01T15:25:18.004Z</time></trkpt><trkpt lat="42.3106483" lon="14.0927981"><ele>87.19999999999999</ele><time>2026-05-01T15:25:19.004Z</time></trkpt><trkpt lat="42.3107232" lon="14.0929111"><ele>88.39999999999999</ele><time>2026-05-01T15:25:20.004Z</time></trkpt><trkpt lat="42.3107931" lon="14.093031"><ele>89.6</ele><time>2026-05-01T15:25:21.004Z</time></trkpt><trkpt lat="42.310865" lon="14.0931413"><ele>90.8</ele><time>2026-05-01T15:25:22.004Z</time></trkpt><trkpt lat="42.3109398" lon="14.0932483"><ele>92.0</ele><time>2026-05-01T15:25:23.004Z</time></trkpt><trkpt lat="42.3110111" lon="14.0933386"><ele>92.83333333333334</ele><time>2026-05-01T15:25:24.004Z</time></trkpt><trkpt lat="42.3110679" lon="14.0934213"><ele>93.66666666666667</ele><time>2026-05-01T15:25:25.004Z</time></trkpt><trkpt lat="42.311121" lon="14.093506"><ele>94.5</ele><time>2026-05-01T15:25:26.004Z</time></trkpt><trkpt lat="42.3111754" lon="14.0935977"><ele>95.33333333333334</ele><time>2026-05-01T15:25:27.004Z</time></trkpt><trkpt lat="42.3112189" lon="14.0936773"><ele>96.16666666666667</ele><time>2026-05-01T15:25:28.004Z</time></trkpt><trkpt lat="42.3112961" lon="14.0937862"><ele>97.0</ele><time>2026-05-01T15:25:30.004Z</time></trkpt><trkpt lat="42.3113741" lon="14.0938731"><ele>96.83333333333334</ele><time>2026-05-01T15:25:32.004Z</time></trkpt><trkpt lat="42.3114537" lon="14.093848"><ele>96.66666666666667</ele><time>2026-05-01T15:25:35.004Z</time></trkpt><trkpt lat="42.3114923" lon="14.0937316"><ele>96.5</ele><time>2026-05-01T15:25:37.004Z</time></trkpt><trkpt lat="42.3115132" lon="14.0936451"><ele>96.33333333333334</ele><time>2026-05-01T15:25:38.004Z</time></trkpt><trkpt lat="42.3115575" lon="14.0935532"><ele>96.16666666666667</ele><time>2026-05-01T15:25:39.004Z</time></trkpt><trkpt lat="42.3116069" lon="14.0934446"><ele>96.0</ele><time>2026-05-01T15:25:40.004Z</time></trkpt><trkpt lat="42.3116698" lon="14.0933351"><ele>95.19999999999999</ele><time>2026-05-01T15:25:41.004Z</time></trkpt><trkpt lat="42.3117333" lon="14.0932255"><ele>94.39999999999999</ele><time>2026-05-01T15:25:42.004Z</time></trkpt><trkpt lat="42.3118025" lon="14.0931236"><ele>93.6</ele><time>2026-05-01T15:25:43.004Z</time></trkpt><trkpt lat="42.3118684" lon="14.0930116"><ele>92.8</ele><time>2026-05-01T15:25:44.004Z</time></trkpt><trkpt lat="42.311935" lon="14.0928951"><ele>92.0</ele><time>2026-05-01T15:25:45.004Z</time></trkpt><trkpt lat="42.3119996" lon="14.0927785"><ele>92.0</ele><time>2026-05-01T15:25:46.004Z</time></trkpt><trkpt lat="42.3120685" lon="14.0926546"><ele>92.0</ele><time>2026-05-01T15:25:47.004Z</time></trkpt><trkpt lat="42.3121252" lon="14.0925269"><ele>92.0</ele><time>2026-05-01T15:25:48.004Z</time></trkpt><trkpt lat="42.3121855" lon="14.0923998"><ele>92.0</ele><time>2026-05-01T15:25:49.004Z</time></trkpt><trkpt lat="42.312249" lon="14.0922816"><ele>92.0</ele><time>2026-05-01T15:25:50.004Z</time></trkpt><trkpt lat="42.3123164" lon="14.0921737"><ele>92.39999999999999</ele><time>2026-05-01T15:25:51.004Z</time></trkpt><trkpt lat="42.3123899" lon="14.092084"><ele>92.8</ele><time>2026-05-01T15:25:52.004Z</time></trkpt><trkpt lat="42.3124582" lon="14.0920082"><ele>93.2</ele><time>2026-05-01T15:25:53.004Z</time></trkpt><trkpt lat="42.3125427" lon="14.0919372"><ele>93.6</ele><time>2026-05-01T15:25:54.004Z</time></trkpt><trkpt lat="42.3126354" lon="14.091859"><ele>94.0</ele><time>2026-05-01T15:25:55.004Z</time></trkpt><trkpt lat="42.312727" lon="14.0917903"><ele>94.0</ele><time>2026-05-01T15:25:56.004Z</time></trkpt><trkpt lat="42.3128159" lon="14.0917139"><ele>94.0</ele><time>2026-05-01T15:25:57.004Z</time></trkpt><trkpt lat="42.3128914" lon="14.0916352"><ele>94.0</ele><time>2026-05-01T15:25:58.004Z</time></trkpt><trkpt lat="42.3129611" lon="14.0915394"><ele>94.0</ele><time>2026-05-01T15:25:59.004Z</time></trkpt><trkpt lat="42.3130111" lon="14.0914267"><ele>94.0</ele><time>2026-05-01T15:26:00.004Z</time></trkpt><trkpt lat="42.31303" lon="14.0912964"><ele>94.0</ele><time>2026-05-01T15:26:01.004Z</time></trkpt><trkpt lat="42.313059" lon="14.0911467"><ele>94.0</ele><time>2026-05-01T15:26:02.004Z</time></trkpt><trkpt lat="42.3130874" lon="14.0909911"><ele>94.0</ele><time>2026-05-01T15:26:03.004Z</time></trkpt><trkpt lat="42.3131179" lon="14.0908286"><ele>94.0</ele><time>2026-05-01T15:26:04.004Z</time></trkpt><trkpt lat="42.3131446" lon="14.0906524"><ele>94.0</ele><time>2026-05-01T15:26:05.004Z</time></trkpt><trkpt lat="42.3131715" lon="14.0904718"><ele>94.0</ele><time>2026-05-01T15:26:06.004Z</time></trkpt><trkpt lat="42.3131998" lon="14.0902923"><ele>94.0</ele><time>2026-05-01T15:26:07.004Z</time></trkpt><trkpt lat="42.3132199" lon="14.0901243"><ele>94.0</ele><time>2026-05-01T15:26:08.004Z</time></trkpt><trkpt lat="42.3132458" lon="14.0899721"><ele>93.5</ele><time>2026-05-01T15:26:09.004Z</time></trkpt><trkpt lat="42.3132693" lon="14.0898135"><ele>93.0</ele><time>2026-05-01T15:26:10.004Z</time></trkpt><trkpt lat="42.3132994" lon="14.0896501"><ele>92.5</ele><time>2026-05-01T15:26:11.004Z</time></trkpt><trkpt lat="42.3133297" lon="14.0894923"><ele>92.0</ele><time>2026-05-01T15:26:12.004Z</time></trkpt><trkpt lat="42.3133706" lon="14.0893342"><ele>92.0</ele><time>2026-05-01T15:26:13.004Z</time></trkpt><trkpt lat="42.313421" lon="14.0891805"><ele>92.0</ele><time>2026-05-01T15:26:14.004Z</time></trkpt><trkpt lat="42.3134752" lon="14.0890295"><ele>92.0</ele><time>2026-05-01T15:26:15.004Z</time></trkpt><trkpt lat="42.3135218" lon="14.0888776"><ele>92.0</ele><time>2026-05-01T15:26:16.004Z</time></trkpt><trkpt lat="42.3135702" lon="14.0887337"><ele>91.5</ele><time>2026-05-01T15:26:17.004Z</time></trkpt><trkpt lat="42.3136277" lon="14.0885928"><ele>91.0</ele><time>2026-05-01T15:26:18.004Z</time></trkpt><trkpt lat="42.3136947" lon="14.0884587"><ele>90.5</ele><time>2026-05-01T15:26:19.004Z</time></trkpt><trkpt lat="42.3137752" lon="14.0883339"><ele>90.0</ele><time>2026-05-01T15:26:20.004Z</time></trkpt><trkpt lat="42.3138665" lon="14.0882102"><ele>88.5</ele><time>2026-05-01T15:26:21.004Z</time></trkpt><trkpt lat="42.3139633" lon="14.0880813"><ele>87.0</ele><time>2026-05-01T15:26:22.004Z</time></trkpt><trkpt lat="42.3140642" lon="14.0879537"><ele>85.5</ele><time>2026-05-01T15:26:23.004Z</time></trkpt><trkpt lat="42.3141681" lon="14.0878083"><ele>84.0</ele><time>2026-05-01T15:26:24.004Z</time></trkpt><trkpt lat="42.3142752" lon="14.0876638"><ele>84.0</ele><time>2026-05-01T15:26:25.004Z</time></trkpt><trkpt lat="42.3143837" lon="14.0875207"><ele>84.0</ele><time>2026-05-01T15:26:26.004Z</time></trkpt><trkpt lat="42.3144916" lon="14.0873851"><ele>84.0</ele><time>2026-05-01T15:26:27.004Z</time></trkpt><trkpt lat="42.3145979" lon="14.0872611"><ele>84.0</ele><time>2026-05-01T15:26:28.004Z</time></trkpt><trkpt lat="42.3146954" lon="14.0871492"><ele>82.75</ele><time>2026-05-01T15:26:29.004Z</time></trkpt><trkpt lat="42.3147952" lon="14.0870494"><ele>81.5</ele><time>2026-05-01T15:26:30.004Z</time></trkpt><trkpt lat="42.3148937" lon="14.0869639"><ele>80.25</ele><time>2026-05-01T15:26:31.004Z</time></trkpt><trkpt lat="42.3149907" lon="14.0868914"><ele>79.0</ele><time>2026-05-01T15:26:32.004Z</time></trkpt><trkpt lat="42.3150827" lon="14.0868218"><ele>79.0</ele><time>2026-05-01T15:26:33.004Z</time></trkpt><trkpt lat="42.3151836" lon="14.0867663"><ele>79.0</ele><time>2026-05-01T15:26:34.004Z</time></trkpt><trkpt lat="42.3152852" lon="14.086731"><ele>79.0</ele><time>2026-05-01T15:26:35.004Z</time></trkpt><trkpt lat="42.315395" lon="14.0867244"><ele>79.0</ele><time>2026-05-01T15:26:36.004Z</time></trkpt><trkpt lat="42.3155156" lon="14.0867354"><ele>79.0</ele><time>2026-05-01T15:26:37.004Z</time></trkpt><trkpt lat="42.3156362" lon="14.0867557"><ele>79.25</ele><time>2026-05-01T15:26:38.004Z</time></trkpt><trkpt lat="42.3157627" lon="14.0867773"><ele>79.5</ele><time>2026-05-01T15:26:39.004Z</time></trkpt><trkpt lat="42.3158997" lon="14.0867963"><ele>79.75</ele><time>2026-05-01T15:26:40.004Z</time></trkpt><trkpt lat="42.3160341" lon="14.086812"><ele>80.0</ele><time>2026-05-01T15:26:41.004Z</time></trkpt><trkpt lat="42.3161609" lon="14.0868297"><ele>80.0</ele><time>2026-05-01T15:26:42.004Z</time></trkpt><trkpt lat="42.3162886" lon="14.0868633"><ele>80.0</ele><time>2026-05-01T15:26:43.004Z</time></trkpt><trkpt lat="42.3164165" lon="14.0869182"><ele>80.0</ele><time>2026-05-01T15:26:44.004Z</time></trkpt><trkpt lat="42.3165385" lon="14.0869916"><ele>80.0</ele><time>2026-05-01T15:26:45.004Z</time></trkpt><trkpt lat="42.3166651" lon="14.0870665"><ele>79.25</ele><time>2026-05-01T15:26:46.004Z</time></trkpt><trkpt lat="42.3167938" lon="14.0871462"><ele>78.5</ele><time>2026-05-01T15:26:47.004Z</time></trkpt><trkpt lat="42.3169224" lon="14.0872195"><ele>77.75</ele><time>2026-05-01T15:26:48.004Z</time></trkpt><trkpt lat="42.3170505" lon="14.0872878"><ele>77.0</ele><time>2026-05-01T15:26:49.004Z</time></trkpt><trkpt lat="42.3171812" lon="14.0873641"><ele>74.5</ele><time>2026-05-01T15:26:50.004Z</time></trkpt><trkpt lat="42.3173075" lon="14.0874406"><ele>72.0</ele><time>2026-05-01T15:26:51.004Z</time></trkpt><trkpt lat="42.3174248" lon="14.0875185"><ele>69.5</ele><time>2026-05-01T15:26:52.004Z</time></trkpt><trkpt lat="42.3175371" lon="14.0875938"><ele>67.0</ele><time>2026-05-01T15:26:53.004Z</time></trkpt><trkpt lat="42.3176416" lon="14.0876755"><ele>67.0</ele><time>2026-05-01T15:26:54.004Z</time></trkpt><trkpt lat="42.3177383" lon="14.0877615"><ele>67.0</ele><time>2026-05-01T15:26:55.004Z</time></trkpt><trkpt lat="42.317829" lon="14.0878588"><ele>67.0</ele><time>2026-05-01T15:26:56.004Z</time></trkpt><trkpt lat="42.3179156" lon="14.0879653"><ele>67.0</ele><time>2026-05-01T15:26:57.004Z</time></trkpt><trkpt lat="42.3179971" lon="14.088076"><ele>66.4</ele><time>2026-05-01T15:26:58.004Z</time></trkpt><trkpt lat="42.3180755" lon="14.0881788"><ele>65.80000000000001</ele><time>2026-05-01T15:26:59.004Z</time></trkpt><trkpt lat="42.3181634" lon="14.0882568"><ele>65.2</ele><time>2026-05-01T15:27:00.004Z</time></trkpt><trkpt lat="42.3182535" lon="14.0882951"><ele>64.60000000000001</ele><time>2026-05-01T15:27:01.004Z</time></trkpt><trkpt lat="42.3183581" lon="14.0883087"><ele>64.0</ele><time>2026-05-01T15:27:02.004Z</time></trkpt><trkpt lat="42.3184683" lon="14.0883196"><ele>64.0</ele><time>2026-05-01T15:27:03.004Z</time></trkpt><trkpt lat="42.3185933" lon="14.0883403"><ele>64.0</ele><time>2026-05-01T15:27:04.004Z</time></trkpt><trkpt lat="42.3187147" lon="14.0883817"><ele>64.0</ele><time>2026-05-01T15:27:05.004Z</time></trkpt><trkpt lat="42.3188332" lon="14.0884421"><ele>64.0</ele><time>2026-05-01T15:27:06.004Z</time></trkpt><trkpt lat="42.3189527" lon="14.0884951"><ele>63.6</ele><time>2026-05-01T15:27:07.004Z</time></trkpt><trkpt lat="42.3190696" lon="14.088543"><ele>63.2</ele><time>2026-05-01T15:27:08.004Z</time></trkpt><trkpt lat="42.3191836" lon="14.0885742"><ele>62.800000000000004</ele><time>2026-05-01T15:27:09.004Z</time></trkpt><trkpt lat="42.3192876" lon="14.0886008"><ele>62.400000000000006</ele><time>2026-05-01T15:27:10.004Z</time></trkpt><trkpt lat="42.3193774" lon="14.0886334"><ele>62.0</ele><time>2026-05-01T15:27:11.004Z</time></trkpt><trkpt lat="42.3194431" lon="14.0886479"><ele>62.0</ele><time>2026-05-01T15:27:12.004Z</time></trkpt><trkpt lat="42.3195292" lon="14.0885801"><ele>62.0</ele><time>2026-05-01T15:27:14.004Z</time></trkpt><trkpt lat="42.3195844" lon="14.0884868"><ele>62.0</ele><time>2026-05-01T15:27:15.004Z</time></trkpt><trkpt lat="42.3196465" lon="14.0883725"><ele>62.0</ele><time>2026-05-01T15:27:16.004Z</time></trkpt><trkpt lat="42.3197079" lon="14.0882526"><ele>62.0</ele><time>2026-05-01T15:27:17.004Z</time></trkpt><trkpt lat="42.3197689" lon="14.088131"><ele>61.75</ele><time>2026-05-01T15:27:18.004Z</time></trkpt><trkpt lat="42.3198332" lon="14.0880013"><ele>61.5</ele><time>2026-05-01T15:27:19.004Z</time></trkpt><trkpt lat="42.3199013" lon="14.0878754"><ele>61.25</ele><time>2026-05-01T15:27:20.004Z</time></trkpt><trkpt lat="42.3199705" lon="14.0877518"><ele>61.0</ele><time>2026-05-01T15:27:21.004Z</time></trkpt><trkpt lat="42.3200345" lon="14.0876281"><ele>60.99999999999999</ele><time>2026-05-01T15:27:22.004Z</time></trkpt><trkpt lat="42.3201023" lon="14.0875286"><ele>61.0</ele><time>2026-05-01T15:27:23.004Z</time></trkpt><trkpt lat="42.3201687" lon="14.0874573"><ele>61.0</ele><time>2026-05-01T15:27:24.004Z</time></trkpt><trkpt lat="42.3202213" lon="14.0874071"><ele>61.0</ele><time>2026-05-01T15:27:25.004Z</time></trkpt><trkpt lat="42.3202966" lon="14.087342"><ele>60.99999999999999</ele><time>2026-05-01T15:27:35.004Z</time></trkpt><trkpt lat="42.320369" lon="14.0873921"><ele>61.0</ele><time>2026-05-01T15:27:44.004Z</time></trkpt><trkpt lat="42.320417" lon="14.0874674"><ele>61.0</ele><time>2026-05-01T15:27:45.004Z</time></trkpt><trkpt lat="42.3204631" lon="14.0875738"><ele>61.0</ele><time>2026-05-01T15:27:46.004Z</time></trkpt><trkpt lat="42.3205275" lon="14.0876875"><ele>61.0</ele><time>2026-05-01T15:27:47.004Z</time></trkpt><trkpt lat="42.3205966" lon="14.087828"><ele>61.0</ele><time>2026-05-01T15:27:48.004Z</time></trkpt><trkpt lat="42.320676" lon="14.087972"><ele>60.75</ele><time>2026-05-01T15:27:49.004Z</time></trkpt><trkpt lat="42.320761" lon="14.08813"><ele>60.5</ele><time>2026-05-01T15:27:50.004Z</time></trkpt><trkpt lat="42.3208467" lon="14.0883001"><ele>60.25</ele><time>2026-05-01T15:27:51.004Z</time></trkpt><trkpt lat="42.3209237" lon="14.088467"><ele>60.0</ele><time>2026-05-01T15:27:52.004Z</time></trkpt><trkpt lat="42.3210002" lon="14.0886262"><ele>60.0</ele><time>2026-05-01T15:27:53.004Z</time></trkpt><trkpt lat="42.3210763" lon="14.0887795"><ele>60.0</ele><time>2026-05-01T15:27:54.004Z</time></trkpt><trkpt lat="42.3211635" lon="14.0889442"><ele>60.0</ele><time>2026-05-01T15:27:55.004Z</time></trkpt><trkpt lat="42.3212432" lon="14.0891081"><ele>60.0</ele><time>2026-05-01T15:27:56.004Z</time></trkpt><trkpt lat="42.3213021" lon="14.0892698"><ele>59.75</ele><time>2026-05-01T15:27:57.004Z</time></trkpt><trkpt lat="42.3213656" lon="14.0894177"><ele>59.5</ele><time>2026-05-01T15:27:58.004Z</time></trkpt><trkpt lat="42.3214293" lon="14.0895587"><ele>59.25</ele><time>2026-05-01T15:27:59.004Z</time></trkpt><trkpt lat="42.3214886" lon="14.0896901"><ele>59.0</ele><time>2026-05-01T15:28:00.004Z</time></trkpt><trkpt lat="42.3215402" lon="14.08981"><ele>59.00000000000001</ele><time>2026-05-01T15:28:01.004Z</time></trkpt><trkpt lat="42.3215917" lon="14.0899232"><ele>59.0</ele><time>2026-05-01T15:28:02.004Z</time></trkpt><trkpt lat="42.3216216" lon="14.0899984"><ele>59.0</ele><time>2026-05-01T15:28:03.004Z</time></trkpt><trkpt lat="42.321663" lon="14.0900795"><ele>59.0</ele><time>2026-05-01T15:28:07.004Z</time></trkpt><trkpt lat="42.3217139" lon="14.0901954"><ele>59.00000000000001</ele><time>2026-05-01T15:28:09.004Z</time></trkpt><trkpt lat="42.3217476" lon="14.090276"><ele>59.0</ele><time>2026-05-01T15:28:10.004Z</time></trkpt><trkpt lat="42.3217877" lon="14.0903619"><ele>58.833333333333336</ele><time>2026-05-01T15:28:11.004Z</time></trkpt><trkpt lat="42.3218311" lon="14.0904536"><ele>58.66666666666667</ele><time>2026-05-01T15:28:12.004Z</time></trkpt><trkpt lat="42.3218742" lon="14.0905429"><ele>58.5</ele><time>2026-05-01T15:28:13.004Z</time></trkpt><trkpt lat="42.3219187" lon="14.0906307"><ele>58.33333333333333</ele><time>2026-05-01T15:28:14.004Z</time></trkpt><trkpt lat="42.321964" lon="14.0907229"><ele>58.166666666666664</ele><time>2026-05-01T15:28:15.004Z</time></trkpt><trkpt lat="42.3220094" lon="14.0908173"><ele>58.0</ele><time>2026-05-01T15:28:16.004Z</time></trkpt><trkpt lat="42.322056" lon="14.0909146"><ele>58.0</ele><time>2026-05-01T15:28:17.004Z</time></trkpt><trkpt lat="42.322103" lon="14.091018"><ele>58.0</ele><time>2026-05-01T15:28:18.004Z</time></trkpt><trkpt lat="42.3221516" lon="14.0911193"><ele>58.0</ele><time>2026-05-01T15:28:19.004Z</time></trkpt><trkpt lat="42.3222028" lon="14.0912252"><ele>58.0</ele><time>2026-05-01T15:28:20.004Z</time></trkpt><trkpt lat="42.3222572" lon="14.0913368"><ele>58.0</ele><time>2026-05-01T15:28:21.004Z</time></trkpt><trkpt lat="42.3223162" lon="14.0914595"><ele>58.25</ele><time>2026-05-01T15:28:22.004Z</time></trkpt><trkpt lat="42.3223823" lon="14.0915855"><ele>58.5</ele><time>2026-05-01T15:28:23.004Z</time></trkpt><trkpt lat="42.3224442" lon="14.091714"><ele>58.75</ele><time>2026-05-01T15:28:24.004Z</time></trkpt><trkpt lat="42.3225091" lon="14.0918484"><ele>59.0</ele><time>2026-05-01T15:28:25.004Z</time></trkpt><trkpt lat="42.3225794" lon="14.0919818"><ele>59.0</ele><time>2026-05-01T15:28:26.004Z</time></trkpt><trkpt lat="42.3226454" lon="14.0921202"><ele>59.0</ele><time>2026-05-01T15:28:27.004Z</time></trkpt><trkpt lat="42.3227116" lon="14.0922636"><ele>59.0</ele><time>2026-05-01T15:28:28.004Z</time></trkpt><trkpt lat="42.3227847" lon="14.0924085"><ele>59.0</ele><time>2026-05-01T15:28:29.004Z</time></trkpt><trkpt lat="42.3228541" lon="14.0925561"><ele>58.75</ele><time>2026-05-01T15:28:30.004Z</time></trkpt><trkpt lat="42.3229269" lon="14.0927103"><ele>58.5</ele><time>2026-05-01T15:28:31.004Z</time></trkpt><trkpt lat="42.3230005" lon="14.0928614"><ele>58.25</ele><time>2026-05-01T15:28:32.004Z</time></trkpt><trkpt lat="42.3230725" lon="14.0930199"><ele>58.0</ele><time>2026-05-01T15:28:33.004Z</time></trkpt><trkpt lat="42.3231463" lon="14.0931726"><ele>58.0</ele><time>2026-05-01T15:28:34.004Z</time></trkpt><trkpt lat="42.3232222" lon="14.0933291"><ele>58.0</ele><time>2026-05-01T15:28:35.004Z</time></trkpt><trkpt lat="42.3232954" lon="14.0934849"><ele>58.0</ele><time>2026-05-01T15:28:36.004Z</time></trkpt><trkpt lat="42.3233719" lon="14.093632"><ele>58.0</ele><time>2026-05-01T15:28:37.004Z</time></trkpt><trkpt lat="42.3234426" lon="14.0937883"><ele>58.0</ele><time>2026-05-01T15:28:38.004Z</time></trkpt><trkpt lat="42.323505" lon="14.0939515"><ele>58.0</ele><time>2026-05-01T15:28:39.004Z</time></trkpt><trkpt lat="42.32356" lon="14.094115"><ele>58.0</ele><time>2026-05-01T15:28:40.004Z</time></trkpt><trkpt lat="42.3236112" lon="14.0942765"><ele>58.0</ele><time>2026-05-01T15:28:41.004Z</time></trkpt><trkpt lat="42.3236483" lon="14.0944461"><ele>58.0</ele><time>2026-05-01T15:28:42.004Z</time></trkpt><trkpt lat="42.3236788" lon="14.094616"><ele>58.0</ele><time>2026-05-01T15:28:43.004Z</time></trkpt><trkpt lat="42.323711" lon="14.0947826"><ele>58.0</ele><time>2026-05-01T15:28:44.004Z</time></trkpt><trkpt lat="42.3237464" lon="14.0949422"><ele>58.0</ele><time>2026-05-01T15:28:45.004Z</time></trkpt><trkpt lat="42.3237845" lon="14.0951076"><ele>58.0</ele><time>2026-05-01T15:28:46.004Z</time></trkpt><trkpt lat="42.323819" lon="14.0952702"><ele>58.0</ele><time>2026-05-01T15:28:47.004Z</time></trkpt><trkpt lat="42.3238503" lon="14.0954348"><ele>58.0</ele><time>2026-05-01T15:28:48.004Z</time></trkpt><trkpt lat="42.3238814" lon="14.0955916"><ele>58.0</ele><time>2026-05-01T15:28:49.004Z</time></trkpt><trkpt lat="42.3239139" lon="14.095756"><ele>58.0</ele><time>2026-05-01T15:28:50.004Z</time></trkpt><trkpt lat="42.3239448" lon="14.0959166"><ele>58.0</ele><time>2026-05-01T15:28:51.004Z</time></trkpt><trkpt lat="42.3239768" lon="14.0960823"><ele>58.0</ele><time>2026-05-01T15:28:52.004Z</time></trkpt><trkpt lat="42.3240145" lon="14.0962442"><ele>58.0</ele><time>2026-05-01T15:28:53.004Z</time></trkpt><trkpt lat="42.3240482" lon="14.0964077"><ele>58.0</ele><time>2026-05-01T15:28:54.004Z</time></trkpt><trkpt lat="42.324083" lon="14.0965734"><ele>58.0</ele><time>2026-05-01T15:28:55.004Z</time></trkpt><trkpt lat="42.3241135" lon="14.0967376"><ele>58.0</ele><time>2026-05-01T15:28:56.004Z</time></trkpt><trkpt lat="42.3241453" lon="14.096898"><ele>58.0</ele><time>2026-05-01T15:28:57.004Z</time></trkpt><trkpt lat="42.3241809" lon="14.0970585"><ele>58.0</ele><time>2026-05-01T15:28:58.004Z</time></trkpt><trkpt lat="42.3242147" lon="14.0972189"><ele>58.0</ele><time>2026-05-01T15:28:59.004Z</time></trkpt><trkpt lat="42.3242477" lon="14.0973829"><ele>58.0</ele><time>2026-05-01T15:29:00.004Z</time></trkpt><trkpt lat="42.3242838" lon="14.0975455"><ele>58.0</ele><time>2026-05-01T15:29:01.004Z</time></trkpt><trkpt lat="42.3243309" lon="14.0977122"><ele>57.75</ele><time>2026-05-01T15:29:02.004Z</time></trkpt><trkpt lat="42.3243822" lon="14.0978706"><ele>57.5</ele><time>2026-05-01T15:29:03.004Z</time></trkpt><trkpt lat="42.3244412" lon="14.098025"><ele>57.25</ele><time>2026-05-01T15:29:04.004Z</time></trkpt><trkpt lat="42.3245175" lon="14.0981803"><ele>57.0</ele><time>2026-05-01T15:29:05.004Z</time></trkpt><trkpt lat="42.3246048" lon="14.0983267"><ele>57.75</ele><time>2026-05-01T15:29:06.004Z</time></trkpt><trkpt lat="42.3246872" lon="14.0984576"><ele>58.5</ele><time>2026-05-01T15:29:07.004Z</time></trkpt><trkpt lat="42.3247657" lon="14.0985821"><ele>59.25</ele><time>2026-05-01T15:29:08.004Z</time></trkpt><trkpt lat="42.3248398" lon="14.0987007"><ele>60.0</ele><time>2026-05-01T15:29:09.004Z</time></trkpt><trkpt lat="42.3249121" lon="14.0988089"><ele>59.2</ele><time>2026-05-01T15:29:10.004Z</time></trkpt><trkpt lat="42.3249819" lon="14.0989221"><ele>58.4</ele><time>2026-05-01T15:29:11.004Z</time></trkpt><trkpt lat="42.3250492" lon="14.099036"><ele>57.599999999999994</ele><time>2026-05-01T15:29:12.004Z</time></trkpt><trkpt lat="42.3251193" lon="14.0991526"><ele>56.8</ele><time>2026-05-01T15:29:13.004Z</time></trkpt><trkpt lat="42.3251836" lon="14.0992609"><ele>56.0</ele><time>2026-05-01T15:29:14.004Z</time></trkpt><trkpt lat="42.325248" lon="14.099364"><ele>56.0</ele><time>2026-05-01T15:29:15.004Z</time></trkpt><trkpt lat="42.3253152" lon="14.09947"><ele>55.99999999999999</ele><time>2026-05-01T15:29:16.004Z</time></trkpt><trkpt lat="42.325381" lon="14.0995756"><ele>55.99999999999999</ele><time>2026-05-01T15:29:17.004Z</time></trkpt><trkpt lat="42.3254435" lon="14.0996726"><ele>56.0</ele><time>2026-05-01T15:29:18.004Z</time></trkpt><trkpt lat="42.3255017" lon="14.0997608"><ele>56.0</ele><time>2026-05-01T15:29:19.004Z</time></trkpt><trkpt lat="42.3255583" lon="14.0998483"><ele>55.50000000000001</ele><time>2026-05-01T15:29:20.004Z</time></trkpt><trkpt lat="42.3256123" lon="14.0999393"><ele>55.0</ele><time>2026-05-01T15:29:21.004Z</time></trkpt><trkpt lat="42.3256697" lon="14.100029"><ele>54.5</ele><time>2026-05-01T15:29:22.004Z</time></trkpt><trkpt lat="42.3257223" lon="14.1001212"><ele>54.0</ele><time>2026-05-01T15:29:23.004Z</time></trkpt><trkpt lat="42.3257844" lon="14.1002195"><ele>53.50000000000001</ele><time>2026-05-01T15:29:24.004Z</time></trkpt><trkpt lat="42.3258506" lon="14.1003083"><ele>53.0</ele><time>2026-05-01T15:29:25.004Z</time></trkpt><trkpt lat="42.3259125" lon="14.1004071"><ele>53.00000000000001</ele><time>2026-05-01T15:29:26.004Z</time></trkpt><trkpt lat="42.3259705" lon="14.1005026"><ele>53.0</ele><time>2026-05-01T15:29:27.004Z</time></trkpt><trkpt lat="42.3260225" lon="14.1005903"><ele>53.0</ele><time>2026-05-01T15:29:28.004Z</time></trkpt><trkpt lat="42.3260617" lon="14.100676"><ele>53.0</ele><time>2026-05-01T15:29:29.004Z</time></trkpt><trkpt lat="42.3260931" lon="14.1007602"><ele>53.00000000000001</ele><time>2026-05-01T15:29:30.004Z</time></trkpt><trkpt lat="42.3261109" lon="14.1008423"><ele>53.0</ele><time>2026-05-01T15:29:31.004Z</time></trkpt><trkpt lat="42.3261308" lon="14.101007"><ele>53.4</ele><time>2026-05-01T15:29:33.004Z</time></trkpt><trkpt lat="42.3261772" lon="14.1011593"><ele>53.8</ele><time>2026-05-01T15:29:35.004Z</time></trkpt><trkpt lat="42.3262909" lon="14.1012417"><ele>54.2</ele><time>2026-05-01T15:29:37.004Z</time></trkpt><trkpt lat="42.3263645" lon="14.1012788"><ele>54.6</ele><time>2026-05-01T15:29:38.004Z</time></trkpt><trkpt lat="42.3264316" lon="14.1013225"><ele>55.0</ele><time>2026-05-01T15:29:39.004Z</time></trkpt><trkpt lat="42.3265015" lon="14.1013932"><ele>55.0</ele><time>2026-05-01T15:29:40.004Z</time></trkpt><trkpt lat="42.326576" lon="14.1014813"><ele>55.0</ele><time>2026-05-01T15:29:41.004Z</time></trkpt><trkpt lat="42.3266474" lon="14.1015951"><ele>55.0</ele><time>2026-05-01T15:29:42.004Z</time></trkpt><trkpt lat="42.3267359" lon="14.1017256"><ele>55.0</ele><time>2026-05-01T15:29:43.004Z</time></trkpt><trkpt lat="42.3268263" lon="14.1018488"><ele>55.0</ele><time>2026-05-01T15:29:44.004Z</time></trkpt><trkpt lat="42.3269121" lon="14.1019729"><ele>55.0</ele><time>2026-05-01T15:29:45.004Z</time></trkpt><trkpt lat="42.3269896" lon="14.1021049"><ele>55.0</ele><time>2026-05-01T15:29:46.004Z</time></trkpt><trkpt lat="42.3270618" lon="14.102238"><ele>55.0</ele><time>2026-05-01T15:29:47.004Z</time></trkpt><trkpt lat="42.3271355" lon="14.1023798"><ele>55.666666666666664</ele><time>2026-05-01T15:29:48.004Z</time></trkpt><trkpt lat="42.3272054" lon="14.1025388"><ele>56.33333333333333</ele><time>2026-05-01T15:29:49.004Z</time></trkpt><trkpt lat="42.3272734" lon="14.1027181"><ele>57.0</ele><time>2026-05-01T15:29:50.004Z</time></trkpt><trkpt lat="42.3273473" lon="14.1029256"><ele>54.33333333333333</ele><time>2026-05-01T15:29:51.004Z</time></trkpt><trkpt lat="42.3274075" lon="14.1031581"><ele>51.666666666666664</ele><time>2026-05-01T15:29:52.004Z</time></trkpt><trkpt lat="42.3274658" lon="14.1033815"><ele>49.0</ele><time>2026-05-01T15:29:53.004Z</time></trkpt><trkpt lat="42.3275325" lon="14.1035928"><ele>49.0</ele><time>2026-05-01T15:29:54.004Z</time></trkpt><trkpt lat="42.3276036" lon="14.1037975"><ele>49.0</ele><time>2026-05-01T15:29:55.004Z</time></trkpt><trkpt lat="42.3276815" lon="14.1040203"><ele>49.0</ele><time>2026-05-01T15:29:56.004Z</time></trkpt><trkpt lat="42.3277515" lon="14.1042407"><ele>48.33333333333333</ele><time>2026-05-01T15:29:57.004Z</time></trkpt><trkpt lat="42.3278182" lon="14.104455"><ele>47.666666666666664</ele><time>2026-05-01T15:29:58.004Z</time></trkpt><trkpt lat="42.3278756" lon="14.1046663"><ele>47.0</ele><time>2026-05-01T15:29:59.004Z</time></trkpt><trkpt lat="42.3279359" lon="14.104876"><ele>46.666666666666664</ele><time>2026-05-01T15:30:00.004Z</time></trkpt><trkpt lat="42.3279974" lon="14.1050833"><ele>46.333333333333336</ele><time>2026-05-01T15:30:01.004Z</time></trkpt><trkpt lat="42.3280566" lon="14.105284"><ele>46.0</ele><time>2026-05-01T15:30:02.004Z</time></trkpt><trkpt lat="42.3281148" lon="14.1054834"><ele>46.0</ele><time>2026-05-01T15:30:03.004Z</time></trkpt><trkpt lat="42.3281742" lon="14.1056681"><ele>46.0</ele><time>2026-05-01T15:30:04.004Z</time></trkpt><trkpt lat="42.3282317" lon="14.1058503"><ele>46.0</ele><time>2026-05-01T15:30:05.004Z</time></trkpt><trkpt lat="42.3282885" lon="14.1060304"><ele>46.0</ele><time>2026-05-01T15:30:06.004Z</time></trkpt><trkpt lat="42.3283445" lon="14.1062049"><ele>46.0</ele><time>2026-05-01T15:30:07.004Z</time></trkpt><trkpt lat="42.3283982" lon="14.1063667"><ele>46.0</ele><time>2026-05-01T15:30:08.004Z</time></trkpt><trkpt lat="42.3284496" lon="14.1065218"><ele>46.0</ele><time>2026-05-01T15:30:09.004Z</time></trkpt><trkpt lat="42.3284928" lon="14.1066699"><ele>46.0</ele><time>2026-05-01T15:30:10.004Z</time></trkpt><trkpt lat="42.3285361" lon="14.1068097"><ele>46.0</ele><time>2026-05-01T15:30:11.004Z</time></trkpt><trkpt lat="42.3285788" lon="14.1069523"><ele>46.0</ele><time>2026-05-01T15:30:12.004Z</time></trkpt><trkpt lat="42.3286255" lon="14.107101"><ele>46.0</ele><time>2026-05-01T15:30:13.004Z</time></trkpt><trkpt lat="42.3286772" lon="14.1072564"><ele>46.0</ele><time>2026-05-01T15:30:14.004Z</time></trkpt><trkpt lat="42.3287332" lon="14.1074209"><ele>46.0</ele><time>2026-05-01T15:30:15.004Z</time></trkpt><trkpt lat="42.3287864" lon="14.1075869"><ele>46.0</ele><time>2026-05-01T15:30:16.004Z</time></trkpt><trkpt lat="42.3288456" lon="14.107747"><ele>46.0</ele><time>2026-05-01T15:30:17.004Z</time></trkpt><trkpt lat="42.3289052" lon="14.1079112"><ele>46.0</ele><time>2026-05-01T15:30:18.004Z</time></trkpt><trkpt lat="42.3289605" lon="14.1080753"><ele>44.75</ele><time>2026-05-01T15:30:19.004Z</time></trkpt><trkpt lat="42.329019" lon="14.1082499"><ele>43.5</ele><time>2026-05-01T15:30:20.004Z</time></trkpt><trkpt lat="42.3290778" lon="14.1084315"><ele>42.25</ele><time>2026-05-01T15:30:21.004Z</time></trkpt><trkpt lat="42.3291412" lon="14.1086262"><ele>41.0</ele><time>2026-05-01T15:30:22.004Z</time></trkpt><trkpt lat="42.329195" lon="14.1088233"><ele>41.0</ele><time>2026-05-01T15:30:23.004Z</time></trkpt><trkpt lat="42.3292499" lon="14.1090079"><ele>41.0</ele><time>2026-05-01T15:30:24.004Z</time></trkpt><trkpt lat="42.329307" lon="14.1091837"><ele>41.0</ele><time>2026-05-01T15:30:25.004Z</time></trkpt><trkpt lat="42.329365" lon="14.1093718"><ele>41.0</ele><time>2026-05-01T15:30:26.004Z</time></trkpt><trkpt lat="42.3294231" lon="14.1095661"><ele>41.666666666666664</ele><time>2026-05-01T15:30:27.004Z</time></trkpt><trkpt lat="42.3294872" lon="14.1097664"><ele>42.333333333333336</ele><time>2026-05-01T15:30:28.004Z</time></trkpt><trkpt lat="42.3295469" lon="14.1099636"><ele>43.0</ele><time>2026-05-01T15:30:29.004Z</time></trkpt><trkpt lat="42.3296049" lon="14.1101607"><ele>43.333333333333336</ele><time>2026-05-01T15:30:30.004Z</time></trkpt><trkpt lat="42.3296618" lon="14.1103561"><ele>43.666666666666664</ele><time>2026-05-01T15:30:31.004Z</time></trkpt><trkpt lat="42.3297243" lon="14.110557"><ele>44.0</ele><time>2026-05-01T15:30:32.004Z</time></trkpt><trkpt lat="42.3297904" lon="14.110757"><ele>43.33333333333333</ele><time>2026-05-01T15:30:33.004Z</time></trkpt><trkpt lat="42.3298509" lon="14.1109549"><ele>42.666666666666664</ele><time>2026-05-01T15:30:34.004Z</time></trkpt><trkpt lat="42.3299058" lon="14.1111447"><ele>42.0</ele><time>2026-05-01T15:30:35.004Z</time></trkpt><trkpt lat="42.3299603" lon="14.1113211"><ele>42.0</ele><time>2026-05-01T15:30:36.004Z</time></trkpt><trkpt lat="42.3300143" lon="14.1114869"><ele>42.0</ele><time>2026-05-01T15:30:37.004Z</time></trkpt><trkpt lat="42.330066" lon="14.1116418"><ele>42.0</ele><time>2026-05-01T15:30:38.004Z</time></trkpt><trkpt lat="42.3301134" lon="14.1117936"><ele>42.0</ele><time>2026-05-01T15:30:39.004Z</time></trkpt><trkpt lat="42.3301572" lon="14.1119325"><ele>42.2</ele><time>2026-05-01T15:30:40.004Z</time></trkpt><trkpt lat="42.3301975" lon="14.1120714"><ele>42.400000000000006</ele><time>2026-05-01T15:30:41.004Z</time></trkpt><trkpt lat="42.3302356" lon="14.1122001"><ele>42.599999999999994</ele><time>2026-05-01T15:30:42.004Z</time></trkpt><trkpt lat="42.3302746" lon="14.1123254"><ele>42.8</ele><time>2026-05-01T15:30:43.004Z</time></trkpt><trkpt lat="42.3303133" lon="14.1124484"><ele>43.0</ele><time>2026-05-01T15:30:44.004Z</time></trkpt><trkpt lat="42.3303501" lon="14.112565"><ele>43.0</ele><time>2026-05-01T15:30:45.004Z</time></trkpt><trkpt lat="42.3303809" lon="14.1126659"><ele>43.0</ele><time>2026-05-01T15:30:46.004Z</time></trkpt><trkpt lat="42.3304086" lon="14.1127694"><ele>43.0</ele><time>2026-05-01T15:30:47.004Z</time></trkpt><trkpt lat="42.330428" lon="14.1128684"><ele>43.0</ele><time>2026-05-01T15:30:48.004Z</time></trkpt><trkpt lat="42.3304359" lon="14.1129644"><ele>43.0</ele><time>2026-05-01T15:30:49.004Z</time></trkpt><trkpt lat="42.3304359" lon="14.1130657"><ele>43.0</ele><time>2026-05-01T15:30:50.004Z</time></trkpt><trkpt lat="42.3304459" lon="14.1131642"><ele>43.0</ele><time>2026-05-01T15:30:51.004Z</time></trkpt><trkpt lat="42.330487" lon="14.1132522"><ele>43.0</ele><time>2026-05-01T15:30:52.004Z</time></trkpt><trkpt lat="42.3305488" lon="14.1133211"><ele>43.0</ele><time>2026-05-01T15:30:53.004Z</time></trkpt><trkpt lat="42.3306058" lon="14.1134009"><ele>43.0</ele><time>2026-05-01T15:30:54.004Z</time></trkpt><trkpt lat="42.3306528" lon="14.1134999"><ele>43.0</ele><time>2026-05-01T15:30:55.004Z</time></trkpt><trkpt lat="42.3306891" lon="14.1136159"><ele>43.0</ele><time>2026-05-01T15:30:56.004Z</time></trkpt><trkpt lat="42.3307246" lon="14.1137379"><ele>42.0</ele><time>2026-05-01T15:30:57.004Z</time></trkpt><trkpt lat="42.3307637" lon="14.113869"><ele>41.0</ele><time>2026-05-01T15:30:58.004Z</time></trkpt><trkpt lat="42.3308036" lon="14.1140015"><ele>40.0</ele><time>2026-05-01T15:30:59.004Z</time></trkpt><trkpt lat="42.3308438" lon="14.1141351"><ele>39.0</ele><time>2026-05-01T15:31:00.004Z</time></trkpt><trkpt lat="42.3308903" lon="14.1142738"><ele>38.0</ele><time>2026-05-01T15:31:01.004Z</time></trkpt><trkpt lat="42.330931" lon="14.11441"><ele>38.0</ele><time>2026-05-01T15:31:02.004Z</time></trkpt><trkpt lat="42.3309722" lon="14.1145468"><ele>38.0</ele><time>2026-05-01T15:31:03.004Z</time></trkpt><trkpt lat="42.3310179" lon="14.1146735"><ele>38.0</ele><time>2026-05-01T15:31:04.004Z</time></trkpt><trkpt lat="42.33106" lon="14.1147988"><ele>38.0</ele><time>2026-05-01T15:31:05.004Z</time></trkpt><trkpt lat="42.3311003" lon="14.1149245"><ele>38.0</ele><time>2026-05-01T15:31:06.004Z</time></trkpt><trkpt lat="42.3311358" lon="14.1150463"><ele>38.0</ele><time>2026-05-01T15:31:07.004Z</time></trkpt><trkpt lat="42.3311721" lon="14.1151656"><ele>38.0</ele><time>2026-05-01T15:31:08.004Z</time></trkpt><trkpt lat="42.3312055" lon="14.1152745"><ele>38.0</ele><time>2026-05-01T15:31:09.004Z</time></trkpt><trkpt lat="42.331239" lon="14.1153689"><ele>38.0</ele><time>2026-05-01T15:31:10.004Z</time></trkpt><trkpt lat="42.3312658" lon="14.1154545"><ele>38.0</ele><time>2026-05-01T15:31:11.004Z</time></trkpt><trkpt lat="42.3312954" lon="14.1155398"><ele>38.0</ele><time>2026-05-01T15:31:12.004Z</time></trkpt><trkpt lat="42.3313241" lon="14.1156301"><ele>38.0</ele><time>2026-05-01T15:31:13.004Z</time></trkpt><trkpt lat="42.3313527" lon="14.1157224"><ele>38.0</ele><time>2026-05-01T15:31:14.004Z</time></trkpt><trkpt lat="42.3313855" lon="14.1158325"><ele>38.0</ele><time>2026-05-01T15:31:15.004Z</time></trkpt><trkpt lat="42.3314232" lon="14.1159553"><ele>38.0</ele><time>2026-05-01T15:31:16.004Z</time></trkpt><trkpt lat="42.3314737" lon="14.1160837"><ele>38.0</ele><time>2026-05-01T15:31:17.004Z</time></trkpt><trkpt lat="42.3315267" lon="14.1162293"><ele>38.0</ele><time>2026-05-01T15:31:18.004Z</time></trkpt><trkpt lat="42.3315733" lon="14.1163781"><ele>38.0</ele><time>2026-05-01T15:31:19.004Z</time></trkpt><trkpt lat="42.3316179" lon="14.1165234"><ele>38.0</ele><time>2026-05-01T15:31:20.004Z</time></trkpt><trkpt lat="42.3316657" lon="14.1166712"><ele>38.0</ele><time>2026-05-01T15:31:21.004Z</time></trkpt><trkpt lat="42.3317134" lon="14.1168184"><ele>38.0</ele><time>2026-05-01T15:31:22.004Z</time></trkpt><trkpt lat="42.3317663" lon="14.1169854"><ele>38.0</ele><time>2026-05-01T15:31:23.004Z</time></trkpt><trkpt lat="42.3318281" lon="14.1171638"><ele>38.0</ele><time>2026-05-01T15:31:24.004Z</time></trkpt><trkpt lat="42.3318896" lon="14.1173579"><ele>38.0</ele><time>2026-05-01T15:31:25.004Z</time></trkpt><trkpt lat="42.3319396" lon="14.1175484"><ele>38.5</ele><time>2026-05-01T15:31:26.004Z</time></trkpt><trkpt lat="42.331992" lon="14.1177369"><ele>39.0</ele><time>2026-05-01T15:31:27.004Z</time></trkpt><trkpt lat="42.332044" lon="14.1179198"><ele>39.5</ele><time>2026-05-01T15:31:28.004Z</time></trkpt><trkpt lat="42.3320957" lon="14.1180899"><ele>40.0</ele><time>2026-05-01T15:31:29.004Z</time></trkpt><trkpt lat="42.3321498" lon="14.1182512"><ele>40.0</ele><time>2026-05-01T15:31:30.004Z</time></trkpt><trkpt lat="42.3322012" lon="14.1184023"><ele>40.0</ele><time>2026-05-01T15:31:31.004Z</time></trkpt><trkpt lat="42.3322464" lon="14.1185441"><ele>40.0</ele><time>2026-05-01T15:31:32.004Z</time></trkpt><trkpt lat="42.3322889" lon="14.1187009"><ele>40.0</ele><time>2026-05-01T15:31:33.004Z</time></trkpt><trkpt lat="42.3323395" lon="14.1188633"><ele>39.5</ele><time>2026-05-01T15:31:34.004Z</time></trkpt><trkpt lat="42.3323955" lon="14.1190278"><ele>39.0</ele><time>2026-05-01T15:31:35.004Z</time></trkpt><trkpt lat="42.3324488" lon="14.1192025"><ele>38.5</ele><time>2026-05-01T15:31:36.004Z</time></trkpt><trkpt lat="42.3325039" lon="14.1193824"><ele>38.0</ele><time>2026-05-01T15:31:37.004Z</time></trkpt><trkpt lat="42.3325598" lon="14.1195666"><ele>37.75</ele><time>2026-05-01T15:31:38.004Z</time></trkpt><trkpt lat="42.3326163" lon="14.1197506"><ele>37.5</ele><time>2026-05-01T15:31:39.004Z</time></trkpt><trkpt lat="42.3326751" lon="14.1199296"><ele>37.25</ele><time>2026-05-01T15:31:40.004Z</time></trkpt><trkpt lat="42.332737" lon="14.1201155"><ele>37.0</ele><time>2026-05-01T15:31:41.004Z</time></trkpt><trkpt lat="42.3328032" lon="14.1203074"><ele>38.0</ele><time>2026-05-01T15:31:42.004Z</time></trkpt><trkpt lat="42.3328606" lon="14.1205002"><ele>39.0</ele><time>2026-05-01T15:31:43.004Z</time></trkpt><trkpt lat="42.3329235" lon="14.1206998"><ele>40.0</ele><time>2026-05-01T15:31:44.004Z</time></trkpt><trkpt lat="42.3329905" lon="14.1209109"><ele>40.66666666666667</ele><time>2026-05-01T15:31:45.004Z</time></trkpt><trkpt lat="42.3330629" lon="14.1211278"><ele>41.333333333333336</ele><time>2026-05-01T15:31:46.004Z</time></trkpt><trkpt lat="42.3331338" lon="14.1213476"><ele>42.0</ele><time>2026-05-01T15:31:47.004Z</time></trkpt><trkpt lat="42.3332003" lon="14.1215608"><ele>42.0</ele><time>2026-05-01T15:31:48.004Z</time></trkpt><trkpt lat="42.3332608" lon="14.121778"><ele>42.0</ele><time>2026-05-01T15:31:49.004Z</time></trkpt><trkpt lat="42.333329" lon="14.1219972"><ele>42.0</ele><time>2026-05-01T15:31:50.004Z</time></trkpt><trkpt lat="42.3333954" lon="14.1222094"><ele>42.666666666666664</ele><time>2026-05-01T15:31:51.004Z</time></trkpt><trkpt lat="42.333453" lon="14.1224174"><ele>43.33333333333333</ele><time>2026-05-01T15:31:52.004Z</time></trkpt><trkpt lat="42.3335104" lon="14.1226089"><ele>44.0</ele><time>2026-05-01T15:31:53.004Z</time></trkpt><trkpt lat="42.3335647" lon="14.1227872"><ele>44.0</ele><time>2026-05-01T15:31:54.004Z</time></trkpt><trkpt lat="42.3336184" lon="14.1229567"><ele>44.0</ele><time>2026-05-01T15:31:55.004Z</time></trkpt><trkpt lat="42.3336761" lon="14.1231217"><ele>44.0</ele><time>2026-05-01T15:31:56.004Z</time></trkpt><trkpt lat="42.3337236" lon="14.1232753"><ele>44.0</ele><time>2026-05-01T15:31:57.004Z</time></trkpt><trkpt lat="42.3337698" lon="14.1234179"><ele>43.75</ele><time>2026-05-01T15:31:58.004Z</time></trkpt><trkpt lat="42.3338148" lon="14.1235663"><ele>43.5</ele><time>2026-05-01T15:31:59.004Z</time></trkpt><trkpt lat="42.333859" lon="14.1237088"><ele>43.25</ele><time>2026-05-01T15:32:00.004Z</time></trkpt><trkpt lat="42.3339094" lon="14.1238637"><ele>43.0</ele><time>2026-05-01T15:32:01.004Z</time></trkpt><trkpt lat="42.3339617" lon="14.1240305"><ele>42.5</ele><time>2026-05-01T15:32:02.004Z</time></trkpt><trkpt lat="42.3340197" lon="14.1242017"><ele>42.0</ele><time>2026-05-01T15:32:03.004Z</time></trkpt><trkpt lat="42.3340759" lon="14.1243771"><ele>41.5</ele><time>2026-05-01T15:32:04.004Z</time></trkpt><trkpt lat="42.3341259" lon="14.1245542"><ele>41.0</ele><time>2026-05-01T15:32:05.004Z</time></trkpt><trkpt lat="42.3341778" lon="14.1247244"><ele>41.5</ele><time>2026-05-01T15:32:06.004Z</time></trkpt><trkpt lat="42.3342354" lon="14.1248974"><ele>42.0</ele><time>2026-05-01T15:32:07.004Z</time></trkpt><trkpt lat="42.3342919" lon="14.1250725"><ele>42.5</ele><time>2026-05-01T15:32:08.004Z</time></trkpt><trkpt lat="42.3343479" lon="14.125259"><ele>43.0</ele><time>2026-05-01T15:32:09.004Z</time></trkpt><trkpt lat="42.3344033" lon="14.1254437"><ele>43.0</ele><time>2026-05-01T15:32:10.004Z</time></trkpt><trkpt lat="42.3344583" lon="14.1256233"><ele>43.0</ele><time>2026-05-01T15:32:11.004Z</time></trkpt><trkpt lat="42.3345144" lon="14.1258003"><ele>43.0</ele><time>2026-05-01T15:32:12.004Z</time></trkpt><trkpt lat="42.334571" lon="14.1259726"><ele>43.0</ele><time>2026-05-01T15:32:13.004Z</time></trkpt><trkpt lat="42.3346227" lon="14.1261428"><ele>43.5</ele><time>2026-05-01T15:32:14.004Z</time></trkpt><trkpt lat="42.3346748" lon="14.1263028"><ele>44.0</ele><time>2026-05-01T15:32:15.004Z</time></trkpt><trkpt lat="42.3347224" lon="14.1264618"><ele>44.5</ele><time>2026-05-01T15:32:16.004Z</time></trkpt><trkpt lat="42.334775" lon="14.1266201"><ele>45.0</ele><time>2026-05-01T15:32:17.004Z</time></trkpt><trkpt lat="42.3348277" lon="14.1267852"><ele>45.25</ele><time>2026-05-01T15:32:18.004Z</time></trkpt><trkpt lat="42.3348785" lon="14.126947"><ele>45.5</ele><time>2026-05-01T15:32:19.004Z</time></trkpt><trkpt lat="42.3349322" lon="14.1271001"><ele>45.75</ele><time>2026-05-01T15:32:20.004Z</time></trkpt><trkpt lat="42.3349807" lon="14.1272532"><ele>46.0</ele><time>2026-05-01T15:32:21.004Z</time></trkpt><trkpt lat="42.3350354" lon="14.1273986"><ele>46.5</ele><time>2026-05-01T15:32:22.004Z</time></trkpt><trkpt lat="42.3350857" lon="14.1275589"><ele>47.0</ele><time>2026-05-01T15:32:23.004Z</time></trkpt><trkpt lat="42.3351372" lon="14.1277231"><ele>47.5</ele><time>2026-05-01T15:32:24.004Z</time></trkpt><trkpt lat="42.3351885" lon="14.1278945"><ele>48.0</ele><time>2026-05-01T15:32:25.004Z</time></trkpt><trkpt lat="42.3352409" lon="14.128064"><ele>48.25</ele><time>2026-05-01T15:32:26.004Z</time></trkpt><trkpt lat="42.3352964" lon="14.1282355"><ele>48.5</ele><time>2026-05-01T15:32:27.004Z</time></trkpt><trkpt lat="42.3353565" lon="14.1284191"><ele>48.75</ele><time>2026-05-01T15:32:28.004Z</time></trkpt><trkpt lat="42.3354212" lon="14.1286157"><ele>49.0</ele><time>2026-05-01T15:32:29.004Z</time></trkpt><trkpt lat="42.3354861" lon="14.1288082"><ele>49.0</ele><time>2026-05-01T15:32:30.004Z</time></trkpt><trkpt lat="42.3355447" lon="14.1289976"><ele>49.0</ele><time>2026-05-01T15:32:31.004Z</time></trkpt><trkpt lat="42.3356009" lon="14.1291873"><ele>49.0</ele><time>2026-05-01T15:32:32.004Z</time></trkpt><trkpt lat="42.3356606" lon="14.1293862"><ele>49.33333333333333</ele><time>2026-05-01T15:32:33.004Z</time></trkpt><trkpt lat="42.3357216" lon="14.1295848"><ele>49.66666666666667</ele><time>2026-05-01T15:32:34.004Z</time></trkpt><trkpt lat="42.3357837" lon="14.1297884"><ele>50.0</ele><time>2026-05-01T15:32:35.004Z</time></trkpt><trkpt lat="42.3358501" lon="14.1299906"><ele>50.66666666666667</ele><time>2026-05-01T15:32:36.004Z</time></trkpt><trkpt lat="42.3359177" lon="14.1302029"><ele>51.33333333333333</ele><time>2026-05-01T15:32:37.004Z</time></trkpt><trkpt lat="42.3359835" lon="14.1304122"><ele>52.0</ele><time>2026-05-01T15:32:38.004Z</time></trkpt><trkpt lat="42.3360475" lon="14.1306221"><ele>52.0</ele><time>2026-05-01T15:32:39.004Z</time></trkpt><trkpt lat="42.3361098" lon="14.1308223"><ele>52.0</ele><time>2026-05-01T15:32:40.004Z</time></trkpt><trkpt lat="42.336165" lon="14.1310184"><ele>52.0</ele><time>2026-05-01T15:32:41.004Z</time></trkpt><trkpt lat="42.336221" lon="14.1312096"><ele>52.0</ele><time>2026-05-01T15:32:42.004Z</time></trkpt><trkpt lat="42.3362771" lon="14.1313955"><ele>52.0</ele><time>2026-05-01T15:32:43.004Z</time></trkpt><trkpt lat="42.3363343" lon="14.131579"><ele>52.0</ele><time>2026-05-01T15:32:44.004Z</time></trkpt><trkpt lat="42.3363952" lon="14.1317596"><ele>52.0</ele><time>2026-05-01T15:32:45.004Z</time></trkpt><trkpt lat="42.3364649" lon="14.1319374"><ele>52.0</ele><time>2026-05-01T15:32:46.004Z</time></trkpt><trkpt lat="42.3365391" lon="14.1321015"><ele>52.0</ele><time>2026-05-01T15:32:47.004Z</time></trkpt><trkpt lat="42.3366268" lon="14.1322453"><ele>52.0</ele><time>2026-05-01T15:32:48.004Z</time></trkpt><trkpt lat="42.3367222" lon="14.1323822"><ele>52.0</ele><time>2026-05-01T15:32:49.004Z</time></trkpt><trkpt lat="42.3368291" lon="14.1325065"><ele>52.5</ele><time>2026-05-01T15:32:50.004Z</time></trkpt><trkpt lat="42.3369417" lon="14.1326293"><ele>53.0</ele><time>2026-05-01T15:32:51.004Z</time></trkpt><trkpt lat="42.3370601" lon="14.1327252"><ele>53.5</ele><time>2026-05-01T15:32:52.004Z</time></trkpt><trkpt lat="42.3371815" lon="14.1328081"><ele>54.0</ele><time>2026-05-01T15:32:53.004Z</time></trkpt><trkpt lat="42.3373046" lon="14.1328758"><ele>54.25</ele><time>2026-05-01T15:32:54.004Z</time></trkpt><trkpt lat="42.3374268" lon="14.13292"><ele>54.5</ele><time>2026-05-01T15:32:55.004Z</time></trkpt><trkpt lat="42.3375515" lon="14.132962"><ele>54.75</ele><time>2026-05-01T15:32:56.004Z</time></trkpt><trkpt lat="42.3376773" lon="14.1329904"><ele>55.0</ele><time>2026-05-01T15:32:57.004Z</time></trkpt><trkpt lat="42.3377977" lon="14.1330284"><ele>55.0</ele><time>2026-05-01T15:32:58.004Z</time></trkpt><trkpt lat="42.3379194" lon="14.1330628"><ele>55.0</ele><time>2026-05-01T15:32:59.004Z</time></trkpt><trkpt lat="42.3380485" lon="14.1331018"><ele>55.0</ele><time>2026-05-01T15:33:00.004Z</time></trkpt><trkpt lat="42.3381798" lon="14.1331351"><ele>55.0</ele><time>2026-05-01T15:33:01.004Z</time></trkpt><trkpt lat="42.3383041" lon="14.1331785"><ele>55.0</ele><time>2026-05-01T15:33:02.004Z</time></trkpt><trkpt lat="42.3384385" lon="14.1332253"><ele>55.0</ele><time>2026-05-01T15:33:03.004Z</time></trkpt><trkpt lat="42.338571" lon="14.1332648"><ele>55.0</ele><time>2026-05-01T15:33:04.004Z</time></trkpt><trkpt lat="42.3386993" lon="14.1333086"><ele>55.0</ele><time>2026-05-01T15:33:05.004Z</time></trkpt><trkpt lat="42.3388242" lon="14.1333502"><ele>55.25</ele><time>2026-05-01T15:33:06.004Z</time></trkpt><trkpt lat="42.3389467" lon="14.1333902"><ele>55.5</ele><time>2026-05-01T15:33:07.004Z</time></trkpt><trkpt lat="42.3390587" lon="14.1334249"><ele>55.75</ele><time>2026-05-01T15:33:08.004Z</time></trkpt><trkpt lat="42.3391694" lon="14.1334585"><ele>56.0</ele><time>2026-05-01T15:33:09.004Z</time></trkpt><trkpt lat="42.3392694" lon="14.1334904"><ele>56.0</ele><time>2026-05-01T15:33:10.004Z</time></trkpt><trkpt lat="42.3393762" lon="14.1335234"><ele>55.99999999999999</ele><time>2026-05-01T15:33:11.004Z</time></trkpt><trkpt lat="42.3394814" lon="14.1335583"><ele>55.99999999999999</ele><time>2026-05-01T15:33:12.004Z</time></trkpt><trkpt lat="42.3395857" lon="14.133587"><ele>56.0</ele><time>2026-05-01T15:33:13.004Z</time></trkpt><trkpt lat="42.3396909" lon="14.1336168"><ele>56.0</ele><time>2026-05-01T15:33:14.004Z</time></trkpt><trkpt lat="42.3397864" lon="14.1336402"><ele>55.833333333333336</ele><time>2026-05-01T15:33:15.004Z</time></trkpt><trkpt lat="42.3398851" lon="14.1336684"><ele>55.66666666666667</ele><time>2026-05-01T15:33:16.004Z</time></trkpt><trkpt lat="42.3399811" lon="14.1337023"><ele>55.5</ele><time>2026-05-01T15:33:17.004Z</time></trkpt><trkpt lat="42.3400689" lon="14.1337317"><ele>55.33333333333333</ele><time>2026-05-01T15:33:18.004Z</time></trkpt><trkpt lat="42.3401425" lon="14.1337496"><ele>55.166666666666664</ele><time>2026-05-01T15:33:19.004Z</time></trkpt><trkpt lat="42.3402047" lon="14.1337672"><ele>55.0</ele><time>2026-05-01T15:33:20.004Z</time></trkpt><trkpt lat="42.3402854" lon="14.1337873"><ele>55.0</ele><time>2026-05-01T15:33:22.004Z</time></trkpt><trkpt lat="42.3403539" lon="14.1338064"><ele>55.0</ele><time>2026-05-01T15:33:24.004Z</time></trkpt><trkpt lat="42.3404435" lon="14.1338732"><ele>55.0</ele><time>2026-05-01T15:33:27.004Z</time></trkpt><trkpt lat="42.3405331" lon="14.1339721"><ele>55.0</ele><time>2026-05-01T15:33:29.004Z</time></trkpt><trkpt lat="42.3406128" lon="14.1339993"><ele>55.0</ele><time>2026-05-01T15:33:31.004Z</time></trkpt><trkpt lat="42.3406836" lon="14.1339371"><ele>54.666666666666664</ele><time>2026-05-01T15:33:33.004Z</time></trkpt><trkpt lat="42.3406996" lon="14.1337795"><ele>54.33333333333333</ele><time>2026-05-01T15:33:35.004Z</time></trkpt><trkpt lat="42.3406782" lon="14.1336925"><ele>54.0</ele><time>2026-05-01T15:33:36.004Z</time></trkpt><trkpt lat="42.3406639" lon="14.1336023"><ele>53.66666666666667</ele><time>2026-05-01T15:33:37.004Z</time></trkpt><trkpt lat="42.3406816" lon="14.1335122"><ele>53.333333333333336</ele><time>2026-05-01T15:33:38.004Z</time></trkpt><trkpt lat="42.3407196" lon="14.1333941"><ele>53.0</ele><time>2026-05-01T15:33:39.004Z</time></trkpt><trkpt lat="42.3407736" lon="14.1332832"><ele>52.5</ele><time>2026-05-01T15:33:40.004Z</time></trkpt><trkpt lat="42.3408357" lon="14.1331596"><ele>52.0</ele><time>2026-05-01T15:33:41.004Z</time></trkpt><trkpt lat="42.3409033" lon="14.133028"><ele>51.5</ele><time>2026-05-01T15:33:42.004Z</time></trkpt><trkpt lat="42.3409816" lon="14.1328987"><ele>51.0</ele><time>2026-05-01T15:33:43.004Z</time></trkpt><trkpt lat="42.3410604" lon="14.1327775"><ele>51.0</ele><time>2026-05-01T15:33:44.004Z</time></trkpt><trkpt lat="42.3411357" lon="14.1326632"><ele>51.0</ele><time>2026-05-01T15:33:45.004Z</time></trkpt><trkpt lat="42.3412141" lon="14.1325486"><ele>51.0</ele><time>2026-05-01T15:33:46.004Z</time></trkpt><trkpt lat="42.3412961" lon="14.1324353"><ele>51.0</ele><time>2026-05-01T15:33:47.004Z</time></trkpt><trkpt lat="42.3413736" lon="14.1323025"><ele>50.25</ele><time>2026-05-01T15:33:48.004Z</time></trkpt><trkpt lat="42.3414536" lon="14.1321698"><ele>49.5</ele><time>2026-05-01T15:33:49.004Z</time></trkpt><trkpt lat="42.3415147" lon="14.1320179"><ele>48.75</ele><time>2026-05-01T15:33:50.004Z</time></trkpt><trkpt lat="42.3415579" lon="14.1318589"><ele>48.0</ele><time>2026-05-01T15:33:51.004Z</time></trkpt><trkpt lat="42.3415997" lon="14.1317093"><ele>48.0</ele><time>2026-05-01T15:33:52.004Z</time></trkpt><trkpt lat="42.3416394" lon="14.1315653"><ele>48.0</ele><time>2026-05-01T15:33:53.004Z</time></trkpt><trkpt lat="42.3416779" lon="14.1314484"><ele>48.0</ele><time>2026-05-01T15:33:54.004Z</time></trkpt><trkpt lat="42.3417297" lon="14.1313464"><ele>48.0</ele><time>2026-05-01T15:33:55.004Z</time></trkpt><trkpt lat="42.3417792" lon="14.1312631"><ele>48.0</ele><time>2026-05-01T15:33:56.004Z</time></trkpt><trkpt lat="42.3418226" lon="14.1311699"><ele>47.8</ele><time>2026-05-01T15:33:57.004Z</time></trkpt><trkpt lat="42.3418464" lon="14.1310281"><ele>47.599999999999994</ele><time>2026-05-01T15:33:58.004Z</time></trkpt><trkpt lat="42.3418681" lon="14.1308777"><ele>47.400000000000006</ele><time>2026-05-01T15:33:59.004Z</time></trkpt><trkpt lat="42.341898" lon="14.13073"><ele>47.2</ele><time>2026-05-01T15:34:00.004Z</time></trkpt><trkpt lat="42.3419328" lon="14.1305869"><ele>47.0</ele><time>2026-05-01T15:34:01.004Z</time></trkpt><trkpt lat="42.3419624" lon="14.1304414"><ele>46.8</ele><time>2026-05-01T15:34:02.004Z</time></trkpt><trkpt lat="42.3419946" lon="14.1303069"><ele>46.6</ele><time>2026-05-01T15:34:03.004Z</time></trkpt><trkpt lat="42.3420239" lon="14.1301834"><ele>46.4</ele><time>2026-05-01T15:34:04.004Z</time></trkpt><trkpt lat="42.3420464" lon="14.1300769"><ele>46.199999999999996</ele><time>2026-05-01T15:34:05.004Z</time></trkpt><trkpt lat="42.3420437" lon="14.1299736"><ele>46.0</ele><time>2026-05-01T15:34:06.004Z</time></trkpt><trkpt lat="42.3420486" lon="14.1298329"><ele>45.66666666666667</ele><time>2026-05-01T15:34:08.004Z</time></trkpt><trkpt lat="42.3421016" lon="14.1297094"><ele>45.333333333333336</ele><time>2026-05-01T15:34:10.004Z</time></trkpt><trkpt lat="42.3421445" lon="14.1296397"><ele>45.0</ele><time>2026-05-01T15:34:11.004Z</time></trkpt><trkpt lat="42.342176" lon="14.1295619"><ele>44.666666666666664</ele><time>2026-05-01T15:34:12.004Z</time></trkpt><trkpt lat="42.3421905" lon="14.1294682"><ele>44.33333333333333</ele><time>2026-05-01T15:34:13.004Z</time></trkpt><trkpt lat="42.3421868" lon="14.1293734"><ele>44.0</ele><time>2026-05-01T15:34:14.004Z</time></trkpt><trkpt lat="42.3421603" lon="14.1292842"><ele>44.0</ele><time>2026-05-01T15:34:15.004Z</time></trkpt><trkpt lat="42.3421057" lon="14.1292198"><ele>44.0</ele><time>2026-05-01T15:34:16.004Z</time></trkpt><trkpt lat="42.3420385" lon="14.1291627"><ele>44.0</ele><time>2026-05-01T15:34:17.004Z</time></trkpt><trkpt lat="42.3419702" lon="14.1290841"><ele>44.0</ele><time>2026-05-01T15:34:18.004Z</time></trkpt><trkpt lat="42.3419118" lon="14.128977"><ele>44.0</ele><time>2026-05-01T15:34:19.004Z</time></trkpt><trkpt lat="42.3418703" lon="14.1288357"><ele>42.75</ele><time>2026-05-01T15:34:20.004Z</time></trkpt><trkpt lat="42.3418319" lon="14.1286755"><ele>41.5</ele><time>2026-05-01T15:34:21.004Z</time></trkpt><trkpt lat="42.3417931" lon="14.1285205"><ele>40.25</ele><time>2026-05-01T15:34:22.004Z</time></trkpt><trkpt lat="42.3417577" lon="14.1283316"><ele>39.0</ele><time>2026-05-01T15:34:23.004Z</time></trkpt><trkpt lat="42.3417192" lon="14.1281406"><ele>38.5</ele><time>2026-05-01T15:34:24.004Z</time></trkpt><trkpt lat="42.3416917" lon="14.1279424"><ele>38.0</ele><time>2026-05-01T15:34:25.004Z</time></trkpt><trkpt lat="42.3416595" lon="14.1277443"><ele>37.5</ele><time>2026-05-01T15:34:26.004Z</time></trkpt><trkpt lat="42.3416277" lon="14.1275466"><ele>37.0</ele><time>2026-05-01T15:34:27.004Z</time></trkpt><trkpt lat="42.3415965" lon="14.1273563"><ele>36.5</ele><time>2026-05-01T15:34:28.004Z</time></trkpt><trkpt lat="42.341567" lon="14.1271702"><ele>36.0</ele><time>2026-05-01T15:34:29.004Z</time></trkpt><trkpt lat="42.3415304" lon="14.1269728"><ele>35.5</ele><time>2026-05-01T15:34:30.004Z</time></trkpt><trkpt lat="42.3414929" lon="14.1267666"><ele>35.0</ele><time>2026-05-01T15:34:31.004Z</time></trkpt><trkpt lat="42.3414476" lon="14.1265418"><ele>35.0</ele><time>2026-05-01T15:34:32.004Z</time></trkpt><trkpt lat="42.341399" lon="14.1263109"><ele>35.0</ele><time>2026-05-01T15:34:33.004Z</time></trkpt><trkpt lat="42.341357" lon="14.1260607"><ele>35.0</ele><time>2026-05-01T15:34:34.004Z</time></trkpt><trkpt lat="42.3413168" lon="14.1258036"><ele>34.666666666666664</ele><time>2026-05-01T15:34:35.004Z</time></trkpt><trkpt lat="42.3412733" lon="14.1255476"><ele>34.333333333333336</ele><time>2026-05-01T15:34:36.004Z</time></trkpt><trkpt lat="42.3412314" lon="14.1252937"><ele>34.0</ele><time>2026-05-01T15:34:37.004Z</time></trkpt><trkpt lat="42.3411888" lon="14.1250427"><ele>34.333333333333336</ele><time>2026-05-01T15:34:38.004Z</time></trkpt><trkpt lat="42.3411467" lon="14.1247825"><ele>34.666666666666664</ele><time>2026-05-01T15:34:39.004Z</time></trkpt><trkpt lat="42.3411005" lon="14.1245111"><ele>35.0</ele><time>2026-05-01T15:34:40.004Z</time></trkpt><trkpt lat="42.3410559" lon="14.1242301"><ele>35.5</ele><time>2026-05-01T15:34:41.004Z</time></trkpt><trkpt lat="42.341008" lon="14.1239296"><ele>36.0</ele><time>2026-05-01T15:34:42.005Z</time></trkpt><trkpt lat="42.3409573" lon="14.1236178"><ele>36.0</ele><time>2026-05-01T15:34:43.004Z</time></trkpt><trkpt lat="42.3409123" lon="14.1233071"><ele>36.0</ele><time>2026-05-01T15:34:44.004Z</time></trkpt><trkpt lat="42.3408684" lon="14.1230216"><ele>35.666666666666664</ele><time>2026-05-01T15:34:45.004Z</time></trkpt><trkpt lat="42.340824" lon="14.1227586"><ele>35.33333333333333</ele><time>2026-05-01T15:34:46.004Z</time></trkpt><trkpt lat="42.3408025" lon="14.1225047"><ele>35.0</ele><time>2026-05-01T15:34:47.004Z</time></trkpt><trkpt lat="42.3408022" lon="14.122253"><ele>34.75</ele><time>2026-05-01T15:34:48.004Z</time></trkpt><trkpt lat="42.3408231" lon="14.1220216"><ele>34.5</ele><time>2026-05-01T15:34:49.004Z</time></trkpt><trkpt lat="42.3408659" lon="14.1218291"><ele>34.25</ele><time>2026-05-01T15:34:50.004Z</time></trkpt><trkpt lat="42.340925" lon="14.1217082"><ele>34.0</ele><time>2026-05-01T15:34:51.004Z</time></trkpt><trkpt lat="42.3410049" lon="14.1216244"><ele>34.0</ele><time>2026-05-01T15:34:52.004Z</time></trkpt><trkpt lat="42.34108" lon="14.1215718"><ele>34.0</ele><time>2026-05-01T15:34:53.004Z</time></trkpt><trkpt lat="42.3411428" lon="14.1214924"><ele>34.0</ele><time>2026-05-01T15:34:54.004Z</time></trkpt><trkpt lat="42.341179" lon="14.1213945"><ele>34.0</ele><time>2026-05-01T15:34:55.004Z</time></trkpt><trkpt lat="42.3411953" lon="14.1212747"><ele>34.0</ele><time>2026-05-01T15:34:56.004Z</time></trkpt><trkpt lat="42.3412022" lon="14.1211257"><ele>33.75</ele><time>2026-05-01T15:34:57.004Z</time></trkpt><trkpt lat="42.3412358" lon="14.1209828"><ele>33.5</ele><time>2026-05-01T15:34:58.004Z</time></trkpt><trkpt lat="42.3413007" lon="14.1208471"><ele>33.25</ele><time>2026-05-01T15:34:59.004Z</time></trkpt><trkpt lat="42.341386" lon="14.1206899"><ele>33.0</ele><time>2026-05-01T15:35:00.004Z</time></trkpt><trkpt lat="42.3414869" lon="14.1205138"><ele>33.0</ele><time>2026-05-01T15:35:01.004Z</time></trkpt><trkpt lat="42.3415951" lon="14.1203079"><ele>33.0</ele><time>2026-05-01T15:35:02.004Z</time></trkpt><trkpt lat="42.341714" lon="14.1200906"><ele>33.0</ele><time>2026-05-01T15:35:03.004Z</time></trkpt><trkpt lat="42.3418411" lon="14.1198585"><ele>32.666666666666664</ele><time>2026-05-01T15:35:04.004Z</time></trkpt><trkpt lat="42.341976" lon="14.1196216"><ele>32.33333333333333</ele><time>2026-05-01T15:35:05.004Z</time></trkpt><trkpt lat="42.3421121" lon="14.1193793"><ele>32.0</ele><time>2026-05-01T15:35:06.004Z</time></trkpt><trkpt lat="42.3422422" lon="14.1191396"><ele>32.33333333333333</ele><time>2026-05-01T15:35:07.004Z</time></trkpt><trkpt lat="42.3423549" lon="14.1188988"><ele>32.666666666666664</ele><time>2026-05-01T15:35:08.004Z</time></trkpt><trkpt lat="42.3424386" lon="14.1186663"><ele>33.0</ele><time>2026-05-01T15:35:09.004Z</time></trkpt><trkpt lat="42.3425149" lon="14.1184362"><ele>35.0</ele><time>2026-05-01T15:35:10.004Z</time></trkpt><trkpt lat="42.3425644" lon="14.1182091"><ele>37.0</ele><time>2026-05-01T15:35:11.004Z</time></trkpt><trkpt lat="42.3426015" lon="14.1179981"><ele>39.0</ele><time>2026-05-01T15:35:12.004Z</time></trkpt><trkpt lat="42.342637" lon="14.1178076"><ele>39.0</ele><time>2026-05-01T15:35:13.004Z</time></trkpt><trkpt lat="42.3426718" lon="14.1176341"><ele>39.0</ele><time>2026-05-01T15:35:14.004Z</time></trkpt><trkpt lat="42.3427005" lon="14.1174718"><ele>39.0</ele><time>2026-05-01T15:35:15.004Z</time></trkpt><trkpt lat="42.3427262" lon="14.117325"><ele>39.0</ele><time>2026-05-01T15:35:16.004Z</time></trkpt><trkpt lat="42.3427513" lon="14.1171852"><ele>40.5</ele><time>2026-05-01T15:35:17.004Z</time></trkpt><trkpt lat="42.3427761" lon="14.1170477"><ele>42.0</ele><time>2026-05-01T15:35:18.004Z</time></trkpt><trkpt lat="42.3428003" lon="14.1168809"><ele>43.5</ele><time>2026-05-01T15:35:19.004Z</time></trkpt><trkpt lat="42.3428246" lon="14.1167194"><ele>45.0</ele><time>2026-05-01T15:35:20.004Z</time></trkpt><trkpt lat="42.3428546" lon="14.1165534"><ele>45.25</ele><time>2026-05-01T15:35:21.004Z</time></trkpt><trkpt lat="42.3428879" lon="14.1163745"><ele>45.5</ele><time>2026-05-01T15:35:22.004Z</time></trkpt><trkpt lat="42.342922" lon="14.1162076"><ele>45.75</ele><time>2026-05-01T15:35:23.004Z</time></trkpt><trkpt lat="42.3429494" lon="14.1160468"><ele>46.0</ele><time>2026-05-01T15:35:24.004Z</time></trkpt><trkpt lat="42.3429812" lon="14.1158863"><ele>46.5</ele><time>2026-05-01T15:35:25.004Z</time></trkpt><trkpt lat="42.343013" lon="14.1157303"><ele>47.0</ele><time>2026-05-01T15:35:26.004Z</time></trkpt><trkpt lat="42.3430436" lon="14.1155684"><ele>47.5</ele><time>2026-05-01T15:35:27.004Z</time></trkpt><trkpt lat="42.3430726" lon="14.1154109"><ele>48.0</ele><time>2026-05-01T15:35:28.004Z</time></trkpt><trkpt lat="42.3431004" lon="14.115257"><ele>48.0</ele><time>2026-05-01T15:35:29.004Z</time></trkpt><trkpt lat="42.3431259" lon="14.1151009"><ele>48.0</ele><time>2026-05-01T15:35:30.004Z</time></trkpt><trkpt lat="42.3431469" lon="14.1149466"><ele>48.0</ele><time>2026-05-01T15:35:31.004Z</time></trkpt><trkpt lat="42.3431693" lon="14.11479"><ele>48.0</ele><time>2026-05-01T15:35:32.004Z</time></trkpt><trkpt lat="42.3431908" lon="14.1146349"><ele>48.0</ele><time>2026-05-01T15:35:33.004Z</time></trkpt><trkpt lat="42.3432103" lon="14.1144814"><ele>48.0</ele><time>2026-05-01T15:35:34.004Z</time></trkpt><trkpt lat="42.3432306" lon="14.11432"><ele>48.0</ele><time>2026-05-01T15:35:35.004Z</time></trkpt><trkpt lat="42.3432478" lon="14.1141584"><ele>48.0</ele><time>2026-05-01T15:35:36.004Z</time></trkpt><trkpt lat="42.3432629" lon="14.113992"><ele>47.75</ele><time>2026-05-01T15:35:37.004Z</time></trkpt><trkpt lat="42.3432817" lon="14.1138258"><ele>47.5</ele><time>2026-05-01T15:35:38.004Z</time></trkpt><trkpt lat="42.3433039" lon="14.113675"><ele>47.25</ele><time>2026-05-01T15:35:39.004Z</time></trkpt><trkpt lat="42.3433256" lon="14.1135216"><ele>47.0</ele><time>2026-05-01T15:35:40.004Z</time></trkpt><trkpt lat="42.3433499" lon="14.1133678"><ele>47.0</ele><time>2026-05-01T15:35:41.004Z</time></trkpt><trkpt lat="42.3433705" lon="14.1132145"><ele>47.0</ele><time>2026-05-01T15:35:42.004Z</time></trkpt><trkpt lat="42.3433881" lon="14.1130659"><ele>47.0</ele><time>2026-05-01T15:35:43.004Z</time></trkpt><trkpt lat="42.3434066" lon="14.1129156"><ele>47.0</ele><time>2026-05-01T15:35:44.004Z</time></trkpt><trkpt lat="42.3434252" lon="14.1127713"><ele>47.0</ele><time>2026-05-01T15:35:45.004Z</time></trkpt><trkpt lat="42.3434435" lon="14.1126479"><ele>47.0</ele><time>2026-05-01T15:35:46.004Z</time></trkpt><trkpt lat="42.343458" lon="14.1125233"><ele>47.0</ele><time>2026-05-01T15:35:47.004Z</time></trkpt><trkpt lat="42.3434757" lon="14.1123906"><ele>47.0</ele><time>2026-05-01T15:35:48.004Z</time></trkpt><trkpt lat="42.3434928" lon="14.1122722"><ele>47.0</ele><time>2026-05-01T15:35:49.004Z</time></trkpt><trkpt lat="42.3435069" lon="14.1121613"><ele>47.0</ele><time>2026-05-01T15:35:50.004Z</time></trkpt><trkpt lat="42.3435204" lon="14.1120508"><ele>47.0</ele><time>2026-05-01T15:35:51.004Z</time></trkpt><trkpt lat="42.3435346" lon="14.111951"><ele>47.0</ele><time>2026-05-01T15:35:52.004Z</time></trkpt><trkpt lat="42.3435463" lon="14.1118554"><ele>47.0</ele><time>2026-05-01T15:35:53.004Z</time></trkpt><trkpt lat="42.3435574" lon="14.1117583"><ele>47.0</ele><time>2026-05-01T15:35:54.004Z</time></trkpt><trkpt lat="42.3435738" lon="14.1116724"><ele>47.0</ele><time>2026-05-01T15:35:55.004Z</time></trkpt><trkpt lat="42.3435956" lon="14.111589"><ele>47.0</ele><time>2026-05-01T15:35:56.004Z</time></trkpt><trkpt lat="42.343663" lon="14.1114926"><ele>47.0</ele><time>2026-05-01T15:35:58.004Z</time></trkpt><trkpt lat="42.3437623" lon="14.1115027"><ele>47.2</ele><time>2026-05-01T15:36:00.004Z</time></trkpt><trkpt lat="42.3438257" lon="14.111531"><ele>47.400000000000006</ele><time>2026-05-01T15:36:01.004Z</time></trkpt><trkpt lat="42.3439009" lon="14.1115812"><ele>47.599999999999994</ele><time>2026-05-01T15:36:02.004Z</time></trkpt><trkpt lat="42.343988" lon="14.1116249"><ele>47.8</ele><time>2026-05-01T15:36:03.004Z</time></trkpt><trkpt lat="42.3440918" lon="14.1116708"><ele>48.0</ele><time>2026-05-01T15:36:04.004Z</time></trkpt><trkpt lat="42.3442204" lon="14.1117379"><ele>48.0</ele><time>2026-05-01T15:36:05.004Z</time></trkpt><trkpt lat="42.3443445" lon="14.1118153"><ele>48.0</ele><time>2026-05-01T15:36:06.004Z</time></trkpt><trkpt lat="42.3444695" lon="14.1119085"><ele>48.0</ele><time>2026-05-01T15:36:07.004Z</time></trkpt><trkpt lat="42.3445958" lon="14.1119997"><ele>48.0</ele><time>2026-05-01T15:36:08.004Z</time></trkpt><trkpt lat="42.344734" lon="14.1120994"><ele>47.0</ele><time>2026-05-01T15:36:09.004Z</time></trkpt><trkpt lat="42.3448808" lon="14.1121941"><ele>46.0</ele><time>2026-05-01T15:36:10.004Z</time></trkpt><trkpt lat="42.3450336" lon="14.1122815"><ele>45.0</ele><time>2026-05-01T15:36:11.004Z</time></trkpt><trkpt lat="42.3451958" lon="14.1123541"><ele>45.333333333333336</ele><time>2026-05-01T15:36:12.004Z</time></trkpt><trkpt lat="42.3453503" lon="14.1124173"><ele>45.66666666666667</ele><time>2026-05-01T15:36:13.004Z</time></trkpt><trkpt lat="42.3455091" lon="14.1124822"><ele>46.0</ele><time>2026-05-01T15:36:14.004Z</time></trkpt><trkpt lat="42.3456737" lon="14.1125318"><ele>46.0</ele><time>2026-05-01T15:36:15.004Z</time></trkpt><trkpt lat="42.3458323" lon="14.1125797"><ele>46.0</ele><time>2026-05-01T15:36:16.004Z</time></trkpt><trkpt lat="42.3459862" lon="14.1126283"><ele>46.0</ele><time>2026-05-01T15:36:17.004Z</time></trkpt><trkpt lat="42.3461426" lon="14.112686"><ele>46.0</ele><time>2026-05-01T15:36:18.004Z</time></trkpt><trkpt lat="42.346307" lon="14.1127576"><ele>46.0</ele><time>2026-05-01T15:36:19.004Z</time></trkpt><trkpt lat="42.3464806" lon="14.1128336"><ele>46.0</ele><time>2026-05-01T15:36:20.004Z</time></trkpt><trkpt lat="42.3466609" lon="14.1129156"><ele>45.333333333333336</ele><time>2026-05-01T15:36:21.004Z</time></trkpt><trkpt lat="42.3468374" lon="14.1130043"><ele>44.666666666666664</ele><time>2026-05-01T15:36:22.004Z</time></trkpt><trkpt lat="42.3470104" lon="14.1130925"><ele>44.0</ele><time>2026-05-01T15:36:23.004Z</time></trkpt><trkpt lat="42.3471776" lon="14.1131726"><ele>44.33333333333333</ele><time>2026-05-01T15:36:24.004Z</time></trkpt><trkpt lat="42.3473391" lon="14.1132501"><ele>44.666666666666664</ele><time>2026-05-01T15:36:25.004Z</time></trkpt><trkpt lat="42.3475026" lon="14.1133286"><ele>45.0</ele><time>2026-05-01T15:36:26.004Z</time></trkpt><trkpt lat="42.347663" lon="14.1134098"><ele>45.0</ele><time>2026-05-01T15:36:27.004Z</time></trkpt><trkpt lat="42.347816" lon="14.1134792"><ele>45.0</ele><time>2026-05-01T15:36:28.004Z</time></trkpt><trkpt lat="42.3479629" lon="14.1135493"><ele>45.0</ele><time>2026-05-01T15:36:29.004Z</time></trkpt><trkpt lat="42.3480979" lon="14.1136098"><ele>45.0</ele><time>2026-05-01T15:36:30.004Z</time></trkpt><trkpt lat="42.3482315" lon="14.1136503"><ele>45.0</ele><time>2026-05-01T15:36:31.004Z</time></trkpt><trkpt lat="42.3483657" lon="14.1136596"><ele>45.0</ele><time>2026-05-01T15:36:32.004Z</time></trkpt><trkpt lat="42.3485012" lon="14.1136179"><ele>45.0</ele><time>2026-05-01T15:36:33.004Z</time></trkpt><trkpt lat="42.3486397" lon="14.1135502"><ele>45.0</ele><time>2026-05-01T15:36:34.004Z</time></trkpt><trkpt lat="42.3487762" lon="14.113473"><ele>45.0</ele><time>2026-05-01T15:36:35.004Z</time></trkpt><trkpt lat="42.3489135" lon="14.1133797"><ele>45.0</ele><time>2026-05-01T15:36:36.004Z</time></trkpt><trkpt lat="42.349047" lon="14.1132897"><ele>44.0</ele><time>2026-05-01T15:36:37.004Z</time></trkpt><trkpt lat="42.3491786" lon="14.1132003"><ele>43.0</ele><time>2026-05-01T15:36:38.004Z</time></trkpt><trkpt lat="42.3492999" lon="14.1131178"><ele>42.0</ele><time>2026-05-01T15:36:39.004Z</time></trkpt><trkpt lat="42.3494253" lon="14.1130414"><ele>41.0</ele><time>2026-05-01T15:36:40.004Z</time></trkpt><trkpt lat="42.3495475" lon="14.1129633"><ele>41.0</ele><time>2026-05-01T15:36:41.004Z</time></trkpt><trkpt lat="42.3496643" lon="14.1128854"><ele>41.0</ele><time>2026-05-01T15:36:42.004Z</time></trkpt><trkpt lat="42.349775" lon="14.1128046"><ele>41.0</ele><time>2026-05-01T15:36:43.004Z</time></trkpt><trkpt lat="42.3498904" lon="14.1127285"><ele>41.0</ele><time>2026-05-01T15:36:44.004Z</time></trkpt><trkpt lat="42.3500115" lon="14.1126626"><ele>41.75</ele><time>2026-05-01T15:36:45.004Z</time></trkpt><trkpt lat="42.3501417" lon="14.1126012"><ele>42.5</ele><time>2026-05-01T15:36:46.004Z</time></trkpt><trkpt lat="42.3502804" lon="14.1125539"><ele>43.25</ele><time>2026-05-01T15:36:47.004Z</time></trkpt><trkpt lat="42.3504249" lon="14.1125254"><ele>44.0</ele><time>2026-05-01T15:36:48.004Z</time></trkpt><trkpt lat="42.350574" lon="14.1125121"><ele>44.0</ele><time>2026-05-01T15:36:49.004Z</time></trkpt><trkpt lat="42.3507214" lon="14.1125199"><ele>44.0</ele><time>2026-05-01T15:36:50.004Z</time></trkpt><trkpt lat="42.3508733" lon="14.1125488"><ele>44.0</ele><time>2026-05-01T15:36:51.005Z</time></trkpt><trkpt lat="42.3510198" lon="14.1125874"><ele>44.0</ele><time>2026-05-01T15:36:52.004Z</time></trkpt><trkpt lat="42.351167" lon="14.1126352"><ele>44.0</ele><time>2026-05-01T15:36:53.004Z</time></trkpt><trkpt lat="42.3513107" lon="14.1126871"><ele>44.0</ele><time>2026-05-01T15:36:54.004Z</time></trkpt><trkpt lat="42.3514533" lon="14.1127451"><ele>44.0</ele><time>2026-05-01T15:36:55.004Z</time></trkpt><trkpt lat="42.3515966" lon="14.1127957"><ele>43.0</ele><time>2026-05-01T15:36:56.004Z</time></trkpt><trkpt lat="42.3517356" lon="14.1128598"><ele>42.0</ele><time>2026-05-01T15:36:57.004Z</time></trkpt><trkpt lat="42.3518721" lon="14.1129233"><ele>41.0</ele><time>2026-05-01T15:36:58.004Z</time></trkpt><trkpt lat="42.3520163" lon="14.1129849"><ele>40.0</ele><time>2026-05-01T15:36:59.004Z</time></trkpt><trkpt lat="42.3521647" lon="14.113048"><ele>38.333333333333336</ele><time>2026-05-01T15:37:00.004Z</time></trkpt><trkpt lat="42.3523116" lon="14.1131075"><ele>36.666666666666664</ele><time>2026-05-01T15:37:01.004Z</time></trkpt><trkpt lat="42.3524561" lon="14.113166"><ele>35.0</ele><time>2026-05-01T15:37:02.004Z</time></trkpt><trkpt lat="42.3525996" lon="14.1132225"><ele>35.0</ele><time>2026-05-01T15:37:03.004Z</time></trkpt><trkpt lat="42.3527491" lon="14.1132767"><ele>35.0</ele><time>2026-05-01T15:37:04.004Z</time></trkpt><trkpt lat="42.3529035" lon="14.1133372"><ele>35.0</ele><time>2026-05-01T15:37:05.004Z</time></trkpt><trkpt lat="42.3530554" lon="14.1134003"><ele>35.0</ele><time>2026-05-01T15:37:06.004Z</time></trkpt><trkpt lat="42.3532133" lon="14.1134688"><ele>35.0</ele><time>2026-05-01T15:37:07.004Z</time></trkpt><trkpt lat="42.3533731" lon="14.113532"><ele>35.0</ele><time>2026-05-01T15:37:08.004Z</time></trkpt><trkpt lat="42.3535354" lon="14.1136015"><ele>35.0</ele><time>2026-05-01T15:37:09.004Z</time></trkpt><trkpt lat="42.3536967" lon="14.1136711"><ele>35.0</ele><time>2026-05-01T15:37:10.004Z</time></trkpt><trkpt lat="42.3538564" lon="14.1137366"><ele>35.0</ele><time>2026-05-01T15:37:11.004Z</time></trkpt><trkpt lat="42.354019" lon="14.1138031"><ele>35.33333333333333</ele><time>2026-05-01T15:37:12.004Z</time></trkpt><trkpt lat="42.3541823" lon="14.1138687"><ele>35.666666666666664</ele><time>2026-05-01T15:37:13.004Z</time></trkpt><trkpt lat="42.3543464" lon="14.1139292"><ele>36.0</ele><time>2026-05-01T15:37:14.004Z</time></trkpt><trkpt lat="42.3545108" lon="14.1139936"><ele>36.0</ele><time>2026-05-01T15:37:15.004Z</time></trkpt><trkpt lat="42.3546758" lon="14.1140614"><ele>36.0</ele><time>2026-05-01T15:37:16.004Z</time></trkpt><trkpt lat="42.3548341" lon="14.1141254"><ele>36.0</ele><time>2026-05-01T15:37:17.004Z</time></trkpt><trkpt lat="42.3549951" lon="14.1141899"><ele>36.333333333333336</ele><time>2026-05-01T15:37:18.004Z</time></trkpt><trkpt lat="42.3551531" lon="14.1142492"><ele>36.66666666666667</ele><time>2026-05-01T15:37:19.004Z</time></trkpt><trkpt lat="42.3553057" lon="14.1143103"><ele>37.0</ele><time>2026-05-01T15:37:20.004Z</time></trkpt><trkpt lat="42.3554616" lon="14.1143752"><ele>40.333333333333336</ele><time>2026-05-01T15:37:21.004Z</time></trkpt><trkpt lat="42.3556235" lon="14.1144401"><ele>43.666666666666664</ele><time>2026-05-01T15:37:22.004Z</time></trkpt><trkpt lat="42.3557919" lon="14.1145038"><ele>47.0</ele><time>2026-05-01T15:37:23.004Z</time></trkpt><trkpt lat="42.3559549" lon="14.1145608"><ele>47.0</ele><time>2026-05-01T15:37:24.004Z</time></trkpt><trkpt lat="42.3561134" lon="14.1146297"><ele>47.0</ele><time>2026-05-01T15:37:25.004Z</time></trkpt><trkpt lat="42.3562729" lon="14.114693"><ele>47.0</ele><time>2026-05-01T15:37:26.004Z</time></trkpt><trkpt lat="42.3564325" lon="14.1147645"><ele>47.666666666666664</ele><time>2026-05-01T15:37:27.004Z</time></trkpt><trkpt lat="42.356595" lon="14.1148275"><ele>48.33333333333333</ele><time>2026-05-01T15:37:28.004Z</time></trkpt><trkpt lat="42.3567602" lon="14.1148844"><ele>49.0</ele><time>2026-05-01T15:37:29.004Z</time></trkpt><trkpt lat="42.3569215" lon="14.1149441"><ele>46.33333333333333</ele><time>2026-05-01T15:37:30.004Z</time></trkpt><trkpt lat="42.3570833" lon="14.1150085"><ele>43.666666666666664</ele><time>2026-05-01T15:37:31.005Z</time></trkpt><trkpt lat="42.3572415" lon="14.1150792"><ele>41.0</ele><time>2026-05-01T15:37:32.004Z</time></trkpt><trkpt lat="42.3573974" lon="14.1151453"><ele>41.0</ele><time>2026-05-01T15:37:33.004Z</time></trkpt><trkpt lat="42.35755" lon="14.1152011"><ele>41.0</ele><time>2026-05-01T15:37:34.004Z</time></trkpt><trkpt lat="42.3577118" lon="14.1152572"><ele>41.0</ele><time>2026-05-01T15:37:35.004Z</time></trkpt><trkpt lat="42.3578748" lon="14.1153172"><ele>41.0</ele><time>2026-05-01T15:37:36.004Z</time></trkpt><trkpt lat="42.358046" lon="14.1153781"><ele>41.0</ele><time>2026-05-01T15:37:37.004Z</time></trkpt><trkpt lat="42.358219" lon="14.1154488"><ele>41.0</ele><time>2026-05-01T15:37:38.004Z</time></trkpt><trkpt lat="42.3584" lon="14.1155215"><ele>41.0</ele><time>2026-05-01T15:37:39.004Z</time></trkpt><trkpt lat="42.3585896" lon="14.1156044"><ele>41.0</ele><time>2026-05-01T15:37:40.004Z</time></trkpt><trkpt lat="42.3587811" lon="14.1156952"><ele>41.0</ele><time>2026-05-01T15:37:41.004Z</time></trkpt><trkpt lat="42.3589725" lon="14.1157817"><ele>39.33333333333333</ele><time>2026-05-01T15:37:42.004Z</time></trkpt><trkpt lat="42.3591682" lon="14.1158608"><ele>37.666666666666664</ele><time>2026-05-01T15:37:43.004Z</time></trkpt><trkpt lat="42.3593672" lon="14.1159434"><ele>36.0</ele><time>2026-05-01T15:37:44.004Z</time></trkpt><trkpt lat="42.3595665" lon="14.1160292"><ele>36.333333333333336</ele><time>2026-05-01T15:37:45.004Z</time></trkpt><trkpt lat="42.3597715" lon="14.1161168"><ele>36.66666666666667</ele><time>2026-05-01T15:37:46.004Z</time></trkpt><trkpt lat="42.359977" lon="14.1162063"><ele>37.0</ele><time>2026-05-01T15:37:47.004Z</time></trkpt><trkpt lat="42.3601793" lon="14.1162982"><ele>37.0</ele><time>2026-05-01T15:37:48.004Z</time></trkpt><trkpt lat="42.3603831" lon="14.1163899"><ele>37.0</ele><time>2026-05-01T15:37:49.004Z</time></trkpt><trkpt lat="42.3605852" lon="14.1164821"><ele>37.0</ele><time>2026-05-01T15:37:50.004Z</time></trkpt><trkpt lat="42.3607811" lon="14.116572"><ele>34.66666666666667</ele><time>2026-05-01T15:37:51.004Z</time></trkpt><trkpt lat="42.3609719" lon="14.1166596"><ele>32.333333333333336</ele><time>2026-05-01T15:37:52.004Z</time></trkpt><trkpt lat="42.3611553" lon="14.1167407"><ele>30.0</ele><time>2026-05-01T15:37:53.004Z</time></trkpt><trkpt lat="42.3613328" lon="14.1168163"><ele>32.0</ele><time>2026-05-01T15:37:54.004Z</time></trkpt><trkpt lat="42.3615016" lon="14.1168897"><ele>34.0</ele><time>2026-05-01T15:37:55.004Z</time></trkpt><trkpt lat="42.3616692" lon="14.1169633"><ele>36.0</ele><time>2026-05-01T15:37:56.004Z</time></trkpt><trkpt lat="42.361839" lon="14.1170447"><ele>36.0</ele><time>2026-05-01T15:37:57.004Z</time></trkpt><trkpt lat="42.3620124" lon="14.1171235"><ele>36.0</ele><time>2026-05-01T15:37:58.004Z</time></trkpt><trkpt lat="42.3621866" lon="14.1171958"><ele>36.0</ele><time>2026-05-01T15:37:59.004Z</time></trkpt><trkpt lat="42.3623619" lon="14.1172731"><ele>33.666666666666664</ele><time>2026-05-01T15:38:00.004Z</time></trkpt><trkpt lat="42.3625331" lon="14.1173415"><ele>31.333333333333332</ele><time>2026-05-01T15:38:01.004Z</time></trkpt><trkpt lat="42.3627123" lon="14.1173943"><ele>29.0</ele><time>2026-05-01T15:38:02.004Z</time></trkpt><trkpt lat="42.362897" lon="14.1174313"><ele>29.666666666666664</ele><time>2026-05-01T15:38:03.004Z</time></trkpt><trkpt lat="42.363093" lon="14.1174509"><ele>30.333333333333336</ele><time>2026-05-01T15:38:04.004Z</time></trkpt><trkpt lat="42.3632932" lon="14.1174555"><ele>31.0</ele><time>2026-05-01T15:38:05.004Z</time></trkpt><trkpt lat="42.3634965" lon="14.1174564"><ele>31.0</ele><time>2026-05-01T15:38:06.004Z</time></trkpt><trkpt lat="42.3636869" lon="14.117457"><ele>31.0</ele><time>2026-05-01T15:38:07.004Z</time></trkpt><trkpt lat="42.3638696" lon="14.1174673"><ele>31.0</ele><time>2026-05-01T15:38:08.004Z</time></trkpt><trkpt lat="42.3640556" lon="14.1174842"><ele>31.666666666666668</ele><time>2026-05-01T15:38:09.004Z</time></trkpt><trkpt lat="42.3642397" lon="14.1175162"><ele>32.333333333333336</ele><time>2026-05-01T15:38:10.004Z</time></trkpt><trkpt lat="42.3644147" lon="14.117587"><ele>33.0</ele><time>2026-05-01T15:38:11.004Z</time></trkpt><trkpt lat="42.3645837" lon="14.1176743"><ele>32.666666666666664</ele><time>2026-05-01T15:38:12.004Z</time></trkpt><trkpt lat="42.36476" lon="14.1177799"><ele>32.33333333333333</ele><time>2026-05-01T15:38:13.004Z</time></trkpt><trkpt lat="42.364933" lon="14.1178928"><ele>32.0</ele><time>2026-05-01T15:38:14.005Z</time></trkpt><trkpt lat="42.3651027" lon="14.1179954"><ele>32.0</ele><time>2026-05-01T15:38:15.004Z</time></trkpt><trkpt lat="42.3652696" lon="14.1181082"><ele>32.0</ele><time>2026-05-01T15:38:16.004Z</time></trkpt><trkpt lat="42.365434" lon="14.1182235"><ele>32.0</ele><time>2026-05-01T15:38:17.004Z</time></trkpt><trkpt lat="42.3656046" lon="14.1183411"><ele>30.666666666666664</ele><time>2026-05-01T15:38:18.004Z</time></trkpt><trkpt lat="42.365774" lon="14.1184567"><ele>29.333333333333336</ele><time>2026-05-01T15:38:19.004Z</time></trkpt><trkpt lat="42.3659448" lon="14.1185671"><ele>28.0</ele><time>2026-05-01T15:38:20.004Z</time></trkpt><trkpt lat="42.366109" lon="14.1186738"><ele>28.0</ele><time>2026-05-01T15:38:21.004Z</time></trkpt><trkpt lat="42.3662719" lon="14.1187767"><ele>28.0</ele><time>2026-05-01T15:38:22.004Z</time></trkpt><trkpt lat="42.3664348" lon="14.1188973"><ele>28.0</ele><time>2026-05-01T15:38:23.004Z</time></trkpt><trkpt lat="42.3665999" lon="14.119017"><ele>27.666666666666668</ele><time>2026-05-01T15:38:24.004Z</time></trkpt><trkpt lat="42.3667628" lon="14.1191322"><ele>27.333333333333336</ele><time>2026-05-01T15:38:25.004Z</time></trkpt><trkpt lat="42.3669279" lon="14.119251"><ele>27.0</ele><time>2026-05-01T15:38:26.004Z</time></trkpt><trkpt lat="42.3670932" lon="14.1193671"><ele>27.333333333333336</ele><time>2026-05-01T15:38:27.004Z</time></trkpt><trkpt lat="42.3672572" lon="14.1194815"><ele>27.666666666666668</ele><time>2026-05-01T15:38:28.004Z</time></trkpt><trkpt lat="42.3674199" lon="14.1195954"><ele>28.0</ele><time>2026-05-01T15:38:29.004Z</time></trkpt><trkpt lat="42.3675827" lon="14.1197079"><ele>28.0</ele><time>2026-05-01T15:38:30.004Z</time></trkpt><trkpt lat="42.3677455" lon="14.1198222"><ele>28.0</ele><time>2026-05-01T15:38:31.004Z</time></trkpt><trkpt lat="42.3679035" lon="14.1199369"><ele>28.0</ele><time>2026-05-01T15:38:32.004Z</time></trkpt><trkpt lat="42.3680624" lon="14.1200444"><ele>28.333333333333336</ele><time>2026-05-01T15:38:33.004Z</time></trkpt><trkpt lat="42.3682207" lon="14.1201465"><ele>28.666666666666664</ele><time>2026-05-01T15:38:34.004Z</time></trkpt><trkpt lat="42.3683908" lon="14.1202226"><ele>29.0</ele><time>2026-05-01T15:38:35.004Z</time></trkpt><trkpt lat="42.368565" lon="14.1202728"><ele>29.0</ele><time>2026-05-01T15:38:36.004Z</time></trkpt><trkpt lat="42.3687461" lon="14.1203014"><ele>29.0</ele><time>2026-05-01T15:38:37.004Z</time></trkpt><trkpt lat="42.3689295" lon="14.1203255"><ele>29.0</ele><time>2026-05-01T15:38:38.004Z</time></trkpt><trkpt lat="42.3691146" lon="14.1203484"><ele>31.666666666666664</ele><time>2026-05-01T15:38:39.004Z</time></trkpt><trkpt lat="42.3693081" lon="14.1203771"><ele>34.333333333333336</ele><time>2026-05-01T15:38:40.004Z</time></trkpt><trkpt lat="42.369509" lon="14.1204055"><ele>37.0</ele><time>2026-05-01T15:38:41.004Z</time></trkpt><trkpt lat="42.369717" lon="14.1204264"><ele>37.0</ele><time>2026-05-01T15:38:42.004Z</time></trkpt><trkpt lat="42.3699303" lon="14.1204491"><ele>37.0</ele><time>2026-05-01T15:38:43.004Z</time></trkpt><trkpt lat="42.3701376" lon="14.1204759"><ele>37.0</ele><time>2026-05-01T15:38:44.004Z</time></trkpt><trkpt lat="42.3703324" lon="14.1205012"><ele>37.0</ele><time>2026-05-01T15:38:45.004Z</time></trkpt><trkpt lat="42.3705181" lon="14.1205283"><ele>37.0</ele><time>2026-05-01T15:38:46.004Z</time></trkpt><trkpt lat="42.3707105" lon="14.1205594"><ele>37.0</ele><time>2026-05-01T15:38:47.004Z</time></trkpt><trkpt lat="42.3709051" lon="14.1206138"><ele>37.333333333333336</ele><time>2026-05-01T15:38:48.004Z</time></trkpt><trkpt lat="42.3711027" lon="14.1206888"><ele>37.666666666666664</ele><time>2026-05-01T15:38:49.004Z</time></trkpt><trkpt lat="42.3713026" lon="14.1207731"><ele>38.0</ele><time>2026-05-01T15:38:50.004Z</time></trkpt><trkpt lat="42.3714855" lon="14.1208539"><ele>36.33333333333333</ele><time>2026-05-01T15:38:51.004Z</time></trkpt><trkpt lat="42.3716644" lon="14.1209348"><ele>34.666666666666664</ele><time>2026-05-01T15:38:52.004Z</time></trkpt><trkpt lat="42.3718283" lon="14.1210065"><ele>33.0</ele><time>2026-05-01T15:38:53.004Z</time></trkpt><trkpt lat="42.3719899" lon="14.1210939"><ele>33.0</ele><time>2026-05-01T15:38:54.004Z</time></trkpt><trkpt lat="42.3721515" lon="14.1211991"><ele>33.0</ele><time>2026-05-01T15:38:55.004Z</time></trkpt><trkpt lat="42.3723036" lon="14.121317"><ele>33.0</ele><time>2026-05-01T15:38:56.004Z</time></trkpt><trkpt lat="42.372451" lon="14.1214273"><ele>33.333333333333336</ele><time>2026-05-01T15:38:57.004Z</time></trkpt><trkpt lat="42.3725958" lon="14.1215346"><ele>33.66666666666667</ele><time>2026-05-01T15:38:58.004Z</time></trkpt><trkpt lat="42.372738" lon="14.121648"><ele>34.0</ele><time>2026-05-01T15:38:59.004Z</time></trkpt><trkpt lat="42.3728782" lon="14.1217594"><ele>34.0</ele><time>2026-05-01T15:39:00.004Z</time></trkpt><trkpt lat="42.3730182" lon="14.1218643"><ele>34.0</ele><time>2026-05-01T15:39:01.004Z</time></trkpt><trkpt lat="42.3731423" lon="14.1219702"><ele>34.0</ele><time>2026-05-01T15:39:02.004Z</time></trkpt><trkpt lat="42.373265" lon="14.1220667"><ele>34.0</ele><time>2026-05-01T15:39:03.004Z</time></trkpt><trkpt lat="42.3733784" lon="14.1221558"><ele>34.6</ele><time>2026-05-01T15:39:04.004Z</time></trkpt><trkpt lat="42.3734899" lon="14.1222374"><ele>35.2</ele><time>2026-05-01T15:39:05.004Z</time></trkpt><trkpt lat="42.373589" lon="14.1223152"><ele>35.800000000000004</ele><time>2026-05-01T15:39:06.004Z</time></trkpt><trkpt lat="42.3736787" lon="14.1223863"><ele>36.4</ele><time>2026-05-01T15:39:07.004Z</time></trkpt><trkpt lat="42.3737546" lon="14.1224471"><ele>37.0</ele><time>2026-05-01T15:39:08.004Z</time></trkpt><trkpt lat="42.3738455" lon="14.1225194"><ele>37.57142857142857</ele><time>2026-05-01T15:39:10.004Z</time></trkpt><trkpt lat="42.373903" lon="14.1225607"><ele>38.14285714285714</ele><time>2026-05-01T15:39:12.004Z</time></trkpt><trkpt lat="42.373965" lon="14.1226159"><ele>38.71428571428571</ele><time>2026-05-01T15:39:15.004Z</time></trkpt><trkpt lat="42.3740243" lon="14.1226598"><ele>39.285714285714285</ele><time>2026-05-01T15:39:28.004Z</time></trkpt><trkpt lat="42.3741076" lon="14.1227152"><ele>39.857142857142854</ele><time>2026-05-01T15:39:30.004Z</time></trkpt><trkpt lat="42.3741682" lon="14.1227576"><ele>40.42857142857142</ele><time>2026-05-01T15:39:31.004Z</time></trkpt><trkpt lat="42.3742311" lon="14.1228143"><ele>41.0</ele><time>2026-05-01T15:39:32.004Z</time></trkpt><trkpt lat="42.3743001" lon="14.1228822"><ele>41.0</ele><time>2026-05-01T15:39:33.004Z</time></trkpt><trkpt lat="42.3743796" lon="14.1229562"><ele>41.0</ele><time>2026-05-01T15:39:34.004Z</time></trkpt><trkpt lat="42.3744715" lon="14.123024"><ele>41.0</ele><time>2026-05-01T15:39:35.004Z</time></trkpt><trkpt lat="42.3745691" lon="14.1230927"><ele>41.0</ele><time>2026-05-01T15:39:36.004Z</time></trkpt><trkpt lat="42.374666" lon="14.1231652"><ele>41.0</ele><time>2026-05-01T15:39:37.004Z</time></trkpt><trkpt lat="42.3747556" lon="14.1232389"><ele>40.5</ele><time>2026-05-01T15:39:38.004Z</time></trkpt><trkpt lat="42.3748606" lon="14.1233203"><ele>40.0</ele><time>2026-05-01T15:39:39.004Z</time></trkpt><trkpt lat="42.3749688" lon="14.1234078"><ele>39.5</ele><time>2026-05-01T15:39:40.004Z</time></trkpt><trkpt lat="42.3750772" lon="14.1234935"><ele>39.0</ele><time>2026-05-01T15:39:41.004Z</time></trkpt><trkpt lat="42.3751849" lon="14.1235734"><ele>39.0</ele><time>2026-05-01T15:39:42.004Z</time></trkpt><trkpt lat="42.3752879" lon="14.1236545"><ele>39.0</ele><time>2026-05-01T15:39:43.004Z</time></trkpt><trkpt lat="42.3753931" lon="14.1237401"><ele>39.0</ele><time>2026-05-01T15:39:44.004Z</time></trkpt><trkpt lat="42.3755029" lon="14.123826"><ele>39.0</ele><time>2026-05-01T15:39:45.004Z</time></trkpt><trkpt lat="42.3756146" lon="14.1239004"><ele>38.75</ele><time>2026-05-01T15:39:46.004Z</time></trkpt><trkpt lat="42.3757257" lon="14.1239733"><ele>38.5</ele><time>2026-05-01T15:39:47.004Z</time></trkpt><trkpt lat="42.3758418" lon="14.124027"><ele>38.25</ele><time>2026-05-01T15:39:48.004Z</time></trkpt><trkpt lat="42.3759557" lon="14.124057"><ele>38.0</ele><time>2026-05-01T15:39:49.004Z</time></trkpt><trkpt lat="42.3760546" lon="14.1240761"><ele>38.0</ele><time>2026-05-01T15:39:50.004Z</time></trkpt><trkpt lat="42.3761346" lon="14.1240953"><ele>38.0</ele><time>2026-05-01T15:39:51.004Z</time></trkpt><trkpt lat="42.3762363" lon="14.124151"><ele>38.0</ele><time>2026-05-01T15:39:53.004Z</time></trkpt><trkpt lat="42.3762908" lon="14.1242133"><ele>38.0</ele><time>2026-05-01T15:39:55.004Z</time></trkpt><trkpt lat="42.3763403" lon="14.124295"><ele>38.0</ele><time>2026-05-01T15:39:57.004Z</time></trkpt><trkpt lat="42.3763864" lon="14.124432"><ele>37.8</ele><time>2026-05-01T15:39:59.004Z</time></trkpt><trkpt lat="42.3764663" lon="14.1245288"><ele>37.599999999999994</ele><time>2026-05-01T15:40:01.004Z</time></trkpt><trkpt lat="42.3765877" lon="14.1245083"><ele>37.400000000000006</ele><time>2026-05-01T15:40:03.004Z</time></trkpt><trkpt lat="42.3766362" lon="14.1244348"><ele>37.2</ele><time>2026-05-01T15:40:04.004Z</time></trkpt><trkpt lat="42.3766785" lon="14.1243389"><ele>37.0</ele><time>2026-05-01T15:40:05.004Z</time></trkpt><trkpt lat="42.3767287" lon="14.1242349"><ele>37.0</ele><time>2026-05-01T15:40:06.004Z</time></trkpt><trkpt lat="42.3768011" lon="14.1241329"><ele>37.0</ele><time>2026-05-01T15:40:07.004Z</time></trkpt><trkpt lat="42.3768874" lon="14.124031"><ele>37.0</ele><time>2026-05-01T15:40:08.004Z</time></trkpt><trkpt lat="42.3769775" lon="14.1239087"><ele>37.0</ele><time>2026-05-01T15:40:09.004Z</time></trkpt><trkpt lat="42.3770537" lon="14.1237687"><ele>38.75</ele><time>2026-05-01T15:40:10.004Z</time></trkpt><trkpt lat="42.377124" lon="14.1236385"><ele>40.5</ele><time>2026-05-01T15:40:11.004Z</time></trkpt><trkpt lat="42.3771974" lon="14.1235379"><ele>42.25</ele><time>2026-05-01T15:40:12.004Z</time></trkpt><trkpt lat="42.3772986" lon="14.1234605"><ele>44.0</ele><time>2026-05-01T15:40:13.004Z</time></trkpt><trkpt lat="42.3774222" lon="14.1234251"><ele>44.5</ele><time>2026-05-01T15:40:14.004Z</time></trkpt><trkpt lat="42.3775448" lon="14.1234209"><ele>45.0</ele><time>2026-05-01T15:40:15.004Z</time></trkpt><trkpt lat="42.3776798" lon="14.123437"><ele>45.5</ele><time>2026-05-01T15:40:16.004Z</time></trkpt><trkpt lat="42.3778201" lon="14.123464"><ele>46.0</ele><time>2026-05-01T15:40:17.004Z</time></trkpt><trkpt lat="42.3779674" lon="14.1234846"><ele>49.0</ele><time>2026-05-01T15:40:18.004Z</time></trkpt><trkpt lat="42.3781268" lon="14.1235036"><ele>52.0</ele><time>2026-05-01T15:40:19.005Z</time></trkpt><trkpt lat="42.3782915" lon="14.1235194"><ele>55.0</ele><time>2026-05-01T15:40:20.004Z</time></trkpt><trkpt lat="42.3784598" lon="14.1235475"><ele>55.0</ele><time>2026-05-01T15:40:21.004Z</time></trkpt><trkpt lat="42.378618" lon="14.1235738"><ele>55.0</ele><time>2026-05-01T15:40:22.004Z</time></trkpt><trkpt lat="42.3787682" lon="14.1236032"><ele>55.0</ele><time>2026-05-01T15:40:23.004Z</time></trkpt><trkpt lat="42.3788974" lon="14.1236317"><ele>55.0</ele><time>2026-05-01T15:40:24.004Z</time></trkpt><trkpt lat="42.3790129" lon="14.1236519"><ele>55.8</ele><time>2026-05-01T15:40:25.004Z</time></trkpt><trkpt lat="42.3791214" lon="14.1236809"><ele>56.6</ele><time>2026-05-01T15:40:26.004Z</time></trkpt><trkpt lat="42.3792263" lon="14.1237086"><ele>57.400000000000006</ele><time>2026-05-01T15:40:27.004Z</time></trkpt><trkpt lat="42.3793253" lon="14.1237482"><ele>58.2</ele><time>2026-05-01T15:40:28.004Z</time></trkpt><trkpt lat="42.379413" lon="14.123796"><ele>59.0</ele><time>2026-05-01T15:40:29.004Z</time></trkpt><trkpt lat="42.3794929" lon="14.1238654"><ele>59.0</ele><time>2026-05-01T15:40:30.004Z</time></trkpt><trkpt lat="42.379564" lon="14.1239507"><ele>59.00000000000001</ele><time>2026-05-01T15:40:31.004Z</time></trkpt><trkpt lat="42.3796373" lon="14.1240351"><ele>59.00000000000001</ele><time>2026-05-01T15:40:32.004Z</time></trkpt><trkpt lat="42.3797258" lon="14.1241241"><ele>59.0</ele><time>2026-05-01T15:40:33.004Z</time></trkpt><trkpt lat="42.3798276" lon="14.1242092"><ele>59.0</ele><time>2026-05-01T15:40:34.004Z</time></trkpt><trkpt lat="42.3799287" lon="14.1242975"><ele>57.25</ele><time>2026-05-01T15:40:35.004Z</time></trkpt><trkpt lat="42.3800321" lon="14.1243818"><ele>55.5</ele><time>2026-05-01T15:40:36.004Z</time></trkpt><trkpt lat="42.3801438" lon="14.1244578"><ele>53.75</ele><time>2026-05-01T15:40:37.004Z</time></trkpt><trkpt lat="42.3802585" lon="14.1245349"><ele>52.0</ele><time>2026-05-01T15:40:38.004Z</time></trkpt><trkpt lat="42.3803738" lon="14.1246208"><ele>52.0</ele><time>2026-05-01T15:40:39.004Z</time></trkpt><trkpt lat="42.3804881" lon="14.1247114"><ele>52.0</ele><time>2026-05-01T15:40:40.004Z</time></trkpt><trkpt lat="42.3806065" lon="14.1248018"><ele>52.0</ele><time>2026-05-01T15:40:41.004Z</time></trkpt><trkpt lat="42.3807323" lon="14.1248892"><ele>52.0</ele><time>2026-05-01T15:40:42.004Z</time></trkpt><trkpt lat="42.3808579" lon="14.1249873"><ele>50.666666666666664</ele><time>2026-05-01T15:40:43.004Z</time></trkpt><trkpt lat="42.380986" lon="14.1250859"><ele>49.33333333333333</ele><time>2026-05-01T15:40:44.004Z</time></trkpt><trkpt lat="42.3811215" lon="14.1251852"><ele>48.0</ele><time>2026-05-01T15:40:45.004Z</time></trkpt><trkpt lat="42.3812637" lon="14.1252805"><ele>49.66666666666667</ele><time>2026-05-01T15:40:46.004Z</time></trkpt><trkpt lat="42.3813986" lon="14.1253732"><ele>51.333333333333336</ele><time>2026-05-01T15:40:47.004Z</time></trkpt><trkpt lat="42.3815309" lon="14.125467"><ele>53.0</ele><time>2026-05-01T15:40:48.004Z</time></trkpt><trkpt lat="42.3816654" lon="14.1255634"><ele>53.0</ele><time>2026-05-01T15:40:49.004Z</time></trkpt><trkpt lat="42.3817925" lon="14.1256648"><ele>53.0</ele><time>2026-05-01T15:40:50.004Z</time></trkpt><trkpt lat="42.3819172" lon="14.1257745"><ele>53.0</ele><time>2026-05-01T15:40:51.004Z</time></trkpt><trkpt lat="42.3820387" lon="14.1258862"><ele>53.0</ele><time>2026-05-01T15:40:52.004Z</time></trkpt><trkpt lat="42.3821607" lon="14.1259999"><ele>53.0</ele><time>2026-05-01T15:40:53.004Z</time></trkpt><trkpt lat="42.3822803" lon="14.1261097"><ele>53.0</ele><time>2026-05-01T15:40:54.004Z</time></trkpt><trkpt lat="42.3824022" lon="14.1262121"><ele>53.0</ele><time>2026-05-01T15:40:55.004Z</time></trkpt><trkpt lat="42.3825257" lon="14.1262937"><ele>53.0</ele><time>2026-05-01T15:40:56.004Z</time></trkpt><trkpt lat="42.3826575" lon="14.1263455"><ele>53.0</ele><time>2026-05-01T15:40:57.004Z</time></trkpt><trkpt lat="42.38279" lon="14.1263895"><ele>53.0</ele><time>2026-05-01T15:40:58.004Z</time></trkpt><trkpt lat="42.382932" lon="14.1264177"><ele>53.0</ele><time>2026-05-01T15:40:59.004Z</time></trkpt><trkpt lat="42.3830778" lon="14.1264191"><ele>53.0</ele><time>2026-05-01T15:41:00.004Z</time></trkpt><trkpt lat="42.3832052" lon="14.1264218"><ele>53.0</ele><time>2026-05-01T15:41:01.004Z</time></trkpt><trkpt lat="42.3833211" lon="14.1264272"><ele>53.0</ele><time>2026-05-01T15:41:02.004Z</time></trkpt><trkpt lat="42.3834269" lon="14.1264473"><ele>53.0</ele><time>2026-05-01T15:41:03.004Z</time></trkpt><trkpt lat="42.3835188" lon="14.1264928"><ele>53.0</ele><time>2026-05-01T15:41:04.004Z</time></trkpt><trkpt lat="42.3836187" lon="14.126568"><ele>53.0</ele><time>2026-05-01T15:41:05.004Z</time></trkpt><trkpt lat="42.383728" lon="14.1266346"><ele>50.25</ele><time>2026-05-01T15:41:06.004Z</time></trkpt><trkpt lat="42.3838405" lon="14.1267022"><ele>47.5</ele><time>2026-05-01T15:41:07.004Z</time></trkpt><trkpt lat="42.3839568" lon="14.1267676"><ele>44.75</ele><time>2026-05-01T15:41:08.004Z</time></trkpt><trkpt lat="42.3840732" lon="14.1268239"><ele>42.0</ele><time>2026-05-01T15:41:09.004Z</time></trkpt><trkpt lat="42.3841964" lon="14.1268792"><ele>42.0</ele><time>2026-05-01T15:41:10.004Z</time></trkpt><trkpt lat="42.3843259" lon="14.1269268"><ele>42.0</ele><time>2026-05-01T15:41:11.004Z</time></trkpt><trkpt lat="42.3844502" lon="14.1269778"><ele>42.0</ele><time>2026-05-01T15:41:12.004Z</time></trkpt><trkpt lat="42.3845766" lon="14.1270225"><ele>42.0</ele><time>2026-05-01T15:41:13.004Z</time></trkpt><trkpt lat="42.3846994" lon="14.1270651"><ele>42.75</ele><time>2026-05-01T15:41:14.004Z</time></trkpt><trkpt lat="42.3848279" lon="14.1271111"><ele>43.5</ele><time>2026-05-01T15:41:15.004Z</time></trkpt><trkpt lat="42.3849509" lon="14.1271794"><ele>44.25</ele><time>2026-05-01T15:41:16.004Z</time></trkpt><trkpt lat="42.3850639" lon="14.1272638"><ele>45.0</ele><time>2026-05-01T15:41:17.004Z</time></trkpt><trkpt lat="42.385175" lon="14.1273683"><ele>42.75</ele><time>2026-05-01T15:41:18.004Z</time></trkpt><trkpt lat="42.3852833" lon="14.1274859"><ele>40.5</ele><time>2026-05-01T15:41:19.004Z</time></trkpt><trkpt lat="42.3853871" lon="14.1276072"><ele>38.25</ele><time>2026-05-01T15:41:20.004Z</time></trkpt><trkpt lat="42.3854866" lon="14.1277191"><ele>36.0</ele><time>2026-05-01T15:41:21.004Z</time></trkpt><trkpt lat="42.3855893" lon="14.127826"><ele>36.0</ele><time>2026-05-01T15:41:22.004Z</time></trkpt><trkpt lat="42.3856955" lon="14.1279304"><ele>36.0</ele><time>2026-05-01T15:41:23.004Z</time></trkpt><trkpt lat="42.3857966" lon="14.1280293"><ele>36.0</ele><time>2026-05-01T15:41:24.004Z</time></trkpt><trkpt lat="42.3859056" lon="14.1281284"><ele>36.0</ele><time>2026-05-01T15:41:25.004Z</time></trkpt><trkpt lat="42.3860154" lon="14.128229"><ele>35.75</ele><time>2026-05-01T15:41:26.004Z</time></trkpt><trkpt lat="42.3861257" lon="14.1283292"><ele>35.5</ele><time>2026-05-01T15:41:27.004Z</time></trkpt><trkpt lat="42.3862307" lon="14.1284415"><ele>35.25</ele><time>2026-05-01T15:41:28.004Z</time></trkpt><trkpt lat="42.3863307" lon="14.1285718"><ele>35.0</ele><time>2026-05-01T15:41:29.004Z</time></trkpt><trkpt lat="42.3864197" lon="14.1287135"><ele>35.5</ele><time>2026-05-01T15:41:30.004Z</time></trkpt><trkpt lat="42.3865002" lon="14.1288596"><ele>36.0</ele><time>2026-05-01T15:41:31.004Z</time></trkpt><trkpt lat="42.3865782" lon="14.1289996"><ele>36.5</ele><time>2026-05-01T15:41:32.005Z</time></trkpt><trkpt lat="42.3866546" lon="14.1291259"><ele>37.0</ele><time>2026-05-01T15:41:33.004Z</time></trkpt><trkpt lat="42.386734" lon="14.1292469"><ele>36.0</ele><time>2026-05-01T15:41:34.004Z</time></trkpt><trkpt lat="42.3868141" lon="14.1293712"><ele>35.0</ele><time>2026-05-01T15:41:35.004Z</time></trkpt><trkpt lat="42.3869056" lon="14.12948"><ele>34.0</ele><time>2026-05-01T15:41:36.004Z</time></trkpt><trkpt lat="42.3869963" lon="14.1295831"><ele>33.0</ele><time>2026-05-01T15:41:37.004Z</time></trkpt><trkpt lat="42.3870908" lon="14.1296781"><ele>32.75</ele><time>2026-05-01T15:41:38.004Z</time></trkpt><trkpt lat="42.3871841" lon="14.1297574"><ele>32.5</ele><time>2026-05-01T15:41:39.004Z</time></trkpt><trkpt lat="42.3872756" lon="14.1298412"><ele>32.25</ele><time>2026-05-01T15:41:40.004Z</time></trkpt><trkpt lat="42.387376" lon="14.1299244"><ele>32.0</ele><time>2026-05-01T15:41:41.004Z</time></trkpt><trkpt lat="42.3874747" lon="14.1300141"><ele>32.0</ele><time>2026-05-01T15:41:42.004Z</time></trkpt><trkpt lat="42.3875648" lon="14.1301152"><ele>32.0</ele><time>2026-05-01T15:41:43.004Z</time></trkpt><trkpt lat="42.3876508" lon="14.1302009"><ele>32.0</ele><time>2026-05-01T15:41:44.004Z</time></trkpt><trkpt lat="42.3877289" lon="14.1302801"><ele>32.0</ele><time>2026-05-01T15:41:45.004Z</time></trkpt><trkpt lat="42.387808" lon="14.1303492"><ele>32.0</ele><time>2026-05-01T15:41:46.004Z</time></trkpt><trkpt lat="42.38788" lon="14.1304127"><ele>31.999999999999996</ele><time>2026-05-01T15:41:47.004Z</time></trkpt><trkpt lat="42.3879445" lon="14.1304664"><ele>32.0</ele><time>2026-05-01T15:41:48.004Z</time></trkpt><trkpt lat="42.3880057" lon="14.1304987"><ele>32.0</ele><time>2026-05-01T15:41:49.004Z</time></trkpt><trkpt lat="42.3880774" lon="14.1305297"><ele>32.0</ele><time>2026-05-01T15:41:50.004Z</time></trkpt><trkpt lat="42.3881561" lon="14.130569"><ele>31.999999999999996</ele><time>2026-05-01T15:41:51.004Z</time></trkpt><trkpt lat="42.3882393" lon="14.1306097"><ele>32.0</ele><time>2026-05-01T15:41:52.004Z</time></trkpt><trkpt lat="42.3883213" lon="14.1306535"><ele>32.0</ele><time>2026-05-01T15:41:53.004Z</time></trkpt><trkpt lat="42.3884123" lon="14.1307074"><ele>32.0</ele><time>2026-05-01T15:41:54.004Z</time></trkpt><trkpt lat="42.3885101" lon="14.1307612"><ele>32.0</ele><time>2026-05-01T15:41:55.004Z</time></trkpt><trkpt lat="42.3886181" lon="14.1308264"><ele>32.0</ele><time>2026-05-01T15:41:56.004Z</time></trkpt><trkpt lat="42.3887231" lon="14.1308935"><ele>32.0</ele><time>2026-05-01T15:41:57.004Z</time></trkpt><trkpt lat="42.3888194" lon="14.1309497"><ele>32.2</ele><time>2026-05-01T15:41:58.004Z</time></trkpt><trkpt lat="42.3889072" lon="14.13101"><ele>32.400000000000006</ele><time>2026-05-01T15:41:59.004Z</time></trkpt><trkpt lat="42.3889905" lon="14.1310699"><ele>32.599999999999994</ele><time>2026-05-01T15:42:00.004Z</time></trkpt><trkpt lat="42.3890654" lon="14.1311239"><ele>32.8</ele><time>2026-05-01T15:42:01.004Z</time></trkpt><trkpt lat="42.3891416" lon="14.131181"><ele>33.0</ele><time>2026-05-01T15:42:02.004Z</time></trkpt><trkpt lat="42.3892216" lon="14.1312437"><ele>33.0</ele><time>2026-05-01T15:42:03.004Z</time></trkpt><trkpt lat="42.3893047" lon="14.1313075"><ele>33.0</ele><time>2026-05-01T15:42:04.004Z</time></trkpt><trkpt lat="42.3893942" lon="14.1313772"><ele>33.0</ele><time>2026-05-01T15:42:05.004Z</time></trkpt><trkpt lat="42.38949" lon="14.1314555"><ele>33.0</ele><time>2026-05-01T15:42:06.004Z</time></trkpt><trkpt lat="42.3895932" lon="14.1315391"><ele>33.0</ele><time>2026-05-01T15:42:07.004Z</time></trkpt><trkpt lat="42.3896943" lon="14.1316281"><ele>32.5</ele><time>2026-05-01T15:42:08.004Z</time></trkpt><trkpt lat="42.3898003" lon="14.1317222"><ele>32.0</ele><time>2026-05-01T15:42:09.004Z</time></trkpt><trkpt lat="42.389906" lon="14.1318232"><ele>31.5</ele><time>2026-05-01T15:42:10.004Z</time></trkpt><trkpt lat="42.3900177" lon="14.1319225"><ele>31.0</ele><time>2026-05-01T15:42:11.004Z</time></trkpt><trkpt lat="42.3901284" lon="14.1320178"><ele>31.0</ele><time>2026-05-01T15:42:12.004Z</time></trkpt><trkpt lat="42.3902402" lon="14.1321132"><ele>31.0</ele><time>2026-05-01T15:42:13.004Z</time></trkpt><trkpt lat="42.3903554" lon="14.1322145"><ele>31.0</ele><time>2026-05-01T15:42:14.004Z</time></trkpt><trkpt lat="42.390473" lon="14.1323185"><ele>31.0</ele><time>2026-05-01T15:42:15.004Z</time></trkpt><trkpt lat="42.3906024" lon="14.1324257"><ele>30.666666666666668</ele><time>2026-05-01T15:42:16.004Z</time></trkpt><trkpt lat="42.3907317" lon="14.1325437"><ele>30.333333333333336</ele><time>2026-05-01T15:42:17.004Z</time></trkpt><trkpt lat="42.3908705" lon="14.1326668"><ele>30.0</ele><time>2026-05-01T15:42:18.004Z</time></trkpt><trkpt lat="42.3910128" lon="14.1327977"><ele>30.0</ele><time>2026-05-01T15:42:19.004Z</time></trkpt><trkpt lat="42.3911557" lon="14.1329211"><ele>30.0</ele><time>2026-05-01T15:42:20.004Z</time></trkpt><trkpt lat="42.3913018" lon="14.13305"><ele>30.0</ele><time>2026-05-01T15:42:21.004Z</time></trkpt><trkpt lat="42.3914449" lon="14.1331774"><ele>30.0</ele><time>2026-05-01T15:42:22.004Z</time></trkpt><trkpt lat="42.3915904" lon="14.1333083"><ele>30.0</ele><time>2026-05-01T15:42:23.004Z</time></trkpt><trkpt lat="42.3917355" lon="14.1334453"><ele>30.0</ele><time>2026-05-01T15:42:24.004Z</time></trkpt><trkpt lat="42.3918861" lon="14.1335791"><ele>30.0</ele><time>2026-05-01T15:42:25.004Z</time></trkpt><trkpt lat="42.3920309" lon="14.1337178"><ele>30.0</ele><time>2026-05-01T15:42:26.004Z</time></trkpt><trkpt lat="42.3921705" lon="14.1338536"><ele>30.0</ele><time>2026-05-01T15:42:27.004Z</time></trkpt><trkpt lat="42.3930382" lon="14.1347053"><ele>30.0</ele><time>2026-05-01T15:42:33.004Z</time></trkpt><trkpt lat="42.3931746" lon="14.1347678"><ele>30.0</ele><time>2026-05-01T15:42:34.004Z</time></trkpt><trkpt lat="42.3933022" lon="14.1348348"><ele>30.0</ele><time>2026-05-01T15:42:35.004Z</time></trkpt><trkpt lat="42.3934267" lon="14.1349576"><ele>30.0</ele><time>2026-05-01T15:42:36.004Z</time></trkpt><trkpt lat="42.3935569" lon="14.1350704"><ele>30.0</ele><time>2026-05-01T15:42:37.004Z</time></trkpt><trkpt lat="42.3936869" lon="14.1351846"><ele>30.0</ele><time>2026-05-01T15:42:38.004Z</time></trkpt><trkpt lat="42.3938059" lon="14.1352953"><ele>30.0</ele><time>2026-05-01T15:42:39.004Z</time></trkpt><trkpt lat="42.3939294" lon="14.1354106"><ele>30.0</ele><time>2026-05-01T15:42:40.004Z</time></trkpt><trkpt lat="42.3940613" lon="14.1355232"><ele>30.0</ele><time>2026-05-01T15:42:41.004Z</time></trkpt><trkpt lat="42.3941905" lon="14.1356334"><ele>30.0</ele><time>2026-05-01T15:42:42.004Z</time></trkpt><trkpt lat="42.394313" lon="14.135737"><ele>30.0</ele><time>2026-05-01T15:42:43.004Z</time></trkpt><trkpt lat="42.3944277" lon="14.1358377"><ele>30.0</ele><time>2026-05-01T15:42:44.004Z</time></trkpt><trkpt lat="42.3945369" lon="14.1359414"><ele>29.75</ele><time>2026-05-01T15:42:45.004Z</time></trkpt><trkpt lat="42.394652" lon="14.13605"><ele>29.5</ele><time>2026-05-01T15:42:46.004Z</time></trkpt><trkpt lat="42.3947661" lon="14.1361584"><ele>29.25</ele><time>2026-05-01T15:42:47.004Z</time></trkpt><trkpt lat="42.394887" lon="14.1362727"><ele>29.0</ele><time>2026-05-01T15:42:48.004Z</time></trkpt><trkpt lat="42.395008" lon="14.1363795"><ele>29.0</ele><time>2026-05-01T15:42:49.004Z</time></trkpt><trkpt lat="42.3951342" lon="14.1364939"><ele>29.0</ele><time>2026-05-01T15:42:50.004Z</time></trkpt><trkpt lat="42.3952596" lon="14.1366012"><ele>29.0</ele><time>2026-05-01T15:42:51.004Z</time></trkpt><trkpt lat="42.3953765" lon="14.1367096"><ele>29.0</ele><time>2026-05-01T15:42:52.004Z</time></trkpt><trkpt lat="42.3954892" lon="14.1368098"><ele>28.25</ele><time>2026-05-01T15:42:53.004Z</time></trkpt><trkpt lat="42.3956032" lon="14.1369087"><ele>27.5</ele><time>2026-05-01T15:42:54.004Z</time></trkpt><trkpt lat="42.3957177" lon="14.1370051"><ele>26.75</ele><time>2026-05-01T15:42:55.004Z</time></trkpt><trkpt lat="42.3958296" lon="14.137106"><ele>26.0</ele><time>2026-05-01T15:42:56.004Z</time></trkpt><trkpt lat="42.3959429" lon="14.1372084"><ele>26.0</ele><time>2026-05-01T15:42:57.004Z</time></trkpt><trkpt lat="42.3960557" lon="14.1373097"><ele>26.0</ele><time>2026-05-01T15:42:58.004Z</time></trkpt><trkpt lat="42.3961639" lon="14.1374102"><ele>26.0</ele><time>2026-05-01T15:42:59.004Z</time></trkpt><trkpt lat="42.3962715" lon="14.1375107"><ele>26.0</ele><time>2026-05-01T15:43:00.004Z</time></trkpt><trkpt lat="42.3963813" lon="14.1376082"><ele>26.25</ele><time>2026-05-01T15:43:01.004Z</time></trkpt><trkpt lat="42.3964973" lon="14.137711"><ele>26.5</ele><time>2026-05-01T15:43:02.004Z</time></trkpt><trkpt lat="42.3966198" lon="14.1378199"><ele>26.75</ele><time>2026-05-01T15:43:03.004Z</time></trkpt><trkpt lat="42.3967475" lon="14.137926"><ele>27.0</ele><time>2026-05-01T15:43:04.004Z</time></trkpt><trkpt lat="42.396874" lon="14.1380355"><ele>27.0</ele><time>2026-05-01T15:43:05.004Z</time></trkpt><trkpt lat="42.3970012" lon="14.1381504"><ele>27.0</ele><time>2026-05-01T15:43:06.004Z</time></trkpt><trkpt lat="42.3971303" lon="14.138257"><ele>27.0</ele><time>2026-05-01T15:43:07.004Z</time></trkpt><trkpt lat="42.397255" lon="14.1383682"><ele>26.666666666666664</ele><time>2026-05-01T15:43:08.004Z</time></trkpt><trkpt lat="42.3973825" lon="14.1384851"><ele>26.333333333333332</ele><time>2026-05-01T15:43:09.004Z</time></trkpt><trkpt lat="42.3975067" lon="14.1386"><ele>26.0</ele><time>2026-05-01T15:43:10.004Z</time></trkpt><trkpt lat="42.3976262" lon="14.1387118"><ele>26.0</ele><time>2026-05-01T15:43:11.004Z</time></trkpt><trkpt lat="42.3977429" lon="14.1388185"><ele>26.0</ele><time>2026-05-01T15:43:12.004Z</time></trkpt><trkpt lat="42.3978565" lon="14.1389273"><ele>26.0</ele><time>2026-05-01T15:43:13.004Z</time></trkpt><trkpt lat="42.3979721" lon="14.139029"><ele>26.0</ele><time>2026-05-01T15:43:14.004Z</time></trkpt><trkpt lat="42.398087" lon="14.1391311"><ele>26.0</ele><time>2026-05-01T15:43:15.004Z</time></trkpt><trkpt lat="42.3981978" lon="14.1392384"><ele>26.0</ele><time>2026-05-01T15:43:16.004Z</time></trkpt><trkpt lat="42.3983077" lon="14.1393434"><ele>26.0</ele><time>2026-05-01T15:43:17.004Z</time></trkpt><trkpt lat="42.3984225" lon="14.1394437"><ele>26.0</ele><time>2026-05-01T15:43:18.004Z</time></trkpt><trkpt lat="42.3985307" lon="14.1395346"><ele>26.0</ele><time>2026-05-01T15:43:19.004Z</time></trkpt><trkpt lat="42.3986405" lon="14.1396258"><ele>26.0</ele><time>2026-05-01T15:43:20.004Z</time></trkpt><trkpt lat="42.3987473" lon="14.139726"><ele>26.0</ele><time>2026-05-01T15:43:21.004Z</time></trkpt><trkpt lat="42.3988558" lon="14.1398258"><ele>26.0</ele><time>2026-05-01T15:43:22.004Z</time></trkpt><trkpt lat="42.3989635" lon="14.1399304"><ele>25.75</ele><time>2026-05-01T15:43:23.004Z</time></trkpt><trkpt lat="42.3990744" lon="14.1400296"><ele>25.5</ele><time>2026-05-01T15:43:24.004Z</time></trkpt><trkpt lat="42.3991874" lon="14.1401294"><ele>25.25</ele><time>2026-05-01T15:43:25.004Z</time></trkpt><trkpt lat="42.3993014" lon="14.1402318"><ele>25.0</ele><time>2026-05-01T15:43:26.004Z</time></trkpt><trkpt lat="42.3994171" lon="14.1403267"><ele>25.0</ele><time>2026-05-01T15:43:27.004Z</time></trkpt><trkpt lat="42.3995275" lon="14.1404188"><ele>25.0</ele><time>2026-05-01T15:43:28.004Z</time></trkpt><trkpt lat="42.3996376" lon="14.1405251"><ele>25.0</ele><time>2026-05-01T15:43:29.004Z</time></trkpt><trkpt lat="42.3997507" lon="14.1406339"><ele>25.0</ele><time>2026-05-01T15:43:30.004Z</time></trkpt><trkpt lat="42.399864" lon="14.1407368"><ele>25.25</ele><time>2026-05-01T15:43:31.004Z</time></trkpt><trkpt lat="42.3999778" lon="14.1408395"><ele>25.5</ele><time>2026-05-01T15:43:32.004Z</time></trkpt><trkpt lat="42.4000967" lon="14.1409437"><ele>25.75</ele><time>2026-05-01T15:43:33.004Z</time></trkpt><trkpt lat="42.4002157" lon="14.141051"><ele>26.0</ele><time>2026-05-01T15:43:34.004Z</time></trkpt><trkpt lat="42.4003353" lon="14.1411611"><ele>26.0</ele><time>2026-05-01T15:43:35.004Z</time></trkpt><trkpt lat="42.4004578" lon="14.1412708"><ele>26.0</ele><time>2026-05-01T15:43:36.004Z</time></trkpt><trkpt lat="42.400585" lon="14.1413764"><ele>26.0</ele><time>2026-05-01T15:43:37.004Z</time></trkpt><trkpt lat="42.4007158" lon="14.1414826"><ele>26.0</ele><time>2026-05-01T15:43:38.004Z</time></trkpt><trkpt lat="42.4008487" lon="14.1415976"><ele>25.666666666666664</ele><time>2026-05-01T15:43:39.004Z</time></trkpt><trkpt lat="42.400984" lon="14.1417221"><ele>25.333333333333336</ele><time>2026-05-01T15:43:40.004Z</time></trkpt><trkpt lat="42.401127" lon="14.1418485"><ele>25.0</ele><time>2026-05-01T15:43:41.004Z</time></trkpt><trkpt lat="42.401273" lon="14.1419737"><ele>25.0</ele><time>2026-05-01T15:43:42.004Z</time></trkpt><trkpt lat="42.4014215" lon="14.1421008"><ele>25.0</ele><time>2026-05-01T15:43:43.004Z</time></trkpt><trkpt lat="42.4015687" lon="14.1422313"><ele>25.0</ele><time>2026-05-01T15:43:44.004Z</time></trkpt><trkpt lat="42.4017138" lon="14.142366"><ele>24.333333333333336</ele><time>2026-05-01T15:43:45.004Z</time></trkpt><trkpt lat="42.4018539" lon="14.1424991"><ele>23.666666666666668</ele><time>2026-05-01T15:43:46.004Z</time></trkpt><trkpt lat="42.401996" lon="14.1426373"><ele>23.0</ele><time>2026-05-01T15:43:47.004Z</time></trkpt><trkpt lat="42.402147" lon="14.1427672"><ele>23.333333333333336</ele><time>2026-05-01T15:43:48.004Z</time></trkpt><trkpt lat="42.4022982" lon="14.1428946"><ele>23.666666666666668</ele><time>2026-05-01T15:43:49.004Z</time></trkpt><trkpt lat="42.4024491" lon="14.1430215"><ele>24.0</ele><time>2026-05-01T15:43:50.004Z</time></trkpt><trkpt lat="42.4026021" lon="14.1431494"><ele>24.0</ele><time>2026-05-01T15:43:51.004Z</time></trkpt><trkpt lat="42.4027495" lon="14.143275"><ele>24.0</ele><time>2026-05-01T15:43:52.004Z</time></trkpt><trkpt lat="42.4028922" lon="14.1434007"><ele>24.0</ele><time>2026-05-01T15:43:53.004Z</time></trkpt><trkpt lat="42.403031" lon="14.1435279"><ele>24.0</ele><time>2026-05-01T15:43:54.004Z</time></trkpt><trkpt lat="42.4031722" lon="14.1436534"><ele>24.0</ele><time>2026-05-01T15:43:55.004Z</time></trkpt><trkpt lat="42.4033133" lon="14.1437781"><ele>24.0</ele><time>2026-05-01T15:43:56.004Z</time></trkpt><trkpt lat="42.4034579" lon="14.1439114"><ele>24.0</ele><time>2026-05-01T15:43:57.004Z</time></trkpt><trkpt lat="42.4036013" lon="14.1440457"><ele>24.0</ele><time>2026-05-01T15:43:58.004Z</time></trkpt><trkpt lat="42.4037477" lon="14.1441784"><ele>24.0</ele><time>2026-05-01T15:43:59.004Z</time></trkpt><trkpt lat="42.4038935" lon="14.1443062"><ele>24.333333333333336</ele><time>2026-05-01T15:44:00.004Z</time></trkpt><trkpt lat="42.4040351" lon="14.1444277"><ele>24.666666666666668</ele><time>2026-05-01T15:44:01.004Z</time></trkpt><trkpt lat="42.4041786" lon="14.1445553"><ele>25.0</ele><time>2026-05-01T15:44:02.004Z</time></trkpt><trkpt lat="42.404321" lon="14.1446904"><ele>25.0</ele><time>2026-05-01T15:44:03.004Z</time></trkpt><trkpt lat="42.4044628" lon="14.1448209"><ele>25.0</ele><time>2026-05-01T15:44:04.004Z</time></trkpt><trkpt lat="42.4046069" lon="14.1449463"><ele>25.0</ele><time>2026-05-01T15:44:05.004Z</time></trkpt><trkpt lat="42.4047474" lon="14.1450776"><ele>24.333333333333336</ele><time>2026-05-01T15:44:06.004Z</time></trkpt><trkpt lat="42.4048882" lon="14.1452081"><ele>23.666666666666668</ele><time>2026-05-01T15:44:07.004Z</time></trkpt><trkpt lat="42.4050248" lon="14.1453335"><ele>23.0</ele><time>2026-05-01T15:44:08.004Z</time></trkpt><trkpt lat="42.4051477" lon="14.145447"><ele>23.0</ele><time>2026-05-01T15:44:09.004Z</time></trkpt><trkpt lat="42.4052536" lon="14.1455445"><ele>23.0</ele><time>2026-05-01T15:44:10.004Z</time></trkpt><trkpt lat="42.4053406" lon="14.1456269"><ele>23.0</ele><time>2026-05-01T15:44:11.004Z</time></trkpt><trkpt lat="42.4053971" lon="14.1456968"><ele>23.0</ele><time>2026-05-01T15:44:12.004Z</time></trkpt><trkpt lat="42.4054396" lon="14.1458374"><ele>23.0</ele><time>2026-05-01T15:44:14.004Z</time></trkpt><trkpt lat="42.4054404" lon="14.1459897"><ele>22.799999999999997</ele><time>2026-05-01T15:44:16.004Z</time></trkpt><trkpt lat="42.4055083" lon="14.1460973"><ele>22.6</ele><time>2026-05-01T15:44:18.004Z</time></trkpt><trkpt lat="42.4056247" lon="14.1460857"><ele>22.4</ele><time>2026-05-01T15:44:20.004Z</time></trkpt><trkpt lat="42.4056976" lon="14.1460581"><ele>22.200000000000003</ele><time>2026-05-01T15:44:21.004Z</time></trkpt><trkpt lat="42.4057733" lon="14.146063"><ele>22.0</ele><time>2026-05-01T15:44:22.004Z</time></trkpt><trkpt lat="42.4058675" lon="14.1460962"><ele>22.0</ele><time>2026-05-01T15:44:23.004Z</time></trkpt><trkpt lat="42.405953" lon="14.1461749"><ele>22.0</ele><time>2026-05-01T15:44:24.004Z</time></trkpt><trkpt lat="42.406047" lon="14.1462595"><ele>22.0</ele><time>2026-05-01T15:44:25.004Z</time></trkpt><trkpt lat="42.4061428" lon="14.1463536"><ele>22.0</ele><time>2026-05-01T15:44:26.004Z</time></trkpt><trkpt lat="42.4062599" lon="14.1464563"><ele>22.0</ele><time>2026-05-01T15:44:27.004Z</time></trkpt><trkpt lat="42.4063815" lon="14.1465545"><ele>22.0</ele><time>2026-05-01T15:44:28.004Z</time></trkpt><trkpt lat="42.4064921" lon="14.1466466"><ele>22.0</ele><time>2026-05-01T15:44:29.004Z</time></trkpt><trkpt lat="42.406612" lon="14.1467373"><ele>22.0</ele><time>2026-05-01T15:44:30.004Z</time></trkpt><trkpt lat="42.4067391" lon="14.1468234"><ele>22.0</ele><time>2026-05-01T15:44:31.004Z</time></trkpt><trkpt lat="42.4068749" lon="14.146897"><ele>22.0</ele><time>2026-05-01T15:44:32.004Z</time></trkpt><trkpt lat="42.4070175" lon="14.1469678"><ele>22.0</ele><time>2026-05-01T15:44:33.004Z</time></trkpt><trkpt lat="42.4071633" lon="14.1470269"><ele>20.666666666666664</ele><time>2026-05-01T15:44:34.004Z</time></trkpt><trkpt lat="42.4073189" lon="14.1470725"><ele>19.333333333333332</ele><time>2026-05-01T15:44:35.004Z</time></trkpt><trkpt lat="42.4074843" lon="14.1471127"><ele>18.0</ele><time>2026-05-01T15:44:36.004Z</time></trkpt><trkpt lat="42.4076482" lon="14.1471441"><ele>18.0</ele><time>2026-05-01T15:44:37.004Z</time></trkpt><trkpt lat="42.40782" lon="14.1471699"><ele>18.0</ele><time>2026-05-01T15:44:38.004Z</time></trkpt><trkpt lat="42.4079877" lon="14.1472051"><ele>18.0</ele><time>2026-05-01T15:44:39.004Z</time></trkpt><trkpt lat="42.4081541" lon="14.1472514"><ele>17.666666666666668</ele><time>2026-05-01T15:44:40.004Z</time></trkpt><trkpt lat="42.4083224" lon="14.1473068"><ele>17.333333333333336</ele><time>2026-05-01T15:44:41.004Z</time></trkpt><trkpt lat="42.4084828" lon="14.1473817"><ele>17.0</ele><time>2026-05-01T15:44:42.004Z</time></trkpt><trkpt lat="42.4086425" lon="14.1474699"><ele>17.0</ele><time>2026-05-01T15:44:43.004Z</time></trkpt><trkpt lat="42.4087991" lon="14.1475684"><ele>17.0</ele><time>2026-05-01T15:44:44.004Z</time></trkpt><trkpt lat="42.4089532" lon="14.1476756"><ele>17.0</ele><time>2026-05-01T15:44:45.004Z</time></trkpt><trkpt lat="42.4091044" lon="14.1477933"><ele>17.0</ele><time>2026-05-01T15:44:46.004Z</time></trkpt><trkpt lat="42.4092622" lon="14.1479105"><ele>17.0</ele><time>2026-05-01T15:44:47.004Z</time></trkpt><trkpt lat="42.4094204" lon="14.148032"><ele>17.0</ele><time>2026-05-01T15:44:48.004Z</time></trkpt><trkpt lat="42.4095793" lon="14.1481605"><ele>17.666666666666668</ele><time>2026-05-01T15:44:49.004Z</time></trkpt><trkpt lat="42.4097428" lon="14.148288"><ele>18.333333333333332</ele><time>2026-05-01T15:44:50.004Z</time></trkpt><trkpt lat="42.4099078" lon="14.1484141"><ele>19.0</ele><time>2026-05-01T15:44:51.004Z</time></trkpt><trkpt lat="42.4100691" lon="14.1485406"><ele>19.0</ele><time>2026-05-01T15:44:52.004Z</time></trkpt><trkpt lat="42.4102255" lon="14.1486604"><ele>19.0</ele><time>2026-05-01T15:44:53.004Z</time></trkpt><trkpt lat="42.4103747" lon="14.1487861"><ele>19.0</ele><time>2026-05-01T15:44:54.004Z</time></trkpt><trkpt lat="42.4105275" lon="14.14891"><ele>19.0</ele><time>2026-05-01T15:44:55.004Z</time></trkpt><trkpt lat="42.4106788" lon="14.1490354"><ele>19.0</ele><time>2026-05-01T15:44:56.004Z</time></trkpt><trkpt lat="42.4108324" lon="14.1491555"><ele>19.0</ele><time>2026-05-01T15:44:57.004Z</time></trkpt><trkpt lat="42.4109883" lon="14.1492814"><ele>19.666666666666664</ele><time>2026-05-01T15:44:58.004Z</time></trkpt><trkpt lat="42.4111478" lon="14.1494005"><ele>20.333333333333332</ele><time>2026-05-01T15:44:59.004Z</time></trkpt><trkpt lat="42.411306" lon="14.1495241"><ele>21.0</ele><time>2026-05-01T15:45:00.004Z</time></trkpt><trkpt lat="42.4114644" lon="14.149649"><ele>21.0</ele><time>2026-05-01T15:45:01.004Z</time></trkpt><trkpt lat="42.4116219" lon="14.1497733"><ele>21.0</ele><time>2026-05-01T15:45:02.004Z</time></trkpt><trkpt lat="42.4117764" lon="14.1498953"><ele>21.0</ele><time>2026-05-01T15:45:03.004Z</time></trkpt><trkpt lat="42.4119307" lon="14.1500155"><ele>20.0</ele><time>2026-05-01T15:45:04.004Z</time></trkpt><trkpt lat="42.41208" lon="14.1501316"><ele>19.0</ele><time>2026-05-01T15:45:05.004Z</time></trkpt><trkpt lat="42.4122255" lon="14.1502518"><ele>18.0</ele><time>2026-05-01T15:45:06.004Z</time></trkpt><trkpt lat="42.4123668" lon="14.1503618"><ele>17.0</ele><time>2026-05-01T15:45:07.004Z</time></trkpt><trkpt lat="42.4125069" lon="14.1504715"><ele>16.0</ele><time>2026-05-01T15:45:08.004Z</time></trkpt><trkpt lat="42.412643" lon="14.150584"><ele>15.0</ele><time>2026-05-01T15:45:09.004Z</time></trkpt><trkpt lat="42.4127815" lon="14.1507002"><ele>15.0</ele><time>2026-05-01T15:45:10.004Z</time></trkpt><trkpt lat="42.4129189" lon="14.1508243"><ele>15.0</ele><time>2026-05-01T15:45:11.004Z</time></trkpt><trkpt lat="42.4130546" lon="14.1509613"><ele>15.0</ele><time>2026-05-01T15:45:12.004Z</time></trkpt><trkpt lat="42.4131835" lon="14.1511018"><ele>15.0</ele><time>2026-05-01T15:45:13.004Z</time></trkpt><trkpt lat="42.4133142" lon="14.1512438"><ele>15.0</ele><time>2026-05-01T15:45:14.004Z</time></trkpt><trkpt lat="42.4134466" lon="14.1513769"><ele>15.0</ele><time>2026-05-01T15:45:15.004Z</time></trkpt><trkpt lat="42.4135818" lon="14.1515031"><ele>15.333333333333332</ele><time>2026-05-01T15:45:16.004Z</time></trkpt><trkpt lat="42.4137138" lon="14.1516167"><ele>15.666666666666666</ele><time>2026-05-01T15:45:17.004Z</time></trkpt><trkpt lat="42.4138512" lon="14.1517127"><ele>16.0</ele><time>2026-05-01T15:45:18.004Z</time></trkpt><trkpt lat="42.413986" lon="14.1517924"><ele>16.0</ele><time>2026-05-01T15:45:19.004Z</time></trkpt><trkpt lat="42.4141227" lon="14.1518591"><ele>16.0</ele><time>2026-05-01T15:45:20.004Z</time></trkpt><trkpt lat="42.414255" lon="14.1519137"><ele>16.0</ele><time>2026-05-01T15:45:21.004Z</time></trkpt><trkpt lat="42.4143931" lon="14.1519617"><ele>16.0</ele><time>2026-05-01T15:45:22.004Z</time></trkpt><trkpt lat="42.4145338" lon="14.1519993"><ele>15.75</ele><time>2026-05-01T15:45:23.004Z</time></trkpt><trkpt lat="42.4146768" lon="14.152029"><ele>15.5</ele><time>2026-05-01T15:45:24.004Z</time></trkpt><trkpt lat="42.4148181" lon="14.1520486"><ele>15.25</ele><time>2026-05-01T15:45:25.004Z</time></trkpt><trkpt lat="42.4149566" lon="14.1520641"><ele>15.0</ele><time>2026-05-01T15:45:26.004Z</time></trkpt><trkpt lat="42.4150907" lon="14.1520763"><ele>15.0</ele><time>2026-05-01T15:45:27.004Z</time></trkpt><trkpt lat="42.4152312" lon="14.152083"><ele>15.0</ele><time>2026-05-01T15:45:28.004Z</time></trkpt><trkpt lat="42.415369" lon="14.1520854"><ele>15.0</ele><time>2026-05-01T15:45:29.004Z</time></trkpt><trkpt lat="42.4155118" lon="14.1521048"><ele>15.0</ele><time>2026-05-01T15:45:30.004Z</time></trkpt><trkpt lat="42.4156368" lon="14.1521243"><ele>15.25</ele><time>2026-05-01T15:45:31.004Z</time></trkpt><trkpt lat="42.4157656" lon="14.152147"><ele>15.5</ele><time>2026-05-01T15:45:32.004Z</time></trkpt><trkpt lat="42.4158985" lon="14.1521816"><ele>15.75</ele><time>2026-05-01T15:45:33.004Z</time></trkpt><trkpt lat="42.4160286" lon="14.1522355"><ele>16.0</ele><time>2026-05-01T15:45:34.004Z</time></trkpt><trkpt lat="42.4161574" lon="14.1523117"><ele>16.25</ele><time>2026-05-01T15:45:35.004Z</time></trkpt><trkpt lat="42.4162811" lon="14.1524032"><ele>16.5</ele><time>2026-05-01T15:45:36.004Z</time></trkpt><trkpt lat="42.4163922" lon="14.1525237"><ele>16.75</ele><time>2026-05-01T15:45:37.004Z</time></trkpt><trkpt lat="42.416489" lon="14.1526515"><ele>17.0</ele><time>2026-05-01T15:45:38.004Z</time></trkpt><trkpt lat="42.416593" lon="14.1527796"><ele>17.5</ele><time>2026-05-01T15:45:39.004Z</time></trkpt><trkpt lat="42.4166937" lon="14.1529167"><ele>18.0</ele><time>2026-05-01T15:45:40.004Z</time></trkpt><trkpt lat="42.4167991" lon="14.1530567"><ele>18.5</ele><time>2026-05-01T15:45:41.004Z</time></trkpt><trkpt lat="42.4169037" lon="14.1532018"><ele>19.0</ele><time>2026-05-01T15:45:42.004Z</time></trkpt><trkpt lat="42.417013" lon="14.1533484"><ele>19.0</ele><time>2026-05-01T15:45:43.004Z</time></trkpt><trkpt lat="42.4171253" lon="14.1534986"><ele>19.0</ele><time>2026-05-01T15:45:44.004Z</time></trkpt><trkpt lat="42.417237" lon="14.1536504"><ele>19.0</ele><time>2026-05-01T15:45:45.004Z</time></trkpt><trkpt lat="42.4173513" lon="14.1538008"><ele>19.0</ele><time>2026-05-01T15:45:46.004Z</time></trkpt><trkpt lat="42.4174636" lon="14.1539543"><ele>19.0</ele><time>2026-05-01T15:45:47.004Z</time></trkpt><trkpt lat="42.4175747" lon="14.1541039"><ele>19.0</ele><time>2026-05-01T15:45:48.004Z</time></trkpt><trkpt lat="42.4176839" lon="14.1542498"><ele>19.0</ele><time>2026-05-01T15:45:49.004Z</time></trkpt><trkpt lat="42.4177922" lon="14.1543894"><ele>19.0</ele><time>2026-05-01T15:45:50.004Z</time></trkpt><trkpt lat="42.417903" lon="14.154536"><ele>19.0</ele><time>2026-05-01T15:45:51.004Z</time></trkpt><trkpt lat="42.4180119" lon="14.1546804"><ele>19.0</ele><time>2026-05-01T15:45:52.004Z</time></trkpt><trkpt lat="42.4181254" lon="14.1548417"><ele>19.0</ele><time>2026-05-01T15:45:53.004Z</time></trkpt><trkpt lat="42.4182401" lon="14.1550049"><ele>19.0</ele><time>2026-05-01T15:45:54.004Z</time></trkpt><trkpt lat="42.4183578" lon="14.1551724"><ele>18.333333333333332</ele><time>2026-05-01T15:45:55.004Z</time></trkpt><trkpt lat="42.4184813" lon="14.1553396"><ele>17.666666666666668</ele><time>2026-05-01T15:45:56.004Z</time></trkpt><trkpt lat="42.41861" lon="14.1555056"><ele>17.0</ele><time>2026-05-01T15:45:57.004Z</time></trkpt><trkpt lat="42.4187325" lon="14.1556808"><ele>19.0</ele><time>2026-05-01T15:45:58.004Z</time></trkpt><trkpt lat="42.4188609" lon="14.1558643"><ele>21.0</ele><time>2026-05-01T15:45:59.004Z</time></trkpt><trkpt lat="42.418987" lon="14.1560461"><ele>23.0</ele><time>2026-05-01T15:46:00.004Z</time></trkpt><trkpt lat="42.419114" lon="14.1562119"><ele>23.0</ele><time>2026-05-01T15:46:01.004Z</time></trkpt><trkpt lat="42.4192529" lon="14.1563397"><ele>23.0</ele><time>2026-05-01T15:46:02.004Z</time></trkpt><trkpt lat="42.419402" lon="14.1564256"><ele>23.0</ele><time>2026-05-01T15:46:03.004Z</time></trkpt><trkpt lat="42.4195641" lon="14.1564846"><ele>22.0</ele><time>2026-05-01T15:46:04.004Z</time></trkpt><trkpt lat="42.4197294" lon="14.1565446"><ele>21.0</ele><time>2026-05-01T15:46:05.004Z</time></trkpt><trkpt lat="42.4198925" lon="14.1566139"><ele>20.0</ele><time>2026-05-01T15:46:06.004Z</time></trkpt><trkpt lat="42.420054" lon="14.1566825"><ele>20.0</ele><time>2026-05-01T15:46:07.004Z</time></trkpt><trkpt lat="42.4202226" lon="14.156751"><ele>20.0</ele><time>2026-05-01T15:46:08.004Z</time></trkpt><trkpt lat="42.4203732" lon="14.1568228"><ele>20.0</ele><time>2026-05-01T15:46:09.004Z</time></trkpt><trkpt lat="42.4205225" lon="14.1568873"><ele>20.25</ele><time>2026-05-01T15:46:10.004Z</time></trkpt><trkpt lat="42.4206612" lon="14.1569436"><ele>20.5</ele><time>2026-05-01T15:46:11.004Z</time></trkpt><trkpt lat="42.4207964" lon="14.1570002"><ele>20.75</ele><time>2026-05-01T15:46:12.004Z</time></trkpt><trkpt lat="42.4209252" lon="14.1570588"><ele>21.0</ele><time>2026-05-01T15:46:13.004Z</time></trkpt><trkpt lat="42.4210444" lon="14.1571123"><ele>21.0</ele><time>2026-05-01T15:46:14.004Z</time></trkpt><trkpt lat="42.4211624" lon="14.1571598"><ele>21.0</ele><time>2026-05-01T15:46:15.004Z</time></trkpt><trkpt lat="42.4212669" lon="14.1572088"><ele>21.0</ele><time>2026-05-01T15:46:16.004Z</time></trkpt><trkpt lat="42.421374" lon="14.1572552"><ele>21.0</ele><time>2026-05-01T15:46:17.004Z</time></trkpt><trkpt lat="42.4214769" lon="14.1572977"><ele>21.4</ele><time>2026-05-01T15:46:18.004Z</time></trkpt><trkpt lat="42.421582" lon="14.1573313"><ele>21.8</ele><time>2026-05-01T15:46:19.004Z</time></trkpt><trkpt lat="42.4216848" lon="14.1573764"><ele>22.2</ele><time>2026-05-01T15:46:20.004Z</time></trkpt><trkpt lat="42.4217804" lon="14.1574137"><ele>22.599999999999998</ele><time>2026-05-01T15:46:21.004Z</time></trkpt><trkpt lat="42.4218715" lon="14.1574339"><ele>23.0</ele><time>2026-05-01T15:46:22.004Z</time></trkpt><trkpt lat="42.4219535" lon="14.1574303"><ele>22.5</ele><time>2026-05-01T15:46:23.004Z</time></trkpt><trkpt lat="42.42202" lon="14.1574291"><ele>22.0</ele><time>2026-05-01T15:46:24.004Z</time></trkpt><trkpt lat="42.4220959" lon="14.1574278"><ele>21.5</ele><time>2026-05-01T15:46:26.004Z</time></trkpt><trkpt lat="42.4221645" lon="14.1574309"><ele>21.0</ele><time>2026-05-01T15:46:30.004Z</time></trkpt><trkpt lat="42.4222354" lon="14.1574463"><ele>20.5</ele><time>2026-05-01T15:46:37.004Z</time></trkpt><trkpt lat="42.4223129" lon="14.15751"><ele>20.0</ele><time>2026-05-01T15:46:39.004Z</time></trkpt><trkpt lat="42.4224225" lon="14.1575623"><ele>20.0</ele><time>2026-05-01T15:46:41.004Z</time></trkpt><trkpt lat="42.4225338" lon="14.1575877"><ele>20.0</ele><time>2026-05-01T15:46:43.004Z</time></trkpt><trkpt lat="42.4225889" lon="14.1576297"><ele>20.0</ele><time>2026-05-01T15:46:44.004Z</time></trkpt><trkpt lat="42.422645" lon="14.1576882"><ele>20.0</ele><time>2026-05-01T15:46:45.004Z</time></trkpt><trkpt lat="42.4227057" lon="14.1577439"><ele>20.0</ele><time>2026-05-01T15:46:46.004Z</time></trkpt><trkpt lat="42.4227774" lon="14.1577919"><ele>20.0</ele><time>2026-05-01T15:46:47.004Z</time></trkpt><trkpt lat="42.4228604" lon="14.1578322"><ele>20.0</ele><time>2026-05-01T15:46:48.004Z</time></trkpt><trkpt lat="42.4229563" lon="14.1578658"><ele>20.0</ele><time>2026-05-01T15:46:49.004Z</time></trkpt><trkpt lat="42.4230471" lon="14.1579063"><ele>20.0</ele><time>2026-05-01T15:46:50.004Z</time></trkpt><trkpt lat="42.423135" lon="14.1579524"><ele>20.0</ele><time>2026-05-01T15:46:51.004Z</time></trkpt><trkpt lat="42.4232251" lon="14.157996"><ele>20.0</ele><time>2026-05-01T15:46:52.004Z</time></trkpt><trkpt lat="42.4233154" lon="14.1580318"><ele>19.666666666666668</ele><time>2026-05-01T15:46:53.004Z</time></trkpt><trkpt lat="42.4234051" lon="14.1580658"><ele>19.333333333333336</ele><time>2026-05-01T15:46:54.004Z</time></trkpt><trkpt lat="42.4234938" lon="14.1580941"><ele>19.0</ele><time>2026-05-01T15:46:55.004Z</time></trkpt><trkpt lat="42.4235786" lon="14.1581223"><ele>18.666666666666668</ele><time>2026-05-01T15:46:56.004Z</time></trkpt><trkpt lat="42.4236564" lon="14.158156"><ele>18.333333333333332</ele><time>2026-05-01T15:46:57.004Z</time></trkpt><trkpt lat="42.4237236" lon="14.1581825"><ele>18.0</ele><time>2026-05-01T15:46:58.004Z</time></trkpt><trkpt lat="42.4238399" lon="14.1582354"><ele>17.833333333333332</ele><time>2026-05-01T15:47:00.004Z</time></trkpt><trkpt lat="42.4239008" lon="14.1582611"><ele>17.666666666666668</ele><time>2026-05-01T15:47:01.004Z</time></trkpt><trkpt lat="42.4240049" lon="14.1583103"><ele>17.5</ele><time>2026-05-01T15:47:03.004Z</time></trkpt><trkpt lat="42.4240691" lon="14.1583459"><ele>17.333333333333336</ele><time>2026-05-01T15:47:04.004Z</time></trkpt><trkpt lat="42.4241439" lon="14.1583905"><ele>17.166666666666668</ele><time>2026-05-01T15:47:05.004Z</time></trkpt><trkpt lat="42.4242391" lon="14.158436"><ele>17.0</ele><time>2026-05-01T15:47:06.004Z</time></trkpt><trkpt lat="42.4243268" lon="14.1584712"><ele>17.0</ele><time>2026-05-01T15:47:07.004Z</time></trkpt><trkpt lat="42.4244059" lon="14.1585035"><ele>17.0</ele><time>2026-05-01T15:47:08.004Z</time></trkpt><trkpt lat="42.4244869" lon="14.1585369"><ele>17.0</ele><time>2026-05-01T15:47:09.004Z</time></trkpt><trkpt lat="42.424562" lon="14.1585743"><ele>17.0</ele><time>2026-05-01T15:47:10.004Z</time></trkpt><trkpt lat="42.424642" lon="14.1586168"><ele>17.0</ele><time>2026-05-01T15:47:11.004Z</time></trkpt><trkpt lat="42.4247208" lon="14.1586524"><ele>17.0</ele><time>2026-05-01T15:47:12.004Z</time></trkpt><trkpt lat="42.4248017" lon="14.1586865"><ele>17.166666666666668</ele><time>2026-05-01T15:47:13.004Z</time></trkpt><trkpt lat="42.4248796" lon="14.1587009"><ele>17.333333333333336</ele><time>2026-05-01T15:47:14.004Z</time></trkpt><trkpt lat="42.4249526" lon="14.1587315"><ele>17.5</ele><time>2026-05-01T15:47:15.004Z</time></trkpt><trkpt lat="42.4250208" lon="14.1587619"><ele>17.666666666666668</ele><time>2026-05-01T15:47:16.004Z</time></trkpt><trkpt lat="42.425087" lon="14.1587926"><ele>17.833333333333332</ele><time>2026-05-01T15:47:17.004Z</time></trkpt><trkpt lat="42.4251591" lon="14.1588289"><ele>18.0</ele><time>2026-05-01T15:47:18.004Z</time></trkpt><trkpt lat="42.4252431" lon="14.1588614"><ele>18.0</ele><time>2026-05-01T15:47:19.004Z</time></trkpt><trkpt lat="42.4253217" lon="14.1588952"><ele>18.0</ele><time>2026-05-01T15:47:20.004Z</time></trkpt><trkpt lat="42.4253856" lon="14.158919"><ele>18.0</ele><time>2026-05-01T15:47:21.004Z</time></trkpt><trkpt lat="42.4254923" lon="14.1589743"><ele>18.0</ele><time>2026-05-01T15:47:23.004Z</time></trkpt><trkpt lat="42.4255857" lon="14.1590169"><ele>18.0</ele><time>2026-05-01T15:47:25.004Z</time></trkpt><trkpt lat="42.4256767" lon="14.1590635"><ele>18.2</ele><time>2026-05-01T15:47:27.004Z</time></trkpt><trkpt lat="42.4257849" lon="14.159122"><ele>18.4</ele><time>2026-05-01T15:47:29.004Z</time></trkpt><trkpt lat="42.4258907" lon="14.1591771"><ele>18.599999999999998</ele><time>2026-05-01T15:47:31.004Z</time></trkpt><trkpt lat="42.4259695" lon="14.1592222"><ele>18.8</ele><time>2026-05-01T15:47:33.004Z</time></trkpt><trkpt lat="42.4260577" lon="14.1592698"><ele>19.0</ele><time>2026-05-01T15:47:35.004Z</time></trkpt><trkpt lat="42.4261478" lon="14.1593093"><ele>19.0</ele><time>2026-05-01T15:47:37.004Z</time></trkpt><trkpt lat="42.4262665" lon="14.1593697"><ele>19.0</ele><time>2026-05-01T15:47:39.004Z</time></trkpt><trkpt lat="42.4263342" lon="14.1594107"><ele>19.0</ele><time>2026-05-01T15:47:40.004Z</time></trkpt><trkpt lat="42.4264023" lon="14.159453"><ele>19.0</ele><time>2026-05-01T15:47:41.004Z</time></trkpt><trkpt lat="42.4264706" lon="14.1595029"><ele>19.0</ele><time>2026-05-01T15:47:42.004Z</time></trkpt><trkpt lat="42.4265392" lon="14.1595565"><ele>19.0</ele><time>2026-05-01T15:47:43.004Z</time></trkpt><trkpt lat="42.4266111" lon="14.1596091"><ele>19.0</ele><time>2026-05-01T15:47:44.004Z</time></trkpt><trkpt lat="42.4266732" lon="14.1596551"><ele>19.0</ele><time>2026-05-01T15:47:45.004Z</time></trkpt><trkpt lat="42.4267334" lon="14.159695"><ele>19.0</ele><time>2026-05-01T15:47:46.004Z</time></trkpt><trkpt lat="42.4267896" lon="14.1597417"><ele>19.0</ele><time>2026-05-01T15:47:47.004Z</time></trkpt><trkpt lat="42.426847" lon="14.159805"><ele>19.0</ele><time>2026-05-01T15:47:48.004Z</time></trkpt><trkpt lat="42.4269103" lon="14.159864"><ele>19.0</ele><time>2026-05-01T15:47:49.004Z</time></trkpt><trkpt lat="42.426978" lon="14.1599157"><ele>19.0</ele><time>2026-05-01T15:47:50.004Z</time></trkpt><trkpt lat="42.4270422" lon="14.1599625"><ele>19.0</ele><time>2026-05-01T15:47:51.004Z</time></trkpt><trkpt lat="42.4271055" lon="14.1600198"><ele>19.0</ele><time>2026-05-01T15:47:52.004Z</time></trkpt><trkpt lat="42.4271687" lon="14.1600768"><ele>19.0</ele><time>2026-05-01T15:47:53.004Z</time></trkpt><trkpt lat="42.4272366" lon="14.160139"><ele>19.0</ele><time>2026-05-01T15:47:54.004Z</time></trkpt><trkpt lat="42.4273093" lon="14.1602055"><ele>19.0</ele><time>2026-05-01T15:47:55.004Z</time></trkpt><trkpt lat="42.4273902" lon="14.1602839"><ele>19.0</ele><time>2026-05-01T15:47:56.004Z</time></trkpt><trkpt lat="42.4274741" lon="14.1603672"><ele>18.75</ele><time>2026-05-01T15:47:57.004Z</time></trkpt><trkpt lat="42.4275645" lon="14.160441"><ele>18.5</ele><time>2026-05-01T15:47:58.004Z</time></trkpt><trkpt lat="42.4276618" lon="14.1605173"><ele>18.25</ele><time>2026-05-01T15:47:59.004Z</time></trkpt><trkpt lat="42.4277651" lon="14.1606169"><ele>18.0</ele><time>2026-05-01T15:48:00.004Z</time></trkpt><trkpt lat="42.4278705" lon="14.1607248"><ele>18.0</ele><time>2026-05-01T15:48:01.004Z</time></trkpt><trkpt lat="42.4279665" lon="14.1608219"><ele>18.0</ele><time>2026-05-01T15:48:02.004Z</time></trkpt><trkpt lat="42.4280492" lon="14.1609222"><ele>18.0</ele><time>2026-05-01T15:48:03.004Z</time></trkpt><trkpt lat="42.4281353" lon="14.161011"><ele>18.0</ele><time>2026-05-01T15:48:04.004Z</time></trkpt><trkpt lat="42.4282299" lon="14.1610982"><ele>17.75</ele><time>2026-05-01T15:48:05.004Z</time></trkpt><trkpt lat="42.4283239" lon="14.1611884"><ele>17.5</ele><time>2026-05-01T15:48:06.004Z</time></trkpt><trkpt lat="42.4284171" lon="14.1612815"><ele>17.25</ele><time>2026-05-01T15:48:07.004Z</time></trkpt><trkpt lat="42.4285153" lon="14.161375"><ele>17.0</ele><time>2026-05-01T15:48:08.004Z</time></trkpt><trkpt lat="42.428612" lon="14.1614648"><ele>17.0</ele><time>2026-05-01T15:48:09.004Z</time></trkpt><trkpt lat="42.4287089" lon="14.1615475"><ele>17.0</ele><time>2026-05-01T15:48:10.004Z</time></trkpt><trkpt lat="42.428801" lon="14.1616342"><ele>17.0</ele><time>2026-05-01T15:48:11.004Z</time></trkpt><trkpt lat="42.4288815" lon="14.1617153"><ele>17.0</ele><time>2026-05-01T15:48:12.004Z</time></trkpt><trkpt lat="42.4289563" lon="14.1617891"><ele>17.0</ele><time>2026-05-01T15:48:13.004Z</time></trkpt><trkpt lat="42.4290228" lon="14.1618558"><ele>19.0</ele><time>2026-05-01T15:48:14.004Z</time></trkpt><trkpt lat="42.4290835" lon="14.1619269"><ele>21.0</ele><time>2026-05-01T15:48:15.004Z</time></trkpt><trkpt lat="42.4291532" lon="14.1620022"><ele>23.000000000000004</ele><time>2026-05-01T15:48:16.004Z</time></trkpt><trkpt lat="42.4292237" lon="14.1620851"><ele>25.0</ele><time>2026-05-01T15:48:17.004Z</time></trkpt><trkpt lat="42.4292995" lon="14.1621664"><ele>27.0</ele><time>2026-05-01T15:48:18.004Z</time></trkpt><trkpt lat="42.4293765" lon="14.1622387"><ele>27.0</ele><time>2026-05-01T15:48:19.004Z</time></trkpt><trkpt lat="42.4294575" lon="14.1623152"><ele>27.000000000000004</ele><time>2026-05-01T15:48:20.004Z</time></trkpt><trkpt lat="42.4295397" lon="14.1623938"><ele>27.000000000000004</ele><time>2026-05-01T15:48:21.004Z</time></trkpt><trkpt lat="42.429621" lon="14.1624711"><ele>27.0</ele><time>2026-05-01T15:48:22.004Z</time></trkpt><trkpt lat="42.4297108" lon="14.1625521"><ele>27.0</ele><time>2026-05-01T15:48:23.004Z</time></trkpt><trkpt lat="42.4298064" lon="14.1626225"><ele>25.8</ele><time>2026-05-01T15:48:24.004Z</time></trkpt><trkpt lat="42.42991" lon="14.1626805"><ele>24.6</ele><time>2026-05-01T15:48:25.004Z</time></trkpt><trkpt lat="42.4300155" lon="14.1627242"><ele>23.400000000000002</ele><time>2026-05-01T15:48:26.004Z</time></trkpt><trkpt lat="42.4301166" lon="14.1627572"><ele>22.200000000000003</ele><time>2026-05-01T15:48:27.004Z</time></trkpt><trkpt lat="42.4302118" lon="14.1627771"><ele>21.0</ele><time>2026-05-01T15:48:28.004Z</time></trkpt><trkpt lat="42.4302928" lon="14.1627922"><ele>21.0</ele><time>2026-05-01T15:48:29.004Z</time></trkpt><trkpt lat="42.4304122" lon="14.1628155"><ele>21.0</ele><time>2026-05-01T15:48:31.004Z</time></trkpt><trkpt lat="42.4304816" lon="14.1628062"><ele>21.0</ele><time>2026-05-01T15:48:33.004Z</time></trkpt><trkpt lat="42.4305174" lon="14.162721"><ele>21.0</ele><time>2026-05-01T15:48:35.004Z</time></trkpt><trkpt lat="42.4304704" lon="14.1626061"><ele>21.0</ele><time>2026-05-01T15:48:37.004Z</time></trkpt><trkpt lat="42.4304129" lon="14.162556"><ele>21.0</ele><time>2026-05-01T15:48:38.004Z</time></trkpt><trkpt lat="42.4303379" lon="14.1624341"><ele>21.333333333333332</ele><time>2026-05-01T15:48:40.004Z</time></trkpt><trkpt lat="42.4303479" lon="14.1623467"><ele>21.666666666666668</ele><time>2026-05-01T15:48:41.004Z</time></trkpt><trkpt lat="42.4303827" lon="14.1622418"><ele>22.0</ele><time>2026-05-01T15:48:42.004Z</time></trkpt><trkpt lat="42.430432" lon="14.162126"><ele>22.333333333333336</ele><time>2026-05-01T15:48:43.004Z</time></trkpt><trkpt lat="42.4304782" lon="14.1620154"><ele>22.666666666666668</ele><time>2026-05-01T15:48:44.004Z</time></trkpt><trkpt lat="42.4305278" lon="14.1618941"><ele>23.0</ele><time>2026-05-01T15:48:45.004Z</time></trkpt><trkpt lat="42.4305795" lon="14.1617686"><ele>23.0</ele><time>2026-05-01T15:48:46.004Z</time></trkpt><trkpt lat="42.4306355" lon="14.1616423"><ele>23.0</ele><time>2026-05-01T15:48:47.004Z</time></trkpt><trkpt lat="42.4306876" lon="14.1615155"><ele>23.0</ele><time>2026-05-01T15:48:48.004Z</time></trkpt><trkpt lat="42.4307339" lon="14.1613941"><ele>23.0</ele><time>2026-05-01T15:48:49.004Z</time></trkpt><trkpt lat="42.4307733" lon="14.1613004"><ele>23.0</ele><time>2026-05-01T15:48:50.004Z</time></trkpt><trkpt lat="42.4308231" lon="14.1611699"><ele>23.799999999999997</ele><time>2026-05-01T15:48:52.004Z</time></trkpt><trkpt lat="42.4308577" lon="14.1610822"><ele>24.6</ele><time>2026-05-01T15:48:54.004Z</time></trkpt><trkpt lat="42.4309197" lon="14.1609546"><ele>25.400000000000002</ele><time>2026-05-01T15:48:56.004Z</time></trkpt><trkpt lat="42.4309634" lon="14.1608542"><ele>26.200000000000003</ele><time>2026-05-01T15:48:57.004Z</time></trkpt><trkpt lat="42.4310175" lon="14.1607377"><ele>27.0</ele><time>2026-05-01T15:48:58.004Z</time></trkpt><trkpt lat="42.4310725" lon="14.1606165"><ele>27.0</ele><time>2026-05-01T15:48:59.004Z</time></trkpt><trkpt lat="42.4311258" lon="14.1604936"><ele>27.0</ele><time>2026-05-01T15:49:00.004Z</time></trkpt><trkpt lat="42.4311781" lon="14.1603569"><ele>27.0</ele><time>2026-05-01T15:49:01.004Z</time></trkpt><trkpt lat="42.431231" lon="14.1602173"><ele>27.0</ele><time>2026-05-01T15:49:02.004Z</time></trkpt><trkpt lat="42.4312891" lon="14.1600762"><ele>27.75</ele><time>2026-05-01T15:49:03.004Z</time></trkpt><trkpt lat="42.4313549" lon="14.1599243"><ele>28.5</ele><time>2026-05-01T15:49:04.004Z</time></trkpt><trkpt lat="42.4314181" lon="14.159767"><ele>29.25</ele><time>2026-05-01T15:49:05.004Z</time></trkpt><trkpt lat="42.4314842" lon="14.1595931"><ele>30.0</ele><time>2026-05-01T15:49:06.004Z</time></trkpt><trkpt lat="42.4315554" lon="14.1594053"><ele>30.666666666666664</ele><time>2026-05-01T15:49:07.004Z</time></trkpt><trkpt lat="42.4316328" lon="14.159197"><ele>31.333333333333332</ele><time>2026-05-01T15:49:08.004Z</time></trkpt><trkpt lat="42.4317185" lon="14.1589788"><ele>32.0</ele><time>2026-05-01T15:49:09.004Z</time></trkpt><trkpt lat="42.4318183" lon="14.1587533"><ele>32.33333333333333</ele><time>2026-05-01T15:49:10.004Z</time></trkpt><trkpt lat="42.4319202" lon="14.1585321"><ele>32.666666666666664</ele><time>2026-05-01T15:49:11.004Z</time></trkpt><trkpt lat="42.4320099" lon="14.1583204"><ele>33.0</ele><time>2026-05-01T15:49:12.004Z</time></trkpt><trkpt lat="42.432094" lon="14.1581272"><ele>35.666666666666664</ele><time>2026-05-01T15:49:13.004Z</time></trkpt><trkpt lat="42.4321683" lon="14.1579323"><ele>38.33333333333333</ele><time>2026-05-01T15:49:14.004Z</time></trkpt><trkpt lat="42.4322514" lon="14.1577389"><ele>41.0</ele><time>2026-05-01T15:49:15.004Z</time></trkpt><trkpt lat="42.432345" lon="14.1575633"><ele>41.0</ele><time>2026-05-01T15:49:16.004Z</time></trkpt><trkpt lat="42.4324465" lon="14.1573983"><ele>41.0</ele><time>2026-05-01T15:49:17.004Z</time></trkpt><trkpt lat="42.4325692" lon="14.1572422"><ele>41.0</ele><time>2026-05-01T15:49:18.004Z</time></trkpt><trkpt lat="42.4327054" lon="14.1571002"><ele>42.33333333333333</ele><time>2026-05-01T15:49:19.004Z</time></trkpt><trkpt lat="42.4328557" lon="14.1569723"><ele>43.666666666666664</ele><time>2026-05-01T15:49:20.004Z</time></trkpt><trkpt lat="42.4330101" lon="14.1568454"><ele>45.0</ele><time>2026-05-01T15:49:21.004Z</time></trkpt><trkpt lat="42.4331673" lon="14.1567185"><ele>46.66666666666667</ele><time>2026-05-01T15:49:22.004Z</time></trkpt><trkpt lat="42.4333249" lon="14.1565864"><ele>48.333333333333336</ele><time>2026-05-01T15:49:23.004Z</time></trkpt><trkpt lat="42.4334882" lon="14.1564594"><ele>50.0</ele><time>2026-05-01T15:49:24.004Z</time></trkpt><trkpt lat="42.4336475" lon="14.1563378"><ele>51.333333333333336</ele><time>2026-05-01T15:49:25.004Z</time></trkpt><trkpt lat="42.4338061" lon="14.1562191"><ele>52.66666666666667</ele><time>2026-05-01T15:49:26.004Z</time></trkpt><trkpt lat="42.4339666" lon="14.1560973"><ele>54.0</ele><time>2026-05-01T15:49:27.004Z</time></trkpt><trkpt lat="42.4341271" lon="14.155979"><ele>54.0</ele><time>2026-05-01T15:49:28.004Z</time></trkpt><trkpt lat="42.4342854" lon="14.1558609"><ele>54.0</ele><time>2026-05-01T15:49:29.004Z</time></trkpt><trkpt lat="42.4344447" lon="14.1557413"><ele>54.0</ele><time>2026-05-01T15:49:30.004Z</time></trkpt><trkpt lat="42.4346027" lon="14.1556231"><ele>55.66666666666667</ele><time>2026-05-01T15:49:31.004Z</time></trkpt><trkpt lat="42.4347622" lon="14.1555043"><ele>57.333333333333336</ele><time>2026-05-01T15:49:32.004Z</time></trkpt><trkpt lat="42.4349249" lon="14.1553832"><ele>59.0</ele><time>2026-05-01T15:49:33.004Z</time></trkpt><trkpt lat="42.4350883" lon="14.1552556"><ele>59.0</ele><time>2026-05-01T15:49:34.004Z</time></trkpt><trkpt lat="42.4352496" lon="14.1551333"><ele>59.0</ele><time>2026-05-01T15:49:35.004Z</time></trkpt><trkpt lat="42.4354128" lon="14.1550099"><ele>59.0</ele><time>2026-05-01T15:49:36.004Z</time></trkpt><trkpt lat="42.435572" lon="14.1548847"><ele>60.333333333333336</ele><time>2026-05-01T15:49:37.004Z</time></trkpt><trkpt lat="42.4357334" lon="14.1547594"><ele>61.66666666666667</ele><time>2026-05-01T15:49:38.004Z</time></trkpt><trkpt lat="42.4358936" lon="14.1546423"><ele>63.0</ele><time>2026-05-01T15:49:39.004Z</time></trkpt><trkpt lat="42.436051" lon="14.154517"><ele>63.0</ele><time>2026-05-01T15:49:40.004Z</time></trkpt><trkpt lat="42.4362085" lon="14.1543912"><ele>63.0</ele><time>2026-05-01T15:49:41.004Z</time></trkpt><trkpt lat="42.436367" lon="14.15426"><ele>63.0</ele><time>2026-05-01T15:49:42.004Z</time></trkpt><trkpt lat="42.4365182" lon="14.1541235"><ele>65.33333333333333</ele><time>2026-05-01T15:49:43.004Z</time></trkpt><trkpt lat="42.4366676" lon="14.1539895"><ele>67.66666666666666</ele><time>2026-05-01T15:49:44.004Z</time></trkpt><trkpt lat="42.4368216" lon="14.1538624"><ele>70.0</ele><time>2026-05-01T15:49:45.004Z</time></trkpt><trkpt lat="42.4369746" lon="14.153728"><ele>70.0</ele><time>2026-05-01T15:49:46.004Z</time></trkpt><trkpt lat="42.4371272" lon="14.1535859"><ele>70.0</ele><time>2026-05-01T15:49:47.004Z</time></trkpt><trkpt lat="42.4372885" lon="14.1534605"><ele>70.0</ele><time>2026-05-01T15:49:48.004Z</time></trkpt><trkpt lat="42.437457" lon="14.1533559"><ele>69.66666666666666</ele><time>2026-05-01T15:49:49.004Z</time></trkpt><trkpt lat="42.4376377" lon="14.1532805"><ele>69.33333333333333</ele><time>2026-05-01T15:49:50.004Z</time></trkpt><trkpt lat="42.4378267" lon="14.1532364"><ele>69.0</ele><time>2026-05-01T15:49:51.004Z</time></trkpt><trkpt lat="42.4380101" lon="14.1531885"><ele>67.0</ele><time>2026-05-01T15:49:52.004Z</time></trkpt><trkpt lat="42.4381908" lon="14.1531178"><ele>65.0</ele><time>2026-05-01T15:49:53.004Z</time></trkpt><trkpt lat="42.4383559" lon="14.1530102"><ele>63.0</ele><time>2026-05-01T15:49:54.004Z</time></trkpt><trkpt lat="42.4385139" lon="14.1528846"><ele>63.0</ele><time>2026-05-01T15:49:55.004Z</time></trkpt><trkpt lat="42.4386667" lon="14.152729"><ele>63.0</ele><time>2026-05-01T15:49:56.004Z</time></trkpt><trkpt lat="42.4388098" lon="14.1525563"><ele>63.0</ele><time>2026-05-01T15:49:57.004Z</time></trkpt><trkpt lat="42.4389446" lon="14.1523725"><ele>66.33333333333333</ele><time>2026-05-01T15:49:58.004Z</time></trkpt><trkpt lat="42.4390721" lon="14.1521788"><ele>69.66666666666666</ele><time>2026-05-01T15:49:59.004Z</time></trkpt><trkpt lat="42.4392032" lon="14.1519919"><ele>73.0</ele><time>2026-05-01T15:50:00.004Z</time></trkpt><trkpt lat="42.4393507" lon="14.1518186"><ele>73.0</ele><time>2026-05-01T15:50:01.004Z</time></trkpt><trkpt lat="42.4395063" lon="14.1516771"><ele>73.0</ele><time>2026-05-01T15:50:02.004Z</time></trkpt><trkpt lat="42.4396797" lon="14.1515647"><ele>73.0</ele><time>2026-05-01T15:50:03.004Z</time></trkpt><trkpt lat="42.4398609" lon="14.1514693"><ele>74.0</ele><time>2026-05-01T15:50:04.004Z</time></trkpt><trkpt lat="42.4400473" lon="14.1513835"><ele>75.0</ele><time>2026-05-01T15:50:05.004Z</time></trkpt><trkpt lat="42.4402322" lon="14.1512827"><ele>76.0</ele><time>2026-05-01T15:50:06.004Z</time></trkpt><trkpt lat="42.4403945" lon="14.1511627"><ele>80.0</ele><time>2026-05-01T15:50:07.004Z</time></trkpt><trkpt lat="42.4405528" lon="14.1510364"><ele>84.0</ele><time>2026-05-01T15:50:08.004Z</time></trkpt><trkpt lat="42.4407159" lon="14.1509296"><ele>88.0</ele><time>2026-05-01T15:50:09.004Z</time></trkpt><trkpt lat="42.4408884" lon="14.1508597"><ele>88.0</ele><time>2026-05-01T15:50:10.004Z</time></trkpt><trkpt lat="42.441057" lon="14.1508326"><ele>88.0</ele><time>2026-05-01T15:50:11.005Z</time></trkpt><trkpt lat="42.4412279" lon="14.1508386"><ele>88.0</ele><time>2026-05-01T15:50:12.004Z</time></trkpt><trkpt lat="42.4413837" lon="14.1508837"><ele>89.0</ele><time>2026-05-01T15:50:13.004Z</time></trkpt><trkpt lat="42.4415456" lon="14.1509462"><ele>90.0</ele><time>2026-05-01T15:50:14.004Z</time></trkpt><trkpt lat="42.441707" lon="14.1509824"><ele>91.0</ele><time>2026-05-01T15:50:15.004Z</time></trkpt><trkpt lat="42.44188" lon="14.1509686"><ele>91.0</ele><time>2026-05-01T15:50:16.004Z</time></trkpt><trkpt lat="42.4420462" lon="14.150918"><ele>91.0</ele><time>2026-05-01T15:50:17.004Z</time></trkpt><trkpt lat="42.4421879" lon="14.1508267"><ele>91.0</ele><time>2026-05-01T15:50:18.004Z</time></trkpt><trkpt lat="42.4422979" lon="14.1507016"><ele>91.75</ele><time>2026-05-01T15:50:19.004Z</time></trkpt><trkpt lat="42.4423671" lon="14.1505432"><ele>92.5</ele><time>2026-05-01T15:50:20.004Z</time></trkpt><trkpt lat="42.4424099" lon="14.1503691"><ele>93.25</ele><time>2026-05-01T15:50:21.004Z</time></trkpt><trkpt lat="42.4424441" lon="14.1501724"><ele>94.0</ele><time>2026-05-01T15:50:22.004Z</time></trkpt><trkpt lat="42.4424804" lon="14.1499681"><ele>95.33333333333333</ele><time>2026-05-01T15:50:23.004Z</time></trkpt><trkpt lat="42.4425264" lon="14.1497672"><ele>96.66666666666666</ele><time>2026-05-01T15:50:24.004Z</time></trkpt><trkpt lat="42.4425795" lon="14.1495598"><ele>98.0</ele><time>2026-05-01T15:50:25.004Z</time></trkpt><trkpt lat="42.4426389" lon="14.1493658"><ele>98.0</ele><time>2026-05-01T15:50:26.004Z</time></trkpt><trkpt lat="42.4427069" lon="14.1491638"><ele>98.0</ele><time>2026-05-01T15:50:27.004Z</time></trkpt><trkpt lat="42.4427844" lon="14.1489706"><ele>98.0</ele><time>2026-05-01T15:50:28.004Z</time></trkpt><trkpt lat="42.4428722" lon="14.148786"><ele>100.0</ele><time>2026-05-01T15:50:29.004Z</time></trkpt><trkpt lat="42.4429822" lon="14.1486096"><ele>102.0</ele><time>2026-05-01T15:50:30.004Z</time></trkpt><trkpt lat="42.4431019" lon="14.1484298"><ele>104.0</ele><time>2026-05-01T15:50:31.004Z</time></trkpt><trkpt lat="42.443223" lon="14.148256"><ele>109.0</ele><time>2026-05-01T15:50:32.004Z</time></trkpt><trkpt lat="42.443348" lon="14.1480765"><ele>114.0</ele><time>2026-05-01T15:50:33.004Z</time></trkpt><trkpt lat="42.4434791" lon="14.1479019"><ele>119.0</ele><time>2026-05-01T15:50:34.004Z</time></trkpt><trkpt lat="42.4436104" lon="14.1477395"><ele>119.0</ele><time>2026-05-01T15:50:35.004Z</time></trkpt><trkpt lat="42.4437513" lon="14.1476172"><ele>119.0</ele><time>2026-05-01T15:50:36.004Z</time></trkpt><trkpt lat="42.4438958" lon="14.1475409"><ele>119.0</ele><time>2026-05-01T15:50:37.004Z</time></trkpt><trkpt lat="42.4440447" lon="14.1474947"><ele>117.75</ele><time>2026-05-01T15:50:38.004Z</time></trkpt><trkpt lat="42.4441924" lon="14.1474415"><ele>116.5</ele><time>2026-05-01T15:50:39.004Z</time></trkpt><trkpt lat="42.4443181" lon="14.1473966"><ele>115.25</ele><time>2026-05-01T15:50:40.004Z</time></trkpt><trkpt lat="42.4444138" lon="14.1473155"><ele>114.0</ele><time>2026-05-01T15:50:41.004Z</time></trkpt><trkpt lat="42.4444876" lon="14.147213"><ele>115.16666666666667</ele><time>2026-05-01T15:50:42.004Z</time></trkpt><trkpt lat="42.4445322" lon="14.1471071"><ele>116.33333333333334</ele><time>2026-05-01T15:50:43.004Z</time></trkpt><trkpt lat="42.4445666" lon="14.1470183"><ele>117.5</ele><time>2026-05-01T15:50:44.004Z</time></trkpt><trkpt lat="42.4446022" lon="14.1469355"><ele>118.66666666666667</ele><time>2026-05-01T15:50:45.004Z</time></trkpt><trkpt lat="42.4446488" lon="14.1468624"><ele>119.83333333333334</ele><time>2026-05-01T15:50:46.004Z</time></trkpt><trkpt lat="42.444711" lon="14.146765"><ele>121.0</ele><time>2026-05-01T15:50:47.004Z</time></trkpt><trkpt lat="42.4447779" lon="14.1466596"><ele>122.25</ele><time>2026-05-01T15:50:48.004Z</time></trkpt><trkpt lat="42.4448494" lon="14.1465352"><ele>123.5</ele><time>2026-05-01T15:50:49.004Z</time></trkpt><trkpt lat="42.4449212" lon="14.1464062"><ele>124.75</ele><time>2026-05-01T15:50:50.004Z</time></trkpt><trkpt lat="42.444999" lon="14.1462718"><ele>126.0</ele><time>2026-05-01T15:50:51.004Z</time></trkpt><trkpt lat="42.4450785" lon="14.1461385"><ele>126.0</ele><time>2026-05-01T15:50:52.004Z</time></trkpt><trkpt lat="42.445158" lon="14.1459964"><ele>126.0</ele><time>2026-05-01T15:50:53.004Z</time></trkpt><trkpt lat="42.4452372" lon="14.1458486"><ele>126.0</ele><time>2026-05-01T15:50:54.004Z</time></trkpt><trkpt lat="42.4453258" lon="14.1457006"><ele>126.0</ele><time>2026-05-01T15:50:55.004Z</time></trkpt><trkpt lat="42.4454207" lon="14.1455453"><ele>124.0</ele><time>2026-05-01T15:50:56.004Z</time></trkpt><trkpt lat="42.4455255" lon="14.1454011"><ele>122.0</ele><time>2026-05-01T15:50:57.004Z</time></trkpt><trkpt lat="42.4456463" lon="14.1452648"><ele>120.0</ele><time>2026-05-01T15:50:58.004Z</time></trkpt><trkpt lat="42.4457774" lon="14.145146"><ele>120.0</ele><time>2026-05-01T15:50:59.004Z</time></trkpt><trkpt lat="42.4459203" lon="14.1450327"><ele>120.0</ele><time>2026-05-01T15:51:00.004Z</time></trkpt><trkpt lat="42.4460674" lon="14.1449317"><ele>120.0</ele><time>2026-05-01T15:51:01.004Z</time></trkpt><trkpt lat="42.4462185" lon="14.1448395"><ele>120.33333333333334</ele><time>2026-05-01T15:51:02.004Z</time></trkpt><trkpt lat="42.4463729" lon="14.1447576"><ele>120.66666666666667</ele><time>2026-05-01T15:51:03.004Z</time></trkpt><trkpt lat="42.4465317" lon="14.1447022"><ele>121.0</ele><time>2026-05-01T15:51:04.004Z</time></trkpt><trkpt lat="42.4466996" lon="14.1446521"><ele>121.0</ele><time>2026-05-01T15:51:05.004Z</time></trkpt><trkpt lat="42.4468626" lon="14.1445991"><ele>121.0</ele><time>2026-05-01T15:51:06.004Z</time></trkpt><trkpt lat="42.4470119" lon="14.1445572"><ele>121.0</ele><time>2026-05-01T15:51:07.004Z</time></trkpt><trkpt lat="42.4471488" lon="14.1445176"><ele>122.25</ele><time>2026-05-01T15:51:08.004Z</time></trkpt><trkpt lat="42.4472756" lon="14.1445226"><ele>123.5</ele><time>2026-05-01T15:51:09.004Z</time></trkpt><trkpt lat="42.4473833" lon="14.1445661"><ele>124.75</ele><time>2026-05-01T15:51:10.004Z</time></trkpt><trkpt lat="42.4474752" lon="14.1446454"><ele>126.0</ele><time>2026-05-01T15:51:11.004Z</time></trkpt><trkpt lat="42.4475325" lon="14.1447668"><ele>126.25</ele><time>2026-05-01T15:51:12.004Z</time></trkpt><trkpt lat="42.4475604" lon="14.1449165"><ele>126.5</ele><time>2026-05-01T15:51:13.004Z</time></trkpt><trkpt lat="42.4475621" lon="14.1450889"><ele>126.75</ele><time>2026-05-01T15:51:14.004Z</time></trkpt><trkpt lat="42.4475669" lon="14.1452782"><ele>127.0</ele><time>2026-05-01T15:51:15.004Z</time></trkpt><trkpt lat="42.4475804" lon="14.1454681"><ele>127.0</ele><time>2026-05-01T15:51:16.004Z</time></trkpt><trkpt lat="42.4476133" lon="14.1456541"><ele>127.0</ele><time>2026-05-01T15:51:17.004Z</time></trkpt><trkpt lat="42.4476735" lon="14.1458256"><ele>127.0</ele><time>2026-05-01T15:51:18.004Z</time></trkpt><trkpt lat="42.4477595" lon="14.1459656"><ele>127.0</ele><time>2026-05-01T15:51:19.004Z</time></trkpt><trkpt lat="42.4478701" lon="14.1460893"><ele>132.0</ele><time>2026-05-01T15:51:20.004Z</time></trkpt><trkpt lat="42.4480024" lon="14.1462045"><ele>137.0</ele><time>2026-05-01T15:51:21.004Z</time></trkpt><trkpt lat="42.448154" lon="14.1462964"><ele>142.0</ele><time>2026-05-01T15:51:22.004Z</time></trkpt><trkpt lat="42.448311" lon="14.1463671"><ele>142.0</ele><time>2026-05-01T15:51:23.004Z</time></trkpt><trkpt lat="42.4484636" lon="14.1464179"><ele>142.0</ele><time>2026-05-01T15:51:24.004Z</time></trkpt><trkpt lat="42.4486134" lon="14.1464349"><ele>142.0</ele><time>2026-05-01T15:51:25.004Z</time></trkpt><trkpt lat="42.4487692" lon="14.1464257"><ele>142.5</ele><time>2026-05-01T15:51:26.004Z</time></trkpt><trkpt lat="42.448904" lon="14.1463732"><ele>143.0</ele><time>2026-05-01T15:51:27.004Z</time></trkpt><trkpt lat="42.4490231" lon="14.146277"><ele>143.5</ele><time>2026-05-01T15:51:28.004Z</time></trkpt><trkpt lat="42.449138" lon="14.146147"><ele>144.0</ele><time>2026-05-01T15:51:29.004Z</time></trkpt><trkpt lat="42.4492392" lon="14.1459947"><ele>144.0</ele><time>2026-05-01T15:51:30.004Z</time></trkpt><trkpt lat="42.4493246" lon="14.145847"><ele>144.0</ele><time>2026-05-01T15:51:31.004Z</time></trkpt><trkpt lat="42.4494075" lon="14.1456987"><ele>144.0</ele><time>2026-05-01T15:51:32.004Z</time></trkpt><trkpt lat="42.4494898" lon="14.1455521"><ele>144.0</ele><time>2026-05-01T15:51:33.004Z</time></trkpt><trkpt lat="42.4495725" lon="14.1453984"><ele>143.33333333333334</ele><time>2026-05-01T15:51:34.004Z</time></trkpt><trkpt lat="42.4496511" lon="14.1452298"><ele>142.66666666666669</ele><time>2026-05-01T15:51:35.004Z</time></trkpt><trkpt lat="42.4497215" lon="14.1450483"><ele>142.0</ele><time>2026-05-01T15:51:36.004Z</time></trkpt><trkpt lat="42.4497874" lon="14.1448595"><ele>142.0</ele><time>2026-05-01T15:51:37.004Z</time></trkpt><trkpt lat="42.4498497" lon="14.1446653"><ele>142.0</ele><time>2026-05-01T15:51:38.004Z</time></trkpt><trkpt lat="42.4499016" lon="14.1444774"><ele>142.0</ele><time>2026-05-01T15:51:39.004Z</time></trkpt><trkpt lat="42.4499334" lon="14.1442673"><ele>142.0</ele><time>2026-05-01T15:51:40.004Z</time></trkpt><trkpt lat="42.4499453" lon="14.1440504"><ele>142.0</ele><time>2026-05-01T15:51:41.004Z</time></trkpt><trkpt lat="42.4499382" lon="14.1438299"><ele>142.0</ele><time>2026-05-01T15:51:42.004Z</time></trkpt><trkpt lat="42.4499219" lon="14.1436237"><ele>141.0</ele><time>2026-05-01T15:51:43.004Z</time></trkpt><trkpt lat="42.449909" lon="14.1434279"><ele>140.0</ele><time>2026-05-01T15:51:44.004Z</time></trkpt><trkpt lat="42.4498993" lon="14.1432439"><ele>139.0</ele><time>2026-05-01T15:51:45.005Z</time></trkpt><trkpt lat="42.4498784" lon="14.1430732"><ele>138.0</ele><time>2026-05-01T15:51:46.004Z</time></trkpt><trkpt lat="42.4498389" lon="14.1429141"><ele>137.75</ele><time>2026-05-01T15:51:47.004Z</time></trkpt><trkpt lat="42.4497871" lon="14.1427586"><ele>137.5</ele><time>2026-05-01T15:51:48.004Z</time></trkpt><trkpt lat="42.4497281" lon="14.142592"><ele>137.25</ele><time>2026-05-01T15:51:49.004Z</time></trkpt><trkpt lat="42.4496701" lon="14.1424093"><ele>137.0</ele><time>2026-05-01T15:51:50.004Z</time></trkpt><trkpt lat="42.4496076" lon="14.1422417"><ele>137.6</ele><time>2026-05-01T15:51:51.004Z</time></trkpt><trkpt lat="42.4495602" lon="14.1420855"><ele>138.2</ele><time>2026-05-01T15:51:52.004Z</time></trkpt><trkpt lat="42.4495553" lon="14.1419511"><ele>138.8</ele><time>2026-05-01T15:51:53.004Z</time></trkpt><trkpt lat="42.4495928" lon="14.1418238"><ele>139.4</ele><time>2026-05-01T15:51:54.004Z</time></trkpt><trkpt lat="42.4496622" lon="14.1417175"><ele>140.0</ele><time>2026-05-01T15:51:55.004Z</time></trkpt><trkpt lat="42.4497524" lon="14.1416389"><ele>140.0</ele><time>2026-05-01T15:51:56.004Z</time></trkpt><trkpt lat="42.4498501" lon="14.1415715"><ele>140.0</ele><time>2026-05-01T15:51:57.004Z</time></trkpt><trkpt lat="42.4499463" lon="14.1415051"><ele>140.0</ele><time>2026-05-01T15:51:58.004Z</time></trkpt><trkpt lat="42.4500382" lon="14.1414465"><ele>140.0</ele><time>2026-05-01T15:51:59.004Z</time></trkpt><trkpt lat="42.450143" lon="14.1413801"><ele>140.0</ele><time>2026-05-01T15:52:00.004Z</time></trkpt><trkpt lat="42.4502535" lon="14.1413367"><ele>141.0</ele><time>2026-05-01T15:52:01.004Z</time></trkpt><trkpt lat="42.4503555" lon="14.1413076"><ele>142.0</ele><time>2026-05-01T15:52:02.004Z</time></trkpt><trkpt lat="42.4504292" lon="14.1412672"><ele>143.0</ele><time>2026-05-01T15:52:03.004Z</time></trkpt><trkpt lat="42.4505566" lon="14.1412348"><ele>144.0</ele><time>2026-05-01T15:52:05.004Z</time></trkpt><trkpt lat="42.4506343" lon="14.1412104"><ele>145.0</ele><time>2026-05-01T15:52:06.004Z</time></trkpt><trkpt lat="42.450715" lon="14.1411856"><ele>145.83333333333334</ele><time>2026-05-01T15:52:07.004Z</time></trkpt><trkpt lat="42.4507973" lon="14.141156"><ele>146.66666666666669</ele><time>2026-05-01T15:52:08.004Z</time></trkpt><trkpt lat="42.4508754" lon="14.1411323"><ele>147.5</ele><time>2026-05-01T15:52:09.004Z</time></trkpt><trkpt lat="42.4509576" lon="14.1411063"><ele>148.33333333333334</ele><time>2026-05-01T15:52:10.004Z</time></trkpt><trkpt lat="42.4510478" lon="14.1410694"><ele>149.16666666666666</ele><time>2026-05-01T15:52:11.004Z</time></trkpt><trkpt lat="42.4511442" lon="14.1410352"><ele>150.0</ele><time>2026-05-01T15:52:12.004Z</time></trkpt><trkpt lat="42.4512372" lon="14.1409999"><ele>150.33333333333334</ele><time>2026-05-01T15:52:13.004Z</time></trkpt><trkpt lat="42.4513222" lon="14.1409662"><ele>150.66666666666666</ele><time>2026-05-01T15:52:14.004Z</time></trkpt><trkpt lat="42.4514086" lon="14.1409458"><ele>151.0</ele><time>2026-05-01T15:52:15.004Z</time></trkpt><trkpt lat="42.4514941" lon="14.1409363"><ele>151.33333333333331</ele><time>2026-05-01T15:52:16.004Z</time></trkpt><trkpt lat="42.4515755" lon="14.1409195"><ele>151.66666666666666</ele><time>2026-05-01T15:52:17.004Z</time></trkpt><trkpt lat="42.4516604" lon="14.140901"><ele>152.0</ele><time>2026-05-01T15:52:18.004Z</time></trkpt><trkpt lat="42.4517499" lon="14.140887"><ele>152.0</ele><time>2026-05-01T15:52:19.004Z</time></trkpt><trkpt lat="42.4518499" lon="14.1408617"><ele>152.0</ele><time>2026-05-01T15:52:20.004Z</time></trkpt><trkpt lat="42.451949" lon="14.1408361"><ele>152.0</ele><time>2026-05-01T15:52:21.004Z</time></trkpt><trkpt lat="42.4520506" lon="14.1408224"><ele>152.0</ele><time>2026-05-01T15:52:22.004Z</time></trkpt><trkpt lat="42.4521577" lon="14.1408047"><ele>152.0</ele><time>2026-05-01T15:52:23.004Z</time></trkpt><trkpt lat="42.452274" lon="14.1407824"><ele>152.0</ele><time>2026-05-01T15:52:24.004Z</time></trkpt><trkpt lat="42.4523935" lon="14.1407689"><ele>152.0</ele><time>2026-05-01T15:52:25.004Z</time></trkpt><trkpt lat="42.4525114" lon="14.1407467"><ele>152.0</ele><time>2026-05-01T15:52:26.004Z</time></trkpt><trkpt lat="42.452609" lon="14.1407174"><ele>152.0</ele><time>2026-05-01T15:52:27.004Z</time></trkpt><trkpt lat="42.4527013" lon="14.1406946"><ele>152.0</ele><time>2026-05-01T15:52:28.004Z</time></trkpt><trkpt lat="42.4527877" lon="14.1406732"><ele>152.0</ele><time>2026-05-01T15:52:29.004Z</time></trkpt><trkpt lat="42.4528637" lon="14.1406648"><ele>152.0</ele><time>2026-05-01T15:52:30.004Z</time></trkpt><trkpt lat="42.4529575" lon="14.1406452"><ele>152.0</ele><time>2026-05-01T15:52:32.004Z</time></trkpt><trkpt lat="42.4530603" lon="14.1406147"><ele>152.0</ele><time>2026-05-01T15:52:40.006Z</time></trkpt><trkpt lat="42.4531244" lon="14.1405858"><ele>152.0</ele><time>2026-05-01T15:52:41.006Z</time></trkpt><trkpt lat="42.453183" lon="14.1405225"><ele>152.0</ele><time>2026-05-01T15:52:42.006Z</time></trkpt><trkpt lat="42.4532589" lon="14.1404739"><ele>154.83333333333331</ele><time>2026-05-01T15:52:43.006Z</time></trkpt><trkpt lat="42.453331" lon="14.1404239"><ele>157.66666666666666</ele><time>2026-05-01T15:52:44.006Z</time></trkpt><trkpt lat="42.4533984" lon="14.1403911"><ele>160.5</ele><time>2026-05-01T15:52:45.006Z</time></trkpt><trkpt lat="42.4534743" lon="14.1403528"><ele>163.33333333333334</ele><time>2026-05-01T15:52:46.006Z</time></trkpt><trkpt lat="42.4535547" lon="14.1403043"><ele>166.16666666666669</ele><time>2026-05-01T15:52:47.006Z</time></trkpt><trkpt lat="42.453642" lon="14.1402544"><ele>169.0</ele><time>2026-05-01T15:52:48.006Z</time></trkpt><trkpt lat="42.4537216" lon="14.1402039"><ele>169.6</ele><time>2026-05-01T15:52:49.006Z</time></trkpt><trkpt lat="42.4538037" lon="14.1401388"><ele>170.2</ele><time>2026-05-01T15:52:50.006Z</time></trkpt><trkpt lat="42.4538882" lon="14.1400307"><ele>170.79999999999998</ele><time>2026-05-01T15:52:51.006Z</time></trkpt><trkpt lat="42.4539633" lon="14.1399191"><ele>171.39999999999998</ele><time>2026-05-01T15:52:52.006Z</time></trkpt><trkpt lat="42.4540285" lon="14.1397825"><ele>172.0</ele><time>2026-05-01T15:52:53.006Z</time></trkpt><trkpt lat="42.4540915" lon="14.139647"><ele>172.39999999999998</ele><time>2026-05-01T15:52:54.006Z</time></trkpt><trkpt lat="42.4541515" lon="14.1395277"><ele>172.79999999999998</ele><time>2026-05-01T15:52:55.006Z</time></trkpt><trkpt lat="42.4542073" lon="14.1394209"><ele>173.2</ele><time>2026-05-01T15:52:56.006Z</time></trkpt><trkpt lat="42.454261" lon="14.1393094"><ele>173.6</ele><time>2026-05-01T15:52:57.006Z</time></trkpt><trkpt lat="42.454319" lon="14.139199"><ele>174.0</ele><time>2026-05-01T15:52:58.006Z</time></trkpt><trkpt lat="42.4543816" lon="14.1390885"><ele>173.83333333333334</ele><time>2026-05-01T15:52:59.006Z</time></trkpt><trkpt lat="42.4544399" lon="14.1389863"><ele>173.66666666666666</ele><time>2026-05-01T15:53:00.006Z</time></trkpt><trkpt lat="42.4544928" lon="14.1388958"><ele>173.5</ele><time>2026-05-01T15:53:01.006Z</time></trkpt><trkpt lat="42.4545415" lon="14.1388112"><ele>173.33333333333331</ele><time>2026-05-01T15:53:02.006Z</time></trkpt><trkpt lat="42.4545892" lon="14.1387247"><ele>173.16666666666666</ele><time>2026-05-01T15:53:03.006Z</time></trkpt><trkpt lat="42.4546359" lon="14.138639"><ele>173.0</ele><time>2026-05-01T15:53:04.006Z</time></trkpt><trkpt lat="42.4546874" lon="14.1385483"><ele>173.0</ele><time>2026-05-01T15:53:05.006Z</time></trkpt><trkpt lat="42.4547439" lon="14.138453"><ele>173.0</ele><time>2026-05-01T15:53:06.007Z</time></trkpt><trkpt lat="42.454803" lon="14.1383527"><ele>173.0</ele><time>2026-05-01T15:53:07.006Z</time></trkpt><trkpt lat="42.454868" lon="14.1382481"><ele>173.0</ele><time>2026-05-01T15:53:08.006Z</time></trkpt><trkpt lat="42.4549304" lon="14.138133"><ele>173.0</ele><time>2026-05-01T15:53:09.006Z</time></trkpt><trkpt lat="42.4549869" lon="14.1380043"><ele>173.0</ele><time>2026-05-01T15:53:10.006Z</time></trkpt><trkpt lat="42.4550291" lon="14.1378707"><ele>173.0</ele><time>2026-05-01T15:53:11.006Z</time></trkpt><trkpt lat="42.4550445" lon="14.1377332"><ele>173.0</ele><time>2026-05-01T15:53:12.006Z</time></trkpt><trkpt lat="42.4550451" lon="14.137588"><ele>173.0</ele><time>2026-05-01T15:53:13.006Z</time></trkpt><trkpt lat="42.4550444" lon="14.1374445"><ele>173.0</ele><time>2026-05-01T15:53:14.006Z</time></trkpt><trkpt lat="42.4550416" lon="14.1373023"><ele>173.0</ele><time>2026-05-01T15:53:15.006Z</time></trkpt><trkpt lat="42.455037" lon="14.137161"><ele>173.0</ele><time>2026-05-01T15:53:16.006Z</time></trkpt><trkpt lat="42.4550361" lon="14.1370257"><ele>173.0</ele><time>2026-05-01T15:53:17.006Z</time></trkpt><trkpt lat="42.4550331" lon="14.1368938"><ele>173.0</ele><time>2026-05-01T15:53:18.006Z</time></trkpt><trkpt lat="42.4550284" lon="14.1367736"><ele>173.0</ele><time>2026-05-01T15:53:19.006Z</time></trkpt><trkpt lat="42.4550276" lon="14.1366644"><ele>173.0</ele><time>2026-05-01T15:53:20.006Z</time></trkpt><trkpt lat="42.4550379" lon="14.1365716"><ele>173.0</ele><time>2026-05-01T15:53:21.006Z</time></trkpt><trkpt lat="42.4550947" lon="14.1364437"><ele>173.0</ele><time>2026-05-01T15:53:23.006Z</time></trkpt><trkpt lat="42.4551564" lon="14.1364072"><ele>173.0</ele><time>2026-05-01T15:53:24.006Z</time></trkpt><trkpt lat="42.4552276" lon="14.1363779"><ele>173.0</ele><time>2026-05-01T15:53:25.006Z</time></trkpt><trkpt lat="42.4553034" lon="14.1363491"><ele>173.0</ele><time>2026-05-01T15:53:26.006Z</time></trkpt><trkpt lat="42.455371" lon="14.1363301"><ele>174.16666666666666</ele><time>2026-05-01T15:53:27.006Z</time></trkpt><trkpt lat="42.4554756" lon="14.1362695"><ele>175.33333333333331</ele><time>2026-05-01T15:53:29.006Z</time></trkpt><trkpt lat="42.4555331" lon="14.1362324"><ele>176.5</ele><time>2026-05-01T15:53:30.006Z</time></trkpt><trkpt lat="42.4555974" lon="14.1361936"><ele>177.66666666666666</ele><time>2026-05-01T15:53:31.006Z</time></trkpt><trkpt lat="42.4556678" lon="14.136145"><ele>178.83333333333334</ele><time>2026-05-01T15:53:32.006Z</time></trkpt><trkpt lat="42.4557454" lon="14.1360951"><ele>180.0</ele><time>2026-05-01T15:53:33.006Z</time></trkpt><trkpt lat="42.4558334" lon="14.1360316"><ele>180.0</ele><time>2026-05-01T15:53:34.006Z</time></trkpt><trkpt lat="42.4559215" lon="14.1359409"><ele>180.0</ele><time>2026-05-01T15:53:35.006Z</time></trkpt><trkpt lat="42.4560071" lon="14.1358395"><ele>180.0</ele><time>2026-05-01T15:53:36.006Z</time></trkpt><trkpt lat="42.45608" lon="14.1357164"><ele>180.0</ele><time>2026-05-01T15:53:37.006Z</time></trkpt><trkpt lat="42.4561457" lon="14.1355676"><ele>183.5</ele><time>2026-05-01T15:53:38.006Z</time></trkpt><trkpt lat="42.4562066" lon="14.1354153"><ele>187.0</ele><time>2026-05-01T15:53:39.006Z</time></trkpt><trkpt lat="42.4562582" lon="14.135251"><ele>190.5</ele><time>2026-05-01T15:53:40.006Z</time></trkpt><trkpt lat="42.45631" lon="14.1350759"><ele>194.0</ele><time>2026-05-01T15:53:41.006Z</time></trkpt><trkpt lat="42.4563619" lon="14.1348952"><ele>185.33333333333334</ele><time>2026-05-01T15:53:42.006Z</time></trkpt><trkpt lat="42.4564209" lon="14.1347091"><ele>176.66666666666669</ele><time>2026-05-01T15:53:43.006Z</time></trkpt><trkpt lat="42.456486" lon="14.1345213"><ele>168.0</ele><time>2026-05-01T15:53:44.006Z</time></trkpt><trkpt lat="42.4565485" lon="14.1343289"><ele>168.0</ele><time>2026-05-01T15:53:45.006Z</time></trkpt><trkpt lat="42.4566093" lon="14.1341385"><ele>168.0</ele><time>2026-05-01T15:53:46.006Z</time></trkpt><trkpt lat="42.4566657" lon="14.133941"><ele>168.0</ele><time>2026-05-01T15:53:47.006Z</time></trkpt><trkpt lat="42.4567105" lon="14.1337293"><ele>168.0</ele><time>2026-05-01T15:53:48.006Z</time></trkpt><trkpt lat="42.4567486" lon="14.1335122"><ele>168.0</ele><time>2026-05-01T15:53:49.006Z</time></trkpt><trkpt lat="42.4567748" lon="14.1333033"><ele>168.0</ele><time>2026-05-01T15:53:50.006Z</time></trkpt><trkpt lat="42.4568008" lon="14.1331079"><ele>167.5</ele><time>2026-05-01T15:53:51.006Z</time></trkpt><trkpt lat="42.4568277" lon="14.1329133"><ele>167.0</ele><time>2026-05-01T15:53:52.006Z</time></trkpt><trkpt lat="42.4568618" lon="14.1327194"><ele>166.5</ele><time>2026-05-01T15:53:53.006Z</time></trkpt><trkpt lat="42.4569087" lon="14.1325294"><ele>166.0</ele><time>2026-05-01T15:53:54.006Z</time></trkpt><trkpt lat="42.4569744" lon="14.1323359"><ele>166.0</ele><time>2026-05-01T15:53:55.006Z</time></trkpt><trkpt lat="42.4570474" lon="14.132139"><ele>166.0</ele><time>2026-05-01T15:53:56.006Z</time></trkpt><trkpt lat="42.4571325" lon="14.131925"><ele>166.0</ele><time>2026-05-01T15:53:57.006Z</time></trkpt><trkpt lat="42.4572159" lon="14.1317246"><ele>164.0</ele><time>2026-05-01T15:53:58.006Z</time></trkpt><trkpt lat="42.4573077" lon="14.1315183"><ele>162.0</ele><time>2026-05-01T15:53:59.006Z</time></trkpt><trkpt lat="42.4573984" lon="14.1313096"><ele>160.0</ele><time>2026-05-01T15:54:00.006Z</time></trkpt><trkpt lat="42.4574893" lon="14.1311002"><ele>160.0</ele><time>2026-05-01T15:54:01.006Z</time></trkpt><trkpt lat="42.4575811" lon="14.1309043"><ele>160.0</ele><time>2026-05-01T15:54:02.006Z</time></trkpt><trkpt lat="42.457689" lon="14.1307289"><ele>160.0</ele><time>2026-05-01T15:54:03.006Z</time></trkpt><trkpt lat="42.4578111" lon="14.1305598"><ele>160.33333333333334</ele><time>2026-05-01T15:54:04.006Z</time></trkpt><trkpt lat="42.4579494" lon="14.1304093"><ele>160.66666666666666</ele><time>2026-05-01T15:54:05.006Z</time></trkpt><trkpt lat="42.4580953" lon="14.1302647"><ele>161.0</ele><time>2026-05-01T15:54:06.006Z</time></trkpt><trkpt lat="42.4582347" lon="14.1301086"><ele>160.66666666666666</ele><time>2026-05-01T15:54:07.006Z</time></trkpt><trkpt lat="42.4583569" lon="14.1299444"><ele>160.33333333333334</ele><time>2026-05-01T15:54:08.006Z</time></trkpt><trkpt lat="42.4584589" lon="14.1297618"><ele>160.0</ele><time>2026-05-01T15:54:09.006Z</time></trkpt><trkpt lat="42.4585481" lon="14.1295542"><ele>160.0</ele><time>2026-05-01T15:54:10.006Z</time></trkpt><trkpt lat="42.4586229" lon="14.1293481"><ele>160.0</ele><time>2026-05-01T15:54:11.006Z</time></trkpt><trkpt lat="42.4586764" lon="14.1291412"><ele>160.0</ele><time>2026-05-01T15:54:12.006Z</time></trkpt><trkpt lat="42.4587121" lon="14.1289324"><ele>158.33333333333334</ele><time>2026-05-01T15:54:13.006Z</time></trkpt><trkpt lat="42.4587181" lon="14.1287195"><ele>156.66666666666666</ele><time>2026-05-01T15:54:14.006Z</time></trkpt><trkpt lat="42.4586983" lon="14.128502"><ele>155.0</ele><time>2026-05-01T15:54:15.006Z</time></trkpt><trkpt lat="42.4586449" lon="14.1282839"><ele>157.66666666666666</ele><time>2026-05-01T15:54:16.006Z</time></trkpt><trkpt lat="42.4585743" lon="14.1280669"><ele>160.33333333333334</ele><time>2026-05-01T15:54:17.006Z</time></trkpt><trkpt lat="42.4584978" lon="14.1278568"><ele>163.0</ele><time>2026-05-01T15:54:18.006Z</time></trkpt><trkpt lat="42.4584249" lon="14.1276619"><ele>163.0</ele><time>2026-05-01T15:54:19.006Z</time></trkpt><trkpt lat="42.4583477" lon="14.1274827"><ele>163.0</ele><time>2026-05-01T15:54:20.006Z</time></trkpt><trkpt lat="42.4582604" lon="14.127331"><ele>163.0</ele><time>2026-05-01T15:54:21.006Z</time></trkpt><trkpt lat="42.458148" lon="14.1271944"><ele>163.0</ele><time>2026-05-01T15:54:22.006Z</time></trkpt><trkpt lat="42.4580216" lon="14.1270807"><ele>164.0</ele><time>2026-05-01T15:54:23.006Z</time></trkpt><trkpt lat="42.4579077" lon="14.1269547"><ele>165.0</ele><time>2026-05-01T15:54:24.006Z</time></trkpt><trkpt lat="42.4578159" lon="14.1268014"><ele>166.0</ele><time>2026-05-01T15:54:25.006Z</time></trkpt><trkpt lat="42.4577402" lon="14.1266354"><ele>167.0</ele><time>2026-05-01T15:54:26.006Z</time></trkpt><trkpt lat="42.4576665" lon="14.1264797"><ele>167.0</ele><time>2026-05-01T15:54:27.006Z</time></trkpt><trkpt lat="42.4575927" lon="14.1263264"><ele>167.0</ele><time>2026-05-01T15:54:28.006Z</time></trkpt><trkpt lat="42.4575158" lon="14.1261735"><ele>167.0</ele><time>2026-05-01T15:54:29.006Z</time></trkpt><trkpt lat="42.4574437" lon="14.1260158"><ele>167.0</ele><time>2026-05-01T15:54:30.006Z</time></trkpt><trkpt lat="42.4573858" lon="14.1258638"><ele>168.39999999999998</ele><time>2026-05-01T15:54:31.006Z</time></trkpt><trkpt lat="42.4573442" lon="14.1257277"><ele>169.79999999999998</ele><time>2026-05-01T15:54:32.006Z</time></trkpt><trkpt lat="42.4573094" lon="14.125594"><ele>171.2</ele><time>2026-05-01T15:54:33.006Z</time></trkpt><trkpt lat="42.4572832" lon="14.1254601"><ele>172.6</ele><time>2026-05-01T15:54:34.006Z</time></trkpt><trkpt lat="42.4572635" lon="14.1253335"><ele>174.0</ele><time>2026-05-01T15:54:35.006Z</time></trkpt><trkpt lat="42.4572475" lon="14.1252089"><ele>174.0</ele><time>2026-05-01T15:54:36.006Z</time></trkpt><trkpt lat="42.4572393" lon="14.1250857"><ele>174.0</ele><time>2026-05-01T15:54:37.006Z</time></trkpt><trkpt lat="42.4572358" lon="14.1249511"><ele>174.0</ele><time>2026-05-01T15:54:38.006Z</time></trkpt><trkpt lat="42.4572408" lon="14.1248148"><ele>174.0</ele><time>2026-05-01T15:54:39.006Z</time></trkpt><trkpt lat="42.4572549" lon="14.1246722"><ele>174.0</ele><time>2026-05-01T15:54:40.006Z</time></trkpt><trkpt lat="42.4572687" lon="14.1245341"><ele>173.39999999999998</ele><time>2026-05-01T15:54:41.006Z</time></trkpt><trkpt lat="42.4572902" lon="14.1243929"><ele>172.8</ele><time>2026-05-01T15:54:42.006Z</time></trkpt><trkpt lat="42.4573211" lon="14.1242519"><ele>172.2</ele><time>2026-05-01T15:54:43.006Z</time></trkpt><trkpt lat="42.457359" lon="14.1241081"><ele>171.60000000000002</ele><time>2026-05-01T15:54:44.006Z</time></trkpt><trkpt lat="42.4573993" lon="14.1239616"><ele>171.0</ele><time>2026-05-01T15:54:45.006Z</time></trkpt><trkpt lat="42.4574454" lon="14.1238142"><ele>169.25</ele><time>2026-05-01T15:54:46.006Z</time></trkpt><trkpt lat="42.4574869" lon="14.1236597"><ele>167.5</ele><time>2026-05-01T15:54:47.006Z</time></trkpt><trkpt lat="42.4575268" lon="14.1235055"><ele>165.75</ele><time>2026-05-01T15:54:48.006Z</time></trkpt><trkpt lat="42.4575682" lon="14.1233518"><ele>164.0</ele><time>2026-05-01T15:54:49.006Z</time></trkpt><trkpt lat="42.4576147" lon="14.1231993"><ele>163.5</ele><time>2026-05-01T15:54:50.006Z</time></trkpt><trkpt lat="42.4576594" lon="14.123052"><ele>163.0</ele><time>2026-05-01T15:54:51.006Z</time></trkpt><trkpt lat="42.4577042" lon="14.1229068"><ele>162.5</ele><time>2026-05-01T15:54:52.006Z</time></trkpt><trkpt lat="42.4577487" lon="14.1227569"><ele>162.0</ele><time>2026-05-01T15:54:53.006Z</time></trkpt><trkpt lat="42.457799" lon="14.1226157"><ele>162.0</ele><time>2026-05-01T15:54:54.006Z</time></trkpt><trkpt lat="42.4578485" lon="14.1224726"><ele>162.0</ele><time>2026-05-01T15:54:55.006Z</time></trkpt><trkpt lat="42.4579061" lon="14.1223221"><ele>162.0</ele><time>2026-05-01T15:54:56.006Z</time></trkpt><trkpt lat="42.4579747" lon="14.1221738"><ele>162.0</ele><time>2026-05-01T15:54:57.006Z</time></trkpt><trkpt lat="42.4580507" lon="14.1220304"><ele>161.5</ele><time>2026-05-01T15:54:58.006Z</time></trkpt><trkpt lat="42.4581382" lon="14.1219041"><ele>161.0</ele><time>2026-05-01T15:54:59.006Z</time></trkpt><trkpt lat="42.4582318" lon="14.1217896"><ele>160.5</ele><time>2026-05-01T15:55:00.006Z</time></trkpt><trkpt lat="42.4583322" lon="14.1216786"><ele>160.0</ele><time>2026-05-01T15:55:01.006Z</time></trkpt><trkpt lat="42.4584367" lon="14.1215747"><ele>160.0</ele><time>2026-05-01T15:55:02.006Z</time></trkpt><trkpt lat="42.4585404" lon="14.1214702"><ele>160.0</ele><time>2026-05-01T15:55:03.006Z</time></trkpt><trkpt lat="42.458642" lon="14.1213586"><ele>160.0</ele><time>2026-05-01T15:55:04.006Z</time></trkpt><trkpt lat="42.4587422" lon="14.1212492"><ele>160.0</ele><time>2026-05-01T15:55:05.006Z</time></trkpt><trkpt lat="42.4588432" lon="14.1211449"><ele>160.0</ele><time>2026-05-01T15:55:06.006Z</time></trkpt><trkpt lat="42.4589381" lon="14.1210447"><ele>160.0</ele><time>2026-05-01T15:55:07.006Z</time></trkpt><trkpt lat="42.4590253" lon="14.1209494"><ele>160.0</ele><time>2026-05-01T15:55:08.006Z</time></trkpt><trkpt lat="42.4591141" lon="14.1208509"><ele>160.0</ele><time>2026-05-01T15:55:09.006Z</time></trkpt><trkpt lat="42.4592047" lon="14.1207522"><ele>160.0</ele><time>2026-05-01T15:55:10.006Z</time></trkpt><trkpt lat="42.4592931" lon="14.1206554"><ele>160.0</ele><time>2026-05-01T15:55:11.006Z</time></trkpt><trkpt lat="42.4593814" lon="14.1205616"><ele>160.0</ele><time>2026-05-01T15:55:12.006Z</time></trkpt><trkpt lat="42.4594659" lon="14.1204806"><ele>160.0</ele><time>2026-05-01T15:55:13.006Z</time></trkpt><trkpt lat="42.4595462" lon="14.1204001"><ele>160.0</ele><time>2026-05-01T15:55:14.006Z</time></trkpt><trkpt lat="42.4596223" lon="14.1203233"><ele>160.0</ele><time>2026-05-01T15:55:15.006Z</time></trkpt><trkpt lat="42.4596965" lon="14.1202528"><ele>160.0</ele><time>2026-05-01T15:55:16.006Z</time></trkpt><trkpt lat="42.4597605" lon="14.120192"><ele>160.0</ele><time>2026-05-01T15:55:17.006Z</time></trkpt><trkpt lat="42.4598156" lon="14.1201497"><ele>160.0</ele><time>2026-05-01T15:55:18.006Z</time></trkpt><trkpt lat="42.4599222" lon="14.1200984"><ele>160.0</ele><time>2026-05-01T15:55:20.006Z</time></trkpt><trkpt lat="42.4599889" lon="14.1200828"><ele>160.0</ele><time>2026-05-01T15:55:21.006Z</time></trkpt><trkpt lat="42.460055" lon="14.1200714"><ele>160.0</ele><time>2026-05-01T15:55:22.006Z</time></trkpt><trkpt lat="42.4601232" lon="14.1200434"><ele>160.0</ele><time>2026-05-01T15:55:23.006Z</time></trkpt><trkpt lat="42.4601974" lon="14.1200218"><ele>160.0</ele><time>2026-05-01T15:55:24.006Z</time></trkpt><trkpt lat="42.4602903" lon="14.1200264"><ele>160.0</ele><time>2026-05-01T15:55:25.006Z</time></trkpt><trkpt lat="42.4604016" lon="14.1200585"><ele>160.0</ele><time>2026-05-01T15:55:26.006Z</time></trkpt><trkpt lat="42.4605107" lon="14.1201076"><ele>160.5</ele><time>2026-05-01T15:55:27.006Z</time></trkpt><trkpt lat="42.4606288" lon="14.1201594"><ele>161.0</ele><time>2026-05-01T15:55:28.006Z</time></trkpt><trkpt lat="42.4607547" lon="14.1202106"><ele>161.5</ele><time>2026-05-01T15:55:29.006Z</time></trkpt><trkpt lat="42.4608921" lon="14.120246"><ele>162.0</ele><time>2026-05-01T15:55:30.006Z</time></trkpt><trkpt lat="42.4610373" lon="14.1202817"><ele>162.0</ele><time>2026-05-01T15:55:31.006Z</time></trkpt><trkpt lat="42.4611824" lon="14.1203218"><ele>162.0</ele><time>2026-05-01T15:55:32.006Z</time></trkpt><trkpt lat="42.4613277" lon="14.1203707"><ele>162.0</ele><time>2026-05-01T15:55:33.006Z</time></trkpt><trkpt lat="42.4614713" lon="14.1204545"><ele>164.33333333333334</ele><time>2026-05-01T15:55:34.006Z</time></trkpt><trkpt lat="42.4616172" lon="14.1205725"><ele>166.66666666666669</ele><time>2026-05-01T15:55:35.006Z</time></trkpt><trkpt lat="42.4617606" lon="14.1206944"><ele>169.0</ele><time>2026-05-01T15:55:36.006Z</time></trkpt><trkpt lat="42.4619116" lon="14.1208038"><ele>168.0</ele><time>2026-05-01T15:55:37.006Z</time></trkpt><trkpt lat="42.4620652" lon="14.1209156"><ele>167.0</ele><time>2026-05-01T15:55:38.006Z</time></trkpt><trkpt lat="42.4622248" lon="14.1210279"><ele>166.0</ele><time>2026-05-01T15:55:39.006Z</time></trkpt><trkpt lat="42.4623859" lon="14.1211397"><ele>166.0</ele><time>2026-05-01T15:55:40.006Z</time></trkpt><trkpt lat="42.4625392" lon="14.1212601"><ele>166.0</ele><time>2026-05-01T15:55:41.006Z</time></trkpt><trkpt lat="42.4626923" lon="14.1213754"><ele>166.0</ele><time>2026-05-01T15:55:42.006Z</time></trkpt><trkpt lat="42.4628461" lon="14.121498"><ele>162.33333333333334</ele><time>2026-05-01T15:55:43.006Z</time></trkpt><trkpt lat="42.4630019" lon="14.1216078"><ele>158.66666666666666</ele><time>2026-05-01T15:55:44.006Z</time></trkpt><trkpt lat="42.4631528" lon="14.1217216"><ele>155.0</ele><time>2026-05-01T15:55:45.006Z</time></trkpt><trkpt lat="42.4633045" lon="14.1218303"><ele>155.0</ele><time>2026-05-01T15:55:46.006Z</time></trkpt><trkpt lat="42.4634453" lon="14.1219314"><ele>155.0</ele><time>2026-05-01T15:55:47.006Z</time></trkpt><trkpt lat="42.4635783" lon="14.1220209"><ele>155.0</ele><time>2026-05-01T15:55:48.006Z</time></trkpt><trkpt lat="42.4637052" lon="14.1221191"><ele>153.66666666666666</ele><time>2026-05-01T15:55:49.006Z</time></trkpt><trkpt lat="42.4638285" lon="14.1222397"><ele>152.33333333333334</ele><time>2026-05-01T15:55:50.006Z</time></trkpt><trkpt lat="42.4639384" lon="14.1224037"><ele>151.0</ele><time>2026-05-01T15:55:51.006Z</time></trkpt><trkpt lat="42.4640358" lon="14.1225886"><ele>150.33333333333334</ele><time>2026-05-01T15:55:52.006Z</time></trkpt><trkpt lat="42.464124" lon="14.1227903"><ele>149.66666666666666</ele><time>2026-05-01T15:55:53.006Z</time></trkpt><trkpt lat="42.4642043" lon="14.1229925"><ele>149.0</ele><time>2026-05-01T15:55:54.006Z</time></trkpt><trkpt lat="42.4642771" lon="14.1232007"><ele>149.0</ele><time>2026-05-01T15:55:55.006Z</time></trkpt><trkpt lat="42.4643365" lon="14.1234155"><ele>149.0</ele><time>2026-05-01T15:55:56.006Z</time></trkpt><trkpt lat="42.464391" lon="14.1236403"><ele>149.0</ele><time>2026-05-01T15:55:57.006Z</time></trkpt><trkpt lat="42.4644563" lon="14.1238528"><ele>149.0</ele><time>2026-05-01T15:55:58.006Z</time></trkpt><trkpt lat="42.464545" lon="14.124046"><ele>149.0</ele><time>2026-05-01T15:55:59.006Z</time></trkpt><trkpt lat="42.4646507" lon="14.1242284"><ele>149.0</ele><time>2026-05-01T15:56:00.006Z</time></trkpt><trkpt lat="42.4647676" lon="14.1244031"><ele>148.66666666666666</ele><time>2026-05-01T15:56:01.006Z</time></trkpt><trkpt lat="42.4648974" lon="14.1245605"><ele>148.33333333333334</ele><time>2026-05-01T15:56:02.006Z</time></trkpt><trkpt lat="42.465017" lon="14.1247221"><ele>148.0</ele><time>2026-05-01T15:56:03.006Z</time></trkpt><trkpt lat="42.4651258" lon="14.1248973"><ele>148.0</ele><time>2026-05-01T15:56:04.006Z</time></trkpt><trkpt lat="42.4652278" lon="14.125093"><ele>148.0</ele><time>2026-05-01T15:56:05.006Z</time></trkpt><trkpt lat="42.4653337" lon="14.1252888"><ele>148.0</ele><time>2026-05-01T15:56:06.006Z</time></trkpt><trkpt lat="42.4654502" lon="14.1254742"><ele>146.33333333333334</ele><time>2026-05-01T15:56:07.006Z</time></trkpt><trkpt lat="42.4655784" lon="14.1256498"><ele>144.66666666666666</ele><time>2026-05-01T15:56:08.006Z</time></trkpt><trkpt lat="42.4657091" lon="14.1258054"><ele>143.0</ele><time>2026-05-01T15:56:09.006Z</time></trkpt><trkpt lat="42.4658435" lon="14.1259426"><ele>143.0</ele><time>2026-05-01T15:56:10.006Z</time></trkpt><trkpt lat="42.4659876" lon="14.1260345"><ele>143.0</ele><time>2026-05-01T15:56:11.006Z</time></trkpt><trkpt lat="42.4661544" lon="14.1260864"><ele>143.0</ele><time>2026-05-01T15:56:12.006Z</time></trkpt><trkpt lat="42.4663226" lon="14.1261124"><ele>140.75</ele><time>2026-05-01T15:56:13.006Z</time></trkpt><trkpt lat="42.4664812" lon="14.1261466"><ele>138.5</ele><time>2026-05-01T15:56:14.006Z</time></trkpt><trkpt lat="42.4666204" lon="14.1261977"><ele>136.25</ele><time>2026-05-01T15:56:15.006Z</time></trkpt><trkpt lat="42.4667396" lon="14.126288"><ele>134.0</ele><time>2026-05-01T15:56:16.006Z</time></trkpt><trkpt lat="42.466832" lon="14.1264333"><ele>135.66666666666666</ele><time>2026-05-01T15:56:17.006Z</time></trkpt><trkpt lat="42.4669125" lon="14.1266061"><ele>137.33333333333334</ele><time>2026-05-01T15:56:18.006Z</time></trkpt><trkpt lat="42.4669985" lon="14.1267934"><ele>139.0</ele><time>2026-05-01T15:56:19.006Z</time></trkpt><trkpt lat="42.4670907" lon="14.126977"><ele>137.66666666666669</ele><time>2026-05-01T15:56:20.006Z</time></trkpt><trkpt lat="42.4671836" lon="14.1271669"><ele>136.33333333333334</ele><time>2026-05-01T15:56:21.006Z</time></trkpt><trkpt lat="42.467275" lon="14.1273619"><ele>135.0</ele><time>2026-05-01T15:56:22.006Z</time></trkpt><trkpt lat="42.4673542" lon="14.1275652"><ele>138.33333333333334</ele><time>2026-05-01T15:56:23.006Z</time></trkpt><trkpt lat="42.4674307" lon="14.1277678"><ele>141.66666666666669</ele><time>2026-05-01T15:56:24.006Z</time></trkpt><trkpt lat="42.4675035" lon="14.1279655"><ele>145.0</ele><time>2026-05-01T15:56:25.006Z</time></trkpt><trkpt lat="42.4675768" lon="14.128155"><ele>145.5</ele><time>2026-05-01T15:56:26.006Z</time></trkpt><trkpt lat="42.467645" lon="14.1283436"><ele>146.0</ele><time>2026-05-01T15:56:27.006Z</time></trkpt><trkpt lat="42.4677129" lon="14.1284968"><ele>146.5</ele><time>2026-05-01T15:56:28.006Z</time></trkpt><trkpt lat="42.4677993" lon="14.1286321"><ele>147.0</ele><time>2026-05-01T15:56:29.006Z</time></trkpt><trkpt lat="42.4679046" lon="14.1287273"><ele>150.33333333333334</ele><time>2026-05-01T15:56:30.006Z</time></trkpt><trkpt lat="42.4680383" lon="14.1288034"><ele>153.66666666666669</ele><time>2026-05-01T15:56:31.006Z</time></trkpt><trkpt lat="42.4681938" lon="14.128859"><ele>157.0</ele><time>2026-05-01T15:56:32.006Z</time></trkpt><trkpt lat="42.4683543" lon="14.1289034"><ele>157.0</ele><time>2026-05-01T15:56:33.006Z</time></trkpt><trkpt lat="42.4685186" lon="14.1289527"><ele>157.0</ele><time>2026-05-01T15:56:34.006Z</time></trkpt><trkpt lat="42.4686794" lon="14.1290081"><ele>157.0</ele><time>2026-05-01T15:56:35.006Z</time></trkpt><trkpt lat="42.4688392" lon="14.1290671"><ele>155.25</ele><time>2026-05-01T15:56:36.006Z</time></trkpt><trkpt lat="42.4689831" lon="14.1291341"><ele>153.5</ele><time>2026-05-01T15:56:37.006Z</time></trkpt><trkpt lat="42.4691234" lon="14.1291858"><ele>151.75</ele><time>2026-05-01T15:56:38.006Z</time></trkpt><trkpt lat="42.4692614" lon="14.1292659"><ele>150.0</ele><time>2026-05-01T15:56:39.006Z</time></trkpt><trkpt lat="42.4694015" lon="14.1293666"><ele>150.0</ele><time>2026-05-01T15:56:40.006Z</time></trkpt><trkpt lat="42.4695347" lon="14.129496"><ele>150.0</ele><time>2026-05-01T15:56:41.006Z</time></trkpt><trkpt lat="42.4696636" lon="14.1296369"><ele>150.0</ele><time>2026-05-01T15:56:42.006Z</time></trkpt><trkpt lat="42.4697941" lon="14.1297856"><ele>150.0</ele><time>2026-05-01T15:56:43.006Z</time></trkpt><trkpt lat="42.4699224" lon="14.1299384"><ele>150.0</ele><time>2026-05-01T15:56:44.006Z</time></trkpt><trkpt lat="42.4700586" lon="14.1300982"><ele>150.0</ele><time>2026-05-01T15:56:45.006Z</time></trkpt><trkpt lat="42.4701919" lon="14.1302623"><ele>150.0</ele><time>2026-05-01T15:56:46.006Z</time></trkpt><trkpt lat="42.4703258" lon="14.130419"><ele>150.0</ele><time>2026-05-01T15:56:47.006Z</time></trkpt><trkpt lat="42.4704591" lon="14.1305784"><ele>150.0</ele><time>2026-05-01T15:56:48.006Z</time></trkpt><trkpt lat="42.4705924" lon="14.1307417"><ele>148.0</ele><time>2026-05-01T15:56:49.006Z</time></trkpt><trkpt lat="42.4707227" lon="14.1309062"><ele>146.0</ele><time>2026-05-01T15:56:50.006Z</time></trkpt><trkpt lat="42.470851" lon="14.1310694"><ele>144.0</ele><time>2026-05-01T15:56:51.006Z</time></trkpt><trkpt lat="42.4709787" lon="14.1312266"><ele>144.0</ele><time>2026-05-01T15:56:52.006Z</time></trkpt><trkpt lat="42.4711042" lon="14.1313747"><ele>144.0</ele><time>2026-05-01T15:56:53.006Z</time></trkpt><trkpt lat="42.4712282" lon="14.1315295"><ele>144.0</ele><time>2026-05-01T15:56:54.006Z</time></trkpt><trkpt lat="42.4713461" lon="14.1316877"><ele>143.33333333333334</ele><time>2026-05-01T15:56:55.006Z</time></trkpt><trkpt lat="42.4714428" lon="14.1318536"><ele>142.66666666666669</ele><time>2026-05-01T15:56:56.006Z</time></trkpt><trkpt lat="42.4715056" lon="14.1320353"><ele>142.0</ele><time>2026-05-01T15:56:57.006Z</time></trkpt><trkpt lat="42.4715243" lon="14.1322422"><ele>144.0</ele><time>2026-05-01T15:56:58.006Z</time></trkpt><trkpt lat="42.4715356" lon="14.1324429"><ele>146.0</ele><time>2026-05-01T15:56:59.006Z</time></trkpt><trkpt lat="42.471555" lon="14.1326509"><ele>148.0</ele><time>2026-05-01T15:57:00.006Z</time></trkpt><trkpt lat="42.4715938" lon="14.132854"><ele>148.0</ele><time>2026-05-01T15:57:01.006Z</time></trkpt><trkpt lat="42.4716545" lon="14.1330439"><ele>148.0</ele><time>2026-05-01T15:57:02.006Z</time></trkpt><trkpt lat="42.4717295" lon="14.13319"><ele>148.0</ele><time>2026-05-01T15:57:03.006Z</time></trkpt><trkpt lat="42.4718323" lon="14.1332853"><ele>148.0</ele><time>2026-05-01T15:57:04.006Z</time></trkpt><trkpt lat="42.47196" lon="14.1333434"><ele>148.0</ele><time>2026-05-01T15:57:05.006Z</time></trkpt><trkpt lat="42.4721014" lon="14.1333635"><ele>148.0</ele><time>2026-05-01T15:57:06.006Z</time></trkpt><trkpt lat="42.4722542" lon="14.1333688"><ele>148.0</ele><time>2026-05-01T15:57:07.006Z</time></trkpt><trkpt lat="42.4723979" lon="14.1333948"><ele>148.0</ele><time>2026-05-01T15:57:08.006Z</time></trkpt><trkpt lat="42.4725309" lon="14.1334701"><ele>150.5</ele><time>2026-05-01T15:57:09.006Z</time></trkpt><trkpt lat="42.4726427" lon="14.1335775"><ele>153.0</ele><time>2026-05-01T15:57:10.006Z</time></trkpt><trkpt lat="42.4727498" lon="14.1337176"><ele>155.5</ele><time>2026-05-01T15:57:11.006Z</time></trkpt><trkpt lat="42.4728641" lon="14.1338459"><ele>158.0</ele><time>2026-05-01T15:57:12.006Z</time></trkpt><trkpt lat="42.4729991" lon="14.1339323"><ele>160.0</ele><time>2026-05-01T15:57:13.006Z</time></trkpt><trkpt lat="42.4731343" lon="14.1340133"><ele>162.0</ele><time>2026-05-01T15:57:14.006Z</time></trkpt><trkpt lat="42.4732488" lon="14.1341094"><ele>164.0</ele><time>2026-05-01T15:57:15.006Z</time></trkpt><trkpt lat="42.4733424" lon="14.1342117"><ele>166.0</ele><time>2026-05-01T15:57:16.006Z</time></trkpt><trkpt lat="42.4734225" lon="14.1343176"><ele>166.0</ele><time>2026-05-01T15:57:17.006Z</time></trkpt><trkpt lat="42.4734892" lon="14.1344172"><ele>166.0</ele><time>2026-05-01T15:57:18.006Z</time></trkpt><trkpt lat="42.4735441" lon="14.1345295"><ele>166.0</ele><time>2026-05-01T15:57:19.006Z</time></trkpt><trkpt lat="42.4735762" lon="14.1346513"><ele>166.0</ele><time>2026-05-01T15:57:20.006Z</time></trkpt><trkpt lat="42.473594" lon="14.1347871"><ele>166.0</ele><time>2026-05-01T15:57:21.006Z</time></trkpt><trkpt lat="42.4736101" lon="14.1349218"><ele>164.4</ele><time>2026-05-01T15:57:22.006Z</time></trkpt><trkpt lat="42.4736329" lon="14.1350506"><ele>162.8</ele><time>2026-05-01T15:57:23.006Z</time></trkpt><trkpt lat="42.4736682" lon="14.1351767"><ele>161.20000000000002</ele><time>2026-05-01T15:57:24.006Z</time></trkpt><trkpt lat="42.4737078" lon="14.1352933"><ele>159.60000000000002</ele><time>2026-05-01T15:57:25.006Z</time></trkpt><trkpt lat="42.4737559" lon="14.1353865"><ele>158.0</ele><time>2026-05-01T15:57:26.006Z</time></trkpt><trkpt lat="42.4738219" lon="14.1354674"><ele>162.60000000000002</ele><time>2026-05-01T15:57:27.006Z</time></trkpt><trkpt lat="42.4739046" lon="14.135525"><ele>167.20000000000002</ele><time>2026-05-01T15:57:28.006Z</time></trkpt><trkpt lat="42.4739955" lon="14.1355718"><ele>171.8</ele><time>2026-05-01T15:57:29.006Z</time></trkpt><trkpt lat="42.4740928" lon="14.1356137"><ele>176.4</ele><time>2026-05-01T15:57:30.006Z</time></trkpt><trkpt lat="42.4741915" lon="14.1356587"><ele>181.0</ele><time>2026-05-01T15:57:31.006Z</time></trkpt><trkpt lat="42.4742803" lon="14.1357088"><ele>181.4</ele><time>2026-05-01T15:57:32.006Z</time></trkpt><trkpt lat="42.4743643" lon="14.135769"><ele>181.8</ele><time>2026-05-01T15:57:33.006Z</time></trkpt><trkpt lat="42.4744448" lon="14.1358499"><ele>182.20000000000002</ele><time>2026-05-01T15:57:34.006Z</time></trkpt><trkpt lat="42.4745262" lon="14.1359385"><ele>182.60000000000002</ele><time>2026-05-01T15:57:35.006Z</time></trkpt><trkpt lat="42.4746152" lon="14.1360179"><ele>183.0</ele><time>2026-05-01T15:57:36.006Z</time></trkpt><trkpt lat="42.4747115" lon="14.1360844"><ele>183.0</ele><time>2026-05-01T15:57:37.006Z</time></trkpt><trkpt lat="42.474815" lon="14.136128"><ele>183.0</ele><time>2026-05-01T15:57:38.006Z</time></trkpt><trkpt lat="42.4749196" lon="14.1361587"><ele>183.0</ele><time>2026-05-01T15:57:39.006Z</time></trkpt><trkpt lat="42.4750251" lon="14.1361913"><ele>183.0</ele><time>2026-05-01T15:57:40.006Z</time></trkpt><trkpt lat="42.4751225" lon="14.1362388"><ele>183.0</ele><time>2026-05-01T15:57:41.006Z</time></trkpt><trkpt lat="42.4752045" lon="14.1363122"><ele>183.0</ele><time>2026-05-01T15:57:42.006Z</time></trkpt><trkpt lat="42.4752699" lon="14.1364197"><ele>183.0</ele><time>2026-05-01T15:57:43.006Z</time></trkpt><trkpt lat="42.4753278" lon="14.1365319"><ele>183.0</ele><time>2026-05-01T15:57:44.006Z</time></trkpt><trkpt lat="42.4753927" lon="14.1366294"><ele>183.0</ele><time>2026-05-01T15:57:45.006Z</time></trkpt><trkpt lat="42.475477" lon="14.1367274"><ele>183.0</ele><time>2026-05-01T15:57:46.006Z</time></trkpt><trkpt lat="42.4755794" lon="14.1368074"><ele>183.0</ele><time>2026-05-01T15:57:47.006Z</time></trkpt><trkpt lat="42.4756812" lon="14.1368779"><ele>183.0</ele><time>2026-05-01T15:57:48.006Z</time></trkpt><trkpt lat="42.4757865" lon="14.1369449"><ele>183.0</ele><time>2026-05-01T15:57:49.006Z</time></trkpt><trkpt lat="42.4759044" lon="14.1370203"><ele>183.0</ele><time>2026-05-01T15:57:50.006Z</time></trkpt><trkpt lat="42.4760201" lon="14.1370889"><ele>183.0</ele><time>2026-05-01T15:57:51.006Z</time></trkpt><trkpt lat="42.4761331" lon="14.1371587"><ele>183.0</ele><time>2026-05-01T15:57:52.006Z</time></trkpt><trkpt lat="42.4762431" lon="14.1372237"><ele>183.0</ele><time>2026-05-01T15:57:53.006Z</time></trkpt><trkpt lat="42.4763535" lon="14.1372852"><ele>183.0</ele><time>2026-05-01T15:57:54.006Z</time></trkpt><trkpt lat="42.4764605" lon="14.1373385"><ele>182.0</ele><time>2026-05-01T15:57:55.006Z</time></trkpt><trkpt lat="42.4765725" lon="14.1373869"><ele>181.0</ele><time>2026-05-01T15:57:56.006Z</time></trkpt><trkpt lat="42.4766913" lon="14.1374195"><ele>180.0</ele><time>2026-05-01T15:57:57.006Z</time></trkpt><trkpt lat="42.476807" lon="14.1374436"><ele>179.0</ele><time>2026-05-01T15:57:58.006Z</time></trkpt><trkpt lat="42.4769191" lon="14.1374557"><ele>179.0</ele><time>2026-05-01T15:57:59.006Z</time></trkpt><trkpt lat="42.4770352" lon="14.1374714"><ele>179.0</ele><time>2026-05-01T15:58:00.006Z</time></trkpt><trkpt lat="42.4771574" lon="14.1374656"><ele>179.0</ele><time>2026-05-01T15:58:01.006Z</time></trkpt><trkpt lat="42.4772858" lon="14.1374607"><ele>179.0</ele><time>2026-05-01T15:58:02.006Z</time></trkpt><trkpt lat="42.4774197" lon="14.1374361"><ele>179.75</ele><time>2026-05-01T15:58:03.006Z</time></trkpt><trkpt lat="42.4775592" lon="14.1373952"><ele>180.5</ele><time>2026-05-01T15:58:04.006Z</time></trkpt><trkpt lat="42.477704" lon="14.1373395"><ele>181.25</ele><time>2026-05-01T15:58:05.006Z</time></trkpt><trkpt lat="42.4778429" lon="14.1372837"><ele>182.0</ele><time>2026-05-01T15:58:06.006Z</time></trkpt><trkpt lat="42.4779735" lon="14.1372306"><ele>178.5</ele><time>2026-05-01T15:58:07.006Z</time></trkpt><trkpt lat="42.4780933" lon="14.1371937"><ele>175.0</ele><time>2026-05-01T15:58:08.006Z</time></trkpt><trkpt lat="42.4782073" lon="14.1371888"><ele>171.5</ele><time>2026-05-01T15:58:09.006Z</time></trkpt><trkpt lat="42.4783238" lon="14.1372175"><ele>168.0</ele><time>2026-05-01T15:58:10.006Z</time></trkpt><trkpt lat="42.478434" lon="14.137261"><ele>168.0</ele><time>2026-05-01T15:58:11.006Z</time></trkpt><trkpt lat="42.4785488" lon="14.1373032"><ele>168.0</ele><time>2026-05-01T15:58:12.006Z</time></trkpt><trkpt lat="42.4786787" lon="14.1373151"><ele>168.0</ele><time>2026-05-01T15:58:13.006Z</time></trkpt><trkpt lat="42.4788085" lon="14.1372905"><ele>168.0</ele><time>2026-05-01T15:58:14.006Z</time></trkpt><trkpt lat="42.4789366" lon="14.1372284"><ele>167.75</ele><time>2026-05-01T15:58:15.006Z</time></trkpt><trkpt lat="42.4790531" lon="14.1371508"><ele>167.5</ele><time>2026-05-01T15:58:16.006Z</time></trkpt><trkpt lat="42.4791652" lon="14.1370616"><ele>167.25</ele><time>2026-05-01T15:58:17.006Z</time></trkpt><trkpt lat="42.4792608" lon="14.1369567"><ele>167.0</ele><time>2026-05-01T15:58:18.006Z</time></trkpt><trkpt lat="42.4793408" lon="14.1368331"><ele>167.0</ele><time>2026-05-01T15:58:19.006Z</time></trkpt><trkpt lat="42.4794168" lon="14.1366972"><ele>167.0</ele><time>2026-05-01T15:58:20.006Z</time></trkpt><trkpt lat="42.4794878" lon="14.1365702"><ele>167.0</ele><time>2026-05-01T15:58:21.006Z</time></trkpt><trkpt lat="42.479561" lon="14.1364398"><ele>167.0</ele><time>2026-05-01T15:58:22.006Z</time></trkpt><trkpt lat="42.4796392" lon="14.1363343"><ele>166.5</ele><time>2026-05-01T15:58:23.006Z</time></trkpt><trkpt lat="42.479725" lon="14.1362352"><ele>166.0</ele><time>2026-05-01T15:58:24.006Z</time></trkpt><trkpt lat="42.4798065" lon="14.1361359"><ele>165.5</ele><time>2026-05-01T15:58:25.006Z</time></trkpt><trkpt lat="42.479881" lon="14.136009"><ele>165.0</ele><time>2026-05-01T15:58:26.006Z</time></trkpt><trkpt lat="42.4799362" lon="14.1358402"><ele>163.0</ele><time>2026-05-01T15:58:27.006Z</time></trkpt><trkpt lat="42.4799702" lon="14.135665"><ele>161.0</ele><time>2026-05-01T15:58:28.006Z</time></trkpt><trkpt lat="42.4800132" lon="14.1355004"><ele>159.0</ele><time>2026-05-01T15:58:29.006Z</time></trkpt><trkpt lat="42.4800587" lon="14.1353461"><ele>157.0</ele><time>2026-05-01T15:58:30.006Z</time></trkpt><trkpt lat="42.480123" lon="14.1352056"><ele>157.0</ele><time>2026-05-01T15:58:31.006Z</time></trkpt><trkpt lat="42.4802159" lon="14.1350859"><ele>157.0</ele><time>2026-05-01T15:58:32.006Z</time></trkpt><trkpt lat="42.4803213" lon="14.1349744"><ele>157.0</ele><time>2026-05-01T15:58:33.006Z</time></trkpt><trkpt lat="42.4804362" lon="14.134888"><ele>157.0</ele><time>2026-05-01T15:58:34.006Z</time></trkpt><trkpt lat="42.4805517" lon="14.1348262"><ele>157.2</ele><time>2026-05-01T15:58:35.006Z</time></trkpt><trkpt lat="42.480665" lon="14.1347907"><ele>157.39999999999998</ele><time>2026-05-01T15:58:36.006Z</time></trkpt><trkpt lat="42.4807728" lon="14.134814"><ele>157.60000000000002</ele><time>2026-05-01T15:58:37.006Z</time></trkpt><trkpt lat="42.4808656" lon="14.1348694"><ele>157.8</ele><time>2026-05-01T15:58:38.006Z</time></trkpt><trkpt lat="42.4809529" lon="14.1349641"><ele>158.0</ele><time>2026-05-01T15:58:39.006Z</time></trkpt><trkpt lat="42.4810332" lon="14.1350727"><ele>158.0</ele><time>2026-05-01T15:58:40.006Z</time></trkpt><trkpt lat="42.4811036" lon="14.1352077"><ele>158.0</ele><time>2026-05-01T15:58:41.006Z</time></trkpt><trkpt lat="42.4811614" lon="14.1353647"><ele>158.0</ele><time>2026-05-01T15:58:42.006Z</time></trkpt><trkpt lat="42.481217" lon="14.1355407"><ele>158.0</ele><time>2026-05-01T15:58:43.006Z</time></trkpt><trkpt lat="42.481272" lon="14.1357187"><ele>155.25</ele><time>2026-05-01T15:58:44.006Z</time></trkpt><trkpt lat="42.4813334" lon="14.1359001"><ele>152.5</ele><time>2026-05-01T15:58:45.006Z</time></trkpt><trkpt lat="42.4813927" lon="14.1360675"><ele>149.75</ele><time>2026-05-01T15:58:46.006Z</time></trkpt><trkpt lat="42.4814451" lon="14.13621"><ele>147.0</ele><time>2026-05-01T15:58:47.006Z</time></trkpt><trkpt lat="42.4814926" lon="14.136337"><ele>147.0</ele><time>2026-05-01T15:58:48.006Z</time></trkpt><trkpt lat="42.4815393" lon="14.1364376"><ele>147.0</ele><time>2026-05-01T15:58:49.006Z</time></trkpt><trkpt lat="42.4816005" lon="14.1365103"><ele>147.0</ele><time>2026-05-01T15:58:50.006Z</time></trkpt><trkpt lat="42.4816767" lon="14.1365575"><ele>147.0</ele><time>2026-05-01T15:58:51.006Z</time></trkpt><trkpt lat="42.4817583" lon="14.1365741"><ele>147.0</ele><time>2026-05-01T15:58:52.006Z</time></trkpt><trkpt lat="42.4818397" lon="14.1365679"><ele>147.0</ele><time>2026-05-01T15:58:53.006Z</time></trkpt><trkpt lat="42.4819237" lon="14.1365454"><ele>147.0</ele><time>2026-05-01T15:58:54.006Z</time></trkpt><trkpt lat="42.4819926" lon="14.1364946"><ele>147.0</ele><time>2026-05-01T15:58:55.006Z</time></trkpt><trkpt lat="42.4820532" lon="14.1363984"><ele>147.0</ele><time>2026-05-01T15:58:56.006Z</time></trkpt><trkpt lat="42.4820962" lon="14.136286"><ele>147.0</ele><time>2026-05-01T15:58:57.006Z</time></trkpt><trkpt lat="42.4821317" lon="14.136148"><ele>147.0</ele><time>2026-05-01T15:58:58.006Z</time></trkpt><trkpt lat="42.4821617" lon="14.1360012"><ele>145.33333333333334</ele><time>2026-05-01T15:58:59.006Z</time></trkpt><trkpt lat="42.4822026" lon="14.1358323"><ele>143.66666666666669</ele><time>2026-05-01T15:59:00.006Z</time></trkpt><trkpt lat="42.4822405" lon="14.1356178"><ele>142.0</ele><time>2026-05-01T15:59:01.006Z</time></trkpt><trkpt lat="42.4822754" lon="14.1353976"><ele>141.0</ele><time>2026-05-01T15:59:02.006Z</time></trkpt><trkpt lat="42.4823229" lon="14.1351698"><ele>140.0</ele><time>2026-05-01T15:59:03.006Z</time></trkpt><trkpt lat="42.4823761" lon="14.1349295"><ele>139.0</ele><time>2026-05-01T15:59:04.006Z</time></trkpt><trkpt lat="42.4824325" lon="14.1346751"><ele>138.33333333333334</ele><time>2026-05-01T15:59:05.006Z</time></trkpt><trkpt lat="42.4824947" lon="14.1344127"><ele>137.66666666666666</ele><time>2026-05-01T15:59:06.006Z</time></trkpt><trkpt lat="42.4825579" lon="14.1341558"><ele>137.0</ele><time>2026-05-01T15:59:07.006Z</time></trkpt><trkpt lat="42.4826191" lon="14.133912"><ele>136.0</ele><time>2026-05-01T15:59:08.006Z</time></trkpt><trkpt lat="42.4826701" lon="14.1337071"><ele>135.0</ele><time>2026-05-01T15:59:09.006Z</time></trkpt><trkpt lat="42.4827215" lon="14.1335376"><ele>134.0</ele><time>2026-05-01T15:59:10.006Z</time></trkpt><trkpt lat="42.4827897" lon="14.1334007"><ele>133.0</ele><time>2026-05-01T15:59:11.006Z</time></trkpt><trkpt lat="42.482887" lon="14.1332908"><ele>131.66666666666669</ele><time>2026-05-01T15:59:12.006Z</time></trkpt><trkpt lat="42.4830173" lon="14.1332118"><ele>130.33333333333334</ele><time>2026-05-01T15:59:13.006Z</time></trkpt><trkpt lat="42.4831681" lon="14.133144"><ele>129.0</ele><time>2026-05-01T15:59:14.006Z</time></trkpt><trkpt lat="42.4833139" lon="14.133078"><ele>129.0</ele><time>2026-05-01T15:59:15.006Z</time></trkpt><trkpt lat="42.4834591" lon="14.1330082"><ele>129.0</ele><time>2026-05-01T15:59:16.006Z</time></trkpt><trkpt lat="42.4836103" lon="14.1329286"><ele>129.0</ele><time>2026-05-01T15:59:17.005Z</time></trkpt><trkpt lat="42.4837686" lon="14.132853"><ele>127.66666666666666</ele><time>2026-05-01T15:59:18.005Z</time></trkpt><trkpt lat="42.4839376" lon="14.1327667"><ele>126.33333333333333</ele><time>2026-05-01T15:59:19.005Z</time></trkpt><trkpt lat="42.4841121" lon="14.1326886"><ele>125.0</ele><time>2026-05-01T15:59:20.005Z</time></trkpt><trkpt lat="42.4842885" lon="14.1326061"><ele>125.0</ele><time>2026-05-01T15:59:21.005Z</time></trkpt><trkpt lat="42.4844614" lon="14.1325256"><ele>125.0</ele><time>2026-05-01T15:59:22.005Z</time></trkpt><trkpt lat="42.4846235" lon="14.1324438"><ele>125.0</ele><time>2026-05-01T15:59:23.005Z</time></trkpt><trkpt lat="42.4847704" lon="14.1323745"><ele>123.75</ele><time>2026-05-01T15:59:24.005Z</time></trkpt><trkpt lat="42.4849156" lon="14.1323224"><ele>122.5</ele><time>2026-05-01T15:59:25.005Z</time></trkpt><trkpt lat="42.4850566" lon="14.1323195"><ele>121.25</ele><time>2026-05-01T15:59:26.005Z</time></trkpt><trkpt lat="42.4851902" lon="14.1323505"><ele>120.0</ele><time>2026-05-01T15:59:27.005Z</time></trkpt><trkpt lat="42.4853239" lon="14.1324238"><ele>119.33333333333334</ele><time>2026-05-01T15:59:28.005Z</time></trkpt><trkpt lat="42.4854438" lon="14.1325461"><ele>118.66666666666667</ele><time>2026-05-01T15:59:29.005Z</time></trkpt><trkpt lat="42.4855572" lon="14.1326854"><ele>118.0</ele><time>2026-05-01T15:59:30.005Z</time></trkpt><trkpt lat="42.4856699" lon="14.1328206"><ele>118.0</ele><time>2026-05-01T15:59:31.005Z</time></trkpt><trkpt lat="42.4857854" lon="14.132955"><ele>118.0</ele><time>2026-05-01T15:59:32.005Z</time></trkpt><trkpt lat="42.4858996" lon="14.1330833"><ele>118.0</ele><time>2026-05-01T15:59:33.005Z</time></trkpt><trkpt lat="42.4860071" lon="14.1332074"><ele>118.0</ele><time>2026-05-01T15:59:34.005Z</time></trkpt><trkpt lat="42.4861035" lon="14.1333265"><ele>117.75</ele><time>2026-05-01T15:59:35.005Z</time></trkpt><trkpt lat="42.4861999" lon="14.1334406"><ele>117.5</ele><time>2026-05-01T15:59:36.005Z</time></trkpt><trkpt lat="42.4862938" lon="14.1335429"><ele>117.25</ele><time>2026-05-01T15:59:37.005Z</time></trkpt><trkpt lat="42.4863761" lon="14.1336377"><ele>117.0</ele><time>2026-05-01T15:59:38.005Z</time></trkpt><trkpt lat="42.4864418" lon="14.1337297"><ele>117.0</ele><time>2026-05-01T15:59:39.005Z</time></trkpt><trkpt lat="42.4865004" lon="14.1338098"><ele>116.99999999999999</ele><time>2026-05-01T15:59:40.005Z</time></trkpt><trkpt lat="42.4865568" lon="14.1338858"><ele>116.99999999999999</ele><time>2026-05-01T15:59:41.005Z</time></trkpt><trkpt lat="42.4866148" lon="14.1339842"><ele>117.0</ele><time>2026-05-01T15:59:42.005Z</time></trkpt><trkpt lat="42.4866569" lon="14.1341131"><ele>117.0</ele><time>2026-05-01T15:59:43.005Z</time></trkpt><trkpt lat="42.4866856" lon="14.1342738"><ele>117.0</ele><time>2026-05-01T15:59:44.005Z</time></trkpt><trkpt lat="42.4867076" lon="14.1344332"><ele>117.0</ele><time>2026-05-01T15:59:45.005Z</time></trkpt><trkpt lat="42.4867343" lon="14.1345959"><ele>117.0</ele><time>2026-05-01T15:59:46.005Z</time></trkpt><trkpt lat="42.486764" lon="14.1347579"><ele>117.0</ele><time>2026-05-01T15:59:47.005Z</time></trkpt><trkpt lat="42.4867952" lon="14.1349242"><ele>117.0</ele><time>2026-05-01T15:59:48.005Z</time></trkpt><trkpt lat="42.4868245" lon="14.1350909"><ele>117.0</ele><time>2026-05-01T15:59:49.005Z</time></trkpt><trkpt lat="42.4868485" lon="14.1352517"><ele>117.0</ele><time>2026-05-01T15:59:50.006Z</time></trkpt><trkpt lat="42.4868773" lon="14.1354073"><ele>117.0</ele><time>2026-05-01T15:59:51.005Z</time></trkpt><trkpt lat="42.4869107" lon="14.1355561"><ele>117.0</ele><time>2026-05-01T15:59:52.005Z</time></trkpt><trkpt lat="42.4869407" lon="14.1356933"><ele>116.99999999999999</ele><time>2026-05-01T15:59:53.005Z</time></trkpt><trkpt lat="42.4869744" lon="14.1358221"><ele>116.99999999999999</ele><time>2026-05-01T15:59:54.005Z</time></trkpt><trkpt lat="42.4870137" lon="14.1359479"><ele>117.0</ele><time>2026-05-01T15:59:55.005Z</time></trkpt><trkpt lat="42.4870529" lon="14.1360708"><ele>117.0</ele><time>2026-05-01T15:59:56.005Z</time></trkpt><trkpt lat="42.4871017" lon="14.1361928"><ele>117.39999999999999</ele><time>2026-05-01T15:59:57.005Z</time></trkpt><trkpt lat="42.4871519" lon="14.1363159"><ele>117.79999999999998</ele><time>2026-05-01T15:59:58.005Z</time></trkpt><trkpt lat="42.4871967" lon="14.1364272"><ele>118.2</ele><time>2026-05-01T15:59:59.005Z</time></trkpt><trkpt lat="42.4872427" lon="14.1365336"><ele>118.6</ele><time>2026-05-01T16:00:00.005Z</time></trkpt><trkpt lat="42.4872842" lon="14.1366412"><ele>119.0</ele><time>2026-05-01T16:00:01.005Z</time></trkpt><trkpt lat="42.487321" lon="14.1367477"><ele>119.83333333333333</ele><time>2026-05-01T16:00:02.005Z</time></trkpt><trkpt lat="42.4873591" lon="14.1368491"><ele>120.66666666666666</ele><time>2026-05-01T16:00:03.005Z</time></trkpt><trkpt lat="42.487397" lon="14.1369497"><ele>121.5</ele><time>2026-05-01T16:00:04.005Z</time></trkpt><trkpt lat="42.4874343" lon="14.1370426"><ele>122.33333333333334</ele><time>2026-05-01T16:00:05.005Z</time></trkpt><trkpt lat="42.4874627" lon="14.1371314"><ele>123.16666666666667</ele><time>2026-05-01T16:00:06.005Z</time></trkpt><trkpt lat="42.4875101" lon="14.1372765"><ele>124.0</ele><time>2026-05-01T16:00:08.005Z</time></trkpt><trkpt lat="42.4875338" lon="14.1373631"><ele>124.0</ele><time>2026-05-01T16:00:09.005Z</time></trkpt><trkpt lat="42.4875612" lon="14.1374566"><ele>124.0</ele><time>2026-05-01T16:00:10.005Z</time></trkpt><trkpt lat="42.4875972" lon="14.1375695"><ele>124.0</ele><time>2026-05-01T16:00:11.005Z</time></trkpt><trkpt lat="42.4876252" lon="14.1376951"><ele>124.0</ele><time>2026-05-01T16:00:12.005Z</time></trkpt><trkpt lat="42.4876442" lon="14.1378236"><ele>124.0</ele><time>2026-05-01T16:00:13.005Z</time></trkpt><trkpt lat="42.4876471" lon="14.1379493"><ele>124.00000000000001</ele><time>2026-05-01T16:00:14.005Z</time></trkpt><trkpt lat="42.4876422" lon="14.1380585"><ele>124.0</ele><time>2026-05-01T16:00:15.005Z</time></trkpt><trkpt lat="42.487634" lon="14.138155"><ele>124.0</ele><time>2026-05-01T16:00:16.005Z</time></trkpt><trkpt lat="42.4876277" lon="14.1382583"><ele>124.0</ele><time>2026-05-01T16:00:17.005Z</time></trkpt><trkpt lat="42.48763" lon="14.1383618"><ele>124.00000000000001</ele><time>2026-05-01T16:00:18.005Z</time></trkpt><trkpt lat="42.4876363" lon="14.1384649"><ele>124.0</ele><time>2026-05-01T16:00:19.005Z</time></trkpt><trkpt lat="42.487652" lon="14.13858"><ele>124.2</ele><time>2026-05-01T16:00:20.005Z</time></trkpt><trkpt lat="42.4876761" lon="14.1386976"><ele>124.4</ele><time>2026-05-01T16:00:21.005Z</time></trkpt><trkpt lat="42.4877069" lon="14.1388135"><ele>124.6</ele><time>2026-05-01T16:00:22.005Z</time></trkpt><trkpt lat="42.4877545" lon="14.1389157"><ele>124.8</ele><time>2026-05-01T16:00:23.005Z</time></trkpt><trkpt lat="42.4878096" lon="14.1390202"><ele>125.0</ele><time>2026-05-01T16:00:24.005Z</time></trkpt><trkpt lat="42.4878708" lon="14.139115"><ele>126.8</ele><time>2026-05-01T16:00:25.005Z</time></trkpt><trkpt lat="42.4879383" lon="14.1391937"><ele>128.6</ele><time>2026-05-01T16:00:26.005Z</time></trkpt><trkpt lat="42.4880199" lon="14.1392572"><ele>130.4</ele><time>2026-05-01T16:00:27.005Z</time></trkpt><trkpt lat="42.4881051" lon="14.1393033"><ele>132.2</ele><time>2026-05-01T16:00:28.005Z</time></trkpt><trkpt lat="42.4881944" lon="14.1393303"><ele>134.0</ele><time>2026-05-01T16:00:29.005Z</time></trkpt><trkpt lat="42.4882987" lon="14.1393385"><ele>134.0</ele><time>2026-05-01T16:00:30.005Z</time></trkpt><trkpt lat="42.4883995" lon="14.1393396"><ele>134.0</ele><time>2026-05-01T16:00:31.005Z</time></trkpt><trkpt lat="42.4884763" lon="14.1393581"><ele>134.0</ele><time>2026-05-01T16:00:32.005Z</time></trkpt><trkpt lat="42.4885479" lon="14.1393733"><ele>134.0</ele><time>2026-05-01T16:00:33.005Z</time></trkpt><trkpt lat="42.4886261" lon="14.1393879"><ele>134.0</ele><time>2026-05-01T16:00:34.005Z</time></trkpt><trkpt lat="42.4887212" lon="14.1393917"><ele>134.0</ele><time>2026-05-01T16:00:35.005Z</time></trkpt><trkpt lat="42.4888272" lon="14.1394014"><ele>134.6</ele><time>2026-05-01T16:00:36.005Z</time></trkpt><trkpt lat="42.4889349" lon="14.1394108"><ele>135.2</ele><time>2026-05-01T16:00:37.005Z</time></trkpt><trkpt lat="42.4890256" lon="14.1394549"><ele>135.79999999999998</ele><time>2026-05-01T16:00:38.005Z</time></trkpt><trkpt lat="42.4891058" lon="14.1395247"><ele>136.4</ele><time>2026-05-01T16:00:39.005Z</time></trkpt><trkpt lat="42.4891763" lon="14.1395833"><ele>137.0</ele><time>2026-05-01T16:00:40.005Z</time></trkpt><trkpt lat="42.4892501" lon="14.139612"><ele>137.0</ele><time>2026-05-01T16:00:41.005Z</time></trkpt><trkpt lat="42.4893228" lon="14.1395863"><ele>137.0</ele><time>2026-05-01T16:00:42.005Z</time></trkpt><trkpt lat="42.4894032" lon="14.1395241"><ele>137.0</ele><time>2026-05-01T16:00:43.005Z</time></trkpt><trkpt lat="42.489495" lon="14.1394733"><ele>137.0</ele><time>2026-05-01T16:00:44.005Z</time></trkpt><trkpt lat="42.4896083" lon="14.1394548"><ele>137.0</ele><time>2026-05-01T16:00:45.005Z</time></trkpt><trkpt lat="42.4897403" lon="14.1394623"><ele>138.33333333333331</ele><time>2026-05-01T16:00:46.005Z</time></trkpt><trkpt lat="42.489892" lon="14.1394785"><ele>139.66666666666666</ele><time>2026-05-01T16:00:47.005Z</time></trkpt><trkpt lat="42.4900487" lon="14.1394934"><ele>141.0</ele><time>2026-05-01T16:00:48.005Z</time></trkpt><trkpt lat="42.4902164" lon="14.1394964"><ele>141.0</ele><time>2026-05-01T16:00:49.005Z</time></trkpt><trkpt lat="42.4903768" lon="14.1395087"><ele>141.0</ele><time>2026-05-01T16:00:50.005Z</time></trkpt><trkpt lat="42.4905215" lon="14.1395149"><ele>141.0</ele><time>2026-05-01T16:00:51.005Z</time></trkpt><trkpt lat="42.4906502" lon="14.1395313"><ele>141.0</ele><time>2026-05-01T16:00:52.005Z</time></trkpt><trkpt lat="42.4907591" lon="14.1395691"><ele>143.5</ele><time>2026-05-01T16:00:53.005Z</time></trkpt><trkpt lat="42.4908347" lon="14.1396208"><ele>146.0</ele><time>2026-05-01T16:00:54.005Z</time></trkpt><trkpt lat="42.4908755" lon="14.1397909"><ele>148.5</ele><time>2026-05-01T16:00:56.005Z</time></trkpt><trkpt lat="42.4908715" lon="14.1399458"><ele>151.0</ele><time>2026-05-01T16:00:57.005Z</time></trkpt><trkpt lat="42.4908687" lon="14.1401278"><ele>152.0</ele><time>2026-05-01T16:00:58.005Z</time></trkpt><trkpt lat="42.4908724" lon="14.1403394"><ele>153.0</ele><time>2026-05-01T16:00:59.005Z</time></trkpt><trkpt lat="42.4908762" lon="14.1405362"><ele>154.0</ele><time>2026-05-01T16:01:00.005Z</time></trkpt><trkpt lat="42.4908862" lon="14.1406788"><ele>155.0</ele><time>2026-05-01T16:01:01.005Z</time></trkpt><trkpt lat="42.4909214" lon="14.1407954"><ele>155.0</ele><time>2026-05-01T16:01:02.005Z</time></trkpt><trkpt lat="42.4909775" lon="14.1408539"><ele>155.0</ele><time>2026-05-01T16:01:03.005Z</time></trkpt><trkpt lat="42.4910471" lon="14.140853"><ele>155.0</ele><time>2026-05-01T16:01:04.005Z</time></trkpt><trkpt lat="42.4911169" lon="14.1408154"><ele>155.0</ele><time>2026-05-01T16:01:05.005Z</time></trkpt><trkpt lat="42.4911941" lon="14.14073"><ele>155.0</ele><time>2026-05-01T16:01:06.005Z</time></trkpt><trkpt lat="42.4912536" lon="14.1406232"><ele>155.0</ele><time>2026-05-01T16:01:07.005Z</time></trkpt><trkpt lat="42.4913046" lon="14.1405351"><ele>156.0</ele><time>2026-05-01T16:01:08.005Z</time></trkpt><trkpt lat="42.4913452" lon="14.1404502"><ele>157.0</ele><time>2026-05-01T16:01:09.005Z</time></trkpt><trkpt lat="42.4913843" lon="14.1403743"><ele>158.0</ele><time>2026-05-01T16:01:10.005Z</time></trkpt><trkpt lat="42.4914855" lon="14.1403395"><ele>159.0</ele><time>2026-05-01T16:01:12.005Z</time></trkpt><trkpt lat="42.4915465" lon="14.1403907"><ele>160.0</ele><time>2026-05-01T16:01:13.005Z</time></trkpt><trkpt lat="42.4916011" lon="14.1404884"><ele>161.0</ele><time>2026-05-01T16:01:14.005Z</time></trkpt><trkpt lat="42.4916471" lon="14.1406363"><ele>161.0</ele><time>2026-05-01T16:01:15.005Z</time></trkpt><trkpt lat="42.4916921" lon="14.1408086"><ele>161.0</ele><time>2026-05-01T16:01:16.005Z</time></trkpt><trkpt lat="42.4917296" lon="14.1409822"><ele>161.0</ele><time>2026-05-01T16:01:17.005Z</time></trkpt><trkpt lat="42.4917651" lon="14.1411553"><ele>161.0</ele><time>2026-05-01T16:01:18.005Z</time></trkpt><trkpt lat="42.4917817" lon="14.1413299"><ele>161.0</ele><time>2026-05-01T16:01:19.005Z</time></trkpt><trkpt lat="42.4917688" lon="14.1415059"><ele>161.0</ele><time>2026-05-01T16:01:20.005Z</time></trkpt><trkpt lat="42.4917327" lon="14.1416732"><ele>161.0</ele><time>2026-05-01T16:01:21.005Z</time></trkpt><trkpt lat="42.4916784" lon="14.1418323"><ele>161.0</ele><time>2026-05-01T16:01:22.005Z</time></trkpt><trkpt lat="42.4916127" lon="14.1419803"><ele>161.0</ele><time>2026-05-01T16:01:23.005Z</time></trkpt><trkpt lat="42.4915772" lon="14.1421291"><ele>161.0</ele><time>2026-05-01T16:01:24.005Z</time></trkpt><trkpt lat="42.4915813" lon="14.1422858"><ele>161.0</ele><time>2026-05-01T16:01:25.005Z</time></trkpt><trkpt lat="42.4916282" lon="14.1424231"><ele>161.0</ele><time>2026-05-01T16:01:26.005Z</time></trkpt><trkpt lat="42.4917072" lon="14.1425349"><ele>160.20000000000002</ele><time>2026-05-01T16:01:27.005Z</time></trkpt><trkpt lat="42.4917805" lon="14.1426461"><ele>159.4</ele><time>2026-05-01T16:01:28.005Z</time></trkpt><trkpt lat="42.4918267" lon="14.1427865"><ele>158.6</ele><time>2026-05-01T16:01:29.005Z</time></trkpt><trkpt lat="42.4918204" lon="14.1429122"><ele>157.8</ele><time>2026-05-01T16:01:30.005Z</time></trkpt><trkpt lat="42.4917715" lon="14.143015"><ele>157.0</ele><time>2026-05-01T16:01:31.005Z</time></trkpt><trkpt lat="42.4917056" lon="14.1431045"><ele>157.0</ele><time>2026-05-01T16:01:32.005Z</time></trkpt><trkpt lat="42.4916243" lon="14.1432029"><ele>157.0</ele><time>2026-05-01T16:01:33.005Z</time></trkpt><trkpt lat="42.4915629" lon="14.1433253"><ele>157.0</ele><time>2026-05-01T16:01:34.005Z</time></trkpt><trkpt lat="42.4915463" lon="14.1434497"><ele>157.0</ele><time>2026-05-01T16:01:35.005Z</time></trkpt><trkpt lat="42.4915532" lon="14.1435954"><ele>157.0</ele><time>2026-05-01T16:01:36.005Z</time></trkpt><trkpt lat="42.4916062" lon="14.1437506"><ele>157.0</ele><time>2026-05-01T16:01:37.005Z</time></trkpt><trkpt lat="42.4916897" lon="14.1438888"><ele>157.0</ele><time>2026-05-01T16:01:38.005Z</time></trkpt><trkpt lat="42.4917758" lon="14.1440304"><ele>157.0</ele><time>2026-05-01T16:01:39.005Z</time></trkpt><trkpt lat="42.4918787" lon="14.1441395"><ele>157.0</ele><time>2026-05-01T16:01:40.005Z</time></trkpt><trkpt lat="42.4920062" lon="14.1442153"><ele>150.75</ele><time>2026-05-01T16:01:41.005Z</time></trkpt><trkpt lat="42.492149" lon="14.1442698"><ele>144.5</ele><time>2026-05-01T16:01:42.005Z</time></trkpt><trkpt lat="42.4922808" lon="14.1443228"><ele>138.25</ele><time>2026-05-01T16:01:43.005Z</time></trkpt><trkpt lat="42.4924038" lon="14.144386"><ele>132.0</ele><time>2026-05-01T16:01:44.005Z</time></trkpt><trkpt lat="42.4925302" lon="14.144457"><ele>132.0</ele><time>2026-05-01T16:01:45.005Z</time></trkpt><trkpt lat="42.4926514" lon="14.1445242"><ele>132.0</ele><time>2026-05-01T16:01:46.005Z</time></trkpt><trkpt lat="42.4927694" lon="14.1445943"><ele>132.0</ele><time>2026-05-01T16:01:47.005Z</time></trkpt><trkpt lat="42.4928787" lon="14.1446753"><ele>132.0</ele><time>2026-05-01T16:01:48.005Z</time></trkpt><trkpt lat="42.4929736" lon="14.1447825"><ele>133.25</ele><time>2026-05-01T16:01:49.005Z</time></trkpt><trkpt lat="42.4930497" lon="14.1449255"><ele>134.5</ele><time>2026-05-01T16:01:50.005Z</time></trkpt><trkpt lat="42.4931322" lon="14.1450688"><ele>135.75</ele><time>2026-05-01T16:01:51.005Z</time></trkpt><trkpt lat="42.493227" lon="14.1451939"><ele>137.0</ele><time>2026-05-01T16:01:52.005Z</time></trkpt><trkpt lat="42.4933406" lon="14.1452701"><ele>137.0</ele><time>2026-05-01T16:01:53.005Z</time></trkpt><trkpt lat="42.4934573" lon="14.1453005"><ele>137.0</ele><time>2026-05-01T16:01:54.005Z</time></trkpt><trkpt lat="42.4935795" lon="14.145302"><ele>137.0</ele><time>2026-05-01T16:01:55.005Z</time></trkpt><trkpt lat="42.4936864" lon="14.1452605"><ele>137.0</ele><time>2026-05-01T16:01:56.005Z</time></trkpt><trkpt lat="42.4937839" lon="14.1451709"><ele>135.5</ele><time>2026-05-01T16:01:57.005Z</time></trkpt><trkpt lat="42.4938506" lon="14.1450606"><ele>134.0</ele><time>2026-05-01T16:01:58.005Z</time></trkpt><trkpt lat="42.4939037" lon="14.1449105"><ele>132.5</ele><time>2026-05-01T16:01:59.005Z</time></trkpt><trkpt lat="42.4939428" lon="14.144724"><ele>131.0</ele><time>2026-05-01T16:02:00.005Z</time></trkpt><trkpt lat="42.4939878" lon="14.1445459"><ele>127.75</ele><time>2026-05-01T16:02:01.005Z</time></trkpt><trkpt lat="42.4940343" lon="14.1443768"><ele>124.5</ele><time>2026-05-01T16:02:02.005Z</time></trkpt><trkpt lat="42.4940829" lon="14.1442297"><ele>121.25</ele><time>2026-05-01T16:02:03.005Z</time></trkpt><trkpt lat="42.4941473" lon="14.1440901"><ele>118.0</ele><time>2026-05-01T16:02:04.005Z</time></trkpt><trkpt lat="42.4942443" lon="14.143986"><ele>114.5</ele><time>2026-05-01T16:02:05.005Z</time></trkpt><trkpt lat="42.4943675" lon="14.1439035"><ele>111.0</ele><time>2026-05-01T16:02:06.005Z</time></trkpt><trkpt lat="42.4944971" lon="14.1438482"><ele>107.5</ele><time>2026-05-01T16:02:07.005Z</time></trkpt><trkpt lat="42.4946347" lon="14.1438258"><ele>104.0</ele><time>2026-05-01T16:02:08.005Z</time></trkpt><trkpt lat="42.4947759" lon="14.1438232"><ele>104.0</ele><time>2026-05-01T16:02:09.005Z</time></trkpt><trkpt lat="42.4949239" lon="14.1438434"><ele>104.0</ele><time>2026-05-01T16:02:10.005Z</time></trkpt><trkpt lat="42.495078" lon="14.1438404"><ele>104.0</ele><time>2026-05-01T16:02:11.005Z</time></trkpt><trkpt lat="42.4952387" lon="14.1437872"><ele>104.0</ele><time>2026-05-01T16:02:12.005Z</time></trkpt><trkpt lat="42.4953969" lon="14.1437361"><ele>104.0</ele><time>2026-05-01T16:02:13.005Z</time></trkpt><trkpt lat="42.4955365" lon="14.1436807"><ele>104.0</ele><time>2026-05-01T16:02:14.005Z</time></trkpt><trkpt lat="42.4956708" lon="14.1435996"><ele>106.33333333333333</ele><time>2026-05-01T16:02:15.005Z</time></trkpt><trkpt lat="42.4958007" lon="14.1434916"><ele>108.66666666666666</ele><time>2026-05-01T16:02:16.005Z</time></trkpt><trkpt lat="42.4959411" lon="14.1433704"><ele>111.0</ele><time>2026-05-01T16:02:17.005Z</time></trkpt><trkpt lat="42.4960814" lon="14.1432534"><ele>108.0</ele><time>2026-05-01T16:02:18.005Z</time></trkpt><trkpt lat="42.496225" lon="14.1431303"><ele>105.0</ele><time>2026-05-01T16:02:19.005Z</time></trkpt><trkpt lat="42.4963749" lon="14.1430041"><ele>102.0</ele><time>2026-05-01T16:02:20.005Z</time></trkpt><trkpt lat="42.4965282" lon="14.1428773"><ele>101.33333333333334</ele><time>2026-05-01T16:02:21.005Z</time></trkpt><trkpt lat="42.4966787" lon="14.1427504"><ele>100.66666666666667</ele><time>2026-05-01T16:02:22.005Z</time></trkpt><trkpt lat="42.4968229" lon="14.1426218"><ele>100.0</ele><time>2026-05-01T16:02:23.005Z</time></trkpt><trkpt lat="42.4969617" lon="14.1424885"><ele>95.0</ele><time>2026-05-01T16:02:24.005Z</time></trkpt><trkpt lat="42.4970893" lon="14.1423462"><ele>90.0</ele><time>2026-05-01T16:02:25.005Z</time></trkpt><trkpt lat="42.4972072" lon="14.1422041"><ele>85.0</ele><time>2026-05-01T16:02:26.005Z</time></trkpt><trkpt lat="42.4973068" lon="14.1420938"><ele>85.0</ele><time>2026-05-01T16:02:27.005Z</time></trkpt><trkpt lat="42.4973867" lon="14.1420116"><ele>85.0</ele><time>2026-05-01T16:02:28.005Z</time></trkpt><trkpt lat="42.4974531" lon="14.1419794"><ele>85.0</ele><time>2026-05-01T16:02:29.005Z</time></trkpt><trkpt lat="42.4975226" lon="14.1419978"><ele>85.0</ele><time>2026-05-01T16:02:30.005Z</time></trkpt><trkpt lat="42.4975725" lon="14.1420629"><ele>85.0</ele><time>2026-05-01T16:02:31.005Z</time></trkpt><trkpt lat="42.4975872" lon="14.1421519"><ele>85.0</ele><time>2026-05-01T16:02:32.005Z</time></trkpt><trkpt lat="42.4975746" lon="14.1422386"><ele>85.0</ele><time>2026-05-01T16:02:33.005Z</time></trkpt><trkpt lat="42.4975198" lon="14.1423637"><ele>85.25</ele><time>2026-05-01T16:02:34.005Z</time></trkpt><trkpt lat="42.4974443" lon="14.1425134"><ele>85.5</ele><time>2026-05-01T16:02:35.005Z</time></trkpt><trkpt lat="42.4973551" lon="14.1426693"><ele>85.75</ele><time>2026-05-01T16:02:36.005Z</time></trkpt><trkpt lat="42.4972647" lon="14.1428281"><ele>86.0</ele><time>2026-05-01T16:02:37.005Z</time></trkpt><trkpt lat="42.497173" lon="14.1429861"><ele>89.33333333333334</ele><time>2026-05-01T16:02:38.005Z</time></trkpt><trkpt lat="42.4970801" lon="14.1431472"><ele>92.66666666666667</ele><time>2026-05-01T16:02:39.005Z</time></trkpt><trkpt lat="42.4969837" lon="14.1433174"><ele>96.0</ele><time>2026-05-01T16:02:40.005Z</time></trkpt><trkpt lat="42.4968857" lon="14.1434848"><ele>96.0</ele><time>2026-05-01T16:02:41.005Z</time></trkpt><trkpt lat="42.49679" lon="14.1436398"><ele>96.0</ele><time>2026-05-01T16:02:42.005Z</time></trkpt><trkpt lat="42.4966872" lon="14.1437905"><ele>96.0</ele><time>2026-05-01T16:02:43.005Z</time></trkpt><trkpt lat="42.4965966" lon="14.1439133"><ele>96.0</ele><time>2026-05-01T16:02:44.005Z</time></trkpt><trkpt lat="42.4965165" lon="14.1440315"><ele>92.5</ele><time>2026-05-01T16:02:45.005Z</time></trkpt><trkpt lat="42.4964585" lon="14.1441642"><ele>89.0</ele><time>2026-05-01T16:02:46.005Z</time></trkpt><trkpt lat="42.4964225" lon="14.1443047"><ele>85.5</ele><time>2026-05-01T16:02:47.005Z</time></trkpt><trkpt lat="42.4964035" lon="14.1444684"><ele>82.0</ele><time>2026-05-01T16:02:48.005Z</time></trkpt><trkpt lat="42.4964008" lon="14.1446307"><ele>82.0</ele><time>2026-05-01T16:02:49.005Z</time></trkpt><trkpt lat="42.496412" lon="14.1447882"><ele>82.0</ele><time>2026-05-01T16:02:50.005Z</time></trkpt><trkpt lat="42.496406" lon="14.1449362"><ele>82.0</ele><time>2026-05-01T16:02:51.005Z</time></trkpt><trkpt lat="42.4963638" lon="14.1450874"><ele>82.0</ele><time>2026-05-01T16:02:52.005Z</time></trkpt><trkpt lat="42.4963004" lon="14.1452358"><ele>82.0</ele><time>2026-05-01T16:02:53.005Z</time></trkpt><trkpt lat="42.4962329" lon="14.1453558"><ele>82.0</ele><time>2026-05-01T16:02:54.005Z</time></trkpt><trkpt lat="42.4961774" lon="14.1454875"><ele>82.0</ele><time>2026-05-01T16:02:55.005Z</time></trkpt><trkpt lat="42.4961513" lon="14.1456319"><ele>82.0</ele><time>2026-05-01T16:02:56.005Z</time></trkpt><trkpt lat="42.4961576" lon="14.14576"><ele>82.0</ele><time>2026-05-01T16:02:57.005Z</time></trkpt><trkpt lat="42.4962032" lon="14.1458685"><ele>80.0</ele><time>2026-05-01T16:02:58.005Z</time></trkpt><trkpt lat="42.4962819" lon="14.1459522"><ele>78.0</ele><time>2026-05-01T16:02:59.005Z</time></trkpt><trkpt lat="42.4963829" lon="14.1459988"><ele>76.0</ele><time>2026-05-01T16:03:00.005Z</time></trkpt><trkpt lat="42.496486" lon="14.1459983"><ele>74.0</ele><time>2026-05-01T16:03:01.005Z</time></trkpt><trkpt lat="42.4965774" lon="14.1459429"><ele>72.0</ele><time>2026-05-01T16:03:02.005Z</time></trkpt><trkpt lat="42.4966558" lon="14.1458456"><ele>71.5</ele><time>2026-05-01T16:03:03.005Z</time></trkpt><trkpt lat="42.4967073" lon="14.1457092"><ele>71.0</ele><time>2026-05-01T16:03:04.005Z</time></trkpt><trkpt lat="42.4967232" lon="14.145543"><ele>70.5</ele><time>2026-05-01T16:03:05.005Z</time></trkpt><trkpt lat="42.4967273" lon="14.1453698"><ele>70.0</ele><time>2026-05-01T16:03:06.005Z</time></trkpt><trkpt lat="42.4967552" lon="14.1452023"><ele>70.0</ele><time>2026-05-01T16:03:07.005Z</time></trkpt><trkpt lat="42.4968121" lon="14.145024"><ele>70.0</ele><time>2026-05-01T16:03:08.005Z</time></trkpt><trkpt lat="42.4968897" lon="14.1448627"><ele>70.0</ele><time>2026-05-01T16:03:09.005Z</time></trkpt><trkpt lat="42.4969827" lon="14.1447292"><ele>70.0</ele><time>2026-05-01T16:03:10.005Z</time></trkpt><trkpt lat="42.4970908" lon="14.1446209"><ele>66.66666666666666</ele><time>2026-05-01T16:03:11.005Z</time></trkpt><trkpt lat="42.4972264" lon="14.1445256"><ele>63.33333333333333</ele><time>2026-05-01T16:03:12.005Z</time></trkpt><trkpt lat="42.4973638" lon="14.144437"><ele>60.0</ele><time>2026-05-01T16:03:13.005Z</time></trkpt><trkpt lat="42.4975025" lon="14.1443405"><ele>60.0</ele><time>2026-05-01T16:03:14.005Z</time></trkpt><trkpt lat="42.4976248" lon="14.1442106"><ele>60.0</ele><time>2026-05-01T16:03:15.005Z</time></trkpt><trkpt lat="42.4977416" lon="14.1440536"><ele>60.0</ele><time>2026-05-01T16:03:16.005Z</time></trkpt><trkpt lat="42.497866" lon="14.1438883"><ele>57.0</ele><time>2026-05-01T16:03:17.005Z</time></trkpt><trkpt lat="42.4979835" lon="14.1437196"><ele>54.0</ele><time>2026-05-01T16:03:18.005Z</time></trkpt><trkpt lat="42.4980905" lon="14.1435501"><ele>51.0</ele><time>2026-05-01T16:03:19.005Z</time></trkpt><trkpt lat="42.4981892" lon="14.1433913"><ele>51.0</ele><time>2026-05-01T16:03:20.005Z</time></trkpt><trkpt lat="42.4982788" lon="14.1432484"><ele>51.0</ele><time>2026-05-01T16:03:21.005Z</time></trkpt><trkpt lat="42.4983582" lon="14.1431093"><ele>51.0</ele><time>2026-05-01T16:03:22.005Z</time></trkpt><trkpt lat="42.4984306" lon="14.1429881"><ele>51.0</ele><time>2026-05-01T16:03:23.005Z</time></trkpt><trkpt lat="42.4984935" lon="14.1428892"><ele>49.666666666666664</ele><time>2026-05-01T16:03:24.005Z</time></trkpt><trkpt lat="42.4985541" lon="14.1428095"><ele>48.333333333333336</ele><time>2026-05-01T16:03:25.005Z</time></trkpt><trkpt lat="42.4986333" lon="14.1427385"><ele>47.0</ele><time>2026-05-01T16:03:27.005Z</time></trkpt><trkpt lat="42.4987031" lon="14.1426529"><ele>45.66666666666667</ele><time>2026-05-01T16:03:54.005Z</time></trkpt><trkpt lat="42.4987303" lon="14.1425687"><ele>44.333333333333336</ele><time>2026-05-01T16:03:55.005Z</time></trkpt><trkpt lat="42.4987616" lon="14.1424634"><ele>43.0</ele><time>2026-05-01T16:03:56.005Z</time></trkpt><trkpt lat="42.4987892" lon="14.1423313"><ele>43.0</ele><time>2026-05-01T16:03:57.005Z</time></trkpt><trkpt lat="42.4988371" lon="14.1421742"><ele>43.0</ele><time>2026-05-01T16:03:58.005Z</time></trkpt><trkpt lat="42.4989009" lon="14.1420112"><ele>43.0</ele><time>2026-05-01T16:03:59.005Z</time></trkpt><trkpt lat="42.4989857" lon="14.1418273"><ele>43.0</ele><time>2026-05-01T16:04:00.005Z</time></trkpt><trkpt lat="42.4990876" lon="14.141642"><ele>46.0</ele><time>2026-05-01T16:04:01.005Z</time></trkpt><trkpt lat="42.499195" lon="14.1414814"><ele>49.0</ele><time>2026-05-01T16:04:02.005Z</time></trkpt><trkpt lat="42.4993072" lon="14.1413317"><ele>52.0</ele><time>2026-05-01T16:04:03.005Z</time></trkpt><trkpt lat="42.499422" lon="14.1411879"><ele>52.0</ele><time>2026-05-01T16:04:04.005Z</time></trkpt><trkpt lat="42.4995396" lon="14.1410692"><ele>52.0</ele><time>2026-05-01T16:04:05.005Z</time></trkpt><trkpt lat="42.4996648" lon="14.1409534"><ele>52.0</ele><time>2026-05-01T16:04:06.005Z</time></trkpt><trkpt lat="42.4997938" lon="14.1408208"><ele>47.666666666666664</ele><time>2026-05-01T16:04:07.005Z</time></trkpt><trkpt lat="42.4999118" lon="14.1406684"><ele>43.33333333333333</ele><time>2026-05-01T16:04:08.005Z</time></trkpt><trkpt lat="42.5000246" lon="14.140508"><ele>39.0</ele><time>2026-05-01T16:04:09.005Z</time></trkpt><trkpt lat="42.5001324" lon="14.1403406"><ele>39.0</ele><time>2026-05-01T16:04:10.005Z</time></trkpt><trkpt lat="42.5002382" lon="14.1401845"><ele>39.0</ele><time>2026-05-01T16:04:11.006Z</time></trkpt><trkpt lat="42.5003363" lon="14.1400215"><ele>39.0</ele><time>2026-05-01T16:04:12.005Z</time></trkpt><trkpt lat="42.500434" lon="14.1398588"><ele>35.75</ele><time>2026-05-01T16:04:13.005Z</time></trkpt><trkpt lat="42.5005296" lon="14.1397081"><ele>32.5</ele><time>2026-05-01T16:04:14.005Z</time></trkpt><trkpt lat="42.5006139" lon="14.1395613"><ele>29.25</ele><time>2026-05-01T16:04:15.005Z</time></trkpt><trkpt lat="42.5006959" lon="14.1394207"><ele>26.0</ele><time>2026-05-01T16:04:16.005Z</time></trkpt><trkpt lat="42.5007714" lon="14.1392772"><ele>26.0</ele><time>2026-05-01T16:04:17.005Z</time></trkpt><trkpt lat="42.5008416" lon="14.1391291"><ele>26.0</ele><time>2026-05-01T16:04:18.005Z</time></trkpt><trkpt lat="42.5009145" lon="14.1389765"><ele>26.0</ele><time>2026-05-01T16:04:19.005Z</time></trkpt><trkpt lat="42.5009829" lon="14.1388315"><ele>26.0</ele><time>2026-05-01T16:04:20.005Z</time></trkpt><trkpt lat="42.5010398" lon="14.138708"><ele>25.0</ele><time>2026-05-01T16:04:21.005Z</time></trkpt><trkpt lat="42.5010905" lon="14.1386068"><ele>24.0</ele><time>2026-05-01T16:04:22.005Z</time></trkpt><trkpt lat="42.5011409" lon="14.1385197"><ele>23.0</ele><time>2026-05-01T16:04:23.005Z</time></trkpt><trkpt lat="42.5011905" lon="14.1384096"><ele>22.0</ele><time>2026-05-01T16:04:24.005Z</time></trkpt><trkpt lat="42.5012249" lon="14.1382706"><ele>21.0</ele><time>2026-05-01T16:04:25.005Z</time></trkpt><trkpt lat="42.5012586" lon="14.138114"><ele>19.75</ele><time>2026-05-01T16:04:26.005Z</time></trkpt><trkpt lat="42.5012962" lon="14.1379547"><ele>18.5</ele><time>2026-05-01T16:04:27.005Z</time></trkpt><trkpt lat="42.501332" lon="14.1377981"><ele>17.25</ele><time>2026-05-01T16:04:28.005Z</time></trkpt><trkpt lat="42.5013739" lon="14.1376547"><ele>16.0</ele><time>2026-05-01T16:04:29.006Z</time></trkpt><trkpt lat="42.5014109" lon="14.1375117"><ele>15.600000000000001</ele><time>2026-05-01T16:04:30.005Z</time></trkpt><trkpt lat="42.501449" lon="14.1373787"><ele>15.200000000000001</ele><time>2026-05-01T16:04:31.005Z</time></trkpt><trkpt lat="42.5014818" lon="14.1372398"><ele>14.799999999999999</ele><time>2026-05-01T16:04:32.005Z</time></trkpt><trkpt lat="42.5015127" lon="14.1371029"><ele>14.399999999999999</ele><time>2026-05-01T16:04:33.005Z</time></trkpt><trkpt lat="42.5015421" lon="14.1369692"><ele>14.0</ele><time>2026-05-01T16:04:34.005Z</time></trkpt><trkpt lat="42.5015731" lon="14.1368359"><ele>14.000000000000002</ele><time>2026-05-01T16:04:35.005Z</time></trkpt><trkpt lat="42.5016043" lon="14.1367052"><ele>14.0</ele><time>2026-05-01T16:04:36.005Z</time></trkpt><trkpt lat="42.5016341" lon="14.1365792"><ele>14.0</ele><time>2026-05-01T16:04:37.005Z</time></trkpt><trkpt lat="42.501663" lon="14.1364703"><ele>14.0</ele><time>2026-05-01T16:04:38.005Z</time></trkpt><trkpt lat="42.5016885" lon="14.1363843"><ele>14.000000000000002</ele><time>2026-05-01T16:04:39.005Z</time></trkpt><trkpt lat="42.5017223" lon="14.1362674"><ele>14.0</ele><time>2026-05-01T16:04:41.005Z</time></trkpt><trkpt lat="42.5017487" lon="14.1361782"><ele>14.000000000000002</ele><time>2026-05-01T16:04:43.005Z</time></trkpt><trkpt lat="42.50178" lon="14.1360411"><ele>14.0</ele><time>2026-05-01T16:04:45.005Z</time></trkpt><trkpt lat="42.5018143" lon="14.1359252"><ele>14.0</ele><time>2026-05-01T16:04:47.005Z</time></trkpt><trkpt lat="42.5018345" lon="14.1358242"><ele>14.0</ele><time>2026-05-01T16:04:49.005Z</time></trkpt><trkpt lat="42.5018623" lon="14.1357166"><ele>14.000000000000002</ele><time>2026-05-01T16:04:51.005Z</time></trkpt><trkpt lat="42.5018842" lon="14.1356073"><ele>14.0</ele><time>2026-05-01T16:04:53.005Z</time></trkpt><trkpt lat="42.501907" lon="14.1355241"><ele>14.000000000000002</ele><time>2026-05-01T16:04:55.005Z</time></trkpt><trkpt lat="42.5019311" lon="14.135419"><ele>14.0</ele><time>2026-05-01T16:04:58.005Z</time></trkpt><trkpt lat="42.5019588" lon="14.1352396"><ele>14.0</ele><time>2026-05-01T16:05:00.005Z</time></trkpt><trkpt lat="42.5019913" lon="14.1351361"><ele>14.0</ele><time>2026-05-01T16:05:01.005Z</time></trkpt><trkpt lat="42.5020224" lon="14.1350407"><ele>14.000000000000002</ele><time>2026-05-01T16:05:02.005Z</time></trkpt><trkpt lat="42.5020529" lon="14.1349586"><ele>14.0</ele><time>2026-05-01T16:05:03.005Z</time></trkpt><trkpt lat="42.5021354" lon="14.1348362"><ele>14.0</ele><time>2026-05-01T16:05:05.005Z</time></trkpt><trkpt lat="42.5022491" lon="14.134765"><ele>13.999999999999998</ele><time>2026-05-01T16:05:07.005Z</time></trkpt><trkpt lat="42.5023221" lon="14.1347439"><ele>13.999999999999998</ele><time>2026-05-01T16:05:08.005Z</time></trkpt><trkpt lat="42.502404" lon="14.1347427"><ele>14.0</ele><time>2026-05-01T16:05:10.005Z</time></trkpt><trkpt lat="42.5024905" lon="14.1347827"><ele>14.0</ele><time>2026-05-01T16:05:14.005Z</time></trkpt><trkpt lat="42.5026026" lon="14.1348826"><ele>14.000000000000002</ele><time>2026-05-01T16:05:16.005Z</time></trkpt><trkpt lat="42.5026566" lon="14.1349539"><ele>14.0</ele><time>2026-05-01T16:05:17.005Z</time></trkpt><trkpt lat="42.502711" lon="14.1350188"><ele>14.0</ele><time>2026-05-01T16:05:18.005Z</time></trkpt><trkpt lat="42.5027593" lon="14.1350742"><ele>14.0</ele><time>2026-05-01T16:05:19.005Z</time></trkpt><trkpt lat="42.5028428" lon="14.1351606"><ele>14.000000000000002</ele><time>2026-05-01T16:05:21.005Z</time></trkpt><trkpt lat="42.5029249" lon="14.1352388"><ele>14.0</ele><time>2026-05-01T16:05:23.005Z</time></trkpt><trkpt lat="42.5030036" lon="14.1353061"><ele>13.799999999999999</ele><time>2026-05-01T16:05:25.005Z</time></trkpt><trkpt lat="42.5030771" lon="14.1352972"><ele>13.599999999999998</ele><time>2026-05-01T16:05:27.005Z</time></trkpt><trkpt lat="42.5031393" lon="14.1352048"><ele>13.4</ele><time>2026-05-01T16:05:29.005Z</time></trkpt><trkpt lat="42.5031862" lon="14.1350572"><ele>13.2</ele><time>2026-05-01T16:05:31.005Z</time></trkpt><trkpt lat="42.5032217" lon="14.1349175"><ele>13.0</ele><time>2026-05-01T16:05:33.005Z</time></trkpt><trkpt lat="42.5032609" lon="14.1347758"><ele>12.999999999999998</ele><time>2026-05-01T16:05:35.005Z</time></trkpt><trkpt lat="42.5032895" lon="14.1346803"><ele>13.0</ele><time>2026-05-01T16:05:36.005Z</time></trkpt><trkpt lat="42.503314" lon="14.1345756"><ele>13.0</ele><time>2026-05-01T16:05:37.005Z</time></trkpt><trkpt lat="42.5033381" lon="14.1344708"><ele>13.0</ele><time>2026-05-01T16:05:38.005Z</time></trkpt><trkpt lat="42.5033647" lon="14.1343742"><ele>12.999999999999998</ele><time>2026-05-01T16:05:39.005Z</time></trkpt><trkpt lat="42.503382" lon="14.1342742"><ele>13.0</ele><time>2026-05-01T16:05:40.005Z</time></trkpt><trkpt lat="42.5033976" lon="14.1341752"><ele>13.0</ele><time>2026-05-01T16:05:41.005Z</time></trkpt><trkpt lat="42.5034181" lon="14.134082"><ele>13.0</ele><time>2026-05-01T16:05:42.005Z</time></trkpt><trkpt lat="42.5034458" lon="14.1339753"><ele>13.0</ele><time>2026-05-01T16:05:43.005Z</time></trkpt><trkpt lat="42.5034791" lon="14.1338857"><ele>13.0</ele><time>2026-05-01T16:05:44.005Z</time></trkpt><trkpt lat="42.5035126" lon="14.133798"><ele>13.0</ele><time>2026-05-01T16:05:45.005Z</time></trkpt><trkpt lat="42.5035608" lon="14.133726"><ele>13.0</ele><time>2026-05-01T16:05:46.005Z</time></trkpt><trkpt lat="42.5036089" lon="14.1336543"><ele>13.0</ele><time>2026-05-01T16:05:47.005Z</time></trkpt><trkpt lat="42.5036658" lon="14.133583"><ele>13.0</ele><time>2026-05-01T16:05:48.005Z</time></trkpt><trkpt lat="42.5037345" lon="14.1335018"><ele>13.0</ele><time>2026-05-01T16:05:49.005Z</time></trkpt><trkpt lat="42.503819" lon="14.1334164"><ele>13.0</ele><time>2026-05-01T16:05:50.005Z</time></trkpt><trkpt lat="42.5039138" lon="14.1333221"><ele>13.0</ele><time>2026-05-01T16:05:51.005Z</time></trkpt><trkpt lat="42.5040163" lon="14.1332282"><ele>13.0</ele><time>2026-05-01T16:05:52.005Z</time></trkpt><trkpt lat="42.5041177" lon="14.1331428"><ele>13.0</ele><time>2026-05-01T16:05:53.005Z</time></trkpt><trkpt lat="42.5042222" lon="14.1330494"><ele>13.0</ele><time>2026-05-01T16:05:54.005Z</time></trkpt><trkpt lat="42.5043293" lon="14.1329496"><ele>13.0</ele><time>2026-05-01T16:05:55.005Z</time></trkpt><trkpt lat="42.5044411" lon="14.1328507"><ele>13.0</ele><time>2026-05-01T16:05:56.005Z</time></trkpt><trkpt lat="42.5045509" lon="14.1327497"><ele>12.0</ele><time>2026-05-01T16:05:57.005Z</time></trkpt><trkpt lat="42.5046542" lon="14.132655"><ele>11.0</ele><time>2026-05-01T16:05:58.005Z</time></trkpt><trkpt lat="42.5047561" lon="14.1325648"><ele>10.0</ele><time>2026-05-01T16:05:59.006Z</time></trkpt><trkpt lat="42.504857" lon="14.1324678"><ele>9.0</ele><time>2026-05-01T16:06:00.005Z</time></trkpt><trkpt lat="42.5049601" lon="14.1323653"><ele>9.0</ele><time>2026-05-01T16:06:01.005Z</time></trkpt><trkpt lat="42.5050596" lon="14.132272"><ele>9.0</ele><time>2026-05-01T16:06:02.005Z</time></trkpt><trkpt lat="42.5051521" lon="14.1321922"><ele>9.0</ele><time>2026-05-01T16:06:03.005Z</time></trkpt><trkpt lat="42.5052373" lon="14.1321121"><ele>9.0</ele><time>2026-05-01T16:06:04.005Z</time></trkpt><trkpt lat="42.5053144" lon="14.1320396"><ele>9.0</ele><time>2026-05-01T16:06:05.005Z</time></trkpt><trkpt lat="42.5053772" lon="14.1319686"><ele>9.0</ele><time>2026-05-01T16:06:06.005Z</time></trkpt><trkpt lat="42.5054468" lon="14.1319194"><ele>9.0</ele><time>2026-05-01T16:06:07.005Z</time></trkpt><trkpt lat="42.5055195" lon="14.1318519"><ele>9.0</ele><time>2026-05-01T16:06:08.005Z</time></trkpt><trkpt lat="42.5055903" lon="14.1317957"><ele>9.0</ele><time>2026-05-01T16:06:09.005Z</time></trkpt><trkpt lat="42.5056616" lon="14.131738"><ele>9.0</ele><time>2026-05-01T16:06:10.005Z</time></trkpt><trkpt lat="42.5057361" lon="14.13167"><ele>9.0</ele><time>2026-05-01T16:06:11.005Z</time></trkpt><trkpt lat="42.5058112" lon="14.1315945"><ele>9.0</ele><time>2026-05-01T16:06:12.005Z</time></trkpt><trkpt lat="42.5058881" lon="14.1315228"><ele>9.0</ele><time>2026-05-01T16:06:13.005Z</time></trkpt><trkpt lat="42.5059648" lon="14.1314413"><ele>9.0</ele><time>2026-05-01T16:06:14.005Z</time></trkpt><trkpt lat="42.5060501" lon="14.131341"><ele>9.0</ele><time>2026-05-01T16:06:15.005Z</time></trkpt><trkpt lat="42.5061466" lon="14.1312637"><ele>9.0</ele><time>2026-05-01T16:06:16.005Z</time></trkpt><trkpt lat="42.5062409" lon="14.1311879"><ele>9.0</ele><time>2026-05-01T16:06:17.005Z</time></trkpt><trkpt lat="42.506332" lon="14.131133"><ele>9.0</ele><time>2026-05-01T16:06:18.005Z</time></trkpt><trkpt lat="42.5064204" lon="14.1310857"><ele>9.0</ele><time>2026-05-01T16:06:19.005Z</time></trkpt><trkpt lat="42.5065069" lon="14.1310441"><ele>9.0</ele><time>2026-05-01T16:06:20.005Z</time></trkpt><trkpt lat="42.5065956" lon="14.131006"><ele>9.0</ele><time>2026-05-01T16:06:21.005Z</time></trkpt><trkpt lat="42.5066773" lon="14.1309672"><ele>9.0</ele><time>2026-05-01T16:06:22.005Z</time></trkpt><trkpt lat="42.506753" lon="14.1309304"><ele>9.0</ele><time>2026-05-01T16:06:23.005Z</time></trkpt><trkpt lat="42.5068273" lon="14.1308896"><ele>9.0</ele><time>2026-05-01T16:06:24.005Z</time></trkpt><trkpt lat="42.5069045" lon="14.1308501"><ele>9.0</ele><time>2026-05-01T16:06:25.005Z</time></trkpt><trkpt lat="42.506984" lon="14.1308146"><ele>9.0</ele><time>2026-05-01T16:06:26.005Z</time></trkpt><trkpt lat="42.5070712" lon="14.1307789"><ele>9.0</ele><time>2026-05-01T16:06:27.005Z</time></trkpt><trkpt lat="42.5071613" lon="14.1307474"><ele>9.6</ele><time>2026-05-01T16:06:28.005Z</time></trkpt><trkpt lat="42.5072543" lon="14.1307171"><ele>10.2</ele><time>2026-05-01T16:06:29.005Z</time></trkpt><trkpt lat="42.5073553" lon="14.1306778"><ele>10.799999999999999</ele><time>2026-05-01T16:06:30.005Z</time></trkpt><trkpt lat="42.5074433" lon="14.1306478"><ele>11.4</ele><time>2026-05-01T16:06:31.005Z</time></trkpt><trkpt lat="42.5075291" lon="14.130614"><ele>12.0</ele><time>2026-05-01T16:06:32.005Z</time></trkpt><trkpt lat="42.5076231" lon="14.1305738"><ele>12.0</ele><time>2026-05-01T16:06:33.005Z</time></trkpt><trkpt lat="42.5077289" lon="14.1305067"><ele>12.0</ele><time>2026-05-01T16:06:34.005Z</time></trkpt><trkpt lat="42.5078526" lon="14.1304155"><ele>12.0</ele><time>2026-05-01T16:06:35.005Z</time></trkpt><trkpt lat="42.5079766" lon="14.1303248"><ele>12.0</ele><time>2026-05-01T16:06:36.005Z</time></trkpt><trkpt lat="42.5081033" lon="14.1302352"><ele>12.0</ele><time>2026-05-01T16:06:37.005Z</time></trkpt><trkpt lat="42.50823" lon="14.130147"><ele>12.0</ele><time>2026-05-01T16:06:38.005Z</time></trkpt><trkpt lat="42.5083476" lon="14.1300633"><ele>12.0</ele><time>2026-05-01T16:06:39.005Z</time></trkpt><trkpt lat="42.508453" lon="14.1299804"><ele>12.0</ele><time>2026-05-01T16:06:40.005Z</time></trkpt><trkpt lat="42.5085452" lon="14.1299043"><ele>10.799999999999999</ele><time>2026-05-01T16:06:41.005Z</time></trkpt><trkpt lat="42.5086215" lon="14.129853"><ele>9.6</ele><time>2026-05-01T16:06:42.005Z</time></trkpt><trkpt lat="42.5086883" lon="14.1298131"><ele>8.399999999999999</ele><time>2026-05-01T16:06:43.005Z</time></trkpt><trkpt lat="42.5087878" lon="14.1297847"><ele>7.199999999999999</ele><time>2026-05-01T16:06:45.005Z</time></trkpt><trkpt lat="42.5089183" lon="14.1298022"><ele>6.0</ele><time>2026-05-01T16:06:47.005Z</time></trkpt><trkpt lat="42.508996" lon="14.1298203"><ele>5.75</ele><time>2026-05-01T16:06:48.005Z</time></trkpt><trkpt lat="42.5090749" lon="14.129873"><ele>5.5</ele><time>2026-05-01T16:06:49.005Z</time></trkpt><trkpt lat="42.5091516" lon="14.1299736"><ele>5.25</ele><time>2026-05-01T16:06:50.005Z</time></trkpt><trkpt lat="42.5092368" lon="14.1300964"><ele>5.0</ele><time>2026-05-01T16:06:51.005Z</time></trkpt><trkpt lat="42.5093295" lon="14.1302377"><ele>5.0</ele><time>2026-05-01T16:06:52.005Z</time></trkpt><trkpt lat="42.5094385" lon="14.1303857"><ele>5.0</ele><time>2026-05-01T16:06:53.005Z</time></trkpt><trkpt lat="42.5095409" lon="14.1305341"><ele>5.0</ele><time>2026-05-01T16:06:54.005Z</time></trkpt><trkpt lat="42.509639" lon="14.1306749"><ele>5.0</ele><time>2026-05-01T16:06:55.005Z</time></trkpt><trkpt lat="42.5097425" lon="14.1308253"><ele>5.0</ele><time>2026-05-01T16:06:56.005Z</time></trkpt><trkpt lat="42.5098511" lon="14.1309801"><ele>5.0</ele><time>2026-05-01T16:06:57.005Z</time></trkpt><trkpt lat="42.509962" lon="14.1311418"><ele>5.0</ele><time>2026-05-01T16:06:58.005Z</time></trkpt><trkpt lat="42.5100648" lon="14.1313008"><ele>5.0</ele><time>2026-05-01T16:06:59.005Z</time></trkpt><trkpt lat="42.5101673" lon="14.1314686"><ele>5.0</ele><time>2026-05-01T16:07:00.005Z</time></trkpt><trkpt lat="42.5102697" lon="14.1316425"><ele>5.0</ele><time>2026-05-01T16:07:01.005Z</time></trkpt><trkpt lat="42.510364" lon="14.1318162"><ele>4.75</ele><time>2026-05-01T16:07:02.005Z</time></trkpt><trkpt lat="42.510457" lon="14.1319835"><ele>4.5</ele><time>2026-05-01T16:07:03.005Z</time></trkpt><trkpt lat="42.5105448" lon="14.1321469"><ele>4.25</ele><time>2026-05-01T16:07:04.005Z</time></trkpt><trkpt lat="42.5106231" lon="14.132311"><ele>4.0</ele><time>2026-05-01T16:07:05.005Z</time></trkpt><trkpt lat="42.5107047" lon="14.1324716"><ele>4.5</ele><time>2026-05-01T16:07:06.005Z</time></trkpt><trkpt lat="42.5107889" lon="14.132633"><ele>5.0</ele><time>2026-05-01T16:07:07.005Z</time></trkpt><trkpt lat="42.5108761" lon="14.1327937"><ele>5.5</ele><time>2026-05-01T16:07:08.005Z</time></trkpt><trkpt lat="42.5109638" lon="14.1329583"><ele>6.0</ele><time>2026-05-01T16:07:09.005Z</time></trkpt><trkpt lat="42.5110472" lon="14.1331147"><ele>6.25</ele><time>2026-05-01T16:07:10.005Z</time></trkpt><trkpt lat="42.5111351" lon="14.1332619"><ele>6.5</ele><time>2026-05-01T16:07:11.005Z</time></trkpt><trkpt lat="42.5112231" lon="14.1333999"><ele>6.75</ele><time>2026-05-01T16:07:12.005Z</time></trkpt><trkpt lat="42.5113074" lon="14.1335395"><ele>7.0</ele><time>2026-05-01T16:07:13.005Z</time></trkpt><trkpt lat="42.5113902" lon="14.1336888"><ele>6.5</ele><time>2026-05-01T16:07:14.005Z</time></trkpt><trkpt lat="42.5114665" lon="14.1338427"><ele>6.0</ele><time>2026-05-01T16:07:15.005Z</time></trkpt><trkpt lat="42.5115334" lon="14.1339939"><ele>5.5</ele><time>2026-05-01T16:07:16.005Z</time></trkpt><trkpt lat="42.5116077" lon="14.1341353"><ele>5.0</ele><time>2026-05-01T16:07:17.005Z</time></trkpt><trkpt lat="42.5116883" lon="14.1342677"><ele>5.0</ele><time>2026-05-01T16:07:18.005Z</time></trkpt><trkpt lat="42.5117857" lon="14.1343923"><ele>5.0</ele><time>2026-05-01T16:07:19.005Z</time></trkpt><trkpt lat="42.5118935" lon="14.1345015"><ele>5.0</ele><time>2026-05-01T16:07:20.005Z</time></trkpt><trkpt lat="42.512006" lon="14.1345958"><ele>5.0</ele><time>2026-05-01T16:07:21.005Z</time></trkpt><trkpt lat="42.5121195" lon="14.1346704"><ele>4.5</ele><time>2026-05-01T16:07:22.005Z</time></trkpt><trkpt lat="42.5122332" lon="14.1347476"><ele>4.0</ele><time>2026-05-01T16:07:23.005Z</time></trkpt><trkpt lat="42.5123512" lon="14.1348258"><ele>3.5</ele><time>2026-05-01T16:07:24.005Z</time></trkpt><trkpt lat="42.5124703" lon="14.1349007"><ele>3.0</ele><time>2026-05-01T16:07:25.005Z</time></trkpt><trkpt lat="42.5125884" lon="14.1349835"><ele>3.0</ele><time>2026-05-01T16:07:26.005Z</time></trkpt><trkpt lat="42.5126995" lon="14.1350688"><ele>3.0</ele><time>2026-05-01T16:07:27.005Z</time></trkpt><trkpt lat="42.5128035" lon="14.1351612"><ele>3.0</ele><time>2026-05-01T16:07:28.005Z</time></trkpt><trkpt lat="42.5128969" lon="14.1352532"><ele>3.0</ele><time>2026-05-01T16:07:29.005Z</time></trkpt><trkpt lat="42.5129801" lon="14.1353515"><ele>3.0</ele><time>2026-05-01T16:07:30.005Z</time></trkpt><trkpt lat="42.5130561" lon="14.1354567"><ele>3.0</ele><time>2026-05-01T16:07:31.005Z</time></trkpt><trkpt lat="42.5131228" lon="14.1355793"><ele>3.0</ele><time>2026-05-01T16:07:32.005Z</time></trkpt><trkpt lat="42.5131816" lon="14.1357108"><ele>3.0</ele><time>2026-05-01T16:07:33.005Z</time></trkpt><trkpt lat="42.5132314" lon="14.1358372"><ele>3.0</ele><time>2026-05-01T16:07:34.005Z</time></trkpt><trkpt lat="42.5132715" lon="14.1359562"><ele>3.0</ele><time>2026-05-01T16:07:35.005Z</time></trkpt><trkpt lat="42.5133063" lon="14.1360737"><ele>3.0</ele><time>2026-05-01T16:07:36.005Z</time></trkpt><trkpt lat="42.5133333" lon="14.1361921"><ele>3.0</ele><time>2026-05-01T16:07:37.005Z</time></trkpt><trkpt lat="42.5133627" lon="14.1363144"><ele>3.0</ele><time>2026-05-01T16:07:38.005Z</time></trkpt><trkpt lat="42.5133917" lon="14.1364327"><ele>3.0</ele><time>2026-05-01T16:07:39.005Z</time></trkpt><trkpt lat="42.5134156" lon="14.1365464"><ele>3.1666666666666665</ele><time>2026-05-01T16:07:40.005Z</time></trkpt><trkpt lat="42.5134362" lon="14.1366477"><ele>3.333333333333333</ele><time>2026-05-01T16:07:41.005Z</time></trkpt><trkpt lat="42.513456" lon="14.1367427"><ele>3.5</ele><time>2026-05-01T16:07:42.005Z</time></trkpt><trkpt lat="42.513475" lon="14.1368275"><ele>3.6666666666666665</ele><time>2026-05-01T16:07:43.005Z</time></trkpt><trkpt lat="42.5135061" lon="14.1369312"><ele>3.833333333333333</ele><time>2026-05-01T16:07:45.005Z</time></trkpt><trkpt lat="42.5135417" lon="14.1370393"><ele>4.0</ele><time>2026-05-01T16:07:48.005Z</time></trkpt><trkpt lat="42.5135965" lon="14.137183"><ele>3.9999999999999996</ele><time>2026-05-01T16:07:50.005Z</time></trkpt><trkpt lat="42.5136338" lon="14.1372815"><ele>4.0</ele><time>2026-05-01T16:07:52.005Z</time></trkpt><trkpt lat="42.5136658" lon="14.1373613"><ele>4.0</ele><time>2026-05-01T16:07:55.005Z</time></trkpt><trkpt lat="42.5136983" lon="14.1374347"><ele>4.0</ele><time>2026-05-01T16:07:57.005Z</time></trkpt><trkpt lat="42.5137239" lon="14.1375433"><ele>3.9999999999999996</ele><time>2026-05-01T16:07:59.005Z</time></trkpt><trkpt lat="42.5137435" lon="14.137724"><ele>4.0</ele><time>2026-05-01T16:08:01.005Z</time></trkpt><trkpt lat="42.5137261" lon="14.1378308"><ele>4.2</ele><time>2026-05-01T16:08:02.005Z</time></trkpt><trkpt lat="42.5136866" lon="14.1379305"><ele>4.4</ele><time>2026-05-01T16:08:03.005Z</time></trkpt><trkpt lat="42.5136327" lon="14.138052"><ele>4.6</ele><time>2026-05-01T16:08:04.005Z</time></trkpt><trkpt lat="42.513582" lon="14.1381669"><ele>4.8</ele><time>2026-05-01T16:08:05.005Z</time></trkpt><trkpt lat="42.5135337" lon="14.1382892"><ele>5.0</ele><time>2026-05-01T16:08:06.005Z</time></trkpt><trkpt lat="42.5134923" lon="14.1383962"><ele>5.0</ele><time>2026-05-01T16:08:07.005Z</time></trkpt><trkpt lat="42.5134537" lon="14.1384944"><ele>5.0</ele><time>2026-05-01T16:08:08.005Z</time></trkpt><trkpt lat="42.5134166" lon="14.1385889"><ele>5.0</ele><time>2026-05-01T16:08:09.005Z</time></trkpt><trkpt lat="42.5133784" lon="14.1386865"><ele>5.0</ele><time>2026-05-01T16:08:10.005Z</time></trkpt><trkpt lat="42.5133386" lon="14.1387804"><ele>5.0</ele><time>2026-05-01T16:08:11.005Z</time></trkpt><trkpt lat="42.5133066" lon="14.1388738"><ele>5.0</ele><time>2026-05-01T16:08:12.005Z</time></trkpt><trkpt lat="42.5132739" lon="14.1389772"><ele>5.333333333333334</ele><time>2026-05-01T16:08:13.005Z</time></trkpt><trkpt lat="42.5132324" lon="14.1390792"><ele>5.666666666666667</ele><time>2026-05-01T16:08:14.005Z</time></trkpt><trkpt lat="42.5131904" lon="14.139181"><ele>6.0</ele><time>2026-05-01T16:08:15.005Z</time></trkpt><trkpt lat="42.5131502" lon="14.1392767"><ele>6.333333333333334</ele><time>2026-05-01T16:08:16.005Z</time></trkpt><trkpt lat="42.5131157" lon="14.1393717"><ele>6.666666666666667</ele><time>2026-05-01T16:08:17.005Z</time></trkpt><trkpt lat="42.5130733" lon="14.1394779"><ele>7.0</ele><time>2026-05-01T16:08:18.005Z</time></trkpt><trkpt lat="42.5130333" lon="14.1395843"><ele>7.000000000000001</ele><time>2026-05-01T16:08:19.005Z</time></trkpt><trkpt lat="42.5129921" lon="14.1396959"><ele>7.0</ele><time>2026-05-01T16:08:20.005Z</time></trkpt><trkpt lat="42.5129507" lon="14.1398027"><ele>7.0</ele><time>2026-05-01T16:08:21.005Z</time></trkpt><trkpt lat="42.5129126" lon="14.1399074"><ele>7.0</ele><time>2026-05-01T16:08:22.005Z</time></trkpt><trkpt lat="42.5128793" lon="14.1399941"><ele>7.000000000000001</ele><time>2026-05-01T16:08:23.005Z</time></trkpt><trkpt lat="42.5128525" lon="14.1400745"><ele>7.0</ele><time>2026-05-01T16:08:24.005Z</time></trkpt><trkpt lat="42.5128066" lon="14.1402194"><ele>6.833333333333334</ele><time>2026-05-01T16:08:26.005Z</time></trkpt><trkpt lat="42.5127852" lon="14.1403005"><ele>6.666666666666667</ele><time>2026-05-01T16:08:27.005Z</time></trkpt><trkpt lat="42.5127613" lon="14.1403897"><ele>6.5</ele><time>2026-05-01T16:08:28.005Z</time></trkpt><trkpt lat="42.5127331" lon="14.1404791"><ele>6.333333333333334</ele><time>2026-05-01T16:08:29.005Z</time></trkpt><trkpt lat="42.5126944" lon="14.1405812"><ele>6.166666666666667</ele><time>2026-05-01T16:08:30.005Z</time></trkpt><trkpt lat="42.5126604" lon="14.1406929"><ele>6.0</ele><time>2026-05-01T16:08:31.005Z</time></trkpt><trkpt lat="42.5126224" lon="14.1407975"><ele>6.333333333333333</ele><time>2026-05-01T16:08:32.005Z</time></trkpt><trkpt lat="42.5125825" lon="14.1409037"><ele>6.666666666666666</ele><time>2026-05-01T16:08:33.005Z</time></trkpt><trkpt lat="42.5125432" lon="14.1409959"><ele>7.0</ele><time>2026-05-01T16:08:34.005Z</time></trkpt><trkpt lat="42.5125021" lon="14.1410785"><ele>7.333333333333333</ele><time>2026-05-01T16:08:35.005Z</time></trkpt><trkpt lat="42.51247" lon="14.1411606"><ele>7.666666666666666</ele><time>2026-05-01T16:08:36.005Z</time></trkpt><trkpt lat="42.5124394" lon="14.1412422"><ele>8.0</ele><time>2026-05-01T16:08:37.005Z</time></trkpt><trkpt lat="42.5124396" lon="14.1414025"><ele>7.999999999999999</ele><time>2026-05-01T16:08:39.005Z</time></trkpt><trkpt lat="42.512532" lon="14.1414915"><ele>8.0</ele><time>2026-05-01T16:08:41.005Z</time></trkpt><trkpt lat="42.5125971" lon="14.141502"><ele>8.0</ele><time>2026-05-01T16:08:42.005Z</time></trkpt><trkpt lat="42.5126744" lon="14.1414836"><ele>8.0</ele><time>2026-05-01T16:08:43.005Z</time></trkpt><trkpt lat="42.5127627" lon="14.1414548"><ele>7.999999999999999</ele><time>2026-05-01T16:08:44.005Z</time></trkpt><trkpt lat="42.512852" lon="14.1414327"><ele>8.0</ele><time>2026-05-01T16:08:45.005Z</time></trkpt><trkpt lat="42.5129577" lon="14.1414232"><ele>7.6000000000000005</ele><time>2026-05-01T16:08:46.005Z</time></trkpt><trkpt lat="42.5130757" lon="14.1414197"><ele>7.200000000000001</ele><time>2026-05-01T16:08:47.005Z</time></trkpt><trkpt lat="42.513193" lon="14.14143"><ele>6.8</ele><time>2026-05-01T16:08:48.005Z</time></trkpt><trkpt lat="42.5133005" lon="14.141447"><ele>6.4</ele><time>2026-05-01T16:08:49.005Z</time></trkpt><trkpt lat="42.5133915" lon="14.1414802"><ele>6.0</ele><time>2026-05-01T16:08:50.005Z</time></trkpt><trkpt lat="42.5134793" lon="14.1415265"><ele>6.0</ele><time>2026-05-01T16:08:51.005Z</time></trkpt><trkpt lat="42.5135588" lon="14.141577"><ele>6.0</ele><time>2026-05-01T16:08:52.005Z</time></trkpt><trkpt lat="42.5136394" lon="14.1416309"><ele>6.0</ele><time>2026-05-01T16:08:53.005Z</time></trkpt><trkpt lat="42.5137131" lon="14.1416859"><ele>6.0</ele><time>2026-05-01T16:08:54.005Z</time></trkpt><trkpt lat="42.5137761" lon="14.1417273"><ele>6.0</ele><time>2026-05-01T16:08:55.005Z</time></trkpt><trkpt lat="42.5138571" lon="14.1417832"><ele>6.0</ele><time>2026-05-01T16:08:57.005Z</time></trkpt><trkpt lat="42.5139271" lon="14.1418407"><ele>5.3999999999999995</ele><time>2026-05-01T16:08:59.005Z</time></trkpt><trkpt lat="42.5140025" lon="14.1419019"><ele>4.8</ele><time>2026-05-01T16:09:01.005Z</time></trkpt><trkpt lat="42.5140958" lon="14.1419806"><ele>4.199999999999999</ele><time>2026-05-01T16:09:03.005Z</time></trkpt><trkpt lat="42.5141959" lon="14.142083"><ele>3.5999999999999996</ele><time>2026-05-01T16:09:05.005Z</time></trkpt><trkpt lat="42.5142395" lon="14.1421545"><ele>3.0</ele><time>2026-05-01T16:09:06.005Z</time></trkpt><trkpt lat="42.5142681" lon="14.1422392"><ele>3.0</ele><time>2026-05-01T16:09:07.005Z</time></trkpt><trkpt lat="42.5142813" lon="14.1423234"><ele>3.0</ele><time>2026-05-01T16:09:08.005Z</time></trkpt><trkpt lat="42.514345" lon="14.1424485"><ele>3.0</ele><time>2026-05-01T16:09:10.005Z</time></trkpt><trkpt lat="42.5144571" lon="14.1424751"><ele>3.0</ele><time>2026-05-01T16:09:12.005Z</time></trkpt><trkpt lat="42.5145166" lon="14.1424424"><ele>3.0</ele><time>2026-05-01T16:09:13.005Z</time></trkpt><trkpt lat="42.5146285" lon="14.1424061"><ele>2.8</ele><time>2026-05-01T16:09:15.005Z</time></trkpt><trkpt lat="42.5147518" lon="14.1424665"><ele>2.5999999999999996</ele><time>2026-05-01T16:09:17.005Z</time></trkpt><trkpt lat="42.5148358" lon="14.1425187"><ele>2.4000000000000004</ele><time>2026-05-01T16:09:18.005Z</time></trkpt><trkpt lat="42.5149294" lon="14.1425796"><ele>2.2</ele><time>2026-05-01T16:09:19.005Z</time></trkpt><trkpt lat="42.5150316" lon="14.1426416"><ele>2.0</ele><time>2026-05-01T16:09:20.005Z</time></trkpt><trkpt lat="42.51515" lon="14.1427162"><ele>2.0</ele><time>2026-05-01T16:09:21.005Z</time></trkpt><trkpt lat="42.5152686" lon="14.1427932"><ele>2.0</ele><time>2026-05-01T16:09:22.005Z</time></trkpt><trkpt lat="42.5153785" lon="14.1428746"><ele>2.0</ele><time>2026-05-01T16:09:23.005Z</time></trkpt><trkpt lat="42.5154871" lon="14.1429508"><ele>2.0</ele><time>2026-05-01T16:09:24.005Z</time></trkpt><trkpt lat="42.515584" lon="14.1430191"><ele>2.25</ele><time>2026-05-01T16:09:25.005Z</time></trkpt><trkpt lat="42.5156822" lon="14.1430858"><ele>2.5</ele><time>2026-05-01T16:09:26.005Z</time></trkpt><trkpt lat="42.5157901" lon="14.1431663"><ele>2.75</ele><time>2026-05-01T16:09:27.005Z</time></trkpt><trkpt lat="42.5159002" lon="14.143244"><ele>3.0</ele><time>2026-05-01T16:09:28.005Z</time></trkpt><trkpt lat="42.5160085" lon="14.1433211"><ele>3.25</ele><time>2026-05-01T16:09:29.005Z</time></trkpt><trkpt lat="42.5161261" lon="14.1434026"><ele>3.5</ele><time>2026-05-01T16:09:30.005Z</time></trkpt><trkpt lat="42.5162511" lon="14.1434868"><ele>3.75</ele><time>2026-05-01T16:09:31.005Z</time></trkpt><trkpt lat="42.5163828" lon="14.1435733"><ele>4.0</ele><time>2026-05-01T16:09:32.005Z</time></trkpt><trkpt lat="42.5165272" lon="14.143676"><ele>4.0</ele><time>2026-05-01T16:09:33.005Z</time></trkpt><trkpt lat="42.5166869" lon="14.1437952"><ele>4.0</ele><time>2026-05-01T16:09:34.005Z</time></trkpt><trkpt lat="42.5168489" lon="14.1439306"><ele>4.0</ele><time>2026-05-01T16:09:35.005Z</time></trkpt><trkpt lat="42.5170168" lon="14.1440514"><ele>3.6666666666666665</ele><time>2026-05-01T16:09:36.005Z</time></trkpt><trkpt lat="42.5171811" lon="14.1441671"><ele>3.333333333333333</ele><time>2026-05-01T16:09:37.005Z</time></trkpt><trkpt lat="42.5173533" lon="14.1442875"><ele>3.0</ele><time>2026-05-01T16:09:38.005Z</time></trkpt><trkpt lat="42.5175089" lon="14.144405"><ele>3.0</ele><time>2026-05-01T16:09:39.005Z</time></trkpt><trkpt lat="42.5176459" lon="14.1445174"><ele>3.0</ele><time>2026-05-01T16:09:40.005Z</time></trkpt><trkpt lat="42.5177713" lon="14.1446205"><ele>3.0</ele><time>2026-05-01T16:09:41.005Z</time></trkpt><trkpt lat="42.5178911" lon="14.1447029"><ele>3.0</ele><time>2026-05-01T16:09:42.005Z</time></trkpt><trkpt lat="42.518015" lon="14.1447932"><ele>3.0</ele><time>2026-05-01T16:09:43.005Z</time></trkpt><trkpt lat="42.5181459" lon="14.144889"><ele>3.0</ele><time>2026-05-01T16:09:44.005Z</time></trkpt><trkpt lat="42.5182846" lon="14.1449855"><ele>3.0</ele><time>2026-05-01T16:09:45.006Z</time></trkpt><trkpt lat="42.5184317" lon="14.1450893"><ele>3.0</ele><time>2026-05-01T16:09:46.005Z</time></trkpt><trkpt lat="42.518576" lon="14.1452025"><ele>3.0</ele><time>2026-05-01T16:09:47.005Z</time></trkpt><trkpt lat="42.518706" lon="14.1452979"><ele>3.0</ele><time>2026-05-01T16:09:48.005Z</time></trkpt><trkpt lat="42.518826" lon="14.1453823"><ele>3.0</ele><time>2026-05-01T16:09:49.005Z</time></trkpt><trkpt lat="42.5189427" lon="14.1454656"><ele>3.0</ele><time>2026-05-01T16:09:50.005Z</time></trkpt><trkpt lat="42.5190619" lon="14.1455485"><ele>3.0</ele><time>2026-05-01T16:09:51.005Z</time></trkpt><trkpt lat="42.5191687" lon="14.1456296"><ele>3.0</ele><time>2026-05-01T16:09:52.005Z</time></trkpt><trkpt lat="42.5192688" lon="14.1456962"><ele>3.4</ele><time>2026-05-01T16:09:53.005Z</time></trkpt><trkpt lat="42.5193548" lon="14.1457638"><ele>3.8</ele><time>2026-05-01T16:09:54.005Z</time></trkpt><trkpt lat="42.5194289" lon="14.1458232"><ele>4.2</ele><time>2026-05-01T16:09:55.005Z</time></trkpt><trkpt lat="42.5195151" lon="14.1459347"><ele>4.6</ele><time>2026-05-01T16:09:57.005Z</time></trkpt><trkpt lat="42.5195633" lon="14.1460612"><ele>5.0</ele><time>2026-05-01T16:09:59.005Z</time></trkpt><trkpt lat="42.5195267" lon="14.1461608"><ele>5.0</ele><time>2026-05-01T16:10:01.005Z</time></trkpt><trkpt lat="42.5194486" lon="14.1462933"><ele>5.0</ele><time>2026-05-01T16:10:03.005Z</time></trkpt><trkpt lat="42.5194129" lon="14.1463729"><ele>5.0</ele><time>2026-05-01T16:10:04.005Z</time></trkpt><trkpt lat="42.5193711" lon="14.146442"><ele>5.0</ele><time>2026-05-01T16:10:05.005Z</time></trkpt><trkpt lat="42.5193107" lon="14.1465352"><ele>5.0</ele><time>2026-05-01T16:10:07.005Z</time></trkpt><trkpt lat="42.5192541" lon="14.1466075"><ele>5.0</ele><time>2026-05-01T16:10:11.005Z</time></trkpt><trkpt lat="42.5191929" lon="14.146679"><ele>4.666666666666667</ele><time>2026-05-01T16:10:13.005Z</time></trkpt><trkpt lat="42.5191345" lon="14.1467499"><ele>4.333333333333334</ele><time>2026-05-01T16:10:19.005Z</time></trkpt><trkpt lat="42.5190747" lon="14.1468824"><ele>4.0</ele><time>2026-05-01T16:10:27.005Z</time></trkpt><trkpt lat="42.5190539" lon="14.1469782"><ele>3.666666666666667</ele><time>2026-05-01T16:10:29.005Z</time></trkpt><trkpt lat="42.5190683" lon="14.1470706"><ele>3.3333333333333335</ele><time>2026-05-01T16:10:31.005Z</time></trkpt><trkpt lat="42.519109" lon="14.1471463"><ele>3.0</ele><time>2026-05-01T16:10:33.005Z</time></trkpt><trkpt lat="42.519208" lon="14.147197"><ele>3.0</ele><time>2026-05-01T16:10:35.005Z</time></trkpt><trkpt lat="42.5192917" lon="14.1472366"><ele>3.0</ele><time>2026-05-01T16:10:36.005Z</time></trkpt><trkpt lat="42.5194007" lon="14.1472887"><ele>3.0</ele><time>2026-05-01T16:10:37.005Z</time></trkpt><trkpt lat="42.519507" lon="14.1473561"><ele>3.0</ele><time>2026-05-01T16:10:38.005Z</time></trkpt><trkpt lat="42.5195971" lon="14.1474889"><ele>2.0</ele><time>2026-05-01T16:10:39.005Z</time></trkpt><trkpt lat="42.5196882" lon="14.147645"><ele>1.0</ele><time>2026-05-01T16:10:40.005Z</time></trkpt><trkpt lat="42.5197817" lon="14.1478305"><ele>0.0</ele><time>2026-05-01T16:10:41.005Z</time></trkpt><trkpt lat="42.5198788" lon="14.1480286"><ele>0.6666666666666666</ele><time>2026-05-01T16:10:42.005Z</time></trkpt><trkpt lat="42.5199723" lon="14.1482347"><ele>1.3333333333333333</ele><time>2026-05-01T16:10:43.005Z</time></trkpt><trkpt lat="42.5200561" lon="14.1484562"><ele>2.0</ele><time>2026-05-01T16:10:44.005Z</time></trkpt><trkpt lat="42.520131" lon="14.1486791"><ele>2.0</ele><time>2026-05-01T16:10:45.005Z</time></trkpt><trkpt lat="42.5202067" lon="14.1489004"><ele>2.0</ele><time>2026-05-01T16:10:46.005Z</time></trkpt><trkpt lat="42.520283" lon="14.1490952"><ele>2.0</ele><time>2026-05-01T16:10:47.005Z</time></trkpt><trkpt lat="42.5203473" lon="14.1492825"><ele>2.0</ele><time>2026-05-01T16:10:48.005Z</time></trkpt><trkpt lat="42.5204035" lon="14.1494508"><ele>2.0</ele><time>2026-05-01T16:10:49.005Z</time></trkpt><trkpt lat="42.5204644" lon="14.1496136"><ele>2.0</ele><time>2026-05-01T16:10:50.005Z</time></trkpt><trkpt lat="42.5205217" lon="14.1497735"><ele>2.0</ele><time>2026-05-01T16:10:51.005Z</time></trkpt><trkpt lat="42.5205692" lon="14.1499236"><ele>2.2</ele><time>2026-05-01T16:10:52.005Z</time></trkpt><trkpt lat="42.520616" lon="14.1500617"><ele>2.4000000000000004</ele><time>2026-05-01T16:10:53.005Z</time></trkpt><trkpt lat="42.5206626" lon="14.1501929"><ele>2.5999999999999996</ele><time>2026-05-01T16:10:54.005Z</time></trkpt><trkpt lat="42.5207048" lon="14.1503164"><ele>2.8</ele><time>2026-05-01T16:10:55.005Z</time></trkpt><trkpt lat="42.5207444" lon="14.1504365"><ele>3.0</ele><time>2026-05-01T16:10:56.005Z</time></trkpt><trkpt lat="42.5207832" lon="14.1505544"><ele>3.0</ele><time>2026-05-01T16:10:57.005Z</time></trkpt><trkpt lat="42.5208232" lon="14.1506676"><ele>3.0</ele><time>2026-05-01T16:10:58.005Z</time></trkpt><trkpt lat="42.5208609" lon="14.150779"><ele>3.0</ele><time>2026-05-01T16:10:59.005Z</time></trkpt><trkpt lat="42.5209008" lon="14.1508987"><ele>3.0</ele><time>2026-05-01T16:11:00.005Z</time></trkpt><trkpt lat="42.5209448" lon="14.15102"><ele>3.0</ele><time>2026-05-01T16:11:01.005Z</time></trkpt><trkpt lat="42.5209885" lon="14.1511347"><ele>2.8333333333333335</ele><time>2026-05-01T16:11:02.005Z</time></trkpt><trkpt lat="42.5210298" lon="14.1512391"><ele>2.6666666666666665</ele><time>2026-05-01T16:11:03.005Z</time></trkpt><trkpt lat="42.5210625" lon="14.1513395"><ele>2.5</ele><time>2026-05-01T16:11:04.005Z</time></trkpt><trkpt lat="42.5210896" lon="14.1514253"><ele>2.333333333333333</ele><time>2026-05-01T16:11:05.005Z</time></trkpt><trkpt lat="42.5211312" lon="14.1515712"><ele>2.1666666666666665</ele><time>2026-05-01T16:11:07.005Z</time></trkpt><trkpt lat="42.521173" lon="14.1516813"><ele>2.0</ele><time>2026-05-01T16:11:09.005Z</time></trkpt><trkpt lat="42.5212233" lon="14.1517766"><ele>1.6666666666666665</ele><time>2026-05-01T16:11:11.005Z</time></trkpt><trkpt lat="42.5212527" lon="14.1518625"><ele>1.3333333333333333</ele><time>2026-05-01T16:11:12.005Z</time></trkpt><trkpt lat="42.5212827" lon="14.1519538"><ele>1.0</ele><time>2026-05-01T16:11:13.005Z</time></trkpt><trkpt lat="42.5213082" lon="14.1520327"><ele>0.6666666666666666</ele><time>2026-05-01T16:11:14.005Z</time></trkpt><trkpt lat="42.5213392" lon="14.1521232"><ele>0.3333333333333333</ele><time>2026-05-01T16:11:15.005Z</time></trkpt><trkpt lat="42.5213789" lon="14.1522231"><ele>0.0</ele><time>2026-05-01T16:11:16.005Z</time></trkpt><trkpt lat="42.5214143" lon="14.1523385"><ele>-0.25</ele><time>2026-05-01T16:11:17.005Z</time></trkpt><trkpt lat="42.5214618" lon="14.1524711"><ele>-0.5</ele><time>2026-05-01T16:11:18.005Z</time></trkpt><trkpt lat="42.521513" lon="14.1526293"><ele>-0.75</ele><time>2026-05-01T16:11:19.005Z</time></trkpt><trkpt lat="42.5215639" lon="14.1527886"><ele>-1.0</ele><time>2026-05-01T16:11:20.005Z</time></trkpt><trkpt lat="42.5216122" lon="14.152937"><ele>-1.0</ele><time>2026-05-01T16:11:21.005Z</time></trkpt><trkpt lat="42.5216559" lon="14.1530707"><ele>-1.0</ele><time>2026-05-01T16:11:22.005Z</time></trkpt><trkpt lat="42.521697" lon="14.1531864"><ele>-1.0</ele><time>2026-05-01T16:11:23.005Z</time></trkpt><trkpt lat="42.521738" lon="14.1533021"><ele>-1.0</ele><time>2026-05-01T16:11:24.005Z</time></trkpt><trkpt lat="42.5217747" lon="14.1534038"><ele>-1.0</ele><time>2026-05-01T16:11:25.005Z</time></trkpt><trkpt lat="42.5218035" lon="14.1534906"><ele>-0.8571428571428571</ele><time>2026-05-01T16:11:26.005Z</time></trkpt><trkpt lat="42.5218317" lon="14.1535874"><ele>-0.7142857142857142</ele><time>2026-05-01T16:11:28.005Z</time></trkpt><trkpt lat="42.5218877" lon="14.1536382"><ele>-0.5714285714285714</ele><time>2026-05-01T16:11:38.005Z</time></trkpt><trkpt lat="42.5219521" lon="14.153646"><ele>-0.42857142857142855</ele><time>2026-05-01T16:11:47.005Z</time></trkpt><trkpt lat="42.5220205" lon="14.1535968"><ele>-0.2857142857142857</ele><time>2026-05-01T16:11:49.005Z</time></trkpt><trkpt lat="42.5220878" lon="14.1535477"><ele>-0.14285714285714285</ele><time>2026-05-01T16:11:50.005Z</time></trkpt><trkpt lat="42.522155" lon="14.1534947"><ele>0.0</ele><time>2026-05-01T16:11:51.005Z</time></trkpt><trkpt lat="42.522213" lon="14.1534466"><ele>0.3333333333333333</ele><time>2026-05-01T16:11:52.005Z</time></trkpt><trkpt lat="42.5222823" lon="14.1533514"><ele>0.6666666666666666</ele><time>2026-05-01T16:11:54.005Z</time></trkpt><trkpt lat="42.522279" lon="14.153265"><ele>1.0</ele><time>2026-05-01T16:11:56.005Z</time></trkpt><trkpt lat="42.5222312" lon="14.1531819"><ele>1.3333333333333333</ele><time>2026-05-01T16:11:58.005Z</time></trkpt><trkpt lat="42.522176" lon="14.1530702"><ele>1.6666666666666665</ele><time>2026-05-01T16:12:00.005Z</time></trkpt><trkpt lat="42.5221299" lon="14.152948"><ele>2.0</ele><time>2026-05-01T16:12:02.005Z</time></trkpt><trkpt lat="42.5220889" lon="14.1528671"><ele>1.6666666666666665</ele><time>2026-05-01T16:12:05.005Z</time></trkpt><trkpt lat="42.5220595" lon="14.1527692"><ele>1.3333333333333333</ele><time>2026-05-01T16:12:32.005Z</time></trkpt><trkpt lat="42.5220348" lon="14.1526832"><ele>1.0</ele><time>2026-05-01T16:12:36.005Z</time></trkpt><trkpt lat="42.5219957" lon="14.1526034"><ele>0.6666666666666666</ele><time>2026-05-01T16:12:40.003Z</time></trkpt><trkpt lat="42.5219503" lon="14.152508"><ele>0.3333333333333333</ele><time>2026-05-01T16:12:45.003Z</time></trkpt><trkpt lat="42.5218981" lon="14.152432"><ele>0.0</ele><time>2026-05-01T16:12:48.003Z</time></trkpt><trkpt lat="42.5218491" lon="14.1523498"><ele>0.0</ele><time>2026-05-01T16:12:50.003Z</time></trkpt><trkpt lat="42.5218213" lon="14.1522427"><ele>0.0</ele><time>2026-05-01T16:12:53.003Z</time></trkpt><trkpt lat="42.5218633" lon="14.1521693"><ele>0.0</ele><time>2026-05-01T16:12:57.003Z</time></trkpt></trkseg></trk></gpx>